<?xml version='1.0' encoding='UTF-8'?><gpx version="1.1" creator="JPX - https://github.com/jenetics/jpx" xmlns="http://www.topografix.com/GPX/1/1"><trk><trkseg><trkpt lat="43.8827483" lon="11.1805483"><ele>91.0</ele><time>2026-04-11T07:38:19.418Z</time></trkpt><trkpt lat="43.88283" lon="11.1805817"><ele>91.0</ele><time>2026-04-11T07:38:22.418Z</time></trkpt><trkpt lat="43.8829033" lon="11.1806"><ele>91.0</ele><time>2026-04-11T07:38:24.419Z</time></trkpt><trkpt lat="43.8829983" lon="11.1806367"><ele>91.0</ele><time>2026-04-11T07:38:26.419Z</time></trkpt><trkpt lat="43.8831067" lon="11.1806767"><ele>91.0</ele><time>2026-04-11T07:38:28.417Z</time></trkpt><trkpt lat="43.8832083" lon="11.18073"><ele>91.0</ele><time>2026-04-11T07:38:30.417Z</time></trkpt><trkpt lat="43.88332" lon="11.1808"><ele>91.0</ele><time>2026-04-11T07:38:32.418Z</time></trkpt><trkpt lat="43.8833733" lon="11.180875"><ele>91.0</ele><time>2026-04-11T07:38:33.418Z</time></trkpt><trkpt lat="43.8834233" lon="11.1809583"><ele>91.0</ele><time>2026-04-11T07:38:34.419Z</time></trkpt><trkpt lat="43.883465" lon="11.1810517"><ele>91.0</ele><time>2026-04-11T07:38:35.419Z</time></trkpt><trkpt lat="43.8835" lon="11.1811517"><ele>91.0</ele><time>2026-04-11T07:38:36.417Z</time></trkpt><trkpt lat="43.88352" lon="11.1812633"><ele>91.0</ele><time>2026-04-11T07:38:37.417Z</time></trkpt><trkpt lat="43.8835333" lon="11.1813817"><ele>91.0</ele><time>2026-04-11T07:38:38.418Z</time></trkpt><trkpt lat="43.8835533" lon="11.1815083"><ele>91.0</ele><time>2026-04-11T07:38:39.418Z</time></trkpt><trkpt lat="43.8835817" lon="11.1816383"><ele>91.0</ele><time>2026-04-11T07:38:40.418Z</time></trkpt><trkpt lat="43.8836133" lon="11.1817633"><ele>91.0</ele><time>2026-04-11T07:38:41.42Z</time></trkpt><trkpt lat="43.8836483" lon="11.1818833"><ele>91.4</ele><time>2026-04-11T07:38:42.419Z</time></trkpt><trkpt lat="43.8836883" lon="11.18201"><ele>91.8</ele><time>2026-04-11T07:38:43.42Z</time></trkpt><trkpt lat="43.88373" lon="11.1821367"><ele>92.2</ele><time>2026-04-11T07:38:44.419Z</time></trkpt><trkpt lat="43.8837733" lon="11.1822667"><ele>92.60000000000001</ele><time>2026-04-11T07:38:45.419Z</time></trkpt><trkpt lat="43.883815" lon="11.182395"><ele>93.0</ele><time>2026-04-11T07:38:46.419Z</time></trkpt><trkpt lat="43.8838567" lon="11.1825133"><ele>93.2</ele><time>2026-04-11T07:38:47.419Z</time></trkpt><trkpt lat="43.8839" lon="11.18263"><ele>93.4</ele><time>2026-04-11T07:38:48.418Z</time></trkpt><trkpt lat="43.883945" lon="11.18275"><ele>93.60000000000001</ele><time>2026-04-11T07:38:49.419Z</time></trkpt><trkpt lat="43.8839917" lon="11.182875"><ele>93.80000000000001</ele><time>2026-04-11T07:38:50.42Z</time></trkpt><trkpt lat="43.884035" lon="11.1829967"><ele>94.0</ele><time>2026-04-11T07:38:51.417Z</time></trkpt><trkpt lat="43.884075" lon="11.1831133"><ele>94.0</ele><time>2026-04-11T07:38:52.418Z</time></trkpt><trkpt lat="43.8841167" lon="11.1832283"><ele>94.0</ele><time>2026-04-11T07:38:53.418Z</time></trkpt><trkpt lat="43.8841617" lon="11.1833383"><ele>94.0</ele><time>2026-04-11T07:38:54.418Z</time></trkpt><trkpt lat="43.88421" lon="11.1834567"><ele>94.0</ele><time>2026-04-11T07:38:55.417Z</time></trkpt><trkpt lat="43.88426" lon="11.183595"><ele>94.0</ele><time>2026-04-11T07:38:56.417Z</time></trkpt><trkpt lat="43.8843183" lon="11.183755"><ele>94.33333333333333</ele><time>2026-04-11T07:38:57.419Z</time></trkpt><trkpt lat="43.8843867" lon="11.1839333"><ele>94.66666666666667</ele><time>2026-04-11T07:38:58.418Z</time></trkpt><trkpt lat="43.8844583" lon="11.1841217"><ele>95.0</ele><time>2026-04-11T07:38:59.417Z</time></trkpt><trkpt lat="43.884525" lon="11.18431"><ele>95.0</ele><time>2026-04-11T07:39:00.417Z</time></trkpt><trkpt lat="43.8846" lon="11.1845017"><ele>95.0</ele><time>2026-04-11T07:39:01.42Z</time></trkpt><trkpt lat="43.8846767" lon="11.1847"><ele>95.0</ele><time>2026-04-11T07:39:02.419Z</time></trkpt><trkpt lat="43.8847567" lon="11.1848967"><ele>95.66666666666667</ele><time>2026-04-11T07:39:03.42Z</time></trkpt><trkpt lat="43.8848417" lon="11.1850833"><ele>96.33333333333334</ele><time>2026-04-11T07:39:04.418Z</time></trkpt><trkpt lat="43.8849367" lon="11.1852433"><ele>97.0</ele><time>2026-04-11T07:39:05.419Z</time></trkpt><trkpt lat="43.8850533" lon="11.1853817"><ele>97.0</ele><time>2026-04-11T07:39:06.418Z</time></trkpt><trkpt lat="43.885185" lon="11.1855033"><ele>97.0</ele><time>2026-04-11T07:39:07.419Z</time></trkpt><trkpt lat="43.8853217" lon="11.1856167"><ele>97.0</ele><time>2026-04-11T07:39:08.418Z</time></trkpt><trkpt lat="43.8854717" lon="11.1857"><ele>97.0</ele><time>2026-04-11T07:39:09.419Z</time></trkpt><trkpt lat="43.885615" lon="11.1857917"><ele>97.0</ele><time>2026-04-11T07:39:10.419Z</time></trkpt><trkpt lat="43.885745" lon="11.185895"><ele>97.0</ele><time>2026-04-11T07:39:11.417Z</time></trkpt><trkpt lat="43.8858683" lon="11.1860067"><ele>99.33333333333334</ele><time>2026-04-11T07:39:12.418Z</time></trkpt><trkpt lat="43.8859867" lon="11.1861267"><ele>101.66666666666666</ele><time>2026-04-11T07:39:13.418Z</time></trkpt><trkpt lat="43.8860967" lon="11.1862633"><ele>104.0</ele><time>2026-04-11T07:39:14.418Z</time></trkpt><trkpt lat="43.8862067" lon="11.1864217"><ele>103.33333333333333</ele><time>2026-04-11T07:39:15.423Z</time></trkpt><trkpt lat="43.8863167" lon="11.1865867"><ele>102.66666666666666</ele><time>2026-04-11T07:39:16.417Z</time></trkpt><trkpt lat="43.886425" lon="11.1867517"><ele>102.0</ele><time>2026-04-11T07:39:17.418Z</time></trkpt><trkpt lat="43.8865317" lon="11.1869183"><ele>102.0</ele><time>2026-04-11T07:39:18.417Z</time></trkpt><trkpt lat="43.8866383" lon="11.1870783"><ele>102.0</ele><time>2026-04-11T07:39:19.417Z</time></trkpt><trkpt lat="43.8867433" lon="11.1872383"><ele>102.0</ele><time>2026-04-11T07:39:20.419Z</time></trkpt><trkpt lat="43.8868467" lon="11.1873933"><ele>104.0</ele><time>2026-04-11T07:39:21.418Z</time></trkpt><trkpt lat="43.88694" lon="11.1875467"><ele>106.0</ele><time>2026-04-11T07:39:22.419Z</time></trkpt><trkpt lat="43.8870217" lon="11.18771"><ele>108.0</ele><time>2026-04-11T07:39:23.419Z</time></trkpt><trkpt lat="43.8870933" lon="11.1878833"><ele>110.0</ele><time>2026-04-11T07:39:24.419Z</time></trkpt><trkpt lat="43.887145" lon="11.1880767"><ele>110.0</ele><time>2026-04-11T07:39:25.419Z</time></trkpt><trkpt lat="43.8871817" lon="11.1882833"><ele>110.0</ele><time>2026-04-11T07:39:26.419Z</time></trkpt><trkpt lat="43.8871983" lon="11.1885033"><ele>110.0</ele><time>2026-04-11T07:39:27.419Z</time></trkpt><trkpt lat="43.8872" lon="11.1887267"><ele>110.0</ele><time>2026-04-11T07:39:28.419Z</time></trkpt><trkpt lat="43.8871933" lon="11.18894"><ele>110.0</ele><time>2026-04-11T07:39:29.421Z</time></trkpt><trkpt lat="43.88718" lon="11.1891483"><ele>110.0</ele><time>2026-04-11T07:39:30.419Z</time></trkpt><trkpt lat="43.88717" lon="11.1893467"><ele>110.0</ele><time>2026-04-11T07:39:31.419Z</time></trkpt><trkpt lat="43.8871667" lon="11.1895417"><ele>109.25</ele><time>2026-04-11T07:39:32.419Z</time></trkpt><trkpt lat="43.8871667" lon="11.1897383"><ele>108.5</ele><time>2026-04-11T07:39:33.419Z</time></trkpt><trkpt lat="43.8871783" lon="11.1899317"><ele>107.75</ele><time>2026-04-11T07:39:34.419Z</time></trkpt><trkpt lat="43.8872" lon="11.1901267"><ele>107.0</ele><time>2026-04-11T07:39:35.419Z</time></trkpt><trkpt lat="43.8872317" lon="11.1903183"><ele>107.0</ele><time>2026-04-11T07:39:36.418Z</time></trkpt><trkpt lat="43.887275" lon="11.190505"><ele>107.0</ele><time>2026-04-11T07:39:37.419Z</time></trkpt><trkpt lat="43.88733" lon="11.1906867"><ele>107.0</ele><time>2026-04-11T07:39:38.419Z</time></trkpt><trkpt lat="43.887395" lon="11.1908683"><ele>107.0</ele><time>2026-04-11T07:39:39.419Z</time></trkpt><trkpt lat="43.8874683" lon="11.1910433"><ele>107.0</ele><time>2026-04-11T07:39:40.42Z</time></trkpt><trkpt lat="43.8875467" lon="11.1912183"><ele>107.0</ele><time>2026-04-11T07:39:41.42Z</time></trkpt><trkpt lat="43.8876283" lon="11.1913883"><ele>107.0</ele><time>2026-04-11T07:39:42.42Z</time></trkpt><trkpt lat="43.88771" lon="11.1915617"><ele>107.0</ele><time>2026-04-11T07:39:43.42Z</time></trkpt><trkpt lat="43.8877933" lon="11.191745"><ele>109.33333333333333</ele><time>2026-04-11T07:39:44.42Z</time></trkpt><trkpt lat="43.8878783" lon="11.1919217"><ele>111.66666666666666</ele><time>2026-04-11T07:39:45.42Z</time></trkpt><trkpt lat="43.8879667" lon="11.192105"><ele>114.0</ele><time>2026-04-11T07:39:46.418Z</time></trkpt><trkpt lat="43.8880517" lon="11.19229"><ele>114.33333333333334</ele><time>2026-04-11T07:39:47.419Z</time></trkpt><trkpt lat="43.88814" lon="11.19247"><ele>114.66666666666667</ele><time>2026-04-11T07:39:48.418Z</time></trkpt><trkpt lat="43.8882283" lon="11.1926533"><ele>115.0</ele><time>2026-04-11T07:39:49.419Z</time></trkpt><trkpt lat="43.88832" lon="11.1928333"><ele>115.0</ele><time>2026-04-11T07:39:50.419Z</time></trkpt><trkpt lat="43.8884167" lon="11.1930067"><ele>115.0</ele><time>2026-04-11T07:39:51.418Z</time></trkpt><trkpt lat="43.88852" lon="11.1931767"><ele>115.0</ele><time>2026-04-11T07:39:52.419Z</time></trkpt><trkpt lat="43.88863" lon="11.1933467"><ele>122.66666666666667</ele><time>2026-04-11T07:39:53.419Z</time></trkpt><trkpt lat="43.88874" lon="11.1935317"><ele>130.33333333333334</ele><time>2026-04-11T07:39:54.419Z</time></trkpt><trkpt lat="43.8888433" lon="11.1937433"><ele>138.0</ele><time>2026-04-11T07:39:55.419Z</time></trkpt><trkpt lat="43.8889417" lon="11.1939683"><ele>133.33333333333334</ele><time>2026-04-11T07:39:56.42Z</time></trkpt><trkpt lat="43.8890317" lon="11.1942017"><ele>128.66666666666669</ele><time>2026-04-11T07:39:57.419Z</time></trkpt><trkpt lat="43.88914" lon="11.1944333"><ele>124.0</ele><time>2026-04-11T07:39:58.419Z</time></trkpt><trkpt lat="43.8892567" lon="11.1946517"><ele>127.66666666666667</ele><time>2026-04-11T07:39:59.419Z</time></trkpt><trkpt lat="43.88939" lon="11.1948617"><ele>131.33333333333334</ele><time>2026-04-11T07:40:00.419Z</time></trkpt><trkpt lat="43.88953" lon="11.1950617"><ele>135.0</ele><time>2026-04-11T07:40:01.42Z</time></trkpt><trkpt lat="43.8896717" lon="11.1952583"><ele>135.0</ele><time>2026-04-11T07:40:02.42Z</time></trkpt><trkpt lat="43.88981" lon="11.19546"><ele>135.0</ele><time>2026-04-11T07:40:03.42Z</time></trkpt><trkpt lat="43.8899383" lon="11.19566"><ele>135.0</ele><time>2026-04-11T07:40:04.42Z</time></trkpt><trkpt lat="43.8900533" lon="11.1958583"><ele>138.66666666666666</ele><time>2026-04-11T07:40:05.417Z</time></trkpt><trkpt lat="43.8901633" lon="11.1960483"><ele>142.33333333333331</ele><time>2026-04-11T07:40:06.418Z</time></trkpt><trkpt lat="43.89025" lon="11.1962717"><ele>146.0</ele><time>2026-04-11T07:40:07.419Z</time></trkpt><trkpt lat="43.8903" lon="11.1965217"><ele>146.0</ele><time>2026-04-11T07:40:08.42Z</time></trkpt><trkpt lat="43.890345" lon="11.196755"><ele>146.0</ele><time>2026-04-11T07:40:09.419Z</time></trkpt><trkpt lat="43.8903967" lon="11.1969833"><ele>146.0</ele><time>2026-04-11T07:40:10.418Z</time></trkpt><trkpt lat="43.890445" lon="11.1972067"><ele>141.75</ele><time>2026-04-11T07:40:11.419Z</time></trkpt><trkpt lat="43.8905133" lon="11.1973917"><ele>137.5</ele><time>2026-04-11T07:40:12.418Z</time></trkpt><trkpt lat="43.890595" lon="11.19754"><ele>133.25</ele><time>2026-04-11T07:40:13.419Z</time></trkpt><trkpt lat="43.8906917" lon="11.1976467"><ele>129.0</ele><time>2026-04-11T07:40:14.419Z</time></trkpt><trkpt lat="43.8908083" lon="11.1977317"><ele>135.33333333333334</ele><time>2026-04-11T07:40:15.419Z</time></trkpt><trkpt lat="43.8909433" lon="11.197785"><ele>141.66666666666669</ele><time>2026-04-11T07:40:16.419Z</time></trkpt><trkpt lat="43.8910883" lon="11.19785"><ele>148.0</ele><time>2026-04-11T07:40:17.419Z</time></trkpt><trkpt lat="43.89124" lon="11.1979133"><ele>148.0</ele><time>2026-04-11T07:40:18.42Z</time></trkpt><trkpt lat="43.8913867" lon="11.1980233"><ele>148.0</ele><time>2026-04-11T07:40:19.418Z</time></trkpt><trkpt lat="43.8915217" lon="11.1981767"><ele>148.0</ele><time>2026-04-11T07:40:20.419Z</time></trkpt><trkpt lat="43.8916433" lon="11.1983617"><ele>144.66666666666669</ele><time>2026-04-11T07:40:21.419Z</time></trkpt><trkpt lat="43.8917617" lon="11.1985917"><ele>141.33333333333334</ele><time>2026-04-11T07:40:22.418Z</time></trkpt><trkpt lat="43.8918817" lon="11.1988183"><ele>138.0</ele><time>2026-04-11T07:40:23.419Z</time></trkpt><trkpt lat="43.8920033" lon="11.1990383"><ele>133.33333333333334</ele><time>2026-04-11T07:40:24.418Z</time></trkpt><trkpt lat="43.89215" lon="11.1992233"><ele>128.66666666666669</ele><time>2026-04-11T07:40:25.42Z</time></trkpt><trkpt lat="43.8923167" lon="11.199405"><ele>124.0</ele><time>2026-04-11T07:40:26.418Z</time></trkpt><trkpt lat="43.8924867" lon="11.199575"><ele>125.66666666666667</ele><time>2026-04-11T07:40:27.42Z</time></trkpt><trkpt lat="43.8926517" lon="11.1997233"><ele>127.33333333333334</ele><time>2026-04-11T07:40:28.421Z</time></trkpt><trkpt lat="43.8928167" lon="11.1998617"><ele>129.0</ele><time>2026-04-11T07:40:29.418Z</time></trkpt><trkpt lat="43.892975" lon="11.19998"><ele>129.0</ele><time>2026-04-11T07:40:30.419Z</time></trkpt><trkpt lat="43.8931267" lon="11.2000717"><ele>129.0</ele><time>2026-04-11T07:40:31.418Z</time></trkpt><trkpt lat="43.8932767" lon="11.2001433"><ele>129.0</ele><time>2026-04-11T07:40:32.418Z</time></trkpt><trkpt lat="43.8934267" lon="11.2001883"><ele>133.75</ele><time>2026-04-11T07:40:33.419Z</time></trkpt><trkpt lat="43.8935733" lon="11.2001983"><ele>138.5</ele><time>2026-04-11T07:40:34.418Z</time></trkpt><trkpt lat="43.893715" lon="11.2001867"><ele>143.25</ele><time>2026-04-11T07:40:35.419Z</time></trkpt><trkpt lat="43.8938467" lon="11.2001617"><ele>148.0</ele><time>2026-04-11T07:40:36.418Z</time></trkpt><trkpt lat="43.89398" lon="11.2001517"><ele>148.0</ele><time>2026-04-11T07:40:37.419Z</time></trkpt><trkpt lat="43.89413" lon="11.2001767"><ele>148.0</ele><time>2026-04-11T07:40:38.419Z</time></trkpt><trkpt lat="43.89429" lon="11.20021"><ele>148.0</ele><time>2026-04-11T07:40:39.419Z</time></trkpt><trkpt lat="43.89445" lon="11.2002483"><ele>154.0</ele><time>2026-04-11T07:40:40.419Z</time></trkpt><trkpt lat="43.894605" lon="11.200295"><ele>160.0</ele><time>2026-04-11T07:40:41.422Z</time></trkpt><trkpt lat="43.894745" lon="11.2003467"><ele>166.0</ele><time>2026-04-11T07:40:42.419Z</time></trkpt><trkpt lat="43.894865" lon="11.20041"><ele>172.0</ele><time>2026-04-11T07:40:43.421Z</time></trkpt><trkpt lat="43.8949717" lon="11.2004983"><ele>172.0</ele><time>2026-04-11T07:40:44.419Z</time></trkpt><trkpt lat="43.89507" lon="11.2006117"><ele>172.0</ele><time>2026-04-11T07:40:45.42Z</time></trkpt><trkpt lat="43.895165" lon="11.2007567"><ele>172.0</ele><time>2026-04-11T07:40:46.42Z</time></trkpt><trkpt lat="43.8952583" lon="11.200905"><ele>172.0</ele><time>2026-04-11T07:40:47.42Z</time></trkpt><trkpt lat="43.8953567" lon="11.20103"><ele>168.5</ele><time>2026-04-11T07:40:48.42Z</time></trkpt><trkpt lat="43.8954633" lon="11.20112"><ele>165.0</ele><time>2026-04-11T07:40:49.42Z</time></trkpt><trkpt lat="43.89558" lon="11.2011667"><ele>161.5</ele><time>2026-04-11T07:40:50.42Z</time></trkpt><trkpt lat="43.895715" lon="11.201185"><ele>158.0</ele><time>2026-04-11T07:40:51.422Z</time></trkpt><trkpt lat="43.895865" lon="11.20121"><ele>167.0</ele><time>2026-04-11T07:40:52.42Z</time></trkpt><trkpt lat="43.89603" lon="11.2012717"><ele>176.0</ele><time>2026-04-11T07:40:53.421Z</time></trkpt><trkpt lat="43.8962" lon="11.2013633"><ele>185.0</ele><time>2026-04-11T07:40:54.419Z</time></trkpt><trkpt lat="43.89636" lon="11.2014667"><ele>179.66666666666666</ele><time>2026-04-11T07:40:55.421Z</time></trkpt><trkpt lat="43.8965067" lon="11.2015767"><ele>174.33333333333334</ele><time>2026-04-11T07:40:56.419Z</time></trkpt><trkpt lat="43.89665" lon="11.20169"><ele>169.0</ele><time>2026-04-11T07:40:57.419Z</time></trkpt><trkpt lat="43.8967933" lon="11.2018"><ele>169.0</ele><time>2026-04-11T07:40:58.42Z</time></trkpt><trkpt lat="43.8969433" lon="11.2019183"><ele>169.0</ele><time>2026-04-11T07:40:59.42Z</time></trkpt><trkpt lat="43.897085" lon="11.2020267"><ele>169.0</ele><time>2026-04-11T07:41:00.419Z</time></trkpt><trkpt lat="43.8972233" lon="11.202135"><ele>169.0</ele><time>2026-04-11T07:41:01.42Z</time></trkpt><trkpt lat="43.89736" lon="11.2022367"><ele>169.0</ele><time>2026-04-11T07:41:02.42Z</time></trkpt><trkpt lat="43.897505" lon="11.202315"><ele>169.0</ele><time>2026-04-11T07:41:03.42Z</time></trkpt><trkpt lat="43.8976467" lon="11.2023867"><ele>163.0</ele><time>2026-04-11T07:41:04.418Z</time></trkpt><trkpt lat="43.8977883" lon="11.202465"><ele>157.0</ele><time>2026-04-11T07:41:05.419Z</time></trkpt><trkpt lat="43.8979267" lon="11.2025417"><ele>151.0</ele><time>2026-04-11T07:41:06.42Z</time></trkpt><trkpt lat="43.898075" lon="11.20261"><ele>151.0</ele><time>2026-04-11T07:41:07.419Z</time></trkpt><trkpt lat="43.89823" lon="11.20266"><ele>151.0</ele><time>2026-04-11T07:41:08.42Z</time></trkpt><trkpt lat="43.8983883" lon="11.2026833"><ele>151.0</ele><time>2026-04-11T07:41:09.42Z</time></trkpt><trkpt lat="43.89856" lon="11.20269"><ele>153.0</ele><time>2026-04-11T07:41:10.419Z</time></trkpt><trkpt lat="43.8987367" lon="11.202695"><ele>155.0</ele><time>2026-04-11T07:41:11.419Z</time></trkpt><trkpt lat="43.8989117" lon="11.2027033"><ele>157.0</ele><time>2026-04-11T07:41:12.42Z</time></trkpt><trkpt lat="43.89909" lon="11.2027267"><ele>162.33333333333334</ele><time>2026-04-11T07:41:13.421Z</time></trkpt><trkpt lat="43.899265" lon="11.2027417"><ele>167.66666666666666</ele><time>2026-04-11T07:41:14.419Z</time></trkpt><trkpt lat="43.899445" lon="11.2027567"><ele>173.0</ele><time>2026-04-11T07:41:15.419Z</time></trkpt><trkpt lat="43.8996183" lon="11.2027667"><ele>173.0</ele><time>2026-04-11T07:41:16.42Z</time></trkpt><trkpt lat="43.8997883" lon="11.2027867"><ele>173.0</ele><time>2026-04-11T07:41:17.419Z</time></trkpt><trkpt lat="43.89995" lon="11.2028083"><ele>173.0</ele><time>2026-04-11T07:41:18.42Z</time></trkpt><trkpt lat="43.9001033" lon="11.202855"><ele>181.66666666666666</ele><time>2026-04-11T07:41:19.421Z</time></trkpt><trkpt lat="43.9002533" lon="11.2029283"><ele>190.33333333333331</ele><time>2026-04-11T07:41:20.419Z</time></trkpt><trkpt lat="43.90039" lon="11.2030367"><ele>199.0</ele><time>2026-04-11T07:41:21.418Z</time></trkpt><trkpt lat="43.9005083" lon="11.2031483"><ele>187.0</ele><time>2026-04-11T07:41:22.419Z</time></trkpt><trkpt lat="43.900615" lon="11.2032933"><ele>175.0</ele><time>2026-04-11T07:41:23.419Z</time></trkpt><trkpt lat="43.9007033" lon="11.203445"><ele>163.0</ele><time>2026-04-11T07:41:24.419Z</time></trkpt><trkpt lat="43.90078" lon="11.2036433"><ele>163.0</ele><time>2026-04-11T07:41:25.419Z</time></trkpt><trkpt lat="43.9008583" lon="11.2038667"><ele>163.0</ele><time>2026-04-11T07:41:26.42Z</time></trkpt><trkpt lat="43.9009417" lon="11.2041"><ele>163.0</ele><time>2026-04-11T07:41:27.419Z</time></trkpt><trkpt lat="43.9010283" lon="11.2043483"><ele>166.0</ele><time>2026-04-11T07:41:28.418Z</time></trkpt><trkpt lat="43.901115" lon="11.2045917"><ele>169.0</ele><time>2026-04-11T07:41:29.418Z</time></trkpt><trkpt lat="43.901205" lon="11.2048467"><ele>172.0</ele><time>2026-04-11T07:41:30.418Z</time></trkpt><trkpt lat="43.9012967" lon="11.2050883"><ele>172.0</ele><time>2026-04-11T07:41:31.42Z</time></trkpt><trkpt lat="43.9013883" lon="11.20533"><ele>172.0</ele><time>2026-04-11T07:41:32.419Z</time></trkpt><trkpt lat="43.9014767" lon="11.205565"><ele>172.0</ele><time>2026-04-11T07:41:33.418Z</time></trkpt><trkpt lat="43.9015667" lon="11.2057833"><ele>168.33333333333334</ele><time>2026-04-11T07:41:34.418Z</time></trkpt><trkpt lat="43.90166" lon="11.2059917"><ele>164.66666666666666</ele><time>2026-04-11T07:41:35.418Z</time></trkpt><trkpt lat="43.90176" lon="11.2061767"><ele>161.0</ele><time>2026-04-11T07:41:36.419Z</time></trkpt><trkpt lat="43.9018567" lon="11.2063683"><ele>166.0</ele><time>2026-04-11T07:41:37.418Z</time></trkpt><trkpt lat="43.901945" lon="11.20656"><ele>171.0</ele><time>2026-04-11T07:41:38.418Z</time></trkpt><trkpt lat="43.9020317" lon="11.2067333"><ele>176.0</ele><time>2026-04-11T07:41:39.418Z</time></trkpt><trkpt lat="43.9021267" lon="11.2068817"><ele>176.0</ele><time>2026-04-11T07:41:40.418Z</time></trkpt><trkpt lat="43.9022333" lon="11.207015"><ele>176.0</ele><time>2026-04-11T07:41:41.418Z</time></trkpt><trkpt lat="43.9023567" lon="11.2071333"><ele>176.0</ele><time>2026-04-11T07:41:42.418Z</time></trkpt><trkpt lat="43.902485" lon="11.2072517"><ele>176.0</ele><time>2026-04-11T07:41:43.418Z</time></trkpt><trkpt lat="43.902605" lon="11.2073867"><ele>180.33333333333331</ele><time>2026-04-11T07:41:44.419Z</time></trkpt><trkpt lat="43.9027133" lon="11.2075467"><ele>184.66666666666666</ele><time>2026-04-11T07:41:45.422Z</time></trkpt><trkpt lat="43.9028117" lon="11.2077233"><ele>189.0</ele><time>2026-04-11T07:41:46.419Z</time></trkpt><trkpt lat="43.9028967" lon="11.2079117"><ele>189.0</ele><time>2026-04-11T07:41:47.419Z</time></trkpt><trkpt lat="43.9029633" lon="11.2081067"><ele>189.0</ele><time>2026-04-11T07:41:48.419Z</time></trkpt><trkpt lat="43.903015" lon="11.2082917"><ele>189.0</ele><time>2026-04-11T07:41:49.418Z</time></trkpt><trkpt lat="43.9030517" lon="11.208485"><ele>189.0</ele><time>2026-04-11T07:41:50.418Z</time></trkpt><trkpt lat="43.9030833" lon="11.208685"><ele>183.25</ele><time>2026-04-11T07:41:51.422Z</time></trkpt><trkpt lat="43.9031217" lon="11.2088583"><ele>177.5</ele><time>2026-04-11T07:41:52.418Z</time></trkpt><trkpt lat="43.9031783" lon="11.2090183"><ele>171.75</ele><time>2026-04-11T07:41:53.418Z</time></trkpt><trkpt lat="43.903265" lon="11.2091367"><ele>166.0</ele><time>2026-04-11T07:41:54.418Z</time></trkpt><trkpt lat="43.903375" lon="11.2092317"><ele>168.0</ele><time>2026-04-11T07:41:55.421Z</time></trkpt><trkpt lat="43.903515" lon="11.2093033"><ele>170.0</ele><time>2026-04-11T07:41:56.419Z</time></trkpt><trkpt lat="43.9036533" lon="11.2093683"><ele>172.0</ele><time>2026-04-11T07:41:57.418Z</time></trkpt><trkpt lat="43.9038" lon="11.2094233"><ele>174.0</ele><time>2026-04-11T07:41:58.42Z</time></trkpt><trkpt lat="43.9039483" lon="11.2094783"><ele>174.0</ele><time>2026-04-11T07:41:59.419Z</time></trkpt><trkpt lat="43.9041117" lon="11.2095383"><ele>174.0</ele><time>2026-04-11T07:42:00.419Z</time></trkpt><trkpt lat="43.9042767" lon="11.2095867"><ele>174.0</ele><time>2026-04-11T07:42:01.42Z</time></trkpt><trkpt lat="43.9044367" lon="11.2096367"><ele>183.0</ele><time>2026-04-11T07:42:02.419Z</time></trkpt><trkpt lat="43.9045933" lon="11.20968"><ele>192.0</ele><time>2026-04-11T07:42:03.419Z</time></trkpt><trkpt lat="43.9047433" lon="11.209745"><ele>201.0</ele><time>2026-04-11T07:42:04.419Z</time></trkpt><trkpt lat="43.9048833" lon="11.209805"><ele>199.8</ele><time>2026-04-11T07:42:05.419Z</time></trkpt><trkpt lat="43.904995" lon="11.2098717"><ele>198.60000000000002</ele><time>2026-04-11T07:42:06.418Z</time></trkpt><trkpt lat="43.9050717" lon="11.2099583"><ele>197.4</ele><time>2026-04-11T07:42:07.419Z</time></trkpt><trkpt lat="43.9051117" lon="11.2100917"><ele>196.2</ele><time>2026-04-11T07:42:08.421Z</time></trkpt><trkpt lat="43.9051383" lon="11.210245"><ele>195.0</ele><time>2026-04-11T07:42:09.42Z</time></trkpt><trkpt lat="43.9051433" lon="11.2104417"><ele>195.0</ele><time>2026-04-11T07:42:10.42Z</time></trkpt><trkpt lat="43.905135" lon="11.21065"><ele>195.0</ele><time>2026-04-11T07:42:11.419Z</time></trkpt><trkpt lat="43.9051267" lon="11.2108567"><ele>195.0</ele><time>2026-04-11T07:42:12.419Z</time></trkpt><trkpt lat="43.9051183" lon="11.21106"><ele>195.0</ele><time>2026-04-11T07:42:13.42Z</time></trkpt><trkpt lat="43.9051083" lon="11.2112617"><ele>189.75</ele><time>2026-04-11T07:42:14.42Z</time></trkpt><trkpt lat="43.9051033" lon="11.21146"><ele>184.5</ele><time>2026-04-11T07:42:15.42Z</time></trkpt><trkpt lat="43.90512" lon="11.2116567"><ele>179.25</ele><time>2026-04-11T07:42:16.42Z</time></trkpt><trkpt lat="43.9051533" lon="11.2118583"><ele>174.0</ele><time>2026-04-11T07:42:17.419Z</time></trkpt><trkpt lat="43.9052" lon="11.2120217"><ele>172.25</ele><time>2026-04-11T07:42:18.419Z</time></trkpt><trkpt lat="43.90527" lon="11.2121433"><ele>170.5</ele><time>2026-04-11T07:42:19.419Z</time></trkpt><trkpt lat="43.905365" lon="11.2122283"><ele>168.75</ele><time>2026-04-11T07:42:20.421Z</time></trkpt><trkpt lat="43.9054817" lon="11.2122917"><ele>167.0</ele><time>2026-04-11T07:42:21.419Z</time></trkpt><trkpt lat="43.90562" lon="11.21235"><ele>166.0</ele><time>2026-04-11T07:42:22.417Z</time></trkpt><trkpt lat="43.9057683" lon="11.2124133"><ele>165.0</ele><time>2026-04-11T07:42:23.417Z</time></trkpt><trkpt lat="43.9059133" lon="11.2124867"><ele>164.0</ele><time>2026-04-11T07:42:24.419Z</time></trkpt><trkpt lat="43.9060417" lon="11.2125683"><ele>166.0</ele><time>2026-04-11T07:42:25.419Z</time></trkpt><trkpt lat="43.9061517" lon="11.2126667"><ele>168.0</ele><time>2026-04-11T07:42:26.419Z</time></trkpt><trkpt lat="43.9062533" lon="11.2127983"><ele>170.0</ele><time>2026-04-11T07:42:27.419Z</time></trkpt><trkpt lat="43.9063533" lon="11.2129667"><ele>172.0</ele><time>2026-04-11T07:42:28.419Z</time></trkpt><trkpt lat="43.9064517" lon="11.2131667"><ele>172.0</ele><time>2026-04-11T07:42:29.419Z</time></trkpt><trkpt lat="43.9065433" lon="11.213385"><ele>172.0</ele><time>2026-04-11T07:42:30.418Z</time></trkpt><trkpt lat="43.9066333" lon="11.21361"><ele>172.0</ele><time>2026-04-11T07:42:31.418Z</time></trkpt><trkpt lat="43.906715" lon="11.2138417"><ele>176.66666666666669</ele><time>2026-04-11T07:42:32.422Z</time></trkpt><trkpt lat="43.90679" lon="11.2140633"><ele>181.33333333333334</ele><time>2026-04-11T07:42:33.419Z</time></trkpt><trkpt lat="43.9068583" lon="11.2142867"><ele>186.0</ele><time>2026-04-11T07:42:34.419Z</time></trkpt><trkpt lat="43.9069233" lon="11.2145083"><ele>186.0</ele><time>2026-04-11T07:42:35.419Z</time></trkpt><trkpt lat="43.9069917" lon="11.2147133"><ele>186.0</ele><time>2026-04-11T07:42:36.418Z</time></trkpt><trkpt lat="43.9070567" lon="11.2149067"><ele>186.0</ele><time>2026-04-11T07:42:37.418Z</time></trkpt><trkpt lat="43.9071333" lon="11.2150783"><ele>183.0</ele><time>2026-04-11T07:42:38.423Z</time></trkpt><trkpt lat="43.9072333" lon="11.2152483"><ele>180.0</ele><time>2026-04-11T07:42:39.422Z</time></trkpt><trkpt lat="43.9073517" lon="11.215405"><ele>177.0</ele><time>2026-04-11T07:42:40.421Z</time></trkpt><trkpt lat="43.907485" lon="11.215545"><ele>177.5</ele><time>2026-04-11T07:42:41.421Z</time></trkpt><trkpt lat="43.9076217" lon="11.2156683"><ele>178.0</ele><time>2026-04-11T07:42:42.419Z</time></trkpt><trkpt lat="43.9077433" lon="11.2157683"><ele>178.5</ele><time>2026-04-11T07:42:43.419Z</time></trkpt><trkpt lat="43.9078517" lon="11.2158633"><ele>179.0</ele><time>2026-04-11T07:42:44.42Z</time></trkpt><trkpt lat="43.9079517" lon="11.215945"><ele>179.0</ele><time>2026-04-11T07:42:45.42Z</time></trkpt><trkpt lat="43.9080533" lon="11.216035"><ele>179.0</ele><time>2026-04-11T07:42:46.42Z</time></trkpt><trkpt lat="43.9081533" lon="11.2161267"><ele>179.0</ele><time>2026-04-11T07:42:47.42Z</time></trkpt><trkpt lat="43.908245" lon="11.216215"><ele>179.0</ele><time>2026-04-11T07:42:48.42Z</time></trkpt><trkpt lat="43.90833" lon="11.2163033"><ele>179.0</ele><time>2026-04-11T07:42:49.42Z</time></trkpt><trkpt lat="43.9084033" lon="11.2163783"><ele>179.0</ele><time>2026-04-11T07:42:50.42Z</time></trkpt><trkpt lat="43.908465" lon="11.2164417"><ele>179.0</ele><time>2026-04-11T07:42:51.419Z</time></trkpt><trkpt lat="43.9085417" lon="11.216515"><ele>179.0</ele><time>2026-04-11T07:42:53.42Z</time></trkpt><trkpt lat="43.9086117" lon="11.21656"><ele>179.0</ele><time>2026-04-11T07:42:56.421Z</time></trkpt><trkpt lat="43.9086767" lon="11.2164867"><ele>179.0</ele><time>2026-04-11T07:42:59.42Z</time></trkpt><trkpt lat="43.90877" lon="11.21652"><ele>178.79999999999998</ele><time>2026-04-11T07:43:02.419Z</time></trkpt><trkpt lat="43.9088533" lon="11.216595"><ele>178.6</ele><time>2026-04-11T07:43:04.418Z</time></trkpt><trkpt lat="43.9089083" lon="11.2166433"><ele>178.4</ele><time>2026-04-11T07:43:05.419Z</time></trkpt><trkpt lat="43.9090083" lon="11.216725"><ele>178.2</ele><time>2026-04-11T07:43:07.419Z</time></trkpt><trkpt lat="43.9091017" lon="11.2167883"><ele>178.0</ele><time>2026-04-11T07:43:09.418Z</time></trkpt><trkpt lat="43.9092017" lon="11.2168633"><ele>178.83333333333334</ele><time>2026-04-11T07:43:11.418Z</time></trkpt><trkpt lat="43.90928" lon="11.21693"><ele>179.66666666666669</ele><time>2026-04-11T07:43:13.42Z</time></trkpt><trkpt lat="43.9093533" lon="11.2170183"><ele>180.5</ele><time>2026-04-11T07:43:15.418Z</time></trkpt><trkpt lat="43.909425" lon="11.21711"><ele>181.33333333333334</ele><time>2026-04-11T07:43:17.418Z</time></trkpt><trkpt lat="43.90949" lon="11.21718"><ele>182.16666666666666</ele><time>2026-04-11T07:43:19.419Z</time></trkpt><trkpt lat="43.9095433" lon="11.2172617"><ele>183.0</ele><time>2026-04-11T07:43:22.42Z</time></trkpt><trkpt lat="43.9095717" lon="11.217345"><ele>183.0</ele><time>2026-04-11T07:43:26.42Z</time></trkpt><trkpt lat="43.909555" lon="11.217435"><ele>183.0</ele><time>2026-04-11T07:43:29.418Z</time></trkpt><trkpt lat="43.9095017" lon="11.2175183"><ele>183.0</ele><time>2026-04-11T07:43:32.421Z</time></trkpt><trkpt lat="43.909445" lon="11.21762"><ele>183.0</ele><time>2026-04-11T07:43:34.419Z</time></trkpt><trkpt lat="43.9093783" lon="11.217715"><ele>183.0</ele><time>2026-04-11T07:43:36.419Z</time></trkpt><trkpt lat="43.9093033" lon="11.217805"><ele>183.0</ele><time>2026-04-11T07:43:38.42Z</time></trkpt><trkpt lat="43.9092183" lon="11.21789"><ele>181.8</ele><time>2026-04-11T07:43:40.419Z</time></trkpt><trkpt lat="43.9091317" lon="11.2179767"><ele>180.60000000000002</ele><time>2026-04-11T07:43:42.421Z</time></trkpt><trkpt lat="43.90905" lon="11.21805"><ele>179.39999999999998</ele><time>2026-04-11T07:43:44.42Z</time></trkpt><trkpt lat="43.9089733" lon="11.2181333"><ele>178.2</ele><time>2026-04-11T07:43:46.42Z</time></trkpt><trkpt lat="43.908885" lon="11.2182217"><ele>177.0</ele><time>2026-04-11T07:43:48.421Z</time></trkpt><trkpt lat="43.9087933" lon="11.21832"><ele>177.0</ele><time>2026-04-11T07:43:50.422Z</time></trkpt><trkpt lat="43.9087033" lon="11.218415"><ele>177.0</ele><time>2026-04-11T07:43:52.419Z</time></trkpt><trkpt lat="43.9086283" lon="11.2185"><ele>177.0</ele><time>2026-04-11T07:43:54.42Z</time></trkpt><trkpt lat="43.908545" lon="11.2185867"><ele>177.0</ele><time>2026-04-11T07:43:56.419Z</time></trkpt><trkpt lat="43.9084617" lon="11.2186683"><ele>177.0</ele><time>2026-04-11T07:43:58.42Z</time></trkpt><trkpt lat="43.9083767" lon="11.2187533"><ele>177.0</ele><time>2026-04-11T07:44:00.419Z</time></trkpt><trkpt lat="43.9082917" lon="11.2188333"><ele>177.0</ele><time>2026-04-11T07:44:02.419Z</time></trkpt><trkpt lat="43.9082033" lon="11.218915"><ele>177.0</ele><time>2026-04-11T07:44:04.419Z</time></trkpt><trkpt lat="43.908115" lon="11.219005"><ele>177.0</ele><time>2026-04-11T07:44:06.418Z</time></trkpt><trkpt lat="43.90803" lon="11.219105"><ele>177.0</ele><time>2026-04-11T07:44:08.419Z</time></trkpt><trkpt lat="43.9079483" lon="11.2192167"><ele>177.0</ele><time>2026-04-11T07:44:10.419Z</time></trkpt><trkpt lat="43.9078917" lon="11.2193317"><ele>177.0</ele><time>2026-04-11T07:44:12.418Z</time></trkpt><trkpt lat="43.9078383" lon="11.21945"><ele>177.0</ele><time>2026-04-11T07:44:14.419Z</time></trkpt><trkpt lat="43.90777" lon="11.2195533"><ele>177.0</ele><time>2026-04-11T07:44:16.419Z</time></trkpt><trkpt lat="43.9076883" lon="11.21961"><ele>177.0</ele><time>2026-04-11T07:44:18.419Z</time></trkpt><trkpt lat="43.90759" lon="11.2196033"><ele>178.6</ele><time>2026-04-11T07:44:20.42Z</time></trkpt><trkpt lat="43.9074817" lon="11.219605"><ele>180.2</ele><time>2026-04-11T07:44:22.419Z</time></trkpt><trkpt lat="43.907365" lon="11.2195917"><ele>181.8</ele><time>2026-04-11T07:44:24.42Z</time></trkpt><trkpt lat="43.9072483" lon="11.21959"><ele>183.4</ele><time>2026-04-11T07:44:26.419Z</time></trkpt><trkpt lat="43.9071783" lon="11.2196117"><ele>185.0</ele><time>2026-04-11T07:44:27.418Z</time></trkpt><trkpt lat="43.9071017" lon="11.2196033"><ele>185.0</ele><time>2026-04-11T07:44:28.42Z</time></trkpt><trkpt lat="43.9069683" lon="11.2196283"><ele>185.0</ele><time>2026-04-11T07:44:30.419Z</time></trkpt><trkpt lat="43.9069" lon="11.2196633"><ele>185.0</ele><time>2026-04-11T07:44:31.421Z</time></trkpt><trkpt lat="43.9068167" lon="11.2197083"><ele>185.0</ele><time>2026-04-11T07:44:32.421Z</time></trkpt><trkpt lat="43.90673" lon="11.2197483"><ele>185.0</ele><time>2026-04-11T07:44:33.419Z</time></trkpt><trkpt lat="43.9066483" lon="11.2198017"><ele>189.6</ele><time>2026-04-11T07:44:34.421Z</time></trkpt><trkpt lat="43.9065583" lon="11.2198617"><ele>194.2</ele><time>2026-04-11T07:44:35.418Z</time></trkpt><trkpt lat="43.90648" lon="11.2198967"><ele>198.8</ele><time>2026-04-11T07:44:36.42Z</time></trkpt><trkpt lat="43.90639" lon="11.2199483"><ele>203.4</ele><time>2026-04-11T07:44:37.42Z</time></trkpt><trkpt lat="43.9063083" lon="11.2199833"><ele>208.0</ele><time>2026-04-11T07:44:38.419Z</time></trkpt><trkpt lat="43.9062233" lon="11.2200117"><ele>208.0</ele><time>2026-04-11T07:44:39.421Z</time></trkpt><trkpt lat="43.9061317" lon="11.2200317"><ele>208.0</ele><time>2026-04-11T07:44:40.421Z</time></trkpt><trkpt lat="43.906035" lon="11.22005"><ele>208.0</ele><time>2026-04-11T07:44:41.419Z</time></trkpt><trkpt lat="43.9059067" lon="11.2200833"><ele>208.0</ele><time>2026-04-11T07:44:42.419Z</time></trkpt><trkpt lat="43.9058267" lon="11.2200917"><ele>208.0</ele><time>2026-04-11T07:44:43.419Z</time></trkpt><trkpt lat="43.9057383" lon="11.2201017"><ele>210.2</ele><time>2026-04-11T07:44:44.422Z</time></trkpt><trkpt lat="43.905645" lon="11.2201083"><ele>212.4</ele><time>2026-04-11T07:44:45.419Z</time></trkpt><trkpt lat="43.90556" lon="11.2201083"><ele>214.59999999999997</ele><time>2026-04-11T07:44:46.42Z</time></trkpt><trkpt lat="43.905485" lon="11.2200833"><ele>216.79999999999998</ele><time>2026-04-11T07:44:47.42Z</time></trkpt><trkpt lat="43.9053483" lon="11.22004"><ele>219.0</ele><time>2026-04-11T07:44:49.419Z</time></trkpt><trkpt lat="43.9053217" lon="11.2201333"><ele>219.0</ele><time>2026-04-11T07:44:54.42Z</time></trkpt><trkpt lat="43.905365" lon="11.2202"><ele>218.99999999999997</ele><time>2026-04-11T07:44:56.421Z</time></trkpt><trkpt lat="43.90541" lon="11.220305"><ele>218.99999999999997</ele><time>2026-04-11T07:44:58.419Z</time></trkpt><trkpt lat="43.9054583" lon="11.2204283"><ele>219.0</ele><time>2026-04-11T07:45:00.42Z</time></trkpt><trkpt lat="43.9055083" lon="11.2205733"><ele>219.0</ele><time>2026-04-11T07:45:02.42Z</time></trkpt><trkpt lat="43.9055533" lon="11.22069"><ele>219.16666666666666</ele><time>2026-04-11T07:45:04.42Z</time></trkpt><trkpt lat="43.9056117" lon="11.2207983"><ele>219.33333333333331</ele><time>2026-04-11T07:45:06.419Z</time></trkpt><trkpt lat="43.9056733" lon="11.2209083"><ele>219.5</ele><time>2026-04-11T07:45:08.42Z</time></trkpt><trkpt lat="43.905735" lon="11.2209983"><ele>219.66666666666666</ele><time>2026-04-11T07:45:10.419Z</time></trkpt><trkpt lat="43.905785" lon="11.221055"><ele>219.83333333333331</ele><time>2026-04-11T07:45:12.42Z</time></trkpt><trkpt lat="43.905845" lon="11.221135"><ele>220.0</ele><time>2026-04-11T07:45:15.418Z</time></trkpt><trkpt lat="43.905915" lon="11.2213417"><ele>219.99999999999997</ele><time>2026-04-11T07:45:20.421Z</time></trkpt><trkpt lat="43.9059367" lon="11.2214667"><ele>220.0</ele><time>2026-04-11T07:45:21.418Z</time></trkpt><trkpt lat="43.906" lon="11.2215417"><ele>220.0</ele><time>2026-04-11T07:45:23.419Z</time></trkpt><trkpt lat="43.9059367" lon="11.22163"><ele>220.0</ele><time>2026-04-11T07:45:27.418Z</time></trkpt><trkpt lat="43.9058867" lon="11.2216917"><ele>219.99999999999997</ele><time>2026-04-11T07:45:30.42Z</time></trkpt><trkpt lat="43.9057817" lon="11.221645"><ele>220.0</ele><time>2026-04-11T07:45:32.419Z</time></trkpt><trkpt lat="43.90566" lon="11.2216383"><ele>224.8</ele><time>2026-04-11T07:45:34.42Z</time></trkpt><trkpt lat="43.905595" lon="11.221625"><ele>229.6</ele><time>2026-04-11T07:45:35.42Z</time></trkpt><trkpt lat="43.9054833" lon="11.2216133"><ele>234.39999999999998</ele><time>2026-04-11T07:45:37.419Z</time></trkpt><trkpt lat="43.90542" lon="11.22165"><ele>239.2</ele><time>2026-04-11T07:45:38.421Z</time></trkpt><trkpt lat="43.90531" lon="11.221695"><ele>244.0</ele><time>2026-04-11T07:45:40.419Z</time></trkpt><trkpt lat="43.9052317" lon="11.2217583"><ele>243.99999999999997</ele><time>2026-04-11T07:45:41.42Z</time></trkpt><trkpt lat="43.9051717" lon="11.221815"><ele>244.0</ele><time>2026-04-11T07:45:42.419Z</time></trkpt><trkpt lat="43.9051217" lon="11.221875"><ele>244.0</ele><time>2026-04-11T07:45:43.417Z</time></trkpt><trkpt lat="43.9050717" lon="11.221935"><ele>244.0</ele><time>2026-04-11T07:45:44.419Z</time></trkpt><trkpt lat="43.904985" lon="11.2220267"><ele>243.99999999999997</ele><time>2026-04-11T07:45:46.419Z</time></trkpt><trkpt lat="43.9049217" lon="11.2220533"><ele>244.0</ele><time>2026-04-11T07:45:48.419Z</time></trkpt><trkpt lat="43.9048467" lon="11.222015"><ele>246.0</ele><time>2026-04-11T07:45:50.42Z</time></trkpt><trkpt lat="43.9047233" lon="11.2219183"><ele>247.99999999999997</ele><time>2026-04-11T07:45:52.418Z</time></trkpt><trkpt lat="43.90464" lon="11.2218767"><ele>249.99999999999997</ele><time>2026-04-11T07:45:53.42Z</time></trkpt><trkpt lat="43.9045533" lon="11.2218167"><ele>252.0</ele><time>2026-04-11T07:45:54.419Z</time></trkpt><trkpt lat="43.9044583" lon="11.2217717"><ele>254.0</ele><time>2026-04-11T07:45:55.419Z</time></trkpt><trkpt lat="43.90436" lon="11.2217317"><ele>254.0</ele><time>2026-04-11T07:45:56.419Z</time></trkpt><trkpt lat="43.9042733" lon="11.2216867"><ele>254.0</ele><time>2026-04-11T07:45:57.419Z</time></trkpt><trkpt lat="43.9041933" lon="11.22165"><ele>254.0</ele><time>2026-04-11T07:45:58.42Z</time></trkpt><trkpt lat="43.9041233" lon="11.2216267"><ele>254.0</ele><time>2026-04-11T07:45:59.42Z</time></trkpt><trkpt lat="43.9040533" lon="11.2216"><ele>254.0</ele><time>2026-04-11T07:46:00.42Z</time></trkpt><trkpt lat="43.9039917" lon="11.2215717"><ele>254.0</ele><time>2026-04-11T07:46:01.42Z</time></trkpt><trkpt lat="43.903935" lon="11.2215333"><ele>254.0</ele><time>2026-04-11T07:46:02.42Z</time></trkpt><trkpt lat="43.90384" lon="11.2214783"><ele>254.33333333333334</ele><time>2026-04-11T07:46:04.42Z</time></trkpt><trkpt lat="43.90373" lon="11.221455"><ele>254.66666666666669</ele><time>2026-04-11T07:46:06.418Z</time></trkpt><trkpt lat="43.903615" lon="11.22147"><ele>255.0</ele><time>2026-04-11T07:46:08.419Z</time></trkpt><trkpt lat="43.9035517" lon="11.221465"><ele>255.33333333333331</ele><time>2026-04-11T07:46:09.418Z</time></trkpt><trkpt lat="43.9034883" lon="11.22147"><ele>255.66666666666666</ele><time>2026-04-11T07:46:10.419Z</time></trkpt><trkpt lat="43.90342" lon="11.221465"><ele>256.0</ele><time>2026-04-11T07:46:11.419Z</time></trkpt><trkpt lat="43.9033517" lon="11.2214683"><ele>255.99999999999997</ele><time>2026-04-11T07:46:12.418Z</time></trkpt><trkpt lat="43.9032867" lon="11.2214717"><ele>256.0</ele><time>2026-04-11T07:46:13.419Z</time></trkpt><trkpt lat="43.9032217" lon="11.2214767"><ele>256.0</ele><time>2026-04-11T07:46:14.42Z</time></trkpt><trkpt lat="43.9030983" lon="11.2214533"><ele>256.0</ele><time>2026-04-11T07:46:16.419Z</time></trkpt><trkpt lat="43.903035" lon="11.2214083"><ele>255.99999999999997</ele><time>2026-04-11T07:46:17.421Z</time></trkpt><trkpt lat="43.902965" lon="11.2213683"><ele>256.0</ele><time>2026-04-11T07:46:18.418Z</time></trkpt><trkpt lat="43.9029017" lon="11.2213217"><ele>256.0</ele><time>2026-04-11T07:46:19.418Z</time></trkpt><trkpt lat="43.9028417" lon="11.22128"><ele>255.99999999999997</ele><time>2026-04-11T07:46:20.418Z</time></trkpt><trkpt lat="43.9027833" lon="11.2212317"><ele>256.0</ele><time>2026-04-11T07:46:21.417Z</time></trkpt><trkpt lat="43.902715" lon="11.2211933"><ele>256.0</ele><time>2026-04-11T07:46:22.418Z</time></trkpt><trkpt lat="43.9026467" lon="11.2211633"><ele>255.99999999999997</ele><time>2026-04-11T07:46:23.418Z</time></trkpt><trkpt lat="43.9025767" lon="11.22114"><ele>256.0</ele><time>2026-04-11T07:46:24.419Z</time></trkpt><trkpt lat="43.9024983" lon="11.22112"><ele>256.0</ele><time>2026-04-11T07:46:25.42Z</time></trkpt><trkpt lat="43.9024233" lon="11.2211017"><ele>259.16666666666663</ele><time>2026-04-11T07:46:26.419Z</time></trkpt><trkpt lat="43.9023533" lon="11.2210917"><ele>262.3333333333333</ele><time>2026-04-11T07:46:27.418Z</time></trkpt><trkpt lat="43.9022783" lon="11.2211"><ele>265.5</ele><time>2026-04-11T07:46:28.419Z</time></trkpt><trkpt lat="43.9021967" lon="11.22113"><ele>268.6666666666667</ele><time>2026-04-11T07:46:29.418Z</time></trkpt><trkpt lat="43.9021267" lon="11.2211883"><ele>271.83333333333337</ele><time>2026-04-11T07:46:30.418Z</time></trkpt><trkpt lat="43.9020583" lon="11.221265"><ele>275.0</ele><time>2026-04-11T07:46:31.418Z</time></trkpt><trkpt lat="43.901995" lon="11.22135"><ele>275.0</ele><time>2026-04-11T07:46:32.418Z</time></trkpt><trkpt lat="43.9019417" lon="11.221435"><ele>275.0</ele><time>2026-04-11T07:46:33.418Z</time></trkpt><trkpt lat="43.9018967" lon="11.2215267"><ele>275.0</ele><time>2026-04-11T07:46:34.419Z</time></trkpt><trkpt lat="43.901855" lon="11.2216067"><ele>275.0</ele><time>2026-04-11T07:46:35.417Z</time></trkpt><trkpt lat="43.90178" lon="11.2217183"><ele>275.0</ele><time>2026-04-11T07:46:37.423Z</time></trkpt><trkpt lat="43.9016717" lon="11.2217383"><ele>276.2</ele><time>2026-04-11T07:46:39.418Z</time></trkpt><trkpt lat="43.9015667" lon="11.2217083"><ele>277.4</ele><time>2026-04-11T07:46:41.419Z</time></trkpt><trkpt lat="43.9014733" lon="11.2217417"><ele>278.6</ele><time>2026-04-11T07:46:43.419Z</time></trkpt><trkpt lat="43.9014433" lon="11.221825"><ele>279.8</ele><time>2026-04-11T07:46:44.418Z</time></trkpt><trkpt lat="43.901385" lon="11.2219217"><ele>281.0</ele><time>2026-04-11T07:46:45.417Z</time></trkpt><trkpt lat="43.9013283" lon="11.2220283"><ele>281.0</ele><time>2026-04-11T07:46:46.418Z</time></trkpt><trkpt lat="43.9012867" lon="11.2221083"><ele>281.0</ele><time>2026-04-11T07:46:47.42Z</time></trkpt><trkpt lat="43.901205" lon="11.22222"><ele>281.0</ele><time>2026-04-11T07:46:49.417Z</time></trkpt><trkpt lat="43.9011017" lon="11.22233"><ele>281.0</ele><time>2026-04-11T07:46:51.418Z</time></trkpt><trkpt lat="43.901035" lon="11.2223733"><ele>281.0</ele><time>2026-04-11T07:46:52.42Z</time></trkpt><trkpt lat="43.9009683" lon="11.2224017"><ele>279.8</ele><time>2026-04-11T07:46:53.419Z</time></trkpt><trkpt lat="43.9009017" lon="11.222425"><ele>278.6</ele><time>2026-04-11T07:46:54.418Z</time></trkpt><trkpt lat="43.9007917" lon="11.2224483"><ele>277.4</ele><time>2026-04-11T07:46:56.419Z</time></trkpt><trkpt lat="43.9006717" lon="11.22247"><ele>276.2</ele><time>2026-04-11T07:46:58.418Z</time></trkpt><trkpt lat="43.9005717" lon="11.2225483"><ele>275.0</ele><time>2026-04-11T07:47:00.419Z</time></trkpt><trkpt lat="43.900495" lon="11.2226683"><ele>275.0</ele><time>2026-04-11T07:47:02.418Z</time></trkpt><trkpt lat="43.9004367" lon="11.2227967"><ele>275.0</ele><time>2026-04-11T07:47:04.419Z</time></trkpt><trkpt lat="43.90041" lon="11.2229433"><ele>275.0</ele><time>2026-04-11T07:47:06.418Z</time></trkpt><trkpt lat="43.9003867" lon="11.22311"><ele>275.0</ele><time>2026-04-11T07:47:08.422Z</time></trkpt><trkpt lat="43.90039" lon="11.2232017"><ele>275.0</ele><time>2026-04-11T07:47:09.417Z</time></trkpt><trkpt lat="43.9003983" lon="11.2233033"><ele>273.2</ele><time>2026-04-11T07:47:10.418Z</time></trkpt><trkpt lat="43.90041" lon="11.2234117"><ele>271.4</ele><time>2026-04-11T07:47:11.418Z</time></trkpt><trkpt lat="43.90039" lon="11.22358"><ele>269.6</ele><time>2026-04-11T07:47:13.418Z</time></trkpt><trkpt lat="43.90037" lon="11.2237567"><ele>267.8</ele><time>2026-04-11T07:47:15.418Z</time></trkpt><trkpt lat="43.9003617" lon="11.2238467"><ele>266.0</ele><time>2026-04-11T07:47:16.419Z</time></trkpt><trkpt lat="43.9003533" lon="11.2239483"><ele>266.0</ele><time>2026-04-11T07:47:17.419Z</time></trkpt><trkpt lat="43.90035" lon="11.2240533"><ele>266.0</ele><time>2026-04-11T07:47:18.419Z</time></trkpt><trkpt lat="43.9003467" lon="11.2241467"><ele>266.0</ele><time>2026-04-11T07:47:19.417Z</time></trkpt><trkpt lat="43.9003433" lon="11.2242567"><ele>266.0</ele><time>2026-04-11T07:47:21.42Z</time></trkpt><trkpt lat="43.9002317" lon="11.2241517"><ele>266.0</ele><time>2026-04-11T07:47:23.42Z</time></trkpt><trkpt lat="43.9001683" lon="11.2240983"><ele>266.0</ele><time>2026-04-11T07:47:26.419Z</time></trkpt><trkpt lat="43.9003033" lon="11.2238983"><ele>266.0</ele><time>2026-04-11T07:47:27.418Z</time></trkpt><trkpt lat="43.9002283" lon="11.2239467"><ele>266.0</ele><time>2026-04-11T07:47:29.419Z</time></trkpt><trkpt lat="43.9001633" lon="11.22406"><ele>266.0</ele><time>2026-04-11T07:47:31.418Z</time></trkpt><trkpt lat="43.900105" lon="11.22412"><ele>266.0</ele><time>2026-04-11T07:47:33.418Z</time></trkpt><trkpt lat="43.9000933" lon="11.22421"><ele>266.0</ele><time>2026-04-11T07:47:34.418Z</time></trkpt><trkpt lat="43.9000517" lon="11.22435"><ele>266.0</ele><time>2026-04-11T07:47:36.417Z</time></trkpt><trkpt lat="43.8999867" lon="11.2244833"><ele>270.5</ele><time>2026-04-11T07:47:38.419Z</time></trkpt><trkpt lat="43.8999417" lon="11.2245583"><ele>275.0</ele><time>2026-04-11T07:47:39.418Z</time></trkpt><trkpt lat="43.8999167" lon="11.2246817"><ele>279.5</ele><time>2026-04-11T07:47:40.419Z</time></trkpt><trkpt lat="43.89989" lon="11.22479"><ele>284.0</ele><time>2026-04-11T07:47:41.418Z</time></trkpt><trkpt lat="43.8998083" lon="11.22486"><ele>288.5</ele><time>2026-04-11T07:47:43.419Z</time></trkpt><trkpt lat="43.8997967" lon="11.2249567"><ele>293.0</ele><time>2026-04-11T07:47:44.418Z</time></trkpt><trkpt lat="43.8997633" lon="11.225115"><ele>295.0</ele><time>2026-04-11T07:47:46.418Z</time></trkpt><trkpt lat="43.8997167" lon="11.2252533"><ele>297.0</ele><time>2026-04-11T07:47:48.419Z</time></trkpt><trkpt lat="43.89969" lon="11.225345"><ele>299.0</ele><time>2026-04-11T07:47:49.419Z</time></trkpt><trkpt lat="43.8996433" lon="11.2254583"><ele>301.0</ele><time>2026-04-11T07:47:51.42Z</time></trkpt><trkpt lat="43.899565" lon="11.22554"><ele>303.0</ele><time>2026-04-11T07:47:53.419Z</time></trkpt><trkpt lat="43.8994667" lon="11.2256333"><ele>303.5</ele><time>2026-04-11T07:47:55.418Z</time></trkpt><trkpt lat="43.8993767" lon="11.22568"><ele>304.0</ele><time>2026-04-11T07:47:57.417Z</time></trkpt><trkpt lat="43.8992933" lon="11.22571"><ele>304.5</ele><time>2026-04-11T07:47:59.418Z</time></trkpt><trkpt lat="43.89921" lon="11.225765"><ele>305.0</ele><time>2026-04-11T07:48:01.419Z</time></trkpt><trkpt lat="43.899135" lon="11.22582"><ele>305.5</ele><time>2026-04-11T07:48:03.419Z</time></trkpt><trkpt lat="43.8990783" lon="11.2258883"><ele>306.0</ele><time>2026-04-11T07:48:05.419Z</time></trkpt><trkpt lat="43.8989983" lon="11.22596"><ele>310.1666666666667</ele><time>2026-04-11T07:48:08.419Z</time></trkpt><trkpt lat="43.8989383" lon="11.2260483"><ele>314.3333333333333</ele><time>2026-04-11T07:48:10.417Z</time></trkpt><trkpt lat="43.89888" lon="11.2261217"><ele>318.5</ele><time>2026-04-11T07:48:12.419Z</time></trkpt><trkpt lat="43.8988117" lon="11.2261867"><ele>322.66666666666663</ele><time>2026-04-11T07:48:14.419Z</time></trkpt><trkpt lat="43.8987467" lon="11.2262683"><ele>326.8333333333333</ele><time>2026-04-11T07:48:16.418Z</time></trkpt><trkpt lat="43.8986867" lon="11.2263433"><ele>331.0</ele><time>2026-04-11T07:48:18.418Z</time></trkpt><trkpt lat="43.8986283" lon="11.226395"><ele>331.0</ele><time>2026-04-11T07:48:20.419Z</time></trkpt><trkpt lat="43.898555" lon="11.2264483"><ele>331.0</ele><time>2026-04-11T07:48:22.42Z</time></trkpt><trkpt lat="43.8984633" lon="11.2264967"><ele>331.0</ele><time>2026-04-11T07:48:24.418Z</time></trkpt><trkpt lat="43.89839" lon="11.226565"><ele>331.0</ele><time>2026-04-11T07:48:26.42Z</time></trkpt><trkpt lat="43.89835" lon="11.2266567"><ele>331.0</ele><time>2026-04-11T07:48:28.417Z</time></trkpt><trkpt lat="43.898335" lon="11.2267767"><ele>331.0</ele><time>2026-04-11T07:48:30.418Z</time></trkpt><trkpt lat="43.8983217" lon="11.22687"><ele>329.3333333333333</ele><time>2026-04-11T07:48:32.421Z</time></trkpt><trkpt lat="43.8984267" lon="11.2271733"><ele>327.6666666666667</ele><time>2026-04-11T07:48:34.417Z</time></trkpt><trkpt lat="43.89851" lon="11.22731"><ele>326.0</ele><time>2026-04-11T07:48:35.418Z</time></trkpt><trkpt lat="43.898455" lon="11.2275583"><ele>324.0</ele><time>2026-04-11T07:48:36.417Z</time></trkpt><trkpt lat="43.8984467" lon="11.2276533"><ele>322.0</ele><time>2026-04-11T07:48:37.418Z</time></trkpt><trkpt lat="43.8984683" lon="11.22778"><ele>320.0</ele><time>2026-04-11T07:48:39.418Z</time></trkpt><trkpt lat="43.8984333" lon="11.2279067"><ele>318.0</ele><time>2026-04-11T07:48:41.42Z</time></trkpt><trkpt lat="43.8983717" lon="11.2280117"><ele>316.0</ele><time>2026-04-11T07:48:43.418Z</time></trkpt><trkpt lat="43.8982883" lon="11.2280717"><ele>319.66666666666663</ele><time>2026-04-11T07:48:45.418Z</time></trkpt><trkpt lat="43.8982067" lon="11.228105"><ele>323.3333333333333</ele><time>2026-04-11T07:48:47.418Z</time></trkpt><trkpt lat="43.8981433" lon="11.2281267"><ele>327.0</ele><time>2026-04-11T07:48:49.419Z</time></trkpt><trkpt lat="43.8981183" lon="11.2282583"><ele>330.6666666666667</ele><time>2026-04-11T07:48:53.418Z</time></trkpt><trkpt lat="43.8981267" lon="11.22838"><ele>334.33333333333337</ele><time>2026-04-11T07:48:55.419Z</time></trkpt><trkpt lat="43.8981133" lon="11.2284917"><ele>338.0</ele><time>2026-04-11T07:48:57.418Z</time></trkpt><trkpt lat="43.8980833" lon="11.2286083"><ele>338.0</ele><time>2026-04-11T07:48:59.418Z</time></trkpt><trkpt lat="43.89804" lon="11.22874"><ele>338.0</ele><time>2026-04-11T07:49:01.417Z</time></trkpt><trkpt lat="43.89797" lon="11.2288767"><ele>338.0</ele><time>2026-04-11T07:49:03.417Z</time></trkpt><trkpt lat="43.8978933" lon="11.2290233"><ele>338.0</ele><time>2026-04-11T07:49:05.418Z</time></trkpt><trkpt lat="43.89785" lon="11.2291183"><ele>338.0</ele><time>2026-04-11T07:49:06.418Z</time></trkpt><trkpt lat="43.8978067" lon="11.2292017"><ele>338.1666666666667</ele><time>2026-04-11T07:49:07.418Z</time></trkpt><trkpt lat="43.8977633" lon="11.229265"><ele>338.33333333333337</ele><time>2026-04-11T07:49:08.417Z</time></trkpt><trkpt lat="43.897715" lon="11.2293217"><ele>338.5</ele><time>2026-04-11T07:49:09.417Z</time></trkpt><trkpt lat="43.8976333" lon="11.229425"><ele>338.6666666666667</ele><time>2026-04-11T07:49:11.418Z</time></trkpt><trkpt lat="43.8975633" lon="11.2295067"><ele>338.8333333333333</ele><time>2026-04-11T07:49:13.42Z</time></trkpt><trkpt lat="43.8975133" lon="11.229585"><ele>339.0</ele><time>2026-04-11T07:49:15.419Z</time></trkpt><trkpt lat="43.8975483" lon="11.2296733"><ele>439.0</ele><time>2026-04-11T07:49:18.418Z</time></trkpt><trkpt lat="43.8944683" lon="11.23125"><ele>439.0</ele><time>2026-04-11T07:49:20.417Z</time></trkpt><trkpt lat="43.894655" lon="11.2308717"><ele>439.0</ele><time>2026-04-11T07:49:21.418Z</time></trkpt><trkpt lat="43.8940433" lon="11.2314867"><ele>445.6</ele><time>2026-04-11T07:49:22.417Z</time></trkpt><trkpt lat="43.89417" lon="11.2315117"><ele>452.2</ele><time>2026-04-11T07:49:24.417Z</time></trkpt><trkpt lat="43.8941" lon="11.2315717"><ele>458.80000000000007</ele><time>2026-04-11T07:49:26.419Z</time></trkpt><trkpt lat="43.8940783" lon="11.2317083"><ele>465.40000000000003</ele><time>2026-04-11T07:49:28.418Z</time></trkpt><trkpt lat="43.8940783" lon="11.23182"><ele>472.0</ele><time>2026-04-11T07:49:30.418Z</time></trkpt><trkpt lat="43.8940983" lon="11.2319167"><ele>472.0</ele><time>2026-04-11T07:49:32.419Z</time></trkpt><trkpt lat="43.8940783" lon="11.2320217"><ele>472.0</ele><time>2026-04-11T07:49:35.418Z</time></trkpt><trkpt lat="43.8956683" lon="11.22963"><ele>442.5</ele><time>2026-04-11T07:49:38.419Z</time></trkpt><trkpt lat="43.8957067" lon="11.22946"><ele>413.0</ele><time>2026-04-11T07:49:39.417Z</time></trkpt><trkpt lat="43.8969617" lon="11.2297733"><ele>388.5</ele><time>2026-04-11T07:49:40.418Z</time></trkpt><trkpt lat="43.8970233" lon="11.230015"><ele>364.0</ele><time>2026-04-11T07:49:41.418Z</time></trkpt><trkpt lat="43.89733" lon="11.2317067"><ele>364.0</ele><time>2026-04-11T07:49:42.419Z</time></trkpt><trkpt lat="43.8972883" lon="11.2320533"><ele>364.0</ele><time>2026-04-11T07:49:43.418Z</time></trkpt><trkpt lat="43.8972733" lon="11.232325"><ele>367.0</ele><time>2026-04-11T07:49:44.418Z</time></trkpt><trkpt lat="43.8972367" lon="11.2324483"><ele>370.0</ele><time>2026-04-11T07:49:45.417Z</time></trkpt><trkpt lat="43.8971883" lon="11.2325433"><ele>373.0</ele><time>2026-04-11T07:49:46.418Z</time></trkpt><trkpt lat="43.8971217" lon="11.232795"><ele>376.0</ele><time>2026-04-11T07:49:47.418Z</time></trkpt><trkpt lat="43.8971083" lon="11.2329667"><ele>376.0</ele><time>2026-04-11T07:49:48.417Z</time></trkpt><trkpt lat="43.897075" lon="11.2330867"><ele>376.0</ele><time>2026-04-11T07:49:49.419Z</time></trkpt><trkpt lat="43.8970533" lon="11.2332167"><ele>376.0</ele><time>2026-04-11T07:49:51.418Z</time></trkpt><trkpt lat="43.8970133" lon="11.2333333"><ele>376.0</ele><time>2026-04-11T07:49:53.419Z</time></trkpt><trkpt lat="43.8969617" lon="11.2335217"><ele>376.0</ele><time>2026-04-11T07:49:55.417Z</time></trkpt><trkpt lat="43.8969417" lon="11.2336733"><ele>377.16666666666663</ele><time>2026-04-11T07:49:57.418Z</time></trkpt><trkpt lat="43.89698" lon="11.23375"><ele>378.3333333333333</ele><time>2026-04-11T07:49:59.42Z</time></trkpt><trkpt lat="43.8970117" lon="11.2338683"><ele>379.5</ele><time>2026-04-11T07:50:01.417Z</time></trkpt><trkpt lat="43.89705" lon="11.2339933"><ele>380.6666666666667</ele><time>2026-04-11T07:50:03.417Z</time></trkpt><trkpt lat="43.89708" lon="11.2341067"><ele>381.83333333333337</ele><time>2026-04-11T07:50:05.418Z</time></trkpt><trkpt lat="43.8971017" lon="11.2342417"><ele>383.0</ele><time>2026-04-11T07:50:07.419Z</time></trkpt><trkpt lat="43.8971117" lon="11.234385"><ele>386.0</ele><time>2026-04-11T07:50:09.418Z</time></trkpt><trkpt lat="43.8970817" lon="11.2345683"><ele>389.0</ele><time>2026-04-11T07:50:11.418Z</time></trkpt><trkpt lat="43.8970583" lon="11.234675"><ele>392.0</ele><time>2026-04-11T07:50:12.417Z</time></trkpt><trkpt lat="43.8970383" lon="11.2347683"><ele>395.0</ele><time>2026-04-11T07:50:13.421Z</time></trkpt><trkpt lat="43.8970167" lon="11.23486"><ele>398.0</ele><time>2026-04-11T07:50:14.417Z</time></trkpt><trkpt lat="43.8969667" lon="11.2350083"><ele>400.16666666666663</ele><time>2026-04-11T07:50:15.417Z</time></trkpt><trkpt lat="43.89695" lon="11.2351017"><ele>402.3333333333333</ele><time>2026-04-11T07:50:16.419Z</time></trkpt><trkpt lat="43.8969433" lon="11.2352267"><ele>404.5</ele><time>2026-04-11T07:50:18.417Z</time></trkpt><trkpt lat="43.8969267" lon="11.235345"><ele>406.66666666666663</ele><time>2026-04-11T07:50:20.42Z</time></trkpt><trkpt lat="43.8969117" lon="11.2354383"><ele>408.8333333333333</ele><time>2026-04-11T07:50:22.417Z</time></trkpt><trkpt lat="43.8968883" lon="11.23554"><ele>411.0</ele><time>2026-04-11T07:50:25.417Z</time></trkpt><trkpt lat="43.8968733" lon="11.2356633"><ele>411.8333333333333</ele><time>2026-04-11T07:50:28.419Z</time></trkpt><trkpt lat="43.896875" lon="11.2357633"><ele>412.66666666666663</ele><time>2026-04-11T07:50:30.417Z</time></trkpt><trkpt lat="43.8969133" lon="11.23586"><ele>413.5</ele><time>2026-04-11T07:50:32.418Z</time></trkpt><trkpt lat="43.8969283" lon="11.2359517"><ele>414.3333333333333</ele><time>2026-04-11T07:50:34.417Z</time></trkpt><trkpt lat="43.8969267" lon="11.2360733"><ele>415.16666666666663</ele><time>2026-04-11T07:50:36.417Z</time></trkpt><trkpt lat="43.89692" lon="11.23623"><ele>416.0</ele><time>2026-04-11T07:50:38.419Z</time></trkpt><trkpt lat="43.8968867" lon="11.2363417"><ele>415.99999999999994</ele><time>2026-04-11T07:50:39.42Z</time></trkpt><trkpt lat="43.89689" lon="11.236435"><ele>416.0</ele><time>2026-04-11T07:50:40.419Z</time></trkpt><trkpt lat="43.8968883" lon="11.23654"><ele>416.0</ele><time>2026-04-11T07:50:41.418Z</time></trkpt><trkpt lat="43.896885" lon="11.2366417"><ele>416.0</ele><time>2026-04-11T07:50:42.418Z</time></trkpt><trkpt lat="43.8968817" lon="11.236735"><ele>415.99999999999994</ele><time>2026-04-11T07:50:43.419Z</time></trkpt><trkpt lat="43.8968783" lon="11.236835"><ele>416.0</ele><time>2026-04-11T07:50:44.418Z</time></trkpt><trkpt lat="43.896865" lon="11.2370783"><ele>417.75</ele><time>2026-04-11T07:50:46.418Z</time></trkpt><trkpt lat="43.8968483" lon="11.2372033"><ele>419.5</ele><time>2026-04-11T07:50:48.418Z</time></trkpt><trkpt lat="43.8969467" lon="11.2371933"><ele>421.25</ele><time>2026-04-11T07:50:52.417Z</time></trkpt><trkpt lat="43.8969883" lon="11.2373583"><ele>423.0</ele><time>2026-04-11T07:50:54.418Z</time></trkpt><trkpt lat="43.8969583" lon="11.2376333"><ele>427.75</ele><time>2026-04-11T07:50:56.419Z</time></trkpt><trkpt lat="43.8969133" lon="11.2379267"><ele>432.5</ele><time>2026-04-11T07:50:57.419Z</time></trkpt><trkpt lat="43.8969833" lon="11.238035"><ele>437.25</ele><time>2026-04-11T07:50:59.419Z</time></trkpt><trkpt lat="43.89704" lon="11.23808"><ele>442.0</ele><time>2026-04-11T07:51:01.418Z</time></trkpt><trkpt lat="43.897125" lon="11.2381633"><ele>446.8</ele><time>2026-04-11T07:51:03.418Z</time></trkpt><trkpt lat="43.8971783" lon="11.2382183"><ele>451.6</ele><time>2026-04-11T07:51:04.417Z</time></trkpt><trkpt lat="43.8972433" lon="11.23833"><ele>456.40000000000003</ele><time>2026-04-11T07:51:06.419Z</time></trkpt><trkpt lat="43.8973017" lon="11.238455"><ele>461.20000000000005</ele><time>2026-04-11T07:51:08.419Z</time></trkpt><trkpt lat="43.8973517" lon="11.2385883"><ele>466.0</ele><time>2026-04-11T07:51:10.419Z</time></trkpt><trkpt lat="43.89738" lon="11.2387167"><ele>466.0</ele><time>2026-04-11T07:51:12.419Z</time></trkpt><trkpt lat="43.8974317" lon="11.2388667"><ele>466.0</ele><time>2026-04-11T07:51:14.419Z</time></trkpt><trkpt lat="43.89746" lon="11.2389483"><ele>466.0</ele><time>2026-04-11T07:51:15.418Z</time></trkpt><trkpt lat="43.8974583" lon="11.2391067"><ele>466.0</ele><time>2026-04-11T07:51:17.418Z</time></trkpt><trkpt lat="43.89748" lon="11.239245"><ele>466.0</ele><time>2026-04-11T07:51:19.419Z</time></trkpt><trkpt lat="43.8974633" lon="11.23935"><ele>469.1666666666667</ele><time>2026-04-11T07:51:20.419Z</time></trkpt><trkpt lat="43.89743" lon="11.2394617"><ele>472.33333333333337</ele><time>2026-04-11T07:51:21.419Z</time></trkpt><trkpt lat="43.8973983" lon="11.2395717"><ele>475.5</ele><time>2026-04-11T07:51:22.418Z</time></trkpt><trkpt lat="43.8973983" lon="11.2396783"><ele>478.66666666666663</ele><time>2026-04-11T07:51:23.42Z</time></trkpt><trkpt lat="43.8973883" lon="11.2398067"><ele>481.8333333333333</ele><time>2026-04-11T07:51:24.422Z</time></trkpt><trkpt lat="43.8974067" lon="11.2399"><ele>485.0</ele><time>2026-04-11T07:51:25.42Z</time></trkpt><trkpt lat="43.897385" lon="11.2399983"><ele>486.0</ele><time>2026-04-11T07:51:26.42Z</time></trkpt><trkpt lat="43.8974667" lon="11.2401183"><ele>487.0</ele><time>2026-04-11T07:51:28.421Z</time></trkpt><trkpt lat="43.8974767" lon="11.24024"><ele>488.0</ele><time>2026-04-11T07:51:29.419Z</time></trkpt><trkpt lat="43.8974783" lon="11.24039"><ele>489.0</ele><time>2026-04-11T07:51:30.419Z</time></trkpt><trkpt lat="43.897475" lon="11.240535"><ele>490.0</ele><time>2026-04-11T07:51:31.425Z</time></trkpt><trkpt lat="43.8974817" lon="11.2406833"><ele>488.50000000000006</ele><time>2026-04-11T07:51:32.419Z</time></trkpt><trkpt lat="43.8974833" lon="11.2408117"><ele>487.0</ele><time>2026-04-11T07:51:33.419Z</time></trkpt><trkpt lat="43.8974833" lon="11.2409283"><ele>485.5</ele><time>2026-04-11T07:51:34.42Z</time></trkpt><trkpt lat="43.897485" lon="11.2410333"><ele>484.0</ele><time>2026-04-11T07:51:36.418Z</time></trkpt><trkpt lat="43.8974833" lon="11.2412067"><ele>482.50000000000006</ele><time>2026-04-11T07:51:38.419Z</time></trkpt><trkpt lat="43.897485" lon="11.241295"><ele>481.0</ele><time>2026-04-11T07:51:39.418Z</time></trkpt><trkpt lat="43.8975333" lon="11.2415217"><ele>481.0</ele><time>2026-04-11T07:51:41.419Z</time></trkpt><trkpt lat="43.897555" lon="11.24161"><ele>481.0</ele><time>2026-04-11T07:51:42.419Z</time></trkpt><trkpt lat="43.8975967" lon="11.241845"><ele>481.0</ele><time>2026-04-11T07:51:44.421Z</time></trkpt><trkpt lat="43.8976283" lon="11.2419333"><ele>481.0</ele><time>2026-04-11T07:51:45.418Z</time></trkpt><trkpt lat="43.89769" lon="11.242045"><ele>481.0</ele><time>2026-04-11T07:51:47.42Z</time></trkpt><trkpt lat="43.897825" lon="11.2421383"><ele>479.33333333333337</ele><time>2026-04-11T07:51:49.419Z</time></trkpt><trkpt lat="43.8978717" lon="11.242205"><ele>477.6666666666667</ele><time>2026-04-11T07:51:50.419Z</time></trkpt><trkpt lat="43.8979217" lon="11.2423133"><ele>476.0</ele><time>2026-04-11T07:51:51.419Z</time></trkpt><trkpt lat="43.8979833" lon="11.2423933"><ele>474.33333333333337</ele><time>2026-04-11T07:51:52.418Z</time></trkpt><trkpt lat="43.8980467" lon="11.242475"><ele>472.6666666666667</ele><time>2026-04-11T07:51:53.421Z</time></trkpt><trkpt lat="43.89811" lon="11.2425617"><ele>471.0</ele><time>2026-04-11T07:51:54.418Z</time></trkpt><trkpt lat="43.89816" lon="11.2426633"><ele>471.0</ele><time>2026-04-11T07:51:55.418Z</time></trkpt><trkpt lat="43.898205" lon="11.2427467"><ele>471.0</ele><time>2026-04-11T07:51:56.419Z</time></trkpt><trkpt lat="43.898225" lon="11.2430617"><ele>471.0</ele><time>2026-04-11T07:51:57.419Z</time></trkpt><trkpt lat="43.8982333" lon="11.2432433"><ele>471.0</ele><time>2026-04-11T07:51:58.423Z</time></trkpt><trkpt lat="43.8982967" lon="11.24332"><ele>470.5</ele><time>2026-04-11T07:51:59.419Z</time></trkpt><trkpt lat="43.8983117" lon="11.2434233"><ele>470.0</ele><time>2026-04-11T07:52:00.419Z</time></trkpt><trkpt lat="43.8983383" lon="11.2435367"><ele>469.5</ele><time>2026-04-11T07:52:01.418Z</time></trkpt><trkpt lat="43.8983483" lon="11.2436367"><ele>469.0</ele><time>2026-04-11T07:52:02.42Z</time></trkpt><trkpt lat="43.898385" lon="11.243735"><ele>468.5</ele><time>2026-04-11T07:52:03.419Z</time></trkpt><trkpt lat="43.89842" lon="11.2438433"><ele>468.0</ele><time>2026-04-11T07:52:04.419Z</time></trkpt><trkpt lat="43.898485" lon="11.244005"><ele>469.5</ele><time>2026-04-11T07:52:05.419Z</time></trkpt><trkpt lat="43.8985233" lon="11.2441267"><ele>471.0</ele><time>2026-04-11T07:52:06.419Z</time></trkpt><trkpt lat="43.8985483" lon="11.244225"><ele>472.5</ele><time>2026-04-11T07:52:07.418Z</time></trkpt><trkpt lat="43.8985667" lon="11.24431"><ele>474.0</ele><time>2026-04-11T07:52:08.42Z</time></trkpt><trkpt lat="43.8986183" lon="11.244375"><ele>475.5</ele><time>2026-04-11T07:52:09.418Z</time></trkpt><trkpt lat="43.8986717" lon="11.2444567"><ele>477.0</ele><time>2026-04-11T07:52:10.418Z</time></trkpt><trkpt lat="43.8987283" lon="11.24456"><ele>477.0</ele><time>2026-04-11T07:52:11.419Z</time></trkpt><trkpt lat="43.8988017" lon="11.244685"><ele>477.00000000000006</ele><time>2026-04-11T07:52:12.419Z</time></trkpt><trkpt lat="43.8988517" lon="11.244785"><ele>477.00000000000006</ele><time>2026-04-11T07:52:13.421Z</time></trkpt><trkpt lat="43.8989067" lon="11.24489"><ele>477.0</ele><time>2026-04-11T07:52:14.419Z</time></trkpt><trkpt lat="43.8989667" lon="11.24499"><ele>477.0</ele><time>2026-04-11T07:52:15.418Z</time></trkpt><trkpt lat="43.8990117" lon="11.2450883"><ele>478.8333333333333</ele><time>2026-04-11T07:52:16.42Z</time></trkpt><trkpt lat="43.89908" lon="11.2452283"><ele>480.66666666666663</ele><time>2026-04-11T07:52:18.419Z</time></trkpt><trkpt lat="43.89912" lon="11.2453033"><ele>482.5</ele><time>2026-04-11T07:52:19.419Z</time></trkpt><trkpt lat="43.8991617" lon="11.2453783"><ele>484.3333333333333</ele><time>2026-04-11T07:52:20.424Z</time></trkpt><trkpt lat="43.8991933" lon="11.2454633"><ele>486.16666666666663</ele><time>2026-04-11T07:52:21.418Z</time></trkpt><trkpt lat="43.8992183" lon="11.2455467"><ele>488.0</ele><time>2026-04-11T07:52:22.418Z</time></trkpt><trkpt lat="43.899255" lon="11.2456317"><ele>489.2857142857142</ele><time>2026-04-11T07:52:23.419Z</time></trkpt><trkpt lat="43.899295" lon="11.2457133"><ele>490.57142857142856</ele><time>2026-04-11T07:52:24.419Z</time></trkpt><trkpt lat="43.899345" lon="11.2457783"><ele>491.85714285714283</ele><time>2026-04-11T07:52:25.418Z</time></trkpt><trkpt lat="43.8993983" lon="11.2458267"><ele>493.1428571428571</ele><time>2026-04-11T07:52:26.42Z</time></trkpt><trkpt lat="43.8994717" lon="11.2458817"><ele>494.42857142857144</ele><time>2026-04-11T07:52:28.418Z</time></trkpt><trkpt lat="43.8995433" lon="11.2459217"><ele>495.7142857142857</ele><time>2026-04-11T07:52:30.418Z</time></trkpt><trkpt lat="43.8996167" lon="11.2459683"><ele>497.0</ele><time>2026-04-11T07:52:32.421Z</time></trkpt><trkpt lat="43.899705" lon="11.2460383"><ele>496.99999999999994</ele><time>2026-04-11T07:52:34.419Z</time></trkpt><trkpt lat="43.89979" lon="11.2461117"><ele>497.0</ele><time>2026-04-11T07:52:37.419Z</time></trkpt><trkpt lat="43.899815" lon="11.2462183"><ele>497.0</ele><time>2026-04-11T07:52:40.419Z</time></trkpt><trkpt lat="43.8997967" lon="11.2463033"><ele>497.0</ele><time>2026-04-11T07:52:42.419Z</time></trkpt><trkpt lat="43.8997667" lon="11.2463833"><ele>496.99999999999994</ele><time>2026-04-11T07:52:44.419Z</time></trkpt><trkpt lat="43.8997233" lon="11.2464583"><ele>497.0</ele><time>2026-04-11T07:52:46.419Z</time></trkpt><trkpt lat="43.8996683" lon="11.246565"><ele>498.6</ele><time>2026-04-11T07:52:48.419Z</time></trkpt><trkpt lat="43.8996117" lon="11.2466783"><ele>500.20000000000005</ele><time>2026-04-11T07:52:50.42Z</time></trkpt><trkpt lat="43.8995333" lon="11.24676"><ele>501.8</ele><time>2026-04-11T07:52:52.419Z</time></trkpt><trkpt lat="43.8994333" lon="11.2468417"><ele>503.4</ele><time>2026-04-11T07:52:54.419Z</time></trkpt><trkpt lat="43.8993883" lon="11.246915"><ele>505.0</ele><time>2026-04-11T07:52:56.42Z</time></trkpt><trkpt lat="43.8993583" lon="11.2470333"><ele>505.00000000000006</ele><time>2026-04-11T07:53:15.42Z</time></trkpt><trkpt lat="43.89936" lon="11.2471683"><ele>505.0</ele><time>2026-04-11T07:53:18.42Z</time></trkpt><trkpt lat="43.89933" lon="11.2472883"><ele>505.0</ele><time>2026-04-11T07:53:20.419Z</time></trkpt><trkpt lat="43.8992817" lon="11.2473917"><ele>505.0</ele><time>2026-04-11T07:53:22.421Z</time></trkpt><trkpt lat="43.8992283" lon="11.2474817"><ele>505.00000000000006</ele><time>2026-04-11T07:53:24.42Z</time></trkpt><trkpt lat="43.899165" lon="11.2475433"><ele>505.0</ele><time>2026-04-11T07:53:26.42Z</time></trkpt><trkpt lat="43.8990867" lon="11.2475617"><ele>506.83333333333337</ele><time>2026-04-11T07:53:28.42Z</time></trkpt><trkpt lat="43.8990033" lon="11.2475633"><ele>508.6666666666667</ele><time>2026-04-11T07:53:30.42Z</time></trkpt><trkpt lat="43.8989267" lon="11.2475817"><ele>510.5</ele><time>2026-04-11T07:53:32.42Z</time></trkpt><trkpt lat="43.89886" lon="11.24762"><ele>512.3333333333334</ele><time>2026-04-11T07:53:34.422Z</time></trkpt><trkpt lat="43.89878" lon="11.2476683"><ele>514.1666666666666</ele><time>2026-04-11T07:53:36.422Z</time></trkpt><trkpt lat="43.8986767" lon="11.2477333"><ele>516.0</ele><time>2026-04-11T07:53:38.419Z</time></trkpt><trkpt lat="43.898585" lon="11.2477983"><ele>516.0</ele><time>2026-04-11T07:53:40.42Z</time></trkpt><trkpt lat="43.8984883" lon="11.2478583"><ele>516.0</ele><time>2026-04-11T07:53:42.419Z</time></trkpt><trkpt lat="43.8983783" lon="11.2479017"><ele>516.0</ele><time>2026-04-11T07:53:44.422Z</time></trkpt><trkpt lat="43.89831" lon="11.2479633"><ele>516.0</ele><time>2026-04-11T07:53:45.42Z</time></trkpt><trkpt lat="43.8982517" lon="11.248025"><ele>516.0</ele><time>2026-04-11T07:53:46.422Z</time></trkpt><trkpt lat="43.8981667" lon="11.2480933"><ele>520.2</ele><time>2026-04-11T07:53:48.419Z</time></trkpt><trkpt lat="43.898075" lon="11.24817"><ele>524.4000000000001</ele><time>2026-04-11T07:53:50.419Z</time></trkpt><trkpt lat="43.8979717" lon="11.2482667"><ele>528.6</ele><time>2026-04-11T07:53:52.42Z</time></trkpt><trkpt lat="43.8978767" lon="11.248375"><ele>532.8000000000001</ele><time>2026-04-11T07:53:54.42Z</time></trkpt><trkpt lat="43.8978017" lon="11.2484133"><ele>537.0</ele><time>2026-04-11T07:53:56.419Z</time></trkpt><trkpt lat="43.89773" lon="11.2484467"><ele>537.0</ele><time>2026-04-11T07:53:58.42Z</time></trkpt><trkpt lat="43.8976483" lon="11.2485367"><ele>537.0</ele><time>2026-04-11T07:54:14.419Z</time></trkpt><trkpt lat="43.8975633" lon="11.24855"><ele>537.0</ele><time>2026-04-11T07:54:17.419Z</time></trkpt><trkpt lat="43.8974983" lon="11.2485433"><ele>537.0</ele><time>2026-04-11T07:54:20.42Z</time></trkpt><trkpt lat="43.897435" lon="11.2485433"><ele>537.0</ele><time>2026-04-11T07:54:22.421Z</time></trkpt><trkpt lat="43.897355" lon="11.2485517"><ele>537.0</ele><time>2026-04-11T07:54:25.42Z</time></trkpt><trkpt lat="43.8972217" lon="11.2485533"><ele>537.5714285714286</ele><time>2026-04-11T08:04:18.419Z</time></trkpt><trkpt lat="43.89717" lon="11.2484917"><ele>538.1428571428571</ele><time>2026-04-11T08:04:22.418Z</time></trkpt><trkpt lat="43.89711" lon="11.24845"><ele>538.7142857142858</ele><time>2026-04-11T08:04:24.418Z</time></trkpt><trkpt lat="43.8970433" lon="11.2484117"><ele>539.2857142857142</ele><time>2026-04-11T08:04:26.421Z</time></trkpt><trkpt lat="43.8969717" lon="11.248375"><ele>539.8571428571429</ele><time>2026-04-11T08:04:29.422Z</time></trkpt><trkpt lat="43.8969067" lon="11.248355"><ele>540.4285714285714</ele><time>2026-04-11T08:04:32.418Z</time></trkpt><trkpt lat="43.89684" lon="11.2483133"><ele>541.0</ele><time>2026-04-11T08:04:36.419Z</time></trkpt><trkpt lat="43.8967733" lon="11.2482717"><ele>541.8333333333334</ele><time>2026-04-11T08:04:38.418Z</time></trkpt><trkpt lat="43.8967033" lon="11.2481983"><ele>542.6666666666667</ele><time>2026-04-11T08:04:40.419Z</time></trkpt><trkpt lat="43.8966417" lon="11.2481433"><ele>543.5</ele><time>2026-04-11T08:04:42.419Z</time></trkpt><trkpt lat="43.8965767" lon="11.2480817"><ele>544.3333333333334</ele><time>2026-04-11T08:04:44.422Z</time></trkpt><trkpt lat="43.896515" lon="11.2480217"><ele>545.1666666666666</ele><time>2026-04-11T08:04:46.418Z</time></trkpt><trkpt lat="43.8964483" lon="11.2479967"><ele>546.0</ele><time>2026-04-11T08:04:48.418Z</time></trkpt><trkpt lat="43.896375" lon="11.24796"><ele>546.2</ele><time>2026-04-11T08:04:50.419Z</time></trkpt><trkpt lat="43.89629" lon="11.2479267"><ele>546.4000000000001</ele><time>2026-04-11T08:04:52.419Z</time></trkpt><trkpt lat="43.8961783" lon="11.247865"><ele>546.6</ele><time>2026-04-11T08:04:54.419Z</time></trkpt><trkpt lat="43.8961033" lon="11.2478417"><ele>546.8000000000001</ele><time>2026-04-11T08:04:55.419Z</time></trkpt><trkpt lat="43.8959983" lon="11.2478167"><ele>547.0</ele><time>2026-04-11T08:04:57.417Z</time></trkpt><trkpt lat="43.8959233" lon="11.247835"><ele>547.6</ele><time>2026-04-11T08:04:59.419Z</time></trkpt><trkpt lat="43.8958167" lon="11.247815"><ele>548.2</ele><time>2026-04-11T08:05:01.422Z</time></trkpt><trkpt lat="43.8957267" lon="11.2478083"><ele>548.8</ele><time>2026-04-11T08:05:03.418Z</time></trkpt><trkpt lat="43.8956317" lon="11.2477933"><ele>549.4</ele><time>2026-04-11T08:05:05.418Z</time></trkpt><trkpt lat="43.8955117" lon="11.247745"><ele>550.0</ele><time>2026-04-11T08:05:07.421Z</time></trkpt><trkpt lat="43.89542" lon="11.2477583"><ele>550.0</ele><time>2026-04-11T08:05:09.42Z</time></trkpt><trkpt lat="43.89535" lon="11.2477667"><ele>550.0</ele><time>2026-04-11T08:05:11.418Z</time></trkpt><trkpt lat="43.8952667" lon="11.2477817"><ele>550.0</ele><time>2026-04-11T08:05:14.42Z</time></trkpt><trkpt lat="43.8951967" lon="11.2477967"><ele>550.0</ele><time>2026-04-11T08:05:16.42Z</time></trkpt><trkpt lat="43.895115" lon="11.2478383"><ele>550.0</ele><time>2026-04-11T08:05:19.421Z</time></trkpt><trkpt lat="43.8950383" lon="11.2478883"><ele>550.0</ele><time>2026-04-11T08:05:22.42Z</time></trkpt><trkpt lat="43.89496" lon="11.2479383"><ele>548.5</ele><time>2026-04-11T08:05:25.418Z</time></trkpt><trkpt lat="43.8948683" lon="11.2479417"><ele>547.0</ele><time>2026-04-11T08:05:28.418Z</time></trkpt><trkpt lat="43.8948017" lon="11.2479417"><ele>545.5</ele><time>2026-04-11T08:05:30.42Z</time></trkpt><trkpt lat="43.894745" lon="11.24798"><ele>544.0</ele><time>2026-04-11T08:05:32.418Z</time></trkpt><trkpt lat="43.8947" lon="11.2480583"><ele>542.5</ele><time>2026-04-11T08:05:34.423Z</time></trkpt><trkpt lat="43.8946283" lon="11.2481467"><ele>541.0</ele><time>2026-04-11T08:05:36.418Z</time></trkpt><trkpt lat="43.894555" lon="11.2482683"><ele>539.5</ele><time>2026-04-11T08:05:38.421Z</time></trkpt><trkpt lat="43.89446" lon="11.2483317"><ele>538.0</ele><time>2026-04-11T08:05:40.419Z</time></trkpt><trkpt lat="43.8943833" lon="11.2483783"><ele>536.5</ele><time>2026-04-11T08:05:42.419Z</time></trkpt><trkpt lat="43.8943167" lon="11.24846"><ele>535.0</ele><time>2026-04-11T08:05:44.423Z</time></trkpt><trkpt lat="43.8942667" lon="11.2485317"><ele>533.5</ele><time>2026-04-11T08:05:46.418Z</time></trkpt><trkpt lat="43.8941933" lon="11.2485817"><ele>532.0</ele><time>2026-04-11T08:05:48.418Z</time></trkpt><trkpt lat="43.894135" lon="11.248625"><ele>531.1666666666667</ele><time>2026-04-11T08:05:49.419Z</time></trkpt><trkpt lat="43.894065" lon="11.2486933"><ele>530.3333333333334</ele><time>2026-04-11T08:05:50.419Z</time></trkpt><trkpt lat="43.894" lon="11.2487617"><ele>529.5</ele><time>2026-04-11T08:05:51.418Z</time></trkpt><trkpt lat="43.8939517" lon="11.2488233"><ele>528.6666666666666</ele><time>2026-04-11T08:05:52.418Z</time></trkpt><trkpt lat="43.8939017" lon="11.2488933"><ele>527.8333333333333</ele><time>2026-04-11T08:05:53.419Z</time></trkpt><trkpt lat="43.8938183" lon="11.24899"><ele>527.0</ele><time>2026-04-11T08:05:55.418Z</time></trkpt><trkpt lat="43.8937283" lon="11.2490383"><ele>526.3333333333333</ele><time>2026-04-11T08:05:57.419Z</time></trkpt><trkpt lat="43.89366" lon="11.2490533"><ele>525.6666666666666</ele><time>2026-04-11T08:06:00.418Z</time></trkpt><trkpt lat="43.8936517" lon="11.2491517"><ele>525.0</ele><time>2026-04-11T08:06:03.418Z</time></trkpt><trkpt lat="43.8936917" lon="11.24922"><ele>524.3333333333334</ele><time>2026-04-11T08:06:05.418Z</time></trkpt><trkpt lat="43.8937867" lon="11.249275"><ele>523.6666666666667</ele><time>2026-04-11T08:06:07.419Z</time></trkpt><trkpt lat="43.8938933" lon="11.24935"><ele>523.0</ele><time>2026-04-11T08:06:09.418Z</time></trkpt><trkpt lat="43.893955" lon="11.2494467"><ele>523.0</ele><time>2026-04-11T08:06:11.417Z</time></trkpt><trkpt lat="43.894" lon="11.2495533"><ele>523.0</ele><time>2026-04-11T08:06:13.419Z</time></trkpt><trkpt lat="43.8940533" lon="11.2496667"><ele>523.0</ele><time>2026-04-11T08:06:15.417Z</time></trkpt><trkpt lat="43.8941133" lon="11.2497667"><ele>523.0</ele><time>2026-04-11T08:06:17.42Z</time></trkpt><trkpt lat="43.8941867" lon="11.24982"><ele>523.0</ele><time>2026-04-11T08:06:19.418Z</time></trkpt><trkpt lat="43.8942533" lon="11.2498433"><ele>523.0</ele><time>2026-04-11T08:06:21.417Z</time></trkpt><trkpt lat="43.894315" lon="11.2498217"><ele>521.8333333333334</ele><time>2026-04-11T08:06:23.42Z</time></trkpt><trkpt lat="43.89438" lon="11.2497267"><ele>520.6666666666667</ele><time>2026-04-11T08:06:27.418Z</time></trkpt><trkpt lat="43.8945017" lon="11.2497233"><ele>519.5</ele><time>2026-04-11T08:06:29.419Z</time></trkpt><trkpt lat="43.8945767" lon="11.2497533"><ele>518.3333333333334</ele><time>2026-04-11T08:06:30.419Z</time></trkpt><trkpt lat="43.89465" lon="11.2498017"><ele>517.1666666666666</ele><time>2026-04-11T08:06:31.419Z</time></trkpt><trkpt lat="43.894715" lon="11.2498433"><ele>516.0</ele><time>2026-04-11T08:06:32.419Z</time></trkpt><trkpt lat="43.8948017" lon="11.249935"><ele>513.2</ele><time>2026-04-11T08:06:34.419Z</time></trkpt><trkpt lat="43.8948917" lon="11.2500283"><ele>510.40000000000003</ele><time>2026-04-11T08:06:36.419Z</time></trkpt><trkpt lat="43.8949433" lon="11.2501467"><ele>507.6</ele><time>2026-04-11T08:06:38.419Z</time></trkpt><trkpt lat="43.8949317" lon="11.25025"><ele>504.8</ele><time>2026-04-11T08:06:40.418Z</time></trkpt><trkpt lat="43.89487" lon="11.2503767"><ele>502.0</ele><time>2026-04-11T08:06:42.418Z</time></trkpt><trkpt lat="43.8948333" lon="11.2504517"><ele>502.00000000000006</ele><time>2026-04-11T08:06:43.418Z</time></trkpt><trkpt lat="43.894795" lon="11.2505433"><ele>502.0</ele><time>2026-04-11T08:06:44.419Z</time></trkpt><trkpt lat="43.8947467" lon="11.2506317"><ele>502.0</ele><time>2026-04-11T08:06:45.42Z</time></trkpt><trkpt lat="43.8947017" lon="11.2507233"><ele>502.0</ele><time>2026-04-11T08:06:46.425Z</time></trkpt><trkpt lat="43.8946533" lon="11.2508233"><ele>502.00000000000006</ele><time>2026-04-11T08:06:47.418Z</time></trkpt><trkpt lat="43.8946017" lon="11.2509183"><ele>502.0</ele><time>2026-04-11T08:06:48.417Z</time></trkpt><trkpt lat="43.8945567" lon="11.2510083"><ele>500.83333333333337</ele><time>2026-04-11T08:06:49.419Z</time></trkpt><trkpt lat="43.8945133" lon="11.2511"><ele>499.6666666666667</ele><time>2026-04-11T08:06:50.418Z</time></trkpt><trkpt lat="43.894475" lon="11.2511933"><ele>498.5</ele><time>2026-04-11T08:06:51.418Z</time></trkpt><trkpt lat="43.8944367" lon="11.2512883"><ele>497.33333333333337</ele><time>2026-04-11T08:06:52.417Z</time></trkpt><trkpt lat="43.8944" lon="11.2513783"><ele>496.1666666666667</ele><time>2026-04-11T08:06:53.419Z</time></trkpt><trkpt lat="43.8943683" lon="11.2514583"><ele>495.0</ele><time>2026-04-11T08:06:54.418Z</time></trkpt><trkpt lat="43.8943217" lon="11.2515933"><ele>493.4</ele><time>2026-04-11T08:06:56.418Z</time></trkpt><trkpt lat="43.8942833" lon="11.2517417"><ele>491.8</ele><time>2026-04-11T08:06:58.42Z</time></trkpt><trkpt lat="43.89424" lon="11.251885"><ele>490.20000000000005</ele><time>2026-04-11T08:07:00.419Z</time></trkpt><trkpt lat="43.8941833" lon="11.25199"><ele>488.6</ele><time>2026-04-11T08:07:02.42Z</time></trkpt><trkpt lat="43.8940917" lon="11.2521"><ele>487.0</ele><time>2026-04-11T08:07:04.419Z</time></trkpt><trkpt lat="43.8940383" lon="11.2521617"><ele>484.40000000000003</ele><time>2026-04-11T08:07:05.418Z</time></trkpt><trkpt lat="43.8939867" lon="11.25223"><ele>481.80000000000007</ele><time>2026-04-11T08:07:06.418Z</time></trkpt><trkpt lat="43.8939417" lon="11.252305"><ele>479.2</ele><time>2026-04-11T08:07:07.42Z</time></trkpt><trkpt lat="43.89388" lon="11.2524317"><ele>476.6</ele><time>2026-04-11T08:07:09.419Z</time></trkpt><trkpt lat="43.8938417" lon="11.25259"><ele>474.0</ele><time>2026-04-11T08:07:11.423Z</time></trkpt><trkpt lat="43.893815" lon="11.2527467"><ele>472.0</ele><time>2026-04-11T08:07:13.419Z</time></trkpt><trkpt lat="43.893825" lon="11.2528683"><ele>470.0</ele><time>2026-04-11T08:07:15.42Z</time></trkpt><trkpt lat="43.8938833" lon="11.2530017"><ele>468.0</ele><time>2026-04-11T08:07:17.419Z</time></trkpt><trkpt lat="43.8939433" lon="11.2531167"><ele>466.0</ele><time>2026-04-11T08:07:19.419Z</time></trkpt><trkpt lat="43.8939533" lon="11.2532617"><ele>464.0</ele><time>2026-04-11T08:07:21.418Z</time></trkpt><trkpt lat="43.8939033" lon="11.2533917"><ele>462.16666666666663</ele><time>2026-04-11T08:07:23.419Z</time></trkpt><trkpt lat="43.8938483" lon="11.2534533"><ele>460.3333333333333</ele><time>2026-04-11T08:07:24.418Z</time></trkpt><trkpt lat="43.893765" lon="11.2535033"><ele>458.5</ele><time>2026-04-11T08:07:25.419Z</time></trkpt><trkpt lat="43.8936967" lon="11.2535383"><ele>456.66666666666663</ele><time>2026-04-11T08:07:26.418Z</time></trkpt><trkpt lat="43.8936283" lon="11.25359"><ele>454.8333333333333</ele><time>2026-04-11T08:07:27.419Z</time></trkpt><trkpt lat="43.8935583" lon="11.2536517"><ele>453.0</ele><time>2026-04-11T08:07:28.419Z</time></trkpt><trkpt lat="43.893495" lon="11.2537067"><ele>453.0</ele><time>2026-04-11T08:07:29.418Z</time></trkpt><trkpt lat="43.8934433" lon="11.2537567"><ele>453.0</ele><time>2026-04-11T08:07:30.418Z</time></trkpt><trkpt lat="43.8933717" lon="11.2538233"><ele>453.0</ele><time>2026-04-11T08:07:32.419Z</time></trkpt><trkpt lat="43.89334" lon="11.2539383"><ele>453.0</ele><time>2026-04-11T08:07:36.42Z</time></trkpt><trkpt lat="43.8933467" lon="11.254045"><ele>453.0</ele><time>2026-04-11T08:07:38.419Z</time></trkpt><trkpt lat="43.8933283" lon="11.2541817"><ele>453.0</ele><time>2026-04-11T08:07:40.419Z</time></trkpt><trkpt lat="43.8932633" lon="11.2543333"><ele>450.79999999999995</ele><time>2026-04-11T08:07:42.418Z</time></trkpt><trkpt lat="43.8932167" lon="11.25441"><ele>448.59999999999997</ele><time>2026-04-11T08:07:43.421Z</time></trkpt><trkpt lat="43.893165" lon="11.25448"><ele>446.40000000000003</ele><time>2026-04-11T08:07:44.419Z</time></trkpt><trkpt lat="43.89307" lon="11.2546"><ele>444.20000000000005</ele><time>2026-04-11T08:07:46.419Z</time></trkpt><trkpt lat="43.8929883" lon="11.2547067"><ele>442.0</ele><time>2026-04-11T08:07:48.418Z</time></trkpt><trkpt lat="43.8929117" lon="11.2547867"><ele>440.40000000000003</ele><time>2026-04-11T08:07:50.419Z</time></trkpt><trkpt lat="43.8928483" lon="11.2548417"><ele>438.80000000000007</ele><time>2026-04-11T08:07:53.417Z</time></trkpt><trkpt lat="43.8928183" lon="11.254985"><ele>437.2</ele><time>2026-04-11T08:07:56.42Z</time></trkpt><trkpt lat="43.8928083" lon="11.255105"><ele>435.6</ele><time>2026-04-11T08:07:57.417Z</time></trkpt><trkpt lat="43.8927933" lon="11.2552333"><ele>434.0</ele><time>2026-04-11T08:07:58.418Z</time></trkpt><trkpt lat="43.8927767" lon="11.255355"><ele>434.0</ele><time>2026-04-11T08:07:59.417Z</time></trkpt><trkpt lat="43.8927467" lon="11.2554767"><ele>434.0</ele><time>2026-04-11T08:08:00.418Z</time></trkpt><trkpt lat="43.8927067" lon="11.2556"><ele>434.0</ele><time>2026-04-11T08:08:01.422Z</time></trkpt><trkpt lat="43.892655" lon="11.2557083"><ele>434.0</ele><time>2026-04-11T08:08:02.418Z</time></trkpt><trkpt lat="43.8925917" lon="11.2557933"><ele>434.0</ele><time>2026-04-11T08:08:03.419Z</time></trkpt><trkpt lat="43.8925283" lon="11.255865"><ele>431.99999999999994</ele><time>2026-04-11T08:08:04.421Z</time></trkpt><trkpt lat="43.8924283" lon="11.2559417"><ele>430.0</ele><time>2026-04-11T08:08:06.418Z</time></trkpt><trkpt lat="43.8923483" lon="11.2560267"><ele>428.0</ele><time>2026-04-11T08:08:08.419Z</time></trkpt><trkpt lat="43.8923783" lon="11.256145"><ele>426.0</ele><time>2026-04-11T08:08:11.419Z</time></trkpt><trkpt lat="43.8924333" lon="11.2561967"><ele>423.99999999999994</ele><time>2026-04-11T08:08:12.42Z</time></trkpt><trkpt lat="43.8925033" lon="11.2562433"><ele>422.0</ele><time>2026-04-11T08:08:13.421Z</time></trkpt><trkpt lat="43.8926067" lon="11.256275"><ele>421.0</ele><time>2026-04-11T08:08:14.418Z</time></trkpt><trkpt lat="43.89274" lon="11.256285"><ele>420.0</ele><time>2026-04-11T08:08:15.417Z</time></trkpt><trkpt lat="43.8928667" lon="11.2562933"><ele>419.0</ele><time>2026-04-11T08:08:16.417Z</time></trkpt><trkpt lat="43.8929917" lon="11.256295"><ele>418.0</ele><time>2026-04-11T08:08:17.42Z</time></trkpt><trkpt lat="43.8931033" lon="11.2562917"><ele>418.0</ele><time>2026-04-11T08:08:18.419Z</time></trkpt><trkpt lat="43.8932" lon="11.25629"><ele>418.0</ele><time>2026-04-11T08:08:19.421Z</time></trkpt><trkpt lat="43.8932883" lon="11.2562967"><ele>418.0</ele><time>2026-04-11T08:08:20.419Z</time></trkpt><trkpt lat="43.89338" lon="11.2563567"><ele>418.0</ele><time>2026-04-11T08:08:22.418Z</time></trkpt><trkpt lat="43.8933367" lon="11.2564667"><ele>418.0</ele><time>2026-04-11T08:08:24.419Z</time></trkpt><trkpt lat="43.8932583" lon="11.2565517"><ele>413.0</ele><time>2026-04-11T08:08:25.419Z</time></trkpt><trkpt lat="43.8931717" lon="11.2566467"><ele>408.0</ele><time>2026-04-11T08:08:26.418Z</time></trkpt><trkpt lat="43.8930783" lon="11.2567483"><ele>403.0</ele><time>2026-04-11T08:08:27.417Z</time></trkpt><trkpt lat="43.8929817" lon="11.2568417"><ele>398.0</ele><time>2026-04-11T08:08:28.419Z</time></trkpt><trkpt lat="43.892885" lon="11.2569217"><ele>398.0</ele><time>2026-04-11T08:08:29.42Z</time></trkpt><trkpt lat="43.8927833" lon="11.2569867"><ele>398.0</ele><time>2026-04-11T08:08:30.417Z</time></trkpt><trkpt lat="43.8926783" lon="11.2570267"><ele>398.0</ele><time>2026-04-11T08:08:31.418Z</time></trkpt><trkpt lat="43.89258" lon="11.2570533"><ele>398.0</ele><time>2026-04-11T08:08:32.419Z</time></trkpt><trkpt lat="43.8924833" lon="11.257075"><ele>398.0</ele><time>2026-04-11T08:08:33.418Z</time></trkpt><trkpt lat="43.89239" lon="11.257085"><ele>398.0</ele><time>2026-04-11T08:08:34.419Z</time></trkpt><trkpt lat="43.8922867" lon="11.2570883"><ele>398.0</ele><time>2026-04-11T08:08:35.418Z</time></trkpt><trkpt lat="43.8921883" lon="11.2570767"><ele>398.0</ele><time>2026-04-11T08:08:36.418Z</time></trkpt><trkpt lat="43.89209" lon="11.257055"><ele>398.0</ele><time>2026-04-11T08:08:37.419Z</time></trkpt><trkpt lat="43.8919983" lon="11.2570233"><ele>398.0</ele><time>2026-04-11T08:08:38.419Z</time></trkpt><trkpt lat="43.8919067" lon="11.2569917"><ele>398.0</ele><time>2026-04-11T08:08:39.42Z</time></trkpt><trkpt lat="43.8918067" lon="11.2569717"><ele>398.0</ele><time>2026-04-11T08:08:40.42Z</time></trkpt><trkpt lat="43.8916983" lon="11.2569683"><ele>398.0</ele><time>2026-04-11T08:08:41.418Z</time></trkpt><trkpt lat="43.8915683" lon="11.2569817"><ele>398.0</ele><time>2026-04-11T08:08:42.419Z</time></trkpt><trkpt lat="43.891425" lon="11.257015"><ele>394.75</ele><time>2026-04-11T08:08:43.419Z</time></trkpt><trkpt lat="43.8912817" lon="11.2570617"><ele>391.5</ele><time>2026-04-11T08:08:44.419Z</time></trkpt><trkpt lat="43.8911383" lon="11.2571033"><ele>388.25</ele><time>2026-04-11T08:08:45.419Z</time></trkpt><trkpt lat="43.891" lon="11.2571267"><ele>385.0</ele><time>2026-04-11T08:08:46.418Z</time></trkpt><trkpt lat="43.8908633" lon="11.257135"><ele>381.0</ele><time>2026-04-11T08:08:47.418Z</time></trkpt><trkpt lat="43.8907567" lon="11.2571433"><ele>377.0</ele><time>2026-04-11T08:08:48.418Z</time></trkpt><trkpt lat="43.8906433" lon="11.2571683"><ele>373.0</ele><time>2026-04-11T08:08:49.419Z</time></trkpt><trkpt lat="43.8905267" lon="11.2572017"><ele>369.0</ele><time>2026-04-11T08:08:50.419Z</time></trkpt><trkpt lat="43.8904033" lon="11.257235"><ele>369.0</ele><time>2026-04-11T08:08:51.419Z</time></trkpt><trkpt lat="43.8902833" lon="11.257275"><ele>369.0</ele><time>2026-04-11T08:08:52.418Z</time></trkpt><trkpt lat="43.8901683" lon="11.2573217"><ele>369.0</ele><time>2026-04-11T08:08:53.419Z</time></trkpt><trkpt lat="43.8900517" lon="11.2573817"><ele>369.0</ele><time>2026-04-11T08:08:54.419Z</time></trkpt><trkpt lat="43.8899433" lon="11.2574633"><ele>369.75</ele><time>2026-04-11T08:08:55.419Z</time></trkpt><trkpt lat="43.889845" lon="11.2575533"><ele>370.5</ele><time>2026-04-11T08:08:56.42Z</time></trkpt><trkpt lat="43.8897517" lon="11.25765"><ele>371.25</ele><time>2026-04-11T08:08:57.418Z</time></trkpt><trkpt lat="43.889665" lon="11.257765"><ele>372.0</ele><time>2026-04-11T08:08:58.419Z</time></trkpt><trkpt lat="43.8895717" lon="11.2578767"><ele>372.0</ele><time>2026-04-11T08:08:59.419Z</time></trkpt><trkpt lat="43.8894717" lon="11.2579833"><ele>372.0</ele><time>2026-04-11T08:09:00.42Z</time></trkpt><trkpt lat="43.8893633" lon="11.25809"><ele>372.0</ele><time>2026-04-11T08:09:01.419Z</time></trkpt><trkpt lat="43.8892867" lon="11.2581917"><ele>372.0</ele><time>2026-04-11T08:09:02.418Z</time></trkpt><trkpt lat="43.889215" lon="11.258285"><ele>371.0</ele><time>2026-04-11T08:09:03.42Z</time></trkpt><trkpt lat="43.8891617" lon="11.258375"><ele>370.0</ele><time>2026-04-11T08:09:04.418Z</time></trkpt><trkpt lat="43.8891167" lon="11.258475"><ele>369.0</ele><time>2026-04-11T08:09:05.418Z</time></trkpt><trkpt lat="43.8890767" lon="11.2585883"><ele>368.0</ele><time>2026-04-11T08:09:06.419Z</time></trkpt><trkpt lat="43.88903" lon="11.258705"><ele>367.0</ele><time>2026-04-11T08:09:07.419Z</time></trkpt><trkpt lat="43.8889717" lon="11.2588183"><ele>367.0</ele><time>2026-04-11T08:09:08.418Z</time></trkpt><trkpt lat="43.8889183" lon="11.2589467"><ele>367.0</ele><time>2026-04-11T08:09:09.421Z</time></trkpt><trkpt lat="43.8888533" lon="11.2590667"><ele>367.0</ele><time>2026-04-11T08:09:10.419Z</time></trkpt><trkpt lat="43.8887783" lon="11.2591833"><ele>367.0</ele><time>2026-04-11T08:09:11.419Z</time></trkpt><trkpt lat="43.888695" lon="11.25932"><ele>366.6</ele><time>2026-04-11T08:09:12.419Z</time></trkpt><trkpt lat="43.88862" lon="11.2594517"><ele>366.20000000000005</ele><time>2026-04-11T08:09:13.419Z</time></trkpt><trkpt lat="43.8885433" lon="11.259575"><ele>365.8</ele><time>2026-04-11T08:09:14.42Z</time></trkpt><trkpt lat="43.88847" lon="11.2596817"><ele>365.4</ele><time>2026-04-11T08:09:15.42Z</time></trkpt><trkpt lat="43.8884133" lon="11.2597617"><ele>365.0</ele><time>2026-04-11T08:09:16.42Z</time></trkpt><trkpt lat="43.8883633" lon="11.25983"><ele>365.0</ele><time>2026-04-11T08:09:17.419Z</time></trkpt><trkpt lat="43.888265" lon="11.259935"><ele>365.0</ele><time>2026-04-11T08:09:19.419Z</time></trkpt><trkpt lat="43.88818" lon="11.2600183"><ele>365.0</ele><time>2026-04-11T08:09:21.42Z</time></trkpt><trkpt lat="43.8881333" lon="11.26009"><ele>365.0</ele><time>2026-04-11T08:09:22.419Z</time></trkpt><trkpt lat="43.8880883" lon="11.260175"><ele>365.0</ele><time>2026-04-11T08:09:23.418Z</time></trkpt><trkpt lat="43.8880417" lon="11.26027"><ele>365.0</ele><time>2026-04-11T08:09:24.42Z</time></trkpt><trkpt lat="43.887985" lon="11.2603933"><ele>365.0</ele><time>2026-04-11T08:09:25.419Z</time></trkpt><trkpt lat="43.887935" lon="11.26056"><ele>365.0</ele><time>2026-04-11T08:09:26.418Z</time></trkpt><trkpt lat="43.8878867" lon="11.2607"><ele>365.0</ele><time>2026-04-11T08:09:27.419Z</time></trkpt><trkpt lat="43.8878517" lon="11.2608367"><ele>368.5</ele><time>2026-04-11T08:09:28.419Z</time></trkpt><trkpt lat="43.887815" lon="11.26099"><ele>372.0</ele><time>2026-04-11T08:09:29.419Z</time></trkpt><trkpt lat="43.887785" lon="11.2611183"><ele>375.5</ele><time>2026-04-11T08:09:30.419Z</time></trkpt><trkpt lat="43.88772" lon="11.2613033"><ele>379.0</ele><time>2026-04-11T08:09:31.419Z</time></trkpt><trkpt lat="43.8876717" lon="11.2614667"><ele>382.75</ele><time>2026-04-11T08:09:32.419Z</time></trkpt><trkpt lat="43.88763" lon="11.2616333"><ele>386.5</ele><time>2026-04-11T08:09:33.42Z</time></trkpt><trkpt lat="43.8875717" lon="11.2618233"><ele>390.25</ele><time>2026-04-11T08:09:34.418Z</time></trkpt><trkpt lat="43.8875083" lon="11.262045"><ele>394.0</ele><time>2026-04-11T08:09:35.418Z</time></trkpt><trkpt lat="43.88746" lon="11.262255"><ele>382.0</ele><time>2026-04-11T08:09:36.418Z</time></trkpt><trkpt lat="43.8874183" lon="11.2624667"><ele>370.0</ele><time>2026-04-11T08:09:37.423Z</time></trkpt><trkpt lat="43.8873783" lon="11.2626933"><ele>358.0</ele><time>2026-04-11T08:09:38.417Z</time></trkpt><trkpt lat="43.8873417" lon="11.262945"><ele>358.66666666666663</ele><time>2026-04-11T08:09:39.417Z</time></trkpt><trkpt lat="43.8873033" lon="11.2632017"><ele>359.3333333333333</ele><time>2026-04-11T08:09:40.418Z</time></trkpt><trkpt lat="43.8872583" lon="11.26346"><ele>360.0</ele><time>2026-04-11T08:09:41.417Z</time></trkpt><trkpt lat="43.8872083" lon="11.2637133"><ele>360.0</ele><time>2026-04-11T08:09:42.417Z</time></trkpt><trkpt lat="43.887165" lon="11.2639533"><ele>360.0</ele><time>2026-04-11T08:09:43.417Z</time></trkpt><trkpt lat="43.8871217" lon="11.2642"><ele>360.0</ele><time>2026-04-11T08:09:44.42Z</time></trkpt><trkpt lat="43.887085" lon="11.26445"><ele>360.0</ele><time>2026-04-11T08:09:45.417Z</time></trkpt><trkpt lat="43.8870517" lon="11.2646783"><ele>360.0</ele><time>2026-04-11T08:09:46.417Z</time></trkpt><trkpt lat="43.8870267" lon="11.2648783"><ele>360.0</ele><time>2026-04-11T08:09:47.42Z</time></trkpt><trkpt lat="43.8870167" lon="11.2650617"><ele>360.0</ele><time>2026-04-11T08:09:48.419Z</time></trkpt><trkpt lat="43.8870267" lon="11.2652367"><ele>357.5</ele><time>2026-04-11T08:09:49.419Z</time></trkpt><trkpt lat="43.8870617" lon="11.2654167"><ele>355.0</ele><time>2026-04-11T08:09:50.419Z</time></trkpt><trkpt lat="43.8871133" lon="11.2656"><ele>352.5</ele><time>2026-04-11T08:09:51.418Z</time></trkpt><trkpt lat="43.887175" lon="11.26578"><ele>350.0</ele><time>2026-04-11T08:09:52.418Z</time></trkpt><trkpt lat="43.8872333" lon="11.2659467"><ele>348.4</ele><time>2026-04-11T08:09:53.419Z</time></trkpt><trkpt lat="43.8872883" lon="11.266105"><ele>346.8</ele><time>2026-04-11T08:09:54.418Z</time></trkpt><trkpt lat="43.88734" lon="11.2662533"><ele>345.20000000000005</ele><time>2026-04-11T08:09:55.418Z</time></trkpt><trkpt lat="43.88738" lon="11.2663883"><ele>343.6</ele><time>2026-04-11T08:09:56.423Z</time></trkpt><trkpt lat="43.887415" lon="11.2665117"><ele>342.0</ele><time>2026-04-11T08:09:57.421Z</time></trkpt><trkpt lat="43.88744" lon="11.266625"><ele>341.1666666666667</ele><time>2026-04-11T08:09:58.419Z</time></trkpt><trkpt lat="43.887455" lon="11.266725"><ele>340.3333333333333</ele><time>2026-04-11T08:09:59.417Z</time></trkpt><trkpt lat="43.8874733" lon="11.2668517"><ele>339.5</ele><time>2026-04-11T08:10:01.419Z</time></trkpt><trkpt lat="43.8874317" lon="11.2669183"><ele>338.66666666666663</ele><time>2026-04-11T08:10:10.418Z</time></trkpt><trkpt lat="43.88736" lon="11.2668967"><ele>337.8333333333333</ele><time>2026-04-11T08:10:13.418Z</time></trkpt><trkpt lat="43.8872917" lon="11.2669033"><ele>337.0</ele><time>2026-04-11T08:16:41.417Z</time></trkpt><trkpt lat="43.887185" lon="11.2668633"><ele>337.0</ele><time>2026-04-11T08:16:43.418Z</time></trkpt><trkpt lat="43.8871117" lon="11.2668367"><ele>337.0</ele><time>2026-04-11T08:16:44.418Z</time></trkpt><trkpt lat="43.8870267" lon="11.2667967"><ele>337.0</ele><time>2026-04-11T08:16:45.417Z</time></trkpt><trkpt lat="43.88692" lon="11.2667417"><ele>337.0</ele><time>2026-04-11T08:16:46.418Z</time></trkpt><trkpt lat="43.886795" lon="11.2666733"><ele>337.0</ele><time>2026-04-11T08:16:47.418Z</time></trkpt><trkpt lat="43.8866483" lon="11.2665967"><ele>336.75</ele><time>2026-04-11T08:16:48.417Z</time></trkpt><trkpt lat="43.8865067" lon="11.266515"><ele>336.5</ele><time>2026-04-11T08:16:49.418Z</time></trkpt><trkpt lat="43.8863733" lon="11.2664283"><ele>336.25</ele><time>2026-04-11T08:16:50.42Z</time></trkpt><trkpt lat="43.886245" lon="11.2663333"><ele>336.0</ele><time>2026-04-11T08:16:51.418Z</time></trkpt><trkpt lat="43.8861233" lon="11.2662283"><ele>336.0</ele><time>2026-04-11T08:16:52.418Z</time></trkpt><trkpt lat="43.8860133" lon="11.2661267"><ele>336.0</ele><time>2026-04-11T08:16:53.418Z</time></trkpt><trkpt lat="43.8859083" lon="11.266015"><ele>336.0</ele><time>2026-04-11T08:16:54.419Z</time></trkpt><trkpt lat="43.88581" lon="11.2659017"><ele>336.0</ele><time>2026-04-11T08:16:55.418Z</time></trkpt><trkpt lat="43.8857233" lon="11.2657933"><ele>337.75</ele><time>2026-04-11T08:16:56.418Z</time></trkpt><trkpt lat="43.8856367" lon="11.2656833"><ele>339.5</ele><time>2026-04-11T08:16:57.419Z</time></trkpt><trkpt lat="43.8855633" lon="11.26556"><ele>341.25</ele><time>2026-04-11T08:16:58.419Z</time></trkpt><trkpt lat="43.8854967" lon="11.26544"><ele>343.0</ele><time>2026-04-11T08:16:59.418Z</time></trkpt><trkpt lat="43.885435" lon="11.265315"><ele>347.25</ele><time>2026-04-11T08:17:00.419Z</time></trkpt><trkpt lat="43.8853683" lon="11.2652"><ele>351.5</ele><time>2026-04-11T08:17:01.419Z</time></trkpt><trkpt lat="43.88528" lon="11.2651133"><ele>355.75</ele><time>2026-04-11T08:17:02.422Z</time></trkpt><trkpt lat="43.8851767" lon="11.2650367"><ele>360.0</ele><time>2026-04-11T08:17:03.419Z</time></trkpt><trkpt lat="43.885045" lon="11.2649767"><ele>360.0</ele><time>2026-04-11T08:17:04.419Z</time></trkpt><trkpt lat="43.8849" lon="11.264935"><ele>360.0</ele><time>2026-04-11T08:17:05.419Z</time></trkpt><trkpt lat="43.8847683" lon="11.264895"><ele>360.0</ele><time>2026-04-11T08:17:06.419Z</time></trkpt><trkpt lat="43.8846517" lon="11.26485"><ele>360.0</ele><time>2026-04-11T08:17:07.419Z</time></trkpt><trkpt lat="43.8845433" lon="11.2647933"><ele>368.5</ele><time>2026-04-11T08:17:08.418Z</time></trkpt><trkpt lat="43.8844267" lon="11.26473"><ele>377.0</ele><time>2026-04-11T08:17:09.42Z</time></trkpt><trkpt lat="43.884315" lon="11.2646633"><ele>385.5</ele><time>2026-04-11T08:17:10.419Z</time></trkpt><trkpt lat="43.884205" lon="11.264605"><ele>394.0</ele><time>2026-04-11T08:17:11.418Z</time></trkpt><trkpt lat="43.8840917" lon="11.26456"><ele>394.0</ele><time>2026-04-11T08:17:12.419Z</time></trkpt><trkpt lat="43.88397" lon="11.26453"><ele>394.0</ele><time>2026-04-11T08:17:13.419Z</time></trkpt><trkpt lat="43.8838367" lon="11.2644983"><ele>394.0</ele><time>2026-04-11T08:17:14.419Z</time></trkpt><trkpt lat="43.88371" lon="11.26447"><ele>394.0</ele><time>2026-04-11T08:17:15.419Z</time></trkpt><trkpt lat="43.8835967" lon="11.2644517"><ele>394.00000000000006</ele><time>2026-04-11T08:17:16.418Z</time></trkpt><trkpt lat="43.8835" lon="11.264435"><ele>394.0</ele><time>2026-04-11T08:17:17.419Z</time></trkpt><trkpt lat="43.8834133" lon="11.2644133"><ele>394.0</ele><time>2026-04-11T08:17:18.418Z</time></trkpt><trkpt lat="43.88333" lon="11.2643817"><ele>394.0</ele><time>2026-04-11T08:17:19.419Z</time></trkpt><trkpt lat="43.8832483" lon="11.2643383"><ele>394.00000000000006</ele><time>2026-04-11T08:17:20.419Z</time></trkpt><trkpt lat="43.8831717" lon="11.2642933"><ele>394.0</ele><time>2026-04-11T08:17:21.419Z</time></trkpt><trkpt lat="43.88311" lon="11.2642383"><ele>389.2</ele><time>2026-04-11T08:17:22.419Z</time></trkpt><trkpt lat="43.8830517" lon="11.2641917"><ele>384.4</ele><time>2026-04-11T08:17:23.419Z</time></trkpt><trkpt lat="43.8829467" lon="11.26414"><ele>379.6</ele><time>2026-04-11T08:17:25.418Z</time></trkpt><trkpt lat="43.8828183" lon="11.2640967"><ele>374.8</ele><time>2026-04-11T08:17:27.418Z</time></trkpt><trkpt lat="43.8827467" lon="11.2640717"><ele>370.0</ele><time>2026-04-11T08:17:28.419Z</time></trkpt><trkpt lat="43.882675" lon="11.2640383"><ele>370.0</ele><time>2026-04-11T08:17:29.421Z</time></trkpt><trkpt lat="43.8825983" lon="11.2639933"><ele>370.0</ele><time>2026-04-11T08:17:30.419Z</time></trkpt><trkpt lat="43.8825233" lon="11.26395"><ele>370.0</ele><time>2026-04-11T08:17:31.42Z</time></trkpt><trkpt lat="43.88245" lon="11.2638967"><ele>370.0</ele><time>2026-04-11T08:17:32.42Z</time></trkpt><trkpt lat="43.88237" lon="11.2638433"><ele>370.0</ele><time>2026-04-11T08:17:33.419Z</time></trkpt><trkpt lat="43.88229" lon="11.2637917"><ele>370.0</ele><time>2026-04-11T08:17:34.419Z</time></trkpt><trkpt lat="43.8822133" lon="11.2637283"><ele>373.8333333333333</ele><time>2026-04-11T08:17:35.419Z</time></trkpt><trkpt lat="43.8821383" lon="11.26366"><ele>377.66666666666663</ele><time>2026-04-11T08:17:36.418Z</time></trkpt><trkpt lat="43.88207" lon="11.2635933"><ele>381.5</ele><time>2026-04-11T08:17:37.419Z</time></trkpt><trkpt lat="43.8820067" lon="11.2635083"><ele>385.3333333333333</ele><time>2026-04-11T08:17:38.419Z</time></trkpt><trkpt lat="43.881955" lon="11.2634367"><ele>389.1666666666667</ele><time>2026-04-11T08:17:39.42Z</time></trkpt><trkpt lat="43.8818833" lon="11.2633483"><ele>393.0</ele><time>2026-04-11T08:17:40.419Z</time></trkpt><trkpt lat="43.8818233" lon="11.2632733"><ele>392.0</ele><time>2026-04-11T08:17:41.419Z</time></trkpt><trkpt lat="43.881755" lon="11.2631883"><ele>391.0</ele><time>2026-04-11T08:17:42.421Z</time></trkpt><trkpt lat="43.8816833" lon="11.2631233"><ele>390.0</ele><time>2026-04-11T08:17:43.418Z</time></trkpt><trkpt lat="43.8815967" lon="11.2630767"><ele>389.0</ele><time>2026-04-11T08:17:44.419Z</time></trkpt><trkpt lat="43.8814733" lon="11.2630683"><ele>388.0</ele><time>2026-04-11T08:17:45.418Z</time></trkpt><trkpt lat="43.8813583" lon="11.2630467"><ele>388.0</ele><time>2026-04-11T08:17:46.42Z</time></trkpt><trkpt lat="43.8812517" lon="11.26303"><ele>388.0</ele><time>2026-04-11T08:17:47.419Z</time></trkpt><trkpt lat="43.8811583" lon="11.2630133"><ele>388.0</ele><time>2026-04-11T08:17:48.418Z</time></trkpt><trkpt lat="43.8810817" lon="11.2629883"><ele>388.0</ele><time>2026-04-11T08:17:49.419Z</time></trkpt><trkpt lat="43.8809983" lon="11.262935"><ele>388.0</ele><time>2026-04-11T08:17:50.421Z</time></trkpt><trkpt lat="43.8809117" lon="11.26287"><ele>386.79999999999995</ele><time>2026-04-11T08:17:51.419Z</time></trkpt><trkpt lat="43.8808233" lon="11.2628183"><ele>385.6</ele><time>2026-04-11T08:17:52.419Z</time></trkpt><trkpt lat="43.8807217" lon="11.2627917"><ele>384.4</ele><time>2026-04-11T08:17:53.42Z</time></trkpt><trkpt lat="43.8806017" lon="11.26278"><ele>383.20000000000005</ele><time>2026-04-11T08:17:54.419Z</time></trkpt><trkpt lat="43.880485" lon="11.26278"><ele>382.0</ele><time>2026-04-11T08:17:55.419Z</time></trkpt><trkpt lat="43.8803817" lon="11.262775"><ele>382.0</ele><time>2026-04-11T08:17:56.419Z</time></trkpt><trkpt lat="43.8802967" lon="11.2627517"><ele>382.0</ele><time>2026-04-11T08:17:57.419Z</time></trkpt><trkpt lat="43.8802267" lon="11.2627233"><ele>382.0</ele><time>2026-04-11T08:17:58.419Z</time></trkpt><trkpt lat="43.8801333" lon="11.262665"><ele>382.0</ele><time>2026-04-11T08:17:59.419Z</time></trkpt><trkpt lat="43.8800433" lon="11.2626033"><ele>382.0</ele><time>2026-04-11T08:18:00.419Z</time></trkpt><trkpt lat="43.8799583" lon="11.262545"><ele>381.20000000000005</ele><time>2026-04-11T08:18:01.42Z</time></trkpt><trkpt lat="43.879875" lon="11.2624917"><ele>380.4</ele><time>2026-04-11T08:18:02.419Z</time></trkpt><trkpt lat="43.8797867" lon="11.2624467"><ele>379.6</ele><time>2026-04-11T08:18:03.422Z</time></trkpt><trkpt lat="43.8796883" lon="11.2624117"><ele>378.79999999999995</ele><time>2026-04-11T08:18:04.418Z</time></trkpt><trkpt lat="43.8795967" lon="11.2623733"><ele>378.0</ele><time>2026-04-11T08:18:05.418Z</time></trkpt><trkpt lat="43.8795067" lon="11.2623533"><ele>378.0</ele><time>2026-04-11T08:18:06.418Z</time></trkpt><trkpt lat="43.8794133" lon="11.2623383"><ele>378.0</ele><time>2026-04-11T08:18:07.419Z</time></trkpt><trkpt lat="43.8793183" lon="11.2623283"><ele>378.0</ele><time>2026-04-11T08:18:08.419Z</time></trkpt><trkpt lat="43.8792183" lon="11.262315"><ele>378.0</ele><time>2026-04-11T08:18:09.418Z</time></trkpt><trkpt lat="43.8791267" lon="11.262295"><ele>378.0</ele><time>2026-04-11T08:18:10.418Z</time></trkpt><trkpt lat="43.8790417" lon="11.262275"><ele>382.0</ele><time>2026-04-11T08:18:11.419Z</time></trkpt><trkpt lat="43.8789583" lon="11.2622533"><ele>386.0</ele><time>2026-04-11T08:18:12.418Z</time></trkpt><trkpt lat="43.8788767" lon="11.2622317"><ele>390.0</ele><time>2026-04-11T08:18:13.418Z</time></trkpt><trkpt lat="43.878795" lon="11.262205"><ele>394.0</ele><time>2026-04-11T08:18:14.42Z</time></trkpt><trkpt lat="43.8787133" lon="11.262165"><ele>398.0</ele><time>2026-04-11T08:18:15.419Z</time></trkpt><trkpt lat="43.87863" lon="11.2621133"><ele>402.0</ele><time>2026-04-11T08:18:16.419Z</time></trkpt><trkpt lat="43.8785533" lon="11.26206"><ele>402.0</ele><time>2026-04-11T08:18:17.419Z</time></trkpt><trkpt lat="43.8784783" lon="11.2620283"><ele>402.0</ele><time>2026-04-11T08:18:18.419Z</time></trkpt><trkpt lat="43.8784017" lon="11.2619933"><ele>402.0</ele><time>2026-04-11T08:18:19.422Z</time></trkpt><trkpt lat="43.878315" lon="11.2619683"><ele>402.0</ele><time>2026-04-11T08:18:20.418Z</time></trkpt><trkpt lat="43.8782267" lon="11.2619317"><ele>402.0</ele><time>2026-04-11T08:18:21.419Z</time></trkpt><trkpt lat="43.87813" lon="11.2618867"><ele>402.0</ele><time>2026-04-11T08:18:22.418Z</time></trkpt><trkpt lat="43.8780383" lon="11.2618483"><ele>399.6</ele><time>2026-04-11T08:18:23.419Z</time></trkpt><trkpt lat="43.8779433" lon="11.2618133"><ele>397.20000000000005</ele><time>2026-04-11T08:18:24.42Z</time></trkpt><trkpt lat="43.8778433" lon="11.2617917"><ele>394.8</ele><time>2026-04-11T08:18:25.42Z</time></trkpt><trkpt lat="43.8777433" lon="11.2617817"><ele>392.4</ele><time>2026-04-11T08:18:26.42Z</time></trkpt><trkpt lat="43.877635" lon="11.2617767"><ele>390.0</ele><time>2026-04-11T08:18:27.42Z</time></trkpt><trkpt lat="43.8775233" lon="11.2617817"><ele>389.0</ele><time>2026-04-11T08:18:28.419Z</time></trkpt><trkpt lat="43.87741" lon="11.261785"><ele>388.0</ele><time>2026-04-11T08:18:29.419Z</time></trkpt><trkpt lat="43.8772983" lon="11.2617817"><ele>387.0</ele><time>2026-04-11T08:18:30.42Z</time></trkpt><trkpt lat="43.8772" lon="11.261765"><ele>386.0</ele><time>2026-04-11T08:18:31.418Z</time></trkpt><trkpt lat="43.8771067" lon="11.2617517"><ele>385.0</ele><time>2026-04-11T08:18:32.423Z</time></trkpt><trkpt lat="43.8770217" lon="11.2617283"><ele>385.0</ele><time>2026-04-11T08:18:33.418Z</time></trkpt><trkpt lat="43.8769433" lon="11.261705"><ele>385.0</ele><time>2026-04-11T08:18:34.418Z</time></trkpt><trkpt lat="43.8768717" lon="11.2616783"><ele>385.0</ele><time>2026-04-11T08:18:35.419Z</time></trkpt><trkpt lat="43.8767833" lon="11.2616717"><ele>385.0</ele><time>2026-04-11T08:18:36.419Z</time></trkpt><trkpt lat="43.8766867" lon="11.261665"><ele>385.0</ele><time>2026-04-11T08:18:37.419Z</time></trkpt><trkpt lat="43.8765667" lon="11.261675"><ele>385.8</ele><time>2026-04-11T08:18:38.419Z</time></trkpt><trkpt lat="43.876455" lon="11.2616883"><ele>386.6</ele><time>2026-04-11T08:18:39.419Z</time></trkpt><trkpt lat="43.8763483" lon="11.2617067"><ele>387.4</ele><time>2026-04-11T08:18:40.418Z</time></trkpt><trkpt lat="43.8762617" lon="11.2617317"><ele>388.2</ele><time>2026-04-11T08:18:41.419Z</time></trkpt><trkpt lat="43.8761883" lon="11.2617633"><ele>389.0</ele><time>2026-04-11T08:18:42.419Z</time></trkpt><trkpt lat="43.8761067" lon="11.2618317"><ele>389.0</ele><time>2026-04-11T08:18:43.418Z</time></trkpt><trkpt lat="43.8760283" lon="11.261905"><ele>389.0</ele><time>2026-04-11T08:18:44.418Z</time></trkpt><trkpt lat="43.875945" lon="11.2619583"><ele>389.0</ele><time>2026-04-11T08:18:45.417Z</time></trkpt><trkpt lat="43.8758583" lon="11.262"><ele>389.0</ele><time>2026-04-11T08:18:46.418Z</time></trkpt><trkpt lat="43.87578" lon="11.2620367"><ele>389.0</ele><time>2026-04-11T08:18:47.418Z</time></trkpt><trkpt lat="43.8756933" lon="11.2620683"><ele>390.66666666666663</ele><time>2026-04-11T08:18:48.418Z</time></trkpt><trkpt lat="43.8756083" lon="11.2620917"><ele>392.3333333333333</ele><time>2026-04-11T08:18:49.418Z</time></trkpt><trkpt lat="43.8755117" lon="11.2620883"><ele>394.0</ele><time>2026-04-11T08:18:50.418Z</time></trkpt><trkpt lat="43.8754167" lon="11.2620817"><ele>395.66666666666663</ele><time>2026-04-11T08:18:51.418Z</time></trkpt><trkpt lat="43.8753267" lon="11.2620767"><ele>397.3333333333333</ele><time>2026-04-11T08:18:52.42Z</time></trkpt><trkpt lat="43.8752467" lon="11.262075"><ele>399.0</ele><time>2026-04-11T08:18:53.419Z</time></trkpt><trkpt lat="43.8751667" lon="11.2620633"><ele>399.42857142857144</ele><time>2026-04-11T08:18:54.419Z</time></trkpt><trkpt lat="43.8750967" lon="11.2620433"><ele>399.8571428571429</ele><time>2026-04-11T08:18:55.417Z</time></trkpt><trkpt lat="43.8750333" lon="11.262015"><ele>400.2857142857143</ele><time>2026-04-11T08:18:56.419Z</time></trkpt><trkpt lat="43.8749667" lon="11.2619783"><ele>400.7142857142857</ele><time>2026-04-11T08:18:57.419Z</time></trkpt><trkpt lat="43.8749067" lon="11.2619267"><ele>401.14285714285717</ele><time>2026-04-11T08:18:58.418Z</time></trkpt><trkpt lat="43.874855" lon="11.2618567"><ele>401.57142857142856</ele><time>2026-04-11T08:18:59.418Z</time></trkpt><trkpt lat="43.8748017" lon="11.261775"><ele>402.0</ele><time>2026-04-11T08:19:00.417Z</time></trkpt><trkpt lat="43.8747617" lon="11.2616533"><ele>402.0</ele><time>2026-04-11T08:19:01.417Z</time></trkpt><trkpt lat="43.8747083" lon="11.261495"><ele>402.0</ele><time>2026-04-11T08:19:02.418Z</time></trkpt><trkpt lat="43.8746633" lon="11.261335"><ele>402.0</ele><time>2026-04-11T08:19:03.418Z</time></trkpt><trkpt lat="43.8746017" lon="11.26118"><ele>402.0</ele><time>2026-04-11T08:19:04.418Z</time></trkpt><trkpt lat="43.874535" lon="11.2610433"><ele>402.8</ele><time>2026-04-11T08:19:05.419Z</time></trkpt><trkpt lat="43.87447" lon="11.260925"><ele>403.6</ele><time>2026-04-11T08:19:06.418Z</time></trkpt><trkpt lat="43.8744117" lon="11.26082"><ele>404.40000000000003</ele><time>2026-04-11T08:19:07.418Z</time></trkpt><trkpt lat="43.8743617" lon="11.2607367"><ele>405.20000000000005</ele><time>2026-04-11T08:19:08.419Z</time></trkpt><trkpt lat="43.8743067" lon="11.260685"><ele>406.0</ele><time>2026-04-11T08:19:09.418Z</time></trkpt><trkpt lat="43.8741783" lon="11.2607033"><ele>406.00000000000006</ele><time>2026-04-11T08:19:11.418Z</time></trkpt><trkpt lat="43.8741" lon="11.2607733"><ele>406.0</ele><time>2026-04-11T08:19:12.418Z</time></trkpt><trkpt lat="43.87403" lon="11.2608567"><ele>406.0</ele><time>2026-04-11T08:19:13.419Z</time></trkpt><trkpt lat="43.8739683" lon="11.2609217"><ele>406.0</ele><time>2026-04-11T08:19:14.419Z</time></trkpt><trkpt lat="43.8739017" lon="11.2609833"><ele>406.00000000000006</ele><time>2026-04-11T08:19:15.417Z</time></trkpt><trkpt lat="43.8738367" lon="11.26103"><ele>406.0</ele><time>2026-04-11T08:19:16.419Z</time></trkpt><trkpt lat="43.8737783" lon="11.26107"><ele>406.0</ele><time>2026-04-11T08:19:17.418Z</time></trkpt><trkpt lat="43.8737133" lon="11.2610167"><ele>406.0</ele><time>2026-04-11T08:19:19.419Z</time></trkpt><trkpt lat="43.8737017" lon="11.2608933"><ele>406.0</ele><time>2026-04-11T08:19:21.418Z</time></trkpt><trkpt lat="43.87375" lon="11.26075"><ele>406.0</ele><time>2026-04-11T08:19:23.417Z</time></trkpt><trkpt lat="43.87377" lon="11.2606083"><ele>406.0</ele><time>2026-04-11T08:19:25.418Z</time></trkpt><trkpt lat="43.87375" lon="11.2604917"><ele>406.0</ele><time>2026-04-11T08:19:27.42Z</time></trkpt><trkpt lat="43.8736733" lon="11.26043"><ele>406.0</ele><time>2026-04-11T08:19:30.419Z</time></trkpt><trkpt lat="43.87358" lon="11.2605267"><ele>406.0</ele><time>2026-04-11T08:19:32.418Z</time></trkpt><trkpt lat="43.8735067" lon="11.26067"><ele>406.0</ele><time>2026-04-11T08:19:34.419Z</time></trkpt><trkpt lat="43.8734917" lon="11.260765"><ele>406.0</ele><time>2026-04-11T08:19:35.417Z</time></trkpt><trkpt lat="43.8734817" lon="11.2608817"><ele>406.0</ele><time>2026-04-11T08:19:36.419Z</time></trkpt><trkpt lat="43.8734867" lon="11.2610133"><ele>406.0</ele><time>2026-04-11T08:19:37.418Z</time></trkpt><trkpt lat="43.8735133" lon="11.2611567"><ele>406.0</ele><time>2026-04-11T08:19:38.419Z</time></trkpt><trkpt lat="43.8735683" lon="11.2613033"><ele>406.0</ele><time>2026-04-11T08:19:39.418Z</time></trkpt><trkpt lat="43.8736017" lon="11.2614233"><ele>406.0</ele><time>2026-04-11T08:19:40.419Z</time></trkpt><trkpt lat="43.8736383" lon="11.2615133"><ele>405.6</ele><time>2026-04-11T08:19:41.417Z</time></trkpt><trkpt lat="43.873675" lon="11.2616017"><ele>405.20000000000005</ele><time>2026-04-11T08:19:42.418Z</time></trkpt><trkpt lat="43.8737233" lon="11.2617267"><ele>404.79999999999995</ele><time>2026-04-11T08:19:44.419Z</time></trkpt><trkpt lat="43.873755" lon="11.2618333"><ele>404.4</ele><time>2026-04-11T08:19:46.419Z</time></trkpt><trkpt lat="43.8736883" lon="11.26191"><ele>404.0</ele><time>2026-04-11T08:19:49.419Z</time></trkpt><trkpt lat="43.873595" lon="11.2618133"><ele>404.0</ele><time>2026-04-11T08:19:51.418Z</time></trkpt><trkpt lat="43.87354" lon="11.2617433"><ele>404.0</ele><time>2026-04-11T08:19:52.418Z</time></trkpt><trkpt lat="43.873475" lon="11.261635"><ele>404.0</ele><time>2026-04-11T08:19:53.418Z</time></trkpt><trkpt lat="43.873405" lon="11.261525"><ele>404.0</ele><time>2026-04-11T08:19:54.419Z</time></trkpt><trkpt lat="43.8733283" lon="11.2614133"><ele>404.0</ele><time>2026-04-11T08:19:55.419Z</time></trkpt><trkpt lat="43.8732667" lon="11.2613133"><ele>408.79999999999995</ele><time>2026-04-11T08:19:56.42Z</time></trkpt><trkpt lat="43.8732067" lon="11.2612133"><ele>413.59999999999997</ele><time>2026-04-11T08:19:57.418Z</time></trkpt><trkpt lat="43.8731467" lon="11.2610983"><ele>418.4</ele><time>2026-04-11T08:19:58.419Z</time></trkpt><trkpt lat="43.87309" lon="11.2609817"><ele>423.2</ele><time>2026-04-11T08:19:59.419Z</time></trkpt><trkpt lat="43.8730467" lon="11.26088"><ele>428.0</ele><time>2026-04-11T08:20:00.42Z</time></trkpt><trkpt lat="43.8730067" lon="11.2607917"><ele>427.99999999999994</ele><time>2026-04-11T08:20:01.419Z</time></trkpt><trkpt lat="43.8729733" lon="11.2606667"><ele>428.0</ele><time>2026-04-11T08:20:02.418Z</time></trkpt><trkpt lat="43.8729467" lon="11.2605383"><ele>428.0</ele><time>2026-04-11T08:20:03.417Z</time></trkpt><trkpt lat="43.8729267" lon="11.260455"><ele>428.0</ele><time>2026-04-11T08:20:04.419Z</time></trkpt><trkpt lat="43.8728917" lon="11.2603483"><ele>427.99999999999994</ele><time>2026-04-11T08:20:05.418Z</time></trkpt><trkpt lat="43.8728417" lon="11.260215"><ele>428.0</ele><time>2026-04-11T08:20:06.419Z</time></trkpt><trkpt lat="43.87279" lon="11.26007"><ele>428.25</ele><time>2026-04-11T08:20:07.426Z</time></trkpt><trkpt lat="43.8727517" lon="11.2599183"><ele>428.5</ele><time>2026-04-11T08:20:08.419Z</time></trkpt><trkpt lat="43.8727183" lon="11.2597567"><ele>428.75</ele><time>2026-04-11T08:20:09.418Z</time></trkpt><trkpt lat="43.8726817" lon="11.2596"><ele>429.0</ele><time>2026-04-11T08:20:10.418Z</time></trkpt><trkpt lat="43.8726467" lon="11.25945"><ele>430.4</ele><time>2026-04-11T08:20:11.417Z</time></trkpt><trkpt lat="43.87262" lon="11.2593033"><ele>431.79999999999995</ele><time>2026-04-11T08:20:12.417Z</time></trkpt><trkpt lat="43.8725867" lon="11.25918"><ele>433.20000000000005</ele><time>2026-04-11T08:20:13.418Z</time></trkpt><trkpt lat="43.8725517" lon="11.2590683"><ele>434.6</ele><time>2026-04-11T08:20:14.418Z</time></trkpt><trkpt lat="43.8724983" lon="11.25896"><ele>436.0</ele><time>2026-04-11T08:20:15.417Z</time></trkpt><trkpt lat="43.8724683" lon="11.2588417"><ele>440.0</ele><time>2026-04-11T08:20:16.417Z</time></trkpt><trkpt lat="43.8724283" lon="11.2587267"><ele>444.0</ele><time>2026-04-11T08:20:17.418Z</time></trkpt><trkpt lat="43.8723967" lon="11.2585783"><ele>448.0</ele><time>2026-04-11T08:20:18.419Z</time></trkpt><trkpt lat="43.8723683" lon="11.258435"><ele>452.0</ele><time>2026-04-11T08:20:19.417Z</time></trkpt><trkpt lat="43.8723383" lon="11.2583233"><ele>456.0</ele><time>2026-04-11T08:20:20.419Z</time></trkpt><trkpt lat="43.8723017" lon="11.2582267"><ele>456.0</ele><time>2026-04-11T08:20:21.418Z</time></trkpt><trkpt lat="43.872255" lon="11.2581567"><ele>455.99999999999994</ele><time>2026-04-11T08:20:22.418Z</time></trkpt><trkpt lat="43.8722017" lon="11.2580817"><ele>456.0</ele><time>2026-04-11T08:20:23.418Z</time></trkpt><trkpt lat="43.8721417" lon="11.2580167"><ele>456.0</ele><time>2026-04-11T08:20:24.419Z</time></trkpt><trkpt lat="43.872075" lon="11.2579633"><ele>455.99999999999994</ele><time>2026-04-11T08:20:25.418Z</time></trkpt><trkpt lat="43.8720117" lon="11.2579333"><ele>456.0</ele><time>2026-04-11T08:20:26.419Z</time></trkpt><trkpt lat="43.87195" lon="11.2579667"><ele>456.0</ele><time>2026-04-11T08:20:27.419Z</time></trkpt><trkpt lat="43.8718917" lon="11.258005"><ele>456.5</ele><time>2026-04-11T08:20:28.42Z</time></trkpt><trkpt lat="43.871835" lon="11.2580483"><ele>457.0</ele><time>2026-04-11T08:20:29.419Z</time></trkpt><trkpt lat="43.8717767" lon="11.25811"><ele>457.5</ele><time>2026-04-11T08:20:30.419Z</time></trkpt><trkpt lat="43.8717283" lon="11.258205"><ele>458.0</ele><time>2026-04-11T08:20:31.42Z</time></trkpt><trkpt lat="43.871695" lon="11.2582983"><ele>458.5</ele><time>2026-04-11T08:20:32.419Z</time></trkpt><trkpt lat="43.87166" lon="11.2584467"><ele>459.0</ele><time>2026-04-11T08:20:33.418Z</time></trkpt><trkpt lat="43.8716533" lon="11.2585483"><ele>461.4</ele><time>2026-04-11T08:20:34.417Z</time></trkpt><trkpt lat="43.8716117" lon="11.2586767"><ele>463.79999999999995</ele><time>2026-04-11T08:20:36.418Z</time></trkpt><trkpt lat="43.8715317" lon="11.258605"><ele>466.20000000000005</ele><time>2026-04-11T08:20:39.419Z</time></trkpt><trkpt lat="43.8715067" lon="11.2584733"><ele>468.6</ele><time>2026-04-11T08:20:40.42Z</time></trkpt><trkpt lat="43.87149" lon="11.2583467"><ele>471.0</ele><time>2026-04-11T08:20:41.419Z</time></trkpt><trkpt lat="43.8714867" lon="11.25822"><ele>472.6666666666667</ele><time>2026-04-11T08:20:42.418Z</time></trkpt><trkpt lat="43.8714883" lon="11.2581"><ele>474.33333333333337</ele><time>2026-04-11T08:20:43.419Z</time></trkpt><trkpt lat="43.871495" lon="11.2579733"><ele>476.0</ele><time>2026-04-11T08:20:44.419Z</time></trkpt><trkpt lat="43.8715" lon="11.2578433"><ele>477.6666666666667</ele><time>2026-04-11T08:20:45.418Z</time></trkpt><trkpt lat="43.8715133" lon="11.2577117"><ele>479.33333333333337</ele><time>2026-04-11T08:20:46.419Z</time></trkpt><trkpt lat="43.87154" lon="11.2576217"><ele>481.0</ele><time>2026-04-11T08:20:47.419Z</time></trkpt><trkpt lat="43.87156" lon="11.2575333"><ele>481.0</ele><time>2026-04-11T08:20:48.418Z</time></trkpt><trkpt lat="43.87157" lon="11.2574417"><ele>481.0</ele><time>2026-04-11T08:20:49.418Z</time></trkpt><trkpt lat="43.8715733" lon="11.25735"><ele>481.0</ele><time>2026-04-11T08:20:50.419Z</time></trkpt><trkpt lat="43.871555" lon="11.2571817"><ele>481.0</ele><time>2026-04-11T08:20:52.419Z</time></trkpt><trkpt lat="43.8715083" lon="11.257035"><ele>481.0</ele><time>2026-04-11T08:20:54.418Z</time></trkpt><trkpt lat="43.8714517" lon="11.2568833"><ele>483.6</ele><time>2026-04-11T08:20:56.419Z</time></trkpt><trkpt lat="43.8714333" lon="11.25674"><ele>486.20000000000005</ele><time>2026-04-11T08:20:58.419Z</time></trkpt><trkpt lat="43.8714217" lon="11.256605"><ele>488.79999999999995</ele><time>2026-04-11T08:21:00.421Z</time></trkpt><trkpt lat="43.8714017" lon="11.2565183"><ele>491.4</ele><time>2026-04-11T08:21:02.419Z</time></trkpt><trkpt lat="43.8713117" lon="11.256445"><ele>494.0</ele><time>2026-04-11T08:21:05.419Z</time></trkpt><trkpt lat="43.87122" lon="11.2563917"><ele>495.8333333333333</ele><time>2026-04-11T08:21:07.42Z</time></trkpt><trkpt lat="43.8711467" lon="11.25635"><ele>497.66666666666663</ele><time>2026-04-11T08:21:09.417Z</time></trkpt><trkpt lat="43.87107" lon="11.2563433"><ele>499.5</ele><time>2026-04-11T08:21:11.42Z</time></trkpt><trkpt lat="43.8709683" lon="11.2563367"><ele>501.33333333333337</ele><time>2026-04-11T08:21:13.419Z</time></trkpt><trkpt lat="43.870845" lon="11.2563467"><ele>503.1666666666667</ele><time>2026-04-11T08:21:15.418Z</time></trkpt><trkpt lat="43.8707817" lon="11.256355"><ele>505.0</ele><time>2026-04-11T08:21:16.419Z</time></trkpt><trkpt lat="43.870655" lon="11.25636"><ele>503.8</ele><time>2026-04-11T08:21:18.418Z</time></trkpt><trkpt lat="43.8705467" lon="11.2564"><ele>502.6</ele><time>2026-04-11T08:21:20.418Z</time></trkpt><trkpt lat="43.8704667" lon="11.2564833"><ele>501.4</ele><time>2026-04-11T08:21:22.418Z</time></trkpt><trkpt lat="43.870395" lon="11.256575"><ele>500.2</ele><time>2026-04-11T08:21:24.419Z</time></trkpt><trkpt lat="43.8703467" lon="11.2566917"><ele>499.0</ele><time>2026-04-11T08:21:26.418Z</time></trkpt><trkpt lat="43.8702883" lon="11.2567983"><ele>499.0</ele><time>2026-04-11T08:21:28.418Z</time></trkpt><trkpt lat="43.87023" lon="11.2569"><ele>499.0</ele><time>2026-04-11T08:21:30.417Z</time></trkpt><trkpt lat="43.8701633" lon="11.2569783"><ele>499.0</ele><time>2026-04-11T08:21:32.42Z</time></trkpt><trkpt lat="43.8700767" lon="11.257025"><ele>499.0</ele><time>2026-04-11T08:21:34.418Z</time></trkpt><trkpt lat="43.8699767" lon="11.257035"><ele>499.0</ele><time>2026-04-11T08:21:36.42Z</time></trkpt><trkpt lat="43.869865" lon="11.2570267"><ele>499.00000000000006</ele><time>2026-04-11T08:21:38.419Z</time></trkpt><trkpt lat="43.8697383" lon="11.257015"><ele>499.0</ele><time>2026-04-11T08:21:40.418Z</time></trkpt><trkpt lat="43.869665" lon="11.2570167"><ele>499.0</ele><time>2026-04-11T08:21:41.419Z</time></trkpt><trkpt lat="43.8695983" lon="11.257035"><ele>499.0</ele><time>2026-04-11T08:21:42.418Z</time></trkpt><trkpt lat="43.8695233" lon="11.2570617"><ele>499.00000000000006</ele><time>2026-04-11T08:21:43.419Z</time></trkpt><trkpt lat="43.8694583" lon="11.2570817"><ele>499.0</ele><time>2026-04-11T08:21:44.418Z</time></trkpt><trkpt lat="43.86939" lon="11.2570917"><ele>499.00000000000006</ele><time>2026-04-11T08:21:45.418Z</time></trkpt><trkpt lat="43.869315" lon="11.257085"><ele>499.0</ele><time>2026-04-11T08:21:46.419Z</time></trkpt><trkpt lat="43.869245" lon="11.2570767"><ele>499.0</ele><time>2026-04-11T08:21:47.418Z</time></trkpt><trkpt lat="43.86918" lon="11.25707"><ele>499.0</ele><time>2026-04-11T08:21:48.42Z</time></trkpt><trkpt lat="43.8690683" lon="11.25705"><ele>499.00000000000006</ele><time>2026-04-11T08:21:50.418Z</time></trkpt><trkpt lat="43.86899" lon="11.25707"><ele>499.0</ele><time>2026-04-11T08:21:52.42Z</time></trkpt><trkpt lat="43.8689533" lon="11.2571833"><ele>497.50000000000006</ele><time>2026-04-11T08:21:55.42Z</time></trkpt><trkpt lat="43.8688783" lon="11.2571883"><ele>496.0</ele><time>2026-04-11T08:21:58.418Z</time></trkpt><trkpt lat="43.8688117" lon="11.2571417"><ele>494.5</ele><time>2026-04-11T08:22:00.42Z</time></trkpt><trkpt lat="43.8687533" lon="11.2570917"><ele>493.0</ele><time>2026-04-11T08:22:01.419Z</time></trkpt><trkpt lat="43.868695" lon="11.2570517"><ele>491.50000000000006</ele><time>2026-04-11T08:22:02.421Z</time></trkpt><trkpt lat="43.8686233" lon="11.2569817"><ele>490.0</ele><time>2026-04-11T08:22:03.42Z</time></trkpt><trkpt lat="43.8685567" lon="11.2569233"><ele>490.00000000000006</ele><time>2026-04-11T08:22:04.42Z</time></trkpt><trkpt lat="43.8684967" lon="11.2568717"><ele>490.0</ele><time>2026-04-11T08:22:05.42Z</time></trkpt><trkpt lat="43.8684167" lon="11.2568967"><ele>490.0</ele><time>2026-04-11T08:22:07.419Z</time></trkpt><trkpt lat="43.868345" lon="11.256895"><ele>490.0</ele><time>2026-04-11T08:22:08.42Z</time></trkpt><trkpt lat="43.8682567" lon="11.2569667"><ele>490.00000000000006</ele><time>2026-04-11T08:22:10.418Z</time></trkpt><trkpt lat="43.8682233" lon="11.2570533"><ele>490.0</ele><time>2026-04-11T08:22:11.417Z</time></trkpt><trkpt lat="43.8681833" lon="11.2571533"><ele>487.50000000000006</ele><time>2026-04-11T08:22:12.419Z</time></trkpt><trkpt lat="43.8681367" lon="11.2572617"><ele>485.0</ele><time>2026-04-11T08:22:13.419Z</time></trkpt><trkpt lat="43.8680967" lon="11.2573567"><ele>482.5</ele><time>2026-04-11T08:22:14.419Z</time></trkpt><trkpt lat="43.8680433" lon="11.2574517"><ele>480.0</ele><time>2026-04-11T08:22:15.418Z</time></trkpt><trkpt lat="43.867975" lon="11.25756"><ele>477.50000000000006</ele><time>2026-04-11T08:22:16.417Z</time></trkpt><trkpt lat="43.867915" lon="11.257645"><ele>475.0</ele><time>2026-04-11T08:22:17.418Z</time></trkpt><trkpt lat="43.8678633" lon="11.257715"><ele>472.1666666666667</ele><time>2026-04-11T08:22:18.418Z</time></trkpt><trkpt lat="43.8678017" lon="11.2577717"><ele>469.33333333333337</ele><time>2026-04-11T08:22:19.417Z</time></trkpt><trkpt lat="43.86774" lon="11.2578167"><ele>466.5</ele><time>2026-04-11T08:22:20.418Z</time></trkpt><trkpt lat="43.8676167" lon="11.2578217"><ele>463.66666666666663</ele><time>2026-04-11T08:22:22.417Z</time></trkpt><trkpt lat="43.8675017" lon="11.2578183"><ele>460.8333333333333</ele><time>2026-04-11T08:22:24.419Z</time></trkpt><trkpt lat="43.8674367" lon="11.2578217"><ele>458.0</ele><time>2026-04-11T08:22:25.418Z</time></trkpt><trkpt lat="43.86735" lon="11.2578117"><ele>456.99999999999994</ele><time>2026-04-11T08:22:26.42Z</time></trkpt><trkpt lat="43.86727" lon="11.2577967"><ele>456.0</ele><time>2026-04-11T08:22:27.418Z</time></trkpt><trkpt lat="43.867185" lon="11.2577633"><ele>455.0</ele><time>2026-04-11T08:22:28.418Z</time></trkpt><trkpt lat="43.8670867" lon="11.2577217"><ele>454.0</ele><time>2026-04-11T08:22:29.417Z</time></trkpt><trkpt lat="43.86701" lon="11.25767"><ele>452.99999999999994</ele><time>2026-04-11T08:22:30.419Z</time></trkpt><trkpt lat="43.8669283" lon="11.2576117"><ele>452.0</ele><time>2026-04-11T08:22:31.418Z</time></trkpt><trkpt lat="43.86684" lon="11.257565"><ele>449.0</ele><time>2026-04-11T08:22:32.418Z</time></trkpt><trkpt lat="43.8667483" lon="11.25752"><ele>446.00000000000006</ele><time>2026-04-11T08:22:33.418Z</time></trkpt><trkpt lat="43.866645" lon="11.2574783"><ele>443.00000000000006</ele><time>2026-04-11T08:22:34.418Z</time></trkpt><trkpt lat="43.8665583" lon="11.2574667"><ele>440.0</ele><time>2026-04-11T08:22:35.418Z</time></trkpt><trkpt lat="43.86646" lon="11.2574667"><ele>437.0</ele><time>2026-04-11T08:22:36.42Z</time></trkpt><trkpt lat="43.8663833" lon="11.2574617"><ele>437.0</ele><time>2026-04-11T08:22:37.418Z</time></trkpt><trkpt lat="43.8663083" lon="11.2574583"><ele>437.00000000000006</ele><time>2026-04-11T08:22:38.419Z</time></trkpt><trkpt lat="43.86622" lon="11.25745"><ele>437.00000000000006</ele><time>2026-04-11T08:22:39.418Z</time></trkpt><trkpt lat="43.8661233" lon="11.2574367"><ele>437.0</ele><time>2026-04-11T08:22:40.419Z</time></trkpt><trkpt lat="43.8660167" lon="11.25741"><ele>437.0</ele><time>2026-04-11T08:22:41.419Z</time></trkpt><trkpt lat="43.8658967" lon="11.25736"><ele>441.5</ele><time>2026-04-11T08:22:42.418Z</time></trkpt><trkpt lat="43.865755" lon="11.25727"><ele>446.0</ele><time>2026-04-11T08:22:43.419Z</time></trkpt><trkpt lat="43.8656117" lon="11.2571667"><ele>450.5</ele><time>2026-04-11T08:22:44.419Z</time></trkpt><trkpt lat="43.8655117" lon="11.2570717"><ele>455.0</ele><time>2026-04-11T08:22:45.418Z</time></trkpt><trkpt lat="43.8654383" lon="11.257015"><ele>455.0</ele><time>2026-04-11T08:22:46.417Z</time></trkpt><trkpt lat="43.8653517" lon="11.2569867"><ele>455.0</ele><time>2026-04-11T08:22:47.417Z</time></trkpt><trkpt lat="43.8652583" lon="11.2569717"><ele>455.0</ele><time>2026-04-11T08:22:48.418Z</time></trkpt><trkpt lat="43.8651367" lon="11.2569783"><ele>455.0</ele><time>2026-04-11T08:22:49.419Z</time></trkpt><trkpt lat="43.8650267" lon="11.2569817"><ele>455.0</ele><time>2026-04-11T08:22:50.419Z</time></trkpt><trkpt lat="43.864915" lon="11.25698"><ele>453.16666666666663</ele><time>2026-04-11T08:22:51.417Z</time></trkpt><trkpt lat="43.8648133" lon="11.256995"><ele>451.3333333333333</ele><time>2026-04-11T08:22:52.418Z</time></trkpt><trkpt lat="43.8647233" lon="11.257005"><ele>449.5</ele><time>2026-04-11T08:22:53.421Z</time></trkpt><trkpt lat="43.8646417" lon="11.25703"><ele>447.66666666666663</ele><time>2026-04-11T08:22:54.417Z</time></trkpt><trkpt lat="43.864565" lon="11.2570767"><ele>445.8333333333333</ele><time>2026-04-11T08:22:55.417Z</time></trkpt><trkpt lat="43.8644883" lon="11.25713"><ele>444.0</ele><time>2026-04-11T08:22:56.419Z</time></trkpt><trkpt lat="43.8644133" lon="11.257185"><ele>444.0</ele><time>2026-04-11T08:22:57.418Z</time></trkpt><trkpt lat="43.8643583" lon="11.2572367"><ele>444.0</ele><time>2026-04-11T08:22:58.418Z</time></trkpt><trkpt lat="43.8642583" lon="11.25731"><ele>444.0</ele><time>2026-04-11T08:23:00.417Z</time></trkpt><trkpt lat="43.8641533" lon="11.25735"><ele>444.0</ele><time>2026-04-11T08:23:02.417Z</time></trkpt><trkpt lat="43.8640433" lon="11.2574033"><ele>444.0</ele><time>2026-04-11T08:23:04.42Z</time></trkpt><trkpt lat="43.8639383" lon="11.2574633"><ele>441.8333333333333</ele><time>2026-04-11T08:23:06.418Z</time></trkpt><trkpt lat="43.8638633" lon="11.2575233"><ele>439.66666666666663</ele><time>2026-04-11T08:23:08.419Z</time></trkpt><trkpt lat="43.8638367" lon="11.2576033"><ele>437.5</ele><time>2026-04-11T08:23:10.419Z</time></trkpt><trkpt lat="43.8638683" lon="11.257705"><ele>435.3333333333333</ele><time>2026-04-11T08:23:12.419Z</time></trkpt><trkpt lat="43.8639183" lon="11.2578267"><ele>433.16666666666663</ele><time>2026-04-11T08:23:14.42Z</time></trkpt><trkpt lat="43.8639567" lon="11.2579283"><ele>431.0</ele><time>2026-04-11T08:23:16.418Z</time></trkpt><trkpt lat="43.8640183" lon="11.2580817"><ele>434.20000000000005</ele><time>2026-04-11T08:23:18.42Z</time></trkpt><trkpt lat="43.864085" lon="11.258215"><ele>437.40000000000003</ele><time>2026-04-11T08:23:20.418Z</time></trkpt><trkpt lat="43.8641383" lon="11.25832"><ele>440.6</ele><time>2026-04-11T08:23:22.417Z</time></trkpt><trkpt lat="43.8641867" lon="11.2584667"><ele>443.8</ele><time>2026-04-11T08:23:24.419Z</time></trkpt><trkpt lat="43.86419" lon="11.2585783"><ele>447.0</ele><time>2026-04-11T08:23:26.419Z</time></trkpt><trkpt lat="43.864145" lon="11.2586883"><ele>447.0</ele><time>2026-04-11T08:23:30.418Z</time></trkpt><trkpt lat="43.8641" lon="11.2587633"><ele>447.0</ele><time>2026-04-11T08:23:33.418Z</time></trkpt><trkpt lat="43.86398" lon="11.2587583"><ele>447.0</ele><time>2026-04-11T08:23:36.418Z</time></trkpt><trkpt lat="43.8639017" lon="11.25878"><ele>447.0</ele><time>2026-04-11T08:23:37.419Z</time></trkpt><trkpt lat="43.8638283" lon="11.2587933"><ele>447.0</ele><time>2026-04-11T08:23:38.418Z</time></trkpt><trkpt lat="43.8637567" lon="11.258795"><ele>447.0</ele><time>2026-04-11T08:23:39.418Z</time></trkpt><trkpt lat="43.8636817" lon="11.258785"><ele>446.99999999999994</ele><time>2026-04-11T08:23:40.418Z</time></trkpt><trkpt lat="43.8636033" lon="11.2587517"><ele>447.0</ele><time>2026-04-11T08:23:41.419Z</time></trkpt><trkpt lat="43.863535" lon="11.2587217"><ele>447.0</ele><time>2026-04-11T08:23:42.418Z</time></trkpt><trkpt lat="43.8634667" lon="11.2587167"><ele>447.0</ele><time>2026-04-11T08:23:43.418Z</time></trkpt><trkpt lat="43.8633967" lon="11.2587133"><ele>447.0</ele><time>2026-04-11T08:23:44.419Z</time></trkpt><trkpt lat="43.8633283" lon="11.25875"><ele>446.99999999999994</ele><time>2026-04-11T08:23:45.418Z</time></trkpt><trkpt lat="43.863255" lon="11.25879"><ele>447.0</ele><time>2026-04-11T08:23:46.418Z</time></trkpt><trkpt lat="43.8631467" lon="11.2588383"><ele>451.3333333333333</ele><time>2026-04-11T08:23:48.418Z</time></trkpt><trkpt lat="43.8630783" lon="11.2588783"><ele>455.66666666666663</ele><time>2026-04-11T08:23:50.418Z</time></trkpt><trkpt lat="43.8630517" lon="11.2589917"><ele>460.0</ele><time>2026-04-11T08:23:52.418Z</time></trkpt><trkpt lat="43.8630733" lon="11.2590883"><ele>464.3333333333333</ele><time>2026-04-11T08:23:54.419Z</time></trkpt><trkpt lat="43.863185" lon="11.2591567"><ele>468.66666666666663</ele><time>2026-04-11T08:23:56.419Z</time></trkpt><trkpt lat="43.8632567" lon="11.259165"><ele>473.0</ele><time>2026-04-11T08:23:57.418Z</time></trkpt><trkpt lat="43.863355" lon="11.2591967"><ele>476.66666666666663</ele><time>2026-04-11T08:23:59.419Z</time></trkpt><trkpt lat="43.8634267" lon="11.2592317"><ele>480.3333333333333</ele><time>2026-04-11T08:24:01.418Z</time></trkpt><trkpt lat="43.8633683" lon="11.2593217"><ele>484.0</ele><time>2026-04-11T08:24:05.418Z</time></trkpt><trkpt lat="43.8632667" lon="11.2593733"><ele>487.66666666666663</ele><time>2026-04-11T08:24:07.419Z</time></trkpt><trkpt lat="43.86319" lon="11.2594183"><ele>491.3333333333333</ele><time>2026-04-11T08:24:08.419Z</time></trkpt><trkpt lat="43.86311" lon="11.25947"><ele>495.0</ele><time>2026-04-11T08:24:09.42Z</time></trkpt><trkpt lat="43.8630267" lon="11.2594967"><ele>495.0</ele><time>2026-04-11T08:24:10.419Z</time></trkpt><trkpt lat="43.8629317" lon="11.2595033"><ele>495.0</ele><time>2026-04-11T08:24:11.419Z</time></trkpt><trkpt lat="43.86284" lon="11.2595467"><ele>495.0</ele><time>2026-04-11T08:24:12.424Z</time></trkpt><trkpt lat="43.8627367" lon="11.2595933"><ele>495.0</ele><time>2026-04-11T08:24:13.418Z</time></trkpt><trkpt lat="43.8626317" lon="11.2596783"><ele>495.0</ele><time>2026-04-11T08:24:14.419Z</time></trkpt><trkpt lat="43.86253" lon="11.2597617"><ele>500.25</ele><time>2026-04-11T08:24:15.42Z</time></trkpt><trkpt lat="43.8624283" lon="11.2598467"><ele>505.5</ele><time>2026-04-11T08:24:16.419Z</time></trkpt><trkpt lat="43.8623267" lon="11.2599433"><ele>510.75</ele><time>2026-04-11T08:24:17.422Z</time></trkpt><trkpt lat="43.8622317" lon="11.2600467"><ele>516.0</ele><time>2026-04-11T08:24:18.419Z</time></trkpt><trkpt lat="43.8621533" lon="11.260145"><ele>516.0</ele><time>2026-04-11T08:24:19.418Z</time></trkpt><trkpt lat="43.8620917" lon="11.2602417"><ele>516.0</ele><time>2026-04-11T08:24:20.511Z</time></trkpt><trkpt lat="43.8620267" lon="11.2603017"><ele>516.0</ele><time>2026-04-11T08:24:21.419Z</time></trkpt><trkpt lat="43.8619217" lon="11.2604167"><ele>516.0</ele><time>2026-04-11T08:24:23.419Z</time></trkpt><trkpt lat="43.861835" lon="11.26045"><ele>516.0</ele><time>2026-04-11T08:24:24.419Z</time></trkpt><trkpt lat="43.86175" lon="11.2604917"><ele>517.0</ele><time>2026-04-11T08:24:25.42Z</time></trkpt><trkpt lat="43.8616617" lon="11.2605483"><ele>518.0</ele><time>2026-04-11T08:24:26.42Z</time></trkpt><trkpt lat="43.8615783" lon="11.2606"><ele>519.0</ele><time>2026-04-11T08:24:27.418Z</time></trkpt><trkpt lat="43.8615083" lon="11.2606533"><ele>520.0</ele><time>2026-04-11T08:24:28.417Z</time></trkpt><trkpt lat="43.8614433" lon="11.2607033"><ele>521.0</ele><time>2026-04-11T08:24:29.417Z</time></trkpt><trkpt lat="43.8613833" lon="11.2607717"><ele>522.0</ele><time>2026-04-11T08:24:30.417Z</time></trkpt><trkpt lat="43.8613167" lon="11.2608667"><ele>523.8000000000001</ele><time>2026-04-11T08:24:31.418Z</time></trkpt><trkpt lat="43.8612483" lon="11.2609567"><ele>525.6</ele><time>2026-04-11T08:24:32.419Z</time></trkpt><trkpt lat="43.8611717" lon="11.2610717"><ele>527.4000000000001</ele><time>2026-04-11T08:24:33.417Z</time></trkpt><trkpt lat="43.8610867" lon="11.2612"><ele>529.2</ele><time>2026-04-11T08:24:34.418Z</time></trkpt><trkpt lat="43.8609967" lon="11.2612933"><ele>531.0</ele><time>2026-04-11T08:24:35.417Z</time></trkpt><trkpt lat="43.860905" lon="11.2613867"><ele>533.4</ele><time>2026-04-11T08:24:36.417Z</time></trkpt><trkpt lat="43.86081" lon="11.2614867"><ele>535.8</ele><time>2026-04-11T08:24:37.418Z</time></trkpt><trkpt lat="43.8607367" lon="11.2615683"><ele>538.1999999999999</ele><time>2026-04-11T08:24:38.419Z</time></trkpt><trkpt lat="43.8606683" lon="11.261635"><ele>540.6</ele><time>2026-04-11T08:24:39.417Z</time></trkpt><trkpt lat="43.8605917" lon="11.261695"><ele>543.0</ele><time>2026-04-11T08:24:40.418Z</time></trkpt><trkpt lat="43.86053" lon="11.2617667"><ele>543.0</ele><time>2026-04-11T08:24:41.417Z</time></trkpt><trkpt lat="43.8604633" lon="11.2618267"><ele>543.0</ele><time>2026-04-11T08:24:42.417Z</time></trkpt><trkpt lat="43.8604133" lon="11.2618967"><ele>543.0</ele><time>2026-04-11T08:24:43.423Z</time></trkpt><trkpt lat="43.8603617" lon="11.26196"><ele>543.0</ele><time>2026-04-11T08:24:44.42Z</time></trkpt><trkpt lat="43.860305" lon="11.26205"><ele>543.0</ele><time>2026-04-11T08:24:45.417Z</time></trkpt><trkpt lat="43.8602483" lon="11.262165"><ele>543.0</ele><time>2026-04-11T08:24:46.417Z</time></trkpt><trkpt lat="43.86019" lon="11.262315"><ele>544.0</ele><time>2026-04-11T08:24:47.417Z</time></trkpt><trkpt lat="43.860125" lon="11.2624733"><ele>545.0</ele><time>2026-04-11T08:24:48.418Z</time></trkpt><trkpt lat="43.860065" lon="11.2625983"><ele>546.0</ele><time>2026-04-11T08:24:49.418Z</time></trkpt><trkpt lat="43.859995" lon="11.2627183"><ele>547.0</ele><time>2026-04-11T08:24:50.419Z</time></trkpt><trkpt lat="43.8599467" lon="11.2627933"><ele>548.0</ele><time>2026-04-11T08:24:51.418Z</time></trkpt><trkpt lat="43.8598833" lon="11.262875"><ele>548.0</ele><time>2026-04-11T08:24:52.417Z</time></trkpt><trkpt lat="43.859815" lon="11.2629017"><ele>548.0</ele><time>2026-04-11T08:24:53.418Z</time></trkpt><trkpt lat="43.8597417" lon="11.2629233"><ele>548.0</ele><time>2026-04-11T08:24:54.418Z</time></trkpt><trkpt lat="43.8596333" lon="11.2629233"><ele>548.0</ele><time>2026-04-11T08:24:55.42Z</time></trkpt><trkpt lat="43.8595283" lon="11.2629133"><ele>548.0</ele><time>2026-04-11T08:24:56.419Z</time></trkpt><trkpt lat="43.859435" lon="11.2629233"><ele>548.0</ele><time>2026-04-11T08:24:57.418Z</time></trkpt><trkpt lat="43.8593467" lon="11.262945"><ele>548.0</ele><time>2026-04-11T08:24:58.418Z</time></trkpt><trkpt lat="43.8592583" lon="11.2629767"><ele>548.0</ele><time>2026-04-11T08:24:59.417Z</time></trkpt><trkpt lat="43.85916" lon="11.2629883"><ele>548.0</ele><time>2026-04-11T08:25:00.417Z</time></trkpt><trkpt lat="43.85908" lon="11.263"><ele>548.0</ele><time>2026-04-11T08:25:01.418Z</time></trkpt><trkpt lat="43.8590117" lon="11.2629967"><ele>548.0</ele><time>2026-04-11T08:25:02.418Z</time></trkpt><trkpt lat="43.8589117" lon="11.26297"><ele>549.4285714285714</ele><time>2026-04-11T08:25:04.418Z</time></trkpt><trkpt lat="43.8588717" lon="11.2628883"><ele>550.8571428571429</ele><time>2026-04-11T08:25:06.418Z</time></trkpt><trkpt lat="43.8588733" lon="11.2627917"><ele>552.2857142857142</ele><time>2026-04-11T08:25:10.419Z</time></trkpt><trkpt lat="43.858845" lon="11.2626983"><ele>553.7142857142858</ele><time>2026-04-11T08:25:13.419Z</time></trkpt><trkpt lat="43.8589283" lon="11.2626917"><ele>555.1428571428571</ele><time>2026-04-11T08:27:23.419Z</time></trkpt><trkpt lat="43.85892" lon="11.262795"><ele>556.5714285714286</ele><time>2026-04-11T08:27:31.418Z</time></trkpt><trkpt lat="43.8589533" lon="11.2628767"><ele>558.0</ele><time>2026-04-11T08:27:34.418Z</time></trkpt><trkpt lat="43.8590183" lon="11.2629233"><ele>558.0</ele><time>2026-04-11T08:27:36.417Z</time></trkpt><trkpt lat="43.8590617" lon="11.262855"><ele>558.0</ele><time>2026-04-11T08:27:39.419Z</time></trkpt><trkpt lat="43.8591233" lon="11.2627233"><ele>558.0</ele><time>2026-04-11T08:27:49.419Z</time></trkpt><trkpt lat="43.8589039" lon="11.2626403"><ele>558.0</ele><time>2026-04-11T08:28:16.721Z</time></trkpt><trkpt lat="43.858635" lon="11.2620167"><ele>558.0</ele><time>2026-04-11T08:28:42.419Z</time></trkpt><trkpt lat="43.8589117" lon="11.2623"><ele>558.0</ele><time>2026-04-11T08:28:45.418Z</time></trkpt><trkpt lat="43.8589733" lon="11.2625017"><ele>558.0</ele><time>2026-04-11T08:29:02.418Z</time></trkpt><trkpt lat="43.8589063" lon="11.2626154"><ele>558.0</ele><time>2026-04-11T08:29:14.258Z</time></trkpt><trkpt lat="43.8588817" lon="11.2623717"><ele>558.0</ele><time>2026-04-11T08:31:24.418Z</time></trkpt><trkpt lat="43.8589433" lon="11.2624833"><ele>558.0</ele><time>2026-04-11T08:31:32.419Z</time></trkpt><trkpt lat="43.8588883" lon="11.2626217"><ele>558.0</ele><time>2026-04-11T08:31:46.419Z</time></trkpt><trkpt lat="43.8587867" lon="11.2625833"><ele>558.0</ele><time>2026-04-11T08:37:10.42Z</time></trkpt><trkpt lat="43.8587283" lon="11.262625"><ele>558.0</ele><time>2026-04-11T08:38:39.418Z</time></trkpt><trkpt lat="43.8587383" lon="11.2627333"><ele>558.0</ele><time>2026-04-11T08:38:42.419Z</time></trkpt><trkpt lat="43.8587333" lon="11.2628417"><ele>558.0</ele><time>2026-04-11T08:38:46.419Z</time></trkpt><trkpt lat="43.8587617" lon="11.2629967"><ele>558.0</ele><time>2026-04-11T08:39:34.418Z</time></trkpt><trkpt lat="43.8588533" lon="11.26303"><ele>558.0</ele><time>2026-04-11T08:39:38.42Z</time></trkpt><trkpt lat="43.8589583" lon="11.26303"><ele>558.0</ele><time>2026-04-11T08:39:40.42Z</time></trkpt><trkpt lat="43.85907" lon="11.2630183"><ele>558.0</ele><time>2026-04-11T08:39:42.419Z</time></trkpt><trkpt lat="43.8591917" lon="11.2630283"><ele>558.0</ele><time>2026-04-11T08:39:44.419Z</time></trkpt><trkpt lat="43.8592617" lon="11.2630433"><ele>558.0</ele><time>2026-04-11T08:39:45.418Z</time></trkpt><trkpt lat="43.8593383" lon="11.26307"><ele>559.3333333333334</ele><time>2026-04-11T08:39:46.418Z</time></trkpt><trkpt lat="43.8594167" lon="11.2631067"><ele>560.6666666666666</ele><time>2026-04-11T08:39:47.418Z</time></trkpt><trkpt lat="43.8595067" lon="11.26315"><ele>562.0</ele><time>2026-04-11T08:39:48.42Z</time></trkpt><trkpt lat="43.859585" lon="11.26319"><ele>563.3333333333333</ele><time>2026-04-11T08:39:49.419Z</time></trkpt><trkpt lat="43.8596583" lon="11.2632183"><ele>564.6666666666666</ele><time>2026-04-11T08:39:50.421Z</time></trkpt><trkpt lat="43.8597367" lon="11.26325"><ele>566.0</ele><time>2026-04-11T08:39:51.419Z</time></trkpt><trkpt lat="43.8598233" lon="11.2632683"><ele>566.0</ele><time>2026-04-11T08:39:52.419Z</time></trkpt><trkpt lat="43.859915" lon="11.26327"><ele>566.0</ele><time>2026-04-11T08:39:53.419Z</time></trkpt><trkpt lat="43.860005" lon="11.2632533"><ele>566.0</ele><time>2026-04-11T08:39:54.419Z</time></trkpt><trkpt lat="43.8600983" lon="11.2632233"><ele>566.0</ele><time>2026-04-11T08:39:55.513Z</time></trkpt><trkpt lat="43.8602" lon="11.26316"><ele>566.0</ele><time>2026-04-11T08:39:56.419Z</time></trkpt><trkpt lat="43.8603017" lon="11.2630967"><ele>564.0</ele><time>2026-04-11T08:39:57.418Z</time></trkpt><trkpt lat="43.8603917" lon="11.2630317"><ele>562.0</ele><time>2026-04-11T08:39:58.419Z</time></trkpt><trkpt lat="43.8604733" lon="11.2629683"><ele>560.0</ele><time>2026-04-11T08:39:59.418Z</time></trkpt><trkpt lat="43.8605517" lon="11.262915"><ele>558.0</ele><time>2026-04-11T08:40:00.419Z</time></trkpt><trkpt lat="43.86063" lon="11.262855"><ele>556.0</ele><time>2026-04-11T08:40:01.419Z</time></trkpt><trkpt lat="43.8607033" lon="11.2627983"><ele>556.0</ele><time>2026-04-11T08:40:02.419Z</time></trkpt><trkpt lat="43.8607717" lon="11.2627467"><ele>556.0</ele><time>2026-04-11T08:40:03.418Z</time></trkpt><trkpt lat="43.8608283" lon="11.262705"><ele>556.0</ele><time>2026-04-11T08:40:04.419Z</time></trkpt><trkpt lat="43.86093" lon="11.2626367"><ele>556.0</ele><time>2026-04-11T08:40:06.419Z</time></trkpt><trkpt lat="43.8610083" lon="11.2626033"><ele>556.0</ele><time>2026-04-11T08:40:08.419Z</time></trkpt><trkpt lat="43.861085" lon="11.2625883"><ele>556.0</ele><time>2026-04-11T08:40:10.418Z</time></trkpt><trkpt lat="43.8611733" lon="11.2625567"><ele>556.5</ele><time>2026-04-11T08:40:12.418Z</time></trkpt><trkpt lat="43.861285" lon="11.2625417"><ele>557.0</ele><time>2026-04-11T08:40:14.421Z</time></trkpt><trkpt lat="43.8613583" lon="11.2625483"><ele>557.5</ele><time>2026-04-11T08:40:15.419Z</time></trkpt><trkpt lat="43.8614283" lon="11.26256"><ele>558.0</ele><time>2026-04-11T08:40:16.422Z</time></trkpt><trkpt lat="43.8614983" lon="11.2625767"><ele>558.5</ele><time>2026-04-11T08:40:17.419Z</time></trkpt><trkpt lat="43.8615717" lon="11.2626017"><ele>559.0</ele><time>2026-04-11T08:40:18.419Z</time></trkpt><trkpt lat="43.8616333" lon="11.2626283"><ele>559.0</ele><time>2026-04-11T08:40:19.42Z</time></trkpt><trkpt lat="43.8616933" lon="11.26266"><ele>559.0</ele><time>2026-04-11T08:40:20.42Z</time></trkpt><trkpt lat="43.86179" lon="11.2627333"><ele>559.0</ele><time>2026-04-11T08:40:22.419Z</time></trkpt><trkpt lat="43.8618817" lon="11.2628217"><ele>559.0</ele><time>2026-04-11T08:40:24.419Z</time></trkpt><trkpt lat="43.8619583" lon="11.2629233"><ele>559.0</ele><time>2026-04-11T08:40:26.42Z</time></trkpt><trkpt lat="43.86201" lon="11.2629983"><ele>558.25</ele><time>2026-04-11T08:40:27.419Z</time></trkpt><trkpt lat="43.86207" lon="11.263085"><ele>557.5</ele><time>2026-04-11T08:40:28.419Z</time></trkpt><trkpt lat="43.862135" lon="11.2632117"><ele>556.75</ele><time>2026-04-11T08:40:29.42Z</time></trkpt><trkpt lat="43.8622133" lon="11.2633667"><ele>556.0</ele><time>2026-04-11T08:40:30.419Z</time></trkpt><trkpt lat="43.862285" lon="11.2635083"><ele>556.0</ele><time>2026-04-11T08:40:31.418Z</time></trkpt><trkpt lat="43.86235" lon="11.26366"><ele>556.0</ele><time>2026-04-11T08:40:32.419Z</time></trkpt><trkpt lat="43.862405" lon="11.2637767"><ele>556.0</ele><time>2026-04-11T08:40:33.419Z</time></trkpt><trkpt lat="43.86245" lon="11.2638867"><ele>556.0</ele><time>2026-04-11T08:40:34.419Z</time></trkpt><trkpt lat="43.8624767" lon="11.2639783"><ele>556.0</ele><time>2026-04-11T08:40:35.418Z</time></trkpt><trkpt lat="43.8624567" lon="11.2641367"><ele>557.1666666666667</ele><time>2026-04-11T08:40:37.419Z</time></trkpt><trkpt lat="43.8624117" lon="11.2642067"><ele>558.3333333333334</ele><time>2026-04-11T08:40:38.418Z</time></trkpt><trkpt lat="43.86236" lon="11.2642617"><ele>559.5</ele><time>2026-04-11T08:40:39.419Z</time></trkpt><trkpt lat="43.8623083" lon="11.2643233"><ele>560.6666666666666</ele><time>2026-04-11T08:40:40.419Z</time></trkpt><trkpt lat="43.8622667" lon="11.2643933"><ele>561.8333333333333</ele><time>2026-04-11T08:40:41.418Z</time></trkpt><trkpt lat="43.862255" lon="11.264565"><ele>563.0</ele><time>2026-04-11T08:40:43.418Z</time></trkpt><trkpt lat="43.8622717" lon="11.2646867"><ele>564.75</ele><time>2026-04-11T08:40:44.419Z</time></trkpt><trkpt lat="43.8623267" lon="11.2648683"><ele>566.5</ele><time>2026-04-11T08:40:45.418Z</time></trkpt><trkpt lat="43.8623767" lon="11.26505"><ele>568.25</ele><time>2026-04-11T08:40:46.419Z</time></trkpt><trkpt lat="43.862425" lon="11.26524"><ele>570.0</ele><time>2026-04-11T08:40:47.421Z</time></trkpt><trkpt lat="43.8624667" lon="11.2654133"><ele>570.0</ele><time>2026-04-11T08:40:48.419Z</time></trkpt><trkpt lat="43.86251" lon="11.26554"><ele>570.0</ele><time>2026-04-11T08:40:49.418Z</time></trkpt><trkpt lat="43.8625683" lon="11.2656433"><ele>570.0</ele><time>2026-04-11T08:40:50.419Z</time></trkpt><trkpt lat="43.862645" lon="11.2657317"><ele>570.0</ele><time>2026-04-11T08:40:51.419Z</time></trkpt><trkpt lat="43.8627367" lon="11.2658217"><ele>570.0</ele><time>2026-04-11T08:40:52.419Z</time></trkpt><trkpt lat="43.862815" lon="11.265895"><ele>570.1666666666666</ele><time>2026-04-11T08:40:53.421Z</time></trkpt><trkpt lat="43.8628783" lon="11.2659617"><ele>570.3333333333334</ele><time>2026-04-11T08:40:54.418Z</time></trkpt><trkpt lat="43.8629333" lon="11.2660183"><ele>570.5</ele><time>2026-04-11T08:40:55.419Z</time></trkpt><trkpt lat="43.8629717" lon="11.2661533"><ele>570.6666666666667</ele><time>2026-04-11T08:40:57.418Z</time></trkpt><trkpt lat="43.8629533" lon="11.2662517"><ele>570.8333333333334</ele><time>2026-04-11T08:40:58.423Z</time></trkpt><trkpt lat="43.862915" lon="11.2663767"><ele>571.0</ele><time>2026-04-11T08:40:59.42Z</time></trkpt><trkpt lat="43.862855" lon="11.26652"><ele>570.2</ele><time>2026-04-11T08:41:00.418Z</time></trkpt><trkpt lat="43.8627967" lon="11.2666667"><ele>569.4000000000001</ele><time>2026-04-11T08:41:01.419Z</time></trkpt><trkpt lat="43.862745" lon="11.2667967"><ele>568.6</ele><time>2026-04-11T08:41:02.42Z</time></trkpt><trkpt lat="43.8627" lon="11.266925"><ele>567.8000000000001</ele><time>2026-04-11T08:41:03.419Z</time></trkpt><trkpt lat="43.8626683" lon="11.2670433"><ele>567.0</ele><time>2026-04-11T08:41:04.42Z</time></trkpt><trkpt lat="43.8626467" lon="11.26716"><ele>567.0</ele><time>2026-04-11T08:41:05.419Z</time></trkpt><trkpt lat="43.8626317" lon="11.2672783"><ele>567.0</ele><time>2026-04-11T08:41:06.419Z</time></trkpt><trkpt lat="43.8626317" lon="11.2673933"><ele>567.0</ele><time>2026-04-11T08:41:07.418Z</time></trkpt><trkpt lat="43.8626533" lon="11.2674933"><ele>567.0</ele><time>2026-04-11T08:41:08.418Z</time></trkpt><trkpt lat="43.8626983" lon="11.2675833"><ele>567.0</ele><time>2026-04-11T08:41:09.418Z</time></trkpt><trkpt lat="43.862775" lon="11.2676533"><ele>567.0</ele><time>2026-04-11T08:41:10.418Z</time></trkpt><trkpt lat="43.86287" lon="11.2676933"><ele>567.0</ele><time>2026-04-11T08:41:11.418Z</time></trkpt><trkpt lat="43.8629317" lon="11.2677433"><ele>567.0</ele><time>2026-04-11T08:41:12.418Z</time></trkpt><trkpt lat="43.8630217" lon="11.2678133"><ele>567.0</ele><time>2026-04-11T08:41:14.42Z</time></trkpt><trkpt lat="43.86299" lon="11.26794"><ele>567.0</ele><time>2026-04-11T08:41:16.419Z</time></trkpt><trkpt lat="43.862945" lon="11.2680217"><ele>567.0</ele><time>2026-04-11T08:41:17.419Z</time></trkpt><trkpt lat="43.862895" lon="11.2681283"><ele>567.0</ele><time>2026-04-11T08:41:18.419Z</time></trkpt><trkpt lat="43.8628433" lon="11.2682533"><ele>568.0</ele><time>2026-04-11T08:41:19.424Z</time></trkpt><trkpt lat="43.8628" lon="11.2684017"><ele>569.0</ele><time>2026-04-11T08:41:20.42Z</time></trkpt><trkpt lat="43.8627733" lon="11.2685717"><ele>570.0</ele><time>2026-04-11T08:41:21.419Z</time></trkpt><trkpt lat="43.8627467" lon="11.268735"><ele>571.0</ele><time>2026-04-11T08:41:22.418Z</time></trkpt><trkpt lat="43.8627383" lon="11.2689283"><ele>570.5</ele><time>2026-04-11T08:41:23.419Z</time></trkpt><trkpt lat="43.8627467" lon="11.2690917"><ele>570.0</ele><time>2026-04-11T08:41:24.419Z</time></trkpt><trkpt lat="43.8627667" lon="11.269255"><ele>569.5</ele><time>2026-04-11T08:41:25.419Z</time></trkpt><trkpt lat="43.86281" lon="11.269405"><ele>569.0</ele><time>2026-04-11T08:41:26.419Z</time></trkpt><trkpt lat="43.8628583" lon="11.2695567"><ele>569.0</ele><time>2026-04-11T08:41:27.419Z</time></trkpt><trkpt lat="43.86292" lon="11.2696867"><ele>569.0</ele><time>2026-04-11T08:41:28.418Z</time></trkpt><trkpt lat="43.8629867" lon="11.2698017"><ele>569.0</ele><time>2026-04-11T08:41:29.422Z</time></trkpt><trkpt lat="43.863035" lon="11.269905"><ele>569.0</ele><time>2026-04-11T08:41:30.418Z</time></trkpt><trkpt lat="43.8630667" lon="11.270025"><ele>569.0</ele><time>2026-04-11T08:41:31.419Z</time></trkpt><trkpt lat="43.8630967" lon="11.2701633"><ele>570.5</ele><time>2026-04-11T08:41:32.419Z</time></trkpt><trkpt lat="43.8631183" lon="11.27029"><ele>572.0</ele><time>2026-04-11T08:41:33.418Z</time></trkpt><trkpt lat="43.8631467" lon="11.2704017"><ele>573.5</ele><time>2026-04-11T08:41:34.418Z</time></trkpt><trkpt lat="43.8631667" lon="11.2705"><ele>575.0</ele><time>2026-04-11T08:41:35.419Z</time></trkpt><trkpt lat="43.86319" lon="11.270585"><ele>576.5</ele><time>2026-04-11T08:41:36.421Z</time></trkpt><trkpt lat="43.8632433" lon="11.2706617"><ele>578.0</ele><time>2026-04-11T08:41:37.419Z</time></trkpt><trkpt lat="43.863305" lon="11.2707283"><ele>578.1666666666666</ele><time>2026-04-11T08:41:38.419Z</time></trkpt><trkpt lat="43.86338" lon="11.27078"><ele>578.3333333333333</ele><time>2026-04-11T08:41:39.418Z</time></trkpt><trkpt lat="43.8634533" lon="11.270835"><ele>578.5</ele><time>2026-04-11T08:41:40.419Z</time></trkpt><trkpt lat="43.8635283" lon="11.270895"><ele>578.6666666666666</ele><time>2026-04-11T08:41:41.419Z</time></trkpt><trkpt lat="43.8635967" lon="11.2709667"><ele>578.8333333333334</ele><time>2026-04-11T08:41:42.418Z</time></trkpt><trkpt lat="43.86366" lon="11.2710267"><ele>579.0</ele><time>2026-04-11T08:41:43.419Z</time></trkpt><trkpt lat="43.8637317" lon="11.2710983"><ele>579.0</ele><time>2026-04-11T08:41:44.418Z</time></trkpt><trkpt lat="43.8638017" lon="11.27117"><ele>579.0</ele><time>2026-04-11T08:41:45.419Z</time></trkpt><trkpt lat="43.8638817" lon="11.2712517"><ele>579.0</ele><time>2026-04-11T08:41:46.419Z</time></trkpt><trkpt lat="43.8639633" lon="11.2713117"><ele>579.0</ele><time>2026-04-11T08:41:47.42Z</time></trkpt><trkpt lat="43.864035" lon="11.2713583"><ele>579.0</ele><time>2026-04-11T08:41:48.419Z</time></trkpt><trkpt lat="43.8641033" lon="11.2713983"><ele>579.0</ele><time>2026-04-11T08:41:49.42Z</time></trkpt><trkpt lat="43.8641917" lon="11.271435"><ele>579.0</ele><time>2026-04-11T08:41:50.419Z</time></trkpt><trkpt lat="43.8642983" lon="11.27147"><ele>579.0</ele><time>2026-04-11T08:41:51.418Z</time></trkpt><trkpt lat="43.8644117" lon="11.2715017"><ele>579.0</ele><time>2026-04-11T08:41:52.419Z</time></trkpt><trkpt lat="43.86451" lon="11.27153"><ele>579.0</ele><time>2026-04-11T08:41:53.426Z</time></trkpt><trkpt lat="43.86461" lon="11.2715533"><ele>579.0</ele><time>2026-04-11T08:41:54.418Z</time></trkpt><trkpt lat="43.8647133" lon="11.2715767"><ele>579.0</ele><time>2026-04-11T08:41:55.419Z</time></trkpt><trkpt lat="43.864825" lon="11.2715983"><ele>579.0</ele><time>2026-04-11T08:41:56.418Z</time></trkpt><trkpt lat="43.8649467" lon="11.27163"><ele>579.0</ele><time>2026-04-11T08:41:57.419Z</time></trkpt><trkpt lat="43.8650683" lon="11.2716883"><ele>579.0</ele><time>2026-04-11T08:41:58.419Z</time></trkpt><trkpt lat="43.8652183" lon="11.2717633"><ele>574.3333333333334</ele><time>2026-04-11T08:41:59.42Z</time></trkpt><trkpt lat="43.86537" lon="11.2718683"><ele>569.6666666666667</ele><time>2026-04-11T08:42:00.42Z</time></trkpt><trkpt lat="43.865535" lon="11.272005"><ele>565.0</ele><time>2026-04-11T08:42:01.419Z</time></trkpt><trkpt lat="43.8657067" lon="11.272155"><ele>566.0</ele><time>2026-04-11T08:42:02.42Z</time></trkpt><trkpt lat="43.865875" lon="11.2722983"><ele>567.0</ele><time>2026-04-11T08:42:03.418Z</time></trkpt><trkpt lat="43.86603" lon="11.2724217"><ele>568.0</ele><time>2026-04-11T08:42:04.418Z</time></trkpt><trkpt lat="43.8661867" lon="11.2725433"><ele>566.0</ele><time>2026-04-11T08:42:05.419Z</time></trkpt><trkpt lat="43.866345" lon="11.2726667"><ele>564.0</ele><time>2026-04-11T08:42:06.418Z</time></trkpt><trkpt lat="43.8665033" lon="11.27279"><ele>562.0</ele><time>2026-04-11T08:42:07.421Z</time></trkpt><trkpt lat="43.8666467" lon="11.2728967"><ele>561.0</ele><time>2026-04-11T08:42:08.419Z</time></trkpt><trkpt lat="43.8667867" lon="11.272995"><ele>560.0</ele><time>2026-04-11T08:42:09.418Z</time></trkpt><trkpt lat="43.86693" lon="11.273085"><ele>559.0</ele><time>2026-04-11T08:42:10.42Z</time></trkpt><trkpt lat="43.86708" lon="11.27315"><ele>560.6</ele><time>2026-04-11T08:42:11.419Z</time></trkpt><trkpt lat="43.8672167" lon="11.2731867"><ele>562.2</ele><time>2026-04-11T08:42:12.419Z</time></trkpt><trkpt lat="43.867335" lon="11.2732083"><ele>563.8000000000001</ele><time>2026-04-11T08:42:13.421Z</time></trkpt><trkpt lat="43.8674333" lon="11.2732217"><ele>565.4</ele><time>2026-04-11T08:42:14.419Z</time></trkpt><trkpt lat="43.8675183" lon="11.2732283"><ele>567.0</ele><time>2026-04-11T08:42:15.419Z</time></trkpt><trkpt lat="43.8675967" lon="11.2732217"><ele>566.8333333333334</ele><time>2026-04-11T08:42:16.418Z</time></trkpt><trkpt lat="43.8677033" lon="11.2732"><ele>566.6666666666666</ele><time>2026-04-11T08:42:18.419Z</time></trkpt><trkpt lat="43.86777" lon="11.2731933"><ele>566.5</ele><time>2026-04-11T08:42:20.419Z</time></trkpt><trkpt lat="43.8678383" lon="11.2731583"><ele>566.3333333333333</ele><time>2026-04-11T08:42:22.418Z</time></trkpt><trkpt lat="43.8678833" lon="11.273085"><ele>566.1666666666666</ele><time>2026-04-11T08:42:24.419Z</time></trkpt><trkpt lat="43.86793" lon="11.2729767"><ele>566.0</ele><time>2026-04-11T08:42:27.419Z</time></trkpt><trkpt lat="43.8679733" lon="11.2728983"><ele>566.0</ele><time>2026-04-11T08:42:30.42Z</time></trkpt><trkpt lat="43.868005" lon="11.2728183"><ele>566.0</ele><time>2026-04-11T08:42:33.419Z</time></trkpt><trkpt lat="43.86805" lon="11.2727267"><ele>566.0</ele><time>2026-04-11T08:42:36.42Z</time></trkpt><trkpt lat="43.8680967" lon="11.27264"><ele>566.0</ele><time>2026-04-11T08:42:38.421Z</time></trkpt><trkpt lat="43.8681583" lon="11.272535"><ele>566.0</ele><time>2026-04-11T08:42:40.419Z</time></trkpt><trkpt lat="43.8682217" lon="11.2724183"><ele>566.0</ele><time>2026-04-11T08:42:42.417Z</time></trkpt><trkpt lat="43.8682817" lon="11.2722983"><ele>564.6</ele><time>2026-04-11T08:42:44.419Z</time></trkpt><trkpt lat="43.868345" lon="11.2721683"><ele>563.2</ele><time>2026-04-11T08:42:46.418Z</time></trkpt><trkpt lat="43.868415" lon="11.27205"><ele>561.8</ele><time>2026-04-11T08:42:48.418Z</time></trkpt><trkpt lat="43.8684867" lon="11.2719233"><ele>560.4</ele><time>2026-04-11T08:42:50.418Z</time></trkpt><trkpt lat="43.8685283" lon="11.2718533"><ele>559.0</ele><time>2026-04-11T08:42:51.42Z</time></trkpt><trkpt lat="43.868575" lon="11.2717783"><ele>559.0</ele><time>2026-04-11T08:42:52.419Z</time></trkpt><trkpt lat="43.86863" lon="11.2717067"><ele>559.0</ele><time>2026-04-11T08:42:53.419Z</time></trkpt><trkpt lat="43.8686783" lon="11.27164"><ele>559.0</ele><time>2026-04-11T08:42:54.419Z</time></trkpt><trkpt lat="43.8687317" lon="11.2715683"><ele>559.0</ele><time>2026-04-11T08:42:55.42Z</time></trkpt><trkpt lat="43.868785" lon="11.2714917"><ele>559.0</ele><time>2026-04-11T08:42:56.418Z</time></trkpt><trkpt lat="43.868845" lon="11.2714133"><ele>559.0</ele><time>2026-04-11T08:42:57.419Z</time></trkpt><trkpt lat="43.8689083" lon="11.2713417"><ele>557.2</ele><time>2026-04-11T08:42:58.419Z</time></trkpt><trkpt lat="43.8689767" lon="11.271265"><ele>555.4</ele><time>2026-04-11T08:42:59.418Z</time></trkpt><trkpt lat="43.8690483" lon="11.271175"><ele>553.6</ele><time>2026-04-11T08:43:00.42Z</time></trkpt><trkpt lat="43.8691217" lon="11.27108"><ele>551.8</ele><time>2026-04-11T08:43:01.419Z</time></trkpt><trkpt lat="43.8692033" lon="11.27098"><ele>550.0</ele><time>2026-04-11T08:43:02.419Z</time></trkpt><trkpt lat="43.8692917" lon="11.2708783"><ele>550.0</ele><time>2026-04-11T08:43:03.418Z</time></trkpt><trkpt lat="43.869375" lon="11.270775"><ele>550.0</ele><time>2026-04-11T08:43:04.419Z</time></trkpt><trkpt lat="43.86946" lon="11.2706667"><ele>550.0</ele><time>2026-04-11T08:43:05.419Z</time></trkpt><trkpt lat="43.86954" lon="11.2705667"><ele>550.0</ele><time>2026-04-11T08:43:06.418Z</time></trkpt><trkpt lat="43.86962" lon="11.2704633"><ele>550.0</ele><time>2026-04-11T08:43:07.419Z</time></trkpt><trkpt lat="43.869695" lon="11.2703667"><ele>547.8333333333334</ele><time>2026-04-11T08:43:08.42Z</time></trkpt><trkpt lat="43.8697617" lon="11.27028"><ele>545.6666666666667</ele><time>2026-04-11T08:43:09.418Z</time></trkpt><trkpt lat="43.8698267" lon="11.2701983"><ele>543.5</ele><time>2026-04-11T08:43:10.419Z</time></trkpt><trkpt lat="43.869895" lon="11.27014"><ele>541.3333333333334</ele><time>2026-04-11T08:43:11.419Z</time></trkpt><trkpt lat="43.869965" lon="11.2700967"><ele>539.1666666666666</ele><time>2026-04-11T08:43:12.418Z</time></trkpt><trkpt lat="43.8700267" lon="11.2700483"><ele>537.0</ele><time>2026-04-11T08:43:13.418Z</time></trkpt><trkpt lat="43.8700883" lon="11.2700017"><ele>536.0</ele><time>2026-04-11T08:43:14.418Z</time></trkpt><trkpt lat="43.8701583" lon="11.2699533"><ele>535.0</ele><time>2026-04-11T08:43:15.419Z</time></trkpt><trkpt lat="43.87023" lon="11.2699067"><ele>534.0</ele><time>2026-04-11T08:43:16.418Z</time></trkpt><trkpt lat="43.870295" lon="11.26986"><ele>533.0</ele><time>2026-04-11T08:43:17.418Z</time></trkpt><trkpt lat="43.8703933" lon="11.2697767"><ele>532.0</ele><time>2026-04-11T08:43:19.419Z</time></trkpt><trkpt lat="43.8704967" lon="11.2697017"><ele>530.0</ele><time>2026-04-11T08:43:21.418Z</time></trkpt><trkpt lat="43.8705933" lon="11.2696617"><ele>528.0</ele><time>2026-04-11T08:43:23.419Z</time></trkpt><trkpt lat="43.8706833" lon="11.2696467"><ele>526.0</ele><time>2026-04-11T08:43:25.419Z</time></trkpt><trkpt lat="43.8707867" lon="11.26968"><ele>524.0</ele><time>2026-04-11T08:43:27.418Z</time></trkpt><trkpt lat="43.87088" lon="11.2697583"><ele>522.0</ele><time>2026-04-11T08:43:29.421Z</time></trkpt><trkpt lat="43.8709533" lon="11.269875"><ele>519.1666666666666</ele><time>2026-04-11T08:43:31.419Z</time></trkpt><trkpt lat="43.87099" lon="11.2699483"><ele>516.3333333333334</ele><time>2026-04-11T08:43:32.419Z</time></trkpt><trkpt lat="43.8710233" lon="11.27003"><ele>513.5</ele><time>2026-04-11T08:43:33.419Z</time></trkpt><trkpt lat="43.871055" lon="11.2701217"><ele>510.6666666666667</ele><time>2026-04-11T08:43:34.419Z</time></trkpt><trkpt lat="43.8710883" lon="11.270215"><ele>507.83333333333337</ele><time>2026-04-11T08:43:35.419Z</time></trkpt><trkpt lat="43.8711467" lon="11.27038"><ele>505.0</ele><time>2026-04-11T08:43:37.42Z</time></trkpt><trkpt lat="43.8711933" lon="11.2705317"><ele>505.33333333333337</ele><time>2026-04-11T08:43:39.418Z</time></trkpt><trkpt lat="43.8712117" lon="11.2707"><ele>505.6666666666667</ele><time>2026-04-11T08:43:41.419Z</time></trkpt><trkpt lat="43.8712" lon="11.270795"><ele>506.0</ele><time>2026-04-11T08:43:42.419Z</time></trkpt><trkpt lat="43.8711817" lon="11.2708833"><ele>506.33333333333337</ele><time>2026-04-11T08:43:43.419Z</time></trkpt><trkpt lat="43.8711567" lon="11.27099"><ele>506.6666666666667</ele><time>2026-04-11T08:43:44.421Z</time></trkpt><trkpt lat="43.87114" lon="11.27109"><ele>507.0</ele><time>2026-04-11T08:43:45.418Z</time></trkpt><trkpt lat="43.8711217" lon="11.2712"><ele>507.0</ele><time>2026-04-11T08:43:46.418Z</time></trkpt><trkpt lat="43.8711067" lon="11.271295"><ele>507.0</ele><time>2026-04-11T08:43:47.418Z</time></trkpt><trkpt lat="43.8710983" lon="11.27141"><ele>507.0</ele><time>2026-04-11T08:43:48.418Z</time></trkpt><trkpt lat="43.8710867" lon="11.2715283"><ele>507.0</ele><time>2026-04-11T08:43:49.419Z</time></trkpt><trkpt lat="43.8710767" lon="11.27164"><ele>507.0</ele><time>2026-04-11T08:43:50.418Z</time></trkpt><trkpt lat="43.8710717" lon="11.2717383"><ele>507.0</ele><time>2026-04-11T08:43:51.418Z</time></trkpt><trkpt lat="43.8710683" lon="11.27183"><ele>507.5</ele><time>2026-04-11T08:43:52.42Z</time></trkpt><trkpt lat="43.8710683" lon="11.27196"><ele>508.0</ele><time>2026-04-11T08:43:54.418Z</time></trkpt><trkpt lat="43.8710667" lon="11.27205"><ele>508.5</ele><time>2026-04-11T08:43:56.419Z</time></trkpt><trkpt lat="43.8710683" lon="11.27216"><ele>509.0</ele><time>2026-04-11T08:43:58.419Z</time></trkpt><trkpt lat="43.8710617" lon="11.272345"><ele>509.5</ele><time>2026-04-11T08:44:04.419Z</time></trkpt><trkpt lat="43.871125" lon="11.2723783"><ele>510.0</ele><time>2026-04-11T08:44:14.419Z</time></trkpt><trkpt lat="43.871215" lon="11.2723333"><ele>510.0</ele><time>2026-04-11T08:44:29.418Z</time></trkpt><trkpt lat="43.871275" lon="11.2722483"><ele>510.0</ele><time>2026-04-11T08:44:31.418Z</time></trkpt><trkpt lat="43.8713433" lon="11.2721483"><ele>510.0</ele><time>2026-04-11T08:44:33.418Z</time></trkpt><trkpt lat="43.8713933" lon="11.2720517"><ele>510.0</ele><time>2026-04-11T08:44:35.418Z</time></trkpt><trkpt lat="43.8714317" lon="11.2719683"><ele>510.0</ele><time>2026-04-11T08:44:37.419Z</time></trkpt><trkpt lat="43.8714817" lon="11.27189"><ele>510.0</ele><time>2026-04-11T08:44:39.419Z</time></trkpt><trkpt lat="43.87152" lon="11.2718067"><ele>510.0</ele><time>2026-04-11T08:44:42.418Z</time></trkpt><trkpt lat="43.8715767" lon="11.2717417"><ele>510.0</ele><time>2026-04-11T08:44:45.419Z</time></trkpt><trkpt lat="43.87163" lon="11.271675"><ele>510.0</ele><time>2026-04-11T08:44:48.418Z</time></trkpt><trkpt lat="43.8716733" lon="11.27158"><ele>510.0</ele><time>2026-04-11T08:44:51.419Z</time></trkpt><trkpt lat="43.8717183" lon="11.271475"><ele>510.0</ele><time>2026-04-11T08:44:54.418Z</time></trkpt><trkpt lat="43.871775" lon="11.2714067"><ele>510.0</ele><time>2026-04-11T08:44:56.418Z</time></trkpt><trkpt lat="43.87181" lon="11.2712817"><ele>509.5</ele><time>2026-04-11T08:44:59.42Z</time></trkpt><trkpt lat="43.8718217" lon="11.2711433"><ele>509.0</ele><time>2026-04-11T08:45:02.421Z</time></trkpt><trkpt lat="43.8718367" lon="11.2710433"><ele>508.5</ele><time>2026-04-11T08:45:04.419Z</time></trkpt><trkpt lat="43.8718883" lon="11.2709433"><ele>508.0</ele><time>2026-04-11T08:45:07.418Z</time></trkpt><trkpt lat="43.8719583" lon="11.2708167"><ele>507.5</ele><time>2026-04-11T08:45:09.419Z</time></trkpt><trkpt lat="43.8719967" lon="11.2707333"><ele>507.0</ele><time>2026-04-11T08:45:10.418Z</time></trkpt><trkpt lat="43.872025" lon="11.270555"><ele>505.5</ele><time>2026-04-11T08:45:12.418Z</time></trkpt><trkpt lat="43.8720667" lon="11.2704617"><ele>504.0</ele><time>2026-04-11T08:45:13.418Z</time></trkpt><trkpt lat="43.872095" lon="11.2703667"><ele>502.5</ele><time>2026-04-11T08:45:14.42Z</time></trkpt><trkpt lat="43.872115" lon="11.2702717"><ele>501.0</ele><time>2026-04-11T08:45:15.418Z</time></trkpt><trkpt lat="43.8721417" lon="11.2701633"><ele>499.5</ele><time>2026-04-11T08:45:16.418Z</time></trkpt><trkpt lat="43.8721517" lon="11.2700667"><ele>498.0</ele><time>2026-04-11T08:45:17.423Z</time></trkpt><trkpt lat="43.8721533" lon="11.269955"><ele>498.0</ele><time>2026-04-11T08:45:18.419Z</time></trkpt><trkpt lat="43.872165" lon="11.26984"><ele>498.0</ele><time>2026-04-11T08:45:19.419Z</time></trkpt><trkpt lat="43.8721767" lon="11.269745"><ele>498.0</ele><time>2026-04-11T08:45:20.418Z</time></trkpt><trkpt lat="43.8721967" lon="11.2696517"><ele>498.0</ele><time>2026-04-11T08:45:21.419Z</time></trkpt><trkpt lat="43.8722133" lon="11.2695617"><ele>498.0</ele><time>2026-04-11T08:45:22.419Z</time></trkpt><trkpt lat="43.872275" lon="11.2694167"><ele>498.0</ele><time>2026-04-11T08:45:24.418Z</time></trkpt><trkpt lat="43.8723417" lon="11.2692733"><ele>496.8333333333333</ele><time>2026-04-11T08:45:26.419Z</time></trkpt><trkpt lat="43.8724183" lon="11.2691333"><ele>495.66666666666663</ele><time>2026-04-11T08:45:28.418Z</time></trkpt><trkpt lat="43.8724583" lon="11.2690567"><ele>494.5</ele><time>2026-04-11T08:45:29.418Z</time></trkpt><trkpt lat="43.8725" lon="11.26898"><ele>493.3333333333333</ele><time>2026-04-11T08:45:30.418Z</time></trkpt><trkpt lat="43.8725417" lon="11.2689017"><ele>492.16666666666663</ele><time>2026-04-11T08:45:31.418Z</time></trkpt><trkpt lat="43.87259" lon="11.2688233"><ele>491.0</ele><time>2026-04-11T08:45:32.42Z</time></trkpt><trkpt lat="43.8726433" lon="11.268745"><ele>490.99999999999994</ele><time>2026-04-11T08:45:33.419Z</time></trkpt><trkpt lat="43.8727017" lon="11.268675"><ele>491.0</ele><time>2026-04-11T08:45:34.418Z</time></trkpt><trkpt lat="43.8727667" lon="11.2686083"><ele>491.0</ele><time>2026-04-11T08:45:35.419Z</time></trkpt><trkpt lat="43.8728467" lon="11.26854"><ele>491.0</ele><time>2026-04-11T08:45:36.419Z</time></trkpt><trkpt lat="43.8729267" lon="11.26848"><ele>490.99999999999994</ele><time>2026-04-11T08:45:37.418Z</time></trkpt><trkpt lat="43.8730033" lon="11.2684317"><ele>491.0</ele><time>2026-04-11T08:45:38.419Z</time></trkpt><trkpt lat="43.8730967" lon="11.2683767"><ele>491.0</ele><time>2026-04-11T08:45:39.418Z</time></trkpt><trkpt lat="43.8731883" lon="11.2683217"><ele>491.0</ele><time>2026-04-11T08:45:40.42Z</time></trkpt><trkpt lat="43.8732783" lon="11.2682583"><ele>491.0</ele><time>2026-04-11T08:45:41.418Z</time></trkpt><trkpt lat="43.8733617" lon="11.2681983"><ele>491.0</ele><time>2026-04-11T08:45:42.418Z</time></trkpt><trkpt lat="43.8734333" lon="11.26814"><ele>491.0</ele><time>2026-04-11T08:45:43.419Z</time></trkpt><trkpt lat="43.8735067" lon="11.2680817"><ele>490.0</ele><time>2026-04-11T08:45:44.419Z</time></trkpt><trkpt lat="43.8735683" lon="11.268035"><ele>488.99999999999994</ele><time>2026-04-11T08:45:45.419Z</time></trkpt><trkpt lat="43.87363" lon="11.2679867"><ele>488.0</ele><time>2026-04-11T08:45:46.418Z</time></trkpt><trkpt lat="43.8736933" lon="11.2679483"><ele>487.0</ele><time>2026-04-11T08:45:47.418Z</time></trkpt><trkpt lat="43.8737617" lon="11.2679183"><ele>485.99999999999994</ele><time>2026-04-11T08:45:48.419Z</time></trkpt><trkpt lat="43.8738367" lon="11.267895"><ele>485.0</ele><time>2026-04-11T08:45:49.418Z</time></trkpt><trkpt lat="43.8739183" lon="11.2678767"><ele>484.0</ele><time>2026-04-11T08:45:50.419Z</time></trkpt><trkpt lat="43.8740533" lon="11.2678483"><ele>484.00000000000006</ele><time>2026-04-11T08:45:52.418Z</time></trkpt><trkpt lat="43.8741317" lon="11.2678367"><ele>484.0</ele><time>2026-04-11T08:45:53.419Z</time></trkpt><trkpt lat="43.8742183" lon="11.2678183"><ele>484.0</ele><time>2026-04-11T08:45:54.418Z</time></trkpt><trkpt lat="43.8743033" lon="11.2677883"><ele>484.0</ele><time>2026-04-11T08:45:55.42Z</time></trkpt><trkpt lat="43.874395" lon="11.2677533"><ele>484.00000000000006</ele><time>2026-04-11T08:45:56.419Z</time></trkpt><trkpt lat="43.8744817" lon="11.2677183"><ele>484.0</ele><time>2026-04-11T08:45:57.418Z</time></trkpt><trkpt lat="43.8745583" lon="11.2676817"><ele>484.1666666666667</ele><time>2026-04-11T08:45:58.418Z</time></trkpt><trkpt lat="43.87465" lon="11.2676483"><ele>484.33333333333337</ele><time>2026-04-11T08:45:59.418Z</time></trkpt><trkpt lat="43.874745" lon="11.2676117"><ele>484.5</ele><time>2026-04-11T08:46:00.418Z</time></trkpt><trkpt lat="43.8748383" lon="11.2675767"><ele>484.66666666666663</ele><time>2026-04-11T08:46:01.419Z</time></trkpt><trkpt lat="43.8749167" lon="11.26754"><ele>484.8333333333333</ele><time>2026-04-11T08:46:02.421Z</time></trkpt><trkpt lat="43.8749833" lon="11.2675067"><ele>485.0</ele><time>2026-04-11T08:46:03.418Z</time></trkpt><trkpt lat="43.875045" lon="11.2674683"><ele>484.49999999999994</ele><time>2026-04-11T08:46:04.419Z</time></trkpt><trkpt lat="43.875105" lon="11.26743"><ele>484.0</ele><time>2026-04-11T08:46:05.419Z</time></trkpt><trkpt lat="43.875165" lon="11.2673867"><ele>483.5</ele><time>2026-04-11T08:46:06.419Z</time></trkpt><trkpt lat="43.8752217" lon="11.2673483"><ele>483.0</ele><time>2026-04-11T08:46:07.42Z</time></trkpt><trkpt lat="43.8753083" lon="11.2672867"><ele>482.49999999999994</ele><time>2026-04-11T08:46:09.418Z</time></trkpt><trkpt lat="43.8753917" lon="11.2672433"><ele>482.0</ele><time>2026-04-11T08:46:11.421Z</time></trkpt><trkpt lat="43.875455" lon="11.2672083"><ele>479.0</ele><time>2026-04-11T08:46:13.419Z</time></trkpt><trkpt lat="43.8755167" lon="11.2671567"><ele>476.00000000000006</ele><time>2026-04-11T08:46:15.418Z</time></trkpt><trkpt lat="43.875565" lon="11.267045"><ele>473.00000000000006</ele><time>2026-04-11T08:46:17.418Z</time></trkpt><trkpt lat="43.875595" lon="11.26687"><ele>470.0</ele><time>2026-04-11T08:46:19.419Z</time></trkpt><trkpt lat="43.8756133" lon="11.26678"><ele>467.0</ele><time>2026-04-11T08:46:20.419Z</time></trkpt><trkpt lat="43.8756583" lon="11.266645"><ele>466.99999999999994</ele><time>2026-04-11T08:46:22.418Z</time></trkpt><trkpt lat="43.8757217" lon="11.2666033"><ele>467.0</ele><time>2026-04-11T08:46:25.419Z</time></trkpt><trkpt lat="43.875805" lon="11.2666233"><ele>467.0</ele><time>2026-04-11T08:46:27.419Z</time></trkpt><trkpt lat="43.8758833" lon="11.2666717"><ele>467.0</ele><time>2026-04-11T08:46:29.42Z</time></trkpt><trkpt lat="43.8759683" lon="11.2667383"><ele>466.99999999999994</ele><time>2026-04-11T08:46:31.419Z</time></trkpt><trkpt lat="43.8760383" lon="11.2667817"><ele>467.0</ele><time>2026-04-11T08:46:32.419Z</time></trkpt><trkpt lat="43.8761083" lon="11.2668267"><ele>465.49999999999994</ele><time>2026-04-11T08:46:33.42Z</time></trkpt><trkpt lat="43.8761817" lon="11.2668633"><ele>464.0</ele><time>2026-04-11T08:46:34.418Z</time></trkpt><trkpt lat="43.8762417" lon="11.2668983"><ele>462.5</ele><time>2026-04-11T08:46:35.42Z</time></trkpt><trkpt lat="43.8763117" lon="11.26694"><ele>461.0</ele><time>2026-04-11T08:46:36.418Z</time></trkpt><trkpt lat="43.8763733" lon="11.26698"><ele>459.49999999999994</ele><time>2026-04-11T08:46:37.421Z</time></trkpt><trkpt lat="43.876435" lon="11.267015"><ele>458.0</ele><time>2026-04-11T08:46:38.419Z</time></trkpt><trkpt lat="43.8765517" lon="11.2670433"><ele>458.0</ele><time>2026-04-11T08:46:40.419Z</time></trkpt><trkpt lat="43.8766233" lon="11.2670433"><ele>458.0</ele><time>2026-04-11T08:46:41.418Z</time></trkpt><trkpt lat="43.8766867" lon="11.2670417"><ele>458.0</ele><time>2026-04-11T08:46:42.419Z</time></trkpt><trkpt lat="43.87677" lon="11.26704"><ele>458.0</ele><time>2026-04-11T08:46:43.418Z</time></trkpt><trkpt lat="43.87685" lon="11.2670317"><ele>458.0</ele><time>2026-04-11T08:46:44.419Z</time></trkpt><trkpt lat="43.8769183" lon="11.267035"><ele>458.0</ele><time>2026-04-11T08:46:45.42Z</time></trkpt><trkpt lat="43.87698" lon="11.2670567"><ele>458.0</ele><time>2026-04-11T08:46:46.418Z</time></trkpt><trkpt lat="43.8770933" lon="11.2671083"><ele>456.66666666666663</ele><time>2026-04-11T08:46:48.419Z</time></trkpt><trkpt lat="43.8771967" lon="11.2671383"><ele>455.3333333333333</ele><time>2026-04-11T08:46:50.42Z</time></trkpt><trkpt lat="43.8772867" lon="11.2671667"><ele>454.0</ele><time>2026-04-11T08:46:52.418Z</time></trkpt><trkpt lat="43.8773583" lon="11.26717"><ele>452.66666666666663</ele><time>2026-04-11T08:46:53.42Z</time></trkpt><trkpt lat="43.8774583" lon="11.2671783"><ele>451.3333333333333</ele><time>2026-04-11T08:46:55.417Z</time></trkpt><trkpt lat="43.877535" lon="11.2671783"><ele>450.0</ele><time>2026-04-11T08:46:57.42Z</time></trkpt><trkpt lat="43.8776633" lon="11.2671933"><ele>450.5</ele><time>2026-04-11T08:47:59.419Z</time></trkpt><trkpt lat="43.8777417" lon="11.2672417"><ele>451.0</ele><time>2026-04-11T08:48:02.42Z</time></trkpt><trkpt lat="43.8778217" lon="11.2672617"><ele>451.5</ele><time>2026-04-11T08:48:04.419Z</time></trkpt><trkpt lat="43.87789" lon="11.2672917"><ele>452.0</ele><time>2026-04-11T08:48:06.418Z</time></trkpt><trkpt lat="43.8779617" lon="11.2673333"><ele>452.5</ele><time>2026-04-11T08:48:08.419Z</time></trkpt><trkpt lat="43.8780383" lon="11.2673967"><ele>453.0</ele><time>2026-04-11T08:48:10.419Z</time></trkpt><trkpt lat="43.87814" lon="11.2674383"><ele>453.0</ele><time>2026-04-11T08:48:12.418Z</time></trkpt><trkpt lat="43.8782317" lon="11.26745"><ele>452.99999999999994</ele><time>2026-04-11T08:48:14.419Z</time></trkpt><trkpt lat="43.8783183" lon="11.267465"><ele>452.99999999999994</ele><time>2026-04-11T08:48:16.421Z</time></trkpt><trkpt lat="43.87841" lon="11.26748"><ele>453.0</ele><time>2026-04-11T08:48:18.418Z</time></trkpt><trkpt lat="43.8785033" lon="11.2674833"><ele>453.0</ele><time>2026-04-11T08:48:20.419Z</time></trkpt><trkpt lat="43.8785917" lon="11.2674667"><ele>451.2</ele><time>2026-04-11T08:48:22.418Z</time></trkpt><trkpt lat="43.8786717" lon="11.267415"><ele>449.4</ele><time>2026-04-11T08:48:24.417Z</time></trkpt><trkpt lat="43.8787433" lon="11.2673517"><ele>447.59999999999997</ele><time>2026-04-11T08:48:26.419Z</time></trkpt><trkpt lat="43.8788" lon="11.267305"><ele>445.79999999999995</ele><time>2026-04-11T08:48:27.42Z</time></trkpt><trkpt lat="43.8789167" lon="11.2672117"><ele>444.0</ele><time>2026-04-11T08:48:29.42Z</time></trkpt><trkpt lat="43.878985" lon="11.2671517"><ele>442.0</ele><time>2026-04-11T08:48:30.419Z</time></trkpt><trkpt lat="43.87905" lon="11.2670767"><ele>440.0</ele><time>2026-04-11T08:48:31.42Z</time></trkpt><trkpt lat="43.8791117" lon="11.266995"><ele>438.0</ele><time>2026-04-11T08:48:32.418Z</time></trkpt><trkpt lat="43.879175" lon="11.2669083"><ele>436.0</ele><time>2026-04-11T08:48:33.419Z</time></trkpt><trkpt lat="43.8792333" lon="11.2668167"><ele>434.0</ele><time>2026-04-11T08:48:34.418Z</time></trkpt><trkpt lat="43.8792917" lon="11.2667333"><ele>432.0</ele><time>2026-04-11T08:48:35.419Z</time></trkpt><trkpt lat="43.8793583" lon="11.2666467"><ele>431.8333333333333</ele><time>2026-04-11T08:48:36.418Z</time></trkpt><trkpt lat="43.879415" lon="11.2665783"><ele>431.66666666666663</ele><time>2026-04-11T08:48:37.419Z</time></trkpt><trkpt lat="43.879475" lon="11.2665267"><ele>431.5</ele><time>2026-04-11T08:48:38.419Z</time></trkpt><trkpt lat="43.8795367" lon="11.2664883"><ele>431.3333333333333</ele><time>2026-04-11T08:48:39.419Z</time></trkpt><trkpt lat="43.8796517" lon="11.2664467"><ele>431.16666666666663</ele><time>2026-04-11T08:48:41.418Z</time></trkpt><trkpt lat="43.879765" lon="11.2664117"><ele>431.0</ele><time>2026-04-11T08:48:43.418Z</time></trkpt><trkpt lat="43.8798933" lon="11.266385"><ele>429.16666666666663</ele><time>2026-04-11T08:48:45.419Z</time></trkpt><trkpt lat="43.879965" lon="11.2663717"><ele>427.3333333333333</ele><time>2026-04-11T08:48:46.419Z</time></trkpt><trkpt lat="43.88004" lon="11.2663733"><ele>425.5</ele><time>2026-04-11T08:48:47.418Z</time></trkpt><trkpt lat="43.880105" lon="11.2663767"><ele>423.66666666666663</ele><time>2026-04-11T08:48:48.419Z</time></trkpt><trkpt lat="43.88017" lon="11.2663833"><ele>421.8333333333333</ele><time>2026-04-11T08:48:49.418Z</time></trkpt><trkpt lat="43.8802733" lon="11.2663733"><ele>420.0</ele><time>2026-04-11T08:48:51.419Z</time></trkpt><trkpt lat="43.8803783" lon="11.2663083"><ele>419.3333333333333</ele><time>2026-04-11T08:48:53.419Z</time></trkpt><trkpt lat="43.8804817" lon="11.2662383"><ele>418.66666666666663</ele><time>2026-04-11T08:48:55.418Z</time></trkpt><trkpt lat="43.8805517" lon="11.2661883"><ele>418.0</ele><time>2026-04-11T08:48:57.419Z</time></trkpt><trkpt lat="43.8806367" lon="11.266155"><ele>417.3333333333333</ele><time>2026-04-11T08:48:59.419Z</time></trkpt><trkpt lat="43.88071" lon="11.266165"><ele>416.66666666666663</ele><time>2026-04-11T08:49:01.418Z</time></trkpt><trkpt lat="43.8807883" lon="11.266225"><ele>416.0</ele><time>2026-04-11T08:49:03.419Z</time></trkpt><trkpt lat="43.880895" lon="11.2663117"><ele>414.6</ele><time>2026-04-11T08:49:05.419Z</time></trkpt><trkpt lat="43.8810017" lon="11.2663433"><ele>413.20000000000005</ele><time>2026-04-11T08:49:07.419Z</time></trkpt><trkpt lat="43.8811367" lon="11.26632"><ele>411.79999999999995</ele><time>2026-04-11T08:49:09.418Z</time></trkpt><trkpt lat="43.8812083" lon="11.2663033"><ele>410.4</ele><time>2026-04-11T08:49:10.418Z</time></trkpt><trkpt lat="43.8813067" lon="11.2662883"><ele>409.0</ele><time>2026-04-11T08:49:11.418Z</time></trkpt><trkpt lat="43.881405" lon="11.2662667"><ele>409.0</ele><time>2026-04-11T08:49:12.418Z</time></trkpt><trkpt lat="43.8814933" lon="11.2662417"><ele>409.0</ele><time>2026-04-11T08:49:13.419Z</time></trkpt><trkpt lat="43.8815667" lon="11.2662233"><ele>409.0</ele><time>2026-04-11T08:49:14.419Z</time></trkpt><trkpt lat="43.88164" lon="11.2662133"><ele>409.0</ele><time>2026-04-11T08:49:15.418Z</time></trkpt><trkpt lat="43.881705" lon="11.266215"><ele>409.0</ele><time>2026-04-11T08:49:16.419Z</time></trkpt><trkpt lat="43.8817733" lon="11.2662317"><ele>409.0</ele><time>2026-04-11T08:49:17.419Z</time></trkpt><trkpt lat="43.8818317" lon="11.2662717"><ele>409.0</ele><time>2026-04-11T08:49:18.419Z</time></trkpt><trkpt lat="43.8819267" lon="11.2663833"><ele>410.2</ele><time>2026-04-11T08:49:20.418Z</time></trkpt><trkpt lat="43.8819833" lon="11.2664283"><ele>411.4</ele><time>2026-04-11T08:49:21.419Z</time></trkpt><trkpt lat="43.8820733" lon="11.2665183"><ele>412.6</ele><time>2026-04-11T08:49:23.419Z</time></trkpt><trkpt lat="43.8821583" lon="11.2666067"><ele>413.8</ele><time>2026-04-11T08:49:25.418Z</time></trkpt><trkpt lat="43.8822583" lon="11.26668"><ele>415.0</ele><time>2026-04-11T08:49:27.418Z</time></trkpt><trkpt lat="43.882385" lon="11.2667117"><ele>415.00000000000006</ele><time>2026-04-11T08:49:29.419Z</time></trkpt><trkpt lat="43.882455" lon="11.2667133"><ele>415.0</ele><time>2026-04-11T08:49:30.418Z</time></trkpt><trkpt lat="43.88252" lon="11.266715"><ele>415.0</ele><time>2026-04-11T08:49:31.418Z</time></trkpt><trkpt lat="43.882585" lon="11.2667117"><ele>415.0</ele><time>2026-04-11T08:49:32.419Z</time></trkpt><trkpt lat="43.882685" lon="11.2666583"><ele>415.00000000000006</ele><time>2026-04-11T08:49:34.419Z</time></trkpt><trkpt lat="43.8827767" lon="11.26658"><ele>415.0</ele><time>2026-04-11T08:49:36.422Z</time></trkpt><trkpt lat="43.8828367" lon="11.266545"><ele>412.4</ele><time>2026-04-11T08:49:37.417Z</time></trkpt><trkpt lat="43.8829483" lon="11.266495"><ele>409.8</ele><time>2026-04-11T08:49:39.419Z</time></trkpt><trkpt lat="43.8830683" lon="11.266465"><ele>407.20000000000005</ele><time>2026-04-11T08:49:41.419Z</time></trkpt><trkpt lat="43.8831517" lon="11.2664567"><ele>404.6</ele><time>2026-04-11T08:49:42.418Z</time></trkpt><trkpt lat="43.8832217" lon="11.26645"><ele>402.0</ele><time>2026-04-11T08:49:43.421Z</time></trkpt><trkpt lat="43.8832917" lon="11.2664467"><ele>402.0</ele><time>2026-04-11T08:49:44.418Z</time></trkpt><trkpt lat="43.883355" lon="11.2664517"><ele>402.0</ele><time>2026-04-11T08:49:45.417Z</time></trkpt><trkpt lat="43.88342" lon="11.2664667"><ele>402.0</ele><time>2026-04-11T08:49:46.418Z</time></trkpt><trkpt lat="43.8835033" lon="11.2664783"><ele>402.0</ele><time>2026-04-11T08:49:47.419Z</time></trkpt><trkpt lat="43.8835867" lon="11.26649"><ele>402.0</ele><time>2026-04-11T08:49:48.418Z</time></trkpt><trkpt lat="43.88367" lon="11.2664983"><ele>402.0</ele><time>2026-04-11T08:49:49.42Z</time></trkpt><trkpt lat="43.883755" lon="11.26652"><ele>400.1666666666667</ele><time>2026-04-11T08:49:50.419Z</time></trkpt><trkpt lat="43.8838183" lon="11.2665333"><ele>398.33333333333337</ele><time>2026-04-11T08:49:51.418Z</time></trkpt><trkpt lat="43.8838967" lon="11.2665483"><ele>396.5</ele><time>2026-04-11T08:49:52.42Z</time></trkpt><trkpt lat="43.88397" lon="11.2665717"><ele>394.6666666666667</ele><time>2026-04-11T08:49:53.419Z</time></trkpt><trkpt lat="43.8840417" lon="11.2665983"><ele>392.83333333333337</ele><time>2026-04-11T08:49:54.418Z</time></trkpt><trkpt lat="43.8841267" lon="11.2666283"><ele>391.0</ele><time>2026-04-11T08:49:55.42Z</time></trkpt><trkpt lat="43.8842183" lon="11.2666583"><ele>388.0</ele><time>2026-04-11T08:49:56.419Z</time></trkpt><trkpt lat="43.8843017" lon="11.26669"><ele>385.0</ele><time>2026-04-11T08:49:57.418Z</time></trkpt><trkpt lat="43.8843783" lon="11.2667233"><ele>382.0</ele><time>2026-04-11T08:49:58.419Z</time></trkpt><trkpt lat="43.88444" lon="11.2667567"><ele>379.0</ele><time>2026-04-11T08:49:59.418Z</time></trkpt><trkpt lat="43.8845533" lon="11.2668167"><ele>376.0</ele><time>2026-04-11T08:50:01.418Z</time></trkpt><trkpt lat="43.884675" lon="11.2668633"><ele>376.0</ele><time>2026-04-11T08:50:03.419Z</time></trkpt><trkpt lat="43.8847583" lon="11.2668467"><ele>376.0</ele><time>2026-04-11T08:50:05.418Z</time></trkpt><trkpt lat="43.8848267" lon="11.2667833"><ele>376.0</ele><time>2026-04-11T08:50:07.419Z</time></trkpt><trkpt lat="43.8848467" lon="11.26667"><ele>376.0</ele><time>2026-04-11T08:50:10.419Z</time></trkpt><trkpt lat="43.8847783" lon="11.26651"><ele>376.0</ele><time>2026-04-11T08:50:12.419Z</time></trkpt><trkpt lat="43.8847183" lon="11.2663967"><ele>371.5</ele><time>2026-04-11T08:50:13.419Z</time></trkpt><trkpt lat="43.88466" lon="11.26629"><ele>367.0</ele><time>2026-04-11T08:50:14.418Z</time></trkpt><trkpt lat="43.884565" lon="11.2661617"><ele>362.5</ele><time>2026-04-11T08:50:15.419Z</time></trkpt><trkpt lat="43.8844633" lon="11.2660817"><ele>358.0</ele><time>2026-04-11T08:50:16.417Z</time></trkpt><trkpt lat="43.8843583" lon="11.2659767"><ele>358.0</ele><time>2026-04-11T08:50:17.419Z</time></trkpt><trkpt lat="43.8842717" lon="11.2659"><ele>358.0</ele><time>2026-04-11T08:50:18.42Z</time></trkpt><trkpt lat="43.8842117" lon="11.265845"><ele>358.0</ele><time>2026-04-11T08:50:19.419Z</time></trkpt><trkpt lat="43.8841567" lon="11.2657817"><ele>358.0</ele><time>2026-04-11T08:50:20.42Z</time></trkpt><trkpt lat="43.884085" lon="11.2656833"><ele>358.0</ele><time>2026-04-11T08:50:22.418Z</time></trkpt><trkpt lat="43.8840567" lon="11.265595"><ele>358.0</ele><time>2026-04-11T08:50:24.42Z</time></trkpt><trkpt lat="43.884125" lon="11.2655067"><ele>358.25</ele><time>2026-04-11T08:50:26.42Z</time></trkpt><trkpt lat="43.8842583" lon="11.2654733"><ele>358.5</ele><time>2026-04-11T08:50:28.418Z</time></trkpt><trkpt lat="43.8843633" lon="11.2654867"><ele>358.75</ele><time>2026-04-11T08:50:29.418Z</time></trkpt><trkpt lat="43.8845067" lon="11.2655183"><ele>359.0</ele><time>2026-04-11T08:50:30.419Z</time></trkpt><trkpt lat="43.8846567" lon="11.2655533"><ele>359.2</ele><time>2026-04-11T08:50:31.419Z</time></trkpt><trkpt lat="43.884765" lon="11.2655817"><ele>359.4</ele><time>2026-04-11T08:50:32.419Z</time></trkpt><trkpt lat="43.8848667" lon="11.26562"><ele>359.6</ele><time>2026-04-11T08:50:33.418Z</time></trkpt><trkpt lat="43.8849583" lon="11.26567"><ele>359.8</ele><time>2026-04-11T08:50:34.417Z</time></trkpt><trkpt lat="43.8850533" lon="11.2657033"><ele>360.0</ele><time>2026-04-11T08:50:35.419Z</time></trkpt><trkpt lat="43.885175" lon="11.265725"><ele>357.1666666666667</ele><time>2026-04-11T08:50:36.419Z</time></trkpt><trkpt lat="43.885245" lon="11.2657233"><ele>354.3333333333333</ele><time>2026-04-11T08:50:37.42Z</time></trkpt><trkpt lat="43.88532" lon="11.2656933"><ele>351.5</ele><time>2026-04-11T08:50:38.418Z</time></trkpt><trkpt lat="43.885395" lon="11.265655"><ele>348.66666666666663</ele><time>2026-04-11T08:50:39.419Z</time></trkpt><trkpt lat="43.8855167" lon="11.265615"><ele>345.8333333333333</ele><time>2026-04-11T08:50:41.419Z</time></trkpt><trkpt lat="43.8856083" lon="11.2656417"><ele>343.0</ele><time>2026-04-11T08:50:42.418Z</time></trkpt><trkpt lat="43.8857" lon="11.2657467"><ele>343.0</ele><time>2026-04-11T08:50:43.419Z</time></trkpt><trkpt lat="43.8858067" lon="11.2658667"><ele>343.0</ele><time>2026-04-11T08:50:44.419Z</time></trkpt><trkpt lat="43.8859217" lon="11.2659933"><ele>343.0</ele><time>2026-04-11T08:50:45.42Z</time></trkpt><trkpt lat="43.88604" lon="11.26613"><ele>343.0</ele><time>2026-04-11T08:50:46.419Z</time></trkpt><trkpt lat="43.8861767" lon="11.266265"><ele>341.25</ele><time>2026-04-11T08:50:47.418Z</time></trkpt><trkpt lat="43.8863033" lon="11.266375"><ele>339.5</ele><time>2026-04-11T08:50:48.419Z</time></trkpt><trkpt lat="43.8864183" lon="11.2664533"><ele>337.75</ele><time>2026-04-11T08:50:49.417Z</time></trkpt><trkpt lat="43.8865233" lon="11.266515"><ele>336.0</ele><time>2026-04-11T08:50:50.417Z</time></trkpt><trkpt lat="43.8866167" lon="11.266565"><ele>336.0</ele><time>2026-04-11T08:50:51.418Z</time></trkpt><trkpt lat="43.8867033" lon="11.266605"><ele>336.0</ele><time>2026-04-11T08:50:52.418Z</time></trkpt><trkpt lat="43.8867733" lon="11.2666383"><ele>336.0</ele><time>2026-04-11T08:50:53.418Z</time></trkpt><trkpt lat="43.8868667" lon="11.2666867"><ele>336.0</ele><time>2026-04-11T08:50:55.417Z</time></trkpt><trkpt lat="43.8869267" lon="11.2667217"><ele>336.0</ele><time>2026-04-11T08:50:57.417Z</time></trkpt><trkpt lat="43.886985" lon="11.2667717"><ele>336.0</ele><time>2026-04-11T08:51:00.418Z</time></trkpt><trkpt lat="43.88707" lon="11.2668067"><ele>336.1666666666667</ele><time>2026-04-11T08:51:50.419Z</time></trkpt><trkpt lat="43.8871667" lon="11.2668433"><ele>336.3333333333333</ele><time>2026-04-11T08:51:52.418Z</time></trkpt><trkpt lat="43.8872283" lon="11.26687"><ele>336.5</ele><time>2026-04-11T08:51:53.417Z</time></trkpt><trkpt lat="43.8872967" lon="11.2668917"><ele>336.66666666666663</ele><time>2026-04-11T08:51:54.419Z</time></trkpt><trkpt lat="43.887375" lon="11.2669067"><ele>336.8333333333333</ele><time>2026-04-11T08:51:55.418Z</time></trkpt><trkpt lat="43.88745" lon="11.2669283"><ele>337.0</ele><time>2026-04-11T08:51:56.418Z</time></trkpt><trkpt lat="43.8875183" lon="11.266955"><ele>337.0</ele><time>2026-04-11T08:51:57.42Z</time></trkpt><trkpt lat="43.8875767" lon="11.2669933"><ele>337.0</ele><time>2026-04-11T08:51:58.419Z</time></trkpt><trkpt lat="43.88764" lon="11.2670467"><ele>337.0</ele><time>2026-04-11T08:51:59.418Z</time></trkpt><trkpt lat="43.8877233" lon="11.2671267"><ele>337.0</ele><time>2026-04-11T08:52:00.419Z</time></trkpt><trkpt lat="43.88781" lon="11.267235"><ele>337.0</ele><time>2026-04-11T08:52:01.418Z</time></trkpt><trkpt lat="43.8879" lon="11.2673433"><ele>336.6</ele><time>2026-04-11T08:52:02.42Z</time></trkpt><trkpt lat="43.887985" lon="11.26744"><ele>336.20000000000005</ele><time>2026-04-11T08:52:03.418Z</time></trkpt><trkpt lat="43.888075" lon="11.2675067"><ele>335.8</ele><time>2026-04-11T08:52:04.418Z</time></trkpt><trkpt lat="43.888165" lon="11.267555"><ele>335.4</ele><time>2026-04-11T08:52:05.418Z</time></trkpt><trkpt lat="43.88826" lon="11.267575"><ele>335.0</ele><time>2026-04-11T08:52:06.419Z</time></trkpt><trkpt lat="43.88836" lon="11.2675667"><ele>335.5</ele><time>2026-04-11T08:52:07.419Z</time></trkpt><trkpt lat="43.8884667" lon="11.2675333"><ele>336.0</ele><time>2026-04-11T08:52:08.419Z</time></trkpt><trkpt lat="43.888555" lon="11.26747"><ele>336.5</ele><time>2026-04-11T08:52:09.419Z</time></trkpt><trkpt lat="43.888655" lon="11.2673833"><ele>337.0</ele><time>2026-04-11T08:52:10.419Z</time></trkpt><trkpt lat="43.888765" lon="11.2672783"><ele>338.75</ele><time>2026-04-11T08:52:11.42Z</time></trkpt><trkpt lat="43.8888717" lon="11.2671667"><ele>340.5</ele><time>2026-04-11T08:52:12.419Z</time></trkpt><trkpt lat="43.8889733" lon="11.2670583"><ele>342.25</ele><time>2026-04-11T08:52:13.42Z</time></trkpt><trkpt lat="43.8890717" lon="11.2669633"><ele>344.0</ele><time>2026-04-11T08:52:14.419Z</time></trkpt><trkpt lat="43.8891817" lon="11.2669017"><ele>345.0</ele><time>2026-04-11T08:52:15.419Z</time></trkpt><trkpt lat="43.8893117" lon="11.2668533"><ele>346.0</ele><time>2026-04-11T08:52:16.419Z</time></trkpt><trkpt lat="43.8894667" lon="11.26682"><ele>347.0</ele><time>2026-04-11T08:52:17.418Z</time></trkpt><trkpt lat="43.88963" lon="11.26681"><ele>347.0</ele><time>2026-04-11T08:52:18.418Z</time></trkpt><trkpt lat="43.8897967" lon="11.266825"><ele>347.0</ele><time>2026-04-11T08:52:19.419Z</time></trkpt><trkpt lat="43.88996" lon="11.2668667"><ele>347.0</ele><time>2026-04-11T08:52:20.418Z</time></trkpt><trkpt lat="43.89012" lon="11.266915"><ele>346.25</ele><time>2026-04-11T08:52:21.419Z</time></trkpt><trkpt lat="43.8902617" lon="11.2669667"><ele>345.5</ele><time>2026-04-11T08:52:22.419Z</time></trkpt><trkpt lat="43.8903917" lon="11.266995"><ele>344.75</ele><time>2026-04-11T08:52:23.419Z</time></trkpt><trkpt lat="43.8905067" lon="11.2670183"><ele>344.0</ele><time>2026-04-11T08:52:24.418Z</time></trkpt><trkpt lat="43.8906167" lon="11.2670167"><ele>344.0</ele><time>2026-04-11T08:52:25.418Z</time></trkpt><trkpt lat="43.890735" lon="11.26699"><ele>344.0</ele><time>2026-04-11T08:52:26.419Z</time></trkpt><trkpt lat="43.8908667" lon="11.2669333"><ele>344.0</ele><time>2026-04-11T08:52:27.419Z</time></trkpt><trkpt lat="43.891005" lon="11.2668417"><ele>344.0</ele><time>2026-04-11T08:52:28.419Z</time></trkpt><trkpt lat="43.89114" lon="11.266735"><ele>343.0</ele><time>2026-04-11T08:52:29.419Z</time></trkpt><trkpt lat="43.89127" lon="11.2666283"><ele>342.0</ele><time>2026-04-11T08:52:30.419Z</time></trkpt><trkpt lat="43.8913967" lon="11.2665317"><ele>341.0</ele><time>2026-04-11T08:52:31.42Z</time></trkpt><trkpt lat="43.8915233" lon="11.266455"><ele>340.0</ele><time>2026-04-11T08:52:32.419Z</time></trkpt><trkpt lat="43.891645" lon="11.2664083"><ele>338.75</ele><time>2026-04-11T08:52:33.419Z</time></trkpt><trkpt lat="43.8917767" lon="11.26638"><ele>337.5</ele><time>2026-04-11T08:52:34.418Z</time></trkpt><trkpt lat="43.891905" lon="11.26639"><ele>336.25</ele><time>2026-04-11T08:52:35.419Z</time></trkpt><trkpt lat="43.8920383" lon="11.2664333"><ele>335.0</ele><time>2026-04-11T08:52:36.421Z</time></trkpt><trkpt lat="43.89217" lon="11.266515"><ele>335.0</ele><time>2026-04-11T08:52:37.419Z</time></trkpt><trkpt lat="43.892295" lon="11.2666333"><ele>335.0</ele><time>2026-04-11T08:52:38.42Z</time></trkpt><trkpt lat="43.892415" lon="11.266785"><ele>335.0</ele><time>2026-04-11T08:52:39.418Z</time></trkpt><trkpt lat="43.8925283" lon="11.26695"><ele>333.6666666666667</ele><time>2026-04-11T08:52:40.418Z</time></trkpt><trkpt lat="43.8926483" lon="11.26709"><ele>332.3333333333333</ele><time>2026-04-11T08:52:41.42Z</time></trkpt><trkpt lat="43.89278" lon="11.267195"><ele>331.0</ele><time>2026-04-11T08:52:42.418Z</time></trkpt><trkpt lat="43.8929217" lon="11.2672533"><ele>331.0</ele><time>2026-04-11T08:52:43.418Z</time></trkpt><trkpt lat="43.893065" lon="11.2672667"><ele>331.0</ele><time>2026-04-11T08:52:44.418Z</time></trkpt><trkpt lat="43.89322" lon="11.2672383"><ele>331.0</ele><time>2026-04-11T08:52:45.418Z</time></trkpt><trkpt lat="43.8933867" lon="11.2671867"><ele>335.0</ele><time>2026-04-11T08:52:46.421Z</time></trkpt><trkpt lat="43.893545" lon="11.2671283"><ele>339.0</ele><time>2026-04-11T08:52:47.418Z</time></trkpt><trkpt lat="43.8936883" lon="11.26709"><ele>343.0</ele><time>2026-04-11T08:52:48.418Z</time></trkpt><trkpt lat="43.8938267" lon="11.267085"><ele>347.0</ele><time>2026-04-11T08:52:49.418Z</time></trkpt><trkpt lat="43.8939667" lon="11.2671167"><ele>347.0</ele><time>2026-04-11T08:52:50.417Z</time></trkpt><trkpt lat="43.8941033" lon="11.26718"><ele>347.0</ele><time>2026-04-11T08:52:51.417Z</time></trkpt><trkpt lat="43.8942283" lon="11.267265"><ele>347.0</ele><time>2026-04-11T08:52:52.417Z</time></trkpt><trkpt lat="43.894335" lon="11.2673767"><ele>347.0</ele><time>2026-04-11T08:52:53.42Z</time></trkpt><trkpt lat="43.8944133" lon="11.2675217"><ele>345.5</ele><time>2026-04-11T08:52:54.419Z</time></trkpt><trkpt lat="43.8944633" lon="11.267685"><ele>344.0</ele><time>2026-04-11T08:52:55.42Z</time></trkpt><trkpt lat="43.8944817" lon="11.2678733"><ele>342.5</ele><time>2026-04-11T08:52:56.419Z</time></trkpt><trkpt lat="43.89448" lon="11.2680933"><ele>341.0</ele><time>2026-04-11T08:52:57.418Z</time></trkpt><trkpt lat="43.89448" lon="11.26834"><ele>341.0</ele><time>2026-04-11T08:52:58.418Z</time></trkpt><trkpt lat="43.8944883" lon="11.2685967"><ele>341.0</ele><time>2026-04-11T08:52:59.419Z</time></trkpt><trkpt lat="43.89452" lon="11.2688433"><ele>341.0</ele><time>2026-04-11T08:53:00.419Z</time></trkpt><trkpt lat="43.8945633" lon="11.2690883"><ele>335.33333333333337</ele><time>2026-04-11T08:53:01.419Z</time></trkpt><trkpt lat="43.89461" lon="11.26933"><ele>329.6666666666667</ele><time>2026-04-11T08:53:02.419Z</time></trkpt><trkpt lat="43.8946583" lon="11.2695667"><ele>324.0</ele><time>2026-04-11T08:53:03.419Z</time></trkpt><trkpt lat="43.894715" lon="11.26981"><ele>322.3333333333333</ele><time>2026-04-11T08:53:04.418Z</time></trkpt><trkpt lat="43.8947783" lon="11.2700517"><ele>320.66666666666663</ele><time>2026-04-11T08:53:05.419Z</time></trkpt><trkpt lat="43.8948567" lon="11.2702917"><ele>319.0</ele><time>2026-04-11T08:53:06.418Z</time></trkpt><trkpt lat="43.8949417" lon="11.27051"><ele>318.3333333333333</ele><time>2026-04-11T08:53:07.418Z</time></trkpt><trkpt lat="43.8950267" lon="11.270715"><ele>317.6666666666667</ele><time>2026-04-11T08:53:08.419Z</time></trkpt><trkpt lat="43.895105" lon="11.2709083"><ele>317.0</ele><time>2026-04-11T08:53:09.418Z</time></trkpt><trkpt lat="43.8951817" lon="11.2711017"><ele>323.0</ele><time>2026-04-11T08:53:10.417Z</time></trkpt><trkpt lat="43.8952533" lon="11.2712933"><ele>329.0</ele><time>2026-04-11T08:53:11.418Z</time></trkpt><trkpt lat="43.8953217" lon="11.27148"><ele>335.0</ele><time>2026-04-11T08:53:12.417Z</time></trkpt><trkpt lat="43.8953917" lon="11.271675"><ele>335.0</ele><time>2026-04-11T08:53:13.419Z</time></trkpt><trkpt lat="43.8954567" lon="11.2718667"><ele>335.0</ele><time>2026-04-11T08:53:14.418Z</time></trkpt><trkpt lat="43.8955183" lon="11.2720467"><ele>335.0</ele><time>2026-04-11T08:53:15.418Z</time></trkpt><trkpt lat="43.8955767" lon="11.2722183"><ele>335.0</ele><time>2026-04-11T08:53:16.418Z</time></trkpt><trkpt lat="43.895625" lon="11.2723783"><ele>333.0</ele><time>2026-04-11T08:53:17.418Z</time></trkpt><trkpt lat="43.8956583" lon="11.2725567"><ele>331.0</ele><time>2026-04-11T08:53:18.418Z</time></trkpt><trkpt lat="43.89567" lon="11.27276"><ele>329.0</ele><time>2026-04-11T08:53:19.418Z</time></trkpt><trkpt lat="43.89567" lon="11.2729833"><ele>327.0</ele><time>2026-04-11T08:53:20.419Z</time></trkpt><trkpt lat="43.8956683" lon="11.2732117"><ele>324.6666666666667</ele><time>2026-04-11T08:53:21.417Z</time></trkpt><trkpt lat="43.8956733" lon="11.2734383"><ele>322.33333333333337</ele><time>2026-04-11T08:53:22.417Z</time></trkpt><trkpt lat="43.8957" lon="11.2736533"><ele>320.0</ele><time>2026-04-11T08:53:23.418Z</time></trkpt><trkpt lat="43.8957517" lon="11.2738567"><ele>317.33333333333337</ele><time>2026-04-11T08:53:24.417Z</time></trkpt><trkpt lat="43.8958317" lon="11.274045"><ele>314.6666666666667</ele><time>2026-04-11T08:53:25.42Z</time></trkpt><trkpt lat="43.8959317" lon="11.2742333"><ele>312.0</ele><time>2026-04-11T08:53:26.418Z</time></trkpt><trkpt lat="43.89604" lon="11.2743967"><ele>317.0</ele><time>2026-04-11T08:53:27.418Z</time></trkpt><trkpt lat="43.8961417" lon="11.274555"><ele>322.0</ele><time>2026-04-11T08:53:28.419Z</time></trkpt><trkpt lat="43.8962217" lon="11.2747217"><ele>327.0</ele><time>2026-04-11T08:53:29.418Z</time></trkpt><trkpt lat="43.8962717" lon="11.2749117"><ele>332.0</ele><time>2026-04-11T08:53:30.417Z</time></trkpt><trkpt lat="43.8963067" lon="11.2751383"><ele>332.0</ele><time>2026-04-11T08:53:31.418Z</time></trkpt><trkpt lat="43.8963317" lon="11.27539"><ele>332.0</ele><time>2026-04-11T08:53:32.419Z</time></trkpt><trkpt lat="43.89633" lon="11.2756583"><ele>332.0</ele><time>2026-04-11T08:53:33.418Z</time></trkpt><trkpt lat="43.8963183" lon="11.27593"><ele>330.33333333333337</ele><time>2026-04-11T08:53:34.417Z</time></trkpt><trkpt lat="43.896305" lon="11.2762083"><ele>328.6666666666667</ele><time>2026-04-11T08:53:35.418Z</time></trkpt><trkpt lat="43.896295" lon="11.2764783"><ele>327.0</ele><time>2026-04-11T08:53:36.418Z</time></trkpt><trkpt lat="43.8962817" lon="11.2767283"><ele>326.6666666666667</ele><time>2026-04-11T08:53:37.418Z</time></trkpt><trkpt lat="43.89628" lon="11.2769683"><ele>326.33333333333337</ele><time>2026-04-11T08:53:38.417Z</time></trkpt><trkpt lat="43.896295" lon="11.2772"><ele>326.0</ele><time>2026-04-11T08:53:39.418Z</time></trkpt><trkpt lat="43.8963333" lon="11.277425"><ele>324.6666666666667</ele><time>2026-04-11T08:53:40.419Z</time></trkpt><trkpt lat="43.8963917" lon="11.27764"><ele>323.3333333333333</ele><time>2026-04-11T08:53:41.418Z</time></trkpt><trkpt lat="43.8964667" lon="11.2778517"><ele>322.0</ele><time>2026-04-11T08:53:42.418Z</time></trkpt><trkpt lat="43.896565" lon="11.27806"><ele>318.66666666666663</ele><time>2026-04-11T08:53:43.42Z</time></trkpt><trkpt lat="43.896675" lon="11.2782617"><ele>315.3333333333333</ele><time>2026-04-11T08:53:44.418Z</time></trkpt><trkpt lat="43.8967817" lon="11.27847"><ele>312.0</ele><time>2026-04-11T08:53:45.418Z</time></trkpt><trkpt lat="43.896885" lon="11.27867"><ele>316.3333333333333</ele><time>2026-04-11T08:53:46.419Z</time></trkpt><trkpt lat="43.896975" lon="11.2788617"><ele>320.66666666666663</ele><time>2026-04-11T08:53:47.418Z</time></trkpt><trkpt lat="43.8970483" lon="11.2790633"><ele>325.0</ele><time>2026-04-11T08:53:48.42Z</time></trkpt><trkpt lat="43.8971117" lon="11.2792767"><ele>325.0</ele><time>2026-04-11T08:53:49.419Z</time></trkpt><trkpt lat="43.8971667" lon="11.2795083"><ele>325.0</ele><time>2026-04-11T08:53:50.418Z</time></trkpt><trkpt lat="43.8972083" lon="11.279765"><ele>325.0</ele><time>2026-04-11T08:53:51.419Z</time></trkpt><trkpt lat="43.8972417" lon="11.2800367"><ele>323.0</ele><time>2026-04-11T08:53:52.418Z</time></trkpt><trkpt lat="43.8972633" lon="11.2803167"><ele>321.0</ele><time>2026-04-11T08:53:53.42Z</time></trkpt><trkpt lat="43.8972783" lon="11.28057"><ele>319.0</ele><time>2026-04-11T08:53:54.42Z</time></trkpt><trkpt lat="43.8972867" lon="11.2808083"><ele>319.0</ele><time>2026-04-11T08:53:55.421Z</time></trkpt><trkpt lat="43.8972867" lon="11.2810417"><ele>319.0</ele><time>2026-04-11T08:53:56.418Z</time></trkpt><trkpt lat="43.89728" lon="11.28127"><ele>319.0</ele><time>2026-04-11T08:53:57.419Z</time></trkpt><trkpt lat="43.8972667" lon="11.2814883"><ele>319.0</ele><time>2026-04-11T08:53:58.418Z</time></trkpt><trkpt lat="43.897255" lon="11.2816817"><ele>319.0</ele><time>2026-04-11T08:53:59.419Z</time></trkpt><trkpt lat="43.897245" lon="11.2818483"><ele>319.0</ele><time>2026-04-11T08:54:00.418Z</time></trkpt><trkpt lat="43.897235" lon="11.2819983"><ele>319.0</ele><time>2026-04-11T08:54:01.418Z</time></trkpt><trkpt lat="43.897225" lon="11.2821383"><ele>318.0</ele><time>2026-04-11T08:54:02.42Z</time></trkpt><trkpt lat="43.8972167" lon="11.2822667"><ele>317.0</ele><time>2026-04-11T08:54:03.417Z</time></trkpt><trkpt lat="43.8972117" lon="11.2823817"><ele>316.0</ele><time>2026-04-11T08:54:04.417Z</time></trkpt><trkpt lat="43.8972083" lon="11.2824883"><ele>315.0</ele><time>2026-04-11T08:54:05.419Z</time></trkpt><trkpt lat="43.897205" lon="11.2826467"><ele>314.0</ele><time>2026-04-11T08:54:07.417Z</time></trkpt><trkpt lat="43.8972033" lon="11.2827517"><ele>313.0</ele><time>2026-04-11T08:54:09.417Z</time></trkpt><trkpt lat="43.897215" lon="11.2828417"><ele>313.0</ele><time>2026-04-11T08:54:11.417Z</time></trkpt><trkpt lat="43.8972883" lon="11.2829567"><ele>313.0</ele><time>2026-04-11T08:54:13.418Z</time></trkpt><trkpt lat="43.8973933" lon="11.2830483"><ele>313.0</ele><time>2026-04-11T08:54:14.419Z</time></trkpt><trkpt lat="43.89752" lon="11.2831633"><ele>313.0</ele><time>2026-04-11T08:54:15.419Z</time></trkpt><trkpt lat="43.8976633" lon="11.283295"><ele>312.66666666666663</ele><time>2026-04-11T08:54:16.419Z</time></trkpt><trkpt lat="43.8978217" lon="11.2834233"><ele>312.3333333333333</ele><time>2026-04-11T08:54:17.418Z</time></trkpt><trkpt lat="43.897975" lon="11.2835117"><ele>312.0</ele><time>2026-04-11T08:54:18.418Z</time></trkpt><trkpt lat="43.89812" lon="11.283545"><ele>312.0</ele><time>2026-04-11T08:54:19.418Z</time></trkpt><trkpt lat="43.8982617" lon="11.2835633"><ele>312.0</ele><time>2026-04-11T08:54:20.418Z</time></trkpt><trkpt lat="43.8983983" lon="11.2835433"><ele>312.0</ele><time>2026-04-11T08:54:21.418Z</time></trkpt><trkpt lat="43.8985383" lon="11.283495"><ele>312.0</ele><time>2026-04-11T08:54:22.417Z</time></trkpt><trkpt lat="43.8986833" lon="11.2834367"><ele>308.0</ele><time>2026-04-11T08:54:23.419Z</time></trkpt><trkpt lat="43.8988317" lon="11.2833767"><ele>304.0</ele><time>2026-04-11T08:54:24.418Z</time></trkpt><trkpt lat="43.8989883" lon="11.2833183"><ele>300.0</ele><time>2026-04-11T08:54:25.419Z</time></trkpt><trkpt lat="43.8991467" lon="11.283265"><ele>297.6666666666667</ele><time>2026-04-11T08:54:26.419Z</time></trkpt><trkpt lat="43.89931" lon="11.2832217"><ele>295.33333333333337</ele><time>2026-04-11T08:54:27.417Z</time></trkpt><trkpt lat="43.8994717" lon="11.28318"><ele>293.0</ele><time>2026-04-11T08:54:28.418Z</time></trkpt><trkpt lat="43.8996317" lon="11.283145"><ele>293.0</ele><time>2026-04-11T08:54:29.418Z</time></trkpt><trkpt lat="43.899785" lon="11.28312"><ele>293.0</ele><time>2026-04-11T08:54:30.419Z</time></trkpt><trkpt lat="43.8999283" lon="11.2830917"><ele>293.0</ele><time>2026-04-11T08:54:31.419Z</time></trkpt><trkpt lat="43.900065" lon="11.283055"><ele>293.0</ele><time>2026-04-11T08:54:32.418Z</time></trkpt><trkpt lat="43.90019" lon="11.2829967"><ele>294.75</ele><time>2026-04-11T08:54:33.418Z</time></trkpt><trkpt lat="43.9003133" lon="11.2829083"><ele>296.5</ele><time>2026-04-11T08:54:34.417Z</time></trkpt><trkpt lat="43.9004333" lon="11.2828217"><ele>298.25</ele><time>2026-04-11T08:54:35.419Z</time></trkpt><trkpt lat="43.9005483" lon="11.2827517"><ele>300.0</ele><time>2026-04-11T08:54:36.419Z</time></trkpt><trkpt lat="43.9006717" lon="11.2826917"><ele>300.0</ele><time>2026-04-11T08:54:37.419Z</time></trkpt><trkpt lat="43.9007983" lon="11.2826433"><ele>300.0</ele><time>2026-04-11T08:54:38.419Z</time></trkpt><trkpt lat="43.9009367" lon="11.28262"><ele>300.0</ele><time>2026-04-11T08:54:39.417Z</time></trkpt><trkpt lat="43.9010817" lon="11.2826117"><ele>300.0</ele><time>2026-04-11T08:54:40.418Z</time></trkpt><trkpt lat="43.901235" lon="11.2826333"><ele>297.0</ele><time>2026-04-11T08:54:41.42Z</time></trkpt><trkpt lat="43.9013917" lon="11.2826733"><ele>294.0</ele><time>2026-04-11T08:54:42.417Z</time></trkpt><trkpt lat="43.901545" lon="11.282725"><ele>291.0</ele><time>2026-04-11T08:54:43.418Z</time></trkpt><trkpt lat="43.901705" lon="11.28279"><ele>292.0</ele><time>2026-04-11T08:54:44.418Z</time></trkpt><trkpt lat="43.9018733" lon="11.2828517"><ele>293.0</ele><time>2026-04-11T08:54:45.417Z</time></trkpt><trkpt lat="43.90204" lon="11.2829133"><ele>294.0</ele><time>2026-04-11T08:54:46.419Z</time></trkpt><trkpt lat="43.90221" lon="11.28298"><ele>294.0</ele><time>2026-04-11T08:54:47.417Z</time></trkpt><trkpt lat="43.9023733" lon="11.2830433"><ele>294.0</ele><time>2026-04-11T08:54:48.417Z</time></trkpt><trkpt lat="43.9025317" lon="11.2830967"><ele>294.0</ele><time>2026-04-11T08:54:49.418Z</time></trkpt><trkpt lat="43.9026917" lon="11.2831333"><ele>292.3333333333333</ele><time>2026-04-11T08:54:50.418Z</time></trkpt><trkpt lat="43.9028433" lon="11.283155"><ele>290.66666666666663</ele><time>2026-04-11T08:54:51.417Z</time></trkpt><trkpt lat="43.9029983" lon="11.283165"><ele>289.0</ele><time>2026-04-11T08:54:52.419Z</time></trkpt><trkpt lat="43.9031533" lon="11.2831633"><ele>289.0</ele><time>2026-04-11T08:54:53.419Z</time></trkpt><trkpt lat="43.9033117" lon="11.2831617"><ele>289.0</ele><time>2026-04-11T08:54:54.418Z</time></trkpt><trkpt lat="43.903475" lon="11.28316"><ele>289.0</ele><time>2026-04-11T08:54:55.419Z</time></trkpt><trkpt lat="43.90364" lon="11.2831583"><ele>288.0</ele><time>2026-04-11T08:54:56.418Z</time></trkpt><trkpt lat="43.9038033" lon="11.2831567"><ele>287.0</ele><time>2026-04-11T08:54:57.419Z</time></trkpt><trkpt lat="43.9039717" lon="11.2831533"><ele>286.0</ele><time>2026-04-11T08:54:58.422Z</time></trkpt><trkpt lat="43.9041417" lon="11.2831467"><ele>284.66666666666663</ele><time>2026-04-11T08:54:59.418Z</time></trkpt><trkpt lat="43.9043117" lon="11.2831367"><ele>283.3333333333333</ele><time>2026-04-11T08:55:00.419Z</time></trkpt><trkpt lat="43.90448" lon="11.2831183"><ele>282.0</ele><time>2026-04-11T08:55:01.419Z</time></trkpt><trkpt lat="43.9046317" lon="11.28309"><ele>282.0</ele><time>2026-04-11T08:55:02.418Z</time></trkpt><trkpt lat="43.904795" lon="11.2830617"><ele>282.0</ele><time>2026-04-11T08:55:03.419Z</time></trkpt><trkpt lat="43.9049583" lon="11.2830333"><ele>282.0</ele><time>2026-04-11T08:55:04.418Z</time></trkpt><trkpt lat="43.9051217" lon="11.283005"><ele>284.0</ele><time>2026-04-11T08:55:05.419Z</time></trkpt><trkpt lat="43.905465" lon="11.2828783"><ele>286.0</ele><time>2026-04-11T08:55:07.42Z</time></trkpt><trkpt lat="43.905615" lon="11.282755"><ele>286.0</ele><time>2026-04-11T08:55:08.419Z</time></trkpt><trkpt lat="43.9057783" lon="11.2826733"><ele>286.0</ele><time>2026-04-11T08:55:09.419Z</time></trkpt><trkpt lat="43.9059483" lon="11.2826367"><ele>286.0</ele><time>2026-04-11T08:55:10.419Z</time></trkpt><trkpt lat="43.90613" lon="11.2826033"><ele>285.3333333333333</ele><time>2026-04-11T08:55:11.418Z</time></trkpt><trkpt lat="43.9063133" lon="11.2825833"><ele>284.6666666666667</ele><time>2026-04-11T08:55:12.421Z</time></trkpt><trkpt lat="43.90649" lon="11.28256"><ele>284.0</ele><time>2026-04-11T08:55:13.418Z</time></trkpt><trkpt lat="43.9066817" lon="11.282515"><ele>283.33333333333337</ele><time>2026-04-11T08:55:14.419Z</time></trkpt><trkpt lat="43.9068767" lon="11.28247"><ele>282.6666666666667</ele><time>2026-04-11T08:55:15.421Z</time></trkpt><trkpt lat="43.9070633" lon="11.2824467"><ele>282.0</ele><time>2026-04-11T08:55:16.418Z</time></trkpt><trkpt lat="43.9072667" lon="11.2824217"><ele>282.0</ele><time>2026-04-11T08:55:17.417Z</time></trkpt><trkpt lat="43.9074617" lon="11.2824"><ele>282.0</ele><time>2026-04-11T08:55:18.418Z</time></trkpt><trkpt lat="43.9076533" lon="11.28238"><ele>282.0</ele><time>2026-04-11T08:55:19.417Z</time></trkpt><trkpt lat="43.9078517" lon="11.2823617"><ele>282.0</ele><time>2026-04-11T08:55:20.418Z</time></trkpt><trkpt lat="43.9080417" lon="11.282345"><ele>282.0</ele><time>2026-04-11T08:55:21.419Z</time></trkpt><trkpt lat="43.9082417" lon="11.2823283"><ele>282.0</ele><time>2026-04-11T08:55:22.418Z</time></trkpt><trkpt lat="43.9084383" lon="11.2823133"><ele>282.0</ele><time>2026-04-11T08:55:23.417Z</time></trkpt><trkpt lat="43.9086317" lon="11.2822933"><ele>282.0</ele><time>2026-04-11T08:55:24.418Z</time></trkpt><trkpt lat="43.9088233" lon="11.2822767"><ele>282.0</ele><time>2026-04-11T08:55:25.418Z</time></trkpt><trkpt lat="43.90902" lon="11.2822533"><ele>280.3333333333333</ele><time>2026-04-11T08:55:26.418Z</time></trkpt><trkpt lat="43.9092183" lon="11.2822233"><ele>278.66666666666663</ele><time>2026-04-11T08:55:27.421Z</time></trkpt><trkpt lat="43.909425" lon="11.2821717"><ele>277.0</ele><time>2026-04-11T08:55:28.418Z</time></trkpt><trkpt lat="43.9096383" lon="11.282105"><ele>277.0</ele><time>2026-04-11T08:55:29.418Z</time></trkpt><trkpt lat="43.9098333" lon="11.28204"><ele>277.0</ele><time>2026-04-11T08:55:30.417Z</time></trkpt><trkpt lat="43.9100283" lon="11.28198"><ele>277.0</ele><time>2026-04-11T08:55:31.418Z</time></trkpt><trkpt lat="43.910215" lon="11.281925"><ele>276.66666666666663</ele><time>2026-04-11T08:55:32.419Z</time></trkpt><trkpt lat="43.91039" lon="11.281875"><ele>276.3333333333333</ele><time>2026-04-11T08:55:33.418Z</time></trkpt><trkpt lat="43.9105583" lon="11.2818417"><ele>276.0</ele><time>2026-04-11T08:55:34.419Z</time></trkpt><trkpt lat="43.910725" lon="11.281835"><ele>276.0</ele><time>2026-04-11T08:55:35.418Z</time></trkpt><trkpt lat="43.910895" lon="11.2818617"><ele>276.0</ele><time>2026-04-11T08:55:36.418Z</time></trkpt><trkpt lat="43.9110633" lon="11.2819217"><ele>276.0</ele><time>2026-04-11T08:55:37.42Z</time></trkpt><trkpt lat="43.9112267" lon="11.28201"><ele>275.3333333333333</ele><time>2026-04-11T08:55:38.418Z</time></trkpt><trkpt lat="43.911385" lon="11.2821317"><ele>274.66666666666663</ele><time>2026-04-11T08:55:39.419Z</time></trkpt><trkpt lat="43.9115267" lon="11.2822833"><ele>274.0</ele><time>2026-04-11T08:55:40.418Z</time></trkpt><trkpt lat="43.9116617" lon="11.2824633"><ele>275.0</ele><time>2026-04-11T08:55:41.418Z</time></trkpt><trkpt lat="43.911795" lon="11.282665"><ele>276.0</ele><time>2026-04-11T08:55:42.422Z</time></trkpt><trkpt lat="43.9119233" lon="11.28286"><ele>277.0</ele><time>2026-04-11T08:55:43.419Z</time></trkpt><trkpt lat="43.9120717" lon="11.2830517"><ele>276.3333333333333</ele><time>2026-04-11T08:55:44.419Z</time></trkpt><trkpt lat="43.9122417" lon="11.2832333"><ele>275.6666666666667</ele><time>2026-04-11T08:55:45.418Z</time></trkpt><trkpt lat="43.91243" lon="11.2833967"><ele>275.0</ele><time>2026-04-11T08:55:46.419Z</time></trkpt><trkpt lat="43.9126283" lon="11.2835467"><ele>275.0</ele><time>2026-04-11T08:55:47.419Z</time></trkpt><trkpt lat="43.9128383" lon="11.283685"><ele>275.0</ele><time>2026-04-11T08:55:48.418Z</time></trkpt><trkpt lat="43.913045" lon="11.28381"><ele>275.0</ele><time>2026-04-11T08:55:49.418Z</time></trkpt><trkpt lat="43.9132417" lon="11.2839233"><ele>275.0</ele><time>2026-04-11T08:55:50.419Z</time></trkpt><trkpt lat="43.9134333" lon="11.28402"><ele>275.0</ele><time>2026-04-11T08:55:51.419Z</time></trkpt><trkpt lat="43.9136167" lon="11.2840933"><ele>276.33333333333337</ele><time>2026-04-11T08:55:52.418Z</time></trkpt><trkpt lat="43.9137933" lon="11.28414"><ele>277.6666666666667</ele><time>2026-04-11T08:55:53.419Z</time></trkpt><trkpt lat="43.9139667" lon="11.284165"><ele>279.0</ele><time>2026-04-11T08:55:54.418Z</time></trkpt><trkpt lat="43.91414" lon="11.284165"><ele>277.6666666666667</ele><time>2026-04-11T08:55:55.419Z</time></trkpt><trkpt lat="43.9143067" lon="11.28414"><ele>276.33333333333337</ele><time>2026-04-11T08:55:56.418Z</time></trkpt><trkpt lat="43.914475" lon="11.2840917"><ele>275.0</ele><time>2026-04-11T08:55:57.418Z</time></trkpt><trkpt lat="43.9146467" lon="11.2840183"><ele>273.0</ele><time>2026-04-11T08:55:58.417Z</time></trkpt><trkpt lat="43.9148183" lon="11.283925"><ele>271.0</ele><time>2026-04-11T08:55:59.419Z</time></trkpt><trkpt lat="43.9149883" lon="11.2838117"><ele>269.0</ele><time>2026-04-11T08:56:00.418Z</time></trkpt><trkpt lat="43.9151517" lon="11.2836867"><ele>269.0</ele><time>2026-04-11T08:56:01.418Z</time></trkpt><trkpt lat="43.9153033" lon="11.2835683"><ele>269.0</ele><time>2026-04-11T08:56:02.419Z</time></trkpt><trkpt lat="43.91545" lon="11.283455"><ele>269.0</ele><time>2026-04-11T08:56:03.418Z</time></trkpt><trkpt lat="43.9155883" lon="11.28335"><ele>269.0</ele><time>2026-04-11T08:56:04.419Z</time></trkpt><trkpt lat="43.9157217" lon="11.2832517"><ele>269.0</ele><time>2026-04-11T08:56:05.419Z</time></trkpt><trkpt lat="43.9158467" lon="11.28317"><ele>269.0</ele><time>2026-04-11T08:56:06.418Z</time></trkpt><trkpt lat="43.915955" lon="11.2831033"><ele>269.0</ele><time>2026-04-11T08:56:07.417Z</time></trkpt><trkpt lat="43.9160567" lon="11.283055"><ele>274.4</ele><time>2026-04-11T08:56:08.419Z</time></trkpt><trkpt lat="43.91615" lon="11.283015"><ele>279.79999999999995</ele><time>2026-04-11T08:56:09.418Z</time></trkpt><trkpt lat="43.9162333" lon="11.28298"><ele>285.20000000000005</ele><time>2026-04-11T08:56:10.418Z</time></trkpt><trkpt lat="43.9163067" lon="11.2829533"><ele>290.6</ele><time>2026-04-11T08:56:11.419Z</time></trkpt><trkpt lat="43.916405" lon="11.2828783"><ele>296.0</ele><time>2026-04-11T08:56:13.419Z</time></trkpt><trkpt lat="43.916415" lon="11.2827617"><ele>296.0</ele><time>2026-04-11T08:56:15.417Z</time></trkpt><trkpt lat="43.9163017" lon="11.282655"><ele>296.0</ele><time>2026-04-11T08:56:17.418Z</time></trkpt><trkpt lat="43.9162117" lon="11.2826233"><ele>296.0</ele><time>2026-04-11T08:56:18.418Z</time></trkpt><trkpt lat="43.91613" lon="11.2826233"><ele>296.0</ele><time>2026-04-11T08:56:19.418Z</time></trkpt><trkpt lat="43.9160367" lon="11.2826517"><ele>296.0</ele><time>2026-04-11T08:56:20.421Z</time></trkpt><trkpt lat="43.9159267" lon="11.28271"><ele>291.75</ele><time>2026-04-11T08:56:21.419Z</time></trkpt><trkpt lat="43.9158117" lon="11.2827767"><ele>287.5</ele><time>2026-04-11T08:56:22.419Z</time></trkpt><trkpt lat="43.9157033" lon="11.2828267"><ele>283.25</ele><time>2026-04-11T08:56:23.418Z</time></trkpt><trkpt lat="43.915575" lon="11.2828583"><ele>279.0</ele><time>2026-04-11T08:56:24.417Z</time></trkpt><trkpt lat="43.9154367" lon="11.2828833"><ele>279.0</ele><time>2026-04-11T08:56:25.417Z</time></trkpt><trkpt lat="43.915285" lon="11.2829"><ele>279.0</ele><time>2026-04-11T08:56:26.419Z</time></trkpt><trkpt lat="43.9151367" lon="11.28291"><ele>279.0</ele><time>2026-04-11T08:56:27.418Z</time></trkpt><trkpt lat="43.914995" lon="11.2829133"><ele>279.0</ele><time>2026-04-11T08:56:28.418Z</time></trkpt><trkpt lat="43.9148483" lon="11.2829167"><ele>278.5</ele><time>2026-04-11T08:56:29.419Z</time></trkpt><trkpt lat="43.9147067" lon="11.2829067"><ele>278.0</ele><time>2026-04-11T08:56:30.418Z</time></trkpt><trkpt lat="43.9145633" lon="11.2828783"><ele>277.5</ele><time>2026-04-11T08:56:31.418Z</time></trkpt><trkpt lat="43.91442" lon="11.2828467"><ele>277.0</ele><time>2026-04-11T08:56:32.419Z</time></trkpt><trkpt lat="43.9142683" lon="11.2828233"><ele>277.0</ele><time>2026-04-11T08:56:33.417Z</time></trkpt><trkpt lat="43.914115" lon="11.2828033"><ele>277.0</ele><time>2026-04-11T08:56:34.417Z</time></trkpt><trkpt lat="43.913965" lon="11.28278"><ele>277.0</ele><time>2026-04-11T08:56:35.418Z</time></trkpt><trkpt lat="43.9138167" lon="11.2827667"><ele>277.0</ele><time>2026-04-11T08:56:36.419Z</time></trkpt><trkpt lat="43.91367" lon="11.282745"><ele>277.0</ele><time>2026-04-11T08:56:37.418Z</time></trkpt><trkpt lat="43.9135233" lon="11.2827283"><ele>277.0</ele><time>2026-04-11T08:56:38.418Z</time></trkpt><trkpt lat="43.91338" lon="11.2826967"><ele>277.0</ele><time>2026-04-11T08:56:39.418Z</time></trkpt><trkpt lat="43.9132383" lon="11.2826583"><ele>277.0</ele><time>2026-04-11T08:56:40.418Z</time></trkpt><trkpt lat="43.9130967" lon="11.2826183"><ele>277.0</ele><time>2026-04-11T08:56:41.419Z</time></trkpt><trkpt lat="43.912965" lon="11.2825617"><ele>277.0</ele><time>2026-04-11T08:56:42.418Z</time></trkpt><trkpt lat="43.91285" lon="11.2824867"><ele>277.0</ele><time>2026-04-11T08:56:43.418Z</time></trkpt><trkpt lat="43.912745" lon="11.2823833"><ele>277.75</ele><time>2026-04-11T08:56:44.419Z</time></trkpt><trkpt lat="43.9126467" lon="11.2822533"><ele>278.5</ele><time>2026-04-11T08:56:45.417Z</time></trkpt><trkpt lat="43.912555" lon="11.2820983"><ele>279.25</ele><time>2026-04-11T08:56:46.418Z</time></trkpt><trkpt lat="43.91247" lon="11.2819217"><ele>280.0</ele><time>2026-04-11T08:56:47.417Z</time></trkpt><trkpt lat="43.9123833" lon="11.281735"><ele>280.0</ele><time>2026-04-11T08:56:48.418Z</time></trkpt><trkpt lat="43.912295" lon="11.281545"><ele>280.0</ele><time>2026-04-11T08:56:49.417Z</time></trkpt><trkpt lat="43.912215" lon="11.2813733"><ele>280.0</ele><time>2026-04-11T08:56:50.418Z</time></trkpt><trkpt lat="43.9121367" lon="11.2812"><ele>281.0</ele><time>2026-04-11T08:56:51.419Z</time></trkpt><trkpt lat="43.9120633" lon="11.2810467"><ele>282.0</ele><time>2026-04-11T08:56:52.418Z</time></trkpt><trkpt lat="43.9119867" lon="11.2809117"><ele>283.0</ele><time>2026-04-11T08:56:53.419Z</time></trkpt><trkpt lat="43.9119017" lon="11.2807983"><ele>284.0</ele><time>2026-04-11T08:56:54.417Z</time></trkpt><trkpt lat="43.9118133" lon="11.2807117"><ele>284.4</ele><time>2026-04-11T08:56:55.419Z</time></trkpt><trkpt lat="43.91172" lon="11.280635"><ele>284.79999999999995</ele><time>2026-04-11T08:56:56.418Z</time></trkpt><trkpt lat="43.911615" lon="11.2805567"><ele>285.20000000000005</ele><time>2026-04-11T08:56:57.417Z</time></trkpt><trkpt lat="43.9115133" lon="11.2804883"><ele>285.6</ele><time>2026-04-11T08:56:58.418Z</time></trkpt><trkpt lat="43.9114167" lon="11.2804267"><ele>286.0</ele><time>2026-04-11T08:56:59.418Z</time></trkpt><trkpt lat="43.9113317" lon="11.2803683"><ele>286.0</ele><time>2026-04-11T08:57:00.418Z</time></trkpt><trkpt lat="43.9112583" lon="11.28032"><ele>286.0</ele><time>2026-04-11T08:57:01.418Z</time></trkpt><trkpt lat="43.91119" lon="11.2802767"><ele>286.0</ele><time>2026-04-11T08:57:02.418Z</time></trkpt><trkpt lat="43.9111283" lon="11.280235"><ele>286.0</ele><time>2026-04-11T08:57:03.418Z</time></trkpt><trkpt lat="43.911025" lon="11.2801683"><ele>286.0</ele><time>2026-04-11T08:57:05.418Z</time></trkpt><trkpt lat="43.9109283" lon="11.2801083"><ele>286.0</ele><time>2026-04-11T08:57:07.418Z</time></trkpt><trkpt lat="43.910855" lon="11.2800567"><ele>286.0</ele><time>2026-04-11T08:57:09.418Z</time></trkpt><trkpt lat="43.9108717" lon="11.2799567"><ele>286.0</ele><time>2026-04-11T08:57:13.419Z</time></trkpt><trkpt lat="43.9109967" lon="11.2799167"><ele>286.0</ele><time>2026-04-11T08:57:15.418Z</time></trkpt><trkpt lat="43.911075" lon="11.27988"><ele>286.0</ele><time>2026-04-11T08:57:16.418Z</time></trkpt><trkpt lat="43.9111483" lon="11.2798233"><ele>286.0</ele><time>2026-04-11T08:57:17.418Z</time></trkpt><trkpt lat="43.9112067" lon="11.27975"><ele>286.0</ele><time>2026-04-11T08:57:18.418Z</time></trkpt><trkpt lat="43.9112483" lon="11.2796333"><ele>288.0</ele><time>2026-04-11T08:57:19.418Z</time></trkpt><trkpt lat="43.9112917" lon="11.2795033"><ele>290.0</ele><time>2026-04-11T08:57:20.418Z</time></trkpt><trkpt lat="43.9113367" lon="11.2793817"><ele>292.0</ele><time>2026-04-11T08:57:21.418Z</time></trkpt><trkpt lat="43.9113817" lon="11.279265"><ele>294.0</ele><time>2026-04-11T08:57:22.418Z</time></trkpt><trkpt lat="43.9114267" lon="11.2791417"><ele>296.0</ele><time>2026-04-11T08:57:23.42Z</time></trkpt><trkpt lat="43.911465" lon="11.2790217"><ele>297.33333333333337</ele><time>2026-04-11T08:57:24.418Z</time></trkpt><trkpt lat="43.9114933" lon="11.27892"><ele>298.6666666666667</ele><time>2026-04-11T08:57:25.418Z</time></trkpt><trkpt lat="43.911515" lon="11.2788267"><ele>300.0</ele><time>2026-04-11T08:57:26.418Z</time></trkpt><trkpt lat="43.91149" lon="11.278725"><ele>301.3333333333333</ele><time>2026-04-11T08:57:27.418Z</time></trkpt><trkpt lat="43.91144" lon="11.278615"><ele>302.66666666666663</ele><time>2026-04-11T08:57:28.417Z</time></trkpt><trkpt lat="43.9113883" lon="11.2784983"><ele>304.0</ele><time>2026-04-11T08:57:29.419Z</time></trkpt><trkpt lat="43.9113217" lon="11.278355"><ele>304.0</ele><time>2026-04-11T08:57:30.417Z</time></trkpt><trkpt lat="43.911255" lon="11.2781917"><ele>304.0</ele><time>2026-04-11T08:57:31.418Z</time></trkpt><trkpt lat="43.9111817" lon="11.2780233"><ele>304.0</ele><time>2026-04-11T08:57:32.421Z</time></trkpt><trkpt lat="43.9111083" lon="11.277845"><ele>304.0</ele><time>2026-04-11T08:57:33.418Z</time></trkpt><trkpt lat="43.9110367" lon="11.2776733"><ele>304.59999999999997</ele><time>2026-04-11T08:57:34.417Z</time></trkpt><trkpt lat="43.9109783" lon="11.2775283"><ele>305.2</ele><time>2026-04-11T08:57:35.419Z</time></trkpt><trkpt lat="43.910915" lon="11.2773983"><ele>305.79999999999995</ele><time>2026-04-11T08:57:36.418Z</time></trkpt><trkpt lat="43.9108517" lon="11.277285"><ele>306.4</ele><time>2026-04-11T08:57:37.418Z</time></trkpt><trkpt lat="43.91079" lon="11.277195"><ele>307.0</ele><time>2026-04-11T08:57:38.418Z</time></trkpt><trkpt lat="43.910725" lon="11.2771017"><ele>310.4</ele><time>2026-04-11T08:57:39.418Z</time></trkpt><trkpt lat="43.91064" lon="11.2769967"><ele>313.79999999999995</ele><time>2026-04-11T08:57:40.418Z</time></trkpt><trkpt lat="43.9105517" lon="11.276915"><ele>317.2</ele><time>2026-04-11T08:57:41.419Z</time></trkpt><trkpt lat="43.9104667" lon="11.2768383"><ele>320.59999999999997</ele><time>2026-04-11T08:57:42.418Z</time></trkpt><trkpt lat="43.9103983" lon="11.2767733"><ele>324.0</ele><time>2026-04-11T08:57:43.418Z</time></trkpt><trkpt lat="43.91034" lon="11.2767"><ele>324.0</ele><time>2026-04-11T08:57:44.417Z</time></trkpt><trkpt lat="43.91029" lon="11.27661"><ele>324.0</ele><time>2026-04-11T08:57:45.418Z</time></trkpt><trkpt lat="43.910245" lon="11.2764967"><ele>324.0</ele><time>2026-04-11T08:57:46.418Z</time></trkpt><trkpt lat="43.9102133" lon="11.276365"><ele>324.0</ele><time>2026-04-11T08:57:47.418Z</time></trkpt><trkpt lat="43.9101967" lon="11.276215"><ele>324.0</ele><time>2026-04-11T08:57:48.418Z</time></trkpt><trkpt lat="43.9101767" lon="11.27605"><ele>326.2</ele><time>2026-04-11T08:57:49.417Z</time></trkpt><trkpt lat="43.9101617" lon="11.2758933"><ele>328.4</ele><time>2026-04-11T08:57:50.418Z</time></trkpt><trkpt lat="43.9101617" lon="11.2757567"><ele>330.6</ele><time>2026-04-11T08:57:51.417Z</time></trkpt><trkpt lat="43.91018" lon="11.2756283"><ele>332.8</ele><time>2026-04-11T08:57:52.418Z</time></trkpt><trkpt lat="43.910215" lon="11.275515"><ele>335.0</ele><time>2026-04-11T08:57:53.417Z</time></trkpt><trkpt lat="43.910255" lon="11.2754167"><ele>337.8</ele><time>2026-04-11T08:57:54.418Z</time></trkpt><trkpt lat="43.9102983" lon="11.2753317"><ele>340.6</ele><time>2026-04-11T08:57:55.418Z</time></trkpt><trkpt lat="43.910355" lon="11.2752633"><ele>343.4</ele><time>2026-04-11T08:57:56.418Z</time></trkpt><trkpt lat="43.910435" lon="11.2752283"><ele>346.2</ele><time>2026-04-11T08:57:57.418Z</time></trkpt><trkpt lat="43.9105383" lon="11.275205"><ele>349.0</ele><time>2026-04-11T08:57:58.418Z</time></trkpt><trkpt lat="43.9106633" lon="11.2751867"><ele>349.0</ele><time>2026-04-11T08:57:59.418Z</time></trkpt><trkpt lat="43.9108017" lon="11.2751667"><ele>349.0</ele><time>2026-04-11T08:58:00.417Z</time></trkpt><trkpt lat="43.91093" lon="11.275145"><ele>349.0</ele><time>2026-04-11T08:58:01.421Z</time></trkpt><trkpt lat="43.9110567" lon="11.2751317"><ele>349.0</ele><time>2026-04-11T08:58:02.418Z</time></trkpt><trkpt lat="43.911165" lon="11.2751233"><ele>350.5</ele><time>2026-04-11T08:58:03.417Z</time></trkpt><trkpt lat="43.911265" lon="11.2751117"><ele>352.0</ele><time>2026-04-11T08:58:04.417Z</time></trkpt><trkpt lat="43.9113683" lon="11.27511"><ele>353.5</ele><time>2026-04-11T08:58:05.418Z</time></trkpt><trkpt lat="43.91146" lon="11.2751217"><ele>355.0</ele><time>2026-04-11T08:58:06.417Z</time></trkpt><trkpt lat="43.911545" lon="11.2751467"><ele>356.5</ele><time>2026-04-11T08:58:07.418Z</time></trkpt><trkpt lat="43.9116067" lon="11.2751683"><ele>358.0</ele><time>2026-04-11T08:58:08.418Z</time></trkpt><trkpt lat="43.91168" lon="11.2751933"><ele>359.2</ele><time>2026-04-11T08:58:09.417Z</time></trkpt><trkpt lat="43.91176" lon="11.2752167"><ele>360.4</ele><time>2026-04-11T08:58:10.417Z</time></trkpt><trkpt lat="43.9118517" lon="11.27523"><ele>361.59999999999997</ele><time>2026-04-11T08:58:11.417Z</time></trkpt><trkpt lat="43.911955" lon="11.2752283"><ele>362.79999999999995</ele><time>2026-04-11T08:58:12.417Z</time></trkpt><trkpt lat="43.9120517" lon="11.2752183"><ele>364.0</ele><time>2026-04-11T08:58:13.418Z</time></trkpt><trkpt lat="43.9121417" lon="11.275205"><ele>364.0</ele><time>2026-04-11T08:58:14.418Z</time></trkpt><trkpt lat="43.9122117" lon="11.27519"><ele>364.0</ele><time>2026-04-11T08:58:15.418Z</time></trkpt><trkpt lat="43.9122733" lon="11.275165"><ele>364.0</ele><time>2026-04-11T08:58:16.419Z</time></trkpt><trkpt lat="43.9123317" lon="11.2751217"><ele>364.0</ele><time>2026-04-11T08:58:17.418Z</time></trkpt><trkpt lat="43.9124" lon="11.274985"><ele>364.0</ele><time>2026-04-11T08:58:19.418Z</time></trkpt><trkpt lat="43.9124067" lon="11.2748967"><ele>364.0</ele><time>2026-04-11T08:58:20.418Z</time></trkpt><trkpt lat="43.9124" lon="11.2748"><ele>364.8333333333333</ele><time>2026-04-11T08:58:21.419Z</time></trkpt><trkpt lat="43.9123883" lon="11.2746867"><ele>365.66666666666663</ele><time>2026-04-11T08:58:22.418Z</time></trkpt><trkpt lat="43.9123783" lon="11.2745617"><ele>366.5</ele><time>2026-04-11T08:58:23.417Z</time></trkpt><trkpt lat="43.9123733" lon="11.2744333"><ele>367.3333333333333</ele><time>2026-04-11T08:58:24.419Z</time></trkpt><trkpt lat="43.9123683" lon="11.2743117"><ele>368.1666666666667</ele><time>2026-04-11T08:58:25.418Z</time></trkpt><trkpt lat="43.9123633" lon="11.2741983"><ele>369.0</ele><time>2026-04-11T08:58:26.419Z</time></trkpt><trkpt lat="43.912355" lon="11.274085"><ele>369.0</ele><time>2026-04-11T08:58:27.417Z</time></trkpt><trkpt lat="43.912335" lon="11.2739833"><ele>369.0</ele><time>2026-04-11T08:58:28.42Z</time></trkpt><trkpt lat="43.9123017" lon="11.2738983"><ele>369.0</ele><time>2026-04-11T08:58:29.42Z</time></trkpt><trkpt lat="43.9122533" lon="11.2738183"><ele>369.0</ele><time>2026-04-11T08:58:30.42Z</time></trkpt><trkpt lat="43.9121917" lon="11.2737417"><ele>369.0</ele><time>2026-04-11T08:58:31.42Z</time></trkpt><trkpt lat="43.9121017" lon="11.2736583"><ele>369.0</ele><time>2026-04-11T08:58:32.421Z</time></trkpt><trkpt lat="43.9120033" lon="11.27356"><ele>370.0</ele><time>2026-04-11T08:58:33.419Z</time></trkpt><trkpt lat="43.9119083" lon="11.2734617"><ele>371.0</ele><time>2026-04-11T08:58:34.421Z</time></trkpt><trkpt lat="43.9118233" lon="11.2733567"><ele>372.0</ele><time>2026-04-11T08:58:35.42Z</time></trkpt><trkpt lat="43.9117517" lon="11.2732567"><ele>373.0</ele><time>2026-04-11T08:58:36.419Z</time></trkpt><trkpt lat="43.9116867" lon="11.2731517"><ele>374.0</ele><time>2026-04-11T08:58:37.42Z</time></trkpt><trkpt lat="43.911635" lon="11.2730533"><ele>376.0</ele><time>2026-04-11T08:58:38.42Z</time></trkpt><trkpt lat="43.9115917" lon="11.2729567"><ele>378.0</ele><time>2026-04-11T08:58:39.418Z</time></trkpt><trkpt lat="43.91155" lon="11.2728533"><ele>380.0</ele><time>2026-04-11T08:58:40.418Z</time></trkpt><trkpt lat="43.9115067" lon="11.27275"><ele>382.0</ele><time>2026-04-11T08:58:41.421Z</time></trkpt><trkpt lat="43.911465" lon="11.2726483"><ele>383.99999999999994</ele><time>2026-04-11T08:58:42.42Z</time></trkpt><trkpt lat="43.9114267" lon="11.2725467"><ele>386.0</ele><time>2026-04-11T08:58:43.419Z</time></trkpt><trkpt lat="43.9113883" lon="11.2724517"><ele>385.99999999999994</ele><time>2026-04-11T08:58:44.419Z</time></trkpt><trkpt lat="43.9113533" lon="11.2723617"><ele>386.0</ele><time>2026-04-11T08:58:45.419Z</time></trkpt><trkpt lat="43.9113283" lon="11.2722083"><ele>386.0</ele><time>2026-04-11T08:58:47.42Z</time></trkpt><trkpt lat="43.9113317" lon="11.2720483"><ele>386.0</ele><time>2026-04-11T08:58:49.419Z</time></trkpt><trkpt lat="43.9113533" lon="11.2719633"><ele>385.99999999999994</ele><time>2026-04-11T08:58:50.42Z</time></trkpt><trkpt lat="43.9113833" lon="11.2718683"><ele>386.0</ele><time>2026-04-11T08:58:51.419Z</time></trkpt><trkpt lat="43.9114333" lon="11.2717717"><ele>388.49999999999994</ele><time>2026-04-11T08:58:52.421Z</time></trkpt><trkpt lat="43.911475" lon="11.2716817"><ele>391.0</ele><time>2026-04-11T08:58:53.42Z</time></trkpt><trkpt lat="43.9115283" lon="11.271585"><ele>393.5</ele><time>2026-04-11T08:58:54.421Z</time></trkpt><trkpt lat="43.9115933" lon="11.271485"><ele>396.0</ele><time>2026-04-11T08:58:55.42Z</time></trkpt><trkpt lat="43.9116533" lon="11.27138"><ele>398.49999999999994</ele><time>2026-04-11T08:58:56.419Z</time></trkpt><trkpt lat="43.9116983" lon="11.27129"><ele>401.0</ele><time>2026-04-11T08:58:57.418Z</time></trkpt><trkpt lat="43.9117417" lon="11.2712017"><ele>401.3333333333333</ele><time>2026-04-11T08:58:58.418Z</time></trkpt><trkpt lat="43.911785" lon="11.2711117"><ele>401.66666666666663</ele><time>2026-04-11T08:58:59.419Z</time></trkpt><trkpt lat="43.9118433" lon="11.2710183"><ele>402.0</ele><time>2026-04-11T08:59:00.419Z</time></trkpt><trkpt lat="43.9119017" lon="11.2709233"><ele>402.33333333333337</ele><time>2026-04-11T08:59:01.419Z</time></trkpt><trkpt lat="43.9119617" lon="11.2708283"><ele>402.6666666666667</ele><time>2026-04-11T08:59:02.42Z</time></trkpt><trkpt lat="43.9120217" lon="11.270735"><ele>403.0</ele><time>2026-04-11T08:59:03.419Z</time></trkpt><trkpt lat="43.9120817" lon="11.27065"><ele>407.59999999999997</ele><time>2026-04-11T08:59:04.419Z</time></trkpt><trkpt lat="43.9121517" lon="11.2705617"><ele>412.2</ele><time>2026-04-11T08:59:05.422Z</time></trkpt><trkpt lat="43.9122233" lon="11.2704767"><ele>416.8</ele><time>2026-04-11T08:59:06.419Z</time></trkpt><trkpt lat="43.9123167" lon="11.2703817"><ele>421.4</ele><time>2026-04-11T08:59:07.42Z</time></trkpt><trkpt lat="43.9124233" lon="11.2702833"><ele>426.0</ele><time>2026-04-11T08:59:08.42Z</time></trkpt><trkpt lat="43.9125483" lon="11.270175"><ele>426.0</ele><time>2026-04-11T08:59:09.418Z</time></trkpt><trkpt lat="43.9126717" lon="11.2700683"><ele>426.0</ele><time>2026-04-11T08:59:10.419Z</time></trkpt><trkpt lat="43.9127833" lon="11.2699633"><ele>426.0</ele><time>2026-04-11T08:59:11.42Z</time></trkpt><trkpt lat="43.912875" lon="11.2698733"><ele>426.0</ele><time>2026-04-11T08:59:12.42Z</time></trkpt><trkpt lat="43.91297" lon="11.269785"><ele>428.3333333333333</ele><time>2026-04-11T08:59:13.42Z</time></trkpt><trkpt lat="43.9130383" lon="11.26971"><ele>430.66666666666663</ele><time>2026-04-11T08:59:14.421Z</time></trkpt><trkpt lat="43.913105" lon="11.26963"><ele>433.0</ele><time>2026-04-11T08:59:15.421Z</time></trkpt><trkpt lat="43.9131567" lon="11.2695517"><ele>435.3333333333333</ele><time>2026-04-11T08:59:16.42Z</time></trkpt><trkpt lat="43.9131983" lon="11.269465"><ele>437.66666666666663</ele><time>2026-04-11T08:59:17.42Z</time></trkpt><trkpt lat="43.9132317" lon="11.269375"><ele>440.0</ele><time>2026-04-11T08:59:18.419Z</time></trkpt><trkpt lat="43.913255" lon="11.26928"><ele>439.99999999999994</ele><time>2026-04-11T08:59:19.419Z</time></trkpt><trkpt lat="43.913265" lon="11.26918"><ele>440.0</ele><time>2026-04-11T08:59:20.421Z</time></trkpt><trkpt lat="43.9132767" lon="11.2690867"><ele>440.0</ele><time>2026-04-11T08:59:21.42Z</time></trkpt><trkpt lat="43.9133133" lon="11.2689717"><ele>440.0</ele><time>2026-04-11T08:59:23.421Z</time></trkpt><trkpt lat="43.9133583" lon="11.26891"><ele>440.0</ele><time>2026-04-11T08:59:25.421Z</time></trkpt><trkpt lat="43.9134283" lon="11.2688967"><ele>439.99999999999994</ele><time>2026-04-11T08:59:27.42Z</time></trkpt><trkpt lat="43.9135017" lon="11.2689167"><ele>440.0</ele><time>2026-04-11T08:59:29.419Z</time></trkpt><trkpt lat="43.913605" lon="11.2689217"><ele>440.0</ele><time>2026-04-11T08:59:57.42Z</time></trkpt><trkpt lat="43.9137067" lon="11.268925"><ele>440.0</ele><time>2026-04-11T08:59:59.422Z</time></trkpt><trkpt lat="43.9138383" lon="11.2689283"><ele>440.0</ele><time>2026-04-11T09:00:01.42Z</time></trkpt><trkpt lat="43.9139233" lon="11.2689383"><ele>440.0</ele><time>2026-04-11T09:00:02.42Z</time></trkpt><trkpt lat="43.91401" lon="11.2689433"><ele>440.0</ele><time>2026-04-11T09:00:03.42Z</time></trkpt><trkpt lat="43.9141017" lon="11.2689483"><ele>439.99999999999994</ele><time>2026-04-11T09:00:04.42Z</time></trkpt><trkpt lat="43.9141883" lon="11.2689583"><ele>440.0</ele><time>2026-04-11T09:00:05.42Z</time></trkpt><trkpt lat="43.914275" lon="11.2689667"><ele>440.0</ele><time>2026-04-11T09:00:06.419Z</time></trkpt><trkpt lat="43.9143633" lon="11.26898"><ele>440.0</ele><time>2026-04-11T09:00:07.42Z</time></trkpt><trkpt lat="43.9144467" lon="11.2689867"><ele>439.99999999999994</ele><time>2026-04-11T09:00:08.421Z</time></trkpt><trkpt lat="43.9145217" lon="11.2689867"><ele>440.0</ele><time>2026-04-11T09:00:09.418Z</time></trkpt><trkpt lat="43.91461" lon="11.26898"><ele>439.6</ele><time>2026-04-11T09:00:10.419Z</time></trkpt><trkpt lat="43.9146933" lon="11.2689633"><ele>439.2</ele><time>2026-04-11T09:00:11.418Z</time></trkpt><trkpt lat="43.9147867" lon="11.2689433"><ele>438.79999999999995</ele><time>2026-04-11T09:00:12.419Z</time></trkpt><trkpt lat="43.9148883" lon="11.2689183"><ele>438.4</ele><time>2026-04-11T09:00:13.42Z</time></trkpt><trkpt lat="43.9149817" lon="11.2688917"><ele>438.0</ele><time>2026-04-11T09:00:14.421Z</time></trkpt><trkpt lat="43.9150717" lon="11.268875"><ele>437.8333333333333</ele><time>2026-04-11T09:00:15.418Z</time></trkpt><trkpt lat="43.9151567" lon="11.2688783"><ele>437.66666666666663</ele><time>2026-04-11T09:00:16.42Z</time></trkpt><trkpt lat="43.91524" lon="11.2688933"><ele>437.5</ele><time>2026-04-11T09:00:17.418Z</time></trkpt><trkpt lat="43.915315" lon="11.268925"><ele>437.3333333333333</ele><time>2026-04-11T09:00:18.418Z</time></trkpt><trkpt lat="43.9153867" lon="11.2689533"><ele>437.16666666666663</ele><time>2026-04-11T09:00:19.418Z</time></trkpt><trkpt lat="43.9154517" lon="11.2689817"><ele>437.0</ele><time>2026-04-11T09:00:20.419Z</time></trkpt><trkpt lat="43.9155633" lon="11.2690233"><ele>437.0</ele><time>2026-04-11T09:00:22.418Z</time></trkpt><trkpt lat="43.9156333" lon="11.2690383"><ele>437.0</ele><time>2026-04-11T09:00:23.42Z</time></trkpt><trkpt lat="43.915705" lon="11.269055"><ele>437.0</ele><time>2026-04-11T09:00:24.42Z</time></trkpt><trkpt lat="43.9157733" lon="11.2690733"><ele>437.0</ele><time>2026-04-11T09:00:25.421Z</time></trkpt><trkpt lat="43.9158433" lon="11.2690967"><ele>437.0</ele><time>2026-04-11T09:00:26.421Z</time></trkpt><trkpt lat="43.9159133" lon="11.2691217"><ele>437.0</ele><time>2026-04-11T09:00:27.42Z</time></trkpt><trkpt lat="43.915995" lon="11.269145"><ele>437.0</ele><time>2026-04-11T09:00:28.42Z</time></trkpt><trkpt lat="43.9160833" lon="11.2691667"><ele>438.99999999999994</ele><time>2026-04-11T09:00:29.419Z</time></trkpt><trkpt lat="43.9161733" lon="11.2691933"><ele>441.0</ele><time>2026-04-11T09:00:30.419Z</time></trkpt><trkpt lat="43.916265" lon="11.26922"><ele>443.0</ele><time>2026-04-11T09:00:31.42Z</time></trkpt><trkpt lat="43.9163517" lon="11.26925"><ele>445.0</ele><time>2026-04-11T09:00:32.421Z</time></trkpt><trkpt lat="43.916435" lon="11.2692833"><ele>446.99999999999994</ele><time>2026-04-11T09:00:33.418Z</time></trkpt><trkpt lat="43.9165183" lon="11.2693117"><ele>449.0</ele><time>2026-04-11T09:00:34.421Z</time></trkpt><trkpt lat="43.9166117" lon="11.2693383"><ele>448.99999999999994</ele><time>2026-04-11T09:00:35.419Z</time></trkpt><trkpt lat="43.9167" lon="11.2693567"><ele>449.0</ele><time>2026-04-11T09:00:36.419Z</time></trkpt><trkpt lat="43.9167733" lon="11.2693567"><ele>449.0</ele><time>2026-04-11T09:00:37.419Z</time></trkpt><trkpt lat="43.916855" lon="11.269345"><ele>449.0</ele><time>2026-04-11T09:00:38.419Z</time></trkpt><trkpt lat="43.9169433" lon="11.2693217"><ele>448.99999999999994</ele><time>2026-04-11T09:00:39.418Z</time></trkpt><trkpt lat="43.917035" lon="11.269285"><ele>449.0</ele><time>2026-04-11T09:00:40.421Z</time></trkpt><trkpt lat="43.91713" lon="11.2692433"><ele>450.6</ele><time>2026-04-11T09:00:41.419Z</time></trkpt><trkpt lat="43.9172217" lon="11.269205"><ele>452.2</ele><time>2026-04-11T09:00:42.418Z</time></trkpt><trkpt lat="43.9173217" lon="11.269185"><ele>453.80000000000007</ele><time>2026-04-11T09:00:43.418Z</time></trkpt><trkpt lat="43.9174283" lon="11.2691717"><ele>455.40000000000003</ele><time>2026-04-11T09:00:44.42Z</time></trkpt><trkpt lat="43.9175317" lon="11.26916"><ele>457.0</ele><time>2026-04-11T09:00:45.419Z</time></trkpt><trkpt lat="43.9176283" lon="11.2691517"><ele>459.40000000000003</ele><time>2026-04-11T09:00:46.419Z</time></trkpt><trkpt lat="43.9177167" lon="11.2691467"><ele>461.80000000000007</ele><time>2026-04-11T09:00:47.418Z</time></trkpt><trkpt lat="43.91781" lon="11.26914"><ele>464.2</ele><time>2026-04-11T09:00:48.418Z</time></trkpt><trkpt lat="43.9178983" lon="11.269145"><ele>466.6</ele><time>2026-04-11T09:00:49.419Z</time></trkpt><trkpt lat="43.9179917" lon="11.2691667"><ele>469.0</ele><time>2026-04-11T09:00:50.42Z</time></trkpt><trkpt lat="43.918095" lon="11.2692017"><ele>469.0</ele><time>2026-04-11T09:00:51.418Z</time></trkpt><trkpt lat="43.9181817" lon="11.269235"><ele>469.0</ele><time>2026-04-11T09:00:52.419Z</time></trkpt><trkpt lat="43.9182867" lon="11.26926"><ele>469.0</ele><time>2026-04-11T09:00:53.418Z</time></trkpt><trkpt lat="43.9183933" lon="11.2692633"><ele>469.0</ele><time>2026-04-11T09:00:54.418Z</time></trkpt><trkpt lat="43.9184833" lon="11.2692617"><ele>469.0</ele><time>2026-04-11T09:00:55.419Z</time></trkpt><trkpt lat="43.918565" lon="11.2692583"><ele>471.6666666666667</ele><time>2026-04-11T09:00:56.419Z</time></trkpt><trkpt lat="43.9186383" lon="11.2692567"><ele>474.33333333333337</ele><time>2026-04-11T09:00:57.417Z</time></trkpt><trkpt lat="43.9187017" lon="11.26927"><ele>477.0</ele><time>2026-04-11T09:00:58.418Z</time></trkpt><trkpt lat="43.91877" lon="11.2693"><ele>479.66666666666663</ele><time>2026-04-11T09:00:59.418Z</time></trkpt><trkpt lat="43.9188267" lon="11.2694267"><ele>482.3333333333333</ele><time>2026-04-11T09:01:00.418Z</time></trkpt><trkpt lat="43.9188667" lon="11.2695383"><ele>485.0</ele><time>2026-04-11T09:01:01.419Z</time></trkpt><trkpt lat="43.9189083" lon="11.2696617"><ele>482.0</ele><time>2026-04-11T09:01:02.42Z</time></trkpt><trkpt lat="43.9189783" lon="11.2697867"><ele>479.0</ele><time>2026-04-11T09:01:03.418Z</time></trkpt><trkpt lat="43.9190467" lon="11.2699317"><ele>476.0</ele><time>2026-04-11T09:01:04.419Z</time></trkpt><trkpt lat="43.9191133" lon="11.270085"><ele>473.0</ele><time>2026-04-11T09:01:05.419Z</time></trkpt><trkpt lat="43.9191817" lon="11.2702367"><ele>475.75</ele><time>2026-04-11T09:01:06.419Z</time></trkpt><trkpt lat="43.9192467" lon="11.2703767"><ele>478.5</ele><time>2026-04-11T09:01:07.418Z</time></trkpt><trkpt lat="43.9193083" lon="11.270485"><ele>481.25</ele><time>2026-04-11T09:01:08.418Z</time></trkpt><trkpt lat="43.9193667" lon="11.2706"><ele>484.0</ele><time>2026-04-11T09:01:09.421Z</time></trkpt><trkpt lat="43.9194683" lon="11.27076"><ele>484.00000000000006</ele><time>2026-04-11T09:01:11.42Z</time></trkpt><trkpt lat="43.91953" lon="11.2708533"><ele>484.0</ele><time>2026-04-11T09:01:12.42Z</time></trkpt><trkpt lat="43.9196083" lon="11.2709067"><ele>484.0</ele><time>2026-04-11T09:01:13.42Z</time></trkpt><trkpt lat="43.9196883" lon="11.270945"><ele>484.0</ele><time>2026-04-11T09:01:14.421Z</time></trkpt><trkpt lat="43.9197633" lon="11.270985"><ele>484.00000000000006</ele><time>2026-04-11T09:01:15.419Z</time></trkpt><trkpt lat="43.9198383" lon="11.2709717"><ele>484.0</ele><time>2026-04-11T09:01:16.42Z</time></trkpt><trkpt lat="43.9199333" lon="11.2709383"><ele>484.00000000000006</ele><time>2026-04-11T09:01:17.42Z</time></trkpt><trkpt lat="43.92002" lon="11.2709083"><ele>484.0</ele><time>2026-04-11T09:01:18.42Z</time></trkpt><trkpt lat="43.9200933" lon="11.2708983"><ele>484.0</ele><time>2026-04-11T09:01:19.42Z</time></trkpt><trkpt lat="43.9201583" lon="11.2709017"><ele>484.0</ele><time>2026-04-11T09:01:20.419Z</time></trkpt><trkpt lat="43.9202333" lon="11.2709233"><ele>484.00000000000006</ele><time>2026-04-11T09:01:21.42Z</time></trkpt><trkpt lat="43.9203017" lon="11.2709617"><ele>484.0</ele><time>2026-04-11T09:01:22.421Z</time></trkpt><trkpt lat="43.9203917" lon="11.270995"><ele>487.79999999999995</ele><time>2026-04-11T09:01:23.421Z</time></trkpt><trkpt lat="43.920475" lon="11.2710133"><ele>491.59999999999997</ele><time>2026-04-11T09:01:24.42Z</time></trkpt><trkpt lat="43.9205733" lon="11.2710417"><ele>495.4</ele><time>2026-04-11T09:01:25.42Z</time></trkpt><trkpt lat="43.9206683" lon="11.27106"><ele>499.2</ele><time>2026-04-11T09:01:26.421Z</time></trkpt><trkpt lat="43.9207767" lon="11.2710883"><ele>503.0</ele><time>2026-04-11T09:01:27.419Z</time></trkpt><trkpt lat="43.9208783" lon="11.2711067"><ele>505.0</ele><time>2026-04-11T09:01:28.422Z</time></trkpt><trkpt lat="43.9209767" lon="11.2711233"><ele>506.99999999999994</ele><time>2026-04-11T09:01:29.42Z</time></trkpt><trkpt lat="43.92107" lon="11.271155"><ele>508.99999999999994</ele><time>2026-04-11T09:01:30.419Z</time></trkpt><trkpt lat="43.921175" lon="11.2712017"><ele>511.0</ele><time>2026-04-11T09:01:31.421Z</time></trkpt><trkpt lat="43.9212633" lon="11.271245"><ele>513.0</ele><time>2026-04-11T09:01:32.42Z</time></trkpt><trkpt lat="43.921355" lon="11.271275"><ele>513.0</ele><time>2026-04-11T09:01:33.42Z</time></trkpt><trkpt lat="43.9214333" lon="11.2713033"><ele>513.0</ele><time>2026-04-11T09:01:34.421Z</time></trkpt><trkpt lat="43.9215267" lon="11.2713267"><ele>513.0</ele><time>2026-04-11T09:01:35.422Z</time></trkpt><trkpt lat="43.9216017" lon="11.2713317"><ele>513.0</ele><time>2026-04-11T09:01:36.419Z</time></trkpt><trkpt lat="43.9216733" lon="11.2713217"><ele>513.0</ele><time>2026-04-11T09:01:37.42Z</time></trkpt><trkpt lat="43.9217383" lon="11.2712933"><ele>513.0</ele><time>2026-04-11T09:01:38.421Z</time></trkpt><trkpt lat="43.9218233" lon="11.2712517"><ele>512.3333333333334</ele><time>2026-04-11T09:01:39.42Z</time></trkpt><trkpt lat="43.92191" lon="11.2712183"><ele>511.66666666666663</ele><time>2026-04-11T09:01:40.419Z</time></trkpt><trkpt lat="43.9219867" lon="11.271175"><ele>511.0</ele><time>2026-04-11T09:01:41.421Z</time></trkpt><trkpt lat="43.9220717" lon="11.2711383"><ele>510.3333333333333</ele><time>2026-04-11T09:01:42.419Z</time></trkpt><trkpt lat="43.9221517" lon="11.2711017"><ele>509.66666666666663</ele><time>2026-04-11T09:01:43.42Z</time></trkpt><trkpt lat="43.92224" lon="11.2710683"><ele>509.0</ele><time>2026-04-11T09:01:44.42Z</time></trkpt><trkpt lat="43.92231" lon="11.2710333"><ele>508.99999999999994</ele><time>2026-04-11T09:01:45.421Z</time></trkpt><trkpt lat="43.9224033" lon="11.270985"><ele>509.0</ele><time>2026-04-11T09:01:46.42Z</time></trkpt><trkpt lat="43.9224833" lon="11.2709433"><ele>509.0</ele><time>2026-04-11T09:01:47.421Z</time></trkpt><trkpt lat="43.9225667" lon="11.270905"><ele>509.0</ele><time>2026-04-11T09:01:48.42Z</time></trkpt><trkpt lat="43.9226367" lon="11.2708683"><ele>508.99999999999994</ele><time>2026-04-11T09:01:49.42Z</time></trkpt><trkpt lat="43.9227033" lon="11.270845"><ele>509.0</ele><time>2026-04-11T09:01:50.421Z</time></trkpt><trkpt lat="43.9227817" lon="11.2708333"><ele>505.8333333333333</ele><time>2026-04-11T09:01:51.42Z</time></trkpt><trkpt lat="43.9228717" lon="11.2708217"><ele>502.66666666666663</ele><time>2026-04-11T09:01:52.421Z</time></trkpt><trkpt lat="43.9229567" lon="11.2708183"><ele>499.5</ele><time>2026-04-11T09:01:53.42Z</time></trkpt><trkpt lat="43.923035" lon="11.270805"><ele>496.33333333333337</ele><time>2026-04-11T09:01:54.42Z</time></trkpt><trkpt lat="43.9231183" lon="11.270785"><ele>493.1666666666667</ele><time>2026-04-11T09:01:55.421Z</time></trkpt><trkpt lat="43.9232033" lon="11.2707517"><ele>490.0</ele><time>2026-04-11T09:01:56.42Z</time></trkpt><trkpt lat="43.923285" lon="11.27072"><ele>490.0</ele><time>2026-04-11T09:01:57.419Z</time></trkpt><trkpt lat="43.9233817" lon="11.2706567"><ele>490.0</ele><time>2026-04-11T09:01:58.421Z</time></trkpt><trkpt lat="43.9234467" lon="11.2705717"><ele>490.0</ele><time>2026-04-11T09:01:59.421Z</time></trkpt><trkpt lat="43.9235317" lon="11.2704817"><ele>490.0</ele><time>2026-04-11T09:02:00.419Z</time></trkpt><trkpt lat="43.9236033" lon="11.270395"><ele>490.0</ele><time>2026-04-11T09:02:01.42Z</time></trkpt><trkpt lat="43.9236767" lon="11.2703083"><ele>487.00000000000006</ele><time>2026-04-11T09:02:02.42Z</time></trkpt><trkpt lat="43.92371" lon="11.2702183"><ele>484.0</ele><time>2026-04-11T09:02:03.42Z</time></trkpt><trkpt lat="43.9237733" lon="11.270135"><ele>481.0</ele><time>2026-04-11T09:02:04.419Z</time></trkpt><trkpt lat="43.923835" lon="11.2700483"><ele>478.0</ele><time>2026-04-11T09:02:05.421Z</time></trkpt><trkpt lat="43.9238917" lon="11.2699617"><ele>475.00000000000006</ele><time>2026-04-11T09:02:06.419Z</time></trkpt><trkpt lat="43.9239367" lon="11.2698733"><ele>472.0</ele><time>2026-04-11T09:02:07.42Z</time></trkpt><trkpt lat="43.9239817" lon="11.2697967"><ele>471.1666666666667</ele><time>2026-04-11T09:02:08.42Z</time></trkpt><trkpt lat="43.92403" lon="11.2696317"><ele>470.33333333333337</ele><time>2026-04-11T09:02:10.42Z</time></trkpt><trkpt lat="43.9240367" lon="11.26954"><ele>469.5</ele><time>2026-04-11T09:02:11.419Z</time></trkpt><trkpt lat="43.9240467" lon="11.2694533"><ele>468.66666666666663</ele><time>2026-04-11T09:02:12.42Z</time></trkpt><trkpt lat="43.9240417" lon="11.2693517"><ele>467.8333333333333</ele><time>2026-04-11T09:02:13.42Z</time></trkpt><trkpt lat="43.9240433" lon="11.2692467"><ele>467.0</ele><time>2026-04-11T09:02:14.421Z</time></trkpt><trkpt lat="43.9240517" lon="11.2691217"><ele>467.0</ele><time>2026-04-11T09:02:15.42Z</time></trkpt><trkpt lat="43.9240583" lon="11.26899"><ele>467.00000000000006</ele><time>2026-04-11T09:02:16.42Z</time></trkpt><trkpt lat="43.9240733" lon="11.2688583"><ele>467.00000000000006</ele><time>2026-04-11T09:02:17.419Z</time></trkpt><trkpt lat="43.9241017" lon="11.26873"><ele>467.0</ele><time>2026-04-11T09:02:18.421Z</time></trkpt><trkpt lat="43.92415" lon="11.2685933"><ele>467.0</ele><time>2026-04-11T09:02:19.419Z</time></trkpt><trkpt lat="43.924205" lon="11.26846"><ele>465.25</ele><time>2026-04-11T09:02:20.42Z</time></trkpt><trkpt lat="43.9242767" lon="11.2683417"><ele>463.5</ele><time>2026-04-11T09:02:21.42Z</time></trkpt><trkpt lat="43.92436" lon="11.2681983"><ele>461.75</ele><time>2026-04-11T09:02:22.42Z</time></trkpt><trkpt lat="43.9244683" lon="11.2680967"><ele>460.0</ele><time>2026-04-11T09:02:23.421Z</time></trkpt><trkpt lat="43.924575" lon="11.2679917"><ele>460.0</ele><time>2026-04-11T09:02:24.42Z</time></trkpt><trkpt lat="43.9246783" lon="11.2678917"><ele>460.0</ele><time>2026-04-11T09:02:25.419Z</time></trkpt><trkpt lat="43.9247133" lon="11.2677683"><ele>460.0</ele><time>2026-04-11T09:02:26.419Z</time></trkpt><trkpt lat="43.924785" lon="11.2676867"><ele>460.0</ele><time>2026-04-11T09:02:27.421Z</time></trkpt><trkpt lat="43.9248567" lon="11.2676183"><ele>460.0</ele><time>2026-04-11T09:02:28.42Z</time></trkpt><trkpt lat="43.9249217" lon="11.267555"><ele>460.00000000000006</ele><time>2026-04-11T09:02:29.42Z</time></trkpt><trkpt lat="43.9249767" lon="11.2674917"><ele>460.0</ele><time>2026-04-11T09:02:30.421Z</time></trkpt><trkpt lat="43.9250317" lon="11.2674233"><ele>460.0</ele><time>2026-04-11T09:02:31.419Z</time></trkpt><trkpt lat="43.925085" lon="11.2673417"><ele>460.0</ele><time>2026-04-11T09:02:32.419Z</time></trkpt><trkpt lat="43.9251333" lon="11.2672117"><ele>460.00000000000006</ele><time>2026-04-11T09:02:33.421Z</time></trkpt><trkpt lat="43.9251767" lon="11.2670633"><ele>460.0</ele><time>2026-04-11T09:02:34.42Z</time></trkpt><trkpt lat="43.9252167" lon="11.266935"><ele>460.0</ele><time>2026-04-11T09:02:35.421Z</time></trkpt><trkpt lat="43.9252517" lon="11.26682"><ele>460.0</ele><time>2026-04-11T09:02:36.42Z</time></trkpt><trkpt lat="43.9252967" lon="11.2667083"><ele>460.0</ele><time>2026-04-11T09:02:37.421Z</time></trkpt><trkpt lat="43.92535" lon="11.26661"><ele>460.0</ele><time>2026-04-11T09:02:38.422Z</time></trkpt><trkpt lat="43.925425" lon="11.26652"><ele>460.0</ele><time>2026-04-11T09:02:39.419Z</time></trkpt><trkpt lat="43.925515" lon="11.26644"><ele>460.4</ele><time>2026-04-11T09:02:40.421Z</time></trkpt><trkpt lat="43.925605" lon="11.2663783"><ele>460.8</ele><time>2026-04-11T09:02:41.418Z</time></trkpt><trkpt lat="43.9257017" lon="11.26633"><ele>461.20000000000005</ele><time>2026-04-11T09:02:42.425Z</time></trkpt><trkpt lat="43.9258033" lon="11.266315"><ele>461.6</ele><time>2026-04-11T09:02:43.42Z</time></trkpt><trkpt lat="43.925925" lon="11.2663483"><ele>462.0</ele><time>2026-04-11T09:02:44.42Z</time></trkpt><trkpt lat="43.926035" lon="11.26639"><ele>462.0</ele><time>2026-04-11T09:02:45.419Z</time></trkpt><trkpt lat="43.9261383" lon="11.2664317"><ele>462.0</ele><time>2026-04-11T09:02:46.422Z</time></trkpt><trkpt lat="43.92623" lon="11.266465"><ele>462.0</ele><time>2026-04-11T09:02:47.42Z</time></trkpt><trkpt lat="43.9263083" lon="11.2664867"><ele>462.0</ele><time>2026-04-11T09:02:48.42Z</time></trkpt><trkpt lat="43.9263917" lon="11.2665067"><ele>462.0</ele><time>2026-04-11T09:02:49.421Z</time></trkpt><trkpt lat="43.9264567" lon="11.2665"><ele>462.0</ele><time>2026-04-11T09:02:50.421Z</time></trkpt><trkpt lat="43.926565" lon="11.2664217"><ele>462.0</ele><time>2026-04-11T09:02:52.419Z</time></trkpt><trkpt lat="43.9266517" lon="11.2663617"><ele>462.0</ele><time>2026-04-11T09:02:53.419Z</time></trkpt><trkpt lat="43.9267483" lon="11.2663117"><ele>462.0</ele><time>2026-04-11T09:02:54.421Z</time></trkpt><trkpt lat="43.9268717" lon="11.266275"><ele>462.0</ele><time>2026-04-11T09:02:55.42Z</time></trkpt><trkpt lat="43.9269967" lon="11.266265"><ele>463.20000000000005</ele><time>2026-04-11T09:02:56.421Z</time></trkpt><trkpt lat="43.9271033" lon="11.266265"><ele>464.40000000000003</ele><time>2026-04-11T09:02:57.42Z</time></trkpt><trkpt lat="43.9272033" lon="11.266255"><ele>465.59999999999997</ele><time>2026-04-11T09:02:58.421Z</time></trkpt><trkpt lat="43.9272917" lon="11.2662317"><ele>466.79999999999995</ele><time>2026-04-11T09:02:59.421Z</time></trkpt><trkpt lat="43.9273767" lon="11.2661983"><ele>468.0</ele><time>2026-04-11T09:03:00.42Z</time></trkpt><trkpt lat="43.92746" lon="11.2661733"><ele>468.0</ele><time>2026-04-11T09:03:01.421Z</time></trkpt><trkpt lat="43.9275417" lon="11.26616"><ele>468.0</ele><time>2026-04-11T09:03:02.423Z</time></trkpt><trkpt lat="43.9276317" lon="11.2661517"><ele>468.0</ele><time>2026-04-11T09:03:03.418Z</time></trkpt><trkpt lat="43.9277167" lon="11.2661983"><ele>468.0</ele><time>2026-04-11T09:03:04.421Z</time></trkpt><trkpt lat="43.92779" lon="11.266255"><ele>468.0</ele><time>2026-04-11T09:03:05.421Z</time></trkpt><trkpt lat="43.92787" lon="11.2663033"><ele>468.0</ele><time>2026-04-11T09:03:06.42Z</time></trkpt><trkpt lat="43.9279433" lon="11.2663383"><ele>470.2</ele><time>2026-04-11T09:03:07.42Z</time></trkpt><trkpt lat="43.9280133" lon="11.2663467"><ele>472.4</ele><time>2026-04-11T09:03:08.419Z</time></trkpt><trkpt lat="43.9281067" lon="11.266315"><ele>474.59999999999997</ele><time>2026-04-11T09:03:10.42Z</time></trkpt><trkpt lat="43.9281783" lon="11.26625"><ele>476.79999999999995</ele><time>2026-04-11T09:03:12.42Z</time></trkpt><trkpt lat="43.9282633" lon="11.2661417"><ele>479.0</ele><time>2026-04-11T09:03:14.419Z</time></trkpt><trkpt lat="43.928335" lon="11.26603"><ele>478.99999999999994</ele><time>2026-04-11T09:03:16.419Z</time></trkpt><trkpt lat="43.9283883" lon="11.2659767"><ele>479.0</ele><time>2026-04-11T09:03:17.42Z</time></trkpt><trkpt lat="43.9284567" lon="11.26594"><ele>479.0</ele><time>2026-04-11T09:03:18.419Z</time></trkpt><trkpt lat="43.9285183" lon="11.2659033"><ele>479.0</ele><time>2026-04-11T09:03:19.42Z</time></trkpt><trkpt lat="43.9286383" lon="11.2658783"><ele>478.99999999999994</ele><time>2026-04-11T09:03:21.42Z</time></trkpt><trkpt lat="43.9287167" lon="11.2658933"><ele>479.0</ele><time>2026-04-11T09:03:22.419Z</time></trkpt><trkpt lat="43.9287917" lon="11.26591"><ele>478.8333333333333</ele><time>2026-04-11T09:03:23.42Z</time></trkpt><trkpt lat="43.9288767" lon="11.26594"><ele>478.66666666666663</ele><time>2026-04-11T09:03:24.422Z</time></trkpt><trkpt lat="43.9289617" lon="11.2659633"><ele>478.5</ele><time>2026-04-11T09:03:25.419Z</time></trkpt><trkpt lat="43.9290433" lon="11.26599"><ele>478.33333333333337</ele><time>2026-04-11T09:03:26.422Z</time></trkpt><trkpt lat="43.9291083" lon="11.266015"><ele>478.1666666666667</ele><time>2026-04-11T09:03:27.42Z</time></trkpt><trkpt lat="43.9292033" lon="11.2660617"><ele>478.0</ele><time>2026-04-11T09:03:29.421Z</time></trkpt><trkpt lat="43.9292717" lon="11.2661083"><ele>472.79999999999995</ele><time>2026-04-11T09:03:32.419Z</time></trkpt><trkpt lat="43.929345" lon="11.266115"><ele>467.59999999999997</ele><time>2026-04-11T09:03:47.42Z</time></trkpt><trkpt lat="43.929415" lon="11.2660317"><ele>462.40000000000003</ele><time>2026-04-11T09:03:49.421Z</time></trkpt><trkpt lat="43.929495" lon="11.265925"><ele>457.20000000000005</ele><time>2026-04-11T09:03:51.419Z</time></trkpt><trkpt lat="43.9295467" lon="11.2657883"><ele>452.0</ele><time>2026-04-11T09:03:53.42Z</time></trkpt><trkpt lat="43.929545" lon="11.2656217"><ele>450.0</ele><time>2026-04-11T09:03:55.419Z</time></trkpt><trkpt lat="43.9295283" lon="11.2654883"><ele>448.00000000000006</ele><time>2026-04-11T09:03:57.419Z</time></trkpt><trkpt lat="43.9295017" lon="11.2653983"><ele>446.00000000000006</ele><time>2026-04-11T09:03:59.421Z</time></trkpt><trkpt lat="43.9294267" lon="11.2652683"><ele>444.0</ele><time>2026-04-11T09:04:01.42Z</time></trkpt><trkpt lat="43.92938" lon="11.265155"><ele>442.0</ele><time>2026-04-11T09:04:03.419Z</time></trkpt><trkpt lat="43.9293417" lon="11.265065"><ele>442.00000000000006</ele><time>2026-04-11T09:04:05.42Z</time></trkpt><trkpt lat="43.9293783" lon="11.2649817"><ele>442.0</ele><time>2026-04-11T09:04:09.419Z</time></trkpt><trkpt lat="43.929425" lon="11.2648617"><ele>442.0</ele><time>2026-04-11T09:04:11.421Z</time></trkpt><trkpt lat="43.92947" lon="11.264785"><ele>442.0</ele><time>2026-04-11T09:04:12.418Z</time></trkpt><trkpt lat="43.9295133" lon="11.26469"><ele>442.00000000000006</ele><time>2026-04-11T09:04:13.423Z</time></trkpt><trkpt lat="43.9295567" lon="11.264585"><ele>442.0</ele><time>2026-04-11T09:04:14.42Z</time></trkpt><trkpt lat="43.9295867" lon="11.2644633"><ele>441.6</ele><time>2026-04-11T09:04:15.419Z</time></trkpt><trkpt lat="43.92961" lon="11.26434"><ele>441.20000000000005</ele><time>2026-04-11T09:04:16.419Z</time></trkpt><trkpt lat="43.9296367" lon="11.2642083"><ele>440.8</ele><time>2026-04-11T09:04:17.42Z</time></trkpt><trkpt lat="43.929665" lon="11.2640817"><ele>440.4</ele><time>2026-04-11T09:04:18.42Z</time></trkpt><trkpt lat="43.929695" lon="11.2638717"><ele>440.0</ele><time>2026-04-11T09:04:19.423Z</time></trkpt><trkpt lat="43.929735" lon="11.2637433"><ele>442.5</ele><time>2026-04-11T09:04:20.421Z</time></trkpt><trkpt lat="43.92976" lon="11.26356"><ele>445.0</ele><time>2026-04-11T09:04:21.419Z</time></trkpt><trkpt lat="43.9297833" lon="11.2633867"><ele>447.5</ele><time>2026-04-11T09:04:22.42Z</time></trkpt><trkpt lat="43.929785" lon="11.2631933"><ele>450.0</ele><time>2026-04-11T09:04:23.419Z</time></trkpt><trkpt lat="43.9298217" lon="11.2630967"><ele>451.6666666666667</ele><time>2026-04-11T09:04:24.42Z</time></trkpt><trkpt lat="43.9298633" lon="11.2630217"><ele>453.33333333333337</ele><time>2026-04-11T09:04:25.421Z</time></trkpt><trkpt lat="43.929935" lon="11.26295"><ele>455.0</ele><time>2026-04-11T09:04:26.421Z</time></trkpt><trkpt lat="43.9299983" lon="11.2628767"><ele>456.6666666666667</ele><time>2026-04-11T09:04:27.42Z</time></trkpt><trkpt lat="43.9300717" lon="11.26281"><ele>458.33333333333337</ele><time>2026-04-11T09:04:28.419Z</time></trkpt><trkpt lat="43.9301383" lon="11.2627517"><ele>460.0</ele><time>2026-04-11T09:04:29.421Z</time></trkpt><trkpt lat="43.9302033" lon="11.2626983"><ele>456.33333333333337</ele><time>2026-04-11T09:04:30.419Z</time></trkpt><trkpt lat="43.9302617" lon="11.262645"><ele>452.6666666666667</ele><time>2026-04-11T09:04:31.42Z</time></trkpt><trkpt lat="43.9303367" lon="11.26259"><ele>449.0</ele><time>2026-04-11T09:04:32.42Z</time></trkpt><trkpt lat="43.9303967" lon="11.26254"><ele>445.33333333333337</ele><time>2026-04-11T09:04:33.421Z</time></trkpt><trkpt lat="43.9304633" lon="11.2624917"><ele>441.6666666666667</ele><time>2026-04-11T09:04:34.42Z</time></trkpt><trkpt lat="43.9305317" lon="11.2624467"><ele>438.0</ele><time>2026-04-11T09:04:35.421Z</time></trkpt><trkpt lat="43.9306033" lon="11.2623967"><ele>438.0</ele><time>2026-04-11T09:04:36.423Z</time></trkpt><trkpt lat="43.9306567" lon="11.26235"><ele>438.0</ele><time>2026-04-11T09:04:37.419Z</time></trkpt><trkpt lat="43.930715" lon="11.2623117"><ele>438.0</ele><time>2026-04-11T09:04:38.42Z</time></trkpt><trkpt lat="43.9307783" lon="11.2622683"><ele>438.0</ele><time>2026-04-11T09:04:39.418Z</time></trkpt><trkpt lat="43.9308733" lon="11.26223"><ele>438.0</ele><time>2026-04-11T09:04:40.419Z</time></trkpt><trkpt lat="43.9309617" lon="11.2621883"><ele>438.0</ele><time>2026-04-11T09:04:41.419Z</time></trkpt><trkpt lat="43.931045" lon="11.2621017"><ele>437.0</ele><time>2026-04-11T09:04:42.419Z</time></trkpt><trkpt lat="43.931115" lon="11.2620083"><ele>435.99999999999994</ele><time>2026-04-11T09:04:43.42Z</time></trkpt><trkpt lat="43.931195" lon="11.26191"><ele>434.99999999999994</ele><time>2026-04-11T09:04:44.42Z</time></trkpt><trkpt lat="43.9312733" lon="11.2618067"><ele>434.0</ele><time>2026-04-11T09:04:45.418Z</time></trkpt><trkpt lat="43.931365" lon="11.261715"><ele>433.0</ele><time>2026-04-11T09:04:46.419Z</time></trkpt><trkpt lat="43.9314283" lon="11.26162"><ele>433.0</ele><time>2026-04-11T09:04:47.42Z</time></trkpt><trkpt lat="43.9314833" lon="11.2615217"><ele>432.99999999999994</ele><time>2026-04-11T09:04:48.419Z</time></trkpt><trkpt lat="43.9315383" lon="11.2614167"><ele>432.99999999999994</ele><time>2026-04-11T09:04:49.421Z</time></trkpt><trkpt lat="43.9315817" lon="11.2613133"><ele>433.0</ele><time>2026-04-11T09:04:50.421Z</time></trkpt><trkpt lat="43.9316267" lon="11.2612017"><ele>433.0</ele><time>2026-04-11T09:04:51.42Z</time></trkpt><trkpt lat="43.93166" lon="11.2610867"><ele>433.00000000000006</ele><time>2026-04-11T09:04:52.418Z</time></trkpt><trkpt lat="43.931685" lon="11.26097"><ele>433.0</ele><time>2026-04-11T09:04:53.418Z</time></trkpt><trkpt lat="43.9317117" lon="11.2608567"><ele>433.0</ele><time>2026-04-11T09:04:54.418Z</time></trkpt><trkpt lat="43.9317317" lon="11.2607433"><ele>433.0</ele><time>2026-04-11T09:04:55.418Z</time></trkpt><trkpt lat="43.9317333" lon="11.26064"><ele>433.00000000000006</ele><time>2026-04-11T09:04:56.42Z</time></trkpt><trkpt lat="43.9317133" lon="11.2605433"><ele>433.0</ele><time>2026-04-11T09:04:57.418Z</time></trkpt><trkpt lat="43.931675" lon="11.2604317"><ele>433.00000000000006</ele><time>2026-04-11T09:04:58.419Z</time></trkpt><trkpt lat="43.9316383" lon="11.2603183"><ele>433.0</ele><time>2026-04-11T09:04:59.42Z</time></trkpt><trkpt lat="43.9316017" lon="11.2601917"><ele>433.0</ele><time>2026-04-11T09:05:00.419Z</time></trkpt><trkpt lat="43.93157" lon="11.26007"><ele>433.0</ele><time>2026-04-11T09:05:01.42Z</time></trkpt><trkpt lat="43.9315583" lon="11.259945"><ele>433.00000000000006</ele><time>2026-04-11T09:05:02.42Z</time></trkpt><trkpt lat="43.9315367" lon="11.259845"><ele>433.0</ele><time>2026-04-11T09:05:03.417Z</time></trkpt><trkpt lat="43.93152" lon="11.2597167"><ele>432.00000000000006</ele><time>2026-04-11T09:05:04.42Z</time></trkpt><trkpt lat="43.9315233" lon="11.25959"><ele>431.0</ele><time>2026-04-11T09:05:05.418Z</time></trkpt><trkpt lat="43.93151" lon="11.2594617"><ele>430.0</ele><time>2026-04-11T09:05:06.421Z</time></trkpt><trkpt lat="43.931495" lon="11.2593367"><ele>429.0</ele><time>2026-04-11T09:05:07.418Z</time></trkpt><trkpt lat="43.9314817" lon="11.2592133"><ele>428.00000000000006</ele><time>2026-04-11T09:05:08.42Z</time></trkpt><trkpt lat="43.931475" lon="11.259105"><ele>427.0</ele><time>2026-04-11T09:05:09.419Z</time></trkpt><trkpt lat="43.93148" lon="11.259"><ele>427.50000000000006</ele><time>2026-04-11T09:05:10.418Z</time></trkpt><trkpt lat="43.9315017" lon="11.2589033"><ele>428.0</ele><time>2026-04-11T09:05:11.42Z</time></trkpt><trkpt lat="43.931525" lon="11.2587983"><ele>428.5</ele><time>2026-04-11T09:05:12.419Z</time></trkpt><trkpt lat="43.9315467" lon="11.2586733"><ele>429.0</ele><time>2026-04-11T09:05:13.418Z</time></trkpt><trkpt lat="43.931585" lon="11.25856"><ele>429.50000000000006</ele><time>2026-04-11T09:05:14.419Z</time></trkpt><trkpt lat="43.9316383" lon="11.258435"><ele>430.0</ele><time>2026-04-11T09:05:15.42Z</time></trkpt><trkpt lat="43.931695" lon="11.2583217"><ele>423.25</ele><time>2026-04-11T09:05:16.419Z</time></trkpt><trkpt lat="43.9317733" lon="11.2582183"><ele>416.5</ele><time>2026-04-11T09:05:17.419Z</time></trkpt><trkpt lat="43.9318617" lon="11.25812"><ele>409.75</ele><time>2026-04-11T09:05:18.418Z</time></trkpt><trkpt lat="43.9319533" lon="11.25801"><ele>403.0</ele><time>2026-04-11T09:05:19.418Z</time></trkpt><trkpt lat="43.9320333" lon="11.2579067"><ele>402.79999999999995</ele><time>2026-04-11T09:05:20.419Z</time></trkpt><trkpt lat="43.9320917" lon="11.257805"><ele>402.6</ele><time>2026-04-11T09:05:21.418Z</time></trkpt><trkpt lat="43.932165" lon="11.2577067"><ele>402.4</ele><time>2026-04-11T09:05:22.417Z</time></trkpt><trkpt lat="43.9322433" lon="11.2576033"><ele>402.20000000000005</ele><time>2026-04-11T09:05:23.417Z</time></trkpt><trkpt lat="43.9323117" lon="11.2575"><ele>402.0</ele><time>2026-04-11T09:05:24.417Z</time></trkpt><trkpt lat="43.9323783" lon="11.2574033"><ele>402.0</ele><time>2026-04-11T09:05:25.419Z</time></trkpt><trkpt lat="43.9324217" lon="11.2573033"><ele>402.0</ele><time>2026-04-11T09:05:26.419Z</time></trkpt><trkpt lat="43.9324667" lon="11.257195"><ele>402.0</ele><time>2026-04-11T09:05:27.418Z</time></trkpt><trkpt lat="43.93251" lon="11.2570867"><ele>402.0</ele><time>2026-04-11T09:05:28.418Z</time></trkpt><trkpt lat="43.9325567" lon="11.256975"><ele>402.0</ele><time>2026-04-11T09:05:29.418Z</time></trkpt><trkpt lat="43.9326117" lon="11.2568667"><ele>398.0</ele><time>2026-04-11T09:05:30.421Z</time></trkpt><trkpt lat="43.93266" lon="11.2567667"><ele>394.0</ele><time>2026-04-11T09:05:31.42Z</time></trkpt><trkpt lat="43.9327017" lon="11.2566767"><ele>390.0</ele><time>2026-04-11T09:05:32.419Z</time></trkpt><trkpt lat="43.9327467" lon="11.2565917"><ele>386.0</ele><time>2026-04-11T09:05:33.417Z</time></trkpt><trkpt lat="43.9327917" lon="11.256515"><ele>382.0</ele><time>2026-04-11T09:05:34.42Z</time></trkpt><trkpt lat="43.9328667" lon="11.2563817"><ele>378.0</ele><time>2026-04-11T09:05:36.417Z</time></trkpt><trkpt lat="43.9329033" lon="11.2562483"><ele>375.5</ele><time>2026-04-11T09:05:38.418Z</time></trkpt><trkpt lat="43.93288" lon="11.25609"><ele>373.0</ele><time>2026-04-11T09:05:40.419Z</time></trkpt><trkpt lat="43.9328533" lon="11.256005"><ele>370.5</ele><time>2026-04-11T09:05:41.419Z</time></trkpt><trkpt lat="43.9328233" lon="11.255915"><ele>368.0</ele><time>2026-04-11T09:05:42.418Z</time></trkpt><trkpt lat="43.9327817" lon="11.2558117"><ele>365.5</ele><time>2026-04-11T09:05:43.419Z</time></trkpt><trkpt lat="43.932735" lon="11.2557083"><ele>363.0</ele><time>2026-04-11T09:05:44.417Z</time></trkpt><trkpt lat="43.9326867" lon="11.2555917"><ele>362.1666666666667</ele><time>2026-04-11T09:05:45.417Z</time></trkpt><trkpt lat="43.93264" lon="11.25548"><ele>361.3333333333333</ele><time>2026-04-11T09:05:46.417Z</time></trkpt><trkpt lat="43.9325983" lon="11.2553733"><ele>360.5</ele><time>2026-04-11T09:05:47.417Z</time></trkpt><trkpt lat="43.9325583" lon="11.255265"><ele>359.66666666666663</ele><time>2026-04-11T09:05:48.417Z</time></trkpt><trkpt lat="43.9325283" lon="11.255155"><ele>358.8333333333333</ele><time>2026-04-11T09:05:49.417Z</time></trkpt><trkpt lat="43.9324917" lon="11.2550467"><ele>358.0</ele><time>2026-04-11T09:05:50.418Z</time></trkpt><trkpt lat="43.9324617" lon="11.2549433"><ele>361.0</ele><time>2026-04-11T09:05:51.418Z</time></trkpt><trkpt lat="43.932435" lon="11.2548317"><ele>364.0</ele><time>2026-04-11T09:05:52.417Z</time></trkpt><trkpt lat="43.932415" lon="11.25471"><ele>367.0</ele><time>2026-04-11T09:05:53.418Z</time></trkpt><trkpt lat="43.9324033" lon="11.2545867"><ele>370.0</ele><time>2026-04-11T09:05:54.418Z</time></trkpt><trkpt lat="43.9323983" lon="11.25447"><ele>373.0</ele><time>2026-04-11T09:05:55.417Z</time></trkpt><trkpt lat="43.932385" lon="11.254355"><ele>376.0</ele><time>2026-04-11T09:05:56.419Z</time></trkpt><trkpt lat="43.9323567" lon="11.2542417"><ele>376.0</ele><time>2026-04-11T09:05:57.417Z</time></trkpt><trkpt lat="43.93233" lon="11.2541183"><ele>376.0</ele><time>2026-04-11T09:05:58.418Z</time></trkpt><trkpt lat="43.9323067" lon="11.2539933"><ele>376.0</ele><time>2026-04-11T09:05:59.42Z</time></trkpt><trkpt lat="43.9322833" lon="11.253875"><ele>376.0</ele><time>2026-04-11T09:06:00.418Z</time></trkpt><trkpt lat="43.9322483" lon="11.25377"><ele>376.0</ele><time>2026-04-11T09:06:01.418Z</time></trkpt><trkpt lat="43.932195" lon="11.2536583"><ele>374.4</ele><time>2026-04-11T09:06:02.42Z</time></trkpt><trkpt lat="43.9321317" lon="11.2535517"><ele>372.8</ele><time>2026-04-11T09:06:03.418Z</time></trkpt><trkpt lat="43.93207" lon="11.2534467"><ele>371.2</ele><time>2026-04-11T09:06:04.419Z</time></trkpt><trkpt lat="43.9320167" lon="11.2533433"><ele>369.59999999999997</ele><time>2026-04-11T09:06:05.417Z</time></trkpt><trkpt lat="43.9319567" lon="11.253225"><ele>368.0</ele><time>2026-04-11T09:06:06.418Z</time></trkpt><trkpt lat="43.931895" lon="11.253095"><ele>367.5</ele><time>2026-04-11T09:06:07.417Z</time></trkpt><trkpt lat="43.9318283" lon="11.2530067"><ele>367.0</ele><time>2026-04-11T09:06:08.418Z</time></trkpt><trkpt lat="43.93179" lon="11.2529183"><ele>366.5</ele><time>2026-04-11T09:06:09.419Z</time></trkpt><trkpt lat="43.9317367" lon="11.252815"><ele>366.0</ele><time>2026-04-11T09:06:10.417Z</time></trkpt><trkpt lat="43.931695" lon="11.252705"><ele>365.5</ele><time>2026-04-11T09:06:11.417Z</time></trkpt><trkpt lat="43.931665" lon="11.2525867"><ele>365.0</ele><time>2026-04-11T09:06:12.418Z</time></trkpt><trkpt lat="43.9316333" lon="11.25247"><ele>366.6</ele><time>2026-04-11T09:06:13.419Z</time></trkpt><trkpt lat="43.9316067" lon="11.25236"><ele>368.2</ele><time>2026-04-11T09:06:14.417Z</time></trkpt><trkpt lat="43.93155" lon="11.2521683"><ele>369.79999999999995</ele><time>2026-04-11T09:06:16.418Z</time></trkpt><trkpt lat="43.9315167" lon="11.2520333"><ele>371.4</ele><time>2026-04-11T09:06:17.418Z</time></trkpt><trkpt lat="43.9314817" lon="11.2519017"><ele>373.0</ele><time>2026-04-11T09:06:18.418Z</time></trkpt><trkpt lat="43.931455" lon="11.2517783"><ele>373.0</ele><time>2026-04-11T09:06:19.42Z</time></trkpt><trkpt lat="43.9314117" lon="11.2516817"><ele>373.0</ele><time>2026-04-11T09:06:20.42Z</time></trkpt><trkpt lat="43.93139" lon="11.2515833"><ele>373.0</ele><time>2026-04-11T09:06:21.418Z</time></trkpt><trkpt lat="43.93136" lon="11.2514883"><ele>373.0</ele><time>2026-04-11T09:06:22.42Z</time></trkpt><trkpt lat="43.9312867" lon="11.2513333"><ele>373.0</ele><time>2026-04-11T09:06:24.421Z</time></trkpt><trkpt lat="43.9313117" lon="11.251215"><ele>376.0</ele><time>2026-04-11T09:06:26.42Z</time></trkpt><trkpt lat="43.9313" lon="11.2510767"><ele>379.0</ele><time>2026-04-11T09:06:28.419Z</time></trkpt><trkpt lat="43.9312467" lon="11.2509883"><ele>382.0</ele><time>2026-04-11T09:06:30.418Z</time></trkpt><trkpt lat="43.9311983" lon="11.2509233"><ele>385.0</ele><time>2026-04-11T09:06:32.42Z</time></trkpt><trkpt lat="43.9312383" lon="11.2508417"><ele>388.00000000000006</ele><time>2026-04-11T09:06:35.418Z</time></trkpt><trkpt lat="43.931305" lon="11.2509667"><ele>391.0</ele><time>2026-04-11T09:08:24.418Z</time></trkpt><trkpt lat="43.9313783" lon="11.2510533"><ele>391.0</ele><time>2026-04-11T09:08:26.417Z</time></trkpt><trkpt lat="43.93145" lon="11.251165"><ele>391.0</ele><time>2026-04-11T09:08:28.419Z</time></trkpt><trkpt lat="43.93153" lon="11.2513"><ele>391.0</ele><time>2026-04-11T09:08:30.419Z</time></trkpt><trkpt lat="43.9315817" lon="11.2513783"><ele>391.0</ele><time>2026-04-11T09:08:31.419Z</time></trkpt><trkpt lat="43.93164" lon="11.2514567"><ele>391.0</ele><time>2026-04-11T09:08:32.419Z</time></trkpt><trkpt lat="43.9317017" lon="11.251545"><ele>390.1666666666667</ele><time>2026-04-11T09:08:33.418Z</time></trkpt><trkpt lat="43.9317667" lon="11.2516367"><ele>389.33333333333337</ele><time>2026-04-11T09:08:34.418Z</time></trkpt><trkpt lat="43.9318333" lon="11.2517283"><ele>388.5</ele><time>2026-04-11T09:08:35.417Z</time></trkpt><trkpt lat="43.931895" lon="11.25181"><ele>387.66666666666663</ele><time>2026-04-11T09:08:36.418Z</time></trkpt><trkpt lat="43.93196" lon="11.2518933"><ele>386.8333333333333</ele><time>2026-04-11T09:08:37.417Z</time></trkpt><trkpt lat="43.9320233" lon="11.2519783"><ele>386.0</ele><time>2026-04-11T09:08:38.419Z</time></trkpt><trkpt lat="43.93209" lon="11.2520567"><ele>385.99999999999994</ele><time>2026-04-11T09:08:39.418Z</time></trkpt><trkpt lat="43.932165" lon="11.2521367"><ele>386.0</ele><time>2026-04-11T09:08:40.417Z</time></trkpt><trkpt lat="43.9322433" lon="11.2522133"><ele>386.0</ele><time>2026-04-11T09:08:41.417Z</time></trkpt><trkpt lat="43.93232" lon="11.252285"><ele>386.0</ele><time>2026-04-11T09:08:42.417Z</time></trkpt><trkpt lat="43.93239" lon="11.2523533"><ele>385.99999999999994</ele><time>2026-04-11T09:08:43.418Z</time></trkpt><trkpt lat="43.9324533" lon="11.252415"><ele>386.0</ele><time>2026-04-11T09:08:44.417Z</time></trkpt><trkpt lat="43.9325017" lon="11.2524833"><ele>385.6</ele><time>2026-04-11T09:08:45.418Z</time></trkpt><trkpt lat="43.9325683" lon="11.2526283"><ele>385.20000000000005</ele><time>2026-04-11T09:08:47.419Z</time></trkpt><trkpt lat="43.932595" lon="11.2527117"><ele>384.79999999999995</ele><time>2026-04-11T09:08:48.418Z</time></trkpt><trkpt lat="43.9326383" lon="11.2528667"><ele>384.4</ele><time>2026-04-11T09:08:50.42Z</time></trkpt><trkpt lat="43.9327" lon="11.2530167"><ele>384.0</ele><time>2026-04-11T09:08:52.42Z</time></trkpt><trkpt lat="43.93275" lon="11.253085"><ele>382.6666666666667</ele><time>2026-04-11T09:08:53.419Z</time></trkpt><trkpt lat="43.9328017" lon="11.2531567"><ele>381.3333333333333</ele><time>2026-04-11T09:08:54.421Z</time></trkpt><trkpt lat="43.9328517" lon="11.2532217"><ele>380.0</ele><time>2026-04-11T09:08:55.419Z</time></trkpt><trkpt lat="43.9329" lon="11.25329"><ele>378.66666666666663</ele><time>2026-04-11T09:08:56.419Z</time></trkpt><trkpt lat="43.93296" lon="11.2533617"><ele>377.3333333333333</ele><time>2026-04-11T09:08:57.419Z</time></trkpt><trkpt lat="43.9330183" lon="11.2534367"><ele>376.0</ele><time>2026-04-11T09:08:58.418Z</time></trkpt><trkpt lat="43.9330817" lon="11.2535183"><ele>376.0</ele><time>2026-04-11T09:08:59.42Z</time></trkpt><trkpt lat="43.9331383" lon="11.25361"><ele>376.0</ele><time>2026-04-11T09:09:00.419Z</time></trkpt><trkpt lat="43.93318" lon="11.2537167"><ele>376.0</ele><time>2026-04-11T09:09:01.418Z</time></trkpt><trkpt lat="43.9332217" lon="11.2538217"><ele>376.0</ele><time>2026-04-11T09:09:02.42Z</time></trkpt><trkpt lat="43.93326" lon="11.253935"><ele>376.0</ele><time>2026-04-11T09:09:03.418Z</time></trkpt><trkpt lat="43.933305" lon="11.2540533"><ele>376.0</ele><time>2026-04-11T09:09:04.419Z</time></trkpt><trkpt lat="43.9333567" lon="11.254175"><ele>382.6</ele><time>2026-04-11T09:09:05.419Z</time></trkpt><trkpt lat="43.93341" lon="11.2542967"><ele>389.20000000000005</ele><time>2026-04-11T09:09:06.417Z</time></trkpt><trkpt lat="43.9334767" lon="11.2544233"><ele>395.79999999999995</ele><time>2026-04-11T09:09:07.418Z</time></trkpt><trkpt lat="43.93355" lon="11.2545433"><ele>402.4</ele><time>2026-04-11T09:09:08.418Z</time></trkpt><trkpt lat="43.9336267" lon="11.25466"><ele>409.0</ele><time>2026-04-11T09:09:09.419Z</time></trkpt><trkpt lat="43.9337083" lon="11.2547717"><ele>404.0</ele><time>2026-04-11T09:09:10.418Z</time></trkpt><trkpt lat="43.93379" lon="11.2548833"><ele>399.0</ele><time>2026-04-11T09:09:11.419Z</time></trkpt><trkpt lat="43.9338767" lon="11.2549817"><ele>394.0</ele><time>2026-04-11T09:09:12.422Z</time></trkpt><trkpt lat="43.933955" lon="11.2550817"><ele>389.0</ele><time>2026-04-11T09:09:13.419Z</time></trkpt><trkpt lat="43.934035" lon="11.2551683"><ele>384.0</ele><time>2026-04-11T09:09:14.42Z</time></trkpt><trkpt lat="43.9341133" lon="11.2552617"><ele>384.0</ele><time>2026-04-11T09:09:15.418Z</time></trkpt><trkpt lat="43.9341983" lon="11.2553317"><ele>384.0</ele><time>2026-04-11T09:09:16.421Z</time></trkpt><trkpt lat="43.9342667" lon="11.255415"><ele>384.0</ele><time>2026-04-11T09:09:17.42Z</time></trkpt><trkpt lat="43.9343317" lon="11.255495"><ele>384.0</ele><time>2026-04-11T09:09:18.419Z</time></trkpt><trkpt lat="43.9343767" lon="11.255605"><ele>384.0</ele><time>2026-04-11T09:09:19.421Z</time></trkpt><trkpt lat="43.9344217" lon="11.2557183"><ele>386.6</ele><time>2026-04-11T09:09:20.419Z</time></trkpt><trkpt lat="43.9344783" lon="11.2558217"><ele>389.2</ele><time>2026-04-11T09:09:21.419Z</time></trkpt><trkpt lat="43.9345367" lon="11.2559283"><ele>391.8</ele><time>2026-04-11T09:09:22.418Z</time></trkpt><trkpt lat="43.9345933" lon="11.2560317"><ele>394.40000000000003</ele><time>2026-04-11T09:09:23.418Z</time></trkpt><trkpt lat="43.9346433" lon="11.25615"><ele>397.0</ele><time>2026-04-11T09:09:24.418Z</time></trkpt><trkpt lat="43.93469" lon="11.2562683"><ele>397.0</ele><time>2026-04-11T09:09:25.418Z</time></trkpt><trkpt lat="43.9347333" lon="11.256395"><ele>397.0</ele><time>2026-04-11T09:09:26.418Z</time></trkpt><trkpt lat="43.9347767" lon="11.2565217"><ele>397.0</ele><time>2026-04-11T09:09:27.418Z</time></trkpt><trkpt lat="43.93482" lon="11.2566367"><ele>397.0</ele><time>2026-04-11T09:09:28.42Z</time></trkpt><trkpt lat="43.9348583" lon="11.2567617"><ele>397.0</ele><time>2026-04-11T09:09:29.419Z</time></trkpt><trkpt lat="43.9348933" lon="11.25689"><ele>399.8</ele><time>2026-04-11T09:09:30.421Z</time></trkpt><trkpt lat="43.934935" lon="11.2570233"><ele>402.6</ele><time>2026-04-11T09:09:31.421Z</time></trkpt><trkpt lat="43.9349717" lon="11.2571467"><ele>405.40000000000003</ele><time>2026-04-11T09:09:32.419Z</time></trkpt><trkpt lat="43.9350117" lon="11.2572683"><ele>408.20000000000005</ele><time>2026-04-11T09:09:33.419Z</time></trkpt><trkpt lat="43.9350483" lon="11.2573983"><ele>411.0</ele><time>2026-04-11T09:09:34.419Z</time></trkpt><trkpt lat="43.935085" lon="11.2575283"><ele>411.0</ele><time>2026-04-11T09:09:35.418Z</time></trkpt><trkpt lat="43.9351217" lon="11.2576667"><ele>411.0</ele><time>2026-04-11T09:09:36.419Z</time></trkpt><trkpt lat="43.9351533" lon="11.2578117"><ele>411.0</ele><time>2026-04-11T09:09:37.419Z</time></trkpt><trkpt lat="43.9351967" lon="11.25795"><ele>411.0</ele><time>2026-04-11T09:09:38.421Z</time></trkpt><trkpt lat="43.935235" lon="11.2580867"><ele>411.0</ele><time>2026-04-11T09:09:39.419Z</time></trkpt><trkpt lat="43.9352667" lon="11.258215"><ele>408.4</ele><time>2026-04-11T09:09:40.419Z</time></trkpt><trkpt lat="43.935285" lon="11.258335"><ele>405.8</ele><time>2026-04-11T09:09:41.42Z</time></trkpt><trkpt lat="43.93529" lon="11.2584483"><ele>403.2</ele><time>2026-04-11T09:09:42.419Z</time></trkpt><trkpt lat="43.9352883" lon="11.2585833"><ele>400.59999999999997</ele><time>2026-04-11T09:09:43.422Z</time></trkpt><trkpt lat="43.9352867" lon="11.25875"><ele>398.0</ele><time>2026-04-11T09:09:44.422Z</time></trkpt><trkpt lat="43.9352933" lon="11.258905"><ele>396.4</ele><time>2026-04-11T09:09:45.418Z</time></trkpt><trkpt lat="43.9352967" lon="11.25903"><ele>394.79999999999995</ele><time>2026-04-11T09:09:46.42Z</time></trkpt><trkpt lat="43.935295" lon="11.2591467"><ele>393.2</ele><time>2026-04-11T09:09:47.419Z</time></trkpt><trkpt lat="43.935295" lon="11.2592583"><ele>391.6</ele><time>2026-04-11T09:09:48.419Z</time></trkpt><trkpt lat="43.9352933" lon="11.259395"><ele>390.0</ele><time>2026-04-11T09:09:49.42Z</time></trkpt><trkpt lat="43.93529" lon="11.2595567"><ele>390.0</ele><time>2026-04-11T09:09:50.42Z</time></trkpt><trkpt lat="43.9352833" lon="11.2597367"><ele>390.0</ele><time>2026-04-11T09:09:51.419Z</time></trkpt><trkpt lat="43.93526" lon="11.25994"><ele>390.0</ele><time>2026-04-11T09:09:52.419Z</time></trkpt><trkpt lat="43.9352417" lon="11.260135"><ele>390.0</ele><time>2026-04-11T09:09:53.42Z</time></trkpt><trkpt lat="43.93523" lon="11.2603267"><ele>389.0</ele><time>2026-04-11T09:09:54.42Z</time></trkpt><trkpt lat="43.9352183" lon="11.260515"><ele>388.0</ele><time>2026-04-11T09:09:55.422Z</time></trkpt><trkpt lat="43.9352083" lon="11.2606983"><ele>387.0</ele><time>2026-04-11T09:09:56.42Z</time></trkpt><trkpt lat="43.9352033" lon="11.2608683"><ele>386.0</ele><time>2026-04-11T09:09:57.421Z</time></trkpt><trkpt lat="43.9351917" lon="11.2610267"><ele>384.8</ele><time>2026-04-11T09:09:58.42Z</time></trkpt><trkpt lat="43.9351717" lon="11.2611817"><ele>383.6</ele><time>2026-04-11T09:09:59.421Z</time></trkpt><trkpt lat="43.9351533" lon="11.2613317"><ele>382.4</ele><time>2026-04-11T09:10:00.42Z</time></trkpt><trkpt lat="43.9351333" lon="11.2614683"><ele>381.2</ele><time>2026-04-11T09:10:01.42Z</time></trkpt><trkpt lat="43.9351117" lon="11.2616033"><ele>380.0</ele><time>2026-04-11T09:10:02.421Z</time></trkpt><trkpt lat="43.9350917" lon="11.261745"><ele>379.6</ele><time>2026-04-11T09:10:03.418Z</time></trkpt><trkpt lat="43.935085" lon="11.2618883"><ele>379.2</ele><time>2026-04-11T09:10:04.421Z</time></trkpt><trkpt lat="43.9350783" lon="11.2620317"><ele>378.79999999999995</ele><time>2026-04-11T09:10:05.42Z</time></trkpt><trkpt lat="43.93507" lon="11.2621717"><ele>378.4</ele><time>2026-04-11T09:10:06.418Z</time></trkpt><trkpt lat="43.9350533" lon="11.26231"><ele>378.0</ele><time>2026-04-11T09:10:07.42Z</time></trkpt><trkpt lat="43.9350317" lon="11.262445"><ele>372.4</ele><time>2026-04-11T09:10:08.422Z</time></trkpt><trkpt lat="43.93501" lon="11.2625817"><ele>366.79999999999995</ele><time>2026-04-11T09:10:09.418Z</time></trkpt><trkpt lat="43.9349883" lon="11.2627133"><ele>361.2</ele><time>2026-04-11T09:10:10.418Z</time></trkpt><trkpt lat="43.9349717" lon="11.2628483"><ele>355.6</ele><time>2026-04-11T09:10:11.42Z</time></trkpt><trkpt lat="43.9349583" lon="11.2629867"><ele>350.0</ele><time>2026-04-11T09:10:12.419Z</time></trkpt><trkpt lat="43.9349433" lon="11.2631183"><ele>349.2</ele><time>2026-04-11T09:10:13.42Z</time></trkpt><trkpt lat="43.9349283" lon="11.2632467"><ele>348.4</ele><time>2026-04-11T09:10:14.42Z</time></trkpt><trkpt lat="43.934915" lon="11.26337"><ele>347.6</ele><time>2026-04-11T09:10:15.419Z</time></trkpt><trkpt lat="43.9348983" lon="11.263495"><ele>346.8</ele><time>2026-04-11T09:10:16.421Z</time></trkpt><trkpt lat="43.93488" lon="11.2636233"><ele>346.0</ele><time>2026-04-11T09:10:17.421Z</time></trkpt><trkpt lat="43.9348633" lon="11.263745"><ele>346.0</ele><time>2026-04-11T09:10:18.419Z</time></trkpt><trkpt lat="43.9348483" lon="11.2638633"><ele>346.0</ele><time>2026-04-11T09:10:19.42Z</time></trkpt><trkpt lat="43.9348333" lon="11.2639883"><ele>346.0</ele><time>2026-04-11T09:10:20.421Z</time></trkpt><trkpt lat="43.9348183" lon="11.264115"><ele>346.0</ele><time>2026-04-11T09:10:21.419Z</time></trkpt><trkpt lat="43.9348" lon="11.2642433"><ele>346.0</ele><time>2026-04-11T09:10:22.418Z</time></trkpt><trkpt lat="43.9347817" lon="11.2643867"><ele>346.0</ele><time>2026-04-11T09:10:23.421Z</time></trkpt><trkpt lat="43.9347533" lon="11.2645367"><ele>346.0</ele><time>2026-04-11T09:10:24.419Z</time></trkpt><trkpt lat="43.9347167" lon="11.2646817"><ele>346.0</ele><time>2026-04-11T09:10:25.42Z</time></trkpt><trkpt lat="43.9346783" lon="11.2648183"><ele>346.0</ele><time>2026-04-11T09:10:26.422Z</time></trkpt><trkpt lat="43.9346283" lon="11.26495"><ele>346.0</ele><time>2026-04-11T09:10:27.42Z</time></trkpt><trkpt lat="43.9345783" lon="11.265075"><ele>346.6</ele><time>2026-04-11T09:10:28.418Z</time></trkpt><trkpt lat="43.9345317" lon="11.2652117"><ele>347.20000000000005</ele><time>2026-04-11T09:10:29.422Z</time></trkpt><trkpt lat="43.93449" lon="11.2653433"><ele>347.79999999999995</ele><time>2026-04-11T09:10:30.421Z</time></trkpt><trkpt lat="43.9344517" lon="11.26547"><ele>348.4</ele><time>2026-04-11T09:10:31.422Z</time></trkpt><trkpt lat="43.93441" lon="11.2656017"><ele>349.0</ele><time>2026-04-11T09:10:32.42Z</time></trkpt><trkpt lat="43.9343733" lon="11.26573"><ele>349.2</ele><time>2026-04-11T09:10:33.419Z</time></trkpt><trkpt lat="43.93433" lon="11.2658483"><ele>349.4</ele><time>2026-04-11T09:10:34.422Z</time></trkpt><trkpt lat="43.934285" lon="11.2659783"><ele>349.6</ele><time>2026-04-11T09:10:35.421Z</time></trkpt><trkpt lat="43.93423" lon="11.2661117"><ele>349.8</ele><time>2026-04-11T09:10:36.418Z</time></trkpt><trkpt lat="43.9341783" lon="11.26625"><ele>350.0</ele><time>2026-04-11T09:10:37.421Z</time></trkpt><trkpt lat="43.9341317" lon="11.2663933"><ele>344.6</ele><time>2026-04-11T09:10:38.42Z</time></trkpt><trkpt lat="43.9340967" lon="11.2665383"><ele>339.2</ele><time>2026-04-11T09:10:39.418Z</time></trkpt><trkpt lat="43.9340733" lon="11.266695"><ele>333.79999999999995</ele><time>2026-04-11T09:10:40.418Z</time></trkpt><trkpt lat="43.9340583" lon="11.2668483"><ele>328.4</ele><time>2026-04-11T09:10:41.419Z</time></trkpt><trkpt lat="43.93406" lon="11.267"><ele>323.0</ele><time>2026-04-11T09:10:42.42Z</time></trkpt><trkpt lat="43.9340817" lon="11.2671533"><ele>321.79999999999995</ele><time>2026-04-11T09:10:43.421Z</time></trkpt><trkpt lat="43.9341267" lon="11.2672967"><ele>320.59999999999997</ele><time>2026-04-11T09:10:44.42Z</time></trkpt><trkpt lat="43.9341833" lon="11.26743"><ele>319.4</ele><time>2026-04-11T09:10:45.418Z</time></trkpt><trkpt lat="43.9342433" lon="11.2675633"><ele>318.2</ele><time>2026-04-11T09:10:46.42Z</time></trkpt><trkpt lat="43.9343017" lon="11.2676933"><ele>317.0</ele><time>2026-04-11T09:10:47.421Z</time></trkpt><trkpt lat="43.9343633" lon="11.2678133"><ele>317.8</ele><time>2026-04-11T09:10:48.42Z</time></trkpt><trkpt lat="43.9344217" lon="11.2679183"><ele>318.6</ele><time>2026-04-11T09:10:49.421Z</time></trkpt><trkpt lat="43.93447" lon="11.2680517"><ele>319.40000000000003</ele><time>2026-04-11T09:10:50.422Z</time></trkpt><trkpt lat="43.9345133" lon="11.26818"><ele>320.2</ele><time>2026-04-11T09:10:51.419Z</time></trkpt><trkpt lat="43.9345667" lon="11.2683133"><ele>321.0</ele><time>2026-04-11T09:10:52.421Z</time></trkpt><trkpt lat="43.93462" lon="11.2684467"><ele>321.0</ele><time>2026-04-11T09:10:53.42Z</time></trkpt><trkpt lat="43.9346767" lon="11.2685733"><ele>321.0</ele><time>2026-04-11T09:10:54.422Z</time></trkpt><trkpt lat="43.9347333" lon="11.2686967"><ele>321.0</ele><time>2026-04-11T09:10:55.421Z</time></trkpt><trkpt lat="43.9347867" lon="11.2688233"><ele>321.0</ele><time>2026-04-11T09:10:56.42Z</time></trkpt><trkpt lat="43.9348333" lon="11.2689417"><ele>321.0</ele><time>2026-04-11T09:10:57.419Z</time></trkpt><trkpt lat="43.9348717" lon="11.2690533"><ele>318.8333333333333</ele><time>2026-04-11T09:10:58.42Z</time></trkpt><trkpt lat="43.9348983" lon="11.2691717"><ele>316.6666666666667</ele><time>2026-04-11T09:10:59.421Z</time></trkpt><trkpt lat="43.934905" lon="11.2692767"><ele>314.5</ele><time>2026-04-11T09:11:00.418Z</time></trkpt><trkpt lat="43.93489" lon="11.2693817"><ele>312.33333333333337</ele><time>2026-04-11T09:11:01.421Z</time></trkpt><trkpt lat="43.93486" lon="11.2694867"><ele>310.1666666666667</ele><time>2026-04-11T09:11:02.42Z</time></trkpt><trkpt lat="43.93482" lon="11.2695967"><ele>308.0</ele><time>2026-04-11T09:11:03.419Z</time></trkpt><trkpt lat="43.9347717" lon="11.2697067"><ele>308.83333333333337</ele><time>2026-04-11T09:11:04.419Z</time></trkpt><trkpt lat="43.934725" lon="11.2698167"><ele>309.6666666666667</ele><time>2026-04-11T09:11:05.422Z</time></trkpt><trkpt lat="43.9346817" lon="11.2699217"><ele>310.5</ele><time>2026-04-11T09:11:06.419Z</time></trkpt><trkpt lat="43.9346367" lon="11.2700233"><ele>311.3333333333333</ele><time>2026-04-11T09:11:07.421Z</time></trkpt><trkpt lat="43.9345967" lon="11.27013"><ele>312.16666666666663</ele><time>2026-04-11T09:11:08.42Z</time></trkpt><trkpt lat="43.93456" lon="11.2702367"><ele>313.0</ele><time>2026-04-11T09:11:09.418Z</time></trkpt><trkpt lat="43.9345267" lon="11.2703583"><ele>313.0</ele><time>2026-04-11T09:11:10.42Z</time></trkpt><trkpt lat="43.9345017" lon="11.270475"><ele>313.0</ele><time>2026-04-11T09:11:11.42Z</time></trkpt><trkpt lat="43.93448" lon="11.2705983"><ele>313.0</ele><time>2026-04-11T09:11:12.42Z</time></trkpt><trkpt lat="43.9344617" lon="11.2707267"><ele>313.0</ele><time>2026-04-11T09:11:13.421Z</time></trkpt><trkpt lat="43.93444" lon="11.2708633"><ele>313.0</ele><time>2026-04-11T09:11:14.421Z</time></trkpt><trkpt lat="43.9344117" lon="11.2709933"><ele>315.0</ele><time>2026-04-11T09:11:15.419Z</time></trkpt><trkpt lat="43.93439" lon="11.2711183"><ele>317.0</ele><time>2026-04-11T09:11:16.42Z</time></trkpt><trkpt lat="43.9343567" lon="11.271255"><ele>319.0</ele><time>2026-04-11T09:11:17.421Z</time></trkpt><trkpt lat="43.9343183" lon="11.2714"><ele>321.0</ele><time>2026-04-11T09:11:18.42Z</time></trkpt><trkpt lat="43.9342767" lon="11.2715433"><ele>323.0</ele><time>2026-04-11T09:11:19.42Z</time></trkpt><trkpt lat="43.9342317" lon="11.27171"><ele>321.0</ele><time>2026-04-11T09:11:20.42Z</time></trkpt><trkpt lat="43.9341867" lon="11.27189"><ele>319.0</ele><time>2026-04-11T09:11:21.419Z</time></trkpt><trkpt lat="43.934135" lon="11.2720933"><ele>317.0</ele><time>2026-04-11T09:11:22.421Z</time></trkpt><trkpt lat="43.9340883" lon="11.2722983"><ele>315.0</ele><time>2026-04-11T09:11:23.421Z</time></trkpt><trkpt lat="43.9340383" lon="11.272515"><ele>315.0</ele><time>2026-04-11T09:11:24.418Z</time></trkpt><trkpt lat="43.933995" lon="11.2727233"><ele>315.0</ele><time>2026-04-11T09:11:25.42Z</time></trkpt><trkpt lat="43.9339567" lon="11.2729317"><ele>315.0</ele><time>2026-04-11T09:11:26.419Z</time></trkpt><trkpt lat="43.9339167" lon="11.2731417"><ele>314.3333333333333</ele><time>2026-04-11T09:11:27.418Z</time></trkpt><trkpt lat="43.9338683" lon="11.2733633"><ele>313.66666666666663</ele><time>2026-04-11T09:11:28.42Z</time></trkpt><trkpt lat="43.93381" lon="11.2736033"><ele>313.0</ele><time>2026-04-11T09:11:29.418Z</time></trkpt><trkpt lat="43.933745" lon="11.2738433"><ele>313.3333333333333</ele><time>2026-04-11T09:11:30.419Z</time></trkpt><trkpt lat="43.9336817" lon="11.274075"><ele>313.6666666666667</ele><time>2026-04-11T09:11:31.42Z</time></trkpt><trkpt lat="43.9336233" lon="11.2743017"><ele>314.0</ele><time>2026-04-11T09:11:32.422Z</time></trkpt><trkpt lat="43.9335783" lon="11.2745183"><ele>314.0</ele><time>2026-04-11T09:11:33.418Z</time></trkpt><trkpt lat="43.933535" lon="11.2747267"><ele>314.0</ele><time>2026-04-11T09:11:34.419Z</time></trkpt><trkpt lat="43.9334917" lon="11.2749333"><ele>314.0</ele><time>2026-04-11T09:11:35.42Z</time></trkpt><trkpt lat="43.933445" lon="11.2751517"><ele>315.33333333333337</ele><time>2026-04-11T09:11:36.419Z</time></trkpt><trkpt lat="43.9333967" lon="11.2753717"><ele>316.6666666666667</ele><time>2026-04-11T09:11:37.418Z</time></trkpt><trkpt lat="43.93334" lon="11.27559"><ele>318.0</ele><time>2026-04-11T09:11:38.421Z</time></trkpt><trkpt lat="43.9332883" lon="11.2758067"><ele>311.75</ele><time>2026-04-11T09:11:39.419Z</time></trkpt><trkpt lat="43.933245" lon="11.276005"><ele>305.5</ele><time>2026-04-11T09:11:40.42Z</time></trkpt><trkpt lat="43.9332" lon="11.27619"><ele>299.25</ele><time>2026-04-11T09:11:41.421Z</time></trkpt><trkpt lat="43.9331533" lon="11.2763633"><ele>293.0</ele><time>2026-04-11T09:11:42.418Z</time></trkpt><trkpt lat="43.9331017" lon="11.2765233"><ele>292.75</ele><time>2026-04-11T09:11:43.421Z</time></trkpt><trkpt lat="43.9330467" lon="11.2766717"><ele>292.5</ele><time>2026-04-11T09:11:44.421Z</time></trkpt><trkpt lat="43.9329783" lon="11.276815"><ele>292.25</ele><time>2026-04-11T09:11:45.418Z</time></trkpt><trkpt lat="43.9329067" lon="11.2769517"><ele>292.0</ele><time>2026-04-11T09:11:46.421Z</time></trkpt><trkpt lat="43.9328233" lon="11.2770867"><ele>292.0</ele><time>2026-04-11T09:11:47.421Z</time></trkpt><trkpt lat="43.93274" lon="11.2772117"><ele>292.0</ele><time>2026-04-11T09:11:48.419Z</time></trkpt><trkpt lat="43.9326567" lon="11.2773333"><ele>292.0</ele><time>2026-04-11T09:11:49.421Z</time></trkpt><trkpt lat="43.93258" lon="11.2774417"><ele>292.0</ele><time>2026-04-11T09:11:50.419Z</time></trkpt><trkpt lat="43.93251" lon="11.2775333"><ele>292.0</ele><time>2026-04-11T09:11:51.418Z</time></trkpt><trkpt lat="43.9324467" lon="11.2776283"><ele>292.75</ele><time>2026-04-11T09:11:52.42Z</time></trkpt><trkpt lat="43.9323817" lon="11.2777567"><ele>293.5</ele><time>2026-04-11T09:11:53.421Z</time></trkpt><trkpt lat="43.932315" lon="11.2779083"><ele>294.25</ele><time>2026-04-11T09:11:54.419Z</time></trkpt><trkpt lat="43.9322317" lon="11.27807"><ele>295.0</ele><time>2026-04-11T09:11:55.42Z</time></trkpt><trkpt lat="43.9321333" lon="11.2782283"><ele>295.0</ele><time>2026-04-11T09:11:56.421Z</time></trkpt><trkpt lat="43.932025" lon="11.27838"><ele>295.0</ele><time>2026-04-11T09:11:57.419Z</time></trkpt><trkpt lat="43.9319083" lon="11.2785133"><ele>295.0</ele><time>2026-04-11T09:11:58.421Z</time></trkpt><trkpt lat="43.931795" lon="11.2786467"><ele>293.0</ele><time>2026-04-11T09:11:59.42Z</time></trkpt><trkpt lat="43.9316967" lon="11.278785"><ele>291.0</ele><time>2026-04-11T09:12:00.418Z</time></trkpt><trkpt lat="43.9316067" lon="11.2789183"><ele>289.0</ele><time>2026-04-11T09:12:01.421Z</time></trkpt><trkpt lat="43.9315167" lon="11.2790367"><ele>287.0</ele><time>2026-04-11T09:12:02.42Z</time></trkpt><trkpt lat="43.9314167" lon="11.2791233"><ele>286.0</ele><time>2026-04-11T09:12:03.418Z</time></trkpt><trkpt lat="43.9313017" lon="11.27921"><ele>285.0</ele><time>2026-04-11T09:12:04.42Z</time></trkpt><trkpt lat="43.93116" lon="11.2793117"><ele>284.0</ele><time>2026-04-11T09:12:05.42Z</time></trkpt><trkpt lat="43.9310167" lon="11.2794233"><ele>284.0</ele><time>2026-04-11T09:12:06.419Z</time></trkpt><trkpt lat="43.9308917" lon="11.2795317"><ele>284.0</ele><time>2026-04-11T09:12:07.419Z</time></trkpt><trkpt lat="43.93078" lon="11.2796333"><ele>284.0</ele><time>2026-04-11T09:12:08.419Z</time></trkpt><trkpt lat="43.9306783" lon="11.279745"><ele>284.0</ele><time>2026-04-11T09:12:09.419Z</time></trkpt><trkpt lat="43.9305917" lon="11.279865"><ele>283.59999999999997</ele><time>2026-04-11T09:12:10.419Z</time></trkpt><trkpt lat="43.9305167" lon="11.2799833"><ele>283.2</ele><time>2026-04-11T09:12:11.419Z</time></trkpt><trkpt lat="43.9304483" lon="11.2800783"><ele>282.79999999999995</ele><time>2026-04-11T09:12:12.419Z</time></trkpt><trkpt lat="43.9303667" lon="11.2801517"><ele>282.4</ele><time>2026-04-11T09:12:13.426Z</time></trkpt><trkpt lat="43.9302733" lon="11.2802133"><ele>282.0</ele><time>2026-04-11T09:12:14.419Z</time></trkpt><trkpt lat="43.9301683" lon="11.2802867"><ele>282.0</ele><time>2026-04-11T09:12:15.419Z</time></trkpt><trkpt lat="43.9300583" lon="11.2803717"><ele>282.0</ele><time>2026-04-11T09:12:16.419Z</time></trkpt><trkpt lat="43.9299433" lon="11.280475"><ele>282.0</ele><time>2026-04-11T09:12:17.42Z</time></trkpt><trkpt lat="43.9298367" lon="11.2805883"><ele>282.0</ele><time>2026-04-11T09:12:18.418Z</time></trkpt><trkpt lat="43.92974" lon="11.280705"><ele>281.0</ele><time>2026-04-11T09:12:19.42Z</time></trkpt><trkpt lat="43.9296567" lon="11.28082"><ele>280.0</ele><time>2026-04-11T09:12:20.419Z</time></trkpt><trkpt lat="43.9295817" lon="11.2809267"><ele>279.0</ele><time>2026-04-11T09:12:21.419Z</time></trkpt><trkpt lat="43.92951" lon="11.2810267"><ele>278.0</ele><time>2026-04-11T09:12:22.42Z</time></trkpt><trkpt lat="43.92944" lon="11.2811217"><ele>277.0</ele><time>2026-04-11T09:12:23.42Z</time></trkpt><trkpt lat="43.929375" lon="11.28121"><ele>277.0</ele><time>2026-04-11T09:12:24.419Z</time></trkpt><trkpt lat="43.92931" lon="11.2812933"><ele>277.0</ele><time>2026-04-11T09:12:25.421Z</time></trkpt><trkpt lat="43.9292533" lon="11.2813833"><ele>277.0</ele><time>2026-04-11T09:12:26.42Z</time></trkpt><trkpt lat="43.9291967" lon="11.281475"><ele>277.0</ele><time>2026-04-11T09:12:27.418Z</time></trkpt><trkpt lat="43.9291433" lon="11.2815583"><ele>277.0</ele><time>2026-04-11T09:12:28.419Z</time></trkpt><trkpt lat="43.9290833" lon="11.28165"><ele>277.0</ele><time>2026-04-11T09:12:29.418Z</time></trkpt><trkpt lat="43.929025" lon="11.281745"><ele>276.75</ele><time>2026-04-11T09:12:30.419Z</time></trkpt><trkpt lat="43.92896" lon="11.28186"><ele>276.5</ele><time>2026-04-11T09:12:31.419Z</time></trkpt><trkpt lat="43.92888" lon="11.2819917"><ele>276.25</ele><time>2026-04-11T09:12:32.419Z</time></trkpt><trkpt lat="43.9287867" lon="11.2821483"><ele>276.0</ele><time>2026-04-11T09:12:33.418Z</time></trkpt><trkpt lat="43.9286817" lon="11.282325"><ele>275.6666666666667</ele><time>2026-04-11T09:12:34.419Z</time></trkpt><trkpt lat="43.9285633" lon="11.2825117"><ele>275.33333333333337</ele><time>2026-04-11T09:12:35.42Z</time></trkpt><trkpt lat="43.9284383" lon="11.28271"><ele>275.0</ele><time>2026-04-11T09:12:36.419Z</time></trkpt><trkpt lat="43.92832" lon="11.2828983"><ele>274.0</ele><time>2026-04-11T09:12:37.419Z</time></trkpt><trkpt lat="43.9282067" lon="11.283085"><ele>273.0</ele><time>2026-04-11T09:12:38.419Z</time></trkpt><trkpt lat="43.928095" lon="11.2832733"><ele>272.0</ele><time>2026-04-11T09:12:39.418Z</time></trkpt><trkpt lat="43.927985" lon="11.2834567"><ele>272.0</ele><time>2026-04-11T09:12:40.419Z</time></trkpt><trkpt lat="43.9278917" lon="11.2836333"><ele>272.0</ele><time>2026-04-11T09:12:41.419Z</time></trkpt><trkpt lat="43.927805" lon="11.283795"><ele>272.0</ele><time>2026-04-11T09:12:42.422Z</time></trkpt><trkpt lat="43.92772" lon="11.2839483"><ele>272.0</ele><time>2026-04-11T09:12:43.418Z</time></trkpt><trkpt lat="43.9276333" lon="11.2840983"><ele>271.5</ele><time>2026-04-11T09:12:44.42Z</time></trkpt><trkpt lat="43.927545" lon="11.284255"><ele>271.0</ele><time>2026-04-11T09:12:45.419Z</time></trkpt><trkpt lat="43.9274567" lon="11.2844183"><ele>270.5</ele><time>2026-04-11T09:12:46.421Z</time></trkpt><trkpt lat="43.9273717" lon="11.2845783"><ele>270.0</ele><time>2026-04-11T09:12:47.419Z</time></trkpt><trkpt lat="43.9272933" lon="11.28473"><ele>269.25</ele><time>2026-04-11T09:12:48.419Z</time></trkpt><trkpt lat="43.9272117" lon="11.28488"><ele>268.5</ele><time>2026-04-11T09:12:49.419Z</time></trkpt><trkpt lat="43.9271267" lon="11.285025"><ele>267.75</ele><time>2026-04-11T09:12:50.42Z</time></trkpt><trkpt lat="43.9270417" lon="11.28517"><ele>267.0</ele><time>2026-04-11T09:12:51.418Z</time></trkpt><trkpt lat="43.9269633" lon="11.285295"><ele>267.0</ele><time>2026-04-11T09:12:52.419Z</time></trkpt><trkpt lat="43.9268867" lon="11.2854217"><ele>267.0</ele><time>2026-04-11T09:12:53.419Z</time></trkpt><trkpt lat="43.926805" lon="11.2855517"><ele>267.0</ele><time>2026-04-11T09:12:54.42Z</time></trkpt><trkpt lat="43.926715" lon="11.28569"><ele>267.0</ele><time>2026-04-11T09:12:55.422Z</time></trkpt><trkpt lat="43.9266183" lon="11.2858283"><ele>266.75</ele><time>2026-04-11T09:12:56.42Z</time></trkpt><trkpt lat="43.9265067" lon="11.2859633"><ele>266.5</ele><time>2026-04-11T09:12:57.42Z</time></trkpt><trkpt lat="43.9263867" lon="11.2860917"><ele>266.25</ele><time>2026-04-11T09:12:58.424Z</time></trkpt><trkpt lat="43.926275" lon="11.2862067"><ele>266.0</ele><time>2026-04-11T09:12:59.421Z</time></trkpt><trkpt lat="43.9261817" lon="11.286315"><ele>266.0</ele><time>2026-04-11T09:13:00.421Z</time></trkpt><trkpt lat="43.9261083" lon="11.28643"><ele>266.0</ele><time>2026-04-11T09:13:01.421Z</time></trkpt><trkpt lat="43.9260633" lon="11.28655"><ele>266.0</ele><time>2026-04-11T09:13:02.42Z</time></trkpt><trkpt lat="43.92604" lon="11.286685"><ele>266.0</ele><time>2026-04-11T09:13:03.419Z</time></trkpt><trkpt lat="43.9260367" lon="11.28683"><ele>266.0</ele><time>2026-04-11T09:13:04.421Z</time></trkpt><trkpt lat="43.92605" lon="11.28699"><ele>266.0</ele><time>2026-04-11T09:13:05.421Z</time></trkpt><trkpt lat="43.9260883" lon="11.2871717"><ele>266.0</ele><time>2026-04-11T09:13:06.42Z</time></trkpt><trkpt lat="43.9261417" lon="11.2873617"><ele>266.0</ele><time>2026-04-11T09:13:07.42Z</time></trkpt><trkpt lat="43.92619" lon="11.287545"><ele>266.0</ele><time>2026-04-11T09:13:08.42Z</time></trkpt><trkpt lat="43.9262333" lon="11.2877183"><ele>267.0</ele><time>2026-04-11T09:13:09.419Z</time></trkpt><trkpt lat="43.926285" lon="11.2878833"><ele>268.0</ele><time>2026-04-11T09:13:10.42Z</time></trkpt><trkpt lat="43.9263283" lon="11.2880583"><ele>269.0</ele><time>2026-04-11T09:13:11.419Z</time></trkpt><trkpt lat="43.926375" lon="11.288255"><ele>270.0</ele><time>2026-04-11T09:13:12.418Z</time></trkpt><trkpt lat="43.926415" lon="11.2884717"><ele>270.25</ele><time>2026-04-11T09:13:13.42Z</time></trkpt><trkpt lat="43.926435" lon="11.2886833"><ele>270.5</ele><time>2026-04-11T09:13:14.419Z</time></trkpt><trkpt lat="43.926445" lon="11.2888867"><ele>270.75</ele><time>2026-04-11T09:13:15.419Z</time></trkpt><trkpt lat="43.9264467" lon="11.289055"><ele>271.0</ele><time>2026-04-11T09:13:16.422Z</time></trkpt><trkpt lat="43.9264333" lon="11.2891983"><ele>271.0</ele><time>2026-04-11T09:13:17.419Z</time></trkpt><trkpt lat="43.9264" lon="11.2893183"><ele>271.0</ele><time>2026-04-11T09:13:18.419Z</time></trkpt><trkpt lat="43.9263517" lon="11.289415"><ele>271.0</ele><time>2026-04-11T09:13:19.42Z</time></trkpt><trkpt lat="43.926295" lon="11.2894983"><ele>271.0</ele><time>2026-04-11T09:13:20.419Z</time></trkpt><trkpt lat="43.9262433" lon="11.2895683"><ele>271.0</ele><time>2026-04-11T09:13:21.419Z</time></trkpt><trkpt lat="43.9261767" lon="11.2896517"><ele>271.0</ele><time>2026-04-11T09:13:23.419Z</time></trkpt><trkpt lat="43.9261033" lon="11.289705"><ele>269.0</ele><time>2026-04-11T09:14:56.419Z</time></trkpt><trkpt lat="43.9260817" lon="11.2897967"><ele>267.0</ele><time>2026-04-11T09:15:00.419Z</time></trkpt><trkpt lat="43.926135" lon="11.2899183"><ele>265.0</ele><time>2026-04-11T09:15:02.419Z</time></trkpt><trkpt lat="43.9262167" lon="11.2900183"><ele>263.0</ele><time>2026-04-11T09:15:03.418Z</time></trkpt><trkpt lat="43.9263267" lon="11.2901233"><ele>261.0</ele><time>2026-04-11T09:15:04.419Z</time></trkpt><trkpt lat="43.9264417" lon="11.290235"><ele>261.0</ele><time>2026-04-11T09:15:05.419Z</time></trkpt><trkpt lat="43.9265583" lon="11.2903383"><ele>261.0</ele><time>2026-04-11T09:15:06.419Z</time></trkpt><trkpt lat="43.9266667" lon="11.2904433"><ele>261.0</ele><time>2026-04-11T09:15:07.418Z</time></trkpt><trkpt lat="43.9267767" lon="11.29054"><ele>261.0</ele><time>2026-04-11T09:15:08.418Z</time></trkpt><trkpt lat="43.926895" lon="11.2906217"><ele>259.0</ele><time>2026-04-11T09:15:09.419Z</time></trkpt><trkpt lat="43.92701" lon="11.290685"><ele>257.0</ele><time>2026-04-11T09:15:10.419Z</time></trkpt><trkpt lat="43.927135" lon="11.2907217"><ele>255.0</ele><time>2026-04-11T09:15:11.418Z</time></trkpt><trkpt lat="43.9272667" lon="11.2907283"><ele>253.0</ele><time>2026-04-11T09:15:12.418Z</time></trkpt><trkpt lat="43.9274" lon="11.2907117"><ele>253.0</ele><time>2026-04-11T09:15:13.418Z</time></trkpt><trkpt lat="43.927545" lon="11.290675"><ele>253.0</ele><time>2026-04-11T09:15:14.419Z</time></trkpt><trkpt lat="43.9276983" lon="11.290615"><ele>253.0</ele><time>2026-04-11T09:15:15.419Z</time></trkpt><trkpt lat="43.927855" lon="11.29054"><ele>256.66666666666663</ele><time>2026-04-11T09:15:16.419Z</time></trkpt><trkpt lat="43.9280267" lon="11.290455"><ele>260.3333333333333</ele><time>2026-04-11T09:15:17.419Z</time></trkpt><trkpt lat="43.9282183" lon="11.2903617"><ele>264.0</ele><time>2026-04-11T09:15:18.419Z</time></trkpt><trkpt lat="43.9284183" lon="11.290265"><ele>267.3333333333333</ele><time>2026-04-11T09:15:19.419Z</time></trkpt><trkpt lat="43.9286133" lon="11.2901733"><ele>270.66666666666663</ele><time>2026-04-11T09:15:20.42Z</time></trkpt><trkpt lat="43.9287917" lon="11.2901067"><ele>274.0</ele><time>2026-04-11T09:15:21.42Z</time></trkpt><trkpt lat="43.9289583" lon="11.2900733"><ele>274.0</ele><time>2026-04-11T09:15:22.42Z</time></trkpt><trkpt lat="43.9291217" lon="11.2900883"><ele>274.0</ele><time>2026-04-11T09:15:23.418Z</time></trkpt><trkpt lat="43.9292967" lon="11.2901367"><ele>274.0</ele><time>2026-04-11T09:15:24.418Z</time></trkpt><trkpt lat="43.9294733" lon="11.2902183"><ele>276.0</ele><time>2026-04-11T09:15:25.42Z</time></trkpt><trkpt lat="43.9296433" lon="11.29031"><ele>278.0</ele><time>2026-04-11T09:15:26.42Z</time></trkpt><trkpt lat="43.92981" lon="11.2904067"><ele>280.0</ele><time>2026-04-11T09:15:27.418Z</time></trkpt><trkpt lat="43.9299617" lon="11.2905"><ele>284.0</ele><time>2026-04-11T09:15:28.419Z</time></trkpt><trkpt lat="43.930105" lon="11.290585"><ele>288.0</ele><time>2026-04-11T09:15:29.419Z</time></trkpt><trkpt lat="43.93024" lon="11.2906833"><ele>292.0</ele><time>2026-04-11T09:15:30.42Z</time></trkpt><trkpt lat="43.9303783" lon="11.2907883"><ele>283.3333333333333</ele><time>2026-04-11T09:15:31.42Z</time></trkpt><trkpt lat="43.9305183" lon="11.29091"><ele>274.6666666666667</ele><time>2026-04-11T09:15:32.419Z</time></trkpt><trkpt lat="43.9306533" lon="11.2910417"><ele>266.0</ele><time>2026-04-11T09:15:33.418Z</time></trkpt><trkpt lat="43.930785" lon="11.29119"><ele>266.6666666666667</ele><time>2026-04-11T09:15:34.419Z</time></trkpt><trkpt lat="43.9309117" lon="11.29132"><ele>267.3333333333333</ele><time>2026-04-11T09:15:35.419Z</time></trkpt><trkpt lat="43.9310233" lon="11.2914583"><ele>268.0</ele><time>2026-04-11T09:15:36.417Z</time></trkpt><trkpt lat="43.9311333" lon="11.2916067"><ele>268.0</ele><time>2026-04-11T09:15:37.421Z</time></trkpt><trkpt lat="43.9312417" lon="11.2917517"><ele>268.0</ele><time>2026-04-11T09:15:38.419Z</time></trkpt><trkpt lat="43.9313583" lon="11.2919117"><ele>268.0</ele><time>2026-04-11T09:15:39.418Z</time></trkpt><trkpt lat="43.9314717" lon="11.2920683"><ele>268.0</ele><time>2026-04-11T09:15:40.419Z</time></trkpt><trkpt lat="43.9315833" lon="11.2922233"><ele>268.0</ele><time>2026-04-11T09:15:41.418Z</time></trkpt><trkpt lat="43.9316933" lon="11.29238"><ele>268.0</ele><time>2026-04-11T09:15:42.419Z</time></trkpt><trkpt lat="43.9318017" lon="11.2925267"><ele>270.66666666666663</ele><time>2026-04-11T09:15:43.418Z</time></trkpt><trkpt lat="43.93191" lon="11.2926783"><ele>273.3333333333333</ele><time>2026-04-11T09:15:44.418Z</time></trkpt><trkpt lat="43.93202" lon="11.2928233"><ele>276.0</ele><time>2026-04-11T09:15:45.42Z</time></trkpt><trkpt lat="43.9321317" lon="11.2929717"><ele>273.3333333333333</ele><time>2026-04-11T09:15:46.42Z</time></trkpt><trkpt lat="43.932245" lon="11.2931233"><ele>270.66666666666663</ele><time>2026-04-11T09:15:47.42Z</time></trkpt><trkpt lat="43.9323567" lon="11.2932683"><ele>268.0</ele><time>2026-04-11T09:15:48.418Z</time></trkpt><trkpt lat="43.9324683" lon="11.29341"><ele>268.25</ele><time>2026-04-11T09:15:49.42Z</time></trkpt><trkpt lat="43.9325717" lon="11.2935483"><ele>268.5</ele><time>2026-04-11T09:15:50.419Z</time></trkpt><trkpt lat="43.9326717" lon="11.2936817"><ele>268.75</ele><time>2026-04-11T09:15:51.418Z</time></trkpt><trkpt lat="43.9327717" lon="11.2938183"><ele>269.0</ele><time>2026-04-11T09:15:52.419Z</time></trkpt><trkpt lat="43.9328767" lon="11.2939633"><ele>269.0</ele><time>2026-04-11T09:15:53.419Z</time></trkpt><trkpt lat="43.9329833" lon="11.2941083"><ele>269.0</ele><time>2026-04-11T09:15:54.419Z</time></trkpt><trkpt lat="43.9330883" lon="11.2942567"><ele>269.0</ele><time>2026-04-11T09:15:55.419Z</time></trkpt><trkpt lat="43.93319" lon="11.2944133"><ele>269.0</ele><time>2026-04-11T09:15:56.42Z</time></trkpt><trkpt lat="43.9332817" lon="11.29457"><ele>269.0</ele><time>2026-04-11T09:15:57.418Z</time></trkpt><trkpt lat="43.9333683" lon="11.29472"><ele>269.0</ele><time>2026-04-11T09:15:58.419Z</time></trkpt><trkpt lat="43.9334533" lon="11.29486"><ele>269.0</ele><time>2026-04-11T09:15:59.418Z</time></trkpt><trkpt lat="43.9335383" lon="11.2949967"><ele>269.25</ele><time>2026-04-11T09:16:00.418Z</time></trkpt><trkpt lat="43.9336217" lon="11.295125"><ele>269.5</ele><time>2026-04-11T09:16:01.418Z</time></trkpt><trkpt lat="43.9337033" lon="11.2952483"><ele>269.75</ele><time>2026-04-11T09:16:02.42Z</time></trkpt><trkpt lat="43.93378" lon="11.2953667"><ele>270.0</ele><time>2026-04-11T09:16:03.419Z</time></trkpt><trkpt lat="43.933845" lon="11.2954717"><ele>270.0</ele><time>2026-04-11T09:16:04.418Z</time></trkpt><trkpt lat="43.9338933" lon="11.2955617"><ele>270.0</ele><time>2026-04-11T09:16:05.421Z</time></trkpt><trkpt lat="43.933955" lon="11.295685"><ele>270.0</ele><time>2026-04-11T09:16:07.419Z</time></trkpt><trkpt lat="43.9340033" lon="11.2957583"><ele>270.0</ele><time>2026-04-11T09:16:09.419Z</time></trkpt><trkpt lat="43.9340533" lon="11.2956367"><ele>270.0</ele><time>2026-04-11T09:16:13.419Z</time></trkpt><trkpt lat="43.9340383" lon="11.2954917"><ele>270.0</ele><time>2026-04-11T09:16:15.418Z</time></trkpt><trkpt lat="43.93404" lon="11.295355"><ele>270.0</ele><time>2026-04-11T09:16:17.423Z</time></trkpt><trkpt lat="43.9341133" lon="11.295205"><ele>270.0</ele><time>2026-04-11T09:16:19.419Z</time></trkpt><trkpt lat="43.9341683" lon="11.2951217"><ele>270.0</ele><time>2026-04-11T09:16:20.421Z</time></trkpt><trkpt lat="43.9342267" lon="11.2950333"><ele>270.0</ele><time>2026-04-11T09:16:21.42Z</time></trkpt><trkpt lat="43.934285" lon="11.2949433"><ele>272.8333333333333</ele><time>2026-04-11T09:16:22.421Z</time></trkpt><trkpt lat="43.9343383" lon="11.2948467"><ele>275.6666666666667</ele><time>2026-04-11T09:16:23.42Z</time></trkpt><trkpt lat="43.93438" lon="11.294755"><ele>278.5</ele><time>2026-04-11T09:16:24.419Z</time></trkpt><trkpt lat="43.9344133" lon="11.29466"><ele>281.33333333333337</ele><time>2026-04-11T09:16:25.42Z</time></trkpt><trkpt lat="43.93444" lon="11.2945583"><ele>284.1666666666667</ele><time>2026-04-11T09:16:26.421Z</time></trkpt><trkpt lat="43.93447" lon="11.2944433"><ele>287.0</ele><time>2026-04-11T09:16:27.419Z</time></trkpt><trkpt lat="43.9344983" lon="11.2943333"><ele>287.2</ele><time>2026-04-11T09:16:28.42Z</time></trkpt><trkpt lat="43.9345317" lon="11.2942183"><ele>287.4</ele><time>2026-04-11T09:16:29.418Z</time></trkpt><trkpt lat="43.934565" lon="11.2940883"><ele>287.6</ele><time>2026-04-11T09:16:30.42Z</time></trkpt><trkpt lat="43.9345967" lon="11.293945"><ele>287.8</ele><time>2026-04-11T09:16:31.42Z</time></trkpt><trkpt lat="43.9346317" lon="11.29379"><ele>288.0</ele><time>2026-04-11T09:16:32.42Z</time></trkpt><trkpt lat="43.9346667" lon="11.29364"><ele>288.8</ele><time>2026-04-11T09:16:33.42Z</time></trkpt><trkpt lat="43.9346967" lon="11.2934917"><ele>289.6</ele><time>2026-04-11T09:16:34.418Z</time></trkpt><trkpt lat="43.93473" lon="11.2933567"><ele>290.4</ele><time>2026-04-11T09:16:35.421Z</time></trkpt><trkpt lat="43.9347567" lon="11.2932383"><ele>291.2</ele><time>2026-04-11T09:16:36.421Z</time></trkpt><trkpt lat="43.9347867" lon="11.2931367"><ele>292.0</ele><time>2026-04-11T09:16:37.419Z</time></trkpt><trkpt lat="43.93482" lon="11.293045"><ele>294.2</ele><time>2026-04-11T09:16:38.42Z</time></trkpt><trkpt lat="43.9349283" lon="11.29296"><ele>296.4</ele><time>2026-04-11T09:16:40.417Z</time></trkpt><trkpt lat="43.9350117" lon="11.2929433"><ele>298.6</ele><time>2026-04-11T09:16:41.419Z</time></trkpt><trkpt lat="43.9350983" lon="11.292935"><ele>300.8</ele><time>2026-04-11T09:16:42.421Z</time></trkpt><trkpt lat="43.9351833" lon="11.2929267"><ele>303.0</ele><time>2026-04-11T09:16:43.421Z</time></trkpt><trkpt lat="43.9352633" lon="11.2928983"><ele>304.3333333333333</ele><time>2026-04-11T09:16:44.419Z</time></trkpt><trkpt lat="43.9353433" lon="11.292865"><ele>305.6666666666667</ele><time>2026-04-11T09:16:45.419Z</time></trkpt><trkpt lat="43.935415" lon="11.29283"><ele>307.0</ele><time>2026-04-11T09:16:46.419Z</time></trkpt><trkpt lat="43.9354883" lon="11.2927917"><ele>308.33333333333337</ele><time>2026-04-11T09:16:47.42Z</time></trkpt><trkpt lat="43.9355567" lon="11.2927517"><ele>309.6666666666667</ele><time>2026-04-11T09:16:48.421Z</time></trkpt><trkpt lat="43.93563" lon="11.292715"><ele>311.0</ele><time>2026-04-11T09:16:49.419Z</time></trkpt><trkpt lat="43.9357017" lon="11.2926817"><ele>311.0</ele><time>2026-04-11T09:16:50.42Z</time></trkpt><trkpt lat="43.9357817" lon="11.2926517"><ele>311.0</ele><time>2026-04-11T09:16:51.419Z</time></trkpt><trkpt lat="43.9358583" lon="11.292625"><ele>311.0</ele><time>2026-04-11T09:16:52.419Z</time></trkpt><trkpt lat="43.93593" lon="11.2926067"><ele>311.0</ele><time>2026-04-11T09:16:53.419Z</time></trkpt><trkpt lat="43.935995" lon="11.2925933"><ele>311.0</ele><time>2026-04-11T09:16:54.418Z</time></trkpt><trkpt lat="43.9360967" lon="11.292525"><ele>311.0</ele><time>2026-04-11T09:16:56.418Z</time></trkpt><trkpt lat="43.93613" lon="11.29238"><ele>314.5</ele><time>2026-04-11T09:16:58.419Z</time></trkpt><trkpt lat="43.9361533" lon="11.2922233"><ele>318.0</ele><time>2026-04-11T09:17:00.418Z</time></trkpt><trkpt lat="43.9362217" lon="11.2920983"><ele>321.5</ele><time>2026-04-11T09:17:02.42Z</time></trkpt><trkpt lat="43.9362767" lon="11.2920517"><ele>325.0</ele><time>2026-04-11T09:17:03.419Z</time></trkpt><trkpt lat="43.9363483" lon="11.2920133"><ele>328.5</ele><time>2026-04-11T09:17:04.419Z</time></trkpt><trkpt lat="43.93642" lon="11.29197"><ele>332.0</ele><time>2026-04-11T09:17:05.418Z</time></trkpt><trkpt lat="43.936495" lon="11.2919317"><ele>332.0</ele><time>2026-04-11T09:17:06.419Z</time></trkpt><trkpt lat="43.9365883" lon="11.2918933"><ele>332.0</ele><time>2026-04-11T09:17:07.418Z</time></trkpt><trkpt lat="43.9366683" lon="11.2918717"><ele>332.0</ele><time>2026-04-11T09:17:08.419Z</time></trkpt><trkpt lat="43.9367433" lon="11.2918583"><ele>332.0</ele><time>2026-04-11T09:17:09.418Z</time></trkpt><trkpt lat="43.9368067" lon="11.29187"><ele>332.0</ele><time>2026-04-11T09:17:10.419Z</time></trkpt><trkpt lat="43.9368817" lon="11.291895"><ele>332.0</ele><time>2026-04-11T09:17:11.42Z</time></trkpt><trkpt lat="43.9369433" lon="11.29194"><ele>332.6</ele><time>2026-04-11T09:17:12.419Z</time></trkpt><trkpt lat="43.9370483" lon="11.2919883"><ele>333.20000000000005</ele><time>2026-04-11T09:17:14.421Z</time></trkpt><trkpt lat="43.9370833" lon="11.2918283"><ele>333.8</ele><time>2026-04-11T09:17:17.419Z</time></trkpt><trkpt lat="43.9370917" lon="11.2917233"><ele>334.4</ele><time>2026-04-11T09:17:18.42Z</time></trkpt><trkpt lat="43.9371133" lon="11.291605"><ele>335.0</ele><time>2026-04-11T09:17:19.419Z</time></trkpt><trkpt lat="43.9371383" lon="11.291475"><ele>336.5</ele><time>2026-04-11T09:17:20.421Z</time></trkpt><trkpt lat="43.93714" lon="11.2913317"><ele>338.0</ele><time>2026-04-11T09:17:21.419Z</time></trkpt><trkpt lat="43.9371217" lon="11.2911833"><ele>339.5</ele><time>2026-04-11T09:17:22.418Z</time></trkpt><trkpt lat="43.9370883" lon="11.291015"><ele>341.0</ele><time>2026-04-11T09:17:23.418Z</time></trkpt><trkpt lat="43.937045" lon="11.29085"><ele>341.0</ele><time>2026-04-11T09:17:24.42Z</time></trkpt><trkpt lat="43.937" lon="11.2906967"><ele>341.0</ele><time>2026-04-11T09:17:25.419Z</time></trkpt><trkpt lat="43.9369567" lon="11.2905467"><ele>341.0</ele><time>2026-04-11T09:17:26.418Z</time></trkpt><trkpt lat="43.9369083" lon="11.290405"><ele>341.0</ele><time>2026-04-11T09:17:27.418Z</time></trkpt><trkpt lat="43.9368667" lon="11.2902717"><ele>342.4</ele><time>2026-04-11T09:17:28.42Z</time></trkpt><trkpt lat="43.9368283" lon="11.2901717"><ele>343.8</ele><time>2026-04-11T09:17:29.419Z</time></trkpt><trkpt lat="43.9368117" lon="11.29008"><ele>345.2</ele><time>2026-04-11T09:17:30.418Z</time></trkpt><trkpt lat="43.93681" lon="11.2899283"><ele>346.59999999999997</ele><time>2026-04-11T09:17:32.419Z</time></trkpt><trkpt lat="43.9368683" lon="11.2897967"><ele>348.0</ele><time>2026-04-11T09:17:34.42Z</time></trkpt><trkpt lat="43.9369767" lon="11.2897733"><ele>348.0</ele><time>2026-04-11T09:17:35.419Z</time></trkpt><trkpt lat="43.9370833" lon="11.28976"><ele>348.0</ele><time>2026-04-11T09:17:36.418Z</time></trkpt><trkpt lat="43.9371933" lon="11.289755"><ele>348.0</ele><time>2026-04-11T09:17:37.418Z</time></trkpt><trkpt lat="43.937295" lon="11.289745"><ele>348.0</ele><time>2026-04-11T09:17:38.418Z</time></trkpt><trkpt lat="43.9374083" lon="11.2897217"><ele>348.0</ele><time>2026-04-11T09:17:39.418Z</time></trkpt><trkpt lat="43.93752" lon="11.2896683"><ele>352.75</ele><time>2026-04-11T09:17:40.418Z</time></trkpt><trkpt lat="43.9376217" lon="11.2895883"><ele>357.5</ele><time>2026-04-11T09:17:41.419Z</time></trkpt><trkpt lat="43.93772" lon="11.2894933"><ele>362.25</ele><time>2026-04-11T09:17:42.419Z</time></trkpt><trkpt lat="43.93781" lon="11.289395"><ele>367.0</ele><time>2026-04-11T09:17:43.419Z</time></trkpt><trkpt lat="43.9378983" lon="11.289315"><ele>367.0</ele><time>2026-04-11T09:17:44.42Z</time></trkpt><trkpt lat="43.9379717" lon="11.2892783"><ele>367.0</ele><time>2026-04-11T09:17:45.419Z</time></trkpt><trkpt lat="43.9380517" lon="11.2892633"><ele>367.0</ele><time>2026-04-11T09:17:46.418Z</time></trkpt><trkpt lat="43.9381267" lon="11.2892683"><ele>367.0</ele><time>2026-04-11T09:17:47.418Z</time></trkpt><trkpt lat="43.9382133" lon="11.2893383"><ele>367.0</ele><time>2026-04-11T09:17:49.42Z</time></trkpt><trkpt lat="43.938295" lon="11.2894183"><ele>367.0</ele><time>2026-04-11T09:17:51.419Z</time></trkpt><trkpt lat="43.938385" lon="11.2894717"><ele>367.5</ele><time>2026-04-11T09:17:52.418Z</time></trkpt><trkpt lat="43.9384917" lon="11.2895433"><ele>368.0</ele><time>2026-04-11T09:17:53.419Z</time></trkpt><trkpt lat="43.9385883" lon="11.2896467"><ele>368.5</ele><time>2026-04-11T09:17:54.419Z</time></trkpt><trkpt lat="43.9386817" lon="11.2897517"><ele>369.0</ele><time>2026-04-11T09:17:55.419Z</time></trkpt><trkpt lat="43.93877" lon="11.289845"><ele>369.0</ele><time>2026-04-11T09:17:56.418Z</time></trkpt><trkpt lat="43.938855" lon="11.2899183"><ele>369.0</ele><time>2026-04-11T09:17:57.419Z</time></trkpt><trkpt lat="43.938945" lon="11.28996"><ele>369.0</ele><time>2026-04-11T09:17:58.418Z</time></trkpt><trkpt lat="43.93904" lon="11.289965"><ele>369.0</ele><time>2026-04-11T09:17:59.419Z</time></trkpt><trkpt lat="43.9391183" lon="11.28993"><ele>369.0</ele><time>2026-04-11T09:18:00.419Z</time></trkpt><trkpt lat="43.93919" lon="11.2898633"><ele>369.79999999999995</ele><time>2026-04-11T09:18:01.419Z</time></trkpt><trkpt lat="43.9392517" lon="11.2897683"><ele>370.59999999999997</ele><time>2026-04-11T09:18:02.418Z</time></trkpt><trkpt lat="43.939325" lon="11.2896583"><ele>371.4</ele><time>2026-04-11T09:18:03.419Z</time></trkpt><trkpt lat="43.9394017" lon="11.2895467"><ele>372.2</ele><time>2026-04-11T09:18:04.418Z</time></trkpt><trkpt lat="43.9394817" lon="11.289445"><ele>373.0</ele><time>2026-04-11T09:18:05.418Z</time></trkpt><trkpt lat="43.93957" lon="11.289355"><ele>375.59999999999997</ele><time>2026-04-11T09:18:06.42Z</time></trkpt><trkpt lat="43.9396583" lon="11.28928"><ele>378.2</ele><time>2026-04-11T09:18:07.419Z</time></trkpt><trkpt lat="43.93976" lon="11.2892233"><ele>380.8</ele><time>2026-04-11T09:18:08.421Z</time></trkpt><trkpt lat="43.9398717" lon="11.2891817"><ele>383.4</ele><time>2026-04-11T09:18:09.42Z</time></trkpt><trkpt lat="43.93999" lon="11.28916"><ele>386.0</ele><time>2026-04-11T09:18:10.421Z</time></trkpt><trkpt lat="43.940115" lon="11.2891633"><ele>388.75</ele><time>2026-04-11T09:18:11.421Z</time></trkpt><trkpt lat="43.940245" lon="11.28919"><ele>391.5</ele><time>2026-04-11T09:18:12.42Z</time></trkpt><trkpt lat="43.9403817" lon="11.2892267"><ele>394.25</ele><time>2026-04-11T09:18:13.42Z</time></trkpt><trkpt lat="43.940515" lon="11.2892783"><ele>397.0</ele><time>2026-04-11T09:18:14.42Z</time></trkpt><trkpt lat="43.9406533" lon="11.2893283"><ele>397.0</ele><time>2026-04-11T09:18:15.42Z</time></trkpt><trkpt lat="43.94079" lon="11.28938"><ele>397.0</ele><time>2026-04-11T09:18:16.42Z</time></trkpt><trkpt lat="43.94092" lon="11.2894233"><ele>397.0</ele><time>2026-04-11T09:18:17.42Z</time></trkpt><trkpt lat="43.94104" lon="11.2894567"><ele>397.0</ele><time>2026-04-11T09:18:18.419Z</time></trkpt><trkpt lat="43.9411567" lon="11.2894767"><ele>397.6</ele><time>2026-04-11T09:18:19.418Z</time></trkpt><trkpt lat="43.9412667" lon="11.2894833"><ele>398.20000000000005</ele><time>2026-04-11T09:18:20.42Z</time></trkpt><trkpt lat="43.9413717" lon="11.28948"><ele>398.8</ele><time>2026-04-11T09:18:21.418Z</time></trkpt><trkpt lat="43.9414667" lon="11.2894733"><ele>399.4</ele><time>2026-04-11T09:18:22.417Z</time></trkpt><trkpt lat="43.94156" lon="11.2894717"><ele>400.0</ele><time>2026-04-11T09:18:23.417Z</time></trkpt><trkpt lat="43.941655" lon="11.2894667"><ele>401.8</ele><time>2026-04-11T09:18:24.418Z</time></trkpt><trkpt lat="43.9417333" lon="11.2894533"><ele>403.6</ele><time>2026-04-11T09:18:25.42Z</time></trkpt><trkpt lat="43.9418367" lon="11.2894267"><ele>405.4</ele><time>2026-04-11T09:18:26.418Z</time></trkpt><trkpt lat="43.94195" lon="11.289405"><ele>407.2</ele><time>2026-04-11T09:18:27.418Z</time></trkpt><trkpt lat="43.942055" lon="11.289395"><ele>409.0</ele><time>2026-04-11T09:18:28.418Z</time></trkpt><trkpt lat="43.942145" lon="11.2894"><ele>409.00000000000006</ele><time>2026-04-11T09:18:29.419Z</time></trkpt><trkpt lat="43.9422117" lon="11.2894183"><ele>409.0</ele><time>2026-04-11T09:18:30.419Z</time></trkpt><trkpt lat="43.9422883" lon="11.2894533"><ele>409.0</ele><time>2026-04-11T09:18:31.418Z</time></trkpt><trkpt lat="43.9423367" lon="11.289515"><ele>409.0</ele><time>2026-04-11T09:18:32.419Z</time></trkpt><trkpt lat="43.9423883" lon="11.289595"><ele>409.00000000000006</ele><time>2026-04-11T09:18:33.417Z</time></trkpt><trkpt lat="43.9424317" lon="11.2896983"><ele>409.0</ele><time>2026-04-11T09:18:34.42Z</time></trkpt><trkpt lat="43.9424767" lon="11.2897767"><ele>408.79999999999995</ele><time>2026-04-11T09:18:35.42Z</time></trkpt><trkpt lat="43.9425233" lon="11.289845"><ele>408.59999999999997</ele><time>2026-04-11T09:18:36.419Z</time></trkpt><trkpt lat="43.9425883" lon="11.2899117"><ele>408.4</ele><time>2026-04-11T09:18:37.418Z</time></trkpt><trkpt lat="43.9426767" lon="11.2899783"><ele>408.2</ele><time>2026-04-11T09:18:38.418Z</time></trkpt><trkpt lat="43.9427667" lon="11.2900583"><ele>408.0</ele><time>2026-04-11T09:18:39.418Z</time></trkpt><trkpt lat="43.942845" lon="11.2901517"><ele>408.0</ele><time>2026-04-11T09:18:40.419Z</time></trkpt><trkpt lat="43.94292" lon="11.2902833"><ele>408.0</ele><time>2026-04-11T09:18:41.42Z</time></trkpt><trkpt lat="43.9429867" lon="11.2904317"><ele>408.0</ele><time>2026-04-11T09:18:42.42Z</time></trkpt><trkpt lat="43.943055" lon="11.2905833"><ele>408.0</ele><time>2026-04-11T09:18:43.419Z</time></trkpt><trkpt lat="43.9431217" lon="11.2907233"><ele>406.6666666666667</ele><time>2026-04-11T09:18:44.42Z</time></trkpt><trkpt lat="43.9431783" lon="11.2908383"><ele>405.33333333333337</ele><time>2026-04-11T09:18:45.418Z</time></trkpt><trkpt lat="43.9432367" lon="11.290925"><ele>404.0</ele><time>2026-04-11T09:18:46.421Z</time></trkpt><trkpt lat="43.9432867" lon="11.2910017"><ele>402.6666666666667</ele><time>2026-04-11T09:18:47.419Z</time></trkpt><trkpt lat="43.9433967" lon="11.2910467"><ele>401.33333333333337</ele><time>2026-04-11T09:18:49.419Z</time></trkpt><trkpt lat="43.9434683" lon="11.2910183"><ele>400.0</ele><time>2026-04-11T09:18:50.419Z</time></trkpt><trkpt lat="43.9435483" lon="11.290955"><ele>400.6</ele><time>2026-04-11T09:18:51.418Z</time></trkpt><trkpt lat="43.9436467" lon="11.2908617"><ele>401.2</ele><time>2026-04-11T09:18:52.419Z</time></trkpt><trkpt lat="43.943735" lon="11.2907517"><ele>401.79999999999995</ele><time>2026-04-11T09:18:53.419Z</time></trkpt><trkpt lat="43.9438017" lon="11.29064"><ele>402.4</ele><time>2026-04-11T09:18:54.418Z</time></trkpt><trkpt lat="43.943845" lon="11.2905283"><ele>403.0</ele><time>2026-04-11T09:18:55.418Z</time></trkpt><trkpt lat="43.94387" lon="11.29041"><ele>403.0</ele><time>2026-04-11T09:18:56.419Z</time></trkpt><trkpt lat="43.943885" lon="11.2902767"><ele>403.0</ele><time>2026-04-11T09:18:57.418Z</time></trkpt><trkpt lat="43.9438717" lon="11.290115"><ele>403.0</ele><time>2026-04-11T09:18:58.419Z</time></trkpt><trkpt lat="43.9438483" lon="11.2899433"><ele>403.0</ele><time>2026-04-11T09:18:59.417Z</time></trkpt><trkpt lat="43.9438117" lon="11.2897867"><ele>404.4</ele><time>2026-04-11T09:19:00.419Z</time></trkpt><trkpt lat="43.9437583" lon="11.2896417"><ele>405.79999999999995</ele><time>2026-04-11T09:19:01.419Z</time></trkpt><trkpt lat="43.9437017" lon="11.289505"><ele>407.2</ele><time>2026-04-11T09:19:02.419Z</time></trkpt><trkpt lat="43.9436583" lon="11.2893867"><ele>408.6</ele><time>2026-04-11T09:19:03.417Z</time></trkpt><trkpt lat="43.9436233" lon="11.2892883"><ele>410.0</ele><time>2026-04-11T09:19:04.418Z</time></trkpt><trkpt lat="43.9436083" lon="11.2891267"><ele>410.0</ele><time>2026-04-11T09:19:06.419Z</time></trkpt><trkpt lat="43.9436333" lon="11.2889783"><ele>410.0</ele><time>2026-04-11T09:19:08.419Z</time></trkpt><trkpt lat="43.94365" lon="11.2888933"><ele>410.0</ele><time>2026-04-11T09:19:09.42Z</time></trkpt><trkpt lat="43.9436817" lon="11.2887367"><ele>410.0</ele><time>2026-04-11T09:19:11.419Z</time></trkpt><trkpt lat="43.94371" lon="11.288565"><ele>410.0</ele><time>2026-04-11T09:19:13.419Z</time></trkpt><trkpt lat="43.943725" lon="11.2884683"><ele>411.66666666666663</ele><time>2026-04-11T09:19:14.418Z</time></trkpt><trkpt lat="43.9437433" lon="11.2883617"><ele>413.3333333333333</ele><time>2026-04-11T09:19:15.419Z</time></trkpt><trkpt lat="43.943765" lon="11.2882417"><ele>415.0</ele><time>2026-04-11T09:19:16.419Z</time></trkpt><trkpt lat="43.9437783" lon="11.2881267"><ele>416.66666666666663</ele><time>2026-04-11T09:19:17.418Z</time></trkpt><trkpt lat="43.9437883" lon="11.2880167"><ele>418.3333333333333</ele><time>2026-04-11T09:19:18.419Z</time></trkpt><trkpt lat="43.943795" lon="11.2878967"><ele>420.0</ele><time>2026-04-11T09:19:19.42Z</time></trkpt><trkpt lat="43.9438033" lon="11.2877933"><ele>421.57142857142856</ele><time>2026-04-11T09:19:20.419Z</time></trkpt><trkpt lat="43.9438183" lon="11.2876783"><ele>423.1428571428571</ele><time>2026-04-11T09:19:21.418Z</time></trkpt><trkpt lat="43.94383" lon="11.2875783"><ele>424.7142857142857</ele><time>2026-04-11T09:19:22.417Z</time></trkpt><trkpt lat="43.9438417" lon="11.2874783"><ele>426.2857142857143</ele><time>2026-04-11T09:19:23.418Z</time></trkpt><trkpt lat="43.94385" lon="11.2873833"><ele>427.85714285714283</ele><time>2026-04-11T09:19:24.419Z</time></trkpt><trkpt lat="43.9438717" lon="11.2872767"><ele>429.42857142857144</ele><time>2026-04-11T09:19:25.419Z</time></trkpt><trkpt lat="43.9438867" lon="11.28719"><ele>431.0</ele><time>2026-04-11T09:19:26.418Z</time></trkpt><trkpt lat="43.94394" lon="11.2870367"><ele>431.8</ele><time>2026-04-11T09:19:28.419Z</time></trkpt><trkpt lat="43.94398" lon="11.2869683"><ele>432.6</ele><time>2026-04-11T09:19:29.42Z</time></trkpt><trkpt lat="43.9440883" lon="11.286855"><ele>433.4</ele><time>2026-04-11T09:19:31.418Z</time></trkpt><trkpt lat="43.9441583" lon="11.2867933"><ele>434.2</ele><time>2026-04-11T09:19:32.418Z</time></trkpt><trkpt lat="43.9442317" lon="11.2867383"><ele>435.0</ele><time>2026-04-11T09:19:33.419Z</time></trkpt><trkpt lat="43.944305" lon="11.28668"><ele>435.0</ele><time>2026-04-11T09:19:34.418Z</time></trkpt><trkpt lat="43.9443733" lon="11.28662"><ele>435.0</ele><time>2026-04-11T09:19:35.419Z</time></trkpt><trkpt lat="43.944455" lon="11.2865583"><ele>435.0</ele><time>2026-04-11T09:19:36.42Z</time></trkpt><trkpt lat="43.944535" lon="11.2864917"><ele>435.0</ele><time>2026-04-11T09:19:37.419Z</time></trkpt><trkpt lat="43.9446217" lon="11.2864233"><ele>435.0</ele><time>2026-04-11T09:19:38.419Z</time></trkpt><trkpt lat="43.944705" lon="11.2863583"><ele>436.4</ele><time>2026-04-11T09:19:39.419Z</time></trkpt><trkpt lat="43.9447817" lon="11.2862917"><ele>437.8</ele><time>2026-04-11T09:19:40.417Z</time></trkpt><trkpt lat="43.94486" lon="11.2862267"><ele>439.20000000000005</ele><time>2026-04-11T09:19:41.421Z</time></trkpt><trkpt lat="43.94494" lon="11.2861617"><ele>440.6</ele><time>2026-04-11T09:19:42.419Z</time></trkpt><trkpt lat="43.9450217" lon="11.2861"><ele>442.0</ele><time>2026-04-11T09:19:43.42Z</time></trkpt><trkpt lat="43.9451033" lon="11.286035"><ele>442.00000000000006</ele><time>2026-04-11T09:19:44.418Z</time></trkpt><trkpt lat="43.94518" lon="11.28597"><ele>442.0</ele><time>2026-04-11T09:19:45.42Z</time></trkpt><trkpt lat="43.9452567" lon="11.28591"><ele>442.0</ele><time>2026-04-11T09:19:46.418Z</time></trkpt><trkpt lat="43.9453317" lon="11.2858583"><ele>442.0</ele><time>2026-04-11T09:19:47.419Z</time></trkpt><trkpt lat="43.9454067" lon="11.2858133"><ele>442.00000000000006</ele><time>2026-04-11T09:19:48.419Z</time></trkpt><trkpt lat="43.945485" lon="11.285765"><ele>442.0</ele><time>2026-04-11T09:19:49.418Z</time></trkpt><trkpt lat="43.9455583" lon="11.2857183"><ele>442.00000000000006</ele><time>2026-04-11T09:19:50.419Z</time></trkpt><trkpt lat="43.9456317" lon="11.28569"><ele>442.0</ele><time>2026-04-11T09:19:51.418Z</time></trkpt><trkpt lat="43.9457083" lon="11.2856767"><ele>442.0</ele><time>2026-04-11T09:19:52.42Z</time></trkpt><trkpt lat="43.94579" lon="11.28567"><ele>442.0</ele><time>2026-04-11T09:19:53.421Z</time></trkpt><trkpt lat="43.9458833" lon="11.2856683"><ele>442.00000000000006</ele><time>2026-04-11T09:19:54.419Z</time></trkpt><trkpt lat="43.9459867" lon="11.2856667"><ele>442.0</ele><time>2026-04-11T09:19:55.419Z</time></trkpt><trkpt lat="43.946095" lon="11.2856667"><ele>440.25</ele><time>2026-04-11T09:19:56.421Z</time></trkpt><trkpt lat="43.9462017" lon="11.2856633"><ele>438.5</ele><time>2026-04-11T09:19:57.422Z</time></trkpt><trkpt lat="43.9463117" lon="11.2856617"><ele>436.75</ele><time>2026-04-11T09:19:58.418Z</time></trkpt><trkpt lat="43.9464333" lon="11.2856517"><ele>435.0</ele><time>2026-04-11T09:19:59.42Z</time></trkpt><trkpt lat="43.9465617" lon="11.2856333"><ele>435.0</ele><time>2026-04-11T09:20:00.42Z</time></trkpt><trkpt lat="43.94669" lon="11.2856017"><ele>435.0</ele><time>2026-04-11T09:20:01.419Z</time></trkpt><trkpt lat="43.9468233" lon="11.2855633"><ele>435.0</ele><time>2026-04-11T09:20:02.42Z</time></trkpt><trkpt lat="43.9469533" lon="11.2855217"><ele>435.0</ele><time>2026-04-11T09:20:03.419Z</time></trkpt><trkpt lat="43.9470667" lon="11.2854767"><ele>434.25</ele><time>2026-04-11T09:20:04.42Z</time></trkpt><trkpt lat="43.9471817" lon="11.2854333"><ele>433.5</ele><time>2026-04-11T09:20:05.42Z</time></trkpt><trkpt lat="43.9472933" lon="11.28539"><ele>432.75</ele><time>2026-04-11T09:20:06.42Z</time></trkpt><trkpt lat="43.9474" lon="11.2853483"><ele>432.0</ele><time>2026-04-11T09:20:07.421Z</time></trkpt><trkpt lat="43.9475067" lon="11.2853083"><ele>430.8</ele><time>2026-04-11T09:20:08.42Z</time></trkpt><trkpt lat="43.947615" lon="11.2852683"><ele>429.6</ele><time>2026-04-11T09:20:09.419Z</time></trkpt><trkpt lat="43.9477133" lon="11.2852333"><ele>428.40000000000003</ele><time>2026-04-11T09:20:10.419Z</time></trkpt><trkpt lat="43.947805" lon="11.2852067"><ele>427.20000000000005</ele><time>2026-04-11T09:20:11.42Z</time></trkpt><trkpt lat="43.9479" lon="11.2851783"><ele>426.0</ele><time>2026-04-11T09:20:12.42Z</time></trkpt><trkpt lat="43.9479883" lon="11.2851517"><ele>426.0</ele><time>2026-04-11T09:20:13.42Z</time></trkpt><trkpt lat="43.94809" lon="11.28513"><ele>426.0</ele><time>2026-04-11T09:20:14.419Z</time></trkpt><trkpt lat="43.9481867" lon="11.2851117"><ele>426.0</ele><time>2026-04-11T09:20:15.422Z</time></trkpt><trkpt lat="43.9482917" lon="11.2850967"><ele>426.0</ele><time>2026-04-11T09:20:16.418Z</time></trkpt><trkpt lat="43.9484017" lon="11.285075"><ele>426.0</ele><time>2026-04-11T09:20:17.419Z</time></trkpt><trkpt lat="43.94852" lon="11.28505"><ele>424.75</ele><time>2026-04-11T09:20:18.422Z</time></trkpt><trkpt lat="43.9486367" lon="11.2850233"><ele>423.5</ele><time>2026-04-11T09:20:19.421Z</time></trkpt><trkpt lat="43.9487683" lon="11.284995"><ele>422.25</ele><time>2026-04-11T09:20:20.421Z</time></trkpt><trkpt lat="43.9489017" lon="11.2849733"><ele>421.0</ele><time>2026-04-11T09:20:21.419Z</time></trkpt><trkpt lat="43.9490383" lon="11.284965"><ele>421.0</ele><time>2026-04-11T09:20:22.418Z</time></trkpt><trkpt lat="43.949175" lon="11.2849683"><ele>421.0</ele><time>2026-04-11T09:20:23.42Z</time></trkpt><trkpt lat="43.949315" lon="11.28499"><ele>421.0</ele><time>2026-04-11T09:20:24.42Z</time></trkpt><trkpt lat="43.94946" lon="11.28502"><ele>421.0</ele><time>2026-04-11T09:20:25.419Z</time></trkpt><trkpt lat="43.9496083" lon="11.2850467"><ele>422.33333333333337</ele><time>2026-04-11T09:20:26.42Z</time></trkpt><trkpt lat="43.9497717" lon="11.2850667"><ele>423.66666666666663</ele><time>2026-04-11T09:20:27.418Z</time></trkpt><trkpt lat="43.9499217" lon="11.28508"><ele>425.0</ele><time>2026-04-11T09:20:28.419Z</time></trkpt><trkpt lat="43.9500717" lon="11.2850967"><ele>429.0</ele><time>2026-04-11T09:20:29.421Z</time></trkpt><trkpt lat="43.9502117" lon="11.285125"><ele>433.0</ele><time>2026-04-11T09:20:30.419Z</time></trkpt><trkpt lat="43.9503567" lon="11.2851733"><ele>437.0</ele><time>2026-04-11T09:20:31.419Z</time></trkpt><trkpt lat="43.9504917" lon="11.2852333"><ele>441.0</ele><time>2026-04-11T09:20:32.42Z</time></trkpt><trkpt lat="43.950625" lon="11.2852883"><ele>441.0</ele><time>2026-04-11T09:20:33.42Z</time></trkpt><trkpt lat="43.9507517" lon="11.2853417"><ele>441.0</ele><time>2026-04-11T09:20:34.42Z</time></trkpt><trkpt lat="43.95087" lon="11.2853833"><ele>441.0</ele><time>2026-04-11T09:20:35.419Z</time></trkpt><trkpt lat="43.9509867" lon="11.285425"><ele>441.0</ele><time>2026-04-11T09:20:36.42Z</time></trkpt><trkpt lat="43.9510917" lon="11.28545"><ele>440.8333333333333</ele><time>2026-04-11T09:20:37.419Z</time></trkpt><trkpt lat="43.95118" lon="11.2854583"><ele>440.66666666666663</ele><time>2026-04-11T09:20:38.42Z</time></trkpt><trkpt lat="43.9512567" lon="11.2854667"><ele>440.5</ele><time>2026-04-11T09:20:39.417Z</time></trkpt><trkpt lat="43.9513333" lon="11.28548"><ele>440.3333333333333</ele><time>2026-04-11T09:20:40.42Z</time></trkpt><trkpt lat="43.9514067" lon="11.28549"><ele>440.16666666666663</ele><time>2026-04-11T09:20:41.421Z</time></trkpt><trkpt lat="43.9514867" lon="11.2855017"><ele>440.0</ele><time>2026-04-11T09:20:42.42Z</time></trkpt><trkpt lat="43.9515817" lon="11.285515"><ele>440.0</ele><time>2026-04-11T09:20:43.418Z</time></trkpt><trkpt lat="43.9516833" lon="11.2855133"><ele>440.0</ele><time>2026-04-11T09:20:44.422Z</time></trkpt><trkpt lat="43.9518083" lon="11.2855217"><ele>440.0</ele><time>2026-04-11T09:20:45.419Z</time></trkpt><trkpt lat="43.9519483" lon="11.2855167"><ele>440.0</ele><time>2026-04-11T09:20:46.419Z</time></trkpt><trkpt lat="43.9520683" lon="11.2855067"><ele>439.3333333333333</ele><time>2026-04-11T09:20:47.42Z</time></trkpt><trkpt lat="43.9521667" lon="11.2854933"><ele>438.66666666666663</ele><time>2026-04-11T09:20:48.42Z</time></trkpt><trkpt lat="43.9522517" lon="11.2854767"><ele>438.0</ele><time>2026-04-11T09:20:49.419Z</time></trkpt><trkpt lat="43.9523517" lon="11.285455"><ele>437.33333333333337</ele><time>2026-04-11T09:20:51.417Z</time></trkpt><trkpt lat="43.9524" lon="11.2855233"><ele>436.6666666666667</ele><time>2026-04-11T09:21:04.418Z</time></trkpt><trkpt lat="43.95243" lon="11.285605"><ele>436.0</ele><time>2026-04-11T09:21:07.418Z</time></trkpt><trkpt lat="43.9524321" lon="11.2857408"><ele>436.00000000000006</ele><time>2026-04-11T09:35:09.42Z</time></trkpt><trkpt lat="43.9524586" lon="11.2858356"><ele>436.0</ele><time>2026-04-11T09:35:11.419Z</time></trkpt><trkpt lat="43.9524708" lon="11.2859489"><ele>436.0</ele><time>2026-04-11T09:35:12.418Z</time></trkpt><trkpt lat="43.9524879" lon="11.2860642"><ele>436.0</ele><time>2026-04-11T09:35:13.421Z</time></trkpt><trkpt lat="43.9524846" lon="11.2861646"><ele>436.00000000000006</ele><time>2026-04-11T09:35:14.42Z</time></trkpt><trkpt lat="43.9524821" lon="11.2862548"><ele>436.0</ele><time>2026-04-11T09:35:15.42Z</time></trkpt><trkpt lat="43.9524943" lon="11.2864169"><ele>436.50000000000006</ele><time>2026-04-11T09:35:17.418Z</time></trkpt><trkpt lat="43.9525032" lon="11.2865073"><ele>437.0</ele><time>2026-04-11T09:35:18.42Z</time></trkpt><trkpt lat="43.9525052" lon="11.2865985"><ele>437.5</ele><time>2026-04-11T09:35:19.418Z</time></trkpt><trkpt lat="43.9525077" lon="11.2867379"><ele>438.0</ele><time>2026-04-11T09:35:21.42Z</time></trkpt><trkpt lat="43.9524915" lon="11.286847"><ele>438.50000000000006</ele><time>2026-04-11T09:35:23.423Z</time></trkpt><trkpt lat="43.9524853" lon="11.2869514"><ele>439.0</ele><time>2026-04-11T09:35:25.418Z</time></trkpt><trkpt lat="43.9525067" lon="11.2870878"><ele>439.00000000000006</ele><time>2026-04-11T09:35:27.418Z</time></trkpt><trkpt lat="43.9525332" lon="11.2872519"><ele>439.0</ele><time>2026-04-11T09:35:29.417Z</time></trkpt><trkpt lat="43.9525495" lon="11.2873427"><ele>439.0</ele><time>2026-04-11T09:35:30.418Z</time></trkpt><trkpt lat="43.9525665" lon="11.2874312"><ele>439.0</ele><time>2026-04-11T09:35:31.42Z</time></trkpt><trkpt lat="43.952604" lon="11.28757"><ele>439.00000000000006</ele><time>2026-04-11T09:35:33.418Z</time></trkpt><trkpt lat="43.9526461" lon="11.2876765"><ele>439.0</ele><time>2026-04-11T09:35:35.417Z</time></trkpt><trkpt lat="43.9526947" lon="11.287797"><ele>439.6</ele><time>2026-04-11T09:35:37.418Z</time></trkpt><trkpt lat="43.9527567" lon="11.287892"><ele>440.2</ele><time>2026-04-11T09:35:39.418Z</time></trkpt><trkpt lat="43.9528506" lon="11.2879698"><ele>440.80000000000007</ele><time>2026-04-11T09:35:41.417Z</time></trkpt><trkpt lat="43.9529544" lon="11.2879984"><ele>441.40000000000003</ele><time>2026-04-11T09:35:43.419Z</time></trkpt><trkpt lat="43.9530458" lon="11.2880282"><ele>442.0</ele><time>2026-04-11T09:35:45.42Z</time></trkpt><trkpt lat="43.953132" lon="11.2880605"><ele>442.0</ele><time>2026-04-11T09:35:47.418Z</time></trkpt><trkpt lat="43.9532024" lon="11.2880929"><ele>442.00000000000006</ele><time>2026-04-11T09:35:49.418Z</time></trkpt><trkpt lat="43.9532911" lon="11.2881394"><ele>442.00000000000006</ele><time>2026-04-11T09:35:51.418Z</time></trkpt><trkpt lat="43.9533778" lon="11.2882022"><ele>442.0</ele><time>2026-04-11T09:35:53.417Z</time></trkpt><trkpt lat="43.9534748" lon="11.288326"><ele>442.0</ele><time>2026-04-11T09:35:55.424Z</time></trkpt><trkpt lat="43.9535584" lon="11.2884296"><ele>434.20000000000005</ele><time>2026-04-11T09:35:57.418Z</time></trkpt><trkpt lat="43.9536367" lon="11.2885283"><ele>426.40000000000003</ele><time>2026-04-11T09:35:59.418Z</time></trkpt><trkpt lat="43.9537083" lon="11.2886517"><ele>418.6</ele><time>2026-04-11T09:36:01.417Z</time></trkpt><trkpt lat="43.9537717" lon="11.2887983"><ele>410.79999999999995</ele><time>2026-04-11T09:36:03.42Z</time></trkpt><trkpt lat="43.953805" lon="11.2888733"><ele>403.0</ele><time>2026-04-11T09:36:04.417Z</time></trkpt><trkpt lat="43.9538383" lon="11.2889617"><ele>402.79999999999995</ele><time>2026-04-11T09:36:05.417Z</time></trkpt><trkpt lat="43.95387" lon="11.28904"><ele>402.6</ele><time>2026-04-11T09:36:06.418Z</time></trkpt><trkpt lat="43.953935" lon="11.2891983"><ele>402.4</ele><time>2026-04-11T09:36:08.423Z</time></trkpt><trkpt lat="43.954005" lon="11.2893483"><ele>402.20000000000005</ele><time>2026-04-11T09:36:10.418Z</time></trkpt><trkpt lat="43.95404" lon="11.2894367"><ele>402.0</ele><time>2026-04-11T09:36:11.418Z</time></trkpt><trkpt lat="43.9540783" lon="11.2895233"><ele>402.0</ele><time>2026-04-11T09:36:12.418Z</time></trkpt><trkpt lat="43.95411" lon="11.2896367"><ele>402.0</ele><time>2026-04-11T09:36:13.418Z</time></trkpt><trkpt lat="43.954145" lon="11.2897267"><ele>402.0</ele><time>2026-04-11T09:36:14.419Z</time></trkpt><trkpt lat="43.9541767" lon="11.2898167"><ele>402.0</ele><time>2026-04-11T09:36:15.419Z</time></trkpt><trkpt lat="43.95423" lon="11.2899767"><ele>402.0</ele><time>2026-04-11T09:36:17.418Z</time></trkpt><trkpt lat="43.9542517" lon="11.2900617"><ele>402.0</ele><time>2026-04-11T09:36:18.424Z</time></trkpt><trkpt lat="43.95427" lon="11.2901583"><ele>401.0</ele><time>2026-04-11T09:36:19.418Z</time></trkpt><trkpt lat="43.9542917" lon="11.290295"><ele>400.0</ele><time>2026-04-11T09:36:21.42Z</time></trkpt><trkpt lat="43.9542933" lon="11.2904117"><ele>399.0</ele><time>2026-04-11T09:36:23.419Z</time></trkpt><trkpt lat="43.954305" lon="11.2905717"><ele>398.0</ele><time>2026-04-11T09:36:25.418Z</time></trkpt><trkpt lat="43.9543167" lon="11.2907433"><ele>397.0</ele><time>2026-04-11T09:36:27.421Z</time></trkpt><trkpt lat="43.9543233" lon="11.2908433"><ele>397.00000000000006</ele><time>2026-04-11T09:36:28.419Z</time></trkpt><trkpt lat="43.95433" lon="11.2909367"><ele>397.0</ele><time>2026-04-11T09:36:29.418Z</time></trkpt><trkpt lat="43.954345" lon="11.2910717"><ele>397.0</ele><time>2026-04-11T09:36:31.419Z</time></trkpt><trkpt lat="43.9543367" lon="11.2911667"><ele>397.0</ele><time>2026-04-11T09:36:32.419Z</time></trkpt><trkpt lat="43.9543333" lon="11.291275"><ele>397.00000000000006</ele><time>2026-04-11T09:36:33.418Z</time></trkpt><trkpt lat="43.9543283" lon="11.29139"><ele>397.0</ele><time>2026-04-11T09:36:34.42Z</time></trkpt><trkpt lat="43.954325" lon="11.2915583"><ele>395.0</ele><time>2026-04-11T09:36:36.418Z</time></trkpt><trkpt lat="43.9543067" lon="11.29179"><ele>393.0</ele><time>2026-04-11T09:36:38.425Z</time></trkpt><trkpt lat="43.9543033" lon="11.291935"><ele>391.0</ele><time>2026-04-11T09:36:39.42Z</time></trkpt><trkpt lat="43.95431" lon="11.2921"><ele>389.0</ele><time>2026-04-11T09:36:41.42Z</time></trkpt><trkpt lat="43.9543067" lon="11.2921917"><ele>389.4</ele><time>2026-04-11T09:36:42.419Z</time></trkpt><trkpt lat="43.9543017" lon="11.2923667"><ele>389.79999999999995</ele><time>2026-04-11T09:36:44.42Z</time></trkpt><trkpt lat="43.95431" lon="11.2925233"><ele>390.20000000000005</ele><time>2026-04-11T09:36:46.419Z</time></trkpt><trkpt lat="43.9543567" lon="11.292685"><ele>390.6</ele><time>2026-04-11T09:36:48.42Z</time></trkpt><trkpt lat="43.9543733" lon="11.2927717"><ele>391.0</ele><time>2026-04-11T09:36:49.419Z</time></trkpt><trkpt lat="43.9544" lon="11.2929367"><ele>391.0</ele><time>2026-04-11T09:36:51.418Z</time></trkpt><trkpt lat="43.95441" lon="11.293025"><ele>391.0</ele><time>2026-04-11T09:36:52.419Z</time></trkpt><trkpt lat="43.9544433" lon="11.2931983"><ele>391.0</ele><time>2026-04-11T09:36:54.418Z</time></trkpt><trkpt lat="43.9544467" lon="11.2933533"><ele>391.0</ele><time>2026-04-11T09:36:56.422Z</time></trkpt><trkpt lat="43.9544233" lon="11.2934967"><ele>391.0</ele><time>2026-04-11T09:36:58.419Z</time></trkpt><trkpt lat="43.9544067" lon="11.2935983"><ele>391.6</ele><time>2026-04-11T09:36:59.419Z</time></trkpt><trkpt lat="43.9543983" lon="11.2936933"><ele>392.20000000000005</ele><time>2026-04-11T09:37:00.42Z</time></trkpt><trkpt lat="43.9543983" lon="11.2937933"><ele>392.79999999999995</ele><time>2026-04-11T09:37:01.42Z</time></trkpt><trkpt lat="43.9544083" lon="11.29389"><ele>393.4</ele><time>2026-04-11T09:37:02.419Z</time></trkpt><trkpt lat="43.9544217" lon="11.2940633"><ele>394.0</ele><time>2026-04-11T09:37:04.423Z</time></trkpt><trkpt lat="43.9544533" lon="11.29423"><ele>395.0</ele><time>2026-04-11T09:37:06.418Z</time></trkpt><trkpt lat="43.954455" lon="11.2943217"><ele>396.0</ele><time>2026-04-11T09:37:07.419Z</time></trkpt><trkpt lat="43.9544533" lon="11.29442"><ele>397.0</ele><time>2026-04-11T09:37:08.419Z</time></trkpt><trkpt lat="43.95446" lon="11.2945833"><ele>398.0</ele><time>2026-04-11T09:37:10.419Z</time></trkpt><trkpt lat="43.9544983" lon="11.2947217"><ele>399.0</ele><time>2026-04-11T09:37:12.419Z</time></trkpt><trkpt lat="43.9545617" lon="11.294855"><ele>396.8333333333333</ele><time>2026-04-11T09:37:14.418Z</time></trkpt><trkpt lat="43.9546433" lon="11.294985"><ele>394.66666666666663</ele><time>2026-04-11T09:37:16.419Z</time></trkpt><trkpt lat="43.95472" lon="11.2951017"><ele>392.5</ele><time>2026-04-11T09:37:18.421Z</time></trkpt><trkpt lat="43.9547633" lon="11.2951667"><ele>390.3333333333333</ele><time>2026-04-11T09:37:19.424Z</time></trkpt><trkpt lat="43.9548033" lon="11.2952467"><ele>388.16666666666663</ele><time>2026-04-11T09:37:20.419Z</time></trkpt><trkpt lat="43.9548433" lon="11.2953333"><ele>386.0</ele><time>2026-04-11T09:37:21.418Z</time></trkpt><trkpt lat="43.9548867" lon="11.29542"><ele>385.99999999999994</ele><time>2026-04-11T09:37:22.42Z</time></trkpt><trkpt lat="43.9549283" lon="11.29549"><ele>386.0</ele><time>2026-04-11T09:37:23.42Z</time></trkpt><trkpt lat="43.9549667" lon="11.29556"><ele>386.0</ele><time>2026-04-11T09:37:24.419Z</time></trkpt><trkpt lat="43.9550283" lon="11.295695"><ele>386.0</ele><time>2026-04-11T09:37:26.422Z</time></trkpt><trkpt lat="43.95506" lon="11.2957733"><ele>385.99999999999994</ele><time>2026-04-11T09:37:27.42Z</time></trkpt><trkpt lat="43.9550867" lon="11.2959167"><ele>386.0</ele><time>2026-04-11T09:37:29.42Z</time></trkpt><trkpt lat="43.9550883" lon="11.2960067"><ele>384.0</ele><time>2026-04-11T09:37:30.418Z</time></trkpt><trkpt lat="43.955065" lon="11.2961583"><ele>382.0</ele><time>2026-04-11T09:37:32.42Z</time></trkpt><trkpt lat="43.9550383" lon="11.2963233"><ele>380.0</ele><time>2026-04-11T09:37:34.419Z</time></trkpt><trkpt lat="43.9550333" lon="11.29649"><ele>378.0</ele><time>2026-04-11T09:37:36.419Z</time></trkpt><trkpt lat="43.95504" lon="11.2965817"><ele>376.0</ele><time>2026-04-11T09:37:37.419Z</time></trkpt><trkpt lat="43.9550667" lon="11.2966617"><ele>375.1428571428571</ele><time>2026-04-11T09:37:38.42Z</time></trkpt><trkpt lat="43.9550967" lon="11.2967517"><ele>374.2857142857143</ele><time>2026-04-11T09:37:39.418Z</time></trkpt><trkpt lat="43.9551283" lon="11.2968567"><ele>373.42857142857144</ele><time>2026-04-11T09:37:40.419Z</time></trkpt><trkpt lat="43.9551567" lon="11.29696"><ele>372.57142857142856</ele><time>2026-04-11T09:37:41.419Z</time></trkpt><trkpt lat="43.9551767" lon="11.297045"><ele>371.7142857142857</ele><time>2026-04-11T09:37:42.422Z</time></trkpt><trkpt lat="43.9551983" lon="11.2971333"><ele>370.85714285714283</ele><time>2026-04-11T09:37:43.418Z</time></trkpt><trkpt lat="43.9552133" lon="11.29722"><ele>370.0</ele><time>2026-04-11T09:37:44.419Z</time></trkpt><trkpt lat="43.95524" lon="11.297385"><ele>369.2</ele><time>2026-04-11T09:37:46.418Z</time></trkpt><trkpt lat="43.9552783" lon="11.29753"><ele>368.4</ele><time>2026-04-11T09:37:48.419Z</time></trkpt><trkpt lat="43.955315" lon="11.2977033"><ele>367.6</ele><time>2026-04-11T09:37:50.42Z</time></trkpt><trkpt lat="43.9553217" lon="11.2978133"><ele>366.8</ele><time>2026-04-11T09:37:51.418Z</time></trkpt><trkpt lat="43.955315" lon="11.29793"><ele>366.0</ele><time>2026-04-11T09:37:52.419Z</time></trkpt><trkpt lat="43.9553" lon="11.2980383"><ele>363.6</ele><time>2026-04-11T09:37:53.421Z</time></trkpt><trkpt lat="43.9552783" lon="11.29815"><ele>361.20000000000005</ele><time>2026-04-11T09:37:54.419Z</time></trkpt><trkpt lat="43.9552517" lon="11.2982367"><ele>358.79999999999995</ele><time>2026-04-11T09:37:55.419Z</time></trkpt><trkpt lat="43.955215" lon="11.2983667"><ele>356.4</ele><time>2026-04-11T09:37:56.419Z</time></trkpt><trkpt lat="43.9551567" lon="11.2985417"><ele>354.0</ele><time>2026-04-11T09:37:57.42Z</time></trkpt><trkpt lat="43.9551017" lon="11.2986883"><ele>354.0</ele><time>2026-04-11T09:37:58.419Z</time></trkpt><trkpt lat="43.9550383" lon="11.2988383"><ele>354.0</ele><time>2026-04-11T09:37:59.418Z</time></trkpt><trkpt lat="43.9549917" lon="11.298955"><ele>354.0</ele><time>2026-04-11T09:38:00.418Z</time></trkpt><trkpt lat="43.9549283" lon="11.2990833"><ele>354.0</ele><time>2026-04-11T09:38:01.422Z</time></trkpt><trkpt lat="43.9548933" lon="11.29919"><ele>354.0</ele><time>2026-04-11T09:38:02.419Z</time></trkpt><trkpt lat="43.954865" lon="11.2993017"><ele>349.79999999999995</ele><time>2026-04-11T09:38:03.419Z</time></trkpt><trkpt lat="43.9548483" lon="11.2994233"><ele>345.59999999999997</ele><time>2026-04-11T09:38:04.42Z</time></trkpt><trkpt lat="43.9548983" lon="11.299555"><ele>341.4</ele><time>2026-04-11T09:38:06.422Z</time></trkpt><trkpt lat="43.95493" lon="11.2996467"><ele>337.2</ele><time>2026-04-11T09:38:08.42Z</time></trkpt><trkpt lat="43.955065" lon="11.2995833"><ele>333.0</ele><time>2026-04-11T09:38:10.419Z</time></trkpt><trkpt lat="43.9551333" lon="11.2995617"><ele>333.0</ele><time>2026-04-11T09:38:11.418Z</time></trkpt><trkpt lat="43.9552067" lon="11.2995433"><ele>333.0</ele><time>2026-04-11T09:38:12.42Z</time></trkpt><trkpt lat="43.955325" lon="11.2994933"><ele>333.0</ele><time>2026-04-11T09:38:13.419Z</time></trkpt><trkpt lat="43.9554083" lon="11.2994983"><ele>333.0</ele><time>2026-04-11T09:38:14.419Z</time></trkpt><trkpt lat="43.9554917" lon="11.2995033"><ele>333.0</ele><time>2026-04-11T09:38:15.418Z</time></trkpt><trkpt lat="43.9555667" lon="11.2995133"><ele>333.0</ele><time>2026-04-11T09:38:16.42Z</time></trkpt><trkpt lat="43.9556817" lon="11.2995733"><ele>333.0</ele><time>2026-04-11T09:38:18.42Z</time></trkpt><trkpt lat="43.95575" lon="11.299635"><ele>333.0</ele><time>2026-04-11T09:38:19.419Z</time></trkpt><trkpt lat="43.9557733" lon="11.2997383"><ele>333.0</ele><time>2026-04-11T09:38:20.427Z</time></trkpt><trkpt lat="43.9558133" lon="11.2998533"><ele>333.0</ele><time>2026-04-11T09:38:21.418Z</time></trkpt><trkpt lat="43.9558283" lon="11.299985"><ele>333.0</ele><time>2026-04-11T09:38:22.418Z</time></trkpt><trkpt lat="43.9558233" lon="11.3001267"><ele>333.0</ele><time>2026-04-11T09:38:23.419Z</time></trkpt><trkpt lat="43.9557983" lon="11.3002733"><ele>329.3333333333333</ele><time>2026-04-11T09:38:24.418Z</time></trkpt><trkpt lat="43.9557667" lon="11.3004033"><ele>325.6666666666667</ele><time>2026-04-11T09:38:25.418Z</time></trkpt><trkpt lat="43.955725" lon="11.3005367"><ele>322.0</ele><time>2026-04-11T09:38:26.419Z</time></trkpt><trkpt lat="43.955695" lon="11.30064"><ele>318.33333333333337</ele><time>2026-04-11T09:38:27.419Z</time></trkpt><trkpt lat="43.95568" lon="11.3007467"><ele>314.6666666666667</ele><time>2026-04-11T09:38:28.42Z</time></trkpt><trkpt lat="43.955655" lon="11.3008533"><ele>311.0</ele><time>2026-04-11T09:38:29.42Z</time></trkpt><trkpt lat="43.9555817" lon="11.3009633"><ele>308.5</ele><time>2026-04-11T09:38:31.419Z</time></trkpt><trkpt lat="43.9555233" lon="11.30102"><ele>306.0</ele><time>2026-04-11T09:38:32.421Z</time></trkpt><trkpt lat="43.9554633" lon="11.3010917"><ele>303.5</ele><time>2026-04-11T09:38:33.418Z</time></trkpt><trkpt lat="43.9553833" lon="11.30117"><ele>301.0</ele><time>2026-04-11T09:38:34.419Z</time></trkpt><trkpt lat="43.9552983" lon="11.30125"><ele>298.5</ele><time>2026-04-11T09:38:35.418Z</time></trkpt><trkpt lat="43.9552283" lon="11.3013283"><ele>296.0</ele><time>2026-04-11T09:38:36.417Z</time></trkpt><trkpt lat="43.9551517" lon="11.301405"><ele>293.6</ele><time>2026-04-11T09:38:37.419Z</time></trkpt><trkpt lat="43.95508" lon="11.301465"><ele>291.20000000000005</ele><time>2026-04-11T09:38:38.42Z</time></trkpt><trkpt lat="43.9550083" lon="11.3015383"><ele>288.79999999999995</ele><time>2026-04-11T09:38:39.419Z</time></trkpt><trkpt lat="43.9549233" lon="11.301605"><ele>286.4</ele><time>2026-04-11T09:38:40.417Z</time></trkpt><trkpt lat="43.9548333" lon="11.3016683"><ele>284.0</ele><time>2026-04-11T09:38:41.418Z</time></trkpt><trkpt lat="43.9547417" lon="11.3017333"><ele>284.0</ele><time>2026-04-11T09:38:42.418Z</time></trkpt><trkpt lat="43.954665" lon="11.301775"><ele>284.0</ele><time>2026-04-11T09:38:43.417Z</time></trkpt><trkpt lat="43.9545917" lon="11.3018267"><ele>284.0</ele><time>2026-04-11T09:38:44.418Z</time></trkpt><trkpt lat="43.9545183" lon="11.301885"><ele>284.0</ele><time>2026-04-11T09:38:45.418Z</time></trkpt><trkpt lat="43.9544617" lon="11.3019433"><ele>284.0</ele><time>2026-04-11T09:38:46.418Z</time></trkpt><trkpt lat="43.95442" lon="11.3020133"><ele>284.0</ele><time>2026-04-11T09:38:47.42Z</time></trkpt><trkpt lat="43.9543883" lon="11.3020917"><ele>284.0</ele><time>2026-04-11T09:38:48.418Z</time></trkpt><trkpt lat="43.9543833" lon="11.3022433"><ele>284.0</ele><time>2026-04-11T09:38:50.419Z</time></trkpt><trkpt lat="43.9544217" lon="11.3023283"><ele>284.0</ele><time>2026-04-11T09:38:51.418Z</time></trkpt><trkpt lat="43.9544483" lon="11.302415"><ele>284.0</ele><time>2026-04-11T09:38:52.419Z</time></trkpt><trkpt lat="43.9544567" lon="11.302505"><ele>284.0</ele><time>2026-04-11T09:38:53.418Z</time></trkpt><trkpt lat="43.9544767" lon="11.302595"><ele>284.0</ele><time>2026-04-11T09:38:54.419Z</time></trkpt><trkpt lat="43.9545067" lon="11.3027417"><ele>282.2</ele><time>2026-04-11T09:38:56.42Z</time></trkpt><trkpt lat="43.9544917" lon="11.3028383"><ele>280.4</ele><time>2026-04-11T09:38:58.419Z</time></trkpt><trkpt lat="43.954495" lon="11.3030217"><ele>278.6</ele><time>2026-04-11T09:40:06.417Z</time></trkpt><trkpt lat="43.9545533" lon="11.3031483"><ele>276.8</ele><time>2026-04-11T09:40:09.419Z</time></trkpt><trkpt lat="43.9545967" lon="11.3032783"><ele>275.0</ele><time>2026-04-11T09:40:11.417Z</time></trkpt><trkpt lat="43.9546433" lon="11.30342"><ele>273.5</ele><time>2026-04-11T09:40:13.418Z</time></trkpt><trkpt lat="43.9546917" lon="11.3035567"><ele>272.0</ele><time>2026-04-11T09:40:15.418Z</time></trkpt><trkpt lat="43.9547367" lon="11.3036983"><ele>270.5</ele><time>2026-04-11T09:40:17.417Z</time></trkpt><trkpt lat="43.95475" lon="11.303785"><ele>269.0</ele><time>2026-04-11T09:40:18.418Z</time></trkpt><trkpt lat="43.954755" lon="11.303875"><ele>267.5</ele><time>2026-04-11T09:40:19.418Z</time></trkpt><trkpt lat="43.9547633" lon="11.303975"><ele>266.0</ele><time>2026-04-11T09:40:20.417Z</time></trkpt><trkpt lat="43.9547683" lon="11.3040717"><ele>265.5</ele><time>2026-04-11T09:40:21.418Z</time></trkpt><trkpt lat="43.954775" lon="11.3041683"><ele>265.0</ele><time>2026-04-11T09:40:22.419Z</time></trkpt><trkpt lat="43.954785" lon="11.30426"><ele>264.5</ele><time>2026-04-11T09:40:23.418Z</time></trkpt><trkpt lat="43.9548333" lon="11.3044317"><ele>264.0</ele><time>2026-04-11T09:40:25.419Z</time></trkpt><trkpt lat="43.95486" lon="11.30452"><ele>263.5</ele><time>2026-04-11T09:40:26.419Z</time></trkpt><trkpt lat="43.954885" lon="11.3046067"><ele>263.0</ele><time>2026-04-11T09:40:27.418Z</time></trkpt><trkpt lat="43.954905" lon="11.3046933"><ele>262.42857142857144</ele><time>2026-04-11T09:40:28.419Z</time></trkpt><trkpt lat="43.9549233" lon="11.304785"><ele>261.85714285714283</ele><time>2026-04-11T09:40:29.42Z</time></trkpt><trkpt lat="43.9549433" lon="11.30488"><ele>261.2857142857143</ele><time>2026-04-11T09:40:30.42Z</time></trkpt><trkpt lat="43.954955" lon="11.3049733"><ele>260.7142857142857</ele><time>2026-04-11T09:40:31.418Z</time></trkpt><trkpt lat="43.9549683" lon="11.3050667"><ele>260.1428571428571</ele><time>2026-04-11T09:40:32.418Z</time></trkpt><trkpt lat="43.95498" lon="11.3051733"><ele>259.57142857142856</ele><time>2026-04-11T09:40:33.418Z</time></trkpt><trkpt lat="43.9549833" lon="11.3052767"><ele>259.0</ele><time>2026-04-11T09:40:34.417Z</time></trkpt><trkpt lat="43.9549767" lon="11.3053733"><ele>259.0</ele><time>2026-04-11T09:40:35.419Z</time></trkpt><trkpt lat="43.9549767" lon="11.3054617"><ele>259.0</ele><time>2026-04-11T09:40:36.417Z</time></trkpt><trkpt lat="43.9550117" lon="11.3056167"><ele>259.0</ele><time>2026-04-11T09:40:38.418Z</time></trkpt><trkpt lat="43.9550983" lon="11.3057183"><ele>259.0</ele><time>2026-04-11T09:40:40.42Z</time></trkpt><trkpt lat="43.9552083" lon="11.3057233"><ele>259.0</ele><time>2026-04-11T09:40:42.418Z</time></trkpt><trkpt lat="43.95531" lon="11.3056683"><ele>257.5</ele><time>2026-04-11T09:40:44.417Z</time></trkpt><trkpt lat="43.9553917" lon="11.30562"><ele>256.0</ele><time>2026-04-11T09:40:46.417Z</time></trkpt><trkpt lat="43.9554633" lon="11.3056167"><ele>254.5</ele><time>2026-04-11T09:40:48.418Z</time></trkpt><trkpt lat="43.9554017" lon="11.3056733"><ele>253.0</ele><time>2026-04-11T09:40:50.417Z</time></trkpt><trkpt lat="43.955355" lon="11.305745"><ele>251.49999999999997</ele><time>2026-04-11T09:40:52.417Z</time></trkpt><trkpt lat="43.95526" lon="11.305805"><ele>250.0</ele><time>2026-04-11T09:40:54.417Z</time></trkpt><trkpt lat="43.9551817" lon="11.30584"><ele>249.99999999999997</ele><time>2026-04-11T09:40:56.418Z</time></trkpt><trkpt lat="43.9551167" lon="11.3058967"><ele>250.0</ele><time>2026-04-11T09:40:59.418Z</time></trkpt><trkpt lat="43.9551267" lon="11.3059983"><ele>250.0</ele><time>2026-04-11T09:41:01.417Z</time></trkpt><trkpt lat="43.95518" lon="11.3061533"><ele>250.0</ele><time>2026-04-11T09:41:03.418Z</time></trkpt><trkpt lat="43.9552083" lon="11.3062383"><ele>249.99999999999997</ele><time>2026-04-11T09:41:04.419Z</time></trkpt><trkpt lat="43.9552367" lon="11.3063283"><ele>250.0</ele><time>2026-04-11T09:41:05.417Z</time></trkpt><trkpt lat="43.9552683" lon="11.3064167"><ele>250.83333333333331</ele><time>2026-04-11T09:41:06.417Z</time></trkpt><trkpt lat="43.9553" lon="11.3065033"><ele>251.66666666666666</ele><time>2026-04-11T09:41:07.419Z</time></trkpt><trkpt lat="43.9553383" lon="11.3065967"><ele>252.5</ele><time>2026-04-11T09:41:08.417Z</time></trkpt><trkpt lat="43.9553817" lon="11.3067017"><ele>253.33333333333331</ele><time>2026-04-11T09:41:09.417Z</time></trkpt><trkpt lat="43.9554283" lon="11.3068083"><ele>254.16666666666666</ele><time>2026-04-11T09:41:10.418Z</time></trkpt><trkpt lat="43.9554717" lon="11.306925"><ele>255.0</ele><time>2026-04-11T09:41:11.417Z</time></trkpt><trkpt lat="43.9555167" lon="11.3070467"><ele>255.0</ele><time>2026-04-11T09:41:12.419Z</time></trkpt><trkpt lat="43.9555617" lon="11.307165"><ele>255.0</ele><time>2026-04-11T09:41:13.417Z</time></trkpt><trkpt lat="43.9556217" lon="11.3072783"><ele>255.0</ele><time>2026-04-11T09:41:14.42Z</time></trkpt><trkpt lat="43.9556833" lon="11.307385"><ele>255.0</ele><time>2026-04-11T09:41:15.418Z</time></trkpt><trkpt lat="43.955745" lon="11.3074683"><ele>255.0</ele><time>2026-04-11T09:41:16.419Z</time></trkpt><trkpt lat="43.9558067" lon="11.3075433"><ele>257.5</ele><time>2026-04-11T09:41:17.418Z</time></trkpt><trkpt lat="43.95588" lon="11.3076267"><ele>260.0</ele><time>2026-04-11T09:41:18.419Z</time></trkpt><trkpt lat="43.9559433" lon="11.307705"><ele>262.5</ele><time>2026-04-11T09:41:19.417Z</time></trkpt><trkpt lat="43.95601" lon="11.3077683"><ele>265.0</ele><time>2026-04-11T09:41:20.418Z</time></trkpt><trkpt lat="43.9560617" lon="11.3078267"><ele>267.5</ele><time>2026-04-11T09:41:21.417Z</time></trkpt><trkpt lat="43.95612" lon="11.3078833"><ele>270.0</ele><time>2026-04-11T09:41:22.418Z</time></trkpt><trkpt lat="43.9561783" lon="11.30793"><ele>270.0</ele><time>2026-04-11T09:41:23.417Z</time></trkpt><trkpt lat="43.9562417" lon="11.307965"><ele>270.0</ele><time>2026-04-11T09:41:24.418Z</time></trkpt><trkpt lat="43.9563467" lon="11.3079733"><ele>270.0</ele><time>2026-04-11T09:41:26.42Z</time></trkpt><trkpt lat="43.9564633" lon="11.3079767"><ele>270.0</ele><time>2026-04-11T09:41:28.42Z</time></trkpt><trkpt lat="43.9565733" lon="11.308"><ele>270.0</ele><time>2026-04-11T09:41:30.417Z</time></trkpt><trkpt lat="43.9566817" lon="11.3080333"><ele>271.2</ele><time>2026-04-11T09:41:32.418Z</time></trkpt><trkpt lat="43.9567883" lon="11.3080833"><ele>272.4</ele><time>2026-04-11T09:41:34.419Z</time></trkpt><trkpt lat="43.9568967" lon="11.3081433"><ele>273.6</ele><time>2026-04-11T09:41:36.418Z</time></trkpt><trkpt lat="43.9569667" lon="11.3081833"><ele>274.8</ele><time>2026-04-11T09:41:37.419Z</time></trkpt><trkpt lat="43.9570517" lon="11.3082517"><ele>276.0</ele><time>2026-04-11T09:41:39.418Z</time></trkpt><trkpt lat="43.95715" lon="11.3083383"><ele>276.0</ele><time>2026-04-11T09:41:41.419Z</time></trkpt><trkpt lat="43.9572467" lon="11.308445"><ele>276.0</ele><time>2026-04-11T09:41:43.417Z</time></trkpt><trkpt lat="43.9573267" lon="11.308545"><ele>276.0</ele><time>2026-04-11T09:41:45.417Z</time></trkpt><trkpt lat="43.9574083" lon="11.3086283"><ele>276.0</ele><time>2026-04-11T09:41:47.419Z</time></trkpt><trkpt lat="43.95748" lon="11.308685"><ele>276.0</ele><time>2026-04-11T09:41:49.418Z</time></trkpt><trkpt lat="43.9575917" lon="11.3086883"><ele>274.40000000000003</ele><time>2026-04-11T09:41:51.419Z</time></trkpt><trkpt lat="43.957695" lon="11.30864"><ele>272.8</ele><time>2026-04-11T09:41:53.418Z</time></trkpt><trkpt lat="43.9577867" lon="11.3086133"><ele>271.20000000000005</ele><time>2026-04-11T09:41:55.42Z</time></trkpt><trkpt lat="43.9578867" lon="11.3086217"><ele>269.6</ele><time>2026-04-11T09:41:57.418Z</time></trkpt><trkpt lat="43.9579967" lon="11.30869"><ele>268.0</ele><time>2026-04-11T09:41:59.418Z</time></trkpt><trkpt lat="43.9580767" lon="11.308785"><ele>268.0</ele><time>2026-04-11T09:42:01.418Z</time></trkpt><trkpt lat="43.95813" lon="11.3088667"><ele>268.0</ele><time>2026-04-11T09:42:03.418Z</time></trkpt><trkpt lat="43.9582067" lon="11.30894"><ele>268.0</ele><time>2026-04-11T09:42:05.418Z</time></trkpt><trkpt lat="43.9582367" lon="11.3090317"><ele>268.0</ele><time>2026-04-11T09:42:07.419Z</time></trkpt><trkpt lat="43.9582767" lon="11.3091183"><ele>268.0</ele><time>2026-04-11T09:42:10.424Z</time></trkpt><trkpt lat="43.9583233" lon="11.3091933"><ele>268.0</ele><time>2026-04-11T09:42:13.419Z</time></trkpt><trkpt lat="43.9583183" lon="11.3093183"><ele>268.0</ele><time>2026-04-11T09:42:15.417Z</time></trkpt><trkpt lat="43.9583317" lon="11.3094817"><ele>268.0</ele><time>2026-04-11T09:42:17.417Z</time></trkpt><trkpt lat="43.9583683" lon="11.3096367"><ele>268.0</ele><time>2026-04-11T09:42:19.418Z</time></trkpt><trkpt lat="43.9584283" lon="11.3097583"><ele>268.0</ele><time>2026-04-11T09:42:21.419Z</time></trkpt><trkpt lat="43.95851" lon="11.30987"><ele>268.0</ele><time>2026-04-11T09:42:23.417Z</time></trkpt><trkpt lat="43.958565" lon="11.3099983"><ele>268.0</ele><time>2026-04-11T09:42:25.419Z</time></trkpt><trkpt lat="43.9586367" lon="11.310085"><ele>268.0</ele><time>2026-04-11T09:42:27.417Z</time></trkpt><trkpt lat="43.9586967" lon="11.3101867"><ele>268.0</ele><time>2026-04-11T09:42:29.419Z</time></trkpt><trkpt lat="43.9587533" lon="11.31027"><ele>268.0</ele><time>2026-04-11T09:42:30.417Z</time></trkpt><trkpt lat="43.9588083" lon="11.3103583"><ele>268.0</ele><time>2026-04-11T09:42:31.42Z</time></trkpt><trkpt lat="43.958895" lon="11.3105017"><ele>268.0</ele><time>2026-04-11T09:42:33.418Z</time></trkpt><trkpt lat="43.958935" lon="11.310595"><ele>268.0</ele><time>2026-04-11T09:42:34.419Z</time></trkpt><trkpt lat="43.9590083" lon="11.310765"><ele>268.0</ele><time>2026-04-11T09:42:36.419Z</time></trkpt><trkpt lat="43.9590483" lon="11.31085"><ele>268.0</ele><time>2026-04-11T09:42:37.419Z</time></trkpt><trkpt lat="43.95909" lon="11.3109367"><ele>267.66666666666663</ele><time>2026-04-11T09:42:38.42Z</time></trkpt><trkpt lat="43.9591333" lon="11.3110267"><ele>267.3333333333333</ele><time>2026-04-11T09:42:39.418Z</time></trkpt><trkpt lat="43.9591833" lon="11.3111283"><ele>267.0</ele><time>2026-04-11T09:42:40.418Z</time></trkpt><trkpt lat="43.95923" lon="11.31122"><ele>266.6666666666667</ele><time>2026-04-11T09:42:41.418Z</time></trkpt><trkpt lat="43.9592717" lon="11.311305"><ele>266.33333333333337</ele><time>2026-04-11T09:42:42.418Z</time></trkpt><trkpt lat="43.9593217" lon="11.311395"><ele>266.0</ele><time>2026-04-11T09:42:43.418Z</time></trkpt><trkpt lat="43.95937" lon="11.3114833"><ele>266.0</ele><time>2026-04-11T09:42:44.419Z</time></trkpt><trkpt lat="43.9594217" lon="11.3115733"><ele>266.0</ele><time>2026-04-11T09:42:45.417Z</time></trkpt><trkpt lat="43.9594683" lon="11.3116717"><ele>266.0</ele><time>2026-04-11T09:42:46.417Z</time></trkpt><trkpt lat="43.95951" lon="11.3117783"><ele>266.0</ele><time>2026-04-11T09:42:47.418Z</time></trkpt><trkpt lat="43.959555" lon="11.31188"><ele>266.0</ele><time>2026-04-11T09:42:48.418Z</time></trkpt><trkpt lat="43.9595983" lon="11.3119833"><ele>266.0</ele><time>2026-04-11T09:42:49.418Z</time></trkpt><trkpt lat="43.959645" lon="11.31209"><ele>266.0</ele><time>2026-04-11T09:42:50.418Z</time></trkpt><trkpt lat="43.95969" lon="11.3122"><ele>266.0</ele><time>2026-04-11T09:42:51.419Z</time></trkpt><trkpt lat="43.9597517" lon="11.3123117"><ele>266.0</ele><time>2026-04-11T09:42:52.418Z</time></trkpt><trkpt lat="43.9598033" lon="11.3124233"><ele>266.0</ele><time>2026-04-11T09:42:53.418Z</time></trkpt><trkpt lat="43.95986" lon="11.3125333"><ele>266.0</ele><time>2026-04-11T09:42:54.419Z</time></trkpt><trkpt lat="43.9599167" lon="11.3126367"><ele>265.2</ele><time>2026-04-11T09:42:55.418Z</time></trkpt><trkpt lat="43.9599733" lon="11.31277"><ele>264.40000000000003</ele><time>2026-04-11T09:42:56.417Z</time></trkpt><trkpt lat="43.9600283" lon="11.3129033"><ele>263.6</ele><time>2026-04-11T09:42:57.417Z</time></trkpt><trkpt lat="43.960065" lon="11.3130017"><ele>262.8</ele><time>2026-04-11T09:42:58.418Z</time></trkpt><trkpt lat="43.9600933" lon="11.313145"><ele>262.0</ele><time>2026-04-11T09:42:59.42Z</time></trkpt><trkpt lat="43.9601217" lon="11.3132817"><ele>264.3333333333333</ele><time>2026-04-11T09:43:00.417Z</time></trkpt><trkpt lat="43.96014" lon="11.3134217"><ele>266.66666666666663</ele><time>2026-04-11T09:43:01.419Z</time></trkpt><trkpt lat="43.9601683" lon="11.31351"><ele>269.0</ele><time>2026-04-11T09:43:02.419Z</time></trkpt><trkpt lat="43.960195" lon="11.3136233"><ele>271.3333333333333</ele><time>2026-04-11T09:43:03.418Z</time></trkpt><trkpt lat="43.9602333" lon="11.31372"><ele>273.6666666666667</ele><time>2026-04-11T09:43:04.417Z</time></trkpt><trkpt lat="43.9602733" lon="11.3137917"><ele>276.0</ele><time>2026-04-11T09:43:05.417Z</time></trkpt><trkpt lat="43.96033" lon="11.31385"><ele>279.2</ele><time>2026-04-11T09:43:06.421Z</time></trkpt><trkpt lat="43.9604167" lon="11.313945"><ele>282.40000000000003</ele><time>2026-04-11T09:43:08.419Z</time></trkpt><trkpt lat="43.9605183" lon="11.3139883"><ele>285.6</ele><time>2026-04-11T09:43:10.419Z</time></trkpt><trkpt lat="43.9606033" lon="11.3139967"><ele>288.8</ele><time>2026-04-11T09:43:12.42Z</time></trkpt><trkpt lat="43.9606683" lon="11.3139883"><ele>292.0</ele><time>2026-04-11T09:43:13.417Z</time></trkpt><trkpt lat="43.9607767" lon="11.313985"><ele>290.2</ele><time>2026-04-11T09:43:15.42Z</time></trkpt><trkpt lat="43.9608883" lon="11.3140167"><ele>288.4</ele><time>2026-04-11T09:43:17.418Z</time></trkpt><trkpt lat="43.9609517" lon="11.3140567"><ele>286.6</ele><time>2026-04-11T09:43:18.42Z</time></trkpt><trkpt lat="43.9610467" lon="11.3141367"><ele>284.8</ele><time>2026-04-11T09:43:20.42Z</time></trkpt><trkpt lat="43.9611317" lon="11.3141833"><ele>283.0</ele><time>2026-04-11T09:43:22.418Z</time></trkpt><trkpt lat="43.9611983" lon="11.31419"><ele>283.0</ele><time>2026-04-11T09:43:23.422Z</time></trkpt><trkpt lat="43.9612983" lon="11.3141933"><ele>283.0</ele><time>2026-04-11T09:43:25.422Z</time></trkpt><trkpt lat="43.9613983" lon="11.3141983"><ele>283.0</ele><time>2026-04-11T09:43:27.417Z</time></trkpt><trkpt lat="43.9615033" lon="11.3142367"><ele>283.0</ele><time>2026-04-11T09:44:11.419Z</time></trkpt><trkpt lat="43.9615717" lon="11.314285"><ele>283.0</ele><time>2026-04-11T09:44:14.417Z</time></trkpt><trkpt lat="43.961645" lon="11.3143317"><ele>283.8333333333333</ele><time>2026-04-11T09:44:16.419Z</time></trkpt><trkpt lat="43.9617333" lon="11.3144067"><ele>284.66666666666663</ele><time>2026-04-11T09:44:18.418Z</time></trkpt><trkpt lat="43.96181" lon="11.314485"><ele>285.5</ele><time>2026-04-11T09:44:20.419Z</time></trkpt><trkpt lat="43.96189" lon="11.3145967"><ele>286.3333333333333</ele><time>2026-04-11T09:44:22.417Z</time></trkpt><trkpt lat="43.961935" lon="11.31466"><ele>287.1666666666667</ele><time>2026-04-11T09:44:23.417Z</time></trkpt><trkpt lat="43.961975" lon="11.31473"><ele>288.0</ele><time>2026-04-11T09:44:24.418Z</time></trkpt><trkpt lat="43.9620167" lon="11.314805"><ele>288.0</ele><time>2026-04-11T09:44:25.417Z</time></trkpt><trkpt lat="43.9620583" lon="11.3149283"><ele>288.0</ele><time>2026-04-11T09:44:27.418Z</time></trkpt><trkpt lat="43.9621083" lon="11.3150583"><ele>288.0</ele><time>2026-04-11T09:44:29.418Z</time></trkpt><trkpt lat="43.962185" lon="11.31522"><ele>288.0</ele><time>2026-04-11T09:44:31.418Z</time></trkpt><trkpt lat="43.9622517" lon="11.31536"><ele>288.0</ele><time>2026-04-11T09:44:33.418Z</time></trkpt><trkpt lat="43.9623133" lon="11.3154283"><ele>288.0</ele><time>2026-04-11T09:44:35.418Z</time></trkpt><trkpt lat="43.9623983" lon="11.31546"><ele>288.0</ele><time>2026-04-11T09:44:37.419Z</time></trkpt><trkpt lat="43.96249" lon="11.3155283"><ele>288.0</ele><time>2026-04-11T09:44:39.418Z</time></trkpt><trkpt lat="43.96255" lon="11.3155967"><ele>288.0</ele><time>2026-04-11T09:44:41.418Z</time></trkpt><trkpt lat="43.9626467" lon="11.3156683"><ele>292.1666666666667</ele><time>2026-04-11T09:44:43.417Z</time></trkpt><trkpt lat="43.96271" lon="11.3157267"><ele>296.3333333333333</ele><time>2026-04-11T09:44:45.418Z</time></trkpt><trkpt lat="43.9627933" lon="11.315815"><ele>300.5</ele><time>2026-04-11T09:44:47.417Z</time></trkpt><trkpt lat="43.9628567" lon="11.3159067"><ele>304.66666666666663</ele><time>2026-04-11T09:44:49.418Z</time></trkpt><trkpt lat="43.9629217" lon="11.3159583"><ele>308.8333333333333</ele><time>2026-04-11T09:44:50.417Z</time></trkpt><trkpt lat="43.96301" lon="11.316"><ele>313.0</ele><time>2026-04-11T09:44:51.417Z</time></trkpt><trkpt lat="43.96307" lon="11.3160433"><ele>313.0</ele><time>2026-04-11T09:44:52.419Z</time></trkpt><trkpt lat="43.9631333" lon="11.3160767"><ele>313.0</ele><time>2026-04-11T09:44:54.419Z</time></trkpt><trkpt lat="43.9632367" lon="11.3160617"><ele>313.0</ele><time>2026-04-11T09:45:02.417Z</time></trkpt><trkpt lat="43.9632817" lon="11.3159767"><ele>313.0</ele><time>2026-04-11T09:45:07.417Z</time></trkpt><trkpt lat="43.9632583" lon="11.31606"><ele>313.0</ele><time>2026-04-11T09:45:43.419Z</time></trkpt><trkpt lat="43.9631967" lon="11.31614"><ele>313.0</ele><time>2026-04-11T09:45:45.417Z</time></trkpt><trkpt lat="43.9631217" lon="11.31622"><ele>313.0</ele><time>2026-04-11T09:45:47.418Z</time></trkpt><trkpt lat="43.963035" lon="11.3163017"><ele>313.0</ele><time>2026-04-11T09:45:49.418Z</time></trkpt><trkpt lat="43.96296" lon="11.3163583"><ele>313.0</ele><time>2026-04-11T09:45:51.418Z</time></trkpt><trkpt lat="43.9628917" lon="11.3164283"><ele>313.0</ele><time>2026-04-11T09:45:54.419Z</time></trkpt><trkpt lat="43.962835" lon="11.3164867"><ele>313.0</ele><time>2026-04-11T09:45:56.418Z</time></trkpt><trkpt lat="43.9627817" lon="11.31657"><ele>313.0</ele><time>2026-04-11T09:45:58.419Z</time></trkpt><trkpt lat="43.9627483" lon="11.31669"><ele>314.2</ele><time>2026-04-11T09:46:00.416Z</time></trkpt><trkpt lat="43.9627117" lon="11.3168483"><ele>315.4</ele><time>2026-04-11T09:46:02.418Z</time></trkpt><trkpt lat="43.9626817" lon="11.3169267"><ele>316.59999999999997</ele><time>2026-04-11T09:46:03.417Z</time></trkpt><trkpt lat="43.96263" lon="11.3170617"><ele>317.8</ele><time>2026-04-11T09:46:05.418Z</time></trkpt><trkpt lat="43.9625917" lon="11.31718"><ele>319.0</ele><time>2026-04-11T09:46:07.419Z</time></trkpt><trkpt lat="43.9625733" lon="11.3172833"><ele>319.0</ele><time>2026-04-11T09:46:09.419Z</time></trkpt><trkpt lat="43.9626117" lon="11.3173683"><ele>319.0</ele><time>2026-04-11T09:46:11.419Z</time></trkpt><trkpt lat="43.9626883" lon="11.3174167"><ele>319.0</ele><time>2026-04-11T09:46:13.418Z</time></trkpt><trkpt lat="43.962795" lon="11.31746"><ele>319.0</ele><time>2026-04-11T09:46:15.419Z</time></trkpt><trkpt lat="43.9629167" lon="11.3175017"><ele>319.0</ele><time>2026-04-11T09:46:17.423Z</time></trkpt><trkpt lat="43.9629833" lon="11.31753"><ele>319.0</ele><time>2026-04-11T09:46:18.418Z</time></trkpt><trkpt lat="43.9630917" lon="11.3176217"><ele>319.0</ele><time>2026-04-11T09:46:20.42Z</time></trkpt><trkpt lat="43.96317" lon="11.317725"><ele>319.0</ele><time>2026-04-11T09:46:22.419Z</time></trkpt><trkpt lat="43.9632467" lon="11.3178433"><ele>319.0</ele><time>2026-04-11T09:46:24.42Z</time></trkpt><trkpt lat="43.96332" lon="11.31796"><ele>316.8333333333333</ele><time>2026-04-11T09:46:26.419Z</time></trkpt><trkpt lat="43.9633967" lon="11.318065"><ele>314.66666666666663</ele><time>2026-04-11T09:46:28.419Z</time></trkpt><trkpt lat="43.9634667" lon="11.3181417"><ele>312.5</ele><time>2026-04-11T09:46:30.419Z</time></trkpt><trkpt lat="43.9635333" lon="11.3182117"><ele>310.3333333333333</ele><time>2026-04-11T09:46:33.42Z</time></trkpt><trkpt lat="43.9636167" lon="11.3182733"><ele>308.1666666666667</ele><time>2026-04-11T09:46:36.419Z</time></trkpt><trkpt lat="43.963665" lon="11.3183517"><ele>306.0</ele><time>2026-04-11T09:46:38.42Z</time></trkpt><trkpt lat="43.9637083" lon="11.3184333"><ele>304.6666666666667</ele><time>2026-04-11T09:46:40.419Z</time></trkpt><trkpt lat="43.9637633" lon="11.3185283"><ele>303.3333333333333</ele><time>2026-04-11T09:46:42.418Z</time></trkpt><trkpt lat="43.9638117" lon="11.3186217"><ele>302.0</ele><time>2026-04-11T09:46:44.418Z</time></trkpt><trkpt lat="43.963855" lon="11.3187283"><ele>300.66666666666663</ele><time>2026-04-11T09:46:46.418Z</time></trkpt><trkpt lat="43.963905" lon="11.3188183"><ele>299.3333333333333</ele><time>2026-04-11T09:46:48.418Z</time></trkpt><trkpt lat="43.9639717" lon="11.318885"><ele>298.0</ele><time>2026-04-11T09:46:51.417Z</time></trkpt><trkpt lat="43.9640283" lon="11.3189433"><ele>298.0</ele><time>2026-04-11T09:46:54.419Z</time></trkpt><trkpt lat="43.96408" lon="11.3188383"><ele>298.0</ele><time>2026-04-11T09:46:57.418Z</time></trkpt><trkpt lat="43.9641517" lon="11.3187117"><ele>298.0</ele><time>2026-04-11T09:46:59.418Z</time></trkpt><trkpt lat="43.9642083" lon="11.3186533"><ele>298.0</ele><time>2026-04-11T09:47:00.42Z</time></trkpt><trkpt lat="43.9642483" lon="11.3185717"><ele>298.0</ele><time>2026-04-11T09:47:01.418Z</time></trkpt><trkpt lat="43.9642817" lon="11.3184933"><ele>298.0</ele><time>2026-04-11T09:47:02.419Z</time></trkpt><trkpt lat="43.9643267" lon="11.3183567"><ele>295.4</ele><time>2026-04-11T09:47:04.421Z</time></trkpt><trkpt lat="43.9644017" lon="11.3182567"><ele>292.8</ele><time>2026-04-11T09:47:06.418Z</time></trkpt><trkpt lat="43.9644917" lon="11.3181733"><ele>290.2</ele><time>2026-04-11T09:47:08.418Z</time></trkpt><trkpt lat="43.9645983" lon="11.3181267"><ele>287.6</ele><time>2026-04-11T09:47:10.418Z</time></trkpt><trkpt lat="43.9647133" lon="11.3180817"><ele>285.0</ele><time>2026-04-11T09:47:12.417Z</time></trkpt><trkpt lat="43.96478" lon="11.3180567"><ele>285.0</ele><time>2026-04-11T09:47:13.419Z</time></trkpt><trkpt lat="43.964875" lon="11.31799"><ele>285.0</ele><time>2026-04-11T09:47:15.42Z</time></trkpt><trkpt lat="43.9649383" lon="11.3179"><ele>285.0</ele><time>2026-04-11T09:47:17.418Z</time></trkpt><trkpt lat="43.9649683" lon="11.3177883"><ele>285.0</ele><time>2026-04-11T09:47:20.418Z</time></trkpt><trkpt lat="43.9650033" lon="11.3176667"><ele>285.0</ele><time>2026-04-11T09:47:23.419Z</time></trkpt><trkpt lat="43.9650117" lon="11.3175717"><ele>285.0</ele><time>2026-04-11T09:47:25.418Z</time></trkpt><trkpt lat="43.9650183" lon="11.31747"><ele>285.0</ele><time>2026-04-11T09:47:27.419Z</time></trkpt><trkpt lat="43.9650167" lon="11.31737"><ele>285.0</ele><time>2026-04-11T09:47:29.42Z</time></trkpt><trkpt lat="43.9650083" lon="11.3172433"><ele>285.0</ele><time>2026-04-11T09:47:31.418Z</time></trkpt><trkpt lat="43.96501" lon="11.3171333"><ele>285.0</ele><time>2026-04-11T09:47:33.422Z</time></trkpt><trkpt lat="43.965" lon="11.3170467"><ele>285.0</ele><time>2026-04-11T09:47:53.418Z</time></trkpt><trkpt lat="43.965025" lon="11.3169333"><ele>285.0</ele><time>2026-04-11T09:47:55.418Z</time></trkpt><trkpt lat="43.9650433" lon="11.316805"><ele>281.0</ele><time>2026-04-11T09:47:57.416Z</time></trkpt><trkpt lat="43.96507" lon="11.3167017"><ele>277.0</ele><time>2026-04-11T09:47:59.416Z</time></trkpt><trkpt lat="43.9651183" lon="11.3165983"><ele>273.0</ele><time>2026-04-11T09:48:02.419Z</time></trkpt><trkpt lat="43.9651833" lon="11.31656"><ele>269.0</ele><time>2026-04-11T09:48:05.418Z</time></trkpt><trkpt lat="43.9652533" lon="11.31658"><ele>265.0</ele><time>2026-04-11T09:48:08.421Z</time></trkpt><trkpt lat="43.965335" lon="11.3166283"><ele>261.0</ele><time>2026-04-11T09:48:12.418Z</time></trkpt><trkpt lat="43.9653867" lon="11.3166833"><ele>261.0</ele><time>2026-04-11T09:48:15.418Z</time></trkpt><trkpt lat="43.9654367" lon="11.3167883"><ele>261.0</ele><time>2026-04-11T09:48:18.418Z</time></trkpt><trkpt lat="43.9654833" lon="11.31688"><ele>261.0</ele><time>2026-04-11T09:48:20.417Z</time></trkpt><trkpt lat="43.9655283" lon="11.31698"><ele>261.0</ele><time>2026-04-11T09:48:22.418Z</time></trkpt><trkpt lat="43.9655667" lon="11.31708"><ele>261.0</ele><time>2026-04-11T09:48:24.42Z</time></trkpt><trkpt lat="43.965605" lon="11.317185"><ele>261.0</ele><time>2026-04-11T09:48:26.417Z</time></trkpt><trkpt lat="43.965645" lon="11.317275"><ele>260.1666666666667</ele><time>2026-04-11T09:48:28.418Z</time></trkpt><trkpt lat="43.96568" lon="11.31736"><ele>259.3333333333333</ele><time>2026-04-11T09:48:30.419Z</time></trkpt><trkpt lat="43.9657183" lon="11.3174483"><ele>258.5</ele><time>2026-04-11T09:48:32.42Z</time></trkpt><trkpt lat="43.9657483" lon="11.3175617"><ele>257.66666666666663</ele><time>2026-04-11T09:48:34.421Z</time></trkpt><trkpt lat="43.9657783" lon="11.31767"><ele>256.8333333333333</ele><time>2026-04-11T09:48:36.417Z</time></trkpt><trkpt lat="43.9658" lon="11.3177567"><ele>256.0</ele><time>2026-04-11T09:48:38.418Z</time></trkpt><trkpt lat="43.965825" lon="11.3178533"><ele>251.16666666666666</ele><time>2026-04-11T09:48:40.417Z</time></trkpt><trkpt lat="43.965865" lon="11.317985"><ele>246.33333333333331</ele><time>2026-04-11T09:48:42.418Z</time></trkpt><trkpt lat="43.9658983" lon="11.3180717"><ele>241.5</ele><time>2026-04-11T09:48:44.418Z</time></trkpt><trkpt lat="43.9659383" lon="11.3182067"><ele>236.66666666666669</ele><time>2026-04-11T09:48:46.418Z</time></trkpt><trkpt lat="43.965955" lon="11.3183217"><ele>231.83333333333334</ele><time>2026-04-11T09:48:48.417Z</time></trkpt><trkpt lat="43.96595" lon="11.3184317"><ele>227.0</ele><time>2026-04-11T09:48:50.418Z</time></trkpt><trkpt lat="43.965965" lon="11.3185317"><ele>226.50000000000003</ele><time>2026-04-11T09:48:52.418Z</time></trkpt><trkpt lat="43.966" lon="11.3186417"><ele>226.0</ele><time>2026-04-11T09:48:54.419Z</time></trkpt><trkpt lat="43.9660567" lon="11.3187283"><ele>225.5</ele><time>2026-04-11T09:48:56.418Z</time></trkpt><trkpt lat="43.96614" lon="11.3187467"><ele>225.0</ele><time>2026-04-11T09:48:59.418Z</time></trkpt><trkpt lat="43.9662" lon="11.3187083"><ele>224.50000000000003</ele><time>2026-04-11T09:49:00.418Z</time></trkpt><trkpt lat="43.9662967" lon="11.31862"><ele>224.0</ele><time>2026-04-11T09:49:02.419Z</time></trkpt><trkpt lat="43.9663717" lon="11.31858"><ele>224.00000000000003</ele><time>2026-04-11T09:49:04.417Z</time></trkpt><trkpt lat="43.9664317" lon="11.3186817"><ele>224.0</ele><time>2026-04-11T09:49:07.422Z</time></trkpt><trkpt lat="43.9664217" lon="11.3187717"><ele>224.0</ele><time>2026-04-11T09:49:08.417Z</time></trkpt><trkpt lat="43.9664067" lon="11.318875"><ele>224.0</ele><time>2026-04-11T09:49:09.422Z</time></trkpt><trkpt lat="43.96637" lon="11.318995"><ele>224.00000000000003</ele><time>2026-04-11T09:49:10.417Z</time></trkpt><trkpt lat="43.96632" lon="11.31911"><ele>224.0</ele><time>2026-04-11T09:49:11.418Z</time></trkpt><trkpt lat="43.96629" lon="11.3192017"><ele>222.79999999999998</ele><time>2026-04-11T09:49:12.418Z</time></trkpt><trkpt lat="43.9662467" lon="11.3193367"><ele>221.59999999999997</ele><time>2026-04-11T09:49:14.418Z</time></trkpt><trkpt lat="43.966255" lon="11.319445"><ele>220.4</ele><time>2026-04-11T09:49:16.42Z</time></trkpt><trkpt lat="43.9663367" lon="11.3194217"><ele>219.2</ele><time>2026-04-11T09:49:19.417Z</time></trkpt><trkpt lat="43.9664183" lon="11.3192833"><ele>218.0</ele><time>2026-04-11T09:49:21.418Z</time></trkpt><trkpt lat="43.9664767" lon="11.319215"><ele>218.0</ele><time>2026-04-11T09:49:22.417Z</time></trkpt><trkpt lat="43.966535" lon="11.31915"><ele>218.0</ele><time>2026-04-11T09:49:23.418Z</time></trkpt><trkpt lat="43.9665917" lon="11.319085"><ele>218.0</ele><time>2026-04-11T09:49:24.418Z</time></trkpt><trkpt lat="43.966645" lon="11.3190183"><ele>218.0</ele><time>2026-04-11T09:49:25.418Z</time></trkpt><trkpt lat="43.9667017" lon="11.3189467"><ele>218.0</ele><time>2026-04-11T09:49:26.417Z</time></trkpt><trkpt lat="43.9667583" lon="11.3188783"><ele>218.0</ele><time>2026-04-11T09:49:27.417Z</time></trkpt><trkpt lat="43.9668183" lon="11.3188117"><ele>218.0</ele><time>2026-04-11T09:49:28.417Z</time></trkpt><trkpt lat="43.96687" lon="11.31875"><ele>216.33333333333334</ele><time>2026-04-11T09:49:29.418Z</time></trkpt><trkpt lat="43.966915" lon="11.3186867"><ele>214.66666666666669</ele><time>2026-04-11T09:49:30.417Z</time></trkpt><trkpt lat="43.9669983" lon="11.3185983"><ele>213.0</ele><time>2026-04-11T09:49:32.418Z</time></trkpt><trkpt lat="43.967075" lon="11.3185667"><ele>211.33333333333331</ele><time>2026-04-11T09:49:34.417Z</time></trkpt><trkpt lat="43.9671683" lon="11.3185967"><ele>209.66666666666666</ele><time>2026-04-11T09:49:40.418Z</time></trkpt><trkpt lat="43.9671867" lon="11.3187233"><ele>208.0</ele><time>2026-04-11T09:49:43.418Z</time></trkpt><trkpt lat="43.9671483" lon="11.3188183"><ele>207.75</ele><time>2026-04-11T09:49:44.417Z</time></trkpt><trkpt lat="43.9670867" lon="11.3189583"><ele>207.5</ele><time>2026-04-11T09:49:45.419Z</time></trkpt><trkpt lat="43.9670383" lon="11.319085"><ele>207.25</ele><time>2026-04-11T09:49:46.418Z</time></trkpt><trkpt lat="43.966985" lon="11.3192133"><ele>207.0</ele><time>2026-04-11T09:49:47.417Z</time></trkpt><trkpt lat="43.966925" lon="11.3193633"><ele>207.0</ele><time>2026-04-11T09:49:48.418Z</time></trkpt><trkpt lat="43.9668717" lon="11.31951"><ele>207.0</ele><time>2026-04-11T09:49:49.417Z</time></trkpt><trkpt lat="43.9668217" lon="11.3196633"><ele>207.0</ele><time>2026-04-11T09:49:50.417Z</time></trkpt><trkpt lat="43.9667817" lon="11.3198133"><ele>207.0</ele><time>2026-04-11T09:49:51.418Z</time></trkpt><trkpt lat="43.966745" lon="11.3199667"><ele>207.0</ele><time>2026-04-11T09:49:52.418Z</time></trkpt><trkpt lat="43.966705" lon="11.32013"><ele>207.0</ele><time>2026-04-11T09:49:53.417Z</time></trkpt><trkpt lat="43.96666" lon="11.3202883"><ele>207.0</ele><time>2026-04-11T09:49:54.418Z</time></trkpt><trkpt lat="43.9666083" lon="11.3204333"><ele>207.0</ele><time>2026-04-11T09:49:55.419Z</time></trkpt><trkpt lat="43.96655" lon="11.3205733"><ele>207.39999999999998</ele><time>2026-04-11T09:49:56.419Z</time></trkpt><trkpt lat="43.96649" lon="11.320705"><ele>207.79999999999998</ele><time>2026-04-11T09:49:57.418Z</time></trkpt><trkpt lat="43.9664333" lon="11.320825"><ele>208.2</ele><time>2026-04-11T09:49:58.418Z</time></trkpt><trkpt lat="43.9663733" lon="11.3209383"><ele>208.6</ele><time>2026-04-11T09:49:59.416Z</time></trkpt><trkpt lat="43.9663083" lon="11.3210533"><ele>209.0</ele><time>2026-04-11T09:50:00.418Z</time></trkpt><trkpt lat="43.9662467" lon="11.3211667"><ele>209.0</ele><time>2026-04-11T09:50:01.417Z</time></trkpt><trkpt lat="43.9661833" lon="11.32129"><ele>209.0</ele><time>2026-04-11T09:50:02.418Z</time></trkpt><trkpt lat="43.9661233" lon="11.321405"><ele>209.0</ele><time>2026-04-11T09:50:03.418Z</time></trkpt><trkpt lat="43.9660667" lon="11.321515"><ele>209.0</ele><time>2026-04-11T09:50:04.418Z</time></trkpt><trkpt lat="43.9660133" lon="11.3216317"><ele>209.0</ele><time>2026-04-11T09:50:05.421Z</time></trkpt><trkpt lat="43.9659517" lon="11.3217483"><ele>208.39999999999998</ele><time>2026-04-11T09:50:06.417Z</time></trkpt><trkpt lat="43.965885" lon="11.3218683"><ele>207.8</ele><time>2026-04-11T09:50:07.418Z</time></trkpt><trkpt lat="43.9658133" lon="11.3219783"><ele>207.2</ele><time>2026-04-11T09:50:08.418Z</time></trkpt><trkpt lat="43.9657383" lon="11.322085"><ele>206.60000000000002</ele><time>2026-04-11T09:50:09.417Z</time></trkpt><trkpt lat="43.9656517" lon="11.3222117"><ele>206.0</ele><time>2026-04-11T09:50:10.418Z</time></trkpt><trkpt lat="43.9655667" lon="11.3223217"><ele>205.8</ele><time>2026-04-11T09:50:11.417Z</time></trkpt><trkpt lat="43.965485" lon="11.3224317"><ele>205.60000000000002</ele><time>2026-04-11T09:50:12.418Z</time></trkpt><trkpt lat="43.9654167" lon="11.322535"><ele>205.4</ele><time>2026-04-11T09:50:13.419Z</time></trkpt><trkpt lat="43.96536" lon="11.32265"><ele>205.2</ele><time>2026-04-11T09:50:14.418Z</time></trkpt><trkpt lat="43.965315" lon="11.322755"><ele>205.0</ele><time>2026-04-11T09:50:15.419Z</time></trkpt><trkpt lat="43.9652733" lon="11.32286"><ele>204.99999999999997</ele><time>2026-04-11T09:50:16.417Z</time></trkpt><trkpt lat="43.9652367" lon="11.3229583"><ele>205.0</ele><time>2026-04-11T09:50:17.417Z</time></trkpt><trkpt lat="43.9652033" lon="11.3230617"><ele>205.0</ele><time>2026-04-11T09:50:18.417Z</time></trkpt><trkpt lat="43.9651767" lon="11.3231683"><ele>205.0</ele><time>2026-04-11T09:50:19.417Z</time></trkpt><trkpt lat="43.9651433" lon="11.323295"><ele>204.99999999999997</ele><time>2026-04-11T09:50:20.418Z</time></trkpt><trkpt lat="43.96511" lon="11.3234217"><ele>205.0</ele><time>2026-04-11T09:50:21.418Z</time></trkpt><trkpt lat="43.9650767" lon="11.323535"><ele>204.83333333333331</ele><time>2026-04-11T09:50:22.418Z</time></trkpt><trkpt lat="43.965045" lon="11.32365"><ele>204.66666666666666</ele><time>2026-04-11T09:50:23.417Z</time></trkpt><trkpt lat="43.965015" lon="11.3237567"><ele>204.5</ele><time>2026-04-11T09:50:24.417Z</time></trkpt><trkpt lat="43.9649883" lon="11.3238733"><ele>204.33333333333331</ele><time>2026-04-11T09:50:25.419Z</time></trkpt><trkpt lat="43.96497" lon="11.32398"><ele>204.16666666666666</ele><time>2026-04-11T09:50:26.418Z</time></trkpt><trkpt lat="43.96495" lon="11.324075"><ele>204.0</ele><time>2026-04-11T09:50:27.418Z</time></trkpt><trkpt lat="43.96493" lon="11.3241583"><ele>203.6</ele><time>2026-04-11T09:50:28.417Z</time></trkpt><trkpt lat="43.9648983" lon="11.3243017"><ele>203.2</ele><time>2026-04-11T09:50:30.418Z</time></trkpt><trkpt lat="43.9648683" lon="11.3244067"><ele>202.79999999999998</ele><time>2026-04-11T09:50:32.419Z</time></trkpt><trkpt lat="43.9648033" lon="11.32448"><ele>202.39999999999998</ele><time>2026-04-11T09:50:34.418Z</time></trkpt><trkpt lat="43.9646767" lon="11.324445"><ele>202.0</ele><time>2026-04-11T09:50:36.417Z</time></trkpt><trkpt lat="43.9646133" lon="11.324405"><ele>202.0</ele><time>2026-04-11T09:50:37.418Z</time></trkpt><trkpt lat="43.96451" lon="11.3243517"><ele>202.0</ele><time>2026-04-11T09:50:39.417Z</time></trkpt><trkpt lat="43.96441" lon="11.32431"><ele>202.0</ele><time>2026-04-11T09:50:41.418Z</time></trkpt><trkpt lat="43.9643283" lon="11.3243483"><ele>202.0</ele><time>2026-04-11T09:50:43.417Z</time></trkpt><trkpt lat="43.964265" lon="11.3244883"><ele>202.0</ele><time>2026-04-11T09:50:45.417Z</time></trkpt><trkpt lat="43.9642367" lon="11.32458"><ele>201.99999999999997</ele><time>2026-04-11T09:50:46.417Z</time></trkpt><trkpt lat="43.9642233" lon="11.3246867"><ele>202.0</ele><time>2026-04-11T09:50:47.42Z</time></trkpt><trkpt lat="43.9642283" lon="11.3248067"><ele>202.0</ele><time>2026-04-11T09:50:48.417Z</time></trkpt><trkpt lat="43.96423" lon="11.3249183"><ele>202.0</ele><time>2026-04-11T09:50:49.42Z</time></trkpt><trkpt lat="43.9642383" lon="11.3250267"><ele>201.99999999999997</ele><time>2026-04-11T09:50:50.419Z</time></trkpt><trkpt lat="43.9642467" lon="11.3251417"><ele>202.0</ele><time>2026-04-11T09:50:51.418Z</time></trkpt><trkpt lat="43.9642517" lon="11.3252533"><ele>201.83333333333331</ele><time>2026-04-11T09:50:52.419Z</time></trkpt><trkpt lat="43.9642617" lon="11.3253517"><ele>201.66666666666666</ele><time>2026-04-11T09:50:53.417Z</time></trkpt><trkpt lat="43.96427" lon="11.32547"><ele>201.5</ele><time>2026-04-11T09:50:54.417Z</time></trkpt><trkpt lat="43.9642967" lon="11.3255867"><ele>201.33333333333331</ele><time>2026-04-11T09:50:55.419Z</time></trkpt><trkpt lat="43.9643117" lon="11.3257033"><ele>201.16666666666666</ele><time>2026-04-11T09:50:56.417Z</time></trkpt><trkpt lat="43.9643283" lon="11.3258167"><ele>201.0</ele><time>2026-04-11T09:50:57.418Z</time></trkpt><trkpt lat="43.9643517" lon="11.3259367"><ele>201.0</ele><time>2026-04-11T09:50:58.418Z</time></trkpt><trkpt lat="43.9643667" lon="11.3260483"><ele>201.0</ele><time>2026-04-11T09:50:59.417Z</time></trkpt><trkpt lat="43.9643867" lon="11.3261433"><ele>201.0</ele><time>2026-04-11T09:51:00.42Z</time></trkpt><trkpt lat="43.9643967" lon="11.3262383"><ele>201.0</ele><time>2026-04-11T09:51:01.417Z</time></trkpt><trkpt lat="43.9644217" lon="11.3263967"><ele>201.0</ele><time>2026-04-11T09:51:03.418Z</time></trkpt><trkpt lat="43.9644467" lon="11.3265583"><ele>201.0</ele><time>2026-04-11T09:51:05.419Z</time></trkpt><trkpt lat="43.964465" lon="11.3266817"><ele>201.0</ele><time>2026-04-11T09:51:07.418Z</time></trkpt><trkpt lat="43.964485" lon="11.3267883"><ele>201.0</ele><time>2026-04-11T09:51:09.417Z</time></trkpt><trkpt lat="43.9644617" lon="11.3269117"><ele>201.0</ele><time>2026-04-11T09:51:11.417Z</time></trkpt><trkpt lat="43.96443" lon="11.326995"><ele>201.0</ele><time>2026-04-11T09:51:12.418Z</time></trkpt><trkpt lat="43.9643933" lon="11.3271367"><ele>201.0</ele><time>2026-04-11T09:51:14.419Z</time></trkpt><trkpt lat="43.9644333" lon="11.3272883"><ele>201.0</ele><time>2026-04-11T09:51:16.418Z</time></trkpt><trkpt lat="43.96451" lon="11.3273733"><ele>201.0</ele><time>2026-04-11T09:51:17.418Z</time></trkpt><trkpt lat="43.9645883" lon="11.3274717"><ele>201.0</ele><time>2026-04-11T09:51:18.416Z</time></trkpt><trkpt lat="43.964665" lon="11.3275667"><ele>201.0</ele><time>2026-04-11T09:51:19.418Z</time></trkpt><trkpt lat="43.9647333" lon="11.3276533"><ele>201.0</ele><time>2026-04-11T09:51:20.417Z</time></trkpt><trkpt lat="43.9647983" lon="11.3277317"><ele>201.0</ele><time>2026-04-11T09:51:21.418Z</time></trkpt><trkpt lat="43.9648517" lon="11.3278"><ele>201.0</ele><time>2026-04-11T09:51:22.417Z</time></trkpt><trkpt lat="43.9649017" lon="11.3278633"><ele>201.0</ele><time>2026-04-11T09:51:23.417Z</time></trkpt><trkpt lat="43.9649983" lon="11.3279767"><ele>201.0</ele><time>2026-04-11T09:51:25.418Z</time></trkpt><trkpt lat="43.9650467" lon="11.3280367"><ele>201.0</ele><time>2026-04-11T09:51:26.419Z</time></trkpt><trkpt lat="43.9651367" lon="11.3281433"><ele>201.5</ele><time>2026-04-11T09:51:28.417Z</time></trkpt><trkpt lat="43.9652317" lon="11.3282567"><ele>202.0</ele><time>2026-04-11T09:51:30.417Z</time></trkpt><trkpt lat="43.9652817" lon="11.328315"><ele>202.5</ele><time>2026-04-11T09:51:31.417Z</time></trkpt><trkpt lat="43.9653717" lon="11.328425"><ele>203.0</ele><time>2026-04-11T09:51:33.418Z</time></trkpt><trkpt lat="43.9654233" lon="11.32848"><ele>203.5</ele><time>2026-04-11T09:51:34.418Z</time></trkpt><trkpt lat="43.965475" lon="11.3285433"><ele>204.0</ele><time>2026-04-11T09:51:35.421Z</time></trkpt><trkpt lat="43.9655267" lon="11.3286183"><ele>204.0</ele><time>2026-04-11T09:51:36.417Z</time></trkpt><trkpt lat="43.9655767" lon="11.3287083"><ele>204.0</ele><time>2026-04-11T09:51:37.417Z</time></trkpt><trkpt lat="43.9656217" lon="11.3288133"><ele>204.0</ele><time>2026-04-11T09:51:38.422Z</time></trkpt><trkpt lat="43.9656617" lon="11.3289233"><ele>204.0</ele><time>2026-04-11T09:51:39.42Z</time></trkpt><trkpt lat="43.9656917" lon="11.3290333"><ele>204.0</ele><time>2026-04-11T09:51:40.418Z</time></trkpt><trkpt lat="43.9657033" lon="11.3291383"><ele>204.0</ele><time>2026-04-11T09:51:41.419Z</time></trkpt><trkpt lat="43.9656767" lon="11.329305"><ele>204.16666666666666</ele><time>2026-04-11T09:51:43.417Z</time></trkpt><trkpt lat="43.9656567" lon="11.3294017"><ele>204.33333333333331</ele><time>2026-04-11T09:51:44.418Z</time></trkpt><trkpt lat="43.96565" lon="11.3295033"><ele>204.5</ele><time>2026-04-11T09:51:45.418Z</time></trkpt><trkpt lat="43.965665" lon="11.32961"><ele>204.66666666666666</ele><time>2026-04-11T09:51:46.418Z</time></trkpt><trkpt lat="43.9656983" lon="11.32972"><ele>204.83333333333331</ele><time>2026-04-11T09:51:47.417Z</time></trkpt><trkpt lat="43.965735" lon="11.3298467"><ele>205.0</ele><time>2026-04-11T09:51:48.418Z</time></trkpt><trkpt lat="43.9657617" lon="11.33"><ele>205.8</ele><time>2026-04-11T09:51:49.417Z</time></trkpt><trkpt lat="43.965775" lon="11.3301617"><ele>206.6</ele><time>2026-04-11T09:51:50.418Z</time></trkpt><trkpt lat="43.965785" lon="11.3303183"><ele>207.39999999999998</ele><time>2026-04-11T09:51:51.418Z</time></trkpt><trkpt lat="43.9657933" lon="11.3304683"><ele>208.2</ele><time>2026-04-11T09:51:52.418Z</time></trkpt><trkpt lat="43.9658033" lon="11.3306167"><ele>209.0</ele><time>2026-04-11T09:51:53.419Z</time></trkpt><trkpt lat="43.9658117" lon="11.3307667"><ele>208.75</ele><time>2026-04-11T09:51:54.418Z</time></trkpt><trkpt lat="43.965825" lon="11.3309167"><ele>208.5</ele><time>2026-04-11T09:51:55.417Z</time></trkpt><trkpt lat="43.9658383" lon="11.3310783"><ele>208.25</ele><time>2026-04-11T09:51:56.417Z</time></trkpt><trkpt lat="43.9658483" lon="11.3312433"><ele>208.0</ele><time>2026-04-11T09:51:57.422Z</time></trkpt><trkpt lat="43.9658583" lon="11.331395"><ele>208.0</ele><time>2026-04-11T09:51:58.419Z</time></trkpt><trkpt lat="43.96586" lon="11.3315367"><ele>208.0</ele><time>2026-04-11T09:51:59.418Z</time></trkpt><trkpt lat="43.9658517" lon="11.3316717"><ele>208.0</ele><time>2026-04-11T09:52:00.418Z</time></trkpt><trkpt lat="43.965835" lon="11.3318067"><ele>208.0</ele><time>2026-04-11T09:52:01.418Z</time></trkpt><trkpt lat="43.9658117" lon="11.3319467"><ele>208.0</ele><time>2026-04-11T09:52:02.418Z</time></trkpt><trkpt lat="43.9657833" lon="11.3320933"><ele>209.0</ele><time>2026-04-11T09:52:03.418Z</time></trkpt><trkpt lat="43.9657483" lon="11.3322367"><ele>210.0</ele><time>2026-04-11T09:52:04.417Z</time></trkpt><trkpt lat="43.9657117" lon="11.3323767"><ele>211.0</ele><time>2026-04-11T09:52:05.418Z</time></trkpt><trkpt lat="43.965675" lon="11.3325117"><ele>212.0</ele><time>2026-04-11T09:52:06.419Z</time></trkpt><trkpt lat="43.9656433" lon="11.3326433"><ele>213.0</ele><time>2026-04-11T09:52:07.419Z</time></trkpt><trkpt lat="43.9656117" lon="11.3327683"><ele>213.0</ele><time>2026-04-11T09:52:08.419Z</time></trkpt><trkpt lat="43.96558" lon="11.3328833"><ele>213.0</ele><time>2026-04-11T09:52:09.417Z</time></trkpt><trkpt lat="43.9655467" lon="11.3329833"><ele>213.0</ele><time>2026-04-11T09:52:10.417Z</time></trkpt><trkpt lat="43.9655133" lon="11.3330867"><ele>213.0</ele><time>2026-04-11T09:52:11.417Z</time></trkpt><trkpt lat="43.9654733" lon="11.3331917"><ele>213.0</ele><time>2026-04-11T09:52:12.418Z</time></trkpt><trkpt lat="43.9654317" lon="11.3333033"><ele>213.0</ele><time>2026-04-11T09:52:13.418Z</time></trkpt><trkpt lat="43.9653883" lon="11.3334217"><ele>212.4</ele><time>2026-04-11T09:52:14.418Z</time></trkpt><trkpt lat="43.9653417" lon="11.33355"><ele>211.8</ele><time>2026-04-11T09:52:15.417Z</time></trkpt><trkpt lat="43.965295" lon="11.3336867"><ele>211.2</ele><time>2026-04-11T09:52:16.418Z</time></trkpt><trkpt lat="43.965245" lon="11.3338367"><ele>210.6</ele><time>2026-04-11T09:52:17.417Z</time></trkpt><trkpt lat="43.9651983" lon="11.333985"><ele>210.0</ele><time>2026-04-11T09:52:18.418Z</time></trkpt><trkpt lat="43.9651533" lon="11.3341267"><ele>208.8</ele><time>2026-04-11T09:52:19.419Z</time></trkpt><trkpt lat="43.9651083" lon="11.3342683"><ele>207.6</ele><time>2026-04-11T09:52:20.418Z</time></trkpt><trkpt lat="43.9650617" lon="11.334405"><ele>206.39999999999998</ele><time>2026-04-11T09:52:21.417Z</time></trkpt><trkpt lat="43.965015" lon="11.3345367"><ele>205.2</ele><time>2026-04-11T09:52:22.417Z</time></trkpt><trkpt lat="43.964975" lon="11.3346633"><ele>204.0</ele><time>2026-04-11T09:52:23.419Z</time></trkpt><trkpt lat="43.9649317" lon="11.3348"><ele>204.0</ele><time>2026-04-11T09:52:24.419Z</time></trkpt><trkpt lat="43.9648867" lon="11.3349383"><ele>204.0</ele><time>2026-04-11T09:52:25.419Z</time></trkpt><trkpt lat="43.9648383" lon="11.3350817"><ele>204.0</ele><time>2026-04-11T09:52:26.417Z</time></trkpt><trkpt lat="43.9647933" lon="11.33523"><ele>204.0</ele><time>2026-04-11T09:52:27.418Z</time></trkpt><trkpt lat="43.964745" lon="11.33539"><ele>204.0</ele><time>2026-04-11T09:52:28.419Z</time></trkpt><trkpt lat="43.9646933" lon="11.3355517"><ele>204.0</ele><time>2026-04-11T09:52:29.418Z</time></trkpt><trkpt lat="43.9646433" lon="11.3357117"><ele>204.0</ele><time>2026-04-11T09:52:30.417Z</time></trkpt><trkpt lat="43.9645933" lon="11.33586"><ele>204.0</ele><time>2026-04-11T09:52:31.417Z</time></trkpt><trkpt lat="43.964545" lon="11.33601"><ele>204.0</ele><time>2026-04-11T09:52:32.418Z</time></trkpt><trkpt lat="43.9644967" lon="11.3361567"><ele>204.0</ele><time>2026-04-11T09:52:33.417Z</time></trkpt><trkpt lat="43.9644517" lon="11.3363033"><ele>204.0</ele><time>2026-04-11T09:52:34.418Z</time></trkpt><trkpt lat="43.96441" lon="11.3364433"><ele>204.0</ele><time>2026-04-11T09:52:35.419Z</time></trkpt><trkpt lat="43.96437" lon="11.3365767"><ele>204.0</ele><time>2026-04-11T09:52:36.417Z</time></trkpt><trkpt lat="43.96433" lon="11.3366967"><ele>204.16666666666666</ele><time>2026-04-11T09:52:37.417Z</time></trkpt><trkpt lat="43.9642933" lon="11.3368133"><ele>204.33333333333331</ele><time>2026-04-11T09:52:38.417Z</time></trkpt><trkpt lat="43.9642567" lon="11.3369267"><ele>204.5</ele><time>2026-04-11T09:52:39.418Z</time></trkpt><trkpt lat="43.964225" lon="11.3370267"><ele>204.66666666666666</ele><time>2026-04-11T09:52:40.418Z</time></trkpt><trkpt lat="43.9642" lon="11.3371083"><ele>204.83333333333331</ele><time>2026-04-11T09:52:41.418Z</time></trkpt><trkpt lat="43.96419" lon="11.3372417"><ele>205.0</ele><time>2026-04-11T09:52:43.418Z</time></trkpt><trkpt lat="43.96424" lon="11.3373433"><ele>205.6</ele><time>2026-04-11T09:52:45.418Z</time></trkpt><trkpt lat="43.964315" lon="11.3374067"><ele>206.2</ele><time>2026-04-11T09:52:47.418Z</time></trkpt><trkpt lat="43.9644017" lon="11.337465"><ele>206.8</ele><time>2026-04-11T09:52:49.419Z</time></trkpt><trkpt lat="43.9644717" lon="11.3375167"><ele>207.4</ele><time>2026-04-11T09:52:51.417Z</time></trkpt><trkpt lat="43.9645317" lon="11.3375767"><ele>208.0</ele><time>2026-04-11T09:52:54.417Z</time></trkpt><trkpt lat="43.9647033" lon="11.3376967"><ele>207.99999999999997</ele><time>2026-04-11T09:53:14.423Z</time></trkpt><trkpt lat="43.964815" lon="11.3377617"><ele>208.0</ele><time>2026-04-11T09:53:16.417Z</time></trkpt><trkpt lat="43.96488" lon="11.3378017"><ele>208.0</ele><time>2026-04-11T09:53:17.417Z</time></trkpt><trkpt lat="43.9649583" lon="11.3378467"><ele>208.0</ele><time>2026-04-11T09:53:18.417Z</time></trkpt><trkpt lat="43.9650333" lon="11.3378967"><ele>207.99999999999997</ele><time>2026-04-11T09:53:19.417Z</time></trkpt><trkpt lat="43.9651067" lon="11.3379467"><ele>208.0</ele><time>2026-04-11T09:53:20.419Z</time></trkpt><trkpt lat="43.9651833" lon="11.3379983"><ele>208.2</ele><time>2026-04-11T09:53:21.418Z</time></trkpt><trkpt lat="43.9652667" lon="11.338045"><ele>208.4</ele><time>2026-04-11T09:53:22.418Z</time></trkpt><trkpt lat="43.965345" lon="11.3380983"><ele>208.6</ele><time>2026-04-11T09:53:23.418Z</time></trkpt><trkpt lat="43.9654383" lon="11.3381567"><ele>208.79999999999998</ele><time>2026-04-11T09:53:24.417Z</time></trkpt><trkpt lat="43.9655367" lon="11.338225"><ele>209.0</ele><time>2026-04-11T09:53:25.418Z</time></trkpt><trkpt lat="43.9656267" lon="11.338285"><ele>209.2</ele><time>2026-04-11T09:53:26.418Z</time></trkpt><trkpt lat="43.9657183" lon="11.33835"><ele>209.39999999999998</ele><time>2026-04-11T09:53:27.419Z</time></trkpt><trkpt lat="43.965805" lon="11.3384183"><ele>209.6</ele><time>2026-04-11T09:53:28.417Z</time></trkpt><trkpt lat="43.9658933" lon="11.3384817"><ele>209.8</ele><time>2026-04-11T09:53:29.417Z</time></trkpt><trkpt lat="43.9659883" lon="11.3385417"><ele>210.0</ele><time>2026-04-11T09:53:30.418Z</time></trkpt><trkpt lat="43.9660733" lon="11.3386017"><ele>211.4</ele><time>2026-04-11T09:53:31.417Z</time></trkpt><trkpt lat="43.966165" lon="11.3386617"><ele>212.8</ele><time>2026-04-11T09:53:32.419Z</time></trkpt><trkpt lat="43.9662533" lon="11.3387217"><ele>214.2</ele><time>2026-04-11T09:53:33.421Z</time></trkpt><trkpt lat="43.9663417" lon="11.33878"><ele>215.6</ele><time>2026-04-11T09:53:34.424Z</time></trkpt><trkpt lat="43.9664267" lon="11.3388367"><ele>217.0</ele><time>2026-04-11T09:53:35.417Z</time></trkpt><trkpt lat="43.966515" lon="11.3388967"><ele>216.99999999999997</ele><time>2026-04-11T09:53:36.418Z</time></trkpt><trkpt lat="43.9666183" lon="11.3389633"><ele>217.0</ele><time>2026-04-11T09:53:37.417Z</time></trkpt><trkpt lat="43.9667167" lon="11.3390217"><ele>217.0</ele><time>2026-04-11T09:53:38.418Z</time></trkpt><trkpt lat="43.9667967" lon="11.3390567"><ele>217.0</ele><time>2026-04-11T09:53:39.418Z</time></trkpt><trkpt lat="43.9668733" lon="11.339075"><ele>216.99999999999997</ele><time>2026-04-11T09:53:40.418Z</time></trkpt><trkpt lat="43.9669367" lon="11.33908"><ele>217.0</ele><time>2026-04-11T09:53:41.417Z</time></trkpt><trkpt lat="43.96703" lon="11.3390033"><ele>217.8</ele><time>2026-04-11T09:53:43.418Z</time></trkpt><trkpt lat="43.9670817" lon="11.3389233"><ele>218.6</ele><time>2026-04-11T09:53:44.419Z</time></trkpt><trkpt lat="43.9671283" lon="11.3388167"><ele>219.40000000000003</ele><time>2026-04-11T09:53:45.418Z</time></trkpt><trkpt lat="43.96718" lon="11.3386967"><ele>220.20000000000002</ele><time>2026-04-11T09:53:46.417Z</time></trkpt><trkpt lat="43.9672317" lon="11.338575"><ele>221.0</ele><time>2026-04-11T09:53:47.418Z</time></trkpt><trkpt lat="43.96728" lon="11.3384533"><ele>221.60000000000002</ele><time>2026-04-11T09:53:48.418Z</time></trkpt><trkpt lat="43.9673367" lon="11.3383317"><ele>222.20000000000002</ele><time>2026-04-11T09:53:49.417Z</time></trkpt><trkpt lat="43.9673983" lon="11.338225"><ele>222.79999999999998</ele><time>2026-04-11T09:53:50.418Z</time></trkpt><trkpt lat="43.9674583" lon="11.3381283"><ele>223.39999999999998</ele><time>2026-04-11T09:53:51.418Z</time></trkpt><trkpt lat="43.9675217" lon="11.3380367"><ele>224.0</ele><time>2026-04-11T09:53:52.417Z</time></trkpt><trkpt lat="43.9675833" lon="11.3379517"><ele>225.16666666666669</ele><time>2026-04-11T09:53:53.418Z</time></trkpt><trkpt lat="43.96765" lon="11.3378783"><ele>226.33333333333334</ele><time>2026-04-11T09:53:54.418Z</time></trkpt><trkpt lat="43.967715" lon="11.3378267"><ele>227.5</ele><time>2026-04-11T09:53:55.42Z</time></trkpt><trkpt lat="43.9677867" lon="11.3378"><ele>228.66666666666669</ele><time>2026-04-11T09:53:56.419Z</time></trkpt><trkpt lat="43.9678533" lon="11.3378217"><ele>229.83333333333334</ele><time>2026-04-11T09:53:57.418Z</time></trkpt><trkpt lat="43.9679183" lon="11.337875"><ele>231.0</ele><time>2026-04-11T09:53:58.418Z</time></trkpt><trkpt lat="43.96799" lon="11.337935"><ele>231.0</ele><time>2026-04-11T09:53:59.418Z</time></trkpt><trkpt lat="43.9680633" lon="11.337995"><ele>231.0</ele><time>2026-04-11T09:54:00.417Z</time></trkpt><trkpt lat="43.968135" lon="11.3380617"><ele>231.0</ele><time>2026-04-11T09:54:01.417Z</time></trkpt><trkpt lat="43.9682133" lon="11.3381233"><ele>231.0</ele><time>2026-04-11T09:54:02.419Z</time></trkpt><trkpt lat="43.968295" lon="11.338185"><ele>231.0</ele><time>2026-04-11T09:54:03.419Z</time></trkpt><trkpt lat="43.9683783" lon="11.3382483"><ele>231.0</ele><time>2026-04-11T09:54:04.417Z</time></trkpt><trkpt lat="43.96846" lon="11.33831"><ele>230.8</ele><time>2026-04-11T09:54:05.417Z</time></trkpt><trkpt lat="43.968545" lon="11.3383733"><ele>230.60000000000002</ele><time>2026-04-11T09:54:06.417Z</time></trkpt><trkpt lat="43.968635" lon="11.3384417"><ele>230.4</ele><time>2026-04-11T09:54:07.418Z</time></trkpt><trkpt lat="43.9687283" lon="11.3385183"><ele>230.2</ele><time>2026-04-11T09:54:08.417Z</time></trkpt><trkpt lat="43.968825" lon="11.3385933"><ele>230.0</ele><time>2026-04-11T09:54:09.419Z</time></trkpt><trkpt lat="43.9689233" lon="11.3386717"><ele>230.0</ele><time>2026-04-11T09:54:10.417Z</time></trkpt><trkpt lat="43.969015" lon="11.3387467"><ele>230.0</ele><time>2026-04-11T09:54:11.417Z</time></trkpt><trkpt lat="43.9691" lon="11.3388167"><ele>230.0</ele><time>2026-04-11T09:54:12.418Z</time></trkpt><trkpt lat="43.96918" lon="11.3388833"><ele>230.0</ele><time>2026-04-11T09:54:13.417Z</time></trkpt><trkpt lat="43.9692583" lon="11.33895"><ele>230.0</ele><time>2026-04-11T09:54:14.417Z</time></trkpt><trkpt lat="43.969335" lon="11.3390117"><ele>230.6</ele><time>2026-04-11T09:54:15.417Z</time></trkpt><trkpt lat="43.9694117" lon="11.3390733"><ele>231.2</ele><time>2026-04-11T09:54:16.417Z</time></trkpt><trkpt lat="43.9694883" lon="11.33913"><ele>231.8</ele><time>2026-04-11T09:54:17.418Z</time></trkpt><trkpt lat="43.969565" lon="11.33918"><ele>232.4</ele><time>2026-04-11T09:54:18.417Z</time></trkpt><trkpt lat="43.9696433" lon="11.3392467"><ele>233.0</ele><time>2026-04-11T09:54:19.418Z</time></trkpt><trkpt lat="43.9697283" lon="11.3393133"><ele>233.0</ele><time>2026-04-11T09:54:20.423Z</time></trkpt><trkpt lat="43.9698233" lon="11.3393767"><ele>233.0</ele><time>2026-04-11T09:54:21.418Z</time></trkpt><trkpt lat="43.96992" lon="11.3394433"><ele>233.0</ele><time>2026-04-11T09:54:22.418Z</time></trkpt><trkpt lat="43.97001" lon="11.3395117"><ele>233.0</ele><time>2026-04-11T09:54:23.418Z</time></trkpt><trkpt lat="43.970095" lon="11.3395817"><ele>233.0</ele><time>2026-04-11T09:54:24.417Z</time></trkpt><trkpt lat="43.9701767" lon="11.3396467"><ele>233.33333333333334</ele><time>2026-04-11T09:54:25.418Z</time></trkpt><trkpt lat="43.97025" lon="11.3397083"><ele>233.66666666666669</ele><time>2026-04-11T09:54:26.417Z</time></trkpt><trkpt lat="43.9703217" lon="11.3397667"><ele>234.0</ele><time>2026-04-11T09:54:27.418Z</time></trkpt><trkpt lat="43.9703883" lon="11.3398167"><ele>234.33333333333331</ele><time>2026-04-11T09:54:28.417Z</time></trkpt><trkpt lat="43.9704533" lon="11.3398633"><ele>234.66666666666666</ele><time>2026-04-11T09:54:29.417Z</time></trkpt><trkpt lat="43.97052" lon="11.339905"><ele>235.0</ele><time>2026-04-11T09:54:30.418Z</time></trkpt><trkpt lat="43.9705867" lon="11.3399317"><ele>235.66666666666666</ele><time>2026-04-11T09:54:31.419Z</time></trkpt><trkpt lat="43.9706567" lon="11.3399433"><ele>236.33333333333331</ele><time>2026-04-11T09:54:32.418Z</time></trkpt><trkpt lat="43.9707333" lon="11.3399533"><ele>237.0</ele><time>2026-04-11T09:54:33.418Z</time></trkpt><trkpt lat="43.9708167" lon="11.3399617"><ele>237.66666666666669</ele><time>2026-04-11T09:54:34.417Z</time></trkpt><trkpt lat="43.9709017" lon="11.33997"><ele>238.33333333333334</ele><time>2026-04-11T09:54:35.418Z</time></trkpt><trkpt lat="43.9709883" lon="11.33998"><ele>239.0</ele><time>2026-04-11T09:54:36.419Z</time></trkpt><trkpt lat="43.971085" lon="11.3399883"><ele>239.00000000000003</ele><time>2026-04-11T09:54:37.42Z</time></trkpt><trkpt lat="43.9711767" lon="11.34"><ele>239.0</ele><time>2026-04-11T09:54:38.419Z</time></trkpt><trkpt lat="43.9712517" lon="11.34001"><ele>239.0</ele><time>2026-04-11T09:54:39.417Z</time></trkpt><trkpt lat="43.9713483" lon="11.3400217"><ele>239.0</ele><time>2026-04-11T09:54:40.417Z</time></trkpt><trkpt lat="43.9714167" lon="11.3400333"><ele>239.00000000000003</ele><time>2026-04-11T09:54:41.418Z</time></trkpt><trkpt lat="43.9715" lon="11.340055"><ele>239.0</ele><time>2026-04-11T09:54:42.42Z</time></trkpt><trkpt lat="43.9715933" lon="11.340085"><ele>239.0</ele><time>2026-04-11T09:54:43.418Z</time></trkpt><trkpt lat="43.9716767" lon="11.3401217"><ele>238.99999999999997</ele><time>2026-04-11T09:54:44.419Z</time></trkpt><trkpt lat="43.971775" lon="11.3401683"><ele>238.99999999999997</ele><time>2026-04-11T09:54:45.418Z</time></trkpt><trkpt lat="43.971875" lon="11.3402233"><ele>239.0</ele><time>2026-04-11T09:54:46.417Z</time></trkpt><trkpt lat="43.9719717" lon="11.34028"><ele>239.0</ele><time>2026-04-11T09:54:47.421Z</time></trkpt><trkpt lat="43.972075" lon="11.340335"><ele>239.0</ele><time>2026-04-11T09:54:48.418Z</time></trkpt><trkpt lat="43.972175" lon="11.3403883"><ele>238.99999999999997</ele><time>2026-04-11T09:54:49.419Z</time></trkpt><trkpt lat="43.9722783" lon="11.3404467"><ele>238.99999999999997</ele><time>2026-04-11T09:54:50.417Z</time></trkpt><trkpt lat="43.9723783" lon="11.340505"><ele>239.0</ele><time>2026-04-11T09:54:51.417Z</time></trkpt><trkpt lat="43.9724833" lon="11.3405517"><ele>239.0</ele><time>2026-04-11T09:54:52.418Z</time></trkpt><trkpt lat="43.9725717" lon="11.3406"><ele>237.6</ele><time>2026-04-11T09:54:53.419Z</time></trkpt><trkpt lat="43.9726683" lon="11.340645"><ele>236.2</ele><time>2026-04-11T09:54:54.419Z</time></trkpt><trkpt lat="43.972765" lon="11.340705"><ele>234.79999999999998</ele><time>2026-04-11T09:54:55.418Z</time></trkpt><trkpt lat="43.9728633" lon="11.340765"><ele>233.39999999999998</ele><time>2026-04-11T09:54:56.418Z</time></trkpt><trkpt lat="43.972945" lon="11.3408183"><ele>232.0</ele><time>2026-04-11T09:54:57.419Z</time></trkpt><trkpt lat="43.973025" lon="11.340875"><ele>232.0</ele><time>2026-04-11T09:54:58.419Z</time></trkpt><trkpt lat="43.973105" lon="11.3409267"><ele>232.0</ele><time>2026-04-11T09:54:59.418Z</time></trkpt><trkpt lat="43.9731933" lon="11.3409833"><ele>232.0</ele><time>2026-04-11T09:55:00.419Z</time></trkpt><trkpt lat="43.9732783" lon="11.3410217"><ele>232.0</ele><time>2026-04-11T09:55:01.418Z</time></trkpt><trkpt lat="43.973365" lon="11.3410467"><ele>232.0</ele><time>2026-04-11T09:55:02.42Z</time></trkpt><trkpt lat="43.9734517" lon="11.3410517"><ele>232.6</ele><time>2026-04-11T09:55:03.418Z</time></trkpt><trkpt lat="43.9735367" lon="11.3410433"><ele>233.2</ele><time>2026-04-11T09:55:04.418Z</time></trkpt><trkpt lat="43.9736283" lon="11.3410333"><ele>233.8</ele><time>2026-04-11T09:55:05.417Z</time></trkpt><trkpt lat="43.973725" lon="11.341035"><ele>234.4</ele><time>2026-04-11T09:55:06.418Z</time></trkpt><trkpt lat="43.973825" lon="11.3410467"><ele>235.0</ele><time>2026-04-11T09:55:07.418Z</time></trkpt><trkpt lat="43.9739267" lon="11.3410733"><ele>235.0</ele><time>2026-04-11T09:55:08.419Z</time></trkpt><trkpt lat="43.9740217" lon="11.3411033"><ele>235.0</ele><time>2026-04-11T09:55:09.417Z</time></trkpt><trkpt lat="43.9741183" lon="11.3411383"><ele>235.0</ele><time>2026-04-11T09:55:10.417Z</time></trkpt><trkpt lat="43.974215" lon="11.3411867"><ele>235.0</ele><time>2026-04-11T09:55:11.418Z</time></trkpt><trkpt lat="43.9743167" lon="11.3412233"><ele>235.0</ele><time>2026-04-11T09:55:12.418Z</time></trkpt><trkpt lat="43.97442" lon="11.3412717"><ele>235.0</ele><time>2026-04-11T09:55:13.418Z</time></trkpt><trkpt lat="43.97452" lon="11.34132"><ele>235.0</ele><time>2026-04-11T09:55:14.418Z</time></trkpt><trkpt lat="43.9746167" lon="11.3413733"><ele>235.0</ele><time>2026-04-11T09:55:15.418Z</time></trkpt><trkpt lat="43.974715" lon="11.34142"><ele>235.0</ele><time>2026-04-11T09:55:16.418Z</time></trkpt><trkpt lat="43.97481" lon="11.3414767"><ele>235.0</ele><time>2026-04-11T09:55:17.417Z</time></trkpt><trkpt lat="43.9749033" lon="11.3415417"><ele>235.0</ele><time>2026-04-11T09:55:18.419Z</time></trkpt><trkpt lat="43.9749933" lon="11.3416017"><ele>235.0</ele><time>2026-04-11T09:55:19.418Z</time></trkpt><trkpt lat="43.975095" lon="11.3416633"><ele>235.0</ele><time>2026-04-11T09:55:20.417Z</time></trkpt><trkpt lat="43.9751783" lon="11.3417233"><ele>235.0</ele><time>2026-04-11T09:55:21.418Z</time></trkpt><trkpt lat="43.975255" lon="11.3418"><ele>235.0</ele><time>2026-04-11T09:55:22.418Z</time></trkpt><trkpt lat="43.97533" lon="11.3418833"><ele>234.0</ele><time>2026-04-11T09:55:23.418Z</time></trkpt><trkpt lat="43.9753967" lon="11.3419717"><ele>233.0</ele><time>2026-04-11T09:55:24.417Z</time></trkpt><trkpt lat="43.9754567" lon="11.342075"><ele>232.0</ele><time>2026-04-11T09:55:25.417Z</time></trkpt><trkpt lat="43.9755183" lon="11.3421783"><ele>231.0</ele><time>2026-04-11T09:55:26.418Z</time></trkpt><trkpt lat="43.9755833" lon="11.342265"><ele>230.0</ele><time>2026-04-11T09:55:27.419Z</time></trkpt><trkpt lat="43.9756483" lon="11.342335"><ele>230.83333333333334</ele><time>2026-04-11T09:55:28.418Z</time></trkpt><trkpt lat="43.97571" lon="11.3424067"><ele>231.66666666666669</ele><time>2026-04-11T09:55:29.419Z</time></trkpt><trkpt lat="43.97577" lon="11.3424783"><ele>232.5</ele><time>2026-04-11T09:55:30.418Z</time></trkpt><trkpt lat="43.975825" lon="11.3425467"><ele>233.33333333333331</ele><time>2026-04-11T09:55:31.417Z</time></trkpt><trkpt lat="43.9758833" lon="11.3426117"><ele>234.16666666666666</ele><time>2026-04-11T09:55:32.419Z</time></trkpt><trkpt lat="43.9759383" lon="11.34268"><ele>235.0</ele><time>2026-04-11T09:55:33.418Z</time></trkpt><trkpt lat="43.976" lon="11.3427533"><ele>234.99999999999997</ele><time>2026-04-11T09:55:34.417Z</time></trkpt><trkpt lat="43.97606" lon="11.3428017"><ele>235.0</ele><time>2026-04-11T09:55:35.418Z</time></trkpt><trkpt lat="43.9761267" lon="11.3428317"><ele>235.0</ele><time>2026-04-11T09:55:36.418Z</time></trkpt><trkpt lat="43.9762067" lon="11.3428383"><ele>235.0</ele><time>2026-04-11T09:55:37.417Z</time></trkpt><trkpt lat="43.9762817" lon="11.342855"><ele>234.99999999999997</ele><time>2026-04-11T09:55:38.417Z</time></trkpt><trkpt lat="43.97637" lon="11.3428733"><ele>235.0</ele><time>2026-04-11T09:55:39.417Z</time></trkpt><trkpt lat="43.9764467" lon="11.3428933"><ele>235.0</ele><time>2026-04-11T09:55:40.418Z</time></trkpt><trkpt lat="43.97654" lon="11.3429217"><ele>235.0</ele><time>2026-04-11T09:55:41.419Z</time></trkpt><trkpt lat="43.9766183" lon="11.3429483"><ele>235.0</ele><time>2026-04-11T09:55:42.418Z</time></trkpt><trkpt lat="43.97671" lon="11.3429667"><ele>235.0</ele><time>2026-04-11T09:55:43.418Z</time></trkpt><trkpt lat="43.9768133" lon="11.3430033"><ele>235.0</ele><time>2026-04-11T09:55:44.417Z</time></trkpt><trkpt lat="43.976925" lon="11.343065"><ele>236.8</ele><time>2026-04-11T09:55:45.418Z</time></trkpt><trkpt lat="43.9770333" lon="11.343115"><ele>238.6</ele><time>2026-04-11T09:55:46.418Z</time></trkpt><trkpt lat="43.97714" lon="11.3431733"><ele>240.39999999999998</ele><time>2026-04-11T09:55:47.417Z</time></trkpt><trkpt lat="43.9772267" lon="11.34325"><ele>242.2</ele><time>2026-04-11T09:55:48.417Z</time></trkpt><trkpt lat="43.9773167" lon="11.3433283"><ele>244.0</ele><time>2026-04-11T09:55:49.417Z</time></trkpt><trkpt lat="43.977405" lon="11.34342"><ele>244.0</ele><time>2026-04-11T09:55:50.417Z</time></trkpt><trkpt lat="43.9774933" lon="11.3435083"><ele>243.99999999999997</ele><time>2026-04-11T09:55:51.418Z</time></trkpt><trkpt lat="43.977585" lon="11.3435933"><ele>243.99999999999997</ele><time>2026-04-11T09:55:52.421Z</time></trkpt><trkpt lat="43.9776833" lon="11.3436667"><ele>244.0</ele><time>2026-04-11T09:55:53.417Z</time></trkpt><trkpt lat="43.977775" lon="11.3437483"><ele>244.0</ele><time>2026-04-11T09:55:54.419Z</time></trkpt><trkpt lat="43.9778617" lon="11.3438383"><ele>244.0</ele><time>2026-04-11T09:55:55.417Z</time></trkpt><trkpt lat="43.9779533" lon="11.3439233"><ele>243.99999999999997</ele><time>2026-04-11T09:55:56.419Z</time></trkpt><trkpt lat="43.97805" lon="11.3440083"><ele>243.99999999999997</ele><time>2026-04-11T09:55:57.418Z</time></trkpt><trkpt lat="43.9781483" lon="11.3440867"><ele>244.0</ele><time>2026-04-11T09:55:58.422Z</time></trkpt><trkpt lat="43.97824" lon="11.3441417"><ele>244.0</ele><time>2026-04-11T09:55:59.418Z</time></trkpt><trkpt lat="43.978335" lon="11.3441883"><ele>243.0</ele><time>2026-04-11T09:56:00.417Z</time></trkpt><trkpt lat="43.9784283" lon="11.3442233"><ele>241.99999999999997</ele><time>2026-04-11T09:56:01.42Z</time></trkpt><trkpt lat="43.97853" lon="11.34426"><ele>240.99999999999997</ele><time>2026-04-11T09:56:02.417Z</time></trkpt><trkpt lat="43.97863" lon="11.3442883"><ele>240.0</ele><time>2026-04-11T09:56:03.417Z</time></trkpt><trkpt lat="43.9787333" lon="11.3443117"><ele>239.0</ele><time>2026-04-11T09:56:04.418Z</time></trkpt><trkpt lat="43.97883" lon="11.3443317"><ele>239.0</ele><time>2026-04-11T09:56:05.417Z</time></trkpt><trkpt lat="43.97892" lon="11.3443617"><ele>238.99999999999997</ele><time>2026-04-11T09:56:06.418Z</time></trkpt><trkpt lat="43.979005" lon="11.3444067"><ele>238.99999999999997</ele><time>2026-04-11T09:56:07.418Z</time></trkpt><trkpt lat="43.9790967" lon="11.34446"><ele>239.0</ele><time>2026-04-11T09:56:08.417Z</time></trkpt><trkpt lat="43.9791983" lon="11.3445333"><ele>239.0</ele><time>2026-04-11T09:56:09.424Z</time></trkpt><trkpt lat="43.979305" lon="11.3446217"><ele>239.5</ele><time>2026-04-11T09:56:10.417Z</time></trkpt><trkpt lat="43.9794117" lon="11.344715"><ele>240.0</ele><time>2026-04-11T09:56:11.419Z</time></trkpt><trkpt lat="43.9795133" lon="11.3448"><ele>240.5</ele><time>2026-04-11T09:56:12.418Z</time></trkpt><trkpt lat="43.9796067" lon="11.3448733"><ele>241.0</ele><time>2026-04-11T09:56:13.418Z</time></trkpt><trkpt lat="43.9796883" lon="11.3449517"><ele>240.99999999999997</ele><time>2026-04-11T09:56:14.417Z</time></trkpt><trkpt lat="43.9797667" lon="11.3450183"><ele>241.0</ele><time>2026-04-11T09:56:15.417Z</time></trkpt><trkpt lat="43.97984" lon="11.3450733"><ele>241.0</ele><time>2026-04-11T09:56:16.418Z</time></trkpt><trkpt lat="43.979915" lon="11.345125"><ele>241.0</ele><time>2026-04-11T09:56:17.417Z</time></trkpt><trkpt lat="43.9799983" lon="11.345165"><ele>240.99999999999997</ele><time>2026-04-11T09:56:18.417Z</time></trkpt><trkpt lat="43.980075" lon="11.3452"><ele>241.0</ele><time>2026-04-11T09:56:19.418Z</time></trkpt><trkpt lat="43.9801567" lon="11.3452333"><ele>240.33333333333331</ele><time>2026-04-11T09:56:20.418Z</time></trkpt><trkpt lat="43.9802333" lon="11.3452683"><ele>239.66666666666666</ele><time>2026-04-11T09:56:21.417Z</time></trkpt><trkpt lat="43.980295" lon="11.3453067"><ele>239.0</ele><time>2026-04-11T09:56:22.418Z</time></trkpt><trkpt lat="43.9803783" lon="11.3453483"><ele>238.33333333333331</ele><time>2026-04-11T09:56:23.417Z</time></trkpt><trkpt lat="43.9804633" lon="11.3453933"><ele>237.66666666666666</ele><time>2026-04-11T09:56:24.418Z</time></trkpt><trkpt lat="43.9805567" lon="11.3454417"><ele>237.0</ele><time>2026-04-11T09:56:25.419Z</time></trkpt><trkpt lat="43.9806333" lon="11.3454917"><ele>237.0</ele><time>2026-04-11T09:56:26.419Z</time></trkpt><trkpt lat="43.9807317" lon="11.3455383"><ele>237.0</ele><time>2026-04-11T09:56:27.417Z</time></trkpt><trkpt lat="43.980835" lon="11.345585"><ele>237.0</ele><time>2026-04-11T09:56:28.417Z</time></trkpt><trkpt lat="43.98094" lon="11.3456317"><ele>237.0</ele><time>2026-04-11T09:56:29.417Z</time></trkpt><trkpt lat="43.98105" lon="11.345675"><ele>237.0</ele><time>2026-04-11T09:56:30.418Z</time></trkpt><trkpt lat="43.98117" lon="11.345705"><ele>238.0</ele><time>2026-04-11T09:56:31.419Z</time></trkpt><trkpt lat="43.9812933" lon="11.3457317"><ele>239.0</ele><time>2026-04-11T09:56:32.42Z</time></trkpt><trkpt lat="43.981395" lon="11.34576"><ele>240.0</ele><time>2026-04-11T09:56:33.417Z</time></trkpt><trkpt lat="43.9814933" lon="11.345795"><ele>241.0</ele><time>2026-04-11T09:56:34.418Z</time></trkpt><trkpt lat="43.98159" lon="11.3458383"><ele>242.0</ele><time>2026-04-11T09:56:35.418Z</time></trkpt><trkpt lat="43.98169" lon="11.3458883"><ele>242.0</ele><time>2026-04-11T09:56:36.418Z</time></trkpt><trkpt lat="43.9817783" lon="11.3459467"><ele>242.0</ele><time>2026-04-11T09:56:37.418Z</time></trkpt><trkpt lat="43.9818733" lon="11.3459983"><ele>242.0</ele><time>2026-04-11T09:56:38.418Z</time></trkpt><trkpt lat="43.98197" lon="11.3460467"><ele>242.0</ele><time>2026-04-11T09:56:39.42Z</time></trkpt><trkpt lat="43.9820667" lon="11.3460883"><ele>242.0</ele><time>2026-04-11T09:56:40.419Z</time></trkpt><trkpt lat="43.9821733" lon="11.34612"><ele>242.0</ele><time>2026-04-11T09:56:41.418Z</time></trkpt><trkpt lat="43.9822867" lon="11.3461467"><ele>242.0</ele><time>2026-04-11T09:56:42.42Z</time></trkpt><trkpt lat="43.9824017" lon="11.3461667"><ele>242.0</ele><time>2026-04-11T09:56:43.417Z</time></trkpt><trkpt lat="43.9825183" lon="11.346175"><ele>242.0</ele><time>2026-04-11T09:56:44.418Z</time></trkpt><trkpt lat="43.982635" lon="11.3461767"><ele>242.0</ele><time>2026-04-11T09:56:45.417Z</time></trkpt><trkpt lat="43.98274" lon="11.34618"><ele>242.0</ele><time>2026-04-11T09:56:46.418Z</time></trkpt><trkpt lat="43.9828367" lon="11.3461867"><ele>242.0</ele><time>2026-04-11T09:56:47.418Z</time></trkpt><trkpt lat="43.9829133" lon="11.3461983"><ele>242.0</ele><time>2026-04-11T09:56:48.419Z</time></trkpt><trkpt lat="43.983035" lon="11.3462417"><ele>242.0</ele><time>2026-04-11T09:56:50.418Z</time></trkpt><trkpt lat="43.98312" lon="11.346275"><ele>244.16666666666669</ele><time>2026-04-11T09:56:52.418Z</time></trkpt><trkpt lat="43.9831417" lon="11.34639"><ele>246.33333333333334</ele><time>2026-04-11T09:56:54.418Z</time></trkpt><trkpt lat="43.9831817" lon="11.3464833"><ele>248.5</ele><time>2026-04-11T09:56:55.418Z</time></trkpt><trkpt lat="43.9832417" lon="11.346575"><ele>250.66666666666669</ele><time>2026-04-11T09:56:56.42Z</time></trkpt><trkpt lat="43.98331" lon="11.3466817"><ele>252.83333333333334</ele><time>2026-04-11T09:56:57.417Z</time></trkpt><trkpt lat="43.9833683" lon="11.3467783"><ele>255.0</ele><time>2026-04-11T09:56:58.419Z</time></trkpt><trkpt lat="43.9834233" lon="11.34686"><ele>255.0</ele><time>2026-04-11T09:56:59.42Z</time></trkpt><trkpt lat="43.983485" lon="11.34694"><ele>255.0</ele><time>2026-04-11T09:57:00.418Z</time></trkpt><trkpt lat="43.9835883" lon="11.3470183"><ele>255.0</ele><time>2026-04-11T09:57:01.421Z</time></trkpt><trkpt lat="43.9836833" lon="11.3470817"><ele>255.0</ele><time>2026-04-11T09:57:02.418Z</time></trkpt><trkpt lat="43.98376" lon="11.34712"><ele>255.0</ele><time>2026-04-11T09:57:03.417Z</time></trkpt><trkpt lat="43.9838267" lon="11.34717"><ele>254.2</ele><time>2026-04-11T09:57:04.418Z</time></trkpt><trkpt lat="43.9839217" lon="11.34724"><ele>253.4</ele><time>2026-04-11T09:57:06.418Z</time></trkpt><trkpt lat="43.9840117" lon="11.3472983"><ele>252.60000000000002</ele><time>2026-04-11T09:57:38.418Z</time></trkpt><trkpt lat="43.984095" lon="11.347355"><ele>251.8</ele><time>2026-04-11T09:57:40.417Z</time></trkpt><trkpt lat="43.9842133" lon="11.3474167"><ele>251.0</ele><time>2026-04-11T09:57:42.418Z</time></trkpt><trkpt lat="43.9842767" lon="11.3474533"><ele>251.00000000000003</ele><time>2026-04-11T09:57:43.417Z</time></trkpt><trkpt lat="43.984345" lon="11.3474933"><ele>251.0</ele><time>2026-04-11T09:57:44.417Z</time></trkpt><trkpt lat="43.9844167" lon="11.3475383"><ele>251.0</ele><time>2026-04-11T09:57:45.417Z</time></trkpt><trkpt lat="43.9844933" lon="11.3475883"><ele>251.0</ele><time>2026-04-11T09:57:46.418Z</time></trkpt><trkpt lat="43.98457" lon="11.347645"><ele>251.00000000000003</ele><time>2026-04-11T09:57:47.418Z</time></trkpt><trkpt lat="43.9846483" lon="11.3477"><ele>251.0</ele><time>2026-04-11T09:57:48.418Z</time></trkpt><trkpt lat="43.98472" lon="11.3477617"><ele>251.0</ele><time>2026-04-11T09:57:49.419Z</time></trkpt><trkpt lat="43.9847867" lon="11.34783"><ele>251.00000000000003</ele><time>2026-04-11T09:57:50.419Z</time></trkpt><trkpt lat="43.9848617" lon="11.34791"><ele>251.00000000000003</ele><time>2026-04-11T09:57:51.418Z</time></trkpt><trkpt lat="43.984945" lon="11.348"><ele>251.0</ele><time>2026-04-11T09:57:52.417Z</time></trkpt><trkpt lat="43.9850333" lon="11.3481133"><ele>251.0</ele><time>2026-04-11T09:57:53.418Z</time></trkpt><trkpt lat="43.9851267" lon="11.34824"><ele>252.5</ele><time>2026-04-11T09:57:54.418Z</time></trkpt><trkpt lat="43.9852133" lon="11.348365"><ele>254.0</ele><time>2026-04-11T09:57:55.418Z</time></trkpt><trkpt lat="43.985295" lon="11.3484833"><ele>255.5</ele><time>2026-04-11T09:57:56.417Z</time></trkpt><trkpt lat="43.9853817" lon="11.3485883"><ele>257.0</ele><time>2026-04-11T09:57:57.422Z</time></trkpt><trkpt lat="43.9854717" lon="11.3486783"><ele>257.0</ele><time>2026-04-11T09:57:58.419Z</time></trkpt><trkpt lat="43.98557" lon="11.3487683"><ele>257.0</ele><time>2026-04-11T09:57:59.417Z</time></trkpt><trkpt lat="43.985665" lon="11.348855"><ele>257.0</ele><time>2026-04-11T09:58:00.417Z</time></trkpt><trkpt lat="43.9857583" lon="11.348915"><ele>257.0</ele><time>2026-04-11T09:58:01.417Z</time></trkpt><trkpt lat="43.985835" lon="11.3489583"><ele>257.0</ele><time>2026-04-11T09:58:02.421Z</time></trkpt><trkpt lat="43.9859183" lon="11.348995"><ele>257.8</ele><time>2026-04-11T09:58:03.417Z</time></trkpt><trkpt lat="43.9860117" lon="11.3490133"><ele>258.6</ele><time>2026-04-11T09:58:04.417Z</time></trkpt><trkpt lat="43.9861" lon="11.3490083"><ele>259.40000000000003</ele><time>2026-04-11T09:58:05.417Z</time></trkpt><trkpt lat="43.9862033" lon="11.3489833"><ele>260.2</ele><time>2026-04-11T09:58:06.417Z</time></trkpt><trkpt lat="43.986305" lon="11.348945"><ele>261.0</ele><time>2026-04-11T09:58:07.418Z</time></trkpt><trkpt lat="43.9864" lon="11.3488933"><ele>261.6</ele><time>2026-04-11T09:58:08.418Z</time></trkpt><trkpt lat="43.9864733" lon="11.348815"><ele>262.20000000000005</ele><time>2026-04-11T09:58:09.417Z</time></trkpt><trkpt lat="43.98654" lon="11.3487117"><ele>262.79999999999995</ele><time>2026-04-11T09:58:10.416Z</time></trkpt><trkpt lat="43.9865933" lon="11.3485817"><ele>263.4</ele><time>2026-04-11T09:58:11.417Z</time></trkpt><trkpt lat="43.9866317" lon="11.3484417"><ele>264.0</ele><time>2026-04-11T09:58:12.418Z</time></trkpt><trkpt lat="43.986665" lon="11.3483217"><ele>263.5</ele><time>2026-04-11T09:58:13.418Z</time></trkpt><trkpt lat="43.9866967" lon="11.3482217"><ele>263.0</ele><time>2026-04-11T09:58:14.418Z</time></trkpt><trkpt lat="43.9867617" lon="11.3481367"><ele>262.5</ele><time>2026-04-11T09:58:16.418Z</time></trkpt><trkpt lat="43.9868283" lon="11.3481183"><ele>262.0</ele><time>2026-04-11T09:58:19.417Z</time></trkpt><trkpt lat="43.9868633" lon="11.34803"><ele>261.5</ele><time>2026-04-11T09:58:23.418Z</time></trkpt><trkpt lat="43.9868117" lon="11.347895"><ele>261.0</ele><time>2026-04-11T09:58:25.417Z</time></trkpt><trkpt lat="43.9867633" lon="11.3477967"><ele>260.25</ele><time>2026-04-11T09:58:26.417Z</time></trkpt><trkpt lat="43.9867167" lon="11.3476783"><ele>259.5</ele><time>2026-04-11T09:58:27.418Z</time></trkpt><trkpt lat="43.9866517" lon="11.3475183"><ele>258.75</ele><time>2026-04-11T09:58:28.419Z</time></trkpt><trkpt lat="43.9865883" lon="11.3473433"><ele>258.0</ele><time>2026-04-11T09:58:29.42Z</time></trkpt><trkpt lat="43.9865167" lon="11.3471617"><ele>256.0</ele><time>2026-04-11T09:58:30.416Z</time></trkpt><trkpt lat="43.9864467" lon="11.3469883"><ele>254.0</ele><time>2026-04-11T09:58:31.419Z</time></trkpt><trkpt lat="43.9863783" lon="11.3468133"><ele>252.0</ele><time>2026-04-11T09:58:32.419Z</time></trkpt><trkpt lat="43.9863117" lon="11.3466383"><ele>250.0</ele><time>2026-04-11T09:58:33.418Z</time></trkpt><trkpt lat="43.9862433" lon="11.3464617"><ele>248.25</ele><time>2026-04-11T09:58:34.419Z</time></trkpt><trkpt lat="43.986175" lon="11.3462817"><ele>246.5</ele><time>2026-04-11T09:58:35.419Z</time></trkpt><trkpt lat="43.986105" lon="11.3461"><ele>244.75</ele><time>2026-04-11T09:58:36.419Z</time></trkpt><trkpt lat="43.986035" lon="11.3459183"><ele>243.0</ele><time>2026-04-11T09:58:37.419Z</time></trkpt><trkpt lat="43.9859667" lon="11.3457483"><ele>243.0</ele><time>2026-04-11T09:58:38.418Z</time></trkpt><trkpt lat="43.9858983" lon="11.3455767"><ele>243.0</ele><time>2026-04-11T09:58:39.418Z</time></trkpt><trkpt lat="43.985825" lon="11.3453833"><ele>243.0</ele><time>2026-04-11T09:58:40.418Z</time></trkpt><trkpt lat="43.98575" lon="11.345195"><ele>243.0</ele><time>2026-04-11T09:58:41.418Z</time></trkpt><trkpt lat="43.9856767" lon="11.34501"><ele>243.0</ele><time>2026-04-11T09:58:42.418Z</time></trkpt><trkpt lat="43.9856033" lon="11.3448267"><ele>243.0</ele><time>2026-04-11T09:58:43.419Z</time></trkpt><trkpt lat="43.9855317" lon="11.3446517"><ele>243.0</ele><time>2026-04-11T09:58:44.421Z</time></trkpt><trkpt lat="43.98546" lon="11.3444783"><ele>241.25</ele><time>2026-04-11T09:58:45.417Z</time></trkpt><trkpt lat="43.98539" lon="11.3443083"><ele>239.5</ele><time>2026-04-11T09:58:46.418Z</time></trkpt><trkpt lat="43.9853217" lon="11.3441367"><ele>237.75</ele><time>2026-04-11T09:58:47.42Z</time></trkpt><trkpt lat="43.9852567" lon="11.343975"><ele>236.0</ele><time>2026-04-11T09:58:48.419Z</time></trkpt><trkpt lat="43.9851933" lon="11.343815"><ele>234.5</ele><time>2026-04-11T09:58:49.418Z</time></trkpt><trkpt lat="43.9851267" lon="11.34365"><ele>233.0</ele><time>2026-04-11T09:58:50.419Z</time></trkpt><trkpt lat="43.9850633" lon="11.3434817"><ele>231.5</ele><time>2026-04-11T09:58:51.418Z</time></trkpt><trkpt lat="43.985005" lon="11.34331"><ele>230.0</ele><time>2026-04-11T09:58:52.419Z</time></trkpt><trkpt lat="43.9849567" lon="11.34314"><ele>229.25</ele><time>2026-04-11T09:58:53.418Z</time></trkpt><trkpt lat="43.9849283" lon="11.34296"><ele>228.5</ele><time>2026-04-11T09:58:54.419Z</time></trkpt><trkpt lat="43.984925" lon="11.34276"><ele>227.75</ele><time>2026-04-11T09:58:55.418Z</time></trkpt><trkpt lat="43.98494" lon="11.34254"><ele>227.0</ele><time>2026-04-11T09:58:56.419Z</time></trkpt><trkpt lat="43.9849717" lon="11.3423033"><ele>227.0</ele><time>2026-04-11T09:58:57.419Z</time></trkpt><trkpt lat="43.9850083" lon="11.3420533"><ele>227.0</ele><time>2026-04-11T09:58:58.418Z</time></trkpt><trkpt lat="43.985055" lon="11.3418"><ele>227.0</ele><time>2026-04-11T09:58:59.419Z</time></trkpt><trkpt lat="43.9851" lon="11.3415583"><ele>227.33333333333334</ele><time>2026-04-11T09:59:00.418Z</time></trkpt><trkpt lat="43.9851417" lon="11.34133"><ele>227.66666666666669</ele><time>2026-04-11T09:59:01.419Z</time></trkpt><trkpt lat="43.98518" lon="11.3411133"><ele>228.0</ele><time>2026-04-11T09:59:02.419Z</time></trkpt><trkpt lat="43.985215" lon="11.3409117"><ele>228.0</ele><time>2026-04-11T09:59:03.419Z</time></trkpt><trkpt lat="43.9852483" lon="11.3407133"><ele>228.0</ele><time>2026-04-11T09:59:04.418Z</time></trkpt><trkpt lat="43.9852817" lon="11.3405267"><ele>228.0</ele><time>2026-04-11T09:59:05.418Z</time></trkpt><trkpt lat="43.9853117" lon="11.3403583"><ele>228.0</ele><time>2026-04-11T09:59:06.42Z</time></trkpt><trkpt lat="43.9853433" lon="11.34021"><ele>228.66666666666666</ele><time>2026-04-11T09:59:07.418Z</time></trkpt><trkpt lat="43.9853933" lon="11.3400883"><ele>229.33333333333331</ele><time>2026-04-11T09:59:08.418Z</time></trkpt><trkpt lat="43.98545" lon="11.3399717"><ele>230.0</ele><time>2026-04-11T09:59:09.419Z</time></trkpt><trkpt lat="43.9854967" lon="11.3398717"><ele>230.66666666666666</ele><time>2026-04-11T09:59:10.419Z</time></trkpt><trkpt lat="43.98552" lon="11.3397717"><ele>231.33333333333331</ele><time>2026-04-11T09:59:11.419Z</time></trkpt><trkpt lat="43.9855183" lon="11.3396683"><ele>232.0</ele><time>2026-04-11T09:59:12.419Z</time></trkpt><trkpt lat="43.985495" lon="11.339555"><ele>232.66666666666666</ele><time>2026-04-11T09:59:13.418Z</time></trkpt><trkpt lat="43.98547" lon="11.3394383"><ele>233.33333333333331</ele><time>2026-04-11T09:59:14.419Z</time></trkpt><trkpt lat="43.98546" lon="11.339325"><ele>234.0</ele><time>2026-04-11T09:59:15.418Z</time></trkpt><trkpt lat="43.9854667" lon="11.3392133"><ele>234.66666666666669</ele><time>2026-04-11T09:59:16.419Z</time></trkpt><trkpt lat="43.98548" lon="11.3391183"><ele>235.33333333333334</ele><time>2026-04-11T09:59:17.418Z</time></trkpt><trkpt lat="43.98551" lon="11.3390033"><ele>236.0</ele><time>2026-04-11T09:59:19.418Z</time></trkpt><trkpt lat="43.985535" lon="11.338915"><ele>236.66666666666669</ele><time>2026-04-11T09:59:21.418Z</time></trkpt><trkpt lat="43.9855717" lon="11.338815"><ele>237.33333333333334</ele><time>2026-04-11T09:59:23.421Z</time></trkpt><trkpt lat="43.98564" lon="11.3386783"><ele>238.0</ele><time>2026-04-11T09:59:25.419Z</time></trkpt><trkpt lat="43.9856783" lon="11.3385967"><ele>238.66666666666669</ele><time>2026-04-11T09:59:26.419Z</time></trkpt><trkpt lat="43.9857217" lon="11.3385167"><ele>239.33333333333334</ele><time>2026-04-11T09:59:27.42Z</time></trkpt><trkpt lat="43.98576" lon="11.3384283"><ele>240.0</ele><time>2026-04-11T09:59:28.418Z</time></trkpt><trkpt lat="43.9857917" lon="11.3383267"><ele>240.0</ele><time>2026-04-11T09:59:29.419Z</time></trkpt><trkpt lat="43.9858167" lon="11.338225"><ele>240.0</ele><time>2026-04-11T09:59:30.419Z</time></trkpt><trkpt lat="43.9858417" lon="11.3381283"><ele>240.0</ele><time>2026-04-11T09:59:31.421Z</time></trkpt><trkpt lat="43.98587" lon="11.3380383"><ele>240.0</ele><time>2026-04-11T09:59:32.419Z</time></trkpt><trkpt lat="43.9858967" lon="11.3379383"><ele>240.0</ele><time>2026-04-11T09:59:33.418Z</time></trkpt><trkpt lat="43.9859283" lon="11.3378333"><ele>240.0</ele><time>2026-04-11T09:59:34.419Z</time></trkpt><trkpt lat="43.9859567" lon="11.3377333"><ele>240.5</ele><time>2026-04-11T09:59:35.418Z</time></trkpt><trkpt lat="43.98599" lon="11.3376283"><ele>241.0</ele><time>2026-04-11T09:59:36.418Z</time></trkpt><trkpt lat="43.9860267" lon="11.3375233"><ele>241.5</ele><time>2026-04-11T09:59:37.422Z</time></trkpt><trkpt lat="43.9860633" lon="11.33741"><ele>242.0</ele><time>2026-04-11T09:59:38.419Z</time></trkpt><trkpt lat="43.9860967" lon="11.337305"><ele>242.5</ele><time>2026-04-11T09:59:39.418Z</time></trkpt><trkpt lat="43.9861283" lon="11.3372017"><ele>243.0</ele><time>2026-04-11T09:59:40.418Z</time></trkpt><trkpt lat="43.9861567" lon="11.3371067"><ele>243.0</ele><time>2026-04-11T09:59:41.419Z</time></trkpt><trkpt lat="43.986185" lon="11.3370167"><ele>243.0</ele><time>2026-04-11T09:59:42.418Z</time></trkpt><trkpt lat="43.986215" lon="11.3369233"><ele>243.0</ele><time>2026-04-11T09:59:43.418Z</time></trkpt><trkpt lat="43.986245" lon="11.3368233"><ele>243.0</ele><time>2026-04-11T09:59:44.419Z</time></trkpt><trkpt lat="43.986275" lon="11.33672"><ele>243.0</ele><time>2026-04-11T09:59:45.419Z</time></trkpt><trkpt lat="43.9863017" lon="11.3366233"><ele>243.0</ele><time>2026-04-11T09:59:46.418Z</time></trkpt><trkpt lat="43.9863333" lon="11.3365417"><ele>243.0</ele><time>2026-04-11T09:59:47.419Z</time></trkpt><trkpt lat="43.9863917" lon="11.3364483"><ele>243.0</ele><time>2026-04-11T09:59:49.418Z</time></trkpt><trkpt lat="43.9865117" lon="11.33648"><ele>243.0</ele><time>2026-04-11T09:59:51.419Z</time></trkpt><trkpt lat="43.9866383" lon="11.3365133"><ele>243.0</ele><time>2026-04-11T09:59:52.421Z</time></trkpt><trkpt lat="43.9867633" lon="11.3365417"><ele>243.0</ele><time>2026-04-11T09:59:53.421Z</time></trkpt><trkpt lat="43.9868617" lon="11.3365617"><ele>243.33333333333334</ele><time>2026-04-11T09:59:54.418Z</time></trkpt><trkpt lat="43.9869383" lon="11.3365717"><ele>243.66666666666669</ele><time>2026-04-11T09:59:55.419Z</time></trkpt><trkpt lat="43.9870033" lon="11.336565"><ele>244.0</ele><time>2026-04-11T09:59:56.418Z</time></trkpt><trkpt lat="43.9870767" lon="11.3364983"><ele>244.33333333333334</ele><time>2026-04-11T09:59:58.418Z</time></trkpt><trkpt lat="43.9870367" lon="11.3363533"><ele>244.66666666666669</ele><time>2026-04-11T10:00:00.419Z</time></trkpt><trkpt lat="43.98699" lon="11.3362417"><ele>245.0</ele><time>2026-04-11T10:00:01.421Z</time></trkpt><trkpt lat="43.9869567" lon="11.3361133"><ele>245.6</ele><time>2026-04-11T10:00:02.419Z</time></trkpt><trkpt lat="43.9869283" lon="11.33598"><ele>246.2</ele><time>2026-04-11T10:00:03.419Z</time></trkpt><trkpt lat="43.98691" lon="11.335845"><ele>246.8</ele><time>2026-04-11T10:00:04.418Z</time></trkpt><trkpt lat="43.9868933" lon="11.335715"><ele>247.4</ele><time>2026-04-11T10:00:05.418Z</time></trkpt><trkpt lat="43.9868783" lon="11.335585"><ele>248.0</ele><time>2026-04-11T10:00:06.42Z</time></trkpt><trkpt lat="43.9868683" lon="11.3354567"><ele>248.4</ele><time>2026-04-11T10:00:07.424Z</time></trkpt><trkpt lat="43.9868617" lon="11.335315"><ele>248.8</ele><time>2026-04-11T10:00:08.421Z</time></trkpt><trkpt lat="43.98686" lon="11.3351733"><ele>249.2</ele><time>2026-04-11T10:00:09.42Z</time></trkpt><trkpt lat="43.986855" lon="11.3350267"><ele>249.6</ele><time>2026-04-11T10:00:10.42Z</time></trkpt><trkpt lat="43.98684" lon="11.3348933"><ele>250.0</ele><time>2026-04-11T10:00:11.419Z</time></trkpt><trkpt lat="43.986805" lon="11.3347683"><ele>249.6</ele><time>2026-04-11T10:00:12.418Z</time></trkpt><trkpt lat="43.9867533" lon="11.3346583"><ele>249.2</ele><time>2026-04-11T10:00:13.417Z</time></trkpt><trkpt lat="43.9866833" lon="11.33456"><ele>248.8</ele><time>2026-04-11T10:00:14.421Z</time></trkpt><trkpt lat="43.986615" lon="11.33447"><ele>248.4</ele><time>2026-04-11T10:00:15.418Z</time></trkpt><trkpt lat="43.98655" lon="11.3343783"><ele>248.0</ele><time>2026-04-11T10:00:16.419Z</time></trkpt><trkpt lat="43.9864983" lon="11.3342833"><ele>248.00000000000003</ele><time>2026-04-11T10:00:17.419Z</time></trkpt><trkpt lat="43.986465" lon="11.3341833"><ele>248.0</ele><time>2026-04-11T10:00:18.419Z</time></trkpt><trkpt lat="43.9864533" lon="11.3340867"><ele>248.0</ele><time>2026-04-11T10:00:19.419Z</time></trkpt><trkpt lat="43.9864633" lon="11.3339983"><ele>248.0</ele><time>2026-04-11T10:00:20.418Z</time></trkpt><trkpt lat="43.98649" lon="11.3338933"><ele>248.00000000000003</ele><time>2026-04-11T10:00:21.418Z</time></trkpt><trkpt lat="43.986525" lon="11.33377"><ele>248.0</ele><time>2026-04-11T10:00:22.418Z</time></trkpt><trkpt lat="43.9865667" lon="11.3336317"><ele>246.5</ele><time>2026-04-11T10:00:23.418Z</time></trkpt><trkpt lat="43.9866167" lon="11.3334733"><ele>245.0</ele><time>2026-04-11T10:00:24.418Z</time></trkpt><trkpt lat="43.9866667" lon="11.3333183"><ele>243.5</ele><time>2026-04-11T10:00:25.418Z</time></trkpt><trkpt lat="43.9867167" lon="11.3331683"><ele>242.0</ele><time>2026-04-11T10:00:26.418Z</time></trkpt><trkpt lat="43.9867667" lon="11.3330117"><ele>240.5</ele><time>2026-04-11T10:00:27.42Z</time></trkpt><trkpt lat="43.9868133" lon="11.3328583"><ele>239.0</ele><time>2026-04-11T10:00:28.42Z</time></trkpt><trkpt lat="43.9868483" lon="11.3326983"><ele>237.5</ele><time>2026-04-11T10:00:29.419Z</time></trkpt><trkpt lat="43.9868767" lon="11.3325383"><ele>236.0</ele><time>2026-04-11T10:00:30.419Z</time></trkpt><trkpt lat="43.986905" lon="11.332375"><ele>236.0</ele><time>2026-04-11T10:00:31.419Z</time></trkpt><trkpt lat="43.986935" lon="11.332225"><ele>236.0</ele><time>2026-04-11T10:00:32.419Z</time></trkpt><trkpt lat="43.9869667" lon="11.33207"><ele>236.0</ele><time>2026-04-11T10:00:33.419Z</time></trkpt><trkpt lat="43.9869983" lon="11.331925"><ele>236.0</ele><time>2026-04-11T10:00:34.418Z</time></trkpt><trkpt lat="43.9870333" lon="11.3317733"><ele>234.5</ele><time>2026-04-11T10:00:35.419Z</time></trkpt><trkpt lat="43.9870667" lon="11.3316217"><ele>233.0</ele><time>2026-04-11T10:00:36.418Z</time></trkpt><trkpt lat="43.9871017" lon="11.3314733"><ele>231.5</ele><time>2026-04-11T10:00:37.419Z</time></trkpt><trkpt lat="43.9871333" lon="11.33132"><ele>230.0</ele><time>2026-04-11T10:00:38.421Z</time></trkpt><trkpt lat="43.987165" lon="11.3311717"><ele>229.6</ele><time>2026-04-11T10:00:39.419Z</time></trkpt><trkpt lat="43.9872" lon="11.3310267"><ele>229.2</ele><time>2026-04-11T10:00:40.418Z</time></trkpt><trkpt lat="43.987235" lon="11.33089"><ele>228.8</ele><time>2026-04-11T10:00:41.419Z</time></trkpt><trkpt lat="43.987265" lon="11.3307617"><ele>228.4</ele><time>2026-04-11T10:00:42.418Z</time></trkpt><trkpt lat="43.9872867" lon="11.3306283"><ele>228.0</ele><time>2026-04-11T10:00:43.419Z</time></trkpt><trkpt lat="43.9872933" lon="11.3304867"><ele>228.0</ele><time>2026-04-11T10:00:44.418Z</time></trkpt><trkpt lat="43.987295" lon="11.3303383"><ele>228.0</ele><time>2026-04-11T10:00:45.418Z</time></trkpt><trkpt lat="43.9872917" lon="11.3301917"><ele>228.0</ele><time>2026-04-11T10:00:46.419Z</time></trkpt><trkpt lat="43.987285" lon="11.3300483"><ele>228.0</ele><time>2026-04-11T10:00:47.42Z</time></trkpt><trkpt lat="43.9872767" lon="11.3298867"><ele>228.0</ele><time>2026-04-11T10:00:48.417Z</time></trkpt><trkpt lat="43.9872717" lon="11.329725"><ele>229.0</ele><time>2026-04-11T10:00:49.417Z</time></trkpt><trkpt lat="43.98727" lon="11.3295583"><ele>230.0</ele><time>2026-04-11T10:00:50.419Z</time></trkpt><trkpt lat="43.9872733" lon="11.3293867"><ele>231.0</ele><time>2026-04-11T10:00:51.418Z</time></trkpt><trkpt lat="43.9872783" lon="11.3292067"><ele>232.0</ele><time>2026-04-11T10:00:52.42Z</time></trkpt><trkpt lat="43.98728" lon="11.3290117"><ele>233.25</ele><time>2026-04-11T10:00:53.418Z</time></trkpt><trkpt lat="43.9872717" lon="11.3288133"><ele>234.5</ele><time>2026-04-11T10:00:54.419Z</time></trkpt><trkpt lat="43.987255" lon="11.328635"><ele>235.75</ele><time>2026-04-11T10:00:55.418Z</time></trkpt><trkpt lat="43.9872383" lon="11.3284733"><ele>237.0</ele><time>2026-04-11T10:00:56.419Z</time></trkpt><trkpt lat="43.9872217" lon="11.3283117"><ele>237.0</ele><time>2026-04-11T10:00:57.418Z</time></trkpt><trkpt lat="43.9872033" lon="11.32815"><ele>237.0</ele><time>2026-04-11T10:00:58.418Z</time></trkpt><trkpt lat="43.9871867" lon="11.3279917"><ele>237.0</ele><time>2026-04-11T10:00:59.418Z</time></trkpt><trkpt lat="43.9871717" lon="11.32783"><ele>237.0</ele><time>2026-04-11T10:01:00.419Z</time></trkpt><trkpt lat="43.987155" lon="11.32766"><ele>238.25</ele><time>2026-04-11T10:01:01.421Z</time></trkpt><trkpt lat="43.98714" lon="11.3274767"><ele>239.5</ele><time>2026-04-11T10:01:02.418Z</time></trkpt><trkpt lat="43.987125" lon="11.3272833"><ele>240.75</ele><time>2026-04-11T10:01:03.418Z</time></trkpt><trkpt lat="43.9871167" lon="11.3271117"><ele>242.0</ele><time>2026-04-11T10:01:04.418Z</time></trkpt><trkpt lat="43.9871067" lon="11.3269533"><ele>243.83333333333334</ele><time>2026-04-11T10:01:05.418Z</time></trkpt><trkpt lat="43.9870967" lon="11.3268183"><ele>245.66666666666669</ele><time>2026-04-11T10:01:06.42Z</time></trkpt><trkpt lat="43.9870733" lon="11.3267017"><ele>247.5</ele><time>2026-04-11T10:01:07.418Z</time></trkpt><trkpt lat="43.987035" lon="11.326605"><ele>249.33333333333331</ele><time>2026-04-11T10:01:08.418Z</time></trkpt><trkpt lat="43.9869883" lon="11.3265283"><ele>251.16666666666666</ele><time>2026-04-11T10:01:09.418Z</time></trkpt><trkpt lat="43.9869217" lon="11.3264717"><ele>253.0</ele><time>2026-04-11T10:01:10.419Z</time></trkpt><trkpt lat="43.986825" lon="11.3264433"><ele>252.99999999999997</ele><time>2026-04-11T10:01:11.418Z</time></trkpt><trkpt lat="43.98672" lon="11.3264283"><ele>253.0</ele><time>2026-04-11T10:01:12.418Z</time></trkpt><trkpt lat="43.98663" lon="11.3264083"><ele>253.0</ele><time>2026-04-11T10:01:13.417Z</time></trkpt><trkpt lat="43.9865567" lon="11.3263717"><ele>253.0</ele><time>2026-04-11T10:01:14.419Z</time></trkpt><trkpt lat="43.9864933" lon="11.3263183"><ele>252.99999999999997</ele><time>2026-04-11T10:01:15.418Z</time></trkpt><trkpt lat="43.9864483" lon="11.3262267"><ele>253.0</ele><time>2026-04-11T10:01:16.418Z</time></trkpt><trkpt lat="43.9864183" lon="11.3261083"><ele>254.0</ele><time>2026-04-11T10:01:17.418Z</time></trkpt><trkpt lat="43.9864183" lon="11.3259367"><ele>255.0</ele><time>2026-04-11T10:01:18.418Z</time></trkpt><trkpt lat="43.986415" lon="11.3257633"><ele>256.0</ele><time>2026-04-11T10:01:19.419Z</time></trkpt><trkpt lat="43.98641" lon="11.3255867"><ele>257.0</ele><time>2026-04-11T10:01:20.42Z</time></trkpt><trkpt lat="43.9864033" lon="11.3254167"><ele>257.5</ele><time>2026-04-11T10:01:21.418Z</time></trkpt><trkpt lat="43.986395" lon="11.325235"><ele>258.0</ele><time>2026-04-11T10:01:22.417Z</time></trkpt><trkpt lat="43.9863817" lon="11.3250433"><ele>258.5</ele><time>2026-04-11T10:01:23.417Z</time></trkpt><trkpt lat="43.9863667" lon="11.32484"><ele>259.0</ele><time>2026-04-11T10:01:24.42Z</time></trkpt><trkpt lat="43.9863483" lon="11.3246283"><ele>260.66666666666663</ele><time>2026-04-11T10:01:25.418Z</time></trkpt><trkpt lat="43.986335" lon="11.3244"><ele>262.3333333333333</ele><time>2026-04-11T10:01:26.42Z</time></trkpt><trkpt lat="43.9863217" lon="11.3241667"><ele>264.0</ele><time>2026-04-11T10:01:27.419Z</time></trkpt><trkpt lat="43.98631" lon="11.3239567"><ele>264.5</ele><time>2026-04-11T10:01:28.417Z</time></trkpt><trkpt lat="43.9863033" lon="11.3237667"><ele>265.0</ele><time>2026-04-11T10:01:29.418Z</time></trkpt><trkpt lat="43.986295" lon="11.3235867"><ele>265.5</ele><time>2026-04-11T10:01:30.418Z</time></trkpt><trkpt lat="43.986285" lon="11.323395"><ele>266.0</ele><time>2026-04-11T10:01:31.419Z</time></trkpt><trkpt lat="43.9862783" lon="11.323205"><ele>265.6</ele><time>2026-04-11T10:01:32.418Z</time></trkpt><trkpt lat="43.9862733" lon="11.3230383"><ele>265.20000000000005</ele><time>2026-04-11T10:01:33.421Z</time></trkpt><trkpt lat="43.9862733" lon="11.3229"><ele>264.79999999999995</ele><time>2026-04-11T10:01:34.419Z</time></trkpt><trkpt lat="43.9862683" lon="11.32279"><ele>264.4</ele><time>2026-04-11T10:01:35.419Z</time></trkpt><trkpt lat="43.9862683" lon="11.3226983"><ele>264.0</ele><time>2026-04-11T10:01:36.42Z</time></trkpt><trkpt lat="43.9862733" lon="11.32258"><ele>264.0</ele><time>2026-04-11T10:01:38.418Z</time></trkpt><trkpt lat="43.9863183" lon="11.3224833"><ele>264.0</ele><time>2026-04-11T10:01:41.419Z</time></trkpt><trkpt lat="43.986385" lon="11.3224433"><ele>264.0</ele><time>2026-04-11T10:01:43.421Z</time></trkpt><trkpt lat="43.9864483" lon="11.32244"><ele>264.0</ele><time>2026-04-11T10:01:44.419Z</time></trkpt><trkpt lat="43.9865267" lon="11.32243"><ele>264.0</ele><time>2026-04-11T10:01:45.417Z</time></trkpt><trkpt lat="43.986625" lon="11.322405"><ele>264.0</ele><time>2026-04-11T10:01:46.418Z</time></trkpt><trkpt lat="43.9867367" lon="11.3223733"><ele>265.6666666666667</ele><time>2026-04-11T10:01:47.417Z</time></trkpt><trkpt lat="43.9868967" lon="11.3223183"><ele>267.33333333333337</ele><time>2026-04-11T10:01:48.418Z</time></trkpt><trkpt lat="43.9870517" lon="11.322275"><ele>269.0</ele><time>2026-04-11T10:01:49.418Z</time></trkpt><trkpt lat="43.987195" lon="11.32224"><ele>267.75</ele><time>2026-04-11T10:01:50.419Z</time></trkpt><trkpt lat="43.9873383" lon="11.3222167"><ele>266.5</ele><time>2026-04-11T10:01:51.419Z</time></trkpt><trkpt lat="43.9874733" lon="11.3222"><ele>265.25</ele><time>2026-04-11T10:01:52.419Z</time></trkpt><trkpt lat="43.9876117" lon="11.322195"><ele>264.0</ele><time>2026-04-11T10:01:53.418Z</time></trkpt><trkpt lat="43.9877567" lon="11.322185"><ele>262.3333333333333</ele><time>2026-04-11T10:01:54.417Z</time></trkpt><trkpt lat="43.98791" lon="11.3221667"><ele>260.66666666666663</ele><time>2026-04-11T10:01:55.419Z</time></trkpt><trkpt lat="43.9880617" lon="11.32215"><ele>259.0</ele><time>2026-04-11T10:01:56.42Z</time></trkpt><trkpt lat="43.9882067" lon="11.32214"><ele>258.25</ele><time>2026-04-11T10:01:57.418Z</time></trkpt><trkpt lat="43.9883467" lon="11.32215"><ele>257.5</ele><time>2026-04-11T10:01:58.419Z</time></trkpt><trkpt lat="43.98849" lon="11.3221733"><ele>256.75</ele><time>2026-04-11T10:01:59.419Z</time></trkpt><trkpt lat="43.98863" lon="11.3222033"><ele>256.0</ele><time>2026-04-11T10:02:00.42Z</time></trkpt><trkpt lat="43.9887683" lon="11.3222333"><ele>257.75</ele><time>2026-04-11T10:02:01.418Z</time></trkpt><trkpt lat="43.9889033" lon="11.3222683"><ele>259.5</ele><time>2026-04-11T10:02:02.42Z</time></trkpt><trkpt lat="43.9890283" lon="11.32231"><ele>261.25</ele><time>2026-04-11T10:02:03.419Z</time></trkpt><trkpt lat="43.98915" lon="11.3223533"><ele>263.0</ele><time>2026-04-11T10:02:04.418Z</time></trkpt><trkpt lat="43.989275" lon="11.3223933"><ele>263.0</ele><time>2026-04-11T10:02:05.42Z</time></trkpt><trkpt lat="43.989395" lon="11.322435"><ele>263.0</ele><time>2026-04-11T10:02:06.418Z</time></trkpt><trkpt lat="43.9895083" lon="11.3224683"><ele>263.0</ele><time>2026-04-11T10:02:07.419Z</time></trkpt><trkpt lat="43.9896167" lon="11.3224967"><ele>263.0</ele><time>2026-04-11T10:02:08.42Z</time></trkpt><trkpt lat="43.9897167" lon="11.322525"><ele>263.0</ele><time>2026-04-11T10:02:09.42Z</time></trkpt><trkpt lat="43.9898117" lon="11.3225533"><ele>263.0</ele><time>2026-04-11T10:02:10.418Z</time></trkpt><trkpt lat="43.989905" lon="11.3225783"><ele>263.0</ele><time>2026-04-11T10:02:11.418Z</time></trkpt><trkpt lat="43.9900067" lon="11.322595"><ele>263.0</ele><time>2026-04-11T10:02:12.417Z</time></trkpt><trkpt lat="43.9901033" lon="11.3225967"><ele>263.0</ele><time>2026-04-11T10:02:13.419Z</time></trkpt><trkpt lat="43.9902067" lon="11.3225917"><ele>262.2</ele><time>2026-04-11T10:02:14.419Z</time></trkpt><trkpt lat="43.99031" lon="11.3225733"><ele>261.4</ele><time>2026-04-11T10:02:15.419Z</time></trkpt><trkpt lat="43.9904233" lon="11.32255"><ele>260.59999999999997</ele><time>2026-04-11T10:02:16.417Z</time></trkpt><trkpt lat="43.9905333" lon="11.32253"><ele>259.8</ele><time>2026-04-11T10:02:17.418Z</time></trkpt><trkpt lat="43.99064" lon="11.3225183"><ele>259.0</ele><time>2026-04-11T10:02:18.419Z</time></trkpt><trkpt lat="43.9907483" lon="11.3225133"><ele>258.8</ele><time>2026-04-11T10:02:19.418Z</time></trkpt><trkpt lat="43.990855" lon="11.3225183"><ele>258.59999999999997</ele><time>2026-04-11T10:02:20.418Z</time></trkpt><trkpt lat="43.990965" lon="11.322525"><ele>258.4</ele><time>2026-04-11T10:02:21.418Z</time></trkpt><trkpt lat="43.99107" lon="11.322535"><ele>258.2</ele><time>2026-04-11T10:02:22.42Z</time></trkpt><trkpt lat="43.9911833" lon="11.3225467"><ele>258.0</ele><time>2026-04-11T10:02:23.417Z</time></trkpt><trkpt lat="43.991305" lon="11.32256"><ele>258.0</ele><time>2026-04-11T10:02:24.418Z</time></trkpt><trkpt lat="43.991435" lon="11.3225783"><ele>258.0</ele><time>2026-04-11T10:02:25.422Z</time></trkpt><trkpt lat="43.9915633" lon="11.3225917"><ele>258.0</ele><time>2026-04-11T10:02:26.419Z</time></trkpt><trkpt lat="43.99169" lon="11.3226033"><ele>258.0</ele><time>2026-04-11T10:02:27.42Z</time></trkpt><trkpt lat="43.9918183" lon="11.3226233"><ele>257.5</ele><time>2026-04-11T10:02:28.42Z</time></trkpt><trkpt lat="43.99195" lon="11.3226417"><ele>257.0</ele><time>2026-04-11T10:02:29.419Z</time></trkpt><trkpt lat="43.9920867" lon="11.3226633"><ele>256.5</ele><time>2026-04-11T10:02:30.419Z</time></trkpt><trkpt lat="43.9922267" lon="11.3226783"><ele>256.0</ele><time>2026-04-11T10:02:31.418Z</time></trkpt><trkpt lat="43.9923683" lon="11.3226883"><ele>255.75</ele><time>2026-04-11T10:02:32.419Z</time></trkpt><trkpt lat="43.9925067" lon="11.3226933"><ele>255.5</ele><time>2026-04-11T10:02:33.418Z</time></trkpt><trkpt lat="43.99265" lon="11.3226917"><ele>255.25</ele><time>2026-04-11T10:02:34.418Z</time></trkpt><trkpt lat="43.9927933" lon="11.322685"><ele>255.0</ele><time>2026-04-11T10:02:35.419Z</time></trkpt><trkpt lat="43.9929317" lon="11.3226683"><ele>255.0</ele><time>2026-04-11T10:02:36.418Z</time></trkpt><trkpt lat="43.9930767" lon="11.32265"><ele>255.0</ele><time>2026-04-11T10:02:37.419Z</time></trkpt><trkpt lat="43.993225" lon="11.3226267"><ele>255.0</ele><time>2026-04-11T10:02:38.418Z</time></trkpt><trkpt lat="43.99338" lon="11.3225983"><ele>255.5</ele><time>2026-04-11T10:02:39.418Z</time></trkpt><trkpt lat="43.9935283" lon="11.322565"><ele>256.0</ele><time>2026-04-11T10:02:40.418Z</time></trkpt><trkpt lat="43.9936667" lon="11.3225333"><ele>256.5</ele><time>2026-04-11T10:02:41.417Z</time></trkpt><trkpt lat="43.9937917" lon="11.322505"><ele>257.0</ele><time>2026-04-11T10:02:42.417Z</time></trkpt><trkpt lat="43.9939117" lon="11.322485"><ele>257.0</ele><time>2026-04-11T10:02:43.419Z</time></trkpt><trkpt lat="43.994025" lon="11.32247"><ele>257.0</ele><time>2026-04-11T10:02:44.418Z</time></trkpt><trkpt lat="43.994135" lon="11.32246"><ele>257.0</ele><time>2026-04-11T10:02:45.418Z</time></trkpt><trkpt lat="43.9942417" lon="11.32245"><ele>257.0</ele><time>2026-04-11T10:02:46.419Z</time></trkpt><trkpt lat="43.994355" lon="11.32243"><ele>257.0</ele><time>2026-04-11T10:02:47.418Z</time></trkpt><trkpt lat="43.99447" lon="11.322405"><ele>257.4</ele><time>2026-04-11T10:02:48.418Z</time></trkpt><trkpt lat="43.994585" lon="11.3223767"><ele>257.79999999999995</ele><time>2026-04-11T10:02:49.418Z</time></trkpt><trkpt lat="43.99469" lon="11.3223483"><ele>258.2</ele><time>2026-04-11T10:02:50.418Z</time></trkpt><trkpt lat="43.99479" lon="11.3223183"><ele>258.59999999999997</ele><time>2026-04-11T10:02:51.417Z</time></trkpt><trkpt lat="43.99489" lon="11.3222883"><ele>259.0</ele><time>2026-04-11T10:02:52.418Z</time></trkpt><trkpt lat="43.9949933" lon="11.3222583"><ele>259.5</ele><time>2026-04-11T10:02:53.419Z</time></trkpt><trkpt lat="43.9951067" lon="11.32222"><ele>260.0</ele><time>2026-04-11T10:02:54.419Z</time></trkpt><trkpt lat="43.9952333" lon="11.3221733"><ele>260.5</ele><time>2026-04-11T10:02:55.418Z</time></trkpt><trkpt lat="43.9953567" lon="11.3221283"><ele>261.0</ele><time>2026-04-11T10:02:56.42Z</time></trkpt><trkpt lat="43.9954767" lon="11.32209"><ele>261.0</ele><time>2026-04-11T10:02:57.418Z</time></trkpt><trkpt lat="43.9955967" lon="11.32206"><ele>261.0</ele><time>2026-04-11T10:02:58.418Z</time></trkpt><trkpt lat="43.9957183" lon="11.3220283"><ele>261.0</ele><time>2026-04-11T10:02:59.419Z</time></trkpt><trkpt lat="43.99584" lon="11.3219783"><ele>261.0</ele><time>2026-04-11T10:03:00.418Z</time></trkpt><trkpt lat="43.9959667" lon="11.3218917"><ele>262.3333333333333</ele><time>2026-04-11T10:03:01.418Z</time></trkpt><trkpt lat="43.9960983" lon="11.3217767"><ele>263.66666666666663</ele><time>2026-04-11T10:03:02.419Z</time></trkpt><trkpt lat="43.9962333" lon="11.32166"><ele>265.0</ele><time>2026-04-11T10:03:03.419Z</time></trkpt><trkpt lat="43.9963667" lon="11.32156"><ele>265.0</ele><time>2026-04-11T10:03:04.417Z</time></trkpt><trkpt lat="43.99649" lon="11.3214867"><ele>265.0</ele><time>2026-04-11T10:03:05.419Z</time></trkpt><trkpt lat="43.99661" lon="11.3214317"><ele>265.0</ele><time>2026-04-11T10:03:06.418Z</time></trkpt><trkpt lat="43.99672" lon="11.3213983"><ele>265.0</ele><time>2026-04-11T10:03:07.419Z</time></trkpt><trkpt lat="43.9968217" lon="11.3213733"><ele>266.8</ele><time>2026-04-11T10:03:08.419Z</time></trkpt><trkpt lat="43.99692" lon="11.3213467"><ele>268.6</ele><time>2026-04-11T10:03:09.42Z</time></trkpt><trkpt lat="43.99701" lon="11.3213217"><ele>270.4</ele><time>2026-04-11T10:03:10.419Z</time></trkpt><trkpt lat="43.9971017" lon="11.3212867"><ele>272.2</ele><time>2026-04-11T10:03:11.421Z</time></trkpt><trkpt lat="43.99719" lon="11.32124"><ele>274.0</ele><time>2026-04-11T10:03:12.42Z</time></trkpt><trkpt lat="43.9972817" lon="11.321185"><ele>274.0</ele><time>2026-04-11T10:03:13.419Z</time></trkpt><trkpt lat="43.99738" lon="11.32112"><ele>274.0</ele><time>2026-04-11T10:03:14.418Z</time></trkpt><trkpt lat="43.9975017" lon="11.3210417"><ele>274.0</ele><time>2026-04-11T10:03:15.419Z</time></trkpt><trkpt lat="43.9976317" lon="11.3209633"><ele>274.0</ele><time>2026-04-11T10:03:16.418Z</time></trkpt><trkpt lat="43.99776" lon="11.320885"><ele>274.25</ele><time>2026-04-11T10:03:17.419Z</time></trkpt><trkpt lat="43.997885" lon="11.32082"><ele>274.5</ele><time>2026-04-11T10:03:18.419Z</time></trkpt><trkpt lat="43.9979983" lon="11.3207633"><ele>274.75</ele><time>2026-04-11T10:03:19.418Z</time></trkpt><trkpt lat="43.9981267" lon="11.3207183"><ele>275.0</ele><time>2026-04-11T10:03:20.418Z</time></trkpt><trkpt lat="43.9982583" lon="11.320675"><ele>275.5</ele><time>2026-04-11T10:03:21.419Z</time></trkpt><trkpt lat="43.998395" lon="11.3206367"><ele>276.0</ele><time>2026-04-11T10:03:22.419Z</time></trkpt><trkpt lat="43.9985133" lon="11.320605"><ele>276.5</ele><time>2026-04-11T10:03:23.419Z</time></trkpt><trkpt lat="43.9986383" lon="11.3205817"><ele>277.0</ele><time>2026-04-11T10:03:24.419Z</time></trkpt><trkpt lat="43.9987433" lon="11.3205667"><ele>277.4</ele><time>2026-04-11T10:03:25.419Z</time></trkpt><trkpt lat="43.9988517" lon="11.3205533"><ele>277.79999999999995</ele><time>2026-04-11T10:03:26.42Z</time></trkpt><trkpt lat="43.998945" lon="11.3205467"><ele>278.2</ele><time>2026-04-11T10:03:27.418Z</time></trkpt><trkpt lat="43.999035" lon="11.3205383"><ele>278.59999999999997</ele><time>2026-04-11T10:03:28.418Z</time></trkpt><trkpt lat="43.9991283" lon="11.3205267"><ele>279.0</ele><time>2026-04-11T10:03:29.419Z</time></trkpt><trkpt lat="43.99923" lon="11.3205083"><ele>279.5</ele><time>2026-04-11T10:03:30.419Z</time></trkpt><trkpt lat="43.9993417" lon="11.3204867"><ele>280.0</ele><time>2026-04-11T10:03:31.418Z</time></trkpt><trkpt lat="43.99946" lon="11.3204483"><ele>280.5</ele><time>2026-04-11T10:03:32.418Z</time></trkpt><trkpt lat="43.9995783" lon="11.3203983"><ele>281.0</ele><time>2026-04-11T10:03:33.419Z</time></trkpt><trkpt lat="43.9996917" lon="11.3203433"><ele>281.0</ele><time>2026-04-11T10:03:34.418Z</time></trkpt><trkpt lat="43.9998033" lon="11.3202983"><ele>281.0</ele><time>2026-04-11T10:03:35.419Z</time></trkpt><trkpt lat="43.9999133" lon="11.320265"><ele>281.0</ele><time>2026-04-11T10:03:36.419Z</time></trkpt><trkpt lat="44.00002" lon="11.3202317"><ele>281.0</ele><time>2026-04-11T10:03:37.42Z</time></trkpt><trkpt lat="44.0001167" lon="11.3202"><ele>281.0</ele><time>2026-04-11T10:03:38.418Z</time></trkpt><trkpt lat="44.0002133" lon="11.3201733"><ele>281.0</ele><time>2026-04-11T10:03:39.418Z</time></trkpt><trkpt lat="44.0003183" lon="11.3201667"><ele>281.0</ele><time>2026-04-11T10:03:40.418Z</time></trkpt><trkpt lat="44.0004267" lon="11.3201617"><ele>281.0</ele><time>2026-04-11T10:03:41.419Z</time></trkpt><trkpt lat="44.0005317" lon="11.3201583"><ele>281.0</ele><time>2026-04-11T10:03:42.419Z</time></trkpt><trkpt lat="44.0006283" lon="11.320155"><ele>281.0</ele><time>2026-04-11T10:03:43.419Z</time></trkpt><trkpt lat="44.00073" lon="11.3201467"><ele>281.0</ele><time>2026-04-11T10:03:44.42Z</time></trkpt><trkpt lat="44.000815" lon="11.3201267"><ele>281.0</ele><time>2026-04-11T10:03:45.417Z</time></trkpt><trkpt lat="44.0009033" lon="11.3200883"><ele>281.0</ele><time>2026-04-11T10:03:46.42Z</time></trkpt><trkpt lat="44.0009917" lon="11.3200383"><ele>281.0</ele><time>2026-04-11T10:03:47.418Z</time></trkpt><trkpt lat="44.0010783" lon="11.3199733"><ele>281.0</ele><time>2026-04-11T10:03:48.419Z</time></trkpt><trkpt lat="44.0011683" lon="11.3198917"><ele>281.5</ele><time>2026-04-11T10:03:49.419Z</time></trkpt><trkpt lat="44.0012683" lon="11.31981"><ele>282.0</ele><time>2026-04-11T10:03:50.418Z</time></trkpt><trkpt lat="44.0013817" lon="11.3197233"><ele>282.5</ele><time>2026-04-11T10:03:51.418Z</time></trkpt><trkpt lat="44.0014883" lon="11.31964"><ele>283.0</ele><time>2026-04-11T10:03:52.418Z</time></trkpt><trkpt lat="44.0015833" lon="11.3195533"><ele>284.25</ele><time>2026-04-11T10:03:53.424Z</time></trkpt><trkpt lat="44.001665" lon="11.3194533"><ele>285.5</ele><time>2026-04-11T10:03:54.418Z</time></trkpt><trkpt lat="44.0017517" lon="11.3193217"><ele>286.75</ele><time>2026-04-11T10:03:55.419Z</time></trkpt><trkpt lat="44.0018367" lon="11.319175"><ele>288.0</ele><time>2026-04-11T10:03:56.419Z</time></trkpt><trkpt lat="44.00191" lon="11.3190283"><ele>289.6</ele><time>2026-04-11T10:03:57.419Z</time></trkpt><trkpt lat="44.0019767" lon="11.3188933"><ele>291.20000000000005</ele><time>2026-04-11T10:03:58.421Z</time></trkpt><trkpt lat="44.002045" lon="11.3187817"><ele>292.8</ele><time>2026-04-11T10:03:59.419Z</time></trkpt><trkpt lat="44.00212" lon="11.3186833"><ele>294.40000000000003</ele><time>2026-04-11T10:04:00.418Z</time></trkpt><trkpt lat="44.002205" lon="11.3186067"><ele>296.0</ele><time>2026-04-11T10:04:01.418Z</time></trkpt><trkpt lat="44.0023033" lon="11.3185567"><ele>296.0</ele><time>2026-04-11T10:04:02.419Z</time></trkpt><trkpt lat="44.0024217" lon="11.3185317"><ele>296.0</ele><time>2026-04-11T10:04:03.423Z</time></trkpt><trkpt lat="44.0025417" lon="11.318525"><ele>296.0</ele><time>2026-04-11T10:04:04.419Z</time></trkpt><trkpt lat="44.0026567" lon="11.3185117"><ele>296.0</ele><time>2026-04-11T10:04:05.42Z</time></trkpt><trkpt lat="44.002785" lon="11.3184867"><ele>296.0</ele><time>2026-04-11T10:04:06.424Z</time></trkpt><trkpt lat="44.0029267" lon="11.3184517"><ele>296.0</ele><time>2026-04-11T10:04:07.419Z</time></trkpt><trkpt lat="44.003075" lon="11.3184183"><ele>296.0</ele><time>2026-04-11T10:04:08.419Z</time></trkpt><trkpt lat="44.0032267" lon="11.3183833"><ele>296.0</ele><time>2026-04-11T10:04:09.418Z</time></trkpt><trkpt lat="44.00338" lon="11.318345"><ele>296.0</ele><time>2026-04-11T10:04:10.418Z</time></trkpt><trkpt lat="44.0035183" lon="11.3183"><ele>296.0</ele><time>2026-04-11T10:04:11.417Z</time></trkpt><trkpt lat="44.0036383" lon="11.3182567"><ele>296.0</ele><time>2026-04-11T10:04:12.419Z</time></trkpt><trkpt lat="44.0037433" lon="11.3182183"><ele>296.0</ele><time>2026-04-11T10:04:13.419Z</time></trkpt><trkpt lat="44.0038433" lon="11.3181933"><ele>296.0</ele><time>2026-04-11T10:04:14.418Z</time></trkpt><trkpt lat="44.0039417" lon="11.318185"><ele>296.0</ele><time>2026-04-11T10:04:15.419Z</time></trkpt><trkpt lat="44.0040467" lon="11.3181933"><ele>296.0</ele><time>2026-04-11T10:04:16.417Z</time></trkpt><trkpt lat="44.0041567" lon="11.3182083"><ele>296.0</ele><time>2026-04-11T10:04:17.418Z</time></trkpt><trkpt lat="44.0042683" lon="11.3182217"><ele>296.0</ele><time>2026-04-11T10:04:18.418Z</time></trkpt><trkpt lat="44.0043883" lon="11.3182317"><ele>297.0</ele><time>2026-04-11T10:04:19.419Z</time></trkpt><trkpt lat="44.004505" lon="11.318245"><ele>298.0</ele><time>2026-04-11T10:04:20.419Z</time></trkpt><trkpt lat="44.0046333" lon="11.3182583"><ele>299.0</ele><time>2026-04-11T10:04:21.417Z</time></trkpt><trkpt lat="44.0047583" lon="11.318275"><ele>300.0</ele><time>2026-04-11T10:04:22.418Z</time></trkpt><trkpt lat="44.0048817" lon="11.3182883"><ele>300.8</ele><time>2026-04-11T10:04:23.419Z</time></trkpt><trkpt lat="44.0049983" lon="11.3183"><ele>301.6</ele><time>2026-04-11T10:04:24.419Z</time></trkpt><trkpt lat="44.0051017" lon="11.318305"><ele>302.4</ele><time>2026-04-11T10:04:25.418Z</time></trkpt><trkpt lat="44.0051983" lon="11.3183"><ele>303.2</ele><time>2026-04-11T10:04:26.419Z</time></trkpt><trkpt lat="44.0052867" lon="11.3182733"><ele>304.0</ele><time>2026-04-11T10:04:27.419Z</time></trkpt><trkpt lat="44.0053667" lon="11.31822"><ele>304.0</ele><time>2026-04-11T10:04:28.419Z</time></trkpt><trkpt lat="44.005445" lon="11.3181467"><ele>304.0</ele><time>2026-04-11T10:04:29.419Z</time></trkpt><trkpt lat="44.0055267" lon="11.31805"><ele>304.0</ele><time>2026-04-11T10:04:30.418Z</time></trkpt><trkpt lat="44.005615" lon="11.31794"><ele>304.0</ele><time>2026-04-11T10:04:31.418Z</time></trkpt><trkpt lat="44.0057067" lon="11.31783"><ele>304.0</ele><time>2026-04-11T10:04:32.422Z</time></trkpt><trkpt lat="44.005795" lon="11.3177333"><ele>305.4</ele><time>2026-04-11T10:04:33.418Z</time></trkpt><trkpt lat="44.00589" lon="11.31765"><ele>306.79999999999995</ele><time>2026-04-11T10:04:34.418Z</time></trkpt><trkpt lat="44.0059833" lon="11.3175817"><ele>308.20000000000005</ele><time>2026-04-11T10:04:35.422Z</time></trkpt><trkpt lat="44.0060733" lon="11.3175217"><ele>309.6</ele><time>2026-04-11T10:04:36.418Z</time></trkpt><trkpt lat="44.006165" lon="11.3174717"><ele>311.0</ele><time>2026-04-11T10:04:37.419Z</time></trkpt><trkpt lat="44.0062533" lon="11.317435"><ele>311.0</ele><time>2026-04-11T10:04:38.421Z</time></trkpt><trkpt lat="44.0063433" lon="11.317405"><ele>311.0</ele><time>2026-04-11T10:04:39.42Z</time></trkpt><trkpt lat="44.0064383" lon="11.3173833"><ele>311.0</ele><time>2026-04-11T10:04:40.419Z</time></trkpt><trkpt lat="44.0065333" lon="11.3173933"><ele>311.0</ele><time>2026-04-11T10:04:41.417Z</time></trkpt><trkpt lat="44.0066267" lon="11.31742"><ele>311.0</ele><time>2026-04-11T10:04:42.419Z</time></trkpt><trkpt lat="44.0067167" lon="11.3174483"><ele>311.8</ele><time>2026-04-11T10:04:43.419Z</time></trkpt><trkpt lat="44.0068033" lon="11.31749"><ele>312.6</ele><time>2026-04-11T10:04:44.419Z</time></trkpt><trkpt lat="44.0068883" lon="11.3175467"><ele>313.4</ele><time>2026-04-11T10:04:45.418Z</time></trkpt><trkpt lat="44.0069683" lon="11.3176233"><ele>314.2</ele><time>2026-04-11T10:04:46.418Z</time></trkpt><trkpt lat="44.0070483" lon="11.3177133"><ele>315.0</ele><time>2026-04-11T10:04:47.423Z</time></trkpt><trkpt lat="44.00713" lon="11.31782"><ele>315.0</ele><time>2026-04-11T10:04:48.419Z</time></trkpt><trkpt lat="44.0072017" lon="11.317935"><ele>315.0</ele><time>2026-04-11T10:04:49.42Z</time></trkpt><trkpt lat="44.0072783" lon="11.3180583"><ele>315.0</ele><time>2026-04-11T10:04:50.419Z</time></trkpt><trkpt lat="44.0073583" lon="11.3181817"><ele>315.0</ele><time>2026-04-11T10:04:51.418Z</time></trkpt><trkpt lat="44.0074283" lon="11.3183"><ele>315.0</ele><time>2026-04-11T10:04:52.419Z</time></trkpt><trkpt lat="44.0075033" lon="11.318415"><ele>315.0</ele><time>2026-04-11T10:04:53.419Z</time></trkpt><trkpt lat="44.0075767" lon="11.3185283"><ele>315.0</ele><time>2026-04-11T10:04:54.419Z</time></trkpt><trkpt lat="44.0076567" lon="11.3186383"><ele>315.0</ele><time>2026-04-11T10:04:55.419Z</time></trkpt><trkpt lat="44.0077383" lon="11.3187433"><ele>315.0</ele><time>2026-04-11T10:04:56.422Z</time></trkpt><trkpt lat="44.0078167" lon="11.31884"><ele>315.0</ele><time>2026-04-11T10:04:57.417Z</time></trkpt><trkpt lat="44.0078967" lon="11.31893"><ele>315.0</ele><time>2026-04-11T10:04:58.418Z</time></trkpt><trkpt lat="44.0079717" lon="11.31901"><ele>315.0</ele><time>2026-04-11T10:04:59.42Z</time></trkpt><trkpt lat="44.0080467" lon="11.3190817"><ele>315.0</ele><time>2026-04-11T10:05:00.419Z</time></trkpt><trkpt lat="44.008125" lon="11.3191533"><ele>315.0</ele><time>2026-04-11T10:05:01.417Z</time></trkpt><trkpt lat="44.0082083" lon="11.319225"><ele>315.0</ele><time>2026-04-11T10:05:02.419Z</time></trkpt><trkpt lat="44.0082983" lon="11.3193"><ele>315.0</ele><time>2026-04-11T10:05:03.419Z</time></trkpt><trkpt lat="44.008385" lon="11.319375"><ele>315.0</ele><time>2026-04-11T10:05:04.418Z</time></trkpt><trkpt lat="44.0084733" lon="11.3194483"><ele>315.0</ele><time>2026-04-11T10:05:05.419Z</time></trkpt><trkpt lat="44.0085683" lon="11.319525"><ele>315.0</ele><time>2026-04-11T10:05:06.418Z</time></trkpt><trkpt lat="44.0086533" lon="11.3196017"><ele>315.0</ele><time>2026-04-11T10:05:07.42Z</time></trkpt><trkpt lat="44.0087483" lon="11.3196867"><ele>315.0</ele><time>2026-04-11T10:05:08.419Z</time></trkpt><trkpt lat="44.0088517" lon="11.3197783"><ele>315.0</ele><time>2026-04-11T10:05:09.418Z</time></trkpt><trkpt lat="44.0089667" lon="11.319875"><ele>315.0</ele><time>2026-04-11T10:05:10.418Z</time></trkpt><trkpt lat="44.00908" lon="11.3199717"><ele>315.5</ele><time>2026-04-11T10:05:11.421Z</time></trkpt><trkpt lat="44.009195" lon="11.320065"><ele>316.0</ele><time>2026-04-11T10:05:12.419Z</time></trkpt><trkpt lat="44.0093033" lon="11.32015"><ele>316.5</ele><time>2026-04-11T10:05:13.417Z</time></trkpt><trkpt lat="44.00941" lon="11.3202283"><ele>317.0</ele><time>2026-04-11T10:05:14.418Z</time></trkpt><trkpt lat="44.0095167" lon="11.3203033"><ele>317.0</ele><time>2026-04-11T10:05:15.421Z</time></trkpt><trkpt lat="44.0096167" lon="11.3203733"><ele>317.0</ele><time>2026-04-11T10:05:16.419Z</time></trkpt><trkpt lat="44.0097117" lon="11.3204433"><ele>317.0</ele><time>2026-04-11T10:05:17.421Z</time></trkpt><trkpt lat="44.009805" lon="11.32051"><ele>317.0</ele><time>2026-04-11T10:05:18.419Z</time></trkpt><trkpt lat="44.0099017" lon="11.32058"><ele>317.0</ele><time>2026-04-11T10:05:19.418Z</time></trkpt><trkpt lat="44.0100033" lon="11.32065"><ele>318.4</ele><time>2026-04-11T10:05:20.419Z</time></trkpt><trkpt lat="44.0101033" lon="11.32072"><ele>319.79999999999995</ele><time>2026-04-11T10:05:21.421Z</time></trkpt><trkpt lat="44.0101983" lon="11.3207867"><ele>321.2</ele><time>2026-04-11T10:05:22.419Z</time></trkpt><trkpt lat="44.0103" lon="11.3208583"><ele>322.59999999999997</ele><time>2026-04-11T10:05:23.419Z</time></trkpt><trkpt lat="44.0104" lon="11.3209317"><ele>324.0</ele><time>2026-04-11T10:05:24.419Z</time></trkpt><trkpt lat="44.0105017" lon="11.3209933"><ele>324.0</ele><time>2026-04-11T10:05:25.418Z</time></trkpt><trkpt lat="44.0106067" lon="11.3210383"><ele>324.0</ele><time>2026-04-11T10:05:26.423Z</time></trkpt><trkpt lat="44.0107183" lon="11.321075"><ele>324.0</ele><time>2026-04-11T10:05:27.418Z</time></trkpt><trkpt lat="44.01083" lon="11.3211067"><ele>324.0</ele><time>2026-04-11T10:05:28.418Z</time></trkpt><trkpt lat="44.0109417" lon="11.3211283"><ele>324.0</ele><time>2026-04-11T10:05:29.419Z</time></trkpt><trkpt lat="44.0110467" lon="11.3211433"><ele>324.0</ele><time>2026-04-11T10:05:30.418Z</time></trkpt><trkpt lat="44.0111567" lon="11.32115"><ele>324.0</ele><time>2026-04-11T10:05:31.419Z</time></trkpt><trkpt lat="44.0112717" lon="11.3211617"><ele>324.0</ele><time>2026-04-11T10:05:32.419Z</time></trkpt><trkpt lat="44.0113783" lon="11.3211717"><ele>324.0</ele><time>2026-04-11T10:05:33.418Z</time></trkpt><trkpt lat="44.0114883" lon="11.3211767"><ele>324.0</ele><time>2026-04-11T10:05:34.417Z</time></trkpt><trkpt lat="44.011605" lon="11.3211717"><ele>324.0</ele><time>2026-04-11T10:05:35.418Z</time></trkpt><trkpt lat="44.01172" lon="11.321165"><ele>324.0</ele><time>2026-04-11T10:05:36.417Z</time></trkpt><trkpt lat="44.011835" lon="11.3211583"><ele>324.0</ele><time>2026-04-11T10:05:37.418Z</time></trkpt><trkpt lat="44.0119467" lon="11.3211567"><ele>325.0</ele><time>2026-04-11T10:05:38.419Z</time></trkpt><trkpt lat="44.0120417" lon="11.3211667"><ele>326.0</ele><time>2026-04-11T10:05:39.418Z</time></trkpt><trkpt lat="44.0121317" lon="11.3211983"><ele>327.0</ele><time>2026-04-11T10:05:40.421Z</time></trkpt><trkpt lat="44.012225" lon="11.32126"><ele>328.0</ele><time>2026-04-11T10:05:41.419Z</time></trkpt><trkpt lat="44.0123233" lon="11.321345"><ele>329.0</ele><time>2026-04-11T10:05:42.419Z</time></trkpt><trkpt lat="44.01241" lon="11.3214317"><ele>330.4</ele><time>2026-04-11T10:05:43.417Z</time></trkpt><trkpt lat="44.0124933" lon="11.32151"><ele>331.79999999999995</ele><time>2026-04-11T10:05:44.42Z</time></trkpt><trkpt lat="44.01258" lon="11.3215833"><ele>333.20000000000005</ele><time>2026-04-11T10:05:45.418Z</time></trkpt><trkpt lat="44.0126667" lon="11.32165"><ele>334.6</ele><time>2026-04-11T10:05:46.418Z</time></trkpt><trkpt lat="44.012745" lon="11.3217217"><ele>336.0</ele><time>2026-04-11T10:05:47.418Z</time></trkpt><trkpt lat="44.0128117" lon="11.321795"><ele>336.0</ele><time>2026-04-11T10:05:48.417Z</time></trkpt><trkpt lat="44.0128667" lon="11.3218583"><ele>336.0</ele><time>2026-04-11T10:05:49.42Z</time></trkpt><trkpt lat="44.0129467" lon="11.32196"><ele>336.0</ele><time>2026-04-11T10:05:51.418Z</time></trkpt><trkpt lat="44.0129983" lon="11.32203"><ele>336.0</ele><time>2026-04-11T10:05:53.419Z</time></trkpt><trkpt lat="44.0130733" lon="11.322135"><ele>336.0</ele><time>2026-04-11T10:06:22.418Z</time></trkpt><trkpt lat="44.0130867" lon="11.322265"><ele>336.1666666666667</ele><time>2026-04-11T10:06:25.419Z</time></trkpt><trkpt lat="44.01305" lon="11.3223683"><ele>336.3333333333333</ele><time>2026-04-11T10:06:27.417Z</time></trkpt><trkpt lat="44.013015" lon="11.322465"><ele>336.5</ele><time>2026-04-11T10:06:29.42Z</time></trkpt><trkpt lat="44.01298" lon="11.322545"><ele>336.66666666666663</ele><time>2026-04-11T10:06:31.418Z</time></trkpt><trkpt lat="44.0129317" lon="11.32263"><ele>336.8333333333333</ele><time>2026-04-11T10:06:33.417Z</time></trkpt><trkpt lat="44.0128717" lon="11.3227233"><ele>337.0</ele><time>2026-04-11T10:06:35.419Z</time></trkpt><trkpt lat="44.0127983" lon="11.3228117"><ele>337.0</ele><time>2026-04-11T10:06:37.418Z</time></trkpt><trkpt lat="44.0127117" lon="11.3228783"><ele>337.0</ele><time>2026-04-11T10:06:39.418Z</time></trkpt><trkpt lat="44.01261" lon="11.3229267"><ele>337.0</ele><time>2026-04-11T10:06:41.418Z</time></trkpt><trkpt lat="44.0124933" lon="11.322965"><ele>337.0</ele><time>2026-04-11T10:06:43.418Z</time></trkpt><trkpt lat="44.012375" lon="11.323"><ele>337.0</ele><time>2026-04-11T10:06:45.417Z</time></trkpt><trkpt lat="44.0122667" lon="11.3230617"><ele>336.6</ele><time>2026-04-11T10:06:47.418Z</time></trkpt><trkpt lat="44.0121867" lon="11.3231533"><ele>336.20000000000005</ele><time>2026-04-11T10:06:49.418Z</time></trkpt><trkpt lat="44.0121467" lon="11.3232733"><ele>335.8</ele><time>2026-04-11T10:06:51.418Z</time></trkpt><trkpt lat="44.01211" lon="11.32344"><ele>335.4</ele><time>2026-04-11T10:06:53.418Z</time></trkpt><trkpt lat="44.0120867" lon="11.3235367"><ele>335.0</ele><time>2026-04-11T10:06:54.418Z</time></trkpt><trkpt lat="44.01206" lon="11.3236467"><ele>335.0</ele><time>2026-04-11T10:06:55.417Z</time></trkpt><trkpt lat="44.0120333" lon="11.3237633"><ele>335.0</ele><time>2026-04-11T10:06:56.419Z</time></trkpt><trkpt lat="44.0120067" lon="11.323885"><ele>335.0</ele><time>2026-04-11T10:06:57.417Z</time></trkpt><trkpt lat="44.011975" lon="11.324015"><ele>335.0</ele><time>2026-04-11T10:06:58.419Z</time></trkpt><trkpt lat="44.0119433" lon="11.324145"><ele>335.0</ele><time>2026-04-11T10:06:59.417Z</time></trkpt><trkpt lat="44.01191" lon="11.3242683"><ele>333.83333333333337</ele><time>2026-04-11T10:07:00.417Z</time></trkpt><trkpt lat="44.0118833" lon="11.324375"><ele>332.6666666666667</ele><time>2026-04-11T10:07:01.419Z</time></trkpt><trkpt lat="44.0118533" lon="11.3244733"><ele>331.5</ele><time>2026-04-11T10:07:02.419Z</time></trkpt><trkpt lat="44.011825" lon="11.32457"><ele>330.3333333333333</ele><time>2026-04-11T10:07:03.419Z</time></trkpt><trkpt lat="44.0117983" lon="11.3246717"><ele>329.16666666666663</ele><time>2026-04-11T10:07:04.417Z</time></trkpt><trkpt lat="44.011775" lon="11.324775"><ele>328.0</ele><time>2026-04-11T10:07:05.417Z</time></trkpt><trkpt lat="44.0117517" lon="11.3248733"><ele>327.16666666666663</ele><time>2026-04-11T10:07:06.419Z</time></trkpt><trkpt lat="44.0117267" lon="11.32497"><ele>326.3333333333333</ele><time>2026-04-11T10:07:07.418Z</time></trkpt><trkpt lat="44.011695" lon="11.3250667"><ele>325.5</ele><time>2026-04-11T10:07:08.418Z</time></trkpt><trkpt lat="44.0116617" lon="11.3251467"><ele>324.6666666666667</ele><time>2026-04-11T10:07:09.417Z</time></trkpt><trkpt lat="44.0116233" lon="11.3252233"><ele>323.83333333333337</ele><time>2026-04-11T10:07:10.426Z</time></trkpt><trkpt lat="44.011565" lon="11.32529"><ele>323.0</ele><time>2026-04-11T10:07:11.417Z</time></trkpt><trkpt lat="44.011485" lon="11.3253517"><ele>322.5</ele><time>2026-04-11T10:07:12.417Z</time></trkpt><trkpt lat="44.0113933" lon="11.325405"><ele>322.0</ele><time>2026-04-11T10:07:13.417Z</time></trkpt><trkpt lat="44.0112633" lon="11.3254433"><ele>321.5</ele><time>2026-04-11T10:07:14.417Z</time></trkpt><trkpt lat="44.0111283" lon="11.3254717"><ele>321.0</ele><time>2026-04-11T10:07:15.418Z</time></trkpt><trkpt lat="44.0109983" lon="11.3254933"><ele>321.0</ele><time>2026-04-11T10:07:16.419Z</time></trkpt><trkpt lat="44.0108867" lon="11.32552"><ele>321.0</ele><time>2026-04-11T10:07:17.418Z</time></trkpt><trkpt lat="44.01077" lon="11.3255433"><ele>321.0</ele><time>2026-04-11T10:07:18.418Z</time></trkpt><trkpt lat="44.0106633" lon="11.3255633"><ele>321.0</ele><time>2026-04-11T10:07:19.418Z</time></trkpt><trkpt lat="44.0105667" lon="11.3255867"><ele>321.0</ele><time>2026-04-11T10:07:20.418Z</time></trkpt><trkpt lat="44.0104783" lon="11.32561"><ele>321.1666666666667</ele><time>2026-04-11T10:07:21.422Z</time></trkpt><trkpt lat="44.010405" lon="11.3256283"><ele>321.3333333333333</ele><time>2026-04-11T10:07:22.419Z</time></trkpt><trkpt lat="44.0103417" lon="11.32565"><ele>321.5</ele><time>2026-04-11T10:07:23.417Z</time></trkpt><trkpt lat="44.0102667" lon="11.3257367"><ele>321.66666666666663</ele><time>2026-04-11T10:07:25.418Z</time></trkpt><trkpt lat="44.0102583" lon="11.3259"><ele>321.8333333333333</ele><time>2026-04-11T10:07:27.417Z</time></trkpt><trkpt lat="44.010275" lon="11.3260283"><ele>322.0</ele><time>2026-04-11T10:07:28.418Z</time></trkpt><trkpt lat="44.010305" lon="11.3261917"><ele>322.0</ele><time>2026-04-11T10:07:29.418Z</time></trkpt><trkpt lat="44.010335" lon="11.3263667"><ele>322.0</ele><time>2026-04-11T10:07:30.418Z</time></trkpt><trkpt lat="44.0103633" lon="11.3265483"><ele>322.0</ele><time>2026-04-11T10:07:31.419Z</time></trkpt><trkpt lat="44.0103983" lon="11.3267333"><ele>322.0</ele><time>2026-04-11T10:07:32.418Z</time></trkpt><trkpt lat="44.0104367" lon="11.3269083"><ele>321.6</ele><time>2026-04-11T10:07:33.419Z</time></trkpt><trkpt lat="44.0104733" lon="11.32707"><ele>321.20000000000005</ele><time>2026-04-11T10:07:34.417Z</time></trkpt><trkpt lat="44.0105033" lon="11.3272067"><ele>320.8</ele><time>2026-04-11T10:07:35.417Z</time></trkpt><trkpt lat="44.0105283" lon="11.3273333"><ele>320.4</ele><time>2026-04-11T10:07:36.417Z</time></trkpt><trkpt lat="44.01054" lon="11.3274433"><ele>320.0</ele><time>2026-04-11T10:07:37.419Z</time></trkpt><trkpt lat="44.0105383" lon="11.3275367"><ele>319.6666666666667</ele><time>2026-04-11T10:07:38.419Z</time></trkpt><trkpt lat="44.0105117" lon="11.3276317"><ele>319.33333333333337</ele><time>2026-04-11T10:07:39.418Z</time></trkpt><trkpt lat="44.0104683" lon="11.3277183"><ele>319.0</ele><time>2026-04-11T10:07:40.418Z</time></trkpt><trkpt lat="44.0104133" lon="11.3277917"><ele>318.6666666666667</ele><time>2026-04-11T10:07:41.419Z</time></trkpt><trkpt lat="44.01035" lon="11.32785"><ele>318.3333333333333</ele><time>2026-04-11T10:07:42.418Z</time></trkpt><trkpt lat="44.01024" lon="11.32784"><ele>318.0</ele><time>2026-04-11T10:07:44.42Z</time></trkpt><trkpt lat="44.0101617" lon="11.3278367"><ele>318.0</ele><time>2026-04-11T10:07:45.417Z</time></trkpt><trkpt lat="44.0100817" lon="11.3278667"><ele>318.0</ele><time>2026-04-11T10:07:46.418Z</time></trkpt><trkpt lat="44.0099917" lon="11.327905"><ele>318.0</ele><time>2026-04-11T10:07:47.418Z</time></trkpt><trkpt lat="44.0099" lon="11.32795"><ele>318.0</ele><time>2026-04-11T10:07:48.419Z</time></trkpt><trkpt lat="44.00981" lon="11.327985"><ele>318.0</ele><time>2026-04-11T10:07:49.419Z</time></trkpt><trkpt lat="44.0097217" lon="11.3280333"><ele>317.0</ele><time>2026-04-11T10:07:50.419Z</time></trkpt><trkpt lat="44.00963" lon="11.328075"><ele>316.0</ele><time>2026-04-11T10:07:51.419Z</time></trkpt><trkpt lat="44.0095183" lon="11.3280967"><ele>315.0</ele><time>2026-04-11T10:07:52.419Z</time></trkpt><trkpt lat="44.0093983" lon="11.3281133"><ele>314.0</ele><time>2026-04-11T10:07:53.418Z</time></trkpt><trkpt lat="44.009275" lon="11.3281317"><ele>313.25</ele><time>2026-04-11T10:07:54.419Z</time></trkpt><trkpt lat="44.009155" lon="11.3281617"><ele>312.5</ele><time>2026-04-11T10:07:55.419Z</time></trkpt><trkpt lat="44.0090283" lon="11.3281933"><ele>311.75</ele><time>2026-04-11T10:07:56.42Z</time></trkpt><trkpt lat="44.00891" lon="11.3282333"><ele>311.0</ele><time>2026-04-11T10:07:57.419Z</time></trkpt><trkpt lat="44.0087983" lon="11.32827"><ele>311.0</ele><time>2026-04-11T10:07:58.418Z</time></trkpt><trkpt lat="44.0086917" lon="11.3283"><ele>311.0</ele><time>2026-04-11T10:07:59.418Z</time></trkpt><trkpt lat="44.0085883" lon="11.328325"><ele>311.0</ele><time>2026-04-11T10:08:00.418Z</time></trkpt><trkpt lat="44.00848" lon="11.32833"><ele>311.0</ele><time>2026-04-11T10:08:01.418Z</time></trkpt><trkpt lat="44.0083833" lon="11.32834"><ele>311.0</ele><time>2026-04-11T10:08:02.417Z</time></trkpt><trkpt lat="44.0083033" lon="11.3283417"><ele>311.40000000000003</ele><time>2026-04-11T10:08:03.418Z</time></trkpt><trkpt lat="44.0082117" lon="11.3283617"><ele>311.8</ele><time>2026-04-11T10:08:05.417Z</time></trkpt><trkpt lat="44.0081467" lon="11.3283817"><ele>312.20000000000005</ele><time>2026-04-11T10:08:07.418Z</time></trkpt><trkpt lat="44.00807" lon="11.3283917"><ele>312.6</ele><time>2026-04-11T10:08:09.418Z</time></trkpt><trkpt lat="44.0079733" lon="11.3284233"><ele>313.0</ele><time>2026-04-11T10:08:11.418Z</time></trkpt><trkpt lat="44.0078517" lon="11.3284967"><ele>313.0</ele><time>2026-04-11T10:08:13.419Z</time></trkpt><trkpt lat="44.0077733" lon="11.328555"><ele>313.0</ele><time>2026-04-11T10:08:14.419Z</time></trkpt><trkpt lat="44.0076867" lon="11.3286117"><ele>313.0</ele><time>2026-04-11T10:08:15.42Z</time></trkpt><trkpt lat="44.0075917" lon="11.32866"><ele>313.0</ele><time>2026-04-11T10:08:16.419Z</time></trkpt><trkpt lat="44.007495" lon="11.328695"><ele>313.0</ele><time>2026-04-11T10:08:17.419Z</time></trkpt><trkpt lat="44.0073933" lon="11.3287117"><ele>311.4</ele><time>2026-04-11T10:08:18.419Z</time></trkpt><trkpt lat="44.0072917" lon="11.3287183"><ele>309.8</ele><time>2026-04-11T10:08:19.421Z</time></trkpt><trkpt lat="44.0071817" lon="11.32873"><ele>308.2</ele><time>2026-04-11T10:08:20.42Z</time></trkpt><trkpt lat="44.0070733" lon="11.328745"><ele>306.6</ele><time>2026-04-11T10:08:21.418Z</time></trkpt><trkpt lat="44.00697" lon="11.32876"><ele>305.0</ele><time>2026-04-11T10:08:22.42Z</time></trkpt><trkpt lat="44.0068633" lon="11.3287767"><ele>305.0</ele><time>2026-04-11T10:08:23.417Z</time></trkpt><trkpt lat="44.0067567" lon="11.3287867"><ele>305.0</ele><time>2026-04-11T10:08:24.418Z</time></trkpt><trkpt lat="44.006655" lon="11.32879"><ele>305.0</ele><time>2026-04-11T10:08:25.418Z</time></trkpt><trkpt lat="44.0065383" lon="11.3287933"><ele>305.0</ele><time>2026-04-11T10:08:26.42Z</time></trkpt><trkpt lat="44.0064267" lon="11.3288083"><ele>305.0</ele><time>2026-04-11T10:08:27.418Z</time></trkpt><trkpt lat="44.0063117" lon="11.3288333"><ele>304.5</ele><time>2026-04-11T10:08:28.419Z</time></trkpt><trkpt lat="44.0061967" lon="11.3288583"><ele>304.0</ele><time>2026-04-11T10:08:29.419Z</time></trkpt><trkpt lat="44.0060767" lon="11.328885"><ele>303.5</ele><time>2026-04-11T10:08:30.417Z</time></trkpt><trkpt lat="44.00596" lon="11.3289067"><ele>303.0</ele><time>2026-04-11T10:08:31.419Z</time></trkpt><trkpt lat="44.0058417" lon="11.328925"><ele>302.25</ele><time>2026-04-11T10:08:32.419Z</time></trkpt><trkpt lat="44.0057233" lon="11.3289433"><ele>301.5</ele><time>2026-04-11T10:08:33.419Z</time></trkpt><trkpt lat="44.0056033" lon="11.32896"><ele>300.75</ele><time>2026-04-11T10:08:34.418Z</time></trkpt><trkpt lat="44.0054817" lon="11.328975"><ele>300.0</ele><time>2026-04-11T10:08:35.418Z</time></trkpt><trkpt lat="44.0053533" lon="11.3289883"><ele>300.0</ele><time>2026-04-11T10:08:36.418Z</time></trkpt><trkpt lat="44.0052317" lon="11.3290067"><ele>300.0</ele><time>2026-04-11T10:08:37.418Z</time></trkpt><trkpt lat="44.005105" lon="11.329025"><ele>300.0</ele><time>2026-04-11T10:08:38.419Z</time></trkpt><trkpt lat="44.004975" lon="11.3290367"><ele>300.0</ele><time>2026-04-11T10:08:39.418Z</time></trkpt><trkpt lat="44.004845" lon="11.3290433"><ele>299.25</ele><time>2026-04-11T10:08:40.419Z</time></trkpt><trkpt lat="44.00471" lon="11.3290483"><ele>298.5</ele><time>2026-04-11T10:08:41.417Z</time></trkpt><trkpt lat="44.00458" lon="11.32905"><ele>297.75</ele><time>2026-04-11T10:08:42.419Z</time></trkpt><trkpt lat="44.0044467" lon="11.3290567"><ele>297.0</ele><time>2026-04-11T10:08:43.419Z</time></trkpt><trkpt lat="44.0043117" lon="11.3290683"><ele>297.0</ele><time>2026-04-11T10:08:44.417Z</time></trkpt><trkpt lat="44.004175" lon="11.3290833"><ele>297.0</ele><time>2026-04-11T10:08:45.418Z</time></trkpt><trkpt lat="44.0040367" lon="11.3290967"><ele>297.0</ele><time>2026-04-11T10:08:46.418Z</time></trkpt><trkpt lat="44.0039033" lon="11.32911"><ele>297.0</ele><time>2026-04-11T10:08:47.421Z</time></trkpt><trkpt lat="44.0037733" lon="11.3291217"><ele>296.25</ele><time>2026-04-11T10:08:48.419Z</time></trkpt><trkpt lat="44.0036467" lon="11.3291283"><ele>295.5</ele><time>2026-04-11T10:08:49.419Z</time></trkpt><trkpt lat="44.0035183" lon="11.32914"><ele>294.75</ele><time>2026-04-11T10:08:50.419Z</time></trkpt><trkpt lat="44.0033917" lon="11.3291583"><ele>294.0</ele><time>2026-04-11T10:08:51.417Z</time></trkpt><trkpt lat="44.0032667" lon="11.3291767"><ele>293.59999999999997</ele><time>2026-04-11T10:08:52.418Z</time></trkpt><trkpt lat="44.0031533" lon="11.3291967"><ele>293.2</ele><time>2026-04-11T10:08:53.419Z</time></trkpt><trkpt lat="44.0030517" lon="11.329215"><ele>292.79999999999995</ele><time>2026-04-11T10:08:54.42Z</time></trkpt><trkpt lat="44.0029517" lon="11.3292483"><ele>292.4</ele><time>2026-04-11T10:08:55.417Z</time></trkpt><trkpt lat="44.00286" lon="11.3292817"><ele>292.0</ele><time>2026-04-11T10:08:56.418Z</time></trkpt><trkpt lat="44.0027567" lon="11.3293067"><ele>292.0</ele><time>2026-04-11T10:08:57.417Z</time></trkpt><trkpt lat="44.0026333" lon="11.3293283"><ele>292.0</ele><time>2026-04-11T10:08:58.417Z</time></trkpt><trkpt lat="44.002505" lon="11.3293417"><ele>292.0</ele><time>2026-04-11T10:08:59.418Z</time></trkpt><trkpt lat="44.002375" lon="11.3293567"><ele>292.0</ele><time>2026-04-11T10:09:00.419Z</time></trkpt><trkpt lat="44.0022517" lon="11.32937"><ele>290.5</ele><time>2026-04-11T10:09:01.418Z</time></trkpt><trkpt lat="44.0021333" lon="11.3293817"><ele>289.0</ele><time>2026-04-11T10:09:02.419Z</time></trkpt><trkpt lat="44.0020183" lon="11.329395"><ele>287.5</ele><time>2026-04-11T10:09:03.418Z</time></trkpt><trkpt lat="44.00191" lon="11.3294083"><ele>286.0</ele><time>2026-04-11T10:09:04.417Z</time></trkpt><trkpt lat="44.0018033" lon="11.3294183"><ele>286.0</ele><time>2026-04-11T10:09:05.417Z</time></trkpt><trkpt lat="44.0016967" lon="11.3294283"><ele>286.0</ele><time>2026-04-11T10:09:06.417Z</time></trkpt><trkpt lat="44.00159" lon="11.32944"><ele>286.0</ele><time>2026-04-11T10:09:07.419Z</time></trkpt><trkpt lat="44.001485" lon="11.3294467"><ele>286.0</ele><time>2026-04-11T10:09:08.418Z</time></trkpt><trkpt lat="44.0013817" lon="11.3294567"><ele>286.0</ele><time>2026-04-11T10:09:09.418Z</time></trkpt><trkpt lat="44.0012767" lon="11.3294633"><ele>286.0</ele><time>2026-04-11T10:09:10.418Z</time></trkpt><trkpt lat="44.0011767" lon="11.3294583"><ele>286.0</ele><time>2026-04-11T10:09:11.418Z</time></trkpt><trkpt lat="44.0010833" lon="11.3294333"><ele>286.0</ele><time>2026-04-11T10:09:12.417Z</time></trkpt><trkpt lat="44.0009933" lon="11.3293883"><ele>286.0</ele><time>2026-04-11T10:09:13.422Z</time></trkpt><trkpt lat="44.0009017" lon="11.3293283"><ele>286.0</ele><time>2026-04-11T10:09:14.418Z</time></trkpt><trkpt lat="44.000805" lon="11.3292683"><ele>286.0</ele><time>2026-04-11T10:09:15.418Z</time></trkpt><trkpt lat="44.0006933" lon="11.329225"><ele>286.0</ele><time>2026-04-11T10:09:16.419Z</time></trkpt><trkpt lat="44.00057" lon="11.329195"><ele>286.0</ele><time>2026-04-11T10:09:17.417Z</time></trkpt><trkpt lat="44.0004433" lon="11.3291667"><ele>286.0</ele><time>2026-04-11T10:09:18.418Z</time></trkpt><trkpt lat="44.0003217" lon="11.3291383"><ele>286.0</ele><time>2026-04-11T10:09:19.417Z</time></trkpt><trkpt lat="44.0001983" lon="11.3291033"><ele>286.0</ele><time>2026-04-11T10:09:20.418Z</time></trkpt><trkpt lat="44.0000783" lon="11.32907"><ele>286.0</ele><time>2026-04-11T10:09:21.418Z</time></trkpt><trkpt lat="43.9999583" lon="11.329035"><ele>286.0</ele><time>2026-04-11T10:09:22.417Z</time></trkpt><trkpt lat="43.9998367" lon="11.3289983"><ele>286.0</ele><time>2026-04-11T10:09:23.417Z</time></trkpt><trkpt lat="43.9997117" lon="11.3289683"><ele>286.0</ele><time>2026-04-11T10:09:24.419Z</time></trkpt><trkpt lat="43.9995867" lon="11.3289367"><ele>286.0</ele><time>2026-04-11T10:09:25.418Z</time></trkpt><trkpt lat="43.9994633" lon="11.3289"><ele>286.0</ele><time>2026-04-11T10:09:26.42Z</time></trkpt><trkpt lat="43.9993433" lon="11.328865"><ele>284.5</ele><time>2026-04-11T10:09:27.417Z</time></trkpt><trkpt lat="43.99922" lon="11.32883"><ele>283.0</ele><time>2026-04-11T10:09:28.421Z</time></trkpt><trkpt lat="43.9990967" lon="11.3287933"><ele>281.5</ele><time>2026-04-11T10:09:29.418Z</time></trkpt><trkpt lat="43.9989717" lon="11.328755"><ele>280.0</ele><time>2026-04-11T10:09:30.417Z</time></trkpt><trkpt lat="43.9988467" lon="11.3287183"><ele>280.0</ele><time>2026-04-11T10:09:31.419Z</time></trkpt><trkpt lat="43.99872" lon="11.328685"><ele>280.0</ele><time>2026-04-11T10:09:32.42Z</time></trkpt><trkpt lat="43.998595" lon="11.328655"><ele>280.0</ele><time>2026-04-11T10:09:33.418Z</time></trkpt><trkpt lat="43.9984767" lon="11.3286317"><ele>280.0</ele><time>2026-04-11T10:09:34.418Z</time></trkpt><trkpt lat="43.9983633" lon="11.3286067"><ele>279.25</ele><time>2026-04-11T10:09:35.418Z</time></trkpt><trkpt lat="43.99825" lon="11.3285767"><ele>278.5</ele><time>2026-04-11T10:09:36.417Z</time></trkpt><trkpt lat="43.99813" lon="11.3285433"><ele>277.75</ele><time>2026-04-11T10:09:37.418Z</time></trkpt><trkpt lat="43.998015" lon="11.3285083"><ele>277.0</ele><time>2026-04-11T10:09:38.419Z</time></trkpt><trkpt lat="43.9979" lon="11.328475"><ele>277.0</ele><time>2026-04-11T10:09:39.418Z</time></trkpt><trkpt lat="43.9977933" lon="11.32845"><ele>277.0</ele><time>2026-04-11T10:09:40.418Z</time></trkpt><trkpt lat="43.9976867" lon="11.328425"><ele>277.0</ele><time>2026-04-11T10:09:41.418Z</time></trkpt><trkpt lat="43.9975883" lon="11.3284083"><ele>277.0</ele><time>2026-04-11T10:09:42.418Z</time></trkpt><trkpt lat="43.9974883" lon="11.3283933"><ele>277.0</ele><time>2026-04-11T10:09:43.418Z</time></trkpt><trkpt lat="43.99739" lon="11.328385"><ele>277.2</ele><time>2026-04-11T10:09:44.42Z</time></trkpt><trkpt lat="43.9972883" lon="11.3283767"><ele>277.4</ele><time>2026-04-11T10:09:45.417Z</time></trkpt><trkpt lat="43.9971867" lon="11.328365"><ele>277.6</ele><time>2026-04-11T10:09:46.418Z</time></trkpt><trkpt lat="43.9970783" lon="11.3283583"><ele>277.8</ele><time>2026-04-11T10:09:47.418Z</time></trkpt><trkpt lat="43.9969683" lon="11.3283517"><ele>278.0</ele><time>2026-04-11T10:09:48.42Z</time></trkpt><trkpt lat="43.9968617" lon="11.3283417"><ele>278.0</ele><time>2026-04-11T10:09:49.418Z</time></trkpt><trkpt lat="43.9967633" lon="11.3283433"><ele>278.0</ele><time>2026-04-11T10:09:50.418Z</time></trkpt><trkpt lat="43.9966717" lon="11.32835"><ele>278.0</ele><time>2026-04-11T10:09:51.418Z</time></trkpt><trkpt lat="43.9965867" lon="11.328355"><ele>278.0</ele><time>2026-04-11T10:09:52.418Z</time></trkpt><trkpt lat="43.9964983" lon="11.32836"><ele>278.0</ele><time>2026-04-11T10:09:53.417Z</time></trkpt><trkpt lat="43.996415" lon="11.3283883"><ele>278.0</ele><time>2026-04-11T10:09:54.417Z</time></trkpt><trkpt lat="43.9963283" lon="11.3284067"><ele>277.6666666666667</ele><time>2026-04-11T10:09:55.417Z</time></trkpt><trkpt lat="43.9962417" lon="11.328435"><ele>277.33333333333337</ele><time>2026-04-11T10:09:56.417Z</time></trkpt><trkpt lat="43.99616" lon="11.328495"><ele>277.0</ele><time>2026-04-11T10:09:57.417Z</time></trkpt><trkpt lat="43.9961217" lon="11.3285833"><ele>276.6666666666667</ele><time>2026-04-11T10:09:58.418Z</time></trkpt><trkpt lat="43.9960717" lon="11.3286633"><ele>276.3333333333333</ele><time>2026-04-11T10:09:59.417Z</time></trkpt><trkpt lat="43.9960383" lon="11.3287933"><ele>276.0</ele><time>2026-04-11T10:10:00.418Z</time></trkpt><trkpt lat="43.9959983" lon="11.32895"><ele>275.6</ele><time>2026-04-11T10:10:01.418Z</time></trkpt><trkpt lat="43.9959617" lon="11.3291083"><ele>275.20000000000005</ele><time>2026-04-11T10:10:02.419Z</time></trkpt><trkpt lat="43.995925" lon="11.32925"><ele>274.79999999999995</ele><time>2026-04-11T10:10:03.418Z</time></trkpt><trkpt lat="43.9958883" lon="11.32937"><ele>274.4</ele><time>2026-04-11T10:10:04.419Z</time></trkpt><trkpt lat="43.99586" lon="11.3294683"><ele>274.0</ele><time>2026-04-11T10:10:05.42Z</time></trkpt><trkpt lat="43.995835" lon="11.3295717"><ele>274.0</ele><time>2026-04-11T10:10:07.418Z</time></trkpt><trkpt lat="43.9958117" lon="11.3296683"><ele>274.0</ele><time>2026-04-11T10:10:10.42Z</time></trkpt><trkpt lat="43.9958217" lon="11.3297567"><ele>274.0</ele><time>2026-04-11T10:10:12.418Z</time></trkpt><trkpt lat="43.99585" lon="11.329835"><ele>274.0</ele><time>2026-04-11T10:10:13.418Z</time></trkpt><trkpt lat="43.9958867" lon="11.3299533"><ele>274.0</ele><time>2026-04-11T10:10:14.417Z</time></trkpt><trkpt lat="43.9959267" lon="11.3300883"><ele>274.0</ele><time>2026-04-11T10:10:15.418Z</time></trkpt><trkpt lat="43.9959617" lon="11.3302367"><ele>274.66666666666663</ele><time>2026-04-11T10:10:16.417Z</time></trkpt><trkpt lat="43.9959967" lon="11.3303567"><ele>275.3333333333333</ele><time>2026-04-11T10:10:17.419Z</time></trkpt><trkpt lat="43.9960367" lon="11.33046"><ele>276.0</ele><time>2026-04-11T10:10:18.418Z</time></trkpt><trkpt lat="43.9960783" lon="11.330555"><ele>276.6666666666667</ele><time>2026-04-11T10:10:19.417Z</time></trkpt><trkpt lat="43.9961233" lon="11.3306367"><ele>277.33333333333337</ele><time>2026-04-11T10:10:20.418Z</time></trkpt><trkpt lat="43.9961817" lon="11.3307017"><ele>278.0</ele><time>2026-04-11T10:10:21.418Z</time></trkpt><trkpt lat="43.9962517" lon="11.33075"><ele>278.0</ele><time>2026-04-11T10:10:22.418Z</time></trkpt><trkpt lat="43.9963317" lon="11.330785"><ele>278.0</ele><time>2026-04-11T10:10:23.417Z</time></trkpt><trkpt lat="43.99642" lon="11.3308217"><ele>278.0</ele><time>2026-04-11T10:10:24.424Z</time></trkpt><trkpt lat="43.9965117" lon="11.3308583"><ele>278.0</ele><time>2026-04-11T10:10:25.418Z</time></trkpt><trkpt lat="43.9965967" lon="11.3308967"><ele>278.0</ele><time>2026-04-11T10:10:26.417Z</time></trkpt><trkpt lat="43.996675" lon="11.3309333"><ele>278.0</ele><time>2026-04-11T10:10:27.418Z</time></trkpt><trkpt lat="43.996745" lon="11.3309733"><ele>278.6666666666667</ele><time>2026-04-11T10:10:28.417Z</time></trkpt><trkpt lat="43.9968117" lon="11.3310267"><ele>279.33333333333337</ele><time>2026-04-11T10:10:29.417Z</time></trkpt><trkpt lat="43.9968783" lon="11.3310967"><ele>280.0</ele><time>2026-04-11T10:10:30.416Z</time></trkpt><trkpt lat="43.996945" lon="11.3311817"><ele>280.6666666666667</ele><time>2026-04-11T10:10:31.419Z</time></trkpt><trkpt lat="43.997015" lon="11.33128"><ele>281.3333333333333</ele><time>2026-04-11T10:10:32.418Z</time></trkpt><trkpt lat="43.9970817" lon="11.3313817"><ele>282.0</ele><time>2026-04-11T10:10:33.418Z</time></trkpt><trkpt lat="43.9971433" lon="11.3314733"><ele>282.0</ele><time>2026-04-11T10:10:34.419Z</time></trkpt><trkpt lat="43.9972033" lon="11.3315533"><ele>282.0</ele><time>2026-04-11T10:10:35.418Z</time></trkpt><trkpt lat="43.9972667" lon="11.3316167"><ele>282.0</ele><time>2026-04-11T10:10:36.417Z</time></trkpt><trkpt lat="43.9973383" lon="11.3316733"><ele>282.0</ele><time>2026-04-11T10:10:37.418Z</time></trkpt><trkpt lat="43.997415" lon="11.3317267"><ele>282.0</ele><time>2026-04-11T10:10:38.419Z</time></trkpt><trkpt lat="43.9974933" lon="11.3317833"><ele>282.0</ele><time>2026-04-11T10:10:39.418Z</time></trkpt><trkpt lat="43.9975667" lon="11.3318417"><ele>281.8</ele><time>2026-04-11T10:10:40.418Z</time></trkpt><trkpt lat="43.9976367" lon="11.33191"><ele>281.6</ele><time>2026-04-11T10:10:41.42Z</time></trkpt><trkpt lat="43.9977083" lon="11.33199"><ele>281.40000000000003</ele><time>2026-04-11T10:10:42.418Z</time></trkpt><trkpt lat="43.99776" lon="11.3320983"><ele>281.2</ele><time>2026-04-11T10:10:43.42Z</time></trkpt><trkpt lat="43.9978067" lon="11.3322117"><ele>281.0</ele><time>2026-04-11T10:10:44.42Z</time></trkpt><trkpt lat="43.9978583" lon="11.3323167"><ele>281.0</ele><time>2026-04-11T10:10:45.419Z</time></trkpt><trkpt lat="43.997915" lon="11.3324133"><ele>281.0</ele><time>2026-04-11T10:10:46.418Z</time></trkpt><trkpt lat="43.9979817" lon="11.3324733"><ele>281.0</ele><time>2026-04-11T10:10:47.418Z</time></trkpt><trkpt lat="43.998055" lon="11.33254"><ele>281.0</ele><time>2026-04-11T10:10:48.419Z</time></trkpt><trkpt lat="43.9981267" lon="11.33261"><ele>281.0</ele><time>2026-04-11T10:10:49.419Z</time></trkpt><trkpt lat="43.9982083" lon="11.3326717"><ele>281.0</ele><time>2026-04-11T10:10:50.419Z</time></trkpt><trkpt lat="43.9982933" lon="11.3327183"><ele>281.8</ele><time>2026-04-11T10:10:51.419Z</time></trkpt><trkpt lat="43.998385" lon="11.332745"><ele>282.6</ele><time>2026-04-11T10:10:52.42Z</time></trkpt><trkpt lat="43.99849" lon="11.3327517"><ele>283.4</ele><time>2026-04-11T10:10:53.419Z</time></trkpt><trkpt lat="43.9986017" lon="11.33275"><ele>284.2</ele><time>2026-04-11T10:10:54.421Z</time></trkpt><trkpt lat="43.998705" lon="11.33274"><ele>285.0</ele><time>2026-04-11T10:10:55.418Z</time></trkpt><trkpt lat="43.9988033" lon="11.3327183"><ele>285.0</ele><time>2026-04-11T10:10:56.418Z</time></trkpt><trkpt lat="43.9989583" lon="11.3326933"><ele>285.0</ele><time>2026-04-11T10:10:58.418Z</time></trkpt><trkpt lat="43.99904" lon="11.3327083"><ele>285.0</ele><time>2026-04-11T10:10:59.418Z</time></trkpt><trkpt lat="43.9991383" lon="11.3327333"><ele>285.0</ele><time>2026-04-11T10:11:00.419Z</time></trkpt><trkpt lat="43.9992367" lon="11.3327733"><ele>285.0</ele><time>2026-04-11T10:11:01.418Z</time></trkpt><trkpt lat="43.9993267" lon="11.3328267"><ele>283.75</ele><time>2026-04-11T10:11:02.419Z</time></trkpt><trkpt lat="43.999425" lon="11.332885"><ele>282.5</ele><time>2026-04-11T10:11:03.421Z</time></trkpt><trkpt lat="43.9995267" lon="11.3329433"><ele>281.25</ele><time>2026-04-11T10:11:04.418Z</time></trkpt><trkpt lat="43.99963" lon="11.333015"><ele>280.0</ele><time>2026-04-11T10:11:05.42Z</time></trkpt><trkpt lat="43.999735" lon="11.3330883"><ele>280.0</ele><time>2026-04-11T10:11:06.418Z</time></trkpt><trkpt lat="43.9998367" lon="11.333155"><ele>280.0</ele><time>2026-04-11T10:11:07.419Z</time></trkpt><trkpt lat="43.99994" lon="11.3332233"><ele>280.0</ele><time>2026-04-11T10:11:08.419Z</time></trkpt><trkpt lat="44.0000283" lon="11.3333067"><ele>280.0</ele><time>2026-04-11T10:11:09.418Z</time></trkpt><trkpt lat="44.0000967" lon="11.333415"><ele>280.0</ele><time>2026-04-11T10:11:10.419Z</time></trkpt><trkpt lat="44.0001467" lon="11.333545"><ele>280.0</ele><time>2026-04-11T10:11:11.418Z</time></trkpt><trkpt lat="44.0001767" lon="11.3336767"><ele>280.0</ele><time>2026-04-11T10:11:12.418Z</time></trkpt><trkpt lat="44.00018" lon="11.3337917"><ele>280.0</ele><time>2026-04-11T10:11:13.418Z</time></trkpt><trkpt lat="44.000165" lon="11.3339133"><ele>280.0</ele><time>2026-04-11T10:11:14.42Z</time></trkpt><trkpt lat="44.0001217" lon="11.3340133"><ele>280.0</ele><time>2026-04-11T10:11:15.419Z</time></trkpt><trkpt lat="44.0000567" lon="11.3341383"><ele>278.66666666666663</ele><time>2026-04-11T10:11:16.418Z</time></trkpt><trkpt lat="43.999945" lon="11.3341783"><ele>277.3333333333333</ele><time>2026-04-11T10:11:17.42Z</time></trkpt><trkpt lat="43.9997567" lon="11.33421"><ele>276.0</ele><time>2026-04-11T10:11:18.419Z</time></trkpt><trkpt lat="43.99961" lon="11.33427"><ele>276.0</ele><time>2026-04-11T10:11:19.419Z</time></trkpt><trkpt lat="43.999465" lon="11.3343267"><ele>276.0</ele><time>2026-04-11T10:11:20.419Z</time></trkpt><trkpt lat="43.9993367" lon="11.3343583"><ele>276.0</ele><time>2026-04-11T10:11:21.419Z</time></trkpt><trkpt lat="43.9992017" lon="11.3343917"><ele>276.0</ele><time>2026-04-11T10:11:22.419Z</time></trkpt><trkpt lat="43.9990467" lon="11.334425"><ele>274.75</ele><time>2026-04-11T10:11:23.419Z</time></trkpt><trkpt lat="43.998895" lon="11.3344667"><ele>273.5</ele><time>2026-04-11T10:11:24.42Z</time></trkpt><trkpt lat="43.998745" lon="11.334505"><ele>272.25</ele><time>2026-04-11T10:11:25.419Z</time></trkpt><trkpt lat="43.9986067" lon="11.3345433"><ele>271.0</ele><time>2026-04-11T10:11:26.42Z</time></trkpt><trkpt lat="43.998485" lon="11.33458"><ele>271.0</ele><time>2026-04-11T10:11:27.419Z</time></trkpt><trkpt lat="43.9983767" lon="11.3346033"><ele>271.0</ele><time>2026-04-11T10:11:28.419Z</time></trkpt><trkpt lat="43.9982917" lon="11.3346417"><ele>271.0</ele><time>2026-04-11T10:11:29.419Z</time></trkpt><trkpt lat="43.9982167" lon="11.334685"><ele>271.0</ele><time>2026-04-11T10:11:30.418Z</time></trkpt><trkpt lat="43.998155" lon="11.33473"><ele>271.0</ele><time>2026-04-11T10:11:31.418Z</time></trkpt><trkpt lat="43.9981117" lon="11.3347967"><ele>271.0</ele><time>2026-04-11T10:11:32.419Z</time></trkpt><trkpt lat="43.998095" lon="11.3348817"><ele>272.5</ele><time>2026-04-11T10:11:33.418Z</time></trkpt><trkpt lat="43.9981167" lon="11.3350533"><ele>274.0</ele><time>2026-04-11T10:11:35.422Z</time></trkpt><trkpt lat="43.9981883" lon="11.3351483"><ele>275.5</ele><time>2026-04-11T10:11:36.418Z</time></trkpt><trkpt lat="43.9982717" lon="11.3352417"><ele>277.0</ele><time>2026-04-11T10:11:37.418Z</time></trkpt><trkpt lat="43.99841" lon="11.335315"><ele>278.0</ele><time>2026-04-11T10:11:38.419Z</time></trkpt><trkpt lat="43.99857" lon="11.33535"><ele>279.0</ele><time>2026-04-11T10:11:39.418Z</time></trkpt><trkpt lat="43.99868" lon="11.3353817"><ele>280.0</ele><time>2026-04-11T10:11:40.418Z</time></trkpt><trkpt lat="43.9987783" lon="11.3354117"><ele>281.0</ele><time>2026-04-11T10:11:41.423Z</time></trkpt><trkpt lat="43.99886" lon="11.335465"><ele>281.00000000000006</ele><time>2026-04-11T10:11:42.418Z</time></trkpt><trkpt lat="43.9989367" lon="11.335525"><ele>281.0</ele><time>2026-04-11T10:11:43.417Z</time></trkpt><trkpt lat="43.9990017" lon="11.3355783"><ele>281.0</ele><time>2026-04-11T10:11:44.419Z</time></trkpt><trkpt lat="43.9990683" lon="11.3356133"><ele>281.0</ele><time>2026-04-11T10:11:45.417Z</time></trkpt><trkpt lat="43.9991283" lon="11.3356617"><ele>281.0</ele><time>2026-04-11T10:11:46.417Z</time></trkpt><trkpt lat="43.9991817" lon="11.3357117"><ele>281.00000000000006</ele><time>2026-04-11T10:11:47.419Z</time></trkpt><trkpt lat="43.999235" lon="11.335785"><ele>281.0</ele><time>2026-04-11T10:11:48.419Z</time></trkpt><trkpt lat="43.9992783" lon="11.3358583"><ele>279.5</ele><time>2026-04-11T10:11:49.417Z</time></trkpt><trkpt lat="43.9993133" lon="11.3359317"><ele>278.0</ele><time>2026-04-11T10:11:50.418Z</time></trkpt><trkpt lat="43.9993483" lon="11.3360117"><ele>276.5</ele><time>2026-04-11T10:11:51.421Z</time></trkpt><trkpt lat="43.9993983" lon="11.336155"><ele>275.0</ele><time>2026-04-11T10:11:53.417Z</time></trkpt><trkpt lat="43.9994233" lon="11.3362467"><ele>273.5</ele><time>2026-04-11T10:11:55.417Z</time></trkpt><trkpt lat="43.9994967" lon="11.3362917"><ele>272.0</ele><time>2026-04-11T10:11:58.418Z</time></trkpt><trkpt lat="43.9995767" lon="11.3362667"><ele>272.0</ele><time>2026-04-11T10:12:00.418Z</time></trkpt><trkpt lat="43.9996983" lon="11.3362633"><ele>272.0</ele><time>2026-04-11T10:12:02.42Z</time></trkpt><trkpt lat="43.99977" lon="11.3362833"><ele>272.0</ele><time>2026-04-11T10:12:03.417Z</time></trkpt><trkpt lat="43.99984" lon="11.3362983"><ele>272.0</ele><time>2026-04-11T10:12:04.417Z</time></trkpt><trkpt lat="43.99991" lon="11.3363067"><ele>272.0</ele><time>2026-04-11T10:12:05.419Z</time></trkpt><trkpt lat="43.9999817" lon="11.3363233"><ele>272.0</ele><time>2026-04-11T10:12:06.417Z</time></trkpt><trkpt lat="44.0000667" lon="11.3363433"><ele>272.0</ele><time>2026-04-11T10:12:07.418Z</time></trkpt><trkpt lat="44.0001733" lon="11.3363583"><ele>272.0</ele><time>2026-04-11T10:12:08.419Z</time></trkpt><trkpt lat="44.0002917" lon="11.3363767"><ele>272.0</ele><time>2026-04-11T10:12:09.417Z</time></trkpt><trkpt lat="44.0003983" lon="11.3363917"><ele>272.0</ele><time>2026-04-11T10:12:10.417Z</time></trkpt><trkpt lat="44.0005033" lon="11.3364083"><ele>272.0</ele><time>2026-04-11T10:12:11.418Z</time></trkpt><trkpt lat="44.00061" lon="11.3364217"><ele>271.6</ele><time>2026-04-11T10:12:12.417Z</time></trkpt><trkpt lat="44.0007067" lon="11.33644"><ele>271.2</ele><time>2026-04-11T10:12:13.418Z</time></trkpt><trkpt lat="44.0008017" lon="11.3364533"><ele>270.8</ele><time>2026-04-11T10:12:14.418Z</time></trkpt><trkpt lat="44.0008933" lon="11.3364683"><ele>270.4</ele><time>2026-04-11T10:12:15.418Z</time></trkpt><trkpt lat="44.0009833" lon="11.3364783"><ele>270.0</ele><time>2026-04-11T10:12:16.417Z</time></trkpt><trkpt lat="44.0010783" lon="11.3364917"><ele>270.0</ele><time>2026-04-11T10:12:17.418Z</time></trkpt><trkpt lat="44.0011633" lon="11.3365067"><ele>270.0</ele><time>2026-04-11T10:12:18.42Z</time></trkpt><trkpt lat="44.00123" lon="11.3365283"><ele>270.0</ele><time>2026-04-11T10:12:19.419Z</time></trkpt><trkpt lat="44.0013267" lon="11.33656"><ele>270.0</ele><time>2026-04-11T10:12:21.418Z</time></trkpt><trkpt lat="44.0014317" lon="11.336535"><ele>270.0</ele><time>2026-04-11T10:12:23.419Z</time></trkpt><trkpt lat="44.0015267" lon="11.3364717"><ele>270.0</ele><time>2026-04-11T10:12:25.417Z</time></trkpt><trkpt lat="44.0016133" lon="11.3364333"><ele>270.0</ele><time>2026-04-11T10:12:27.418Z</time></trkpt><trkpt lat="44.001685" lon="11.3364217"><ele>270.0</ele><time>2026-04-11T10:12:29.419Z</time></trkpt><trkpt lat="44.0017383" lon="11.3364683"><ele>270.0</ele><time>2026-04-11T10:12:31.418Z</time></trkpt><trkpt lat="44.001805" lon="11.33657"><ele>270.0</ele><time>2026-04-11T10:12:33.417Z</time></trkpt><trkpt lat="44.0018733" lon="11.336705"><ele>270.0</ele><time>2026-04-11T10:12:35.418Z</time></trkpt><trkpt lat="44.0019333" lon="11.3367483"><ele>273.0</ele><time>2026-04-11T10:12:36.419Z</time></trkpt><trkpt lat="44.002005" lon="11.3368233"><ele>276.0</ele><time>2026-04-11T10:12:38.417Z</time></trkpt><trkpt lat="44.0021483" lon="11.3368567"><ele>279.0</ele><time>2026-04-11T10:12:40.417Z</time></trkpt><trkpt lat="44.0022267" lon="11.3368583"><ele>282.0</ele><time>2026-04-11T10:12:41.42Z</time></trkpt><trkpt lat="44.0023233" lon="11.336865"><ele>285.0</ele><time>2026-04-11T10:12:42.417Z</time></trkpt><trkpt lat="44.0024433" lon="11.3368717"><ele>285.8</ele><time>2026-04-11T10:12:43.418Z</time></trkpt><trkpt lat="44.00257" lon="11.336875"><ele>286.6</ele><time>2026-04-11T10:12:44.417Z</time></trkpt><trkpt lat="44.00267" lon="11.3368783"><ele>287.4</ele><time>2026-04-11T10:12:45.419Z</time></trkpt><trkpt lat="44.00276" lon="11.3368783"><ele>288.2</ele><time>2026-04-11T10:12:46.417Z</time></trkpt><trkpt lat="44.002845" lon="11.33688"><ele>289.0</ele><time>2026-04-11T10:12:47.418Z</time></trkpt><trkpt lat="44.00293" lon="11.33687"><ele>289.0</ele><time>2026-04-11T10:12:48.418Z</time></trkpt><trkpt lat="44.0030833" lon="11.3368217"><ele>289.0</ele><time>2026-04-11T10:12:50.417Z</time></trkpt><trkpt lat="44.003185" lon="11.3367917"><ele>289.0</ele><time>2026-04-11T10:12:51.418Z</time></trkpt><trkpt lat="44.0032717" lon="11.3367633"><ele>289.0</ele><time>2026-04-11T10:12:52.418Z</time></trkpt><trkpt lat="44.003375" lon="11.33674"><ele>289.0</ele><time>2026-04-11T10:12:53.418Z</time></trkpt><trkpt lat="44.003485" lon="11.3367067"><ele>289.0</ele><time>2026-04-11T10:12:54.419Z</time></trkpt><trkpt lat="44.0035933" lon="11.3366717"><ele>289.0</ele><time>2026-04-11T10:12:55.419Z</time></trkpt><trkpt lat="44.0037083" lon="11.336655"><ele>289.0</ele><time>2026-04-11T10:12:56.419Z</time></trkpt><trkpt lat="44.003815" lon="11.3366467"><ele>289.0</ele><time>2026-04-11T10:12:57.417Z</time></trkpt><trkpt lat="44.0038967" lon="11.3366517"><ele>289.0</ele><time>2026-04-11T10:12:58.417Z</time></trkpt><trkpt lat="44.0039767" lon="11.3366533"><ele>289.0</ele><time>2026-04-11T10:12:59.418Z</time></trkpt><trkpt lat="44.0040867" lon="11.3366583"><ele>289.0</ele><time>2026-04-11T10:13:01.417Z</time></trkpt><trkpt lat="44.0041717" lon="11.3366633"><ele>289.0</ele><time>2026-04-11T10:13:03.419Z</time></trkpt><trkpt lat="44.00425" lon="11.3366583"><ele>289.0</ele><time>2026-04-11T10:13:07.418Z</time></trkpt><trkpt lat="44.004325" lon="11.3366633"><ele>289.0</ele><time>2026-04-11T10:13:09.418Z</time></trkpt><trkpt lat="44.004415" lon="11.3366733"><ele>288.8</ele><time>2026-04-11T10:13:11.418Z</time></trkpt><trkpt lat="44.004525" lon="11.3366833"><ele>288.59999999999997</ele><time>2026-04-11T10:13:13.419Z</time></trkpt><trkpt lat="44.0046533" lon="11.33666"><ele>288.4</ele><time>2026-04-11T10:13:15.417Z</time></trkpt><trkpt lat="44.0047167" lon="11.3366183"><ele>288.2</ele><time>2026-04-11T10:13:16.418Z</time></trkpt><trkpt lat="44.0047683" lon="11.3365517"><ele>288.0</ele><time>2026-04-11T10:13:17.417Z</time></trkpt><trkpt lat="44.00483" lon="11.3364583"><ele>288.8</ele><time>2026-04-11T10:13:18.417Z</time></trkpt><trkpt lat="44.00489" lon="11.3363433"><ele>289.6</ele><time>2026-04-11T10:13:19.42Z</time></trkpt><trkpt lat="44.004945" lon="11.336225"><ele>290.4</ele><time>2026-04-11T10:13:20.419Z</time></trkpt><trkpt lat="44.005" lon="11.3361"><ele>291.2</ele><time>2026-04-11T10:13:21.418Z</time></trkpt><trkpt lat="44.0050533" lon="11.335965"><ele>292.0</ele><time>2026-04-11T10:13:22.418Z</time></trkpt><trkpt lat="44.005105" lon="11.3358183"><ele>292.0</ele><time>2026-04-11T10:13:23.42Z</time></trkpt><trkpt lat="44.0051583" lon="11.3356567"><ele>292.0</ele><time>2026-04-11T10:13:24.418Z</time></trkpt><trkpt lat="44.005215" lon="11.33548"><ele>292.0</ele><time>2026-04-11T10:13:25.417Z</time></trkpt><trkpt lat="44.00527" lon="11.3353033"><ele>292.0</ele><time>2026-04-11T10:13:26.42Z</time></trkpt><trkpt lat="44.0053183" lon="11.3351483"><ele>293.8</ele><time>2026-04-11T10:13:27.417Z</time></trkpt><trkpt lat="44.005355" lon="11.335"><ele>295.6</ele><time>2026-04-11T10:13:28.421Z</time></trkpt><trkpt lat="44.0053967" lon="11.334855"><ele>297.40000000000003</ele><time>2026-04-11T10:13:29.417Z</time></trkpt><trkpt lat="44.0054333" lon="11.334715"><ele>299.2</ele><time>2026-04-11T10:13:30.418Z</time></trkpt><trkpt lat="44.005455" lon="11.3345767"><ele>301.0</ele><time>2026-04-11T10:13:31.417Z</time></trkpt><trkpt lat="44.00548" lon="11.3344517"><ele>301.6</ele><time>2026-04-11T10:13:32.419Z</time></trkpt><trkpt lat="44.0055" lon="11.3343417"><ele>302.20000000000005</ele><time>2026-04-11T10:13:33.419Z</time></trkpt><trkpt lat="44.0055033" lon="11.3342467"><ele>302.79999999999995</ele><time>2026-04-11T10:13:34.419Z</time></trkpt><trkpt lat="44.0054467" lon="11.3340767"><ele>303.4</ele><time>2026-04-11T10:13:36.418Z</time></trkpt><trkpt lat="44.00539" lon="11.3339817"><ele>304.0</ele><time>2026-04-11T10:13:37.418Z</time></trkpt><trkpt lat="44.0053283" lon="11.3338717"><ele>302.2</ele><time>2026-04-11T10:13:38.418Z</time></trkpt><trkpt lat="44.0052667" lon="11.333745"><ele>300.4</ele><time>2026-04-11T10:13:39.417Z</time></trkpt><trkpt lat="44.0052017" lon="11.3336233"><ele>298.6</ele><time>2026-04-11T10:13:40.417Z</time></trkpt><trkpt lat="44.0051367" lon="11.333525"><ele>296.8</ele><time>2026-04-11T10:13:41.418Z</time></trkpt><trkpt lat="44.0050933" lon="11.33343"><ele>295.0</ele><time>2026-04-11T10:13:42.421Z</time></trkpt><trkpt lat="44.005055" lon="11.33335"><ele>295.0</ele><time>2026-04-11T10:13:43.417Z</time></trkpt><trkpt lat="44.0050483" lon="11.3332517"><ele>295.0</ele><time>2026-04-11T10:13:45.418Z</time></trkpt><trkpt lat="44.0051067" lon="11.333165"><ele>295.0</ele><time>2026-04-11T10:13:47.419Z</time></trkpt><trkpt lat="44.0052267" lon="11.3331417"><ele>295.0</ele><time>2026-04-11T10:13:48.417Z</time></trkpt><trkpt lat="44.0053467" lon="11.3331133"><ele>295.0</ele><time>2026-04-11T10:13:49.418Z</time></trkpt><trkpt lat="44.00549" lon="11.33309"><ele>295.0</ele><time>2026-04-11T10:13:50.418Z</time></trkpt><trkpt lat="44.0056267" lon="11.3330617"><ele>295.0</ele><time>2026-04-11T10:13:51.417Z</time></trkpt><trkpt lat="44.0057567" lon="11.3330233"><ele>295.0</ele><time>2026-04-11T10:13:52.418Z</time></trkpt><trkpt lat="44.0058983" lon="11.3329667"><ele>295.0</ele><time>2026-04-11T10:13:53.418Z</time></trkpt><trkpt lat="44.006035" lon="11.3329033"><ele>295.4</ele><time>2026-04-11T10:13:54.417Z</time></trkpt><trkpt lat="44.0061483" lon="11.332845"><ele>295.8</ele><time>2026-04-11T10:13:55.419Z</time></trkpt><trkpt lat="44.0062467" lon="11.3328033"><ele>296.2</ele><time>2026-04-11T10:13:56.419Z</time></trkpt><trkpt lat="44.00633" lon="11.3327883"><ele>296.6</ele><time>2026-04-11T10:13:57.417Z</time></trkpt><trkpt lat="44.00642" lon="11.33279"><ele>297.0</ele><time>2026-04-11T10:13:58.418Z</time></trkpt><trkpt lat="44.0065233" lon="11.332825"><ele>297.0</ele><time>2026-04-11T10:13:59.421Z</time></trkpt><trkpt lat="44.0066233" lon="11.332885"><ele>297.0</ele><time>2026-04-11T10:14:00.419Z</time></trkpt><trkpt lat="44.0067133" lon="11.3329183"><ele>297.0</ele><time>2026-04-11T10:14:01.418Z</time></trkpt><trkpt lat="44.0068067" lon="11.33292"><ele>297.0</ele><time>2026-04-11T10:14:02.419Z</time></trkpt><trkpt lat="44.0068983" lon="11.3328933"><ele>297.0</ele><time>2026-04-11T10:14:03.418Z</time></trkpt><trkpt lat="44.0069983" lon="11.3328483"><ele>299.0</ele><time>2026-04-11T10:14:04.418Z</time></trkpt><trkpt lat="44.0071317" lon="11.332795"><ele>301.0</ele><time>2026-04-11T10:14:05.418Z</time></trkpt><trkpt lat="44.0072617" lon="11.3327367"><ele>303.0</ele><time>2026-04-11T10:14:06.418Z</time></trkpt><trkpt lat="44.0073933" lon="11.3326833"><ele>305.0</ele><time>2026-04-11T10:14:07.418Z</time></trkpt><trkpt lat="44.00753" lon="11.332625"><ele>305.25</ele><time>2026-04-11T10:14:08.419Z</time></trkpt><trkpt lat="44.0076733" lon="11.3325767"><ele>305.5</ele><time>2026-04-11T10:14:09.418Z</time></trkpt><trkpt lat="44.0077967" lon="11.3325283"><ele>305.75</ele><time>2026-04-11T10:14:10.419Z</time></trkpt><trkpt lat="44.00792" lon="11.3324867"><ele>306.0</ele><time>2026-04-11T10:14:11.417Z</time></trkpt><trkpt lat="44.0080367" lon="11.3324433"><ele>306.0</ele><time>2026-04-11T10:14:12.417Z</time></trkpt><trkpt lat="44.008155" lon="11.332405"><ele>306.0</ele><time>2026-04-11T10:14:13.418Z</time></trkpt><trkpt lat="44.0082767" lon="11.3323633"><ele>306.0</ele><time>2026-04-11T10:14:14.419Z</time></trkpt><trkpt lat="44.008395" lon="11.3323183"><ele>306.0</ele><time>2026-04-11T10:14:15.418Z</time></trkpt><trkpt lat="44.008515" lon="11.332275"><ele>306.25</ele><time>2026-04-11T10:14:16.421Z</time></trkpt><trkpt lat="44.00863" lon="11.3322267"><ele>306.5</ele><time>2026-04-11T10:14:17.418Z</time></trkpt><trkpt lat="44.0087367" lon="11.3321767"><ele>306.75</ele><time>2026-04-11T10:14:18.417Z</time></trkpt><trkpt lat="44.0088433" lon="11.3321267"><ele>307.0</ele><time>2026-04-11T10:14:19.417Z</time></trkpt><trkpt lat="44.0089483" lon="11.3320783"><ele>307.6</ele><time>2026-04-11T10:14:20.417Z</time></trkpt><trkpt lat="44.0090517" lon="11.3320467"><ele>308.2</ele><time>2026-04-11T10:14:21.417Z</time></trkpt><trkpt lat="44.00916" lon="11.332025"><ele>308.8</ele><time>2026-04-11T10:14:22.416Z</time></trkpt><trkpt lat="44.00927" lon="11.3320117"><ele>309.4</ele><time>2026-04-11T10:14:23.418Z</time></trkpt><trkpt lat="44.0093733" lon="11.3319983"><ele>310.0</ele><time>2026-04-11T10:14:24.419Z</time></trkpt><trkpt lat="44.0094717" lon="11.3319783"><ele>311.0</ele><time>2026-04-11T10:14:25.418Z</time></trkpt><trkpt lat="44.009565" lon="11.3319433"><ele>312.0</ele><time>2026-04-11T10:14:26.419Z</time></trkpt><trkpt lat="44.0096617" lon="11.3319083"><ele>313.0</ele><time>2026-04-11T10:14:27.419Z</time></trkpt><trkpt lat="44.00975" lon="11.3318783"><ele>314.0</ele><time>2026-04-11T10:14:28.418Z</time></trkpt><trkpt lat="44.0098333" lon="11.3318517"><ele>315.0</ele><time>2026-04-11T10:14:29.419Z</time></trkpt><trkpt lat="44.00991" lon="11.3318417"><ele>315.0</ele><time>2026-04-11T10:14:30.419Z</time></trkpt><trkpt lat="44.009985" lon="11.3318417"><ele>315.0</ele><time>2026-04-11T10:14:31.419Z</time></trkpt><trkpt lat="44.01005" lon="11.33184"><ele>315.0</ele><time>2026-04-11T10:14:32.419Z</time></trkpt><trkpt lat="44.010155" lon="11.3318533"><ele>315.0</ele><time>2026-04-11T10:14:34.418Z</time></trkpt><trkpt lat="44.0102933" lon="11.33191"><ele>315.0</ele><time>2026-04-11T10:15:00.418Z</time></trkpt><trkpt lat="44.010375" lon="11.3318883"><ele>315.1666666666667</ele><time>2026-04-11T10:15:03.42Z</time></trkpt><trkpt lat="44.0104217" lon="11.3317833"><ele>315.3333333333333</ele><time>2026-04-11T10:15:05.418Z</time></trkpt><trkpt lat="44.0104567" lon="11.3316167"><ele>315.5</ele><time>2026-04-11T10:15:07.419Z</time></trkpt><trkpt lat="44.0104633" lon="11.33152"><ele>315.66666666666663</ele><time>2026-04-11T10:15:08.418Z</time></trkpt><trkpt lat="44.010465" lon="11.3314167"><ele>315.8333333333333</ele><time>2026-04-11T10:15:09.417Z</time></trkpt><trkpt lat="44.01046" lon="11.3313083"><ele>316.0</ele><time>2026-04-11T10:15:10.418Z</time></trkpt><trkpt lat="44.010445" lon="11.3312017"><ele>316.16666666666663</ele><time>2026-04-11T10:15:11.419Z</time></trkpt><trkpt lat="44.0104283" lon="11.3310983"><ele>316.3333333333333</ele><time>2026-04-11T10:15:12.418Z</time></trkpt><trkpt lat="44.0104067" lon="11.3310017"><ele>316.5</ele><time>2026-04-11T10:15:13.418Z</time></trkpt><trkpt lat="44.010385" lon="11.3309133"><ele>316.6666666666667</ele><time>2026-04-11T10:15:14.418Z</time></trkpt><trkpt lat="44.0103633" lon="11.33076"><ele>316.83333333333337</ele><time>2026-04-11T10:15:16.419Z</time></trkpt><trkpt lat="44.0103933" lon="11.330645"><ele>317.0</ele><time>2026-04-11T10:15:18.418Z</time></trkpt><trkpt lat="44.010465" lon="11.3305817"><ele>317.0</ele><time>2026-04-11T10:15:20.418Z</time></trkpt><trkpt lat="44.01056" lon="11.33058"><ele>317.0</ele><time>2026-04-11T10:15:22.417Z</time></trkpt><trkpt lat="44.0106817" lon="11.330585"><ele>317.0</ele><time>2026-04-11T10:15:24.421Z</time></trkpt><trkpt lat="44.010745" lon="11.3305867"><ele>317.0</ele><time>2026-04-11T10:15:25.418Z</time></trkpt><trkpt lat="44.01087" lon="11.3305833"><ele>317.0</ele><time>2026-04-11T10:15:27.419Z</time></trkpt><trkpt lat="44.01094" lon="11.3305833"><ele>317.0</ele><time>2026-04-11T10:15:28.419Z</time></trkpt><trkpt lat="44.0110133" lon="11.33058"><ele>317.0</ele><time>2026-04-11T10:15:29.419Z</time></trkpt><trkpt lat="44.0110917" lon="11.33058"><ele>317.0</ele><time>2026-04-11T10:15:30.422Z</time></trkpt><trkpt lat="44.0111733" lon="11.3305733"><ele>317.0</ele><time>2026-04-11T10:15:31.424Z</time></trkpt><trkpt lat="44.0112533" lon="11.3305717"><ele>317.0</ele><time>2026-04-11T10:15:32.419Z</time></trkpt><trkpt lat="44.0113383" lon="11.33057"><ele>317.0</ele><time>2026-04-11T10:15:33.418Z</time></trkpt><trkpt lat="44.0114267" lon="11.330565"><ele>317.0</ele><time>2026-04-11T10:15:34.419Z</time></trkpt><trkpt lat="44.0115183" lon="11.3305583"><ele>317.0</ele><time>2026-04-11T10:15:35.418Z</time></trkpt><trkpt lat="44.01161" lon="11.3305517"><ele>317.0</ele><time>2026-04-11T10:15:36.419Z</time></trkpt><trkpt lat="44.0116983" lon="11.3305433"><ele>317.0</ele><time>2026-04-11T10:15:37.42Z</time></trkpt><trkpt lat="44.0117833" lon="11.3305317"><ele>317.0</ele><time>2026-04-11T10:15:38.419Z</time></trkpt><trkpt lat="44.0118733" lon="11.3305233"><ele>317.0</ele><time>2026-04-11T10:15:39.417Z</time></trkpt><trkpt lat="44.0119617" lon="11.3305167"><ele>318.0</ele><time>2026-04-11T10:15:40.42Z</time></trkpt><trkpt lat="44.0120517" lon="11.33051"><ele>319.0</ele><time>2026-04-11T10:15:41.419Z</time></trkpt><trkpt lat="44.0121433" lon="11.3305"><ele>320.0</ele><time>2026-04-11T10:15:42.418Z</time></trkpt><trkpt lat="44.0122333" lon="11.33049"><ele>321.0</ele><time>2026-04-11T10:15:43.419Z</time></trkpt><trkpt lat="44.0123267" lon="11.33048"><ele>322.0</ele><time>2026-04-11T10:15:44.419Z</time></trkpt><trkpt lat="44.0124217" lon="11.3304733"><ele>322.0</ele><time>2026-04-11T10:15:45.417Z</time></trkpt><trkpt lat="44.0125167" lon="11.3304633"><ele>322.0</ele><time>2026-04-11T10:15:46.417Z</time></trkpt><trkpt lat="44.0126083" lon="11.3304533"><ele>322.0</ele><time>2026-04-11T10:15:47.417Z</time></trkpt><trkpt lat="44.012695" lon="11.3304483"><ele>322.0</ele><time>2026-04-11T10:15:48.418Z</time></trkpt><trkpt lat="44.0127783" lon="11.330455"><ele>322.0</ele><time>2026-04-11T10:15:49.418Z</time></trkpt><trkpt lat="44.0128617" lon="11.3304817"><ele>322.0</ele><time>2026-04-11T10:15:50.419Z</time></trkpt><trkpt lat="44.01294" lon="11.3305083"><ele>322.0</ele><time>2026-04-11T10:15:51.419Z</time></trkpt><trkpt lat="44.0130267" lon="11.33053"><ele>322.0</ele><time>2026-04-11T10:15:52.419Z</time></trkpt><trkpt lat="44.0131367" lon="11.3305317"><ele>322.0</ele><time>2026-04-11T10:15:53.419Z</time></trkpt><trkpt lat="44.0132583" lon="11.3305267"><ele>322.0</ele><time>2026-04-11T10:15:54.42Z</time></trkpt><trkpt lat="44.0133767" lon="11.33052"><ele>322.0</ele><time>2026-04-11T10:15:55.42Z</time></trkpt><trkpt lat="44.0134783" lon="11.3305267"><ele>322.16666666666663</ele><time>2026-04-11T10:15:56.418Z</time></trkpt><trkpt lat="44.01358" lon="11.3305567"><ele>322.3333333333333</ele><time>2026-04-11T10:15:57.42Z</time></trkpt><trkpt lat="44.0136733" lon="11.3306067"><ele>322.5</ele><time>2026-04-11T10:15:58.419Z</time></trkpt><trkpt lat="44.0137583" lon="11.330655"><ele>322.6666666666667</ele><time>2026-04-11T10:15:59.419Z</time></trkpt><trkpt lat="44.013835" lon="11.3306683"><ele>322.83333333333337</ele><time>2026-04-11T10:16:00.419Z</time></trkpt><trkpt lat="44.01391" lon="11.33065"><ele>323.0</ele><time>2026-04-11T10:16:01.418Z</time></trkpt><trkpt lat="44.0139867" lon="11.3305867"><ele>323.0</ele><time>2026-04-11T10:16:02.419Z</time></trkpt><trkpt lat="44.014055" lon="11.3304967"><ele>323.0</ele><time>2026-04-11T10:16:03.418Z</time></trkpt><trkpt lat="44.0141367" lon="11.33039"><ele>323.0</ele><time>2026-04-11T10:16:04.418Z</time></trkpt><trkpt lat="44.0142433" lon="11.3302733"><ele>323.0</ele><time>2026-04-11T10:16:05.418Z</time></trkpt><trkpt lat="44.01435" lon="11.3301567"><ele>322.75</ele><time>2026-04-11T10:16:06.42Z</time></trkpt><trkpt lat="44.01446" lon="11.3300267"><ele>322.5</ele><time>2026-04-11T10:16:07.422Z</time></trkpt><trkpt lat="44.0145783" lon="11.3298783"><ele>322.25</ele><time>2026-04-11T10:16:08.419Z</time></trkpt><trkpt lat="44.0146817" lon="11.3297533"><ele>322.0</ele><time>2026-04-11T10:16:09.418Z</time></trkpt><trkpt lat="44.0147767" lon="11.3296367"><ele>322.0</ele><time>2026-04-11T10:16:10.419Z</time></trkpt><trkpt lat="44.0148633" lon="11.329555"><ele>322.0</ele><time>2026-04-11T10:16:11.418Z</time></trkpt><trkpt lat="44.014945" lon="11.3295067"><ele>322.0</ele><time>2026-04-11T10:16:12.418Z</time></trkpt><trkpt lat="44.015025" lon="11.3294817"><ele>322.0</ele><time>2026-04-11T10:16:13.419Z</time></trkpt><trkpt lat="44.0150983" lon="11.3294733"><ele>322.0</ele><time>2026-04-11T10:16:14.419Z</time></trkpt><trkpt lat="44.01517" lon="11.3294817"><ele>322.0</ele><time>2026-04-11T10:16:15.419Z</time></trkpt><trkpt lat="44.015265" lon="11.3295267"><ele>322.40000000000003</ele><time>2026-04-11T10:16:17.418Z</time></trkpt><trkpt lat="44.01533" lon="11.329535"><ele>322.8</ele><time>2026-04-11T10:16:18.419Z</time></trkpt><trkpt lat="44.0153967" lon="11.3295383"><ele>323.2</ele><time>2026-04-11T10:16:19.419Z</time></trkpt><trkpt lat="44.0155133" lon="11.3295217"><ele>323.6</ele><time>2026-04-11T10:16:21.418Z</time></trkpt><trkpt lat="44.0156417" lon="11.3294633"><ele>324.0</ele><time>2026-04-11T10:16:23.419Z</time></trkpt><trkpt lat="44.015715" lon="11.3294317"><ele>324.0</ele><time>2026-04-11T10:16:24.421Z</time></trkpt><trkpt lat="44.0157983" lon="11.3293967"><ele>324.0</ele><time>2026-04-11T10:16:25.419Z</time></trkpt><trkpt lat="44.0158717" lon="11.3293667"><ele>324.0</ele><time>2026-04-11T10:16:26.418Z</time></trkpt><trkpt lat="44.01595" lon="11.3293467"><ele>324.0</ele><time>2026-04-11T10:16:27.417Z</time></trkpt><trkpt lat="44.016035" lon="11.3293333"><ele>324.0</ele><time>2026-04-11T10:16:28.418Z</time></trkpt><trkpt lat="44.01613" lon="11.32932"><ele>324.0</ele><time>2026-04-11T10:16:29.419Z</time></trkpt><trkpt lat="44.0162367" lon="11.3293083"><ele>324.79999999999995</ele><time>2026-04-11T10:16:30.418Z</time></trkpt><trkpt lat="44.0163583" lon="11.3292817"><ele>325.59999999999997</ele><time>2026-04-11T10:16:31.42Z</time></trkpt><trkpt lat="44.0164667" lon="11.3292667"><ele>326.4</ele><time>2026-04-11T10:16:32.419Z</time></trkpt><trkpt lat="44.01657" lon="11.3292533"><ele>327.2</ele><time>2026-04-11T10:16:33.417Z</time></trkpt><trkpt lat="44.01667" lon="11.329235"><ele>328.0</ele><time>2026-04-11T10:16:34.418Z</time></trkpt><trkpt lat="44.0167583" lon="11.329205"><ele>328.4</ele><time>2026-04-11T10:16:35.419Z</time></trkpt><trkpt lat="44.0168283" lon="11.32916"><ele>328.79999999999995</ele><time>2026-04-11T10:16:36.418Z</time></trkpt><trkpt lat="44.0169283" lon="11.3291033"><ele>329.2</ele><time>2026-04-11T10:16:37.418Z</time></trkpt><trkpt lat="44.01699" lon="11.32902"><ele>329.6</ele><time>2026-04-11T10:16:38.419Z</time></trkpt><trkpt lat="44.0170667" lon="11.3289217"><ele>330.0</ele><time>2026-04-11T10:16:39.419Z</time></trkpt><trkpt lat="44.0171333" lon="11.3287617"><ele>330.0</ele><time>2026-04-11T10:16:40.418Z</time></trkpt><trkpt lat="44.0171883" lon="11.328565"><ele>330.0</ele><time>2026-04-11T10:16:41.419Z</time></trkpt><trkpt lat="44.01724" lon="11.328395"><ele>330.0</ele><time>2026-04-11T10:16:42.419Z</time></trkpt><trkpt lat="44.017285" lon="11.328215"><ele>330.0</ele><time>2026-04-11T10:16:43.419Z</time></trkpt><trkpt lat="44.017325" lon="11.32805"><ele>330.0</ele><time>2026-04-11T10:16:44.419Z</time></trkpt><trkpt lat="44.0173617" lon="11.3279333"><ele>330.0</ele><time>2026-04-11T10:16:45.419Z</time></trkpt><trkpt lat="44.0173967" lon="11.327845"><ele>330.0</ele><time>2026-04-11T10:16:46.42Z</time></trkpt><trkpt lat="44.0174933" lon="11.3277533"><ele>330.0</ele><time>2026-04-11T10:16:48.419Z</time></trkpt><trkpt lat="44.0176517" lon="11.3278417"><ele>330.8</ele><time>2026-04-11T10:16:50.418Z</time></trkpt><trkpt lat="44.0177533" lon="11.32792"><ele>331.6</ele><time>2026-04-11T10:16:51.418Z</time></trkpt><trkpt lat="44.0178483" lon="11.3279933"><ele>332.4</ele><time>2026-04-11T10:16:52.418Z</time></trkpt><trkpt lat="44.01794" lon="11.32806"><ele>333.2</ele><time>2026-04-11T10:16:53.419Z</time></trkpt><trkpt lat="44.0180367" lon="11.3281217"><ele>334.0</ele><time>2026-04-11T10:16:54.418Z</time></trkpt><trkpt lat="44.0181417" lon="11.328185"><ele>334.75</ele><time>2026-04-11T10:16:55.418Z</time></trkpt><trkpt lat="44.0182517" lon="11.3282417"><ele>335.5</ele><time>2026-04-11T10:16:56.418Z</time></trkpt><trkpt lat="44.0183633" lon="11.32829"><ele>336.25</ele><time>2026-04-11T10:16:57.419Z</time></trkpt><trkpt lat="44.018475" lon="11.32833"><ele>337.0</ele><time>2026-04-11T10:16:58.417Z</time></trkpt><trkpt lat="44.01858" lon="11.3283633"><ele>337.3333333333333</ele><time>2026-04-11T10:16:59.418Z</time></trkpt><trkpt lat="44.0186717" lon="11.328385"><ele>337.66666666666663</ele><time>2026-04-11T10:17:00.418Z</time></trkpt><trkpt lat="44.0187533" lon="11.3284117"><ele>338.0</ele><time>2026-04-11T10:17:01.418Z</time></trkpt><trkpt lat="44.018835" lon="11.3284383"><ele>338.3333333333333</ele><time>2026-04-11T10:17:02.42Z</time></trkpt><trkpt lat="44.0189133" lon="11.328465"><ele>338.6666666666667</ele><time>2026-04-11T10:17:03.418Z</time></trkpt><trkpt lat="44.0189917" lon="11.3284817"><ele>339.0</ele><time>2026-04-11T10:17:04.418Z</time></trkpt><trkpt lat="44.0190667" lon="11.3285017"><ele>339.0</ele><time>2026-04-11T10:17:05.418Z</time></trkpt><trkpt lat="44.019145" lon="11.32853"><ele>339.0</ele><time>2026-04-11T10:17:06.418Z</time></trkpt><trkpt lat="44.0192133" lon="11.328565"><ele>339.0</ele><time>2026-04-11T10:17:07.418Z</time></trkpt><trkpt lat="44.0192817" lon="11.3286017"><ele>339.0</ele><time>2026-04-11T10:17:08.419Z</time></trkpt><trkpt lat="44.01935" lon="11.3286433"><ele>339.0</ele><time>2026-04-11T10:17:09.418Z</time></trkpt><trkpt lat="44.0194233" lon="11.3286883"><ele>339.0</ele><time>2026-04-11T10:17:10.418Z</time></trkpt><trkpt lat="44.0194933" lon="11.328725"><ele>339.3333333333333</ele><time>2026-04-11T10:17:11.419Z</time></trkpt><trkpt lat="44.0195617" lon="11.3287683"><ele>339.6666666666667</ele><time>2026-04-11T10:17:12.419Z</time></trkpt><trkpt lat="44.01962" lon="11.32881"><ele>340.0</ele><time>2026-04-11T10:17:13.419Z</time></trkpt><trkpt lat="44.019665" lon="11.32891"><ele>340.33333333333337</ele><time>2026-04-11T10:17:15.42Z</time></trkpt><trkpt lat="44.019655" lon="11.3290433"><ele>340.6666666666667</ele><time>2026-04-11T10:17:17.42Z</time></trkpt><trkpt lat="44.0196617" lon="11.329185"><ele>341.0</ele><time>2026-04-11T10:17:19.419Z</time></trkpt><trkpt lat="44.0196583" lon="11.3293283"><ele>341.0</ele><time>2026-04-11T10:17:21.419Z</time></trkpt><trkpt lat="44.01967" lon="11.329445"><ele>341.0</ele><time>2026-04-11T10:17:23.42Z</time></trkpt><trkpt lat="44.01971" lon="11.329575"><ele>341.0</ele><time>2026-04-11T10:18:28.42Z</time></trkpt><trkpt lat="44.0197417" lon="11.3296583"><ele>341.0</ele><time>2026-04-11T10:18:30.417Z</time></trkpt><trkpt lat="44.0197783" lon="11.329755"><ele>341.0</ele><time>2026-04-11T10:18:32.417Z</time></trkpt><trkpt lat="44.01982" lon="11.32986"><ele>341.0</ele><time>2026-04-11T10:18:34.419Z</time></trkpt><trkpt lat="44.0198467" lon="11.3299467"><ele>339.1666666666667</ele><time>2026-04-11T10:18:37.422Z</time></trkpt><trkpt lat="44.01988" lon="11.3300567"><ele>337.33333333333337</ele><time>2026-04-11T10:18:39.42Z</time></trkpt><trkpt lat="44.0198983" lon="11.330145"><ele>335.5</ele><time>2026-04-11T10:18:40.418Z</time></trkpt><trkpt lat="44.019915" lon="11.33025"><ele>333.6666666666667</ele><time>2026-04-11T10:18:41.419Z</time></trkpt><trkpt lat="44.0199383" lon="11.33036"><ele>331.8333333333333</ele><time>2026-04-11T10:18:42.417Z</time></trkpt><trkpt lat="44.01997" lon="11.3304817"><ele>330.0</ele><time>2026-04-11T10:18:43.417Z</time></trkpt><trkpt lat="44.0200033" lon="11.3306083"><ele>330.0</ele><time>2026-04-11T10:18:44.419Z</time></trkpt><trkpt lat="44.0200383" lon="11.3307383"><ele>330.0</ele><time>2026-04-11T10:18:45.417Z</time></trkpt><trkpt lat="44.0200767" lon="11.33088"><ele>330.0</ele><time>2026-04-11T10:18:46.418Z</time></trkpt><trkpt lat="44.02012" lon="11.3310533"><ele>330.0</ele><time>2026-04-11T10:18:47.417Z</time></trkpt><trkpt lat="44.0201667" lon="11.3312283"><ele>330.0</ele><time>2026-04-11T10:18:48.418Z</time></trkpt><trkpt lat="44.0202133" lon="11.3313883"><ele>330.0</ele><time>2026-04-11T10:18:49.419Z</time></trkpt><trkpt lat="44.0202567" lon="11.3315333"><ele>330.0</ele><time>2026-04-11T10:18:50.419Z</time></trkpt><trkpt lat="44.0202983" lon="11.33166"><ele>330.0</ele><time>2026-04-11T10:18:51.418Z</time></trkpt><trkpt lat="44.0203383" lon="11.3317717"><ele>330.0</ele><time>2026-04-11T10:18:52.417Z</time></trkpt><trkpt lat="44.0203767" lon="11.331865"><ele>328.6</ele><time>2026-04-11T10:18:53.419Z</time></trkpt><trkpt lat="44.0204117" lon="11.3319483"><ele>327.2</ele><time>2026-04-11T10:18:54.419Z</time></trkpt><trkpt lat="44.0204283" lon="11.332095"><ele>325.79999999999995</ele><time>2026-04-11T10:18:56.419Z</time></trkpt><trkpt lat="44.0203717" lon="11.33226"><ele>324.4</ele><time>2026-04-11T10:18:58.419Z</time></trkpt><trkpt lat="44.0203367" lon="11.33235"><ele>323.0</ele><time>2026-04-11T10:18:59.418Z</time></trkpt><trkpt lat="44.020315" lon="11.3324567"><ele>322.79999999999995</ele><time>2026-04-11T10:19:00.418Z</time></trkpt><trkpt lat="44.020305" lon="11.332575"><ele>322.6</ele><time>2026-04-11T10:19:01.418Z</time></trkpt><trkpt lat="44.0202967" lon="11.33272"><ele>322.4</ele><time>2026-04-11T10:19:02.418Z</time></trkpt><trkpt lat="44.0202767" lon="11.3328783"><ele>322.20000000000005</ele><time>2026-04-11T10:19:03.419Z</time></trkpt><trkpt lat="44.0202433" lon="11.3330517"><ele>322.0</ele><time>2026-04-11T10:19:04.419Z</time></trkpt><trkpt lat="44.0201817" lon="11.333215"><ele>323.0</ele><time>2026-04-11T10:19:05.42Z</time></trkpt><trkpt lat="44.02012" lon="11.333345"><ele>324.0</ele><time>2026-04-11T10:19:06.418Z</time></trkpt><trkpt lat="44.02007" lon="11.3334483"><ele>325.0</ele><time>2026-04-11T10:19:07.418Z</time></trkpt><trkpt lat="44.02003" lon="11.3335433"><ele>326.0</ele><time>2026-04-11T10:19:08.42Z</time></trkpt><trkpt lat="44.0200017" lon="11.3336217"><ele>327.0</ele><time>2026-04-11T10:19:09.417Z</time></trkpt><trkpt lat="44.01997" lon="11.3337667"><ele>327.0</ele><time>2026-04-11T10:19:11.419Z</time></trkpt><trkpt lat="44.0199533" lon="11.3338533"><ele>327.0</ele><time>2026-04-11T10:19:13.418Z</time></trkpt><trkpt lat="44.0199267" lon="11.3339633"><ele>327.0</ele><time>2026-04-11T10:19:17.419Z</time></trkpt><trkpt lat="44.0198967" lon="11.3340633"><ele>327.0</ele><time>2026-04-11T10:19:19.418Z</time></trkpt><trkpt lat="44.01987" lon="11.3341617"><ele>327.0</ele><time>2026-04-11T10:19:21.421Z</time></trkpt><trkpt lat="44.01988" lon="11.334275"><ele>327.0</ele><time>2026-04-11T10:19:23.419Z</time></trkpt><trkpt lat="44.0199633" lon="11.3343733"><ele>329.0</ele><time>2026-04-11T10:19:25.417Z</time></trkpt><trkpt lat="44.0200567" lon="11.3344217"><ele>331.0</ele><time>2026-04-11T10:19:26.419Z</time></trkpt><trkpt lat="44.020165" lon="11.3344783"><ele>333.0</ele><time>2026-04-11T10:19:27.42Z</time></trkpt><trkpt lat="44.0202667" lon="11.3345333"><ele>335.0</ele><time>2026-04-11T10:19:28.418Z</time></trkpt><trkpt lat="44.0203533" lon="11.3345833"><ele>337.0</ele><time>2026-04-11T10:19:29.418Z</time></trkpt><trkpt lat="44.0204217" lon="11.3346233"><ele>337.0</ele><time>2026-04-11T10:19:30.418Z</time></trkpt><trkpt lat="44.02049" lon="11.3346633"><ele>337.0</ele><time>2026-04-11T10:19:31.418Z</time></trkpt><trkpt lat="44.02056" lon="11.3347"><ele>337.0</ele><time>2026-04-11T10:19:32.418Z</time></trkpt><trkpt lat="44.020635" lon="11.3347367"><ele>337.0</ele><time>2026-04-11T10:19:33.419Z</time></trkpt><trkpt lat="44.0207033" lon="11.3347733"><ele>337.0</ele><time>2026-04-11T10:19:34.417Z</time></trkpt><trkpt lat="44.0208" lon="11.3348417"><ele>337.0</ele><time>2026-04-11T10:19:36.418Z</time></trkpt><trkpt lat="44.0208483" lon="11.3349267"><ele>344.0</ele><time>2026-04-11T10:19:38.418Z</time></trkpt><trkpt lat="44.020895" lon="11.3350083"><ele>344.0</ele><time>2026-04-11T10:19:41.42Z</time></trkpt><trkpt lat="44.0209667" lon="11.3351183"><ele>344.0</ele><time>2026-04-11T10:21:02.418Z</time></trkpt><trkpt lat="44.02104" lon="11.3351575"><ele>344.0</ele><time>2026-04-11T10:21:25.418Z</time></trkpt><trkpt lat="44.021185" lon="11.335085"><ele>344.0</ele><time>2026-04-11T10:27:20.419Z</time></trkpt></trkseg><trkseg><trkpt lat="44.0211928" lon="11.3351731"><ele>388.0</ele><time>2026-04-11T10:53:08.421Z</time></trkpt></trkseg><trkseg><trkpt lat="44.0210789" lon="11.3352785"><ele>344.00000000000006</ele><time>2026-04-11T11:12:46.832Z</time></trkpt><trkpt lat="44.0210622" lon="11.335194"><ele>344.0</ele><time>2026-04-11T11:12:48.012Z</time></trkpt><trkpt lat="44.0210716" lon="11.3350989"><ele>344.0</ele><time>2026-04-11T11:12:51.419Z</time></trkpt><trkpt lat="44.0211601" lon="11.3351222"><ele>344.0</ele><time>2026-04-11T11:13:09.423Z</time></trkpt><trkpt lat="44.0211072" lon="11.3351727"><ele>344.0</ele><time>2026-04-11T11:13:39.42Z</time></trkpt><trkpt lat="44.021044" lon="11.3351315"><ele>344.00000000000006</ele><time>2026-04-11T11:13:45.422Z</time></trkpt><trkpt lat="44.0209855" lon="11.3350975"><ele>344.0</ele><time>2026-04-11T11:13:51.422Z</time></trkpt><trkpt lat="44.0208798" lon="11.3350309"><ele>344.00000000000006</ele><time>2026-04-11T11:14:29.424Z</time></trkpt><trkpt lat="44.0209466" lon="11.3350582"><ele>344.0</ele><time>2026-04-11T11:16:56.423Z</time></trkpt><trkpt lat="44.0209306" lon="11.3351433"><ele>344.0</ele><time>2026-04-11T11:17:18.419Z</time></trkpt><trkpt lat="44.020985" lon="11.3350429"><ele>344.0</ele><time>2026-04-11T11:18:31.421Z</time></trkpt><trkpt lat="44.0209245" lon="11.3350795"><ele>344.0</ele><time>2026-04-11T11:19:06.422Z</time></trkpt><trkpt lat="44.0208727" lon="11.3350009"><ele>344.00000000000006</ele><time>2026-04-11T11:22:01.421Z</time></trkpt><trkpt lat="44.020941" lon="11.3350447"><ele>344.0</ele><time>2026-04-11T11:24:31.42Z</time></trkpt><trkpt lat="44.0211322" lon="11.3350716"><ele>344.0</ele><time>2026-04-11T11:25:20.423Z</time></trkpt><trkpt lat="44.02123" lon="11.33495"><ele>344.0</ele><time>2026-04-11T11:25:31.422Z</time></trkpt><trkpt lat="44.0212917" lon="11.33484"><ele>344.0</ele><time>2026-04-11T11:25:33.422Z</time></trkpt><trkpt lat="44.0213383" lon="11.3347033"><ele>344.0</ele><time>2026-04-11T11:25:35.42Z</time></trkpt><trkpt lat="44.0213683" lon="11.3345983"><ele>344.0</ele><time>2026-04-11T11:25:37.423Z</time></trkpt><trkpt lat="44.0213683" lon="11.3344867"><ele>343.0</ele><time>2026-04-11T11:25:39.423Z</time></trkpt><trkpt lat="44.0213533" lon="11.3343917"><ele>342.0</ele><time>2026-04-11T11:25:41.421Z</time></trkpt><trkpt lat="44.0213067" lon="11.334285"><ele>341.0</ele><time>2026-04-11T11:25:44.421Z</time></trkpt><trkpt lat="44.0212867" lon="11.3341933"><ele>340.0</ele><time>2026-04-11T11:25:46.422Z</time></trkpt><trkpt lat="44.0212917" lon="11.3340967"><ele>339.0</ele><time>2026-04-11T11:25:48.423Z</time></trkpt><trkpt lat="44.0213117" lon="11.33396"><ele>338.0</ele><time>2026-04-11T11:25:50.421Z</time></trkpt><trkpt lat="44.021305" lon="11.3338117"><ele>336.33333333333337</ele><time>2026-04-11T11:25:52.422Z</time></trkpt><trkpt lat="44.0213283" lon="11.3336617"><ele>334.6666666666667</ele><time>2026-04-11T11:25:54.421Z</time></trkpt><trkpt lat="44.021335" lon="11.3335667"><ele>333.0</ele><time>2026-04-11T11:25:55.422Z</time></trkpt><trkpt lat="44.021345" lon="11.3334767"><ele>331.3333333333333</ele><time>2026-04-11T11:25:56.421Z</time></trkpt><trkpt lat="44.021365" lon="11.33339"><ele>329.66666666666663</ele><time>2026-04-11T11:25:57.422Z</time></trkpt><trkpt lat="44.0213733" lon="11.3333017"><ele>328.0</ele><time>2026-04-11T11:25:58.423Z</time></trkpt><trkpt lat="44.0213883" lon="11.3331517"><ele>327.79999999999995</ele><time>2026-04-11T11:26:00.42Z</time></trkpt><trkpt lat="44.0213617" lon="11.3330033"><ele>327.6</ele><time>2026-04-11T11:26:02.421Z</time></trkpt><trkpt lat="44.0213183" lon="11.3328983"><ele>327.4</ele><time>2026-04-11T11:26:04.421Z</time></trkpt><trkpt lat="44.0212133" lon="11.3328117"><ele>327.20000000000005</ele><time>2026-04-11T11:26:06.422Z</time></trkpt><trkpt lat="44.02115" lon="11.3327617"><ele>327.0</ele><time>2026-04-11T11:26:07.422Z</time></trkpt><trkpt lat="44.0210833" lon="11.3326983"><ele>327.0</ele><time>2026-04-11T11:26:08.423Z</time></trkpt><trkpt lat="44.0210233" lon="11.3326333"><ele>327.0</ele><time>2026-04-11T11:26:09.423Z</time></trkpt><trkpt lat="44.0209583" lon="11.3325567"><ele>327.0</ele><time>2026-04-11T11:26:10.42Z</time></trkpt><trkpt lat="44.0208917" lon="11.3324783"><ele>327.0</ele><time>2026-04-11T11:26:11.422Z</time></trkpt><trkpt lat="44.0208383" lon="11.33242"><ele>327.0</ele><time>2026-04-11T11:26:12.421Z</time></trkpt><trkpt lat="44.0207633" lon="11.3323217"><ele>327.0</ele><time>2026-04-11T11:26:14.42Z</time></trkpt><trkpt lat="44.02071" lon="11.332275"><ele>326.20000000000005</ele><time>2026-04-11T11:26:16.422Z</time></trkpt><trkpt lat="44.0206083" lon="11.3322267"><ele>325.4</ele><time>2026-04-11T11:26:45.42Z</time></trkpt><trkpt lat="44.020525" lon="11.3321733"><ele>324.6</ele><time>2026-04-11T11:26:48.419Z</time></trkpt><trkpt lat="44.0204733" lon="11.3321133"><ele>323.79999999999995</ele><time>2026-04-11T11:26:50.423Z</time></trkpt><trkpt lat="44.0204233" lon="11.332015"><ele>323.0</ele><time>2026-04-11T11:26:52.419Z</time></trkpt><trkpt lat="44.0203533" lon="11.3318467"><ele>323.0</ele><time>2026-04-11T11:26:54.421Z</time></trkpt><trkpt lat="44.0203167" lon="11.3317383"><ele>323.0</ele><time>2026-04-11T11:26:55.42Z</time></trkpt><trkpt lat="44.0202783" lon="11.3316183"><ele>323.0</ele><time>2026-04-11T11:26:56.421Z</time></trkpt><trkpt lat="44.0202433" lon="11.3314983"><ele>323.0</ele><time>2026-04-11T11:26:57.42Z</time></trkpt><trkpt lat="44.02021" lon="11.3313733"><ele>323.0</ele><time>2026-04-11T11:26:58.418Z</time></trkpt><trkpt lat="44.0201733" lon="11.3312483"><ele>324.4</ele><time>2026-04-11T11:26:59.421Z</time></trkpt><trkpt lat="44.02014" lon="11.3311217"><ele>325.79999999999995</ele><time>2026-04-11T11:27:00.42Z</time></trkpt><trkpt lat="44.0201067" lon="11.3309983"><ele>327.2</ele><time>2026-04-11T11:27:01.422Z</time></trkpt><trkpt lat="44.020075" lon="11.33088"><ele>328.6</ele><time>2026-04-11T11:27:02.422Z</time></trkpt><trkpt lat="44.0200467" lon="11.330765"><ele>330.0</ele><time>2026-04-11T11:27:03.419Z</time></trkpt><trkpt lat="44.0200167" lon="11.330645"><ele>330.0</ele><time>2026-04-11T11:27:04.422Z</time></trkpt><trkpt lat="44.0199833" lon="11.3305217"><ele>330.0</ele><time>2026-04-11T11:27:05.421Z</time></trkpt><trkpt lat="44.0199533" lon="11.330395"><ele>330.0</ele><time>2026-04-11T11:27:06.421Z</time></trkpt><trkpt lat="44.0199267" lon="11.330275"><ele>330.0</ele><time>2026-04-11T11:27:07.42Z</time></trkpt><trkpt lat="44.0199117" lon="11.330165"><ele>330.0</ele><time>2026-04-11T11:27:08.42Z</time></trkpt><trkpt lat="44.0199117" lon="11.3300583"><ele>330.0</ele><time>2026-04-11T11:27:09.421Z</time></trkpt><trkpt lat="44.019935" lon="11.32996"><ele>330.0</ele><time>2026-04-11T11:27:10.421Z</time></trkpt><trkpt lat="44.0199767" lon="11.3298933"><ele>330.0</ele><time>2026-04-11T11:27:11.422Z</time></trkpt><trkpt lat="44.02005" lon="11.3298567"><ele>330.0</ele><time>2026-04-11T11:27:12.42Z</time></trkpt><trkpt lat="44.0201483" lon="11.3298333"><ele>330.0</ele><time>2026-04-11T11:27:13.419Z</time></trkpt><trkpt lat="44.020275" lon="11.3298267"><ele>330.0</ele><time>2026-04-11T11:27:14.42Z</time></trkpt><trkpt lat="44.020385" lon="11.3298183"><ele>332.0</ele><time>2026-04-11T11:27:15.422Z</time></trkpt><trkpt lat="44.0204933" lon="11.3298017"><ele>334.0</ele><time>2026-04-11T11:27:16.42Z</time></trkpt><trkpt lat="44.0205933" lon="11.3297667"><ele>336.0</ele><time>2026-04-11T11:27:17.422Z</time></trkpt><trkpt lat="44.0206867" lon="11.3297067"><ele>338.0</ele><time>2026-04-11T11:27:18.422Z</time></trkpt><trkpt lat="44.020775" lon="11.3296117"><ele>340.0</ele><time>2026-04-11T11:27:19.422Z</time></trkpt><trkpt lat="44.020865" lon="11.32948"><ele>342.5</ele><time>2026-04-11T11:27:20.422Z</time></trkpt><trkpt lat="44.0209433" lon="11.32933"><ele>345.0</ele><time>2026-04-11T11:27:21.422Z</time></trkpt><trkpt lat="44.02101" lon="11.329165"><ele>347.5</ele><time>2026-04-11T11:27:22.422Z</time></trkpt><trkpt lat="44.02107" lon="11.32899"><ele>350.0</ele><time>2026-04-11T11:27:23.421Z</time></trkpt><trkpt lat="44.0211183" lon="11.3288183"><ele>350.0</ele><time>2026-04-11T11:27:24.422Z</time></trkpt><trkpt lat="44.0211583" lon="11.3286583"><ele>350.0</ele><time>2026-04-11T11:27:25.421Z</time></trkpt><trkpt lat="44.021185" lon="11.3285233"><ele>350.0</ele><time>2026-04-11T11:27:26.421Z</time></trkpt><trkpt lat="44.021205" lon="11.32841"><ele>350.0</ele><time>2026-04-11T11:27:27.42Z</time></trkpt><trkpt lat="44.02123" lon="11.3283133"><ele>350.0</ele><time>2026-04-11T11:27:28.422Z</time></trkpt><trkpt lat="44.0212633" lon="11.32823"><ele>350.0</ele><time>2026-04-11T11:27:29.421Z</time></trkpt><trkpt lat="44.0213083" lon="11.3281533"><ele>350.0</ele><time>2026-04-11T11:27:30.42Z</time></trkpt><trkpt lat="44.0213517" lon="11.3280767"><ele>350.0</ele><time>2026-04-11T11:27:31.419Z</time></trkpt><trkpt lat="44.021405" lon="11.3280117"><ele>350.0</ele><time>2026-04-11T11:27:32.422Z</time></trkpt><trkpt lat="44.0214717" lon="11.32797"><ele>350.0</ele><time>2026-04-11T11:27:33.42Z</time></trkpt><trkpt lat="44.02154" lon="11.3279567"><ele>350.0</ele><time>2026-04-11T11:27:34.421Z</time></trkpt><trkpt lat="44.0216117" lon="11.3279733"><ele>350.0</ele><time>2026-04-11T11:27:35.422Z</time></trkpt><trkpt lat="44.0216983" lon="11.3280333"><ele>350.6666666666667</ele><time>2026-04-11T11:27:36.421Z</time></trkpt><trkpt lat="44.0217833" lon="11.328095"><ele>351.33333333333337</ele><time>2026-04-11T11:27:37.42Z</time></trkpt><trkpt lat="44.02186" lon="11.32813"><ele>352.0</ele><time>2026-04-11T11:27:38.421Z</time></trkpt><trkpt lat="44.0219317" lon="11.32814"><ele>352.6666666666667</ele><time>2026-04-11T11:27:39.421Z</time></trkpt><trkpt lat="44.0220033" lon="11.3281267"><ele>353.3333333333333</ele><time>2026-04-11T11:27:40.422Z</time></trkpt><trkpt lat="44.0220817" lon="11.328085"><ele>354.0</ele><time>2026-04-11T11:27:41.422Z</time></trkpt><trkpt lat="44.0221583" lon="11.3280267"><ele>354.0</ele><time>2026-04-11T11:27:42.421Z</time></trkpt><trkpt lat="44.0222433" lon="11.327955"><ele>354.0</ele><time>2026-04-11T11:27:43.422Z</time></trkpt><trkpt lat="44.0223233" lon="11.3279"><ele>354.0</ele><time>2026-04-11T11:27:44.422Z</time></trkpt><trkpt lat="44.0224" lon="11.32785"><ele>354.0</ele><time>2026-04-11T11:27:45.42Z</time></trkpt><trkpt lat="44.0224817" lon="11.3278083"><ele>354.0</ele><time>2026-04-11T11:27:46.422Z</time></trkpt><trkpt lat="44.0225667" lon="11.327775"><ele>354.0</ele><time>2026-04-11T11:27:47.421Z</time></trkpt><trkpt lat="44.0226517" lon="11.32775"><ele>355.1666666666667</ele><time>2026-04-11T11:27:48.421Z</time></trkpt><trkpt lat="44.02275" lon="11.327745"><ele>356.3333333333333</ele><time>2026-04-11T11:27:49.422Z</time></trkpt><trkpt lat="44.0228433" lon="11.3277383"><ele>357.5</ele><time>2026-04-11T11:27:50.42Z</time></trkpt><trkpt lat="44.022925" lon="11.32771"><ele>358.66666666666663</ele><time>2026-04-11T11:27:51.421Z</time></trkpt><trkpt lat="44.0229817" lon="11.32766"><ele>359.8333333333333</ele><time>2026-04-11T11:27:52.422Z</time></trkpt><trkpt lat="44.023025" lon="11.3275767"><ele>361.0</ele><time>2026-04-11T11:27:53.421Z</time></trkpt><trkpt lat="44.0230433" lon="11.327445"><ele>361.0</ele><time>2026-04-11T11:27:54.423Z</time></trkpt><trkpt lat="44.0230617" lon="11.3273117"><ele>361.0</ele><time>2026-04-11T11:27:55.421Z</time></trkpt><trkpt lat="44.0230833" lon="11.3271817"><ele>361.0</ele><time>2026-04-11T11:27:56.421Z</time></trkpt><trkpt lat="44.0231117" lon="11.3270483"><ele>361.0</ele><time>2026-04-11T11:27:57.422Z</time></trkpt><trkpt lat="44.0231533" lon="11.3269283"><ele>361.0</ele><time>2026-04-11T11:27:58.42Z</time></trkpt><trkpt lat="44.0232017" lon="11.3267967"><ele>360.6</ele><time>2026-04-11T11:27:59.421Z</time></trkpt><trkpt lat="44.02325" lon="11.32666"><ele>360.20000000000005</ele><time>2026-04-11T11:28:00.419Z</time></trkpt><trkpt lat="44.0233017" lon="11.3265317"><ele>359.79999999999995</ele><time>2026-04-11T11:28:01.421Z</time></trkpt><trkpt lat="44.0233567" lon="11.326405"><ele>359.4</ele><time>2026-04-11T11:28:02.423Z</time></trkpt><trkpt lat="44.0234117" lon="11.3262783"><ele>359.0</ele><time>2026-04-11T11:28:03.42Z</time></trkpt><trkpt lat="44.0234633" lon="11.3261583"><ele>362.4</ele><time>2026-04-11T11:28:04.421Z</time></trkpt><trkpt lat="44.0235083" lon="11.32604"><ele>365.79999999999995</ele><time>2026-04-11T11:28:05.421Z</time></trkpt><trkpt lat="44.0235517" lon="11.3259333"><ele>369.20000000000005</ele><time>2026-04-11T11:28:06.421Z</time></trkpt><trkpt lat="44.0235983" lon="11.325825"><ele>372.6</ele><time>2026-04-11T11:28:07.422Z</time></trkpt><trkpt lat="44.0236467" lon="11.3257033"><ele>376.0</ele><time>2026-04-11T11:28:08.423Z</time></trkpt><trkpt lat="44.0237" lon="11.3255667"><ele>376.6</ele><time>2026-04-11T11:28:09.421Z</time></trkpt><trkpt lat="44.0237567" lon="11.32544"><ele>377.20000000000005</ele><time>2026-04-11T11:28:10.421Z</time></trkpt><trkpt lat="44.0238133" lon="11.3253117"><ele>377.79999999999995</ele><time>2026-04-11T11:28:11.421Z</time></trkpt><trkpt lat="44.0238683" lon="11.3251833"><ele>378.4</ele><time>2026-04-11T11:28:12.422Z</time></trkpt><trkpt lat="44.0239233" lon="11.3250683"><ele>379.0</ele><time>2026-04-11T11:28:13.421Z</time></trkpt><trkpt lat="44.023975" lon="11.3249467"><ele>379.0</ele><time>2026-04-11T11:28:14.421Z</time></trkpt><trkpt lat="44.02403" lon="11.3248233"><ele>379.0</ele><time>2026-04-11T11:28:15.421Z</time></trkpt><trkpt lat="44.0240867" lon="11.3247017"><ele>379.0</ele><time>2026-04-11T11:28:16.422Z</time></trkpt><trkpt lat="44.024145" lon="11.3245833"><ele>379.0</ele><time>2026-04-11T11:28:17.422Z</time></trkpt><trkpt lat="44.024205" lon="11.3244733"><ele>379.0</ele><time>2026-04-11T11:28:18.422Z</time></trkpt><trkpt lat="44.0242683" lon="11.32439"><ele>382.2</ele><time>2026-04-11T11:28:19.421Z</time></trkpt><trkpt lat="44.0243333" lon="11.3243217"><ele>385.4</ele><time>2026-04-11T11:28:20.421Z</time></trkpt><trkpt lat="44.02441" lon="11.3242467"><ele>388.6</ele><time>2026-04-11T11:28:21.422Z</time></trkpt><trkpt lat="44.02449" lon="11.3241667"><ele>391.8</ele><time>2026-04-11T11:28:22.422Z</time></trkpt><trkpt lat="44.024575" lon="11.32409"><ele>395.0</ele><time>2026-04-11T11:28:23.421Z</time></trkpt><trkpt lat="44.0246783" lon="11.3240117"><ele>395.0</ele><time>2026-04-11T11:28:24.422Z</time></trkpt><trkpt lat="44.0247917" lon="11.3239533"><ele>395.0</ele><time>2026-04-11T11:28:25.429Z</time></trkpt><trkpt lat="44.02491" lon="11.3239033"><ele>395.0</ele><time>2026-04-11T11:28:26.421Z</time></trkpt><trkpt lat="44.025025" lon="11.32387"><ele>395.0</ele><time>2026-04-11T11:28:27.422Z</time></trkpt><trkpt lat="44.0251333" lon="11.3238533"><ele>395.0</ele><time>2026-04-11T11:28:28.421Z</time></trkpt><trkpt lat="44.0252367" lon="11.323845"><ele>395.0</ele><time>2026-04-11T11:28:29.421Z</time></trkpt><trkpt lat="44.0253367" lon="11.323855"><ele>395.0</ele><time>2026-04-11T11:28:30.421Z</time></trkpt><trkpt lat="44.02542" lon="11.3238733"><ele>395.0</ele><time>2026-04-11T11:28:31.422Z</time></trkpt><trkpt lat="44.0255067" lon="11.3239"><ele>395.0</ele><time>2026-04-11T11:28:32.421Z</time></trkpt><trkpt lat="44.0255867" lon="11.3239267"><ele>394.99999999999994</ele><time>2026-04-11T11:28:33.422Z</time></trkpt><trkpt lat="44.0256683" lon="11.32395"><ele>395.0</ele><time>2026-04-11T11:28:34.422Z</time></trkpt><trkpt lat="44.0257383" lon="11.3239733"><ele>395.0</ele><time>2026-04-11T11:28:35.422Z</time></trkpt><trkpt lat="44.025845" lon="11.324035"><ele>395.0</ele><time>2026-04-11T11:28:37.421Z</time></trkpt><trkpt lat="44.0259133" lon="11.3240717"><ele>394.99999999999994</ele><time>2026-04-11T11:28:38.421Z</time></trkpt><trkpt lat="44.02598" lon="11.3241117"><ele>395.0</ele><time>2026-04-11T11:28:39.422Z</time></trkpt><trkpt lat="44.026055" lon="11.3241417"><ele>393.6</ele><time>2026-04-11T11:28:40.42Z</time></trkpt><trkpt lat="44.0261367" lon="11.3241617"><ele>392.2</ele><time>2026-04-11T11:28:41.422Z</time></trkpt><trkpt lat="44.0262217" lon="11.324165"><ele>390.79999999999995</ele><time>2026-04-11T11:28:42.421Z</time></trkpt><trkpt lat="44.0263017" lon="11.3241483"><ele>389.4</ele><time>2026-04-11T11:28:43.421Z</time></trkpt><trkpt lat="44.026375" lon="11.3241333"><ele>388.0</ele><time>2026-04-11T11:28:44.421Z</time></trkpt><trkpt lat="44.0264" lon="11.323935"><ele>383.25</ele><time>2026-04-11T11:28:45.422Z</time></trkpt><trkpt lat="44.02642" lon="11.3237433"><ele>378.5</ele><time>2026-04-11T11:28:46.42Z</time></trkpt><trkpt lat="44.02644" lon="11.3235517"><ele>373.75</ele><time>2026-04-11T11:28:47.423Z</time></trkpt><trkpt lat="44.0264483" lon="11.3233583"><ele>369.0</ele><time>2026-04-11T11:28:48.422Z</time></trkpt><trkpt lat="44.0264583" lon="11.3231833"><ele>367.25</ele><time>2026-04-11T11:28:49.423Z</time></trkpt><trkpt lat="44.0264683" lon="11.3230217"><ele>365.5</ele><time>2026-04-11T11:28:50.422Z</time></trkpt><trkpt lat="44.026485" lon="11.322855"><ele>363.75</ele><time>2026-04-11T11:28:51.422Z</time></trkpt><trkpt lat="44.0264983" lon="11.322685"><ele>362.0</ele><time>2026-04-11T11:28:52.423Z</time></trkpt><trkpt lat="44.026535" lon="11.3225317"><ele>362.0</ele><time>2026-04-11T11:28:53.421Z</time></trkpt><trkpt lat="44.0265817" lon="11.322385"><ele>362.0</ele><time>2026-04-11T11:28:54.421Z</time></trkpt><trkpt lat="44.0266383" lon="11.3222483"><ele>362.0</ele><time>2026-04-11T11:28:55.422Z</time></trkpt><trkpt lat="44.0266883" lon="11.32212"><ele>362.0</ele><time>2026-04-11T11:28:56.423Z</time></trkpt><trkpt lat="44.0267367" lon="11.3220117"><ele>362.0</ele><time>2026-04-11T11:28:57.422Z</time></trkpt><trkpt lat="44.0267817" lon="11.321935"><ele>364.2857142857143</ele><time>2026-04-11T11:28:58.422Z</time></trkpt><trkpt lat="44.02682" lon="11.321835"><ele>366.57142857142856</ele><time>2026-04-11T11:28:59.421Z</time></trkpt><trkpt lat="44.026865" lon="11.3217733"><ele>368.8571428571429</ele><time>2026-04-11T11:29:00.422Z</time></trkpt><trkpt lat="44.02692" lon="11.3217283"><ele>371.1428571428571</ele><time>2026-04-11T11:29:01.422Z</time></trkpt><trkpt lat="44.026985" lon="11.3216967"><ele>373.42857142857144</ele><time>2026-04-11T11:29:02.423Z</time></trkpt><trkpt lat="44.0270633" lon="11.3216667"><ele>375.7142857142857</ele><time>2026-04-11T11:29:03.422Z</time></trkpt><trkpt lat="44.0271483" lon="11.3216267"><ele>378.0</ele><time>2026-04-11T11:29:04.421Z</time></trkpt><trkpt lat="44.027225" lon="11.3215783"><ele>378.0</ele><time>2026-04-11T11:29:05.423Z</time></trkpt><trkpt lat="44.02729" lon="11.3215283"><ele>378.0</ele><time>2026-04-11T11:29:06.421Z</time></trkpt><trkpt lat="44.0273467" lon="11.321475"><ele>378.0</ele><time>2026-04-11T11:29:07.422Z</time></trkpt><trkpt lat="44.0273967" lon="11.3214017"><ele>378.0</ele><time>2026-04-11T11:29:08.422Z</time></trkpt><trkpt lat="44.0274417" lon="11.3213083"><ele>378.0</ele><time>2026-04-11T11:29:09.422Z</time></trkpt><trkpt lat="44.0274583" lon="11.3212117"><ele>378.0</ele><time>2026-04-11T11:29:10.423Z</time></trkpt><trkpt lat="44.0274733" lon="11.3211033"><ele>378.0</ele><time>2026-04-11T11:29:11.42Z</time></trkpt><trkpt lat="44.02746" lon="11.3209917"><ele>376.3333333333333</ele><time>2026-04-11T11:29:12.42Z</time></trkpt><trkpt lat="44.0274467" lon="11.3208867"><ele>374.6666666666667</ele><time>2026-04-11T11:29:13.419Z</time></trkpt><trkpt lat="44.027435" lon="11.320785"><ele>373.0</ele><time>2026-04-11T11:29:14.419Z</time></trkpt><trkpt lat="44.0274317" lon="11.3206917"><ele>371.33333333333337</ele><time>2026-04-11T11:29:15.418Z</time></trkpt><trkpt lat="44.027425" lon="11.3205767"><ele>369.6666666666667</ele><time>2026-04-11T11:29:16.419Z</time></trkpt><trkpt lat="44.0274217" lon="11.3204633"><ele>368.0</ele><time>2026-04-11T11:29:17.419Z</time></trkpt><trkpt lat="44.027425" lon="11.3203517"><ele>366.5</ele><time>2026-04-11T11:29:18.419Z</time></trkpt><trkpt lat="44.0274317" lon="11.3202417"><ele>365.0</ele><time>2026-04-11T11:29:19.42Z</time></trkpt><trkpt lat="44.0274333" lon="11.3201317"><ele>363.5</ele><time>2026-04-11T11:29:20.421Z</time></trkpt><trkpt lat="44.027435" lon="11.3200233"><ele>362.0</ele><time>2026-04-11T11:29:21.423Z</time></trkpt><trkpt lat="44.0274333" lon="11.3198933"><ele>360.5</ele><time>2026-04-11T11:29:22.422Z</time></trkpt><trkpt lat="44.0274383" lon="11.3197717"><ele>359.0</ele><time>2026-04-11T11:29:23.423Z</time></trkpt><trkpt lat="44.0274433" lon="11.3196567"><ele>359.0</ele><time>2026-04-11T11:29:24.419Z</time></trkpt><trkpt lat="44.0274517" lon="11.3195583"><ele>359.0</ele><time>2026-04-11T11:29:25.42Z</time></trkpt><trkpt lat="44.0274667" lon="11.3194583"><ele>359.0</ele><time>2026-04-11T11:29:26.421Z</time></trkpt><trkpt lat="44.0274833" lon="11.3193533"><ele>359.0</ele><time>2026-04-11T11:29:27.42Z</time></trkpt><trkpt lat="44.0274967" lon="11.3192533"><ele>359.0</ele><time>2026-04-11T11:29:28.421Z</time></trkpt><trkpt lat="44.0275233" lon="11.31917"><ele>359.0</ele><time>2026-04-11T11:29:29.421Z</time></trkpt><trkpt lat="44.02755" lon="11.3190883"><ele>359.0</ele><time>2026-04-11T11:29:30.42Z</time></trkpt><trkpt lat="44.0275833" lon="11.3190067"><ele>362.0</ele><time>2026-04-11T11:29:31.422Z</time></trkpt><trkpt lat="44.0276483" lon="11.31885"><ele>365.0</ele><time>2026-04-11T11:29:33.422Z</time></trkpt><trkpt lat="44.0277167" lon="11.318725"><ele>368.0</ele><time>2026-04-11T11:29:35.42Z</time></trkpt><trkpt lat="44.0277833" lon="11.3186317"><ele>371.0</ele><time>2026-04-11T11:29:37.422Z</time></trkpt><trkpt lat="44.027855" lon="11.318545"><ele>374.0</ele><time>2026-04-11T11:29:39.42Z</time></trkpt><trkpt lat="44.027865" lon="11.3184267"><ele>374.0</ele><time>2026-04-11T11:29:41.421Z</time></trkpt><trkpt lat="44.0278117" lon="11.31835"><ele>374.0</ele><time>2026-04-11T11:29:43.423Z</time></trkpt><trkpt lat="44.0277267" lon="11.3183383"><ele>374.0</ele><time>2026-04-11T11:29:45.423Z</time></trkpt><trkpt lat="44.0276617" lon="11.318285"><ele>374.0</ele><time>2026-04-11T11:29:48.421Z</time></trkpt><trkpt lat="44.0276017" lon="11.3181867"><ele>374.0</ele><time>2026-04-11T11:29:50.421Z</time></trkpt><trkpt lat="44.0275433" lon="11.318105"><ele>374.0</ele><time>2026-04-11T11:29:52.422Z</time></trkpt><trkpt lat="44.0274883" lon="11.3180033"><ele>372.6</ele><time>2026-04-11T11:29:54.421Z</time></trkpt><trkpt lat="44.0274433" lon="11.3178833"><ele>371.2</ele><time>2026-04-11T11:29:56.421Z</time></trkpt><trkpt lat="44.02741" lon="11.3177633"><ele>369.8</ele><time>2026-04-11T11:29:58.421Z</time></trkpt><trkpt lat="44.0273717" lon="11.3176317"><ele>368.40000000000003</ele><time>2026-04-11T11:30:00.422Z</time></trkpt><trkpt lat="44.0273283" lon="11.3175083"><ele>367.0</ele><time>2026-04-11T11:30:02.422Z</time></trkpt><trkpt lat="44.0272917" lon="11.3174267"><ele>367.0</ele><time>2026-04-11T11:30:03.422Z</time></trkpt><trkpt lat="44.0272117" lon="11.3173067"><ele>367.0</ele><time>2026-04-11T11:30:05.423Z</time></trkpt><trkpt lat="44.027155" lon="11.3172383"><ele>367.0</ele><time>2026-04-11T11:30:06.42Z</time></trkpt><trkpt lat="44.0270967" lon="11.3171933"><ele>367.0</ele><time>2026-04-11T11:30:07.423Z</time></trkpt><trkpt lat="44.0270367" lon="11.317155"><ele>367.0</ele><time>2026-04-11T11:30:08.423Z</time></trkpt><trkpt lat="44.0269233" lon="11.3170883"><ele>367.0</ele><time>2026-04-11T11:30:10.422Z</time></trkpt><trkpt lat="44.0268333" lon="11.3170367"><ele>367.8</ele><time>2026-04-11T11:30:12.42Z</time></trkpt><trkpt lat="44.0267667" lon="11.31697"><ele>368.6</ele><time>2026-04-11T11:30:14.422Z</time></trkpt><trkpt lat="44.0266983" lon="11.31686"><ele>369.40000000000003</ele><time>2026-04-11T11:30:16.421Z</time></trkpt><trkpt lat="44.0266583" lon="11.3167367"><ele>370.20000000000005</ele><time>2026-04-11T11:30:18.422Z</time></trkpt><trkpt lat="44.0266117" lon="11.316605"><ele>371.0</ele><time>2026-04-11T11:30:20.422Z</time></trkpt><trkpt lat="44.0265767" lon="11.316475"><ele>368.5</ele><time>2026-04-11T11:30:22.421Z</time></trkpt><trkpt lat="44.0265583" lon="11.316365"><ele>366.0</ele><time>2026-04-11T11:30:24.423Z</time></trkpt><trkpt lat="44.0265417" lon="11.3162733"><ele>363.5</ele><time>2026-04-11T11:30:26.422Z</time></trkpt><trkpt lat="44.026535" lon="11.3161717"><ele>361.0</ele><time>2026-04-11T11:30:28.421Z</time></trkpt><trkpt lat="44.0265567" lon="11.3160583"><ele>358.5</ele><time>2026-04-11T11:30:30.42Z</time></trkpt><trkpt lat="44.0265583" lon="11.31597"><ele>356.0</ele><time>2026-04-11T11:30:31.419Z</time></trkpt><trkpt lat="44.02654" lon="11.3158133"><ele>356.0</ele><time>2026-04-11T11:30:33.421Z</time></trkpt><trkpt lat="44.0265083" lon="11.3157267"><ele>356.0</ele><time>2026-04-11T11:30:34.422Z</time></trkpt><trkpt lat="44.02646" lon="11.3156233"><ele>356.0</ele><time>2026-04-11T11:30:36.422Z</time></trkpt><trkpt lat="44.0264017" lon="11.31551"><ele>356.0</ele><time>2026-04-11T11:30:38.422Z</time></trkpt><trkpt lat="44.0263617" lon="11.3153933"><ele>356.0</ele><time>2026-04-11T11:30:40.421Z</time></trkpt><trkpt lat="44.02636" lon="11.31529"><ele>356.0</ele><time>2026-04-11T11:30:42.422Z</time></trkpt><trkpt lat="44.026385" lon="11.3151633"><ele>356.20000000000005</ele><time>2026-04-11T11:30:44.423Z</time></trkpt><trkpt lat="44.0264133" lon="11.3150233"><ele>356.40000000000003</ele><time>2026-04-11T11:30:46.42Z</time></trkpt><trkpt lat="44.026425" lon="11.3148583"><ele>356.6</ele><time>2026-04-11T11:30:48.422Z</time></trkpt><trkpt lat="44.0264317" lon="11.31477"><ele>356.8</ele><time>2026-04-11T11:30:49.422Z</time></trkpt><trkpt lat="44.0264367" lon="11.3146817"><ele>357.0</ele><time>2026-04-11T11:30:50.423Z</time></trkpt><trkpt lat="44.0264483" lon="11.3144967"><ele>358.14285714285717</ele><time>2026-04-11T11:30:52.422Z</time></trkpt><trkpt lat="44.0264567" lon="11.3143983"><ele>359.2857142857143</ele><time>2026-04-11T11:30:53.422Z</time></trkpt><trkpt lat="44.0264567" lon="11.31431"><ele>360.42857142857144</ele><time>2026-04-11T11:30:54.423Z</time></trkpt><trkpt lat="44.0264667" lon="11.3142117"><ele>361.57142857142856</ele><time>2026-04-11T11:30:55.422Z</time></trkpt><trkpt lat="44.0264733" lon="11.3141067"><ele>362.7142857142857</ele><time>2026-04-11T11:30:56.421Z</time></trkpt><trkpt lat="44.0264833" lon="11.3140133"><ele>363.8571428571429</ele><time>2026-04-11T11:30:57.422Z</time></trkpt><trkpt lat="44.0264933" lon="11.3139183"><ele>365.0</ele><time>2026-04-11T11:30:58.421Z</time></trkpt><trkpt lat="44.0265017" lon="11.3138267"><ele>365.0</ele><time>2026-04-11T11:30:59.42Z</time></trkpt><trkpt lat="44.0265367" lon="11.31368"><ele>365.0</ele><time>2026-04-11T11:31:01.423Z</time></trkpt><trkpt lat="44.026545" lon="11.313575"><ele>365.0</ele><time>2026-04-11T11:31:02.423Z</time></trkpt><trkpt lat="44.026545" lon="11.3134533"><ele>365.0</ele><time>2026-04-11T11:31:03.422Z</time></trkpt><trkpt lat="44.0265417" lon="11.31332"><ele>365.0</ele><time>2026-04-11T11:31:04.422Z</time></trkpt><trkpt lat="44.0265417" lon="11.3131833"><ele>364.5</ele><time>2026-04-11T11:31:05.422Z</time></trkpt><trkpt lat="44.0265417" lon="11.313055"><ele>364.0</ele><time>2026-04-11T11:31:06.423Z</time></trkpt><trkpt lat="44.02654" lon="11.3129367"><ele>363.5</ele><time>2026-04-11T11:31:07.422Z</time></trkpt><trkpt lat="44.0265367" lon="11.3128333"><ele>363.0</ele><time>2026-04-11T11:31:08.42Z</time></trkpt><trkpt lat="44.0265333" lon="11.3126767"><ele>362.5</ele><time>2026-04-11T11:31:10.422Z</time></trkpt><trkpt lat="44.0265433" lon="11.312575"><ele>362.0</ele><time>2026-04-11T11:31:12.422Z</time></trkpt><trkpt lat="44.0265333" lon="11.3124483"><ele>362.0</ele><time>2026-04-11T11:31:44.421Z</time></trkpt><trkpt lat="44.0265317" lon="11.3123383"><ele>362.0</ele><time>2026-04-11T11:31:47.42Z</time></trkpt><trkpt lat="44.0265383" lon="11.312225"><ele>362.0</ele><time>2026-04-11T11:31:50.422Z</time></trkpt><trkpt lat="44.0265567" lon="11.3120783"><ele>362.0</ele><time>2026-04-11T11:31:52.421Z</time></trkpt><trkpt lat="44.0265817" lon="11.3119867"><ele>362.0</ele><time>2026-04-11T11:31:53.422Z</time></trkpt><trkpt lat="44.0266167" lon="11.3118817"><ele>362.0</ele><time>2026-04-11T11:31:54.42Z</time></trkpt><trkpt lat="44.0266633" lon="11.3117633"><ele>363.8</ele><time>2026-04-11T11:31:55.422Z</time></trkpt><trkpt lat="44.0267167" lon="11.3116517"><ele>365.6</ele><time>2026-04-11T11:31:56.422Z</time></trkpt><trkpt lat="44.02677" lon="11.311545"><ele>367.40000000000003</ele><time>2026-04-11T11:31:57.421Z</time></trkpt><trkpt lat="44.0268233" lon="11.3114367"><ele>369.20000000000005</ele><time>2026-04-11T11:31:58.421Z</time></trkpt><trkpt lat="44.0268717" lon="11.3113267"><ele>371.0</ele><time>2026-04-11T11:31:59.421Z</time></trkpt><trkpt lat="44.0269117" lon="11.3112083"><ele>371.0</ele><time>2026-04-11T11:32:00.42Z</time></trkpt><trkpt lat="44.0269483" lon="11.311085"><ele>371.0</ele><time>2026-04-11T11:32:01.421Z</time></trkpt><trkpt lat="44.026985" lon="11.3109633"><ele>371.0</ele><time>2026-04-11T11:32:02.423Z</time></trkpt><trkpt lat="44.02702" lon="11.3108517"><ele>371.0</ele><time>2026-04-11T11:32:03.423Z</time></trkpt><trkpt lat="44.02705" lon="11.3107467"><ele>371.0</ele><time>2026-04-11T11:32:04.421Z</time></trkpt><trkpt lat="44.02708" lon="11.3106467"><ele>371.0</ele><time>2026-04-11T11:32:05.421Z</time></trkpt><trkpt lat="44.0271083" lon="11.3105433"><ele>371.4</ele><time>2026-04-11T11:32:06.419Z</time></trkpt><trkpt lat="44.0271317" lon="11.3104317"><ele>371.8</ele><time>2026-04-11T11:32:07.423Z</time></trkpt><trkpt lat="44.027145" lon="11.31031"><ele>372.2</ele><time>2026-04-11T11:32:08.422Z</time></trkpt><trkpt lat="44.0271433" lon="11.3101783"><ele>372.59999999999997</ele><time>2026-04-11T11:32:09.422Z</time></trkpt><trkpt lat="44.0271217" lon="11.3100517"><ele>373.0</ele><time>2026-04-11T11:32:10.422Z</time></trkpt><trkpt lat="44.0270833" lon="11.3099183"><ele>373.0</ele><time>2026-04-11T11:32:11.423Z</time></trkpt><trkpt lat="44.0270417" lon="11.309785"><ele>373.0</ele><time>2026-04-11T11:32:12.422Z</time></trkpt><trkpt lat="44.0269933" lon="11.30965"><ele>373.0</ele><time>2026-04-11T11:32:13.422Z</time></trkpt><trkpt lat="44.0269417" lon="11.3095167"><ele>373.0</ele><time>2026-04-11T11:32:14.421Z</time></trkpt><trkpt lat="44.0268883" lon="11.3093833"><ele>373.0</ele><time>2026-04-11T11:32:15.421Z</time></trkpt><trkpt lat="44.02684" lon="11.309255"><ele>372.59999999999997</ele><time>2026-04-11T11:32:16.421Z</time></trkpt><trkpt lat="44.0267883" lon="11.30913"><ele>372.2</ele><time>2026-04-11T11:32:17.42Z</time></trkpt><trkpt lat="44.026735" lon="11.3090033"><ele>371.8</ele><time>2026-04-11T11:32:18.419Z</time></trkpt><trkpt lat="44.0266767" lon="11.3088633"><ele>371.4</ele><time>2026-04-11T11:32:19.421Z</time></trkpt><trkpt lat="44.026615" lon="11.3087167"><ele>371.0</ele><time>2026-04-11T11:32:20.419Z</time></trkpt><trkpt lat="44.0265583" lon="11.3085667"><ele>371.0</ele><time>2026-04-11T11:32:21.421Z</time></trkpt><trkpt lat="44.0265183" lon="11.3084133"><ele>371.0</ele><time>2026-04-11T11:32:22.421Z</time></trkpt><trkpt lat="44.026495" lon="11.308255"><ele>371.0</ele><time>2026-04-11T11:32:23.42Z</time></trkpt><trkpt lat="44.02648" lon="11.3081033"><ele>371.0</ele><time>2026-04-11T11:32:24.418Z</time></trkpt><trkpt lat="44.0264617" lon="11.3079583"><ele>371.0</ele><time>2026-04-11T11:32:25.42Z</time></trkpt><trkpt lat="44.0264283" lon="11.3078283"><ele>372.4</ele><time>2026-04-11T11:32:26.419Z</time></trkpt><trkpt lat="44.026365" lon="11.3077067"><ele>373.8</ele><time>2026-04-11T11:32:27.42Z</time></trkpt><trkpt lat="44.0262867" lon="11.3075967"><ele>375.2</ele><time>2026-04-11T11:32:28.419Z</time></trkpt><trkpt lat="44.0261933" lon="11.3075133"><ele>376.59999999999997</ele><time>2026-04-11T11:32:29.42Z</time></trkpt><trkpt lat="44.026095" lon="11.3074333"><ele>378.0</ele><time>2026-04-11T11:32:30.418Z</time></trkpt><trkpt lat="44.0260017" lon="11.3073617"><ele>378.0</ele><time>2026-04-11T11:32:31.419Z</time></trkpt><trkpt lat="44.0259067" lon="11.3072833"><ele>378.0</ele><time>2026-04-11T11:32:32.421Z</time></trkpt><trkpt lat="44.025825" lon="11.3072067"><ele>378.0</ele><time>2026-04-11T11:32:33.419Z</time></trkpt><trkpt lat="44.0257483" lon="11.307125"><ele>378.0</ele><time>2026-04-11T11:32:34.432Z</time></trkpt><trkpt lat="44.0256883" lon="11.3070417"><ele>378.0</ele><time>2026-04-11T11:32:35.42Z</time></trkpt><trkpt lat="44.02563" lon="11.3069517"><ele>377.59999999999997</ele><time>2026-04-11T11:32:36.418Z</time></trkpt><trkpt lat="44.025585" lon="11.3068367"><ele>377.2</ele><time>2026-04-11T11:32:37.419Z</time></trkpt><trkpt lat="44.0255733" lon="11.30671"><ele>376.8</ele><time>2026-04-11T11:32:38.42Z</time></trkpt><trkpt lat="44.0255667" lon="11.3065517"><ele>376.4</ele><time>2026-04-11T11:32:39.419Z</time></trkpt><trkpt lat="44.025555" lon="11.30639"><ele>376.0</ele><time>2026-04-11T11:32:40.419Z</time></trkpt><trkpt lat="44.02553" lon="11.3062533"><ele>376.0</ele><time>2026-04-11T11:32:41.42Z</time></trkpt><trkpt lat="44.0254783" lon="11.3061217"><ele>376.0</ele><time>2026-04-11T11:32:42.421Z</time></trkpt><trkpt lat="44.0253967" lon="11.3060133"><ele>376.0</ele><time>2026-04-11T11:32:43.421Z</time></trkpt><trkpt lat="44.0252933" lon="11.3058933"><ele>376.0</ele><time>2026-04-11T11:32:44.42Z</time></trkpt><trkpt lat="44.0251883" lon="11.3057717"><ele>376.0</ele><time>2026-04-11T11:32:45.422Z</time></trkpt><trkpt lat="44.025095" lon="11.3056483"><ele>376.0</ele><time>2026-04-11T11:32:46.421Z</time></trkpt><trkpt lat="44.0250233" lon="11.3055283"><ele>376.0</ele><time>2026-04-11T11:32:47.421Z</time></trkpt><trkpt lat="44.0249683" lon="11.305395"><ele>376.0</ele><time>2026-04-11T11:32:48.423Z</time></trkpt><trkpt lat="44.024925" lon="11.3052483"><ele>375.25</ele><time>2026-04-11T11:32:49.418Z</time></trkpt><trkpt lat="44.0248967" lon="11.3050917"><ele>374.5</ele><time>2026-04-11T11:32:50.422Z</time></trkpt><trkpt lat="44.0248883" lon="11.3049217"><ele>373.75</ele><time>2026-04-11T11:32:51.421Z</time></trkpt><trkpt lat="44.0248967" lon="11.3047367"><ele>373.0</ele><time>2026-04-11T11:32:52.419Z</time></trkpt><trkpt lat="44.02492" lon="11.3045183"><ele>373.0</ele><time>2026-04-11T11:32:53.422Z</time></trkpt><trkpt lat="44.02494" lon="11.304305"><ele>373.0</ele><time>2026-04-11T11:32:54.422Z</time></trkpt><trkpt lat="44.0249617" lon="11.3041133"><ele>373.0</ele><time>2026-04-11T11:32:55.421Z</time></trkpt><trkpt lat="44.0249783" lon="11.3039533"><ele>373.0</ele><time>2026-04-11T11:32:56.419Z</time></trkpt><trkpt lat="44.024985" lon="11.303825"><ele>373.8333333333333</ele><time>2026-04-11T11:32:57.421Z</time></trkpt><trkpt lat="44.0249883" lon="11.3037167"><ele>374.66666666666663</ele><time>2026-04-11T11:32:58.42Z</time></trkpt><trkpt lat="44.0249883" lon="11.303625"><ele>375.5</ele><time>2026-04-11T11:32:59.419Z</time></trkpt><trkpt lat="44.0249567" lon="11.30349"><ele>376.3333333333333</ele><time>2026-04-11T11:33:01.422Z</time></trkpt><trkpt lat="44.0248833" lon="11.303425"><ele>377.1666666666667</ele><time>2026-04-11T11:33:03.421Z</time></trkpt><trkpt lat="44.024775" lon="11.3034083"><ele>378.0</ele><time>2026-04-11T11:33:05.421Z</time></trkpt><trkpt lat="44.02471" lon="11.3033983"><ele>378.0</ele><time>2026-04-11T11:33:06.423Z</time></trkpt><trkpt lat="44.02464" lon="11.3033783"><ele>378.0</ele><time>2026-04-11T11:33:07.422Z</time></trkpt><trkpt lat="44.0245617" lon="11.3033617"><ele>378.0</ele><time>2026-04-11T11:33:08.421Z</time></trkpt><trkpt lat="44.02448" lon="11.303345"><ele>378.0</ele><time>2026-04-11T11:33:09.419Z</time></trkpt><trkpt lat="44.0243917" lon="11.3033233"><ele>378.0</ele><time>2026-04-11T11:33:10.421Z</time></trkpt><trkpt lat="44.0242983" lon="11.3032933"><ele>378.0</ele><time>2026-04-11T11:33:11.419Z</time></trkpt><trkpt lat="44.0242" lon="11.3032633"><ele>377.4</ele><time>2026-04-11T11:33:12.422Z</time></trkpt><trkpt lat="44.0241033" lon="11.3032317"><ele>376.79999999999995</ele><time>2026-04-11T11:33:13.421Z</time></trkpt><trkpt lat="44.024015" lon="11.3031967"><ele>376.2</ele><time>2026-04-11T11:33:14.42Z</time></trkpt><trkpt lat="44.0239233" lon="11.3031667"><ele>375.6</ele><time>2026-04-11T11:33:15.421Z</time></trkpt><trkpt lat="44.0238317" lon="11.3031383"><ele>375.0</ele><time>2026-04-11T11:33:16.421Z</time></trkpt><trkpt lat="44.0237417" lon="11.303125"><ele>375.0</ele><time>2026-04-11T11:33:17.421Z</time></trkpt><trkpt lat="44.02366" lon="11.3031317"><ele>375.0</ele><time>2026-04-11T11:33:18.419Z</time></trkpt><trkpt lat="44.023585" lon="11.3031517"><ele>375.0</ele><time>2026-04-11T11:33:19.42Z</time></trkpt><trkpt lat="44.0235183" lon="11.3031717"><ele>375.0</ele><time>2026-04-11T11:33:20.422Z</time></trkpt><trkpt lat="44.0234117" lon="11.3032283"><ele>375.0</ele><time>2026-04-11T11:33:22.422Z</time></trkpt><trkpt lat="44.0233183" lon="11.3033067"><ele>373.8</ele><time>2026-04-11T11:33:24.422Z</time></trkpt><trkpt lat="44.0232183" lon="11.3033733"><ele>372.6</ele><time>2026-04-11T11:33:26.421Z</time></trkpt><trkpt lat="44.02316" lon="11.3034133"><ele>371.4</ele><time>2026-04-11T11:33:27.421Z</time></trkpt><trkpt lat="44.0231017" lon="11.3034567"><ele>370.2</ele><time>2026-04-11T11:33:28.42Z</time></trkpt><trkpt lat="44.0229983" lon="11.3035233"><ele>369.0</ele><time>2026-04-11T11:33:30.421Z</time></trkpt><trkpt lat="44.0228967" lon="11.303565"><ele>369.0</ele><time>2026-04-11T11:33:32.421Z</time></trkpt><trkpt lat="44.02279" lon="11.303585"><ele>369.0</ele><time>2026-04-11T11:33:34.422Z</time></trkpt><trkpt lat="44.02268" lon="11.3035317"><ele>369.0</ele><time>2026-04-11T11:33:36.422Z</time></trkpt><trkpt lat="44.02262" lon="11.3034883"><ele>369.0</ele><time>2026-04-11T11:33:37.421Z</time></trkpt><trkpt lat="44.022555" lon="11.303445"><ele>369.0</ele><time>2026-04-11T11:33:38.421Z</time></trkpt><trkpt lat="44.0224917" lon="11.3034033"><ele>369.0</ele><time>2026-04-11T11:33:39.42Z</time></trkpt><trkpt lat="44.0224317" lon="11.30336"><ele>366.6</ele><time>2026-04-11T11:33:40.421Z</time></trkpt><trkpt lat="44.0223733" lon="11.30332"><ele>364.2</ele><time>2026-04-11T11:33:41.422Z</time></trkpt><trkpt lat="44.0222583" lon="11.303235"><ele>361.8</ele><time>2026-04-11T11:33:43.42Z</time></trkpt><trkpt lat="44.0221583" lon="11.3031767"><ele>359.40000000000003</ele><time>2026-04-11T11:33:45.421Z</time></trkpt><trkpt lat="44.0220933" lon="11.3031333"><ele>357.0</ele><time>2026-04-11T11:33:46.422Z</time></trkpt><trkpt lat="44.0220017" lon="11.30307"><ele>356.40000000000003</ele><time>2026-04-11T11:33:48.42Z</time></trkpt><trkpt lat="44.02191" lon="11.30299"><ele>355.8</ele><time>2026-04-11T11:33:50.422Z</time></trkpt><trkpt lat="44.02182" lon="11.3029033"><ele>355.2</ele><time>2026-04-11T11:33:52.421Z</time></trkpt><trkpt lat="44.0217383" lon="11.302795"><ele>354.6</ele><time>2026-04-11T11:33:54.422Z</time></trkpt><trkpt lat="44.0216583" lon="11.30268"><ele>354.0</ele><time>2026-04-11T11:33:56.42Z</time></trkpt><trkpt lat="44.02157" lon="11.3025567"><ele>351.3333333333333</ele><time>2026-04-11T11:33:58.421Z</time></trkpt><trkpt lat="44.021485" lon="11.3024467"><ele>348.6666666666667</ele><time>2026-04-11T11:34:00.421Z</time></trkpt><trkpt lat="44.021435" lon="11.3023817"><ele>346.0</ele><time>2026-04-11T11:34:01.422Z</time></trkpt><trkpt lat="44.021385" lon="11.302325"><ele>343.33333333333337</ele><time>2026-04-11T11:34:02.419Z</time></trkpt><trkpt lat="44.0213317" lon="11.30227"><ele>340.6666666666667</ele><time>2026-04-11T11:34:03.42Z</time></trkpt><trkpt lat="44.0212417" lon="11.3021867"><ele>338.0</ele><time>2026-04-11T11:34:05.419Z</time></trkpt><trkpt lat="44.0211867" lon="11.3021367"><ele>337.79999999999995</ele><time>2026-04-11T11:34:06.421Z</time></trkpt><trkpt lat="44.0210867" lon="11.3020833"><ele>337.6</ele><time>2026-04-11T11:34:08.421Z</time></trkpt><trkpt lat="44.02097" lon="11.3020417"><ele>337.4</ele><time>2026-04-11T11:34:10.419Z</time></trkpt><trkpt lat="44.020875" lon="11.3020233"><ele>337.20000000000005</ele><time>2026-04-11T11:34:12.421Z</time></trkpt><trkpt lat="44.0207867" lon="11.3020483"><ele>337.0</ele><time>2026-04-11T11:34:14.42Z</time></trkpt><trkpt lat="44.0206933" lon="11.3020717"><ele>336.0</ele><time>2026-04-11T11:34:16.419Z</time></trkpt><trkpt lat="44.0206083" lon="11.3020867"><ele>335.0</ele><time>2026-04-11T11:34:18.421Z</time></trkpt><trkpt lat="44.0205167" lon="11.3021217"><ele>334.0</ele><time>2026-04-11T11:34:20.423Z</time></trkpt><trkpt lat="44.0204317" lon="11.3021833"><ele>333.0</ele><time>2026-04-11T11:34:22.42Z</time></trkpt><trkpt lat="44.0203783" lon="11.3022983"><ele>332.0</ele><time>2026-04-11T11:34:24.421Z</time></trkpt><trkpt lat="44.0203533" lon="11.302455"><ele>330.8</ele><time>2026-04-11T11:34:26.423Z</time></trkpt><trkpt lat="44.0203383" lon="11.3026233"><ele>329.6</ele><time>2026-04-11T11:34:28.42Z</time></trkpt><trkpt lat="44.0203333" lon="11.3027133"><ele>328.40000000000003</ele><time>2026-04-11T11:34:29.42Z</time></trkpt><trkpt lat="44.020325" lon="11.3028017"><ele>327.20000000000005</ele><time>2026-04-11T11:34:30.422Z</time></trkpt><trkpt lat="44.0203" lon="11.302955"><ele>326.0</ele><time>2026-04-11T11:34:32.422Z</time></trkpt><trkpt lat="44.0202533" lon="11.3030583"><ele>325.5</ele><time>2026-04-11T11:34:34.422Z</time></trkpt><trkpt lat="44.02019" lon="11.3031117"><ele>325.0</ele><time>2026-04-11T11:34:36.42Z</time></trkpt><trkpt lat="44.0201033" lon="11.303145"><ele>324.5</ele><time>2026-04-11T11:34:39.42Z</time></trkpt><trkpt lat="44.0200183" lon="11.303125"><ele>324.0</ele><time>2026-04-11T11:34:41.42Z</time></trkpt><trkpt lat="44.0199433" lon="11.30309"><ele>323.5</ele><time>2026-04-11T11:34:42.42Z</time></trkpt><trkpt lat="44.019855" lon="11.3030433"><ele>323.0</ele><time>2026-04-11T11:34:43.419Z</time></trkpt><trkpt lat="44.019745" lon="11.3030133"><ele>321.75</ele><time>2026-04-11T11:34:44.421Z</time></trkpt><trkpt lat="44.0196233" lon="11.3029967"><ele>320.5</ele><time>2026-04-11T11:34:45.421Z</time></trkpt><trkpt lat="44.0194967" lon="11.3029867"><ele>319.25</ele><time>2026-04-11T11:34:46.42Z</time></trkpt><trkpt lat="44.019365" lon="11.3029783"><ele>318.0</ele><time>2026-04-11T11:34:47.422Z</time></trkpt><trkpt lat="44.0192267" lon="11.3029667"><ele>317.25</ele><time>2026-04-11T11:34:48.421Z</time></trkpt><trkpt lat="44.019085" lon="11.302955"><ele>316.5</ele><time>2026-04-11T11:34:49.422Z</time></trkpt><trkpt lat="44.0189367" lon="11.30294"><ele>315.75</ele><time>2026-04-11T11:34:50.42Z</time></trkpt><trkpt lat="44.0187883" lon="11.3029233"><ele>315.0</ele><time>2026-04-11T11:34:51.42Z</time></trkpt><trkpt lat="44.018645" lon="11.302895"><ele>315.0</ele><time>2026-04-11T11:34:52.421Z</time></trkpt><trkpt lat="44.0185067" lon="11.30284"><ele>315.0</ele><time>2026-04-11T11:34:53.422Z</time></trkpt><trkpt lat="44.0183733" lon="11.3027567"><ele>315.0</ele><time>2026-04-11T11:34:54.422Z</time></trkpt><trkpt lat="44.01825" lon="11.3026483"><ele>315.0</ele><time>2026-04-11T11:34:55.42Z</time></trkpt><trkpt lat="44.0181367" lon="11.302515"><ele>313.6666666666667</ele><time>2026-04-11T11:34:56.423Z</time></trkpt><trkpt lat="44.0180367" lon="11.30236"><ele>312.33333333333337</ele><time>2026-04-11T11:34:57.421Z</time></trkpt><trkpt lat="44.0179533" lon="11.30218"><ele>311.0</ele><time>2026-04-11T11:34:58.42Z</time></trkpt><trkpt lat="44.0178867" lon="11.3019633"><ele>310.0</ele><time>2026-04-11T11:34:59.422Z</time></trkpt><trkpt lat="44.017835" lon="11.301705"><ele>309.0</ele><time>2026-04-11T11:35:00.422Z</time></trkpt><trkpt lat="44.0177883" lon="11.3014217"><ele>308.0</ele><time>2026-04-11T11:35:01.42Z</time></trkpt><trkpt lat="44.0177417" lon="11.301135"><ele>306.6666666666667</ele><time>2026-04-11T11:35:02.423Z</time></trkpt><trkpt lat="44.0176983" lon="11.3008483"><ele>305.3333333333333</ele><time>2026-04-11T11:35:03.422Z</time></trkpt><trkpt lat="44.0176533" lon="11.3005633"><ele>304.0</ele><time>2026-04-11T11:35:04.423Z</time></trkpt><trkpt lat="44.0176033" lon="11.3002633"><ele>302.3333333333333</ele><time>2026-04-11T11:35:05.422Z</time></trkpt><trkpt lat="44.0175517" lon="11.2999633"><ele>300.6666666666667</ele><time>2026-04-11T11:35:06.422Z</time></trkpt><trkpt lat="44.017505" lon="11.299675"><ele>299.0</ele><time>2026-04-11T11:35:07.423Z</time></trkpt><trkpt lat="44.0174617" lon="11.2993983"><ele>297.6666666666667</ele><time>2026-04-11T11:35:08.423Z</time></trkpt><trkpt lat="44.017425" lon="11.29914"><ele>296.3333333333333</ele><time>2026-04-11T11:35:09.422Z</time></trkpt><trkpt lat="44.01739" lon="11.298905"><ele>295.0</ele><time>2026-04-11T11:35:10.421Z</time></trkpt><trkpt lat="44.0173617" lon="11.2986867"><ele>295.0</ele><time>2026-04-11T11:35:11.422Z</time></trkpt><trkpt lat="44.0173433" lon="11.2984783"><ele>295.0</ele><time>2026-04-11T11:35:12.421Z</time></trkpt><trkpt lat="44.0173417" lon="11.2982767"><ele>295.0</ele><time>2026-04-11T11:35:13.421Z</time></trkpt><trkpt lat="44.017365" lon="11.2980733"><ele>295.0</ele><time>2026-04-11T11:35:14.421Z</time></trkpt><trkpt lat="44.0174133" lon="11.297865"><ele>297.75</ele><time>2026-04-11T11:35:15.422Z</time></trkpt><trkpt lat="44.0174767" lon="11.2976667"><ele>300.5</ele><time>2026-04-11T11:35:16.421Z</time></trkpt><trkpt lat="44.0175383" lon="11.2974833"><ele>303.25</ele><time>2026-04-11T11:35:17.42Z</time></trkpt><trkpt lat="44.0175917" lon="11.2973067"><ele>306.0</ele><time>2026-04-11T11:35:18.42Z</time></trkpt><trkpt lat="44.0176333" lon="11.2971367"><ele>307.75</ele><time>2026-04-11T11:35:19.42Z</time></trkpt><trkpt lat="44.01765" lon="11.2969783"><ele>309.5</ele><time>2026-04-11T11:35:20.421Z</time></trkpt><trkpt lat="44.0176383" lon="11.2968267"><ele>311.25</ele><time>2026-04-11T11:35:21.422Z</time></trkpt><trkpt lat="44.0176033" lon="11.296685"><ele>313.0</ele><time>2026-04-11T11:35:22.42Z</time></trkpt><trkpt lat="44.0175467" lon="11.29654"><ele>312.5</ele><time>2026-04-11T11:35:23.421Z</time></trkpt><trkpt lat="44.0174733" lon="11.296395"><ele>312.0</ele><time>2026-04-11T11:35:24.421Z</time></trkpt><trkpt lat="44.017395" lon="11.2962467"><ele>311.5</ele><time>2026-04-11T11:35:25.42Z</time></trkpt><trkpt lat="44.01731" lon="11.2960833"><ele>311.0</ele><time>2026-04-11T11:35:26.422Z</time></trkpt><trkpt lat="44.0172133" lon="11.2959217"><ele>311.0</ele><time>2026-04-11T11:35:27.42Z</time></trkpt><trkpt lat="44.0170967" lon="11.29576"><ele>311.0</ele><time>2026-04-11T11:35:28.42Z</time></trkpt><trkpt lat="44.01695" lon="11.2955867"><ele>311.0</ele><time>2026-04-11T11:35:29.422Z</time></trkpt><trkpt lat="44.0167833" lon="11.2954083"><ele>307.5</ele><time>2026-04-11T11:35:30.421Z</time></trkpt><trkpt lat="44.0166017" lon="11.2952217"><ele>304.0</ele><time>2026-04-11T11:35:31.421Z</time></trkpt><trkpt lat="44.0164133" lon="11.2950317"><ele>304.0</ele><time>2026-04-11T11:35:32.422Z</time></trkpt><trkpt lat="44.016235" lon="11.2948517"><ele>304.0</ele><time>2026-04-11T11:35:33.421Z</time></trkpt><trkpt lat="44.0160733" lon="11.29469"><ele>304.0</ele><time>2026-04-11T11:35:34.421Z</time></trkpt><trkpt lat="44.0159283" lon="11.294545"><ele>301.66666666666663</ele><time>2026-04-11T11:35:35.42Z</time></trkpt><trkpt lat="44.0157933" lon="11.29441"><ele>299.3333333333333</ele><time>2026-04-11T11:35:36.421Z</time></trkpt><trkpt lat="44.0156617" lon="11.294275"><ele>297.0</ele><time>2026-04-11T11:35:37.42Z</time></trkpt><trkpt lat="44.0155317" lon="11.294145"><ele>297.0</ele><time>2026-04-11T11:35:38.42Z</time></trkpt><trkpt lat="44.0154083" lon="11.2940183"><ele>297.0</ele><time>2026-04-11T11:35:39.421Z</time></trkpt><trkpt lat="44.01529" lon="11.2938967"><ele>297.0</ele><time>2026-04-11T11:35:40.421Z</time></trkpt><trkpt lat="44.01518" lon="11.2937833"><ele>297.0</ele><time>2026-04-11T11:35:41.421Z</time></trkpt><trkpt lat="44.01508" lon="11.2936683"><ele>296.75</ele><time>2026-04-11T11:35:42.421Z</time></trkpt><trkpt lat="44.01499" lon="11.2935467"><ele>296.5</ele><time>2026-04-11T11:35:43.422Z</time></trkpt><trkpt lat="44.0149133" lon="11.2934167"><ele>296.25</ele><time>2026-04-11T11:35:44.421Z</time></trkpt><trkpt lat="44.014845" lon="11.2932767"><ele>296.0</ele><time>2026-04-11T11:35:45.421Z</time></trkpt><trkpt lat="44.014785" lon="11.2931217"><ele>295.25</ele><time>2026-04-11T11:35:46.421Z</time></trkpt><trkpt lat="44.01474" lon="11.2929517"><ele>294.5</ele><time>2026-04-11T11:35:47.42Z</time></trkpt><trkpt lat="44.0147117" lon="11.2927567"><ele>293.75</ele><time>2026-04-11T11:35:48.421Z</time></trkpt><trkpt lat="44.0146983" lon="11.2925533"><ele>293.0</ele><time>2026-04-11T11:35:49.42Z</time></trkpt><trkpt lat="44.0146917" lon="11.2923633"><ele>292.6</ele><time>2026-04-11T11:35:50.42Z</time></trkpt><trkpt lat="44.0146883" lon="11.2922067"><ele>292.20000000000005</ele><time>2026-04-11T11:35:51.419Z</time></trkpt><trkpt lat="44.014685" lon="11.2920667"><ele>291.8</ele><time>2026-04-11T11:35:52.421Z</time></trkpt><trkpt lat="44.0146817" lon="11.29194"><ele>291.40000000000003</ele><time>2026-04-11T11:35:53.42Z</time></trkpt><trkpt lat="44.0146783" lon="11.2918217"><ele>291.0</ele><time>2026-04-11T11:35:54.42Z</time></trkpt><trkpt lat="44.0146733" lon="11.2917117"><ele>291.0</ele><time>2026-04-11T11:35:55.422Z</time></trkpt><trkpt lat="44.014665" lon="11.2916117"><ele>291.0</ele><time>2026-04-11T11:35:56.422Z</time></trkpt><trkpt lat="44.0146483" lon="11.2914433"><ele>291.0</ele><time>2026-04-11T11:35:58.422Z</time></trkpt><trkpt lat="44.0146167" lon="11.2913083"><ele>291.0</ele><time>2026-04-11T11:36:00.421Z</time></trkpt><trkpt lat="44.014565" lon="11.2911683"><ele>291.0</ele><time>2026-04-11T11:36:02.422Z</time></trkpt><trkpt lat="44.0145133" lon="11.291085"><ele>290.40000000000003</ele><time>2026-04-11T11:36:04.42Z</time></trkpt><trkpt lat="44.01445" lon="11.291075"><ele>289.8</ele><time>2026-04-11T11:36:06.419Z</time></trkpt><trkpt lat="44.0143367" lon="11.2911033"><ele>289.20000000000005</ele><time>2026-04-11T11:36:08.423Z</time></trkpt><trkpt lat="44.0142467" lon="11.2911217"><ele>288.6</ele><time>2026-04-11T11:36:09.423Z</time></trkpt><trkpt lat="44.014135" lon="11.2911333"><ele>288.0</ele><time>2026-04-11T11:36:10.42Z</time></trkpt><trkpt lat="44.0140117" lon="11.2911533"><ele>287.75</ele><time>2026-04-11T11:36:11.422Z</time></trkpt><trkpt lat="44.013885" lon="11.2911717"><ele>287.5</ele><time>2026-04-11T11:36:12.421Z</time></trkpt><trkpt lat="44.0137567" lon="11.2911917"><ele>287.25</ele><time>2026-04-11T11:36:13.422Z</time></trkpt><trkpt lat="44.013635" lon="11.2912183"><ele>287.0</ele><time>2026-04-11T11:36:14.42Z</time></trkpt><trkpt lat="44.0135217" lon="11.2912533"><ele>287.0</ele><time>2026-04-11T11:36:15.421Z</time></trkpt><trkpt lat="44.0134033" lon="11.29129"><ele>287.0</ele><time>2026-04-11T11:36:16.419Z</time></trkpt><trkpt lat="44.0132733" lon="11.2913217"><ele>287.0</ele><time>2026-04-11T11:36:17.419Z</time></trkpt><trkpt lat="44.013125" lon="11.2913517"><ele>287.0</ele><time>2026-04-11T11:36:18.422Z</time></trkpt><trkpt lat="44.012955" lon="11.2913767"><ele>287.33333333333337</ele><time>2026-04-11T11:36:19.422Z</time></trkpt><trkpt lat="44.0127833" lon="11.291415"><ele>287.6666666666667</ele><time>2026-04-11T11:36:20.42Z</time></trkpt><trkpt lat="44.0126283" lon="11.29147"><ele>288.0</ele><time>2026-04-11T11:36:21.42Z</time></trkpt><trkpt lat="44.012475" lon="11.291545"><ele>287.3333333333333</ele><time>2026-04-11T11:36:22.422Z</time></trkpt><trkpt lat="44.0123233" lon="11.2916367"><ele>286.66666666666663</ele><time>2026-04-11T11:36:23.421Z</time></trkpt><trkpt lat="44.0121833" lon="11.2917317"><ele>286.0</ele><time>2026-04-11T11:36:24.42Z</time></trkpt><trkpt lat="44.0120517" lon="11.2918167"><ele>286.0</ele><time>2026-04-11T11:36:25.42Z</time></trkpt><trkpt lat="44.0119217" lon="11.2918983"><ele>286.0</ele><time>2026-04-11T11:36:26.422Z</time></trkpt><trkpt lat="44.0118033" lon="11.2919733"><ele>286.0</ele><time>2026-04-11T11:36:27.42Z</time></trkpt><trkpt lat="44.0116867" lon="11.2920267"><ele>286.0</ele><time>2026-04-11T11:36:28.422Z</time></trkpt><trkpt lat="44.0115617" lon="11.2920617"><ele>285.25</ele><time>2026-04-11T11:36:29.421Z</time></trkpt><trkpt lat="44.011425" lon="11.2920867"><ele>284.5</ele><time>2026-04-11T11:36:30.419Z</time></trkpt><trkpt lat="44.0112917" lon="11.2921067"><ele>283.75</ele><time>2026-04-11T11:36:31.421Z</time></trkpt><trkpt lat="44.0111633" lon="11.2921133"><ele>283.0</ele><time>2026-04-11T11:36:32.422Z</time></trkpt><trkpt lat="44.01104" lon="11.2921033"><ele>283.0</ele><time>2026-04-11T11:36:33.422Z</time></trkpt><trkpt lat="44.0109267" lon="11.292095"><ele>283.0</ele><time>2026-04-11T11:36:34.42Z</time></trkpt><trkpt lat="44.0108167" lon="11.2920817"><ele>283.0</ele><time>2026-04-11T11:36:35.421Z</time></trkpt><trkpt lat="44.0107067" lon="11.2920667"><ele>283.0</ele><time>2026-04-11T11:36:36.421Z</time></trkpt><trkpt lat="44.0105967" lon="11.2920667"><ele>283.0</ele><time>2026-04-11T11:36:37.42Z</time></trkpt><trkpt lat="44.01049" lon="11.2920733"><ele>282.6</ele><time>2026-04-11T11:36:38.421Z</time></trkpt><trkpt lat="44.010385" lon="11.2920883"><ele>282.20000000000005</ele><time>2026-04-11T11:36:39.421Z</time></trkpt><trkpt lat="44.0102867" lon="11.2921133"><ele>281.8</ele><time>2026-04-11T11:36:40.421Z</time></trkpt><trkpt lat="44.0101917" lon="11.292145"><ele>281.40000000000003</ele><time>2026-04-11T11:36:41.422Z</time></trkpt><trkpt lat="44.0101083" lon="11.2921867"><ele>281.0</ele><time>2026-04-11T11:36:42.418Z</time></trkpt><trkpt lat="44.010025" lon="11.2922433"><ele>281.0</ele><time>2026-04-11T11:36:43.42Z</time></trkpt><trkpt lat="44.009945" lon="11.2923083"><ele>281.0</ele><time>2026-04-11T11:36:44.419Z</time></trkpt><trkpt lat="44.00986" lon="11.29238"><ele>281.0</ele><time>2026-04-11T11:36:45.418Z</time></trkpt><trkpt lat="44.00977" lon="11.29245"><ele>281.0</ele><time>2026-04-11T11:36:46.42Z</time></trkpt><trkpt lat="44.00967" lon="11.292505"><ele>281.0</ele><time>2026-04-11T11:36:47.419Z</time></trkpt><trkpt lat="44.009565" lon="11.29253"><ele>281.0</ele><time>2026-04-11T11:36:48.423Z</time></trkpt><trkpt lat="44.00946" lon="11.2925533"><ele>281.0</ele><time>2026-04-11T11:36:49.419Z</time></trkpt><trkpt lat="44.0093567" lon="11.2925833"><ele>281.0</ele><time>2026-04-11T11:36:50.42Z</time></trkpt><trkpt lat="44.0092567" lon="11.2926117"><ele>281.0</ele><time>2026-04-11T11:36:51.424Z</time></trkpt><trkpt lat="44.009165" lon="11.2926467"><ele>281.0</ele><time>2026-04-11T11:36:52.418Z</time></trkpt><trkpt lat="44.00908" lon="11.2926817"><ele>281.1666666666667</ele><time>2026-04-11T11:36:53.419Z</time></trkpt><trkpt lat="44.0090033" lon="11.2927117"><ele>281.33333333333337</ele><time>2026-04-11T11:36:54.419Z</time></trkpt><trkpt lat="44.0089" lon="11.2927483"><ele>281.5</ele><time>2026-04-11T11:36:56.42Z</time></trkpt><trkpt lat="44.0088317" lon="11.2927567"><ele>281.6666666666667</ele><time>2026-04-11T11:36:58.418Z</time></trkpt><trkpt lat="44.00876" lon="11.2927767"><ele>281.8333333333333</ele><time>2026-04-11T11:38:46.421Z</time></trkpt><trkpt lat="44.008685" lon="11.2927983"><ele>282.0</ele><time>2026-04-11T11:38:48.421Z</time></trkpt><trkpt lat="44.008615" lon="11.2928083"><ele>282.0</ele><time>2026-04-11T11:38:59.422Z</time></trkpt><trkpt lat="44.0085433" lon="11.2927917"><ele>282.0</ele><time>2026-04-11T11:39:01.422Z</time></trkpt><trkpt lat="44.0084867" lon="11.2927433"><ele>282.0</ele><time>2026-04-11T11:39:03.42Z</time></trkpt><trkpt lat="44.0084467" lon="11.2926683"><ele>282.0</ele><time>2026-04-11T11:39:05.422Z</time></trkpt><trkpt lat="44.008415" lon="11.2925717"><ele>282.0</ele><time>2026-04-11T11:39:07.423Z</time></trkpt><trkpt lat="44.0083833" lon="11.292465"><ele>282.0</ele><time>2026-04-11T11:39:10.423Z</time></trkpt><trkpt lat="44.0083633" lon="11.2923683"><ele>282.0</ele><time>2026-04-11T11:39:14.422Z</time></trkpt><trkpt lat="44.00834" lon="11.292285"><ele>281.1666666666667</ele><time>2026-04-11T11:39:17.421Z</time></trkpt><trkpt lat="44.00832" lon="11.2921983"><ele>280.3333333333333</ele><time>2026-04-11T11:39:20.421Z</time></trkpt><trkpt lat="44.0082983" lon="11.2920767"><ele>279.5</ele><time>2026-04-11T11:39:24.42Z</time></trkpt><trkpt lat="44.0082767" lon="11.291965"><ele>278.66666666666663</ele><time>2026-04-11T11:39:27.42Z</time></trkpt><trkpt lat="44.0082617" lon="11.291855"><ele>277.8333333333333</ele><time>2026-04-11T11:39:30.42Z</time></trkpt><trkpt lat="44.0082467" lon="11.2917617"><ele>277.0</ele><time>2026-04-11T11:39:33.421Z</time></trkpt><trkpt lat="44.008245" lon="11.2916633"><ele>277.0</ele><time>2026-04-11T11:39:36.422Z</time></trkpt><trkpt lat="44.008265" lon="11.2915267"><ele>277.0</ele><time>2026-04-11T11:39:39.422Z</time></trkpt><trkpt lat="44.0082717" lon="11.2913583"><ele>277.0</ele><time>2026-04-11T11:39:41.419Z</time></trkpt><trkpt lat="44.0082567" lon="11.2912367"><ele>277.0</ele><time>2026-04-11T11:39:43.42Z</time></trkpt><trkpt lat="44.0082267" lon="11.2911083"><ele>277.0</ele><time>2026-04-11T11:39:46.42Z</time></trkpt><trkpt lat="44.0081817" lon="11.2909733"><ele>277.0</ele><time>2026-04-11T11:40:34.422Z</time></trkpt><trkpt lat="44.0081683" lon="11.2908783"><ele>277.0</ele><time>2026-04-11T11:40:36.422Z</time></trkpt><trkpt lat="44.00816" lon="11.29078"><ele>277.0</ele><time>2026-04-11T11:40:39.421Z</time></trkpt><trkpt lat="44.008145" lon="11.29068"><ele>277.0</ele><time>2026-04-11T11:41:18.421Z</time></trkpt><trkpt lat="44.0081283" lon="11.2905533"><ele>277.0</ele><time>2026-04-11T11:41:20.422Z</time></trkpt><trkpt lat="44.0081017" lon="11.290405"><ele>277.0</ele><time>2026-04-11T11:41:22.421Z</time></trkpt><trkpt lat="44.008085" lon="11.2902317"><ele>277.0</ele><time>2026-04-11T11:41:24.421Z</time></trkpt><trkpt lat="44.0080683" lon="11.2900917"><ele>277.0</ele><time>2026-04-11T11:41:26.423Z</time></trkpt><trkpt lat="44.0080533" lon="11.289975"><ele>277.0</ele><time>2026-04-11T11:41:28.421Z</time></trkpt><trkpt lat="44.008055" lon="11.2898617"><ele>277.0</ele><time>2026-04-11T11:41:30.421Z</time></trkpt><trkpt lat="44.008065" lon="11.289735"><ele>277.0</ele><time>2026-04-11T11:41:32.421Z</time></trkpt><trkpt lat="44.00809" lon="11.28961"><ele>277.16666666666663</ele><time>2026-04-11T11:41:34.42Z</time></trkpt><trkpt lat="44.00811" lon="11.2894483"><ele>277.3333333333333</ele><time>2026-04-11T11:41:36.422Z</time></trkpt><trkpt lat="44.0081267" lon="11.2893533"><ele>277.5</ele><time>2026-04-11T11:41:37.419Z</time></trkpt><trkpt lat="44.008145" lon="11.289255"><ele>277.6666666666667</ele><time>2026-04-11T11:41:38.42Z</time></trkpt><trkpt lat="44.00816" lon="11.2891633"><ele>277.83333333333337</ele><time>2026-04-11T11:41:39.421Z</time></trkpt><trkpt lat="44.0081733" lon="11.2890717"><ele>278.0</ele><time>2026-04-11T11:41:40.421Z</time></trkpt><trkpt lat="44.0081883" lon="11.288915"><ele>278.0</ele><time>2026-04-11T11:41:42.42Z</time></trkpt><trkpt lat="44.008215" lon="11.2887883"><ele>278.0</ele><time>2026-04-11T11:41:44.422Z</time></trkpt><trkpt lat="44.00825" lon="11.2886317"><ele>278.0</ele><time>2026-04-11T11:41:46.42Z</time></trkpt><trkpt lat="44.0082683" lon="11.2884883"><ele>278.0</ele><time>2026-04-11T11:41:48.422Z</time></trkpt><trkpt lat="44.0082917" lon="11.2883367"><ele>278.0</ele><time>2026-04-11T11:41:50.422Z</time></trkpt><trkpt lat="44.0083183" lon="11.2881833"><ele>278.0</ele><time>2026-04-11T11:41:52.423Z</time></trkpt><trkpt lat="44.008355" lon="11.288045"><ele>278.0</ele><time>2026-04-11T11:41:54.422Z</time></trkpt><trkpt lat="44.0083983" lon="11.2878933"><ele>278.0</ele><time>2026-04-11T11:41:56.421Z</time></trkpt><trkpt lat="44.0084517" lon="11.2877583"><ele>278.0</ele><time>2026-04-11T11:41:58.42Z</time></trkpt><trkpt lat="44.008485" lon="11.287655"><ele>278.0</ele><time>2026-04-11T11:42:00.42Z</time></trkpt><trkpt lat="44.00848" lon="11.2875617"><ele>278.0</ele><time>2026-04-11T11:42:12.42Z</time></trkpt><trkpt lat="44.0083783" lon="11.2874667"><ele>278.0</ele><time>2026-04-11T11:42:14.422Z</time></trkpt><trkpt lat="44.0082783" lon="11.287405"><ele>278.0</ele><time>2026-04-11T11:42:15.421Z</time></trkpt><trkpt lat="44.0081233" lon="11.287325"><ele>278.0</ele><time>2026-04-11T11:42:16.421Z</time></trkpt><trkpt lat="44.0079533" lon="11.2872283"><ele>277.6666666666667</ele><time>2026-04-11T11:42:17.421Z</time></trkpt><trkpt lat="44.0077767" lon="11.2871217"><ele>277.3333333333333</ele><time>2026-04-11T11:42:18.422Z</time></trkpt><trkpt lat="44.00759" lon="11.2870017"><ele>277.0</ele><time>2026-04-11T11:42:19.421Z</time></trkpt><trkpt lat="44.0073933" lon="11.2868583"><ele>276.0</ele><time>2026-04-11T11:42:20.422Z</time></trkpt><trkpt lat="44.0071967" lon="11.2867067"><ele>275.0</ele><time>2026-04-11T11:42:21.421Z</time></trkpt><trkpt lat="44.0069967" lon="11.2865617"><ele>274.0</ele><time>2026-04-11T11:42:22.42Z</time></trkpt><trkpt lat="44.0067867" lon="11.286425"><ele>273.0</ele><time>2026-04-11T11:42:23.422Z</time></trkpt><trkpt lat="44.00657" lon="11.286295"><ele>271.5</ele><time>2026-04-11T11:42:24.422Z</time></trkpt><trkpt lat="44.0063467" lon="11.2861633"><ele>270.0</ele><time>2026-04-11T11:42:25.421Z</time></trkpt><trkpt lat="44.0061267" lon="11.2860333"><ele>270.0</ele><time>2026-04-11T11:42:26.423Z</time></trkpt><trkpt lat="44.0059217" lon="11.285905"><ele>270.0</ele><time>2026-04-11T11:42:27.422Z</time></trkpt><trkpt lat="44.0057267" lon="11.2857833"><ele>270.0</ele><time>2026-04-11T11:42:28.42Z</time></trkpt><trkpt lat="44.00554" lon="11.285675"><ele>269.6666666666667</ele><time>2026-04-11T11:42:29.421Z</time></trkpt><trkpt lat="44.005365" lon="11.285575"><ele>269.33333333333337</ele><time>2026-04-11T11:42:30.42Z</time></trkpt><trkpt lat="44.0052017" lon="11.2854817"><ele>269.0</ele><time>2026-04-11T11:42:31.422Z</time></trkpt><trkpt lat="44.005045" lon="11.28539"><ele>268.33333333333337</ele><time>2026-04-11T11:42:32.422Z</time></trkpt><trkpt lat="44.0048867" lon="11.2853033"><ele>267.6666666666667</ele><time>2026-04-11T11:42:33.423Z</time></trkpt><trkpt lat="44.0047317" lon="11.2852167"><ele>267.0</ele><time>2026-04-11T11:42:34.421Z</time></trkpt><trkpt lat="44.0045783" lon="11.28513"><ele>267.0</ele><time>2026-04-11T11:42:35.421Z</time></trkpt><trkpt lat="44.0044283" lon="11.2850483"><ele>267.0</ele><time>2026-04-11T11:42:36.422Z</time></trkpt><trkpt lat="44.00429" lon="11.2849667"><ele>267.0</ele><time>2026-04-11T11:42:37.423Z</time></trkpt><trkpt lat="44.0041533" lon="11.2848867"><ele>266.75</ele><time>2026-04-11T11:42:38.421Z</time></trkpt><trkpt lat="44.0040183" lon="11.2848067"><ele>266.5</ele><time>2026-04-11T11:42:39.422Z</time></trkpt><trkpt lat="44.0038883" lon="11.284735"><ele>266.25</ele><time>2026-04-11T11:42:40.42Z</time></trkpt><trkpt lat="44.0037567" lon="11.2846667"><ele>266.0</ele><time>2026-04-11T11:42:41.421Z</time></trkpt><trkpt lat="44.00362" lon="11.2846083"><ele>265.75</ele><time>2026-04-11T11:42:42.422Z</time></trkpt><trkpt lat="44.00348" lon="11.2845633"><ele>265.5</ele><time>2026-04-11T11:42:43.42Z</time></trkpt><trkpt lat="44.0033367" lon="11.2845317"><ele>265.25</ele><time>2026-04-11T11:42:44.421Z</time></trkpt><trkpt lat="44.0031883" lon="11.2845133"><ele>265.0</ele><time>2026-04-11T11:42:45.421Z</time></trkpt><trkpt lat="44.00304" lon="11.2845117"><ele>265.0</ele><time>2026-04-11T11:42:46.419Z</time></trkpt><trkpt lat="44.0028867" lon="11.2845233"><ele>265.0</ele><time>2026-04-11T11:42:47.421Z</time></trkpt><trkpt lat="44.002745" lon="11.284545"><ele>265.0</ele><time>2026-04-11T11:42:48.422Z</time></trkpt><trkpt lat="44.0026283" lon="11.284565"><ele>265.0</ele><time>2026-04-11T11:42:49.421Z</time></trkpt><trkpt lat="44.0025417" lon="11.284585"><ele>264.5</ele><time>2026-04-11T11:42:50.422Z</time></trkpt><trkpt lat="44.0024767" lon="11.2846"><ele>264.0</ele><time>2026-04-11T11:42:51.422Z</time></trkpt><trkpt lat="44.0024133" lon="11.2846083"><ele>263.5</ele><time>2026-04-11T11:42:53.419Z</time></trkpt><trkpt lat="44.0023317" lon="11.2846067"><ele>263.0</ele><time>2026-04-11T11:43:09.422Z</time></trkpt><trkpt lat="44.002285" lon="11.284485"><ele>262.5</ele><time>2026-04-11T11:43:12.423Z</time></trkpt><trkpt lat="44.0022717" lon="11.2843517"><ele>262.0</ele><time>2026-04-11T11:43:14.421Z</time></trkpt><trkpt lat="44.002265" lon="11.2841983"><ele>262.0</ele><time>2026-04-11T11:43:16.421Z</time></trkpt><trkpt lat="44.0022667" lon="11.2840417"><ele>262.0</ele><time>2026-04-11T11:43:18.421Z</time></trkpt><trkpt lat="44.0022533" lon="11.2838633"><ele>262.0</ele><time>2026-04-11T11:43:20.421Z</time></trkpt><trkpt lat="44.00225" lon="11.283765"><ele>262.0</ele><time>2026-04-11T11:43:21.422Z</time></trkpt><trkpt lat="44.0022483" lon="11.2836617"><ele>262.0</ele><time>2026-04-11T11:43:22.421Z</time></trkpt><trkpt lat="44.0022467" lon="11.2835533"><ele>262.0</ele><time>2026-04-11T11:43:23.422Z</time></trkpt><trkpt lat="44.0022467" lon="11.2834433"><ele>262.0</ele><time>2026-04-11T11:43:24.422Z</time></trkpt><trkpt lat="44.002245" lon="11.283325"><ele>262.0</ele><time>2026-04-11T11:43:25.422Z</time></trkpt><trkpt lat="44.0022433" lon="11.2831983"><ele>262.0</ele><time>2026-04-11T11:43:26.422Z</time></trkpt><trkpt lat="44.0022433" lon="11.2830633"><ele>262.0</ele><time>2026-04-11T11:43:27.422Z</time></trkpt><trkpt lat="44.00224" lon="11.2829267"><ele>261.66666666666663</ele><time>2026-04-11T11:43:28.421Z</time></trkpt><trkpt lat="44.0022367" lon="11.2827917"><ele>261.3333333333333</ele><time>2026-04-11T11:43:29.422Z</time></trkpt><trkpt lat="44.0022317" lon="11.282665"><ele>261.0</ele><time>2026-04-11T11:43:30.422Z</time></trkpt><trkpt lat="44.00223" lon="11.282545"><ele>260.6666666666667</ele><time>2026-04-11T11:43:31.421Z</time></trkpt><trkpt lat="44.00223" lon="11.2824417"><ele>260.33333333333337</ele><time>2026-04-11T11:43:32.423Z</time></trkpt><trkpt lat="44.0022333" lon="11.2823467"><ele>260.0</ele><time>2026-04-11T11:43:33.421Z</time></trkpt><trkpt lat="44.0022383" lon="11.2822533"><ele>259.4</ele><time>2026-04-11T11:43:34.421Z</time></trkpt><trkpt lat="44.00225" lon="11.2821617"><ele>258.8</ele><time>2026-04-11T11:43:35.422Z</time></trkpt><trkpt lat="44.0022933" lon="11.282005"><ele>258.2</ele><time>2026-04-11T11:43:37.422Z</time></trkpt><trkpt lat="44.002365" lon="11.2818617"><ele>257.6</ele><time>2026-04-11T11:43:39.422Z</time></trkpt><trkpt lat="44.0024017" lon="11.2817883"><ele>257.0</ele><time>2026-04-11T11:43:40.422Z</time></trkpt><trkpt lat="44.0024633" lon="11.28166"><ele>257.0</ele><time>2026-04-11T11:43:42.422Z</time></trkpt><trkpt lat="44.002505" lon="11.281585"><ele>257.0</ele><time>2026-04-11T11:43:44.42Z</time></trkpt><trkpt lat="44.0025067" lon="11.2814633"><ele>257.0</ele><time>2026-04-11T11:43:48.422Z</time></trkpt><trkpt lat="44.00248" lon="11.2813817"><ele>257.0</ele><time>2026-04-11T11:43:50.422Z</time></trkpt><trkpt lat="44.0024283" lon="11.2812917"><ele>257.0</ele><time>2026-04-11T11:43:53.422Z</time></trkpt><trkpt lat="44.0023483" lon="11.2812683"><ele>257.0</ele><time>2026-04-11T11:43:56.422Z</time></trkpt><trkpt lat="44.0022767" lon="11.2812417"><ele>257.0</ele><time>2026-04-11T11:44:05.422Z</time></trkpt><trkpt lat="44.0021783" lon="11.2812"><ele>257.0</ele><time>2026-04-11T11:44:08.422Z</time></trkpt><trkpt lat="44.00206" lon="11.28119"><ele>257.0</ele><time>2026-04-11T11:44:10.421Z</time></trkpt><trkpt lat="44.0019867" lon="11.2811933"><ele>257.0</ele><time>2026-04-11T11:44:11.42Z</time></trkpt><trkpt lat="44.0019167" lon="11.2812"><ele>257.0</ele><time>2026-04-11T11:44:12.421Z</time></trkpt><trkpt lat="44.0018517" lon="11.2812133"><ele>257.0</ele><time>2026-04-11T11:44:13.422Z</time></trkpt><trkpt lat="44.0017433" lon="11.2812667"><ele>256.8</ele><time>2026-04-11T11:44:15.422Z</time></trkpt><trkpt lat="44.0016433" lon="11.2813467"><ele>256.6</ele><time>2026-04-11T11:44:17.421Z</time></trkpt><trkpt lat="44.001555" lon="11.28143"><ele>256.40000000000003</ele><time>2026-04-11T11:44:19.422Z</time></trkpt><trkpt lat="44.00149" lon="11.2815167"><ele>256.2</ele><time>2026-04-11T11:44:21.42Z</time></trkpt><trkpt lat="44.0014383" lon="11.2815917"><ele>256.0</ele><time>2026-04-11T11:44:23.421Z</time></trkpt><trkpt lat="44.0013733" lon="11.2816367"><ele>255.4</ele><time>2026-04-11T11:44:25.423Z</time></trkpt><trkpt lat="44.0012717" lon="11.2816583"><ele>254.8</ele><time>2026-04-11T11:44:27.422Z</time></trkpt><trkpt lat="44.0011467" lon="11.28168"><ele>254.20000000000002</ele><time>2026-04-11T11:44:29.42Z</time></trkpt><trkpt lat="44.0010383" lon="11.2817117"><ele>253.60000000000002</ele><time>2026-04-11T11:44:31.422Z</time></trkpt><trkpt lat="44.0009517" lon="11.2817533"><ele>253.0</ele><time>2026-04-11T11:44:33.421Z</time></trkpt><trkpt lat="44.000865" lon="11.2817867"><ele>252.83333333333331</ele><time>2026-04-11T11:44:35.421Z</time></trkpt><trkpt lat="44.0007533" lon="11.2817983"><ele>252.66666666666666</ele><time>2026-04-11T11:44:37.42Z</time></trkpt><trkpt lat="44.0006317" lon="11.2817833"><ele>252.5</ele><time>2026-04-11T11:44:39.42Z</time></trkpt><trkpt lat="44.0005717" lon="11.2817533"><ele>252.33333333333331</ele><time>2026-04-11T11:44:40.423Z</time></trkpt><trkpt lat="44.0005133" lon="11.2817133"><ele>252.16666666666666</ele><time>2026-04-11T11:44:41.421Z</time></trkpt><trkpt lat="44.0004567" lon="11.28166"><ele>252.0</ele><time>2026-04-11T11:44:42.42Z</time></trkpt><trkpt lat="44.0004" lon="11.2815967"><ele>252.0</ele><time>2026-04-11T11:44:43.42Z</time></trkpt><trkpt lat="44.0003417" lon="11.2815267"><ele>252.0</ele><time>2026-04-11T11:44:44.423Z</time></trkpt><trkpt lat="44.00028" lon="11.281455"><ele>252.0</ele><time>2026-04-11T11:44:45.421Z</time></trkpt><trkpt lat="44.0002117" lon="11.2813917"><ele>252.0</ele><time>2026-04-11T11:44:46.422Z</time></trkpt><trkpt lat="44.0001417" lon="11.2813317"><ele>252.0</ele><time>2026-04-11T11:44:47.421Z</time></trkpt><trkpt lat="44.0000667" lon="11.2812717"><ele>252.0</ele><time>2026-04-11T11:44:48.421Z</time></trkpt><trkpt lat="43.9999883" lon="11.2812117"><ele>252.33333333333334</ele><time>2026-04-11T11:44:49.422Z</time></trkpt><trkpt lat="43.9999117" lon="11.28115"><ele>252.66666666666669</ele><time>2026-04-11T11:44:50.422Z</time></trkpt><trkpt lat="43.9998383" lon="11.281085"><ele>253.0</ele><time>2026-04-11T11:44:51.424Z</time></trkpt><trkpt lat="43.9997683" lon="11.2810217"><ele>253.33333333333334</ele><time>2026-04-11T11:44:52.42Z</time></trkpt><trkpt lat="43.999695" lon="11.2809667"><ele>253.66666666666669</ele><time>2026-04-11T11:44:53.42Z</time></trkpt><trkpt lat="43.99961" lon="11.2809183"><ele>254.0</ele><time>2026-04-11T11:44:54.429Z</time></trkpt><trkpt lat="43.9995183" lon="11.28088"><ele>254.0</ele><time>2026-04-11T11:44:55.421Z</time></trkpt><trkpt lat="43.999415" lon="11.2808517"><ele>253.99999999999997</ele><time>2026-04-11T11:44:56.421Z</time></trkpt><trkpt lat="43.9993067" lon="11.28084"><ele>253.99999999999997</ele><time>2026-04-11T11:44:57.421Z</time></trkpt><trkpt lat="43.9991917" lon="11.2808233"><ele>254.0</ele><time>2026-04-11T11:44:58.422Z</time></trkpt><trkpt lat="43.999075" lon="11.2808067"><ele>254.0</ele><time>2026-04-11T11:44:59.422Z</time></trkpt><trkpt lat="43.9989667" lon="11.2807817"><ele>253.6</ele><time>2026-04-11T11:45:00.421Z</time></trkpt><trkpt lat="43.998855" lon="11.2807483"><ele>253.2</ele><time>2026-04-11T11:45:01.42Z</time></trkpt><trkpt lat="43.998745" lon="11.2807133"><ele>252.79999999999998</ele><time>2026-04-11T11:45:02.42Z</time></trkpt><trkpt lat="43.998635" lon="11.2806783"><ele>252.39999999999998</ele><time>2026-04-11T11:45:03.42Z</time></trkpt><trkpt lat="43.9985317" lon="11.2806433"><ele>252.0</ele><time>2026-04-11T11:45:04.421Z</time></trkpt><trkpt lat="43.9984333" lon="11.2806133"><ele>252.8</ele><time>2026-04-11T11:45:05.422Z</time></trkpt><trkpt lat="43.9983283" lon="11.2805833"><ele>253.6</ele><time>2026-04-11T11:45:06.422Z</time></trkpt><trkpt lat="43.9982267" lon="11.28056"><ele>254.40000000000003</ele><time>2026-04-11T11:45:07.423Z</time></trkpt><trkpt lat="43.998125" lon="11.2805383"><ele>255.20000000000002</ele><time>2026-04-11T11:45:08.422Z</time></trkpt><trkpt lat="43.9980283" lon="11.2805183"><ele>256.0</ele><time>2026-04-11T11:45:09.421Z</time></trkpt><trkpt lat="43.9979333" lon="11.2804983"><ele>255.99999999999997</ele><time>2026-04-11T11:45:10.421Z</time></trkpt><trkpt lat="43.9978533" lon="11.2804717"><ele>256.0</ele><time>2026-04-11T11:45:11.422Z</time></trkpt><trkpt lat="43.99779" lon="11.28043"><ele>256.0</ele><time>2026-04-11T11:45:12.422Z</time></trkpt><trkpt lat="43.99773" lon="11.28036"><ele>256.0</ele><time>2026-04-11T11:45:13.423Z</time></trkpt><trkpt lat="43.997675" lon="11.2802717"><ele>255.99999999999997</ele><time>2026-04-11T11:45:14.422Z</time></trkpt><trkpt lat="43.9976183" lon="11.2801517"><ele>256.0</ele><time>2026-04-11T11:45:15.42Z</time></trkpt><trkpt lat="43.99756" lon="11.2800283"><ele>256.0</ele><time>2026-04-11T11:45:16.421Z</time></trkpt><trkpt lat="43.9975067" lon="11.279915"><ele>256.0</ele><time>2026-04-11T11:45:17.421Z</time></trkpt><trkpt lat="43.997445" lon="11.279825"><ele>256.0</ele><time>2026-04-11T11:45:18.422Z</time></trkpt><trkpt lat="43.9973733" lon="11.2797483"><ele>256.0</ele><time>2026-04-11T11:45:19.421Z</time></trkpt><trkpt lat="43.9973" lon="11.279665"><ele>256.0</ele><time>2026-04-11T11:45:20.421Z</time></trkpt><trkpt lat="43.9972233" lon="11.2795833"><ele>255.8</ele><time>2026-04-11T11:45:21.421Z</time></trkpt><trkpt lat="43.9971417" lon="11.2795067"><ele>255.60000000000002</ele><time>2026-04-11T11:45:22.422Z</time></trkpt><trkpt lat="43.9970533" lon="11.27944"><ele>255.4</ele><time>2026-04-11T11:45:23.421Z</time></trkpt><trkpt lat="43.9969633" lon="11.2793767"><ele>255.2</ele><time>2026-04-11T11:45:24.422Z</time></trkpt><trkpt lat="43.9968733" lon="11.279315"><ele>255.0</ele><time>2026-04-11T11:45:25.421Z</time></trkpt><trkpt lat="43.996785" lon="11.2792567"><ele>255.0</ele><time>2026-04-11T11:45:26.422Z</time></trkpt><trkpt lat="43.9966967" lon="11.2792"><ele>255.0</ele><time>2026-04-11T11:45:27.421Z</time></trkpt><trkpt lat="43.9966133" lon="11.279145"><ele>255.0</ele><time>2026-04-11T11:45:28.421Z</time></trkpt><trkpt lat="43.9965367" lon="11.279095"><ele>255.0</ele><time>2026-04-11T11:45:29.42Z</time></trkpt><trkpt lat="43.9964633" lon="11.2790467"><ele>255.0</ele><time>2026-04-11T11:45:30.422Z</time></trkpt><trkpt lat="43.996395" lon="11.279005"><ele>255.0</ele><time>2026-04-11T11:45:31.421Z</time></trkpt><trkpt lat="43.9963333" lon="11.2789667"><ele>255.0</ele><time>2026-04-11T11:45:32.421Z</time></trkpt><trkpt lat="43.9962333" lon="11.2789033"><ele>255.0</ele><time>2026-04-11T11:45:34.422Z</time></trkpt><trkpt lat="43.9961817" lon="11.27884"><ele>255.0</ele><time>2026-04-11T11:45:36.421Z</time></trkpt><trkpt lat="43.9961967" lon="11.2787033"><ele>255.0</ele><time>2026-04-11T11:45:39.422Z</time></trkpt><trkpt lat="43.9962483" lon="11.2785567"><ele>255.0</ele><time>2026-04-11T11:45:41.42Z</time></trkpt><trkpt lat="43.996275" lon="11.278475"><ele>255.0</ele><time>2026-04-11T11:45:42.422Z</time></trkpt><trkpt lat="43.9963017" lon="11.2783917"><ele>255.0</ele><time>2026-04-11T11:45:43.419Z</time></trkpt><trkpt lat="43.9963283" lon="11.27831"><ele>255.0</ele><time>2026-04-11T11:45:44.422Z</time></trkpt><trkpt lat="43.9963567" lon="11.2782217"><ele>255.0</ele><time>2026-04-11T11:45:45.421Z</time></trkpt><trkpt lat="43.9963817" lon="11.27814"><ele>255.0</ele><time>2026-04-11T11:45:46.423Z</time></trkpt><trkpt lat="43.99643" lon="11.2779833"><ele>255.0</ele><time>2026-04-11T11:45:48.421Z</time></trkpt><trkpt lat="43.9964767" lon="11.27784"><ele>255.2</ele><time>2026-04-11T11:45:50.421Z</time></trkpt><trkpt lat="43.99652" lon="11.277725"><ele>255.4</ele><time>2026-04-11T11:45:52.422Z</time></trkpt><trkpt lat="43.9965733" lon="11.2776267"><ele>255.60000000000002</ele><time>2026-04-11T11:45:54.422Z</time></trkpt><trkpt lat="43.996645" lon="11.2775183"><ele>255.8</ele><time>2026-04-11T11:45:56.421Z</time></trkpt><trkpt lat="43.9966933" lon="11.2774083"><ele>256.0</ele><time>2026-04-11T11:45:58.42Z</time></trkpt><trkpt lat="43.9967383" lon="11.27729"><ele>256.8</ele><time>2026-04-11T11:46:00.421Z</time></trkpt><trkpt lat="43.9967983" lon="11.2771733"><ele>257.6</ele><time>2026-04-11T11:46:02.422Z</time></trkpt><trkpt lat="43.99684" lon="11.277055"><ele>258.4</ele><time>2026-04-11T11:46:04.421Z</time></trkpt><trkpt lat="43.9968633" lon="11.276935"><ele>259.2</ele><time>2026-04-11T11:46:06.421Z</time></trkpt><trkpt lat="43.9968817" lon="11.2768067"><ele>260.0</ele><time>2026-04-11T11:46:08.421Z</time></trkpt><trkpt lat="43.9968967" lon="11.2766767"><ele>260.0</ele><time>2026-04-11T11:46:10.421Z</time></trkpt><trkpt lat="43.99692" lon="11.2765133"><ele>260.0</ele><time>2026-04-11T11:46:12.421Z</time></trkpt><trkpt lat="43.99694" lon="11.2763483"><ele>260.0</ele><time>2026-04-11T11:46:14.421Z</time></trkpt><trkpt lat="43.9969567" lon="11.2761883"><ele>260.0</ele><time>2026-04-11T11:46:16.422Z</time></trkpt><trkpt lat="43.9969683" lon="11.2761017"><ele>260.0</ele><time>2026-04-11T11:46:17.422Z</time></trkpt><trkpt lat="43.9969783" lon="11.2760117"><ele>261.0</ele><time>2026-04-11T11:46:18.422Z</time></trkpt><trkpt lat="43.9969867" lon="11.275915"><ele>262.0</ele><time>2026-04-11T11:46:19.42Z</time></trkpt><trkpt lat="43.9969933" lon="11.2758167"><ele>263.0</ele><time>2026-04-11T11:46:20.422Z</time></trkpt><trkpt lat="43.9970017" lon="11.2757267"><ele>264.0</ele><time>2026-04-11T11:46:21.421Z</time></trkpt><trkpt lat="43.99702" lon="11.2755583"><ele>265.0</ele><time>2026-04-11T11:46:23.422Z</time></trkpt><trkpt lat="43.9970283" lon="11.2753867"><ele>266.2</ele><time>2026-04-11T11:46:25.422Z</time></trkpt><trkpt lat="43.9970317" lon="11.275295"><ele>267.4</ele><time>2026-04-11T11:46:26.421Z</time></trkpt><trkpt lat="43.9970333" lon="11.275205"><ele>268.6</ele><time>2026-04-11T11:46:27.421Z</time></trkpt><trkpt lat="43.9970433" lon="11.2750433"><ele>269.8</ele><time>2026-04-11T11:46:29.422Z</time></trkpt><trkpt lat="43.99706" lon="11.2748817"><ele>271.0</ele><time>2026-04-11T11:46:31.421Z</time></trkpt><trkpt lat="43.9970633" lon="11.2747183"><ele>272.8</ele><time>2026-04-11T11:46:33.423Z</time></trkpt><trkpt lat="43.9970633" lon="11.2746267"><ele>274.6</ele><time>2026-04-11T11:46:34.42Z</time></trkpt><trkpt lat="43.9970417" lon="11.2744617"><ele>276.4</ele><time>2026-04-11T11:46:36.422Z</time></trkpt><trkpt lat="43.9970267" lon="11.2743417"><ele>278.2</ele><time>2026-04-11T11:46:38.422Z</time></trkpt><trkpt lat="43.9970617" lon="11.2742533"><ele>280.0</ele><time>2026-04-11T11:46:41.421Z</time></trkpt><trkpt lat="43.9971467" lon="11.274165"><ele>280.0</ele><time>2026-04-11T11:46:44.423Z</time></trkpt><trkpt lat="43.99721" lon="11.2741117"><ele>280.0</ele><time>2026-04-11T11:46:46.422Z</time></trkpt><trkpt lat="43.9972817" lon="11.2740567"><ele>280.0</ele><time>2026-04-11T11:46:48.422Z</time></trkpt><trkpt lat="43.9973717" lon="11.2740017"><ele>280.0</ele><time>2026-04-11T11:46:50.422Z</time></trkpt><trkpt lat="43.99747" lon="11.27395"><ele>280.0</ele><time>2026-04-11T11:46:52.423Z</time></trkpt><trkpt lat="43.9975417" lon="11.2739217"><ele>280.0</ele><time>2026-04-11T11:46:54.421Z</time></trkpt><trkpt lat="43.9976583" lon="11.2738667"><ele>283.0</ele><time>2026-04-11T11:46:56.422Z</time></trkpt><trkpt lat="43.9977667" lon="11.273815"><ele>286.0</ele><time>2026-04-11T11:46:58.423Z</time></trkpt><trkpt lat="43.9978333" lon="11.2737917"><ele>289.0</ele><time>2026-04-11T11:46:59.423Z</time></trkpt><trkpt lat="43.9979383" lon="11.2737467"><ele>292.0</ele><time>2026-04-11T11:47:01.422Z</time></trkpt><trkpt lat="43.99805" lon="11.2737167"><ele>295.0</ele><time>2026-04-11T11:47:03.422Z</time></trkpt><trkpt lat="43.9981533" lon="11.2737033"><ele>295.0</ele><time>2026-04-11T11:47:05.423Z</time></trkpt><trkpt lat="43.9982317" lon="11.2736933"><ele>295.0</ele><time>2026-04-11T11:47:06.424Z</time></trkpt><trkpt lat="43.9983283" lon="11.27368"><ele>295.0</ele><time>2026-04-11T11:47:07.424Z</time></trkpt><trkpt lat="43.9984217" lon="11.27367"><ele>295.0</ele><time>2026-04-11T11:47:08.421Z</time></trkpt><trkpt lat="43.998505" lon="11.2736717"><ele>295.0</ele><time>2026-04-11T11:47:09.422Z</time></trkpt><trkpt lat="43.9986017" lon="11.2736583"><ele>298.2</ele><time>2026-04-11T11:47:11.422Z</time></trkpt><trkpt lat="43.99869" lon="11.2736517"><ele>301.4</ele><time>2026-04-11T11:47:13.423Z</time></trkpt><trkpt lat="43.998815" lon="11.27366"><ele>304.6</ele><time>2026-04-11T11:47:15.423Z</time></trkpt><trkpt lat="43.99891" lon="11.273685"><ele>307.8</ele><time>2026-04-11T11:47:17.422Z</time></trkpt><trkpt lat="43.9990033" lon="11.2737067"><ele>311.0</ele><time>2026-04-11T11:47:19.421Z</time></trkpt><trkpt lat="43.9990883" lon="11.2737083"><ele>313.0</ele><time>2026-04-11T11:47:20.423Z</time></trkpt><trkpt lat="43.9992117" lon="11.2736833"><ele>315.0</ele><time>2026-04-11T11:47:22.422Z</time></trkpt><trkpt lat="43.999275" lon="11.2736633"><ele>317.0</ele><time>2026-04-11T11:47:23.423Z</time></trkpt><trkpt lat="43.9993733" lon="11.27358"><ele>319.0</ele><time>2026-04-11T11:47:25.422Z</time></trkpt><trkpt lat="43.999425" lon="11.2734633"><ele>321.0</ele><time>2026-04-11T11:47:27.422Z</time></trkpt><trkpt lat="43.9994783" lon="11.2733317"><ele>321.0</ele><time>2026-04-11T11:47:29.422Z</time></trkpt><trkpt lat="43.9995267" lon="11.2732683"><ele>321.0</ele><time>2026-04-11T11:47:30.422Z</time></trkpt><trkpt lat="43.99958" lon="11.273205"><ele>321.0</ele><time>2026-04-11T11:47:31.422Z</time></trkpt><trkpt lat="43.9996617" lon="11.2731117"><ele>321.0</ele><time>2026-04-11T11:47:33.422Z</time></trkpt><trkpt lat="43.9997217" lon="11.2730367"><ele>321.0</ele><time>2026-04-11T11:47:35.422Z</time></trkpt><trkpt lat="43.9997883" lon="11.2729383"><ele>321.0</ele><time>2026-04-11T11:47:37.422Z</time></trkpt><trkpt lat="43.9998683" lon="11.2728017"><ele>322.6</ele><time>2026-04-11T11:47:39.42Z</time></trkpt><trkpt lat="43.9999033" lon="11.2727267"><ele>324.20000000000005</ele><time>2026-04-11T11:47:40.42Z</time></trkpt><trkpt lat="43.9999467" lon="11.2725717"><ele>325.79999999999995</ele><time>2026-04-11T11:47:42.421Z</time></trkpt><trkpt lat="43.9999583" lon="11.2724083"><ele>327.4</ele><time>2026-04-11T11:47:44.421Z</time></trkpt><trkpt lat="43.9999567" lon="11.272265"><ele>329.0</ele><time>2026-04-11T11:47:46.423Z</time></trkpt><trkpt lat="43.9999583" lon="11.2721733"><ele>329.0</ele><time>2026-04-11T11:47:47.421Z</time></trkpt><trkpt lat="44.000015" lon="11.272005"><ele>329.0</ele><time>2026-04-11T11:47:49.421Z</time></trkpt><trkpt lat="44.0000433" lon="11.2719267"><ele>329.0</ele><time>2026-04-11T11:47:50.423Z</time></trkpt><trkpt lat="44.0000733" lon="11.2718367"><ele>329.0</ele><time>2026-04-11T11:47:51.421Z</time></trkpt><trkpt lat="44.0001467" lon="11.27171"><ele>329.0</ele><time>2026-04-11T11:47:53.422Z</time></trkpt><trkpt lat="44.00024" lon="11.2716133"><ele>329.0</ele><time>2026-04-11T11:47:55.422Z</time></trkpt><trkpt lat="44.0003" lon="11.2715667"><ele>329.0</ele><time>2026-04-11T11:47:56.422Z</time></trkpt><trkpt lat="44.00036" lon="11.2715233"><ele>329.0</ele><time>2026-04-11T11:47:57.422Z</time></trkpt><trkpt lat="44.000425" lon="11.2714767"><ele>329.0</ele><time>2026-04-11T11:47:58.421Z</time></trkpt><trkpt lat="44.0005033" lon="11.2714433"><ele>329.0</ele><time>2026-04-11T11:47:59.422Z</time></trkpt><trkpt lat="44.0005783" lon="11.27142"><ele>329.0</ele><time>2026-04-11T11:48:00.421Z</time></trkpt><trkpt lat="44.0006767" lon="11.2713783"><ele>328.33333333333337</ele><time>2026-04-11T11:48:01.422Z</time></trkpt><trkpt lat="44.00076" lon="11.2713467"><ele>327.6666666666667</ele><time>2026-04-11T11:48:02.422Z</time></trkpt><trkpt lat="44.0008483" lon="11.2712983"><ele>327.0</ele><time>2026-04-11T11:48:03.422Z</time></trkpt><trkpt lat="44.000925" lon="11.271255"><ele>326.3333333333333</ele><time>2026-04-11T11:48:04.421Z</time></trkpt><trkpt lat="44.0009967" lon="11.2712133"><ele>325.66666666666663</ele><time>2026-04-11T11:48:05.423Z</time></trkpt><trkpt lat="44.0010683" lon="11.2711583"><ele>325.0</ele><time>2026-04-11T11:48:07.421Z</time></trkpt><trkpt lat="44.0011333" lon="11.2710733"><ele>327.0</ele><time>2026-04-11T11:48:08.423Z</time></trkpt><trkpt lat="44.001185" lon="11.2709817"><ele>329.0</ele><time>2026-04-11T11:48:09.422Z</time></trkpt><trkpt lat="44.0012267" lon="11.2708383"><ele>331.0</ele><time>2026-04-11T11:48:11.423Z</time></trkpt><trkpt lat="44.0012267" lon="11.2706733"><ele>333.0</ele><time>2026-04-11T11:48:13.423Z</time></trkpt><trkpt lat="44.0011833" lon="11.2705367"><ele>335.0</ele><time>2026-04-11T11:48:15.422Z</time></trkpt><trkpt lat="44.0011717" lon="11.27045"><ele>336.1666666666667</ele><time>2026-04-11T11:48:16.422Z</time></trkpt><trkpt lat="44.00113" lon="11.2703817"><ele>337.33333333333337</ele><time>2026-04-11T11:48:17.421Z</time></trkpt><trkpt lat="44.001045" lon="11.2703083"><ele>338.5</ele><time>2026-04-11T11:48:19.42Z</time></trkpt><trkpt lat="44.00096" lon="11.2702683"><ele>339.6666666666667</ele><time>2026-04-11T11:48:20.421Z</time></trkpt><trkpt lat="44.00087" lon="11.2702383"><ele>340.8333333333333</ele><time>2026-04-11T11:48:21.421Z</time></trkpt><trkpt lat="44.000805" lon="11.2701783"><ele>342.0</ele><time>2026-04-11T11:48:22.421Z</time></trkpt><trkpt lat="44.0007417" lon="11.270105"><ele>341.99999999999994</ele><time>2026-04-11T11:48:23.422Z</time></trkpt><trkpt lat="44.000695" lon="11.27002"><ele>342.0</ele><time>2026-04-11T11:48:24.419Z</time></trkpt><trkpt lat="44.0006533" lon="11.2699383"><ele>342.0</ele><time>2026-04-11T11:48:25.42Z</time></trkpt><trkpt lat="44.0006033" lon="11.26986"><ele>342.0</ele><time>2026-04-11T11:48:26.422Z</time></trkpt><trkpt lat="44.0005483" lon="11.2698"><ele>342.0</ele><time>2026-04-11T11:48:27.421Z</time></trkpt><trkpt lat="44.0004883" lon="11.269745"><ele>341.99999999999994</ele><time>2026-04-11T11:48:28.423Z</time></trkpt><trkpt lat="44.0004167" lon="11.2696883"><ele>342.0</ele><time>2026-04-11T11:48:29.422Z</time></trkpt><trkpt lat="44.0003433" lon="11.269625"><ele>342.5</ele><time>2026-04-11T11:48:30.422Z</time></trkpt><trkpt lat="44.0002833" lon="11.269585"><ele>343.0</ele><time>2026-04-11T11:48:31.42Z</time></trkpt><trkpt lat="44.000205" lon="11.269565"><ele>343.5</ele><time>2026-04-11T11:48:33.421Z</time></trkpt><trkpt lat="44.00011" lon="11.26956"><ele>344.0</ele><time>2026-04-11T11:49:45.42Z</time></trkpt><trkpt lat="44.000055" lon="11.2694733"><ele>344.5</ele><time>2026-04-11T11:49:55.422Z</time></trkpt><trkpt lat="43.9999783" lon="11.26944"><ele>345.0</ele><time>2026-04-11T11:49:56.421Z</time></trkpt><trkpt lat="43.9998883" lon="11.269425"><ele>345.0</ele><time>2026-04-11T11:49:57.422Z</time></trkpt><trkpt lat="43.9997933" lon="11.2694033"><ele>345.0</ele><time>2026-04-11T11:49:58.421Z</time></trkpt><trkpt lat="43.999685" lon="11.2693633"><ele>345.0</ele><time>2026-04-11T11:49:59.42Z</time></trkpt><trkpt lat="43.9995767" lon="11.2693267"><ele>345.0</ele><time>2026-04-11T11:50:00.419Z</time></trkpt><trkpt lat="43.9994633" lon="11.2693033"><ele>345.0</ele><time>2026-04-11T11:50:01.42Z</time></trkpt><trkpt lat="43.99934" lon="11.2692717"><ele>345.0</ele><time>2026-04-11T11:50:02.42Z</time></trkpt><trkpt lat="43.9992183" lon="11.269235"><ele>345.0</ele><time>2026-04-11T11:50:03.419Z</time></trkpt><trkpt lat="43.99909" lon="11.2691917"><ele>345.0</ele><time>2026-04-11T11:50:04.419Z</time></trkpt><trkpt lat="43.998965" lon="11.2691533"><ele>345.0</ele><time>2026-04-11T11:50:05.421Z</time></trkpt><trkpt lat="43.9988433" lon="11.2691183"><ele>345.75</ele><time>2026-04-11T11:50:06.42Z</time></trkpt><trkpt lat="43.99872" lon="11.2690883"><ele>346.5</ele><time>2026-04-11T11:50:07.421Z</time></trkpt><trkpt lat="43.9986033" lon="11.269065"><ele>347.25</ele><time>2026-04-11T11:50:08.421Z</time></trkpt><trkpt lat="43.9984933" lon="11.2690367"><ele>348.0</ele><time>2026-04-11T11:50:09.422Z</time></trkpt><trkpt lat="43.9983817" lon="11.2690033"><ele>347.5</ele><time>2026-04-11T11:50:10.421Z</time></trkpt><trkpt lat="43.9982633" lon="11.26897"><ele>347.0</ele><time>2026-04-11T11:50:11.42Z</time></trkpt><trkpt lat="43.9981417" lon="11.26894"><ele>346.5</ele><time>2026-04-11T11:50:12.422Z</time></trkpt><trkpt lat="43.99802" lon="11.26892"><ele>346.0</ele><time>2026-04-11T11:50:13.419Z</time></trkpt><trkpt lat="43.997905" lon="11.26891"><ele>346.0</ele><time>2026-04-11T11:50:14.422Z</time></trkpt><trkpt lat="43.99779" lon="11.26891"><ele>346.0</ele><time>2026-04-11T11:50:15.421Z</time></trkpt><trkpt lat="43.997675" lon="11.2689133"><ele>346.0</ele><time>2026-04-11T11:50:16.423Z</time></trkpt><trkpt lat="43.9975583" lon="11.268915"><ele>346.0</ele><time>2026-04-11T11:50:17.42Z</time></trkpt><trkpt lat="43.9974433" lon="11.2689233"><ele>345.0</ele><time>2026-04-11T11:50:18.421Z</time></trkpt><trkpt lat="43.997325" lon="11.2689317"><ele>344.0</ele><time>2026-04-11T11:50:19.421Z</time></trkpt><trkpt lat="43.9972033" lon="11.26894"><ele>343.0</ele><time>2026-04-11T11:50:20.421Z</time></trkpt><trkpt lat="43.997085" lon="11.2689417"><ele>342.0</ele><time>2026-04-11T11:50:21.422Z</time></trkpt><trkpt lat="43.9969617" lon="11.2689333"><ele>342.0</ele><time>2026-04-11T11:50:22.422Z</time></trkpt><trkpt lat="43.99684" lon="11.268915"><ele>342.0</ele><time>2026-04-11T11:50:23.421Z</time></trkpt><trkpt lat="43.996725" lon="11.2688717"><ele>342.0</ele><time>2026-04-11T11:50:24.422Z</time></trkpt><trkpt lat="43.9966183" lon="11.26881"><ele>342.0</ele><time>2026-04-11T11:50:25.422Z</time></trkpt><trkpt lat="43.9965117" lon="11.2687333"><ele>341.0</ele><time>2026-04-11T11:50:26.423Z</time></trkpt><trkpt lat="43.9964083" lon="11.2686367"><ele>340.0</ele><time>2026-04-11T11:50:27.422Z</time></trkpt><trkpt lat="43.9963117" lon="11.26853"><ele>339.0</ele><time>2026-04-11T11:50:28.422Z</time></trkpt><trkpt lat="43.9962233" lon="11.268435"><ele>338.0</ele><time>2026-04-11T11:50:29.421Z</time></trkpt><trkpt lat="43.9961317" lon="11.26836"><ele>338.0</ele><time>2026-04-11T11:50:30.423Z</time></trkpt><trkpt lat="43.996035" lon="11.2683117"><ele>338.0</ele><time>2026-04-11T11:50:31.42Z</time></trkpt><trkpt lat="43.995925" lon="11.2683017"><ele>338.0</ele><time>2026-04-11T11:50:32.423Z</time></trkpt><trkpt lat="43.995795" lon="11.2683183"><ele>338.0</ele><time>2026-04-11T11:50:33.42Z</time></trkpt><trkpt lat="43.9956483" lon="11.2683483"><ele>338.5</ele><time>2026-04-11T11:50:34.422Z</time></trkpt><trkpt lat="43.9955117" lon="11.2683817"><ele>339.0</ele><time>2026-04-11T11:50:35.422Z</time></trkpt><trkpt lat="43.9953933" lon="11.2684283"><ele>339.5</ele><time>2026-04-11T11:50:36.422Z</time></trkpt><trkpt lat="43.99529" lon="11.2684983"><ele>340.0</ele><time>2026-04-11T11:50:37.422Z</time></trkpt><trkpt lat="43.9951933" lon="11.268595"><ele>340.0</ele><time>2026-04-11T11:50:38.422Z</time></trkpt><trkpt lat="43.9950967" lon="11.2687"><ele>340.0</ele><time>2026-04-11T11:50:39.421Z</time></trkpt><trkpt lat="43.9949867" lon="11.268785"><ele>340.0</ele><time>2026-04-11T11:50:40.421Z</time></trkpt><trkpt lat="43.9948583" lon="11.2688433"><ele>340.0</ele><time>2026-04-11T11:50:41.421Z</time></trkpt><trkpt lat="43.9947117" lon="11.2688767"><ele>339.25</ele><time>2026-04-11T11:50:42.421Z</time></trkpt><trkpt lat="43.9945567" lon="11.268895"><ele>338.5</ele><time>2026-04-11T11:50:43.422Z</time></trkpt><trkpt lat="43.9944067" lon="11.2689017"><ele>337.75</ele><time>2026-04-11T11:50:44.422Z</time></trkpt><trkpt lat="43.994265" lon="11.2688983"><ele>337.0</ele><time>2026-04-11T11:50:45.422Z</time></trkpt><trkpt lat="43.9941233" lon="11.2688867"><ele>334.25</ele><time>2026-04-11T11:50:46.422Z</time></trkpt><trkpt lat="43.99399" lon="11.2688767"><ele>331.5</ele><time>2026-04-11T11:50:47.422Z</time></trkpt><trkpt lat="43.9938517" lon="11.2688683"><ele>328.75</ele><time>2026-04-11T11:50:48.421Z</time></trkpt><trkpt lat="43.993715" lon="11.2688867"><ele>326.0</ele><time>2026-04-11T11:50:49.421Z</time></trkpt><trkpt lat="43.9935783" lon="11.268915"><ele>326.0</ele><time>2026-04-11T11:50:50.421Z</time></trkpt><trkpt lat="43.9934483" lon="11.2689417"><ele>326.0</ele><time>2026-04-11T11:50:51.421Z</time></trkpt><trkpt lat="43.99332" lon="11.268965"><ele>326.0</ele><time>2026-04-11T11:50:52.423Z</time></trkpt><trkpt lat="43.993195" lon="11.268995"><ele>326.0</ele><time>2026-04-11T11:50:53.423Z</time></trkpt><trkpt lat="43.993075" lon="11.26904"><ele>326.75</ele><time>2026-04-11T11:50:54.42Z</time></trkpt><trkpt lat="43.9929617" lon="11.2691017"><ele>327.5</ele><time>2026-04-11T11:50:55.422Z</time></trkpt><trkpt lat="43.9928483" lon="11.2691683"><ele>328.25</ele><time>2026-04-11T11:50:56.423Z</time></trkpt><trkpt lat="43.992735" lon="11.2692267"><ele>329.0</ele><time>2026-04-11T11:50:57.422Z</time></trkpt><trkpt lat="43.9926217" lon="11.2692683"><ele>329.0</ele><time>2026-04-11T11:50:58.421Z</time></trkpt><trkpt lat="43.9925067" lon="11.269285"><ele>329.0</ele><time>2026-04-11T11:50:59.42Z</time></trkpt><trkpt lat="43.9923867" lon="11.2692717"><ele>329.0</ele><time>2026-04-11T11:51:00.422Z</time></trkpt><trkpt lat="43.9922633" lon="11.2692267"><ele>329.0</ele><time>2026-04-11T11:51:01.42Z</time></trkpt><trkpt lat="43.9921383" lon="11.26917"><ele>327.79999999999995</ele><time>2026-04-11T11:51:02.422Z</time></trkpt><trkpt lat="43.9920233" lon="11.2691233"><ele>326.59999999999997</ele><time>2026-04-11T11:51:03.422Z</time></trkpt><trkpt lat="43.991915" lon="11.2691067"><ele>325.4</ele><time>2026-04-11T11:51:04.422Z</time></trkpt><trkpt lat="43.9918183" lon="11.2691317"><ele>324.2</ele><time>2026-04-11T11:51:05.421Z</time></trkpt><trkpt lat="43.9917367" lon="11.2692"><ele>323.0</ele><time>2026-04-11T11:51:06.422Z</time></trkpt><trkpt lat="43.991665" lon="11.269305"><ele>321.75</ele><time>2026-04-11T11:51:07.422Z</time></trkpt><trkpt lat="43.9916167" lon="11.2694317"><ele>320.5</ele><time>2026-04-11T11:51:08.421Z</time></trkpt><trkpt lat="43.991585" lon="11.2695833"><ele>319.25</ele><time>2026-04-11T11:51:09.422Z</time></trkpt><trkpt lat="43.9915733" lon="11.2697717"><ele>318.0</ele><time>2026-04-11T11:51:10.422Z</time></trkpt><trkpt lat="43.9915633" lon="11.2699783"><ele>318.0</ele><time>2026-04-11T11:51:11.423Z</time></trkpt><trkpt lat="43.9915333" lon="11.2701717"><ele>318.0</ele><time>2026-04-11T11:51:12.423Z</time></trkpt><trkpt lat="43.9914817" lon="11.2703483"><ele>318.0</ele><time>2026-04-11T11:51:13.422Z</time></trkpt><trkpt lat="43.9914067" lon="11.270495"><ele>318.0</ele><time>2026-04-11T11:51:14.422Z</time></trkpt><trkpt lat="43.9913133" lon="11.270625"><ele>317.75</ele><time>2026-04-11T11:51:15.422Z</time></trkpt><trkpt lat="43.9912083" lon="11.2707383"><ele>317.5</ele><time>2026-04-11T11:51:16.421Z</time></trkpt><trkpt lat="43.9910933" lon="11.2708517"><ele>317.25</ele><time>2026-04-11T11:51:17.421Z</time></trkpt><trkpt lat="43.9909667" lon="11.270965"><ele>317.0</ele><time>2026-04-11T11:51:18.421Z</time></trkpt><trkpt lat="43.990825" lon="11.2710933"><ele>316.33333333333337</ele><time>2026-04-11T11:51:19.422Z</time></trkpt><trkpt lat="43.9906817" lon="11.2712333"><ele>315.6666666666667</ele><time>2026-04-11T11:51:20.423Z</time></trkpt><trkpt lat="43.9905267" lon="11.27138"><ele>315.0</ele><time>2026-04-11T11:51:21.422Z</time></trkpt><trkpt lat="43.990375" lon="11.2715183"><ele>315.0</ele><time>2026-04-11T11:51:22.421Z</time></trkpt><trkpt lat="43.9902283" lon="11.2716533"><ele>315.0</ele><time>2026-04-11T11:51:23.421Z</time></trkpt><trkpt lat="43.990095" lon="11.27179"><ele>315.0</ele><time>2026-04-11T11:51:24.423Z</time></trkpt><trkpt lat="43.9899583" lon="11.2719183"><ele>312.0</ele><time>2026-04-11T11:51:25.423Z</time></trkpt><trkpt lat="43.9898233" lon="11.2720467"><ele>309.0</ele><time>2026-04-11T11:51:26.421Z</time></trkpt><trkpt lat="43.98969" lon="11.2721683"><ele>306.0</ele><time>2026-04-11T11:51:27.422Z</time></trkpt><trkpt lat="43.98956" lon="11.2722833"><ele>306.0</ele><time>2026-04-11T11:51:28.422Z</time></trkpt><trkpt lat="43.98944" lon="11.2723983"><ele>306.0</ele><time>2026-04-11T11:51:29.421Z</time></trkpt><trkpt lat="43.9893233" lon="11.2725033"><ele>306.0</ele><time>2026-04-11T11:51:30.422Z</time></trkpt><trkpt lat="43.9892033" lon="11.2725967"><ele>306.0</ele><time>2026-04-11T11:51:31.421Z</time></trkpt><trkpt lat="43.9890833" lon="11.27268"><ele>303.5</ele><time>2026-04-11T11:51:32.42Z</time></trkpt><trkpt lat="43.9889583" lon="11.2727567"><ele>301.0</ele><time>2026-04-11T11:51:33.421Z</time></trkpt><trkpt lat="43.9888333" lon="11.27283"><ele>298.5</ele><time>2026-04-11T11:51:34.422Z</time></trkpt><trkpt lat="43.9887167" lon="11.2729033"><ele>296.0</ele><time>2026-04-11T11:51:35.422Z</time></trkpt><trkpt lat="43.9886083" lon="11.2729667"><ele>296.0</ele><time>2026-04-11T11:51:36.421Z</time></trkpt><trkpt lat="43.9885017" lon="11.2730233"><ele>296.0</ele><time>2026-04-11T11:51:37.422Z</time></trkpt><trkpt lat="43.9884033" lon="11.2730667"><ele>296.0</ele><time>2026-04-11T11:51:38.421Z</time></trkpt><trkpt lat="43.9882933" lon="11.2731067"><ele>296.0</ele><time>2026-04-11T11:51:39.422Z</time></trkpt><trkpt lat="43.9881783" lon="11.2731433"><ele>296.0</ele><time>2026-04-11T11:51:40.421Z</time></trkpt><trkpt lat="43.9880617" lon="11.2731817"><ele>297.0</ele><time>2026-04-11T11:51:41.42Z</time></trkpt><trkpt lat="43.987925" lon="11.2732067"><ele>298.0</ele><time>2026-04-11T11:51:42.421Z</time></trkpt><trkpt lat="43.9877917" lon="11.273235"><ele>299.0</ele><time>2026-04-11T11:51:43.423Z</time></trkpt><trkpt lat="43.9876583" lon="11.273265"><ele>300.0</ele><time>2026-04-11T11:51:44.421Z</time></trkpt><trkpt lat="43.9875233" lon="11.273285"><ele>297.5</ele><time>2026-04-11T11:51:45.424Z</time></trkpt><trkpt lat="43.98739" lon="11.2733017"><ele>295.0</ele><time>2026-04-11T11:51:46.422Z</time></trkpt><trkpt lat="43.9872517" lon="11.27332"><ele>292.5</ele><time>2026-04-11T11:51:47.422Z</time></trkpt><trkpt lat="43.9871167" lon="11.2733333"><ele>290.0</ele><time>2026-04-11T11:51:48.423Z</time></trkpt><trkpt lat="43.98699" lon="11.2733483"><ele>290.0</ele><time>2026-04-11T11:51:49.422Z</time></trkpt><trkpt lat="43.986865" lon="11.2733617"><ele>290.0</ele><time>2026-04-11T11:51:50.42Z</time></trkpt><trkpt lat="43.9867483" lon="11.2733733"><ele>290.0</ele><time>2026-04-11T11:51:51.421Z</time></trkpt><trkpt lat="43.9866383" lon="11.273385"><ele>290.0</ele><time>2026-04-11T11:51:52.422Z</time></trkpt><trkpt lat="43.986535" lon="11.273395"><ele>289.2</ele><time>2026-04-11T11:51:53.421Z</time></trkpt><trkpt lat="43.9864383" lon="11.273405"><ele>288.4</ele><time>2026-04-11T11:51:54.421Z</time></trkpt><trkpt lat="43.9863533" lon="11.273415"><ele>287.6</ele><time>2026-04-11T11:51:55.421Z</time></trkpt><trkpt lat="43.9862683" lon="11.27342"><ele>286.8</ele><time>2026-04-11T11:51:56.42Z</time></trkpt><trkpt lat="43.9862" lon="11.273425"><ele>286.0</ele><time>2026-04-11T11:51:57.421Z</time></trkpt><trkpt lat="43.986085" lon="11.27341"><ele>286.0</ele><time>2026-04-11T11:51:59.422Z</time></trkpt><trkpt lat="43.98599" lon="11.2733517"><ele>286.0</ele><time>2026-04-11T11:52:01.423Z</time></trkpt><trkpt lat="43.9859367" lon="11.2732467"><ele>286.0</ele><time>2026-04-11T11:52:03.422Z</time></trkpt><trkpt lat="43.9859333" lon="11.2731033"><ele>286.0</ele><time>2026-04-11T11:52:05.421Z</time></trkpt><trkpt lat="43.9860017" lon="11.2729467"><ele>286.0</ele><time>2026-04-11T11:52:07.421Z</time></trkpt><trkpt lat="43.9860667" lon="11.2728833"><ele>284.8</ele><time>2026-04-11T11:52:08.423Z</time></trkpt><trkpt lat="43.9861467" lon="11.27283"><ele>283.6</ele><time>2026-04-11T11:52:09.421Z</time></trkpt><trkpt lat="43.9862383" lon="11.2727767"><ele>282.4</ele><time>2026-04-11T11:52:10.421Z</time></trkpt><trkpt lat="43.986335" lon="11.2727183"><ele>281.2</ele><time>2026-04-11T11:52:11.421Z</time></trkpt><trkpt lat="43.98644" lon="11.2726517"><ele>280.0</ele><time>2026-04-11T11:52:12.423Z</time></trkpt><trkpt lat="43.986555" lon="11.2725767"><ele>280.0</ele><time>2026-04-11T11:52:13.422Z</time></trkpt><trkpt lat="43.9866783" lon="11.2724917"><ele>280.0</ele><time>2026-04-11T11:52:14.421Z</time></trkpt><trkpt lat="43.9868067" lon="11.2723933"><ele>280.0</ele><time>2026-04-11T11:52:15.422Z</time></trkpt><trkpt lat="43.9869317" lon="11.272285"><ele>280.0</ele><time>2026-04-11T11:52:16.421Z</time></trkpt><trkpt lat="43.987055" lon="11.2721683"><ele>278.66666666666663</ele><time>2026-04-11T11:52:17.421Z</time></trkpt><trkpt lat="43.9871783" lon="11.2720383"><ele>277.3333333333333</ele><time>2026-04-11T11:52:18.42Z</time></trkpt><trkpt lat="43.987295" lon="11.271895"><ele>276.0</ele><time>2026-04-11T11:52:19.422Z</time></trkpt><trkpt lat="43.9874083" lon="11.2717417"><ele>276.3333333333333</ele><time>2026-04-11T11:52:20.422Z</time></trkpt><trkpt lat="43.9875183" lon="11.27158"><ele>276.66666666666663</ele><time>2026-04-11T11:52:21.421Z</time></trkpt><trkpt lat="43.9876267" lon="11.271405"><ele>277.0</ele><time>2026-04-11T11:52:22.421Z</time></trkpt><trkpt lat="43.9877317" lon="11.2712233"><ele>275.0</ele><time>2026-04-11T11:52:23.421Z</time></trkpt><trkpt lat="43.9878333" lon="11.2710367"><ele>273.0</ele><time>2026-04-11T11:52:24.422Z</time></trkpt><trkpt lat="43.9879333" lon="11.27084"><ele>271.0</ele><time>2026-04-11T11:52:25.422Z</time></trkpt><trkpt lat="43.98803" lon="11.2706383"><ele>269.66666666666663</ele><time>2026-04-11T11:52:26.422Z</time></trkpt><trkpt lat="43.9881217" lon="11.27043"><ele>268.3333333333333</ele><time>2026-04-11T11:52:27.422Z</time></trkpt><trkpt lat="43.988205" lon="11.2702167"><ele>267.0</ele><time>2026-04-11T11:52:28.422Z</time></trkpt><trkpt lat="43.98828" lon="11.2699983"><ele>269.3333333333333</ele><time>2026-04-11T11:52:29.421Z</time></trkpt><trkpt lat="43.98835" lon="11.2697733"><ele>271.66666666666663</ele><time>2026-04-11T11:52:30.421Z</time></trkpt><trkpt lat="43.9884133" lon="11.2695517"><ele>274.0</ele><time>2026-04-11T11:52:31.421Z</time></trkpt><trkpt lat="43.9884717" lon="11.269325"><ele>274.0</ele><time>2026-04-11T11:52:32.422Z</time></trkpt><trkpt lat="43.988525" lon="11.269095"><ele>274.0</ele><time>2026-04-11T11:52:33.419Z</time></trkpt><trkpt lat="43.98857" lon="11.268865"><ele>274.0</ele><time>2026-04-11T11:52:34.422Z</time></trkpt><trkpt lat="43.9886117" lon="11.2686267"><ele>276.3333333333333</ele><time>2026-04-11T11:52:35.422Z</time></trkpt><trkpt lat="43.988645" lon="11.2683883"><ele>278.6666666666667</ele><time>2026-04-11T11:52:36.422Z</time></trkpt><trkpt lat="43.9886717" lon="11.2681533"><ele>281.0</ele><time>2026-04-11T11:52:37.422Z</time></trkpt><trkpt lat="43.98869" lon="11.26792"><ele>281.6666666666667</ele><time>2026-04-11T11:52:38.422Z</time></trkpt><trkpt lat="43.988705" lon="11.2676833"><ele>282.3333333333333</ele><time>2026-04-11T11:52:39.422Z</time></trkpt><trkpt lat="43.9887133" lon="11.2674417"><ele>283.0</ele><time>2026-04-11T11:52:40.422Z</time></trkpt><trkpt lat="43.9887217" lon="11.267195"><ele>283.0</ele><time>2026-04-11T11:52:41.422Z</time></trkpt><trkpt lat="43.9887267" lon="11.26694"><ele>283.0</ele><time>2026-04-11T11:52:42.422Z</time></trkpt><trkpt lat="43.9887333" lon="11.2666867"><ele>283.0</ele><time>2026-04-11T11:52:43.42Z</time></trkpt><trkpt lat="43.988735" lon="11.266435"><ele>282.3333333333333</ele><time>2026-04-11T11:52:44.423Z</time></trkpt><trkpt lat="43.988735" lon="11.26618"><ele>281.6666666666667</ele><time>2026-04-11T11:52:45.421Z</time></trkpt><trkpt lat="43.9887333" lon="11.26592"><ele>281.0</ele><time>2026-04-11T11:52:46.422Z</time></trkpt><trkpt lat="43.98873" lon="11.265655"><ele>278.6666666666667</ele><time>2026-04-11T11:52:47.422Z</time></trkpt><trkpt lat="43.9887267" lon="11.265395"><ele>276.3333333333333</ele><time>2026-04-11T11:52:48.422Z</time></trkpt><trkpt lat="43.9887233" lon="11.26514"><ele>274.0</ele><time>2026-04-11T11:52:49.42Z</time></trkpt><trkpt lat="43.9887183" lon="11.2648917"><ele>270.66666666666663</ele><time>2026-04-11T11:52:50.422Z</time></trkpt><trkpt lat="43.98871" lon="11.264645"><ele>267.3333333333333</ele><time>2026-04-11T11:52:51.422Z</time></trkpt><trkpt lat="43.9887" lon="11.2644017"><ele>264.0</ele><time>2026-04-11T11:52:52.421Z</time></trkpt><trkpt lat="43.988685" lon="11.2641567"><ele>258.3333333333333</ele><time>2026-04-11T11:52:53.423Z</time></trkpt><trkpt lat="43.9886617" lon="11.263905"><ele>252.66666666666666</ele><time>2026-04-11T11:52:54.422Z</time></trkpt><trkpt lat="43.9886367" lon="11.2636483"><ele>247.0</ele><time>2026-04-11T11:52:55.42Z</time></trkpt><trkpt lat="43.9886083" lon="11.2633967"><ele>247.0</ele><time>2026-04-11T11:52:56.421Z</time></trkpt><trkpt lat="43.988575" lon="11.263155"><ele>247.0</ele><time>2026-04-11T11:52:57.421Z</time></trkpt><trkpt lat="43.9885383" lon="11.2629133"><ele>247.0</ele><time>2026-04-11T11:52:58.42Z</time></trkpt><trkpt lat="43.9884983" lon="11.2626783"><ele>246.33333333333331</ele><time>2026-04-11T11:52:59.421Z</time></trkpt><trkpt lat="43.9884533" lon="11.2624517"><ele>245.66666666666669</ele><time>2026-04-11T11:53:00.421Z</time></trkpt><trkpt lat="43.98841" lon="11.2622333"><ele>245.0</ele><time>2026-04-11T11:53:01.419Z</time></trkpt><trkpt lat="43.98837" lon="11.26203"><ele>247.5</ele><time>2026-04-11T11:53:02.421Z</time></trkpt><trkpt lat="43.9883317" lon="11.2618383"><ele>250.0</ele><time>2026-04-11T11:53:03.422Z</time></trkpt><trkpt lat="43.98829" lon="11.261655"><ele>252.5</ele><time>2026-04-11T11:53:04.421Z</time></trkpt><trkpt lat="43.9882467" lon="11.2614683"><ele>255.0</ele><time>2026-04-11T11:53:05.422Z</time></trkpt><trkpt lat="43.9882" lon="11.261285"><ele>257.25</ele><time>2026-04-11T11:53:06.421Z</time></trkpt><trkpt lat="43.9881533" lon="11.2611"><ele>259.5</ele><time>2026-04-11T11:53:07.421Z</time></trkpt><trkpt lat="43.9881067" lon="11.26091"><ele>261.75</ele><time>2026-04-11T11:53:08.422Z</time></trkpt><trkpt lat="43.9880617" lon="11.2607267"><ele>264.0</ele><time>2026-04-11T11:53:09.421Z</time></trkpt><trkpt lat="43.98802" lon="11.2605567"><ele>264.75</ele><time>2026-04-11T11:53:10.422Z</time></trkpt><trkpt lat="43.9879783" lon="11.2603867"><ele>265.5</ele><time>2026-04-11T11:53:11.421Z</time></trkpt><trkpt lat="43.98794" lon="11.2602167"><ele>266.25</ele><time>2026-04-11T11:53:12.421Z</time></trkpt><trkpt lat="43.9879" lon="11.2600467"><ele>267.0</ele><time>2026-04-11T11:53:13.421Z</time></trkpt><trkpt lat="43.9878617" lon="11.25988"><ele>269.5</ele><time>2026-04-11T11:53:14.421Z</time></trkpt><trkpt lat="43.98782" lon="11.2597083"><ele>272.0</ele><time>2026-04-11T11:53:15.422Z</time></trkpt><trkpt lat="43.9877833" lon="11.25955"><ele>274.5</ele><time>2026-04-11T11:53:16.42Z</time></trkpt><trkpt lat="43.9877483" lon="11.259405"><ele>277.0</ele><time>2026-04-11T11:53:17.422Z</time></trkpt><trkpt lat="43.9877183" lon="11.25927"><ele>277.0</ele><time>2026-04-11T11:53:18.422Z</time></trkpt><trkpt lat="43.98769" lon="11.2591417"><ele>277.0</ele><time>2026-04-11T11:53:19.419Z</time></trkpt><trkpt lat="43.9876667" lon="11.2590267"><ele>277.0</ele><time>2026-04-11T11:53:20.419Z</time></trkpt><trkpt lat="43.9876467" lon="11.2589217"><ele>277.0</ele><time>2026-04-11T11:53:21.42Z</time></trkpt><trkpt lat="43.9876267" lon="11.2588233"><ele>277.0</ele><time>2026-04-11T11:53:22.422Z</time></trkpt><trkpt lat="43.9876017" lon="11.25867"><ele>277.0</ele><time>2026-04-11T11:53:24.421Z</time></trkpt><trkpt lat="43.98759" lon="11.2585433"><ele>279.0</ele><time>2026-04-11T11:53:26.421Z</time></trkpt><trkpt lat="43.9875867" lon="11.2584167"><ele>281.0</ele><time>2026-04-11T11:53:28.422Z</time></trkpt><trkpt lat="43.9875883" lon="11.2582983"><ele>283.0</ele><time>2026-04-11T11:53:30.424Z</time></trkpt><trkpt lat="43.98762" lon="11.2581817"><ele>285.0</ele><time>2026-04-11T11:53:32.422Z</time></trkpt><trkpt lat="43.9877033" lon="11.2580817"><ele>287.0</ele><time>2026-04-11T11:53:34.42Z</time></trkpt><trkpt lat="43.987805" lon="11.2580517"><ele>288.4</ele><time>2026-04-11T11:53:36.42Z</time></trkpt><trkpt lat="43.9878917" lon="11.2580583"><ele>289.79999999999995</ele><time>2026-04-11T11:53:38.422Z</time></trkpt><trkpt lat="43.9879733" lon="11.2580733"><ele>291.2</ele><time>2026-04-11T11:53:41.423Z</time></trkpt><trkpt lat="43.988055" lon="11.2580917"><ele>292.59999999999997</ele><time>2026-04-11T11:53:43.421Z</time></trkpt><trkpt lat="43.98819" lon="11.2581"><ele>294.0</ele><time>2026-04-11T11:53:45.42Z</time></trkpt><trkpt lat="43.988265" lon="11.2580983"><ele>294.0</ele><time>2026-04-11T11:53:46.422Z</time></trkpt><trkpt lat="43.98833" lon="11.2580833"><ele>294.0</ele><time>2026-04-11T11:53:47.421Z</time></trkpt><trkpt lat="43.988435" lon="11.25804"><ele>294.0</ele><time>2026-04-11T11:53:49.422Z</time></trkpt><trkpt lat="43.9885017" lon="11.257975"><ele>294.0</ele><time>2026-04-11T11:54:01.421Z</time></trkpt><trkpt lat="43.9885667" lon="11.2578917"><ele>294.0</ele><time>2026-04-11T11:54:03.422Z</time></trkpt><trkpt lat="43.98865" lon="11.257755"><ele>294.4</ele><time>2026-04-11T11:54:05.421Z</time></trkpt><trkpt lat="43.9886933" lon="11.2576583"><ele>294.79999999999995</ele><time>2026-04-11T11:54:06.421Z</time></trkpt><trkpt lat="43.9887333" lon="11.2575467"><ele>295.20000000000005</ele><time>2026-04-11T11:54:07.421Z</time></trkpt><trkpt lat="43.9887633" lon="11.2574267"><ele>295.6</ele><time>2026-04-11T11:54:08.422Z</time></trkpt><trkpt lat="43.988785" lon="11.2572967"><ele>296.0</ele><time>2026-04-11T11:54:09.421Z</time></trkpt><trkpt lat="43.98881" lon="11.2571567"><ele>296.0</ele><time>2026-04-11T11:54:10.421Z</time></trkpt><trkpt lat="43.9888333" lon="11.2570133"><ele>296.0</ele><time>2026-04-11T11:54:11.42Z</time></trkpt><trkpt lat="43.9888667" lon="11.25686"><ele>296.0</ele><time>2026-04-11T11:54:12.421Z</time></trkpt><trkpt lat="43.9889083" lon="11.256715"><ele>296.0</ele><time>2026-04-11T11:54:13.422Z</time></trkpt><trkpt lat="43.988955" lon="11.25659"><ele>296.0</ele><time>2026-04-11T11:54:14.418Z</time></trkpt><trkpt lat="43.9890033" lon="11.25648"><ele>296.2</ele><time>2026-04-11T11:54:15.421Z</time></trkpt><trkpt lat="43.9890483" lon="11.2563817"><ele>296.40000000000003</ele><time>2026-04-11T11:54:16.421Z</time></trkpt><trkpt lat="43.9891067" lon="11.2562617"><ele>296.6</ele><time>2026-04-11T11:54:17.422Z</time></trkpt><trkpt lat="43.9891767" lon="11.256145"><ele>296.8</ele><time>2026-04-11T11:54:18.42Z</time></trkpt><trkpt lat="43.9892483" lon="11.2560383"><ele>297.0</ele><time>2026-04-11T11:54:19.42Z</time></trkpt><trkpt lat="43.9893167" lon="11.2559367"><ele>297.0</ele><time>2026-04-11T11:54:20.421Z</time></trkpt><trkpt lat="43.9893817" lon="11.2558333"><ele>297.0</ele><time>2026-04-11T11:54:21.422Z</time></trkpt><trkpt lat="43.98944" lon="11.2557317"><ele>297.0</ele><time>2026-04-11T11:54:22.421Z</time></trkpt><trkpt lat="43.9894967" lon="11.255625"><ele>297.0</ele><time>2026-04-11T11:54:23.422Z</time></trkpt><trkpt lat="43.9895583" lon="11.2555233"><ele>297.0</ele><time>2026-04-11T11:54:24.421Z</time></trkpt><trkpt lat="43.989615" lon="11.255425"><ele>297.5</ele><time>2026-04-11T11:54:25.42Z</time></trkpt><trkpt lat="43.9896733" lon="11.2553333"><ele>298.0</ele><time>2026-04-11T11:54:26.42Z</time></trkpt><trkpt lat="43.9897183" lon="11.25525"><ele>298.5</ele><time>2026-04-11T11:54:27.422Z</time></trkpt><trkpt lat="43.98977" lon="11.2551733"><ele>299.0</ele><time>2026-04-11T11:54:28.421Z</time></trkpt><trkpt lat="43.9898233" lon="11.255115"><ele>299.5</ele><time>2026-04-11T11:54:29.42Z</time></trkpt><trkpt lat="43.9898817" lon="11.25503"><ele>300.0</ele><time>2026-04-11T11:54:30.421Z</time></trkpt><trkpt lat="43.989945" lon="11.2549483"><ele>299.2</ele><time>2026-04-11T11:54:31.42Z</time></trkpt><trkpt lat="43.9900183" lon="11.25487"><ele>298.4</ele><time>2026-04-11T11:54:32.42Z</time></trkpt><trkpt lat="43.990095" lon="11.2548017"><ele>297.6</ele><time>2026-04-11T11:54:33.422Z</time></trkpt><trkpt lat="43.9901817" lon="11.2547467"><ele>296.8</ele><time>2026-04-11T11:54:34.422Z</time></trkpt><trkpt lat="43.99027" lon="11.2547"><ele>296.0</ele><time>2026-04-11T11:54:35.419Z</time></trkpt><trkpt lat="43.9903533" lon="11.2546483"><ele>296.0</ele><time>2026-04-11T11:54:36.42Z</time></trkpt><trkpt lat="43.990425" lon="11.2545933"><ele>296.0</ele><time>2026-04-11T11:54:37.419Z</time></trkpt><trkpt lat="43.9905017" lon="11.2545333"><ele>296.0</ele><time>2026-04-11T11:54:38.42Z</time></trkpt><trkpt lat="43.9905883" lon="11.2544617"><ele>296.0</ele><time>2026-04-11T11:54:39.42Z</time></trkpt><trkpt lat="43.9906633" lon="11.2543983"><ele>296.0</ele><time>2026-04-11T11:54:40.42Z</time></trkpt><trkpt lat="43.99074" lon="11.2543317"><ele>296.0</ele><time>2026-04-11T11:54:41.421Z</time></trkpt><trkpt lat="43.99082" lon="11.2542567"><ele>296.1666666666667</ele><time>2026-04-11T11:54:42.421Z</time></trkpt><trkpt lat="43.9909017" lon="11.2541783"><ele>296.33333333333337</ele><time>2026-04-11T11:54:43.42Z</time></trkpt><trkpt lat="43.9909817" lon="11.2541017"><ele>296.5</ele><time>2026-04-11T11:54:44.422Z</time></trkpt><trkpt lat="43.991055" lon="11.2540283"><ele>296.6666666666667</ele><time>2026-04-11T11:54:45.423Z</time></trkpt><trkpt lat="43.9911167" lon="11.253955"><ele>296.8333333333333</ele><time>2026-04-11T11:54:46.421Z</time></trkpt><trkpt lat="43.99118" lon="11.253885"><ele>297.0</ele><time>2026-04-11T11:54:47.42Z</time></trkpt><trkpt lat="43.9912483" lon="11.2538083"><ele>297.0</ele><time>2026-04-11T11:54:48.422Z</time></trkpt><trkpt lat="43.9913267" lon="11.2537367"><ele>297.0</ele><time>2026-04-11T11:54:49.421Z</time></trkpt><trkpt lat="43.991405" lon="11.253665"><ele>297.0</ele><time>2026-04-11T11:54:50.421Z</time></trkpt><trkpt lat="43.9914867" lon="11.2535983"><ele>297.0</ele><time>2026-04-11T11:54:51.42Z</time></trkpt><trkpt lat="43.9915617" lon="11.2535267"><ele>297.0</ele><time>2026-04-11T11:54:52.42Z</time></trkpt><trkpt lat="43.9916383" lon="11.2534617"><ele>296.3333333333333</ele><time>2026-04-11T11:54:53.422Z</time></trkpt><trkpt lat="43.9917117" lon="11.2533967"><ele>295.6666666666667</ele><time>2026-04-11T11:54:54.422Z</time></trkpt><trkpt lat="43.9917867" lon="11.2533283"><ele>295.0</ele><time>2026-04-11T11:54:55.421Z</time></trkpt><trkpt lat="43.99185" lon="11.2532583"><ele>294.33333333333337</ele><time>2026-04-11T11:54:56.421Z</time></trkpt><trkpt lat="43.99192" lon="11.2531883"><ele>293.6666666666667</ele><time>2026-04-11T11:54:57.421Z</time></trkpt><trkpt lat="43.9919883" lon="11.2531267"><ele>293.0</ele><time>2026-04-11T11:54:58.422Z</time></trkpt><trkpt lat="43.9920517" lon="11.25307"><ele>293.0</ele><time>2026-04-11T11:54:59.42Z</time></trkpt><trkpt lat="43.99211" lon="11.253015"><ele>293.0</ele><time>2026-04-11T11:55:00.42Z</time></trkpt><trkpt lat="43.9921733" lon="11.252965"><ele>293.0</ele><time>2026-04-11T11:55:01.422Z</time></trkpt><trkpt lat="43.9922417" lon="11.252905"><ele>293.0</ele><time>2026-04-11T11:55:02.421Z</time></trkpt><trkpt lat="43.9923117" lon="11.25284"><ele>293.0</ele><time>2026-04-11T11:55:03.421Z</time></trkpt><trkpt lat="43.9923733" lon="11.2527817"><ele>293.0</ele><time>2026-04-11T11:55:04.421Z</time></trkpt><trkpt lat="43.9924467" lon="11.252725"><ele>292.6666666666667</ele><time>2026-04-11T11:55:05.419Z</time></trkpt><trkpt lat="43.9925217" lon="11.252665"><ele>292.33333333333337</ele><time>2026-04-11T11:55:06.422Z</time></trkpt><trkpt lat="43.9925883" lon="11.2526083"><ele>292.0</ele><time>2026-04-11T11:55:07.42Z</time></trkpt><trkpt lat="43.9926567" lon="11.2525483"><ele>291.6666666666667</ele><time>2026-04-11T11:55:08.42Z</time></trkpt><trkpt lat="43.9927167" lon="11.25249"><ele>291.3333333333333</ele><time>2026-04-11T11:55:09.42Z</time></trkpt><trkpt lat="43.992785" lon="11.2524317"><ele>291.0</ele><time>2026-04-11T11:55:10.421Z</time></trkpt><trkpt lat="43.9928517" lon="11.25238"><ele>291.0</ele><time>2026-04-11T11:55:11.419Z</time></trkpt><trkpt lat="43.9929167" lon="11.2523367"><ele>291.0</ele><time>2026-04-11T11:55:12.421Z</time></trkpt><trkpt lat="43.9929767" lon="11.2522917"><ele>291.0</ele><time>2026-04-11T11:55:13.421Z</time></trkpt><trkpt lat="43.9930383" lon="11.2522433"><ele>291.0</ele><time>2026-04-11T11:55:14.422Z</time></trkpt><trkpt lat="43.9931067" lon="11.2521983"><ele>291.0</ele><time>2026-04-11T11:55:15.422Z</time></trkpt><trkpt lat="43.9931767" lon="11.2521567"><ele>291.0</ele><time>2026-04-11T11:55:16.421Z</time></trkpt><trkpt lat="43.9932517" lon="11.2521117"><ele>291.0</ele><time>2026-04-11T11:55:17.419Z</time></trkpt><trkpt lat="43.9933233" lon="11.2520783"><ele>291.8333333333333</ele><time>2026-04-11T11:55:18.421Z</time></trkpt><trkpt lat="43.9934067" lon="11.2520417"><ele>292.6666666666667</ele><time>2026-04-11T11:55:19.421Z</time></trkpt><trkpt lat="43.9934817" lon="11.2520033"><ele>293.5</ele><time>2026-04-11T11:55:20.421Z</time></trkpt><trkpt lat="43.993565" lon="11.2519617"><ele>294.33333333333337</ele><time>2026-04-11T11:55:21.419Z</time></trkpt><trkpt lat="43.99365" lon="11.2519183"><ele>295.1666666666667</ele><time>2026-04-11T11:55:22.421Z</time></trkpt><trkpt lat="43.9937367" lon="11.251875"><ele>296.0</ele><time>2026-04-11T11:55:23.42Z</time></trkpt><trkpt lat="43.9938283" lon="11.25183"><ele>296.0</ele><time>2026-04-11T11:55:24.42Z</time></trkpt><trkpt lat="43.993925" lon="11.2517817"><ele>296.0</ele><time>2026-04-11T11:55:25.42Z</time></trkpt><trkpt lat="43.9940217" lon="11.2517267"><ele>296.0</ele><time>2026-04-11T11:55:26.422Z</time></trkpt><trkpt lat="43.994115" lon="11.2516683"><ele>296.0</ele><time>2026-04-11T11:55:27.422Z</time></trkpt><trkpt lat="43.9942117" lon="11.251605"><ele>296.0</ele><time>2026-04-11T11:55:28.421Z</time></trkpt><trkpt lat="43.9943067" lon="11.25154"><ele>295.6</ele><time>2026-04-11T11:55:29.421Z</time></trkpt><trkpt lat="43.9943967" lon="11.2514783"><ele>295.20000000000005</ele><time>2026-04-11T11:55:30.42Z</time></trkpt><trkpt lat="43.9944783" lon="11.2514083"><ele>294.79999999999995</ele><time>2026-04-11T11:55:31.422Z</time></trkpt><trkpt lat="43.9945417" lon="11.2513283"><ele>294.4</ele><time>2026-04-11T11:55:32.422Z</time></trkpt><trkpt lat="43.9946017" lon="11.25123"><ele>294.0</ele><time>2026-04-11T11:55:33.42Z</time></trkpt><trkpt lat="43.99466" lon="11.2511083"><ele>295.4</ele><time>2026-04-11T11:55:34.421Z</time></trkpt><trkpt lat="43.9947217" lon="11.2509833"><ele>296.79999999999995</ele><time>2026-04-11T11:55:35.419Z</time></trkpt><trkpt lat="43.9947867" lon="11.2508733"><ele>298.20000000000005</ele><time>2026-04-11T11:55:36.423Z</time></trkpt><trkpt lat="43.9948467" lon="11.2507783"><ele>299.6</ele><time>2026-04-11T11:55:37.42Z</time></trkpt><trkpt lat="43.99491" lon="11.2506933"><ele>301.0</ele><time>2026-04-11T11:55:38.419Z</time></trkpt><trkpt lat="43.9949717" lon="11.2506133"><ele>302.66666666666663</ele><time>2026-04-11T11:55:39.421Z</time></trkpt><trkpt lat="43.99502" lon="11.2505383"><ele>304.3333333333333</ele><time>2026-04-11T11:55:40.422Z</time></trkpt><trkpt lat="43.9950617" lon="11.2504717"><ele>306.0</ele><time>2026-04-11T11:55:41.421Z</time></trkpt><trkpt lat="43.9951083" lon="11.2504"><ele>307.6666666666667</ele><time>2026-04-11T11:55:43.419Z</time></trkpt><trkpt lat="43.9951883" lon="11.250375"><ele>309.33333333333337</ele><time>2026-04-11T11:55:47.421Z</time></trkpt><trkpt lat="43.9951567" lon="11.250285"><ele>311.0</ele><time>2026-04-11T11:56:10.421Z</time></trkpt><trkpt lat="43.9951367" lon="11.2501567"><ele>311.0</ele><time>2026-04-11T11:56:12.422Z</time></trkpt><trkpt lat="43.9951233" lon="11.249995"><ele>311.0</ele><time>2026-04-11T11:56:14.423Z</time></trkpt><trkpt lat="43.995125" lon="11.2498083"><ele>311.0</ele><time>2026-04-11T11:56:16.422Z</time></trkpt><trkpt lat="43.995135" lon="11.249705"><ele>311.0</ele><time>2026-04-11T11:56:17.421Z</time></trkpt><trkpt lat="43.9951533" lon="11.249605"><ele>311.0</ele><time>2026-04-11T11:56:18.422Z</time></trkpt><trkpt lat="43.995175" lon="11.249505"><ele>310.5</ele><time>2026-04-11T11:56:19.422Z</time></trkpt><trkpt lat="43.9951967" lon="11.2494167"><ele>310.0</ele><time>2026-04-11T11:56:20.422Z</time></trkpt><trkpt lat="43.9952383" lon="11.2492833"><ele>309.5</ele><time>2026-04-11T11:56:22.421Z</time></trkpt><trkpt lat="43.9952683" lon="11.2491733"><ele>309.0</ele><time>2026-04-11T11:56:24.421Z</time></trkpt><trkpt lat="43.9952983" lon="11.2490833"><ele>308.5</ele><time>2026-04-11T11:56:28.422Z</time></trkpt><trkpt lat="43.9952683" lon="11.248955"><ele>308.0</ele><time>2026-04-11T11:56:31.421Z</time></trkpt><trkpt lat="43.9952333" lon="11.2488433"><ele>307.0</ele><time>2026-04-11T11:56:33.421Z</time></trkpt><trkpt lat="43.995205" lon="11.248715"><ele>306.0</ele><time>2026-04-11T11:56:35.421Z</time></trkpt><trkpt lat="43.995185" lon="11.248575"><ele>305.0</ele><time>2026-04-11T11:56:37.421Z</time></trkpt><trkpt lat="43.9951583" lon="11.24842"><ele>304.0</ele><time>2026-04-11T11:56:39.422Z</time></trkpt><trkpt lat="43.9951533" lon="11.24825"><ele>303.0</ele><time>2026-04-11T11:56:41.42Z</time></trkpt><trkpt lat="43.9951783" lon="11.2481017"><ele>301.8333333333333</ele><time>2026-04-11T11:56:43.422Z</time></trkpt><trkpt lat="43.9952217" lon="11.24796"><ele>300.6666666666667</ele><time>2026-04-11T11:56:45.421Z</time></trkpt><trkpt lat="43.9952983" lon="11.24789"><ele>299.5</ele><time>2026-04-11T11:56:47.42Z</time></trkpt><trkpt lat="43.99534" lon="11.2478117"><ele>298.33333333333337</ele><time>2026-04-11T11:56:48.422Z</time></trkpt><trkpt lat="43.9953783" lon="11.2477383"><ele>297.1666666666667</ele><time>2026-04-11T11:56:49.421Z</time></trkpt><trkpt lat="43.9954067" lon="11.2476533"><ele>296.0</ele><time>2026-04-11T11:56:50.422Z</time></trkpt><trkpt lat="43.9954267" lon="11.2475483"><ele>296.0</ele><time>2026-04-11T11:56:51.422Z</time></trkpt><trkpt lat="43.9954283" lon="11.2474567"><ele>296.0</ele><time>2026-04-11T11:56:52.422Z</time></trkpt><trkpt lat="43.9954167" lon="11.2473567"><ele>296.0</ele><time>2026-04-11T11:56:53.421Z</time></trkpt><trkpt lat="43.9954" lon="11.2472667"><ele>296.0</ele><time>2026-04-11T11:56:54.422Z</time></trkpt><trkpt lat="43.9953833" lon="11.2471817"><ele>296.0</ele><time>2026-04-11T11:56:55.423Z</time></trkpt><trkpt lat="43.9953617" lon="11.2470817"><ele>296.0</ele><time>2026-04-11T11:56:56.421Z</time></trkpt><trkpt lat="43.9953433" lon="11.246985"><ele>296.0</ele><time>2026-04-11T11:56:57.421Z</time></trkpt><trkpt lat="43.9953283" lon="11.2468967"><ele>295.8</ele><time>2026-04-11T11:56:58.422Z</time></trkpt><trkpt lat="43.9953033" lon="11.2468"><ele>295.6</ele><time>2026-04-11T11:56:59.423Z</time></trkpt><trkpt lat="43.995255" lon="11.2466533"><ele>295.4</ele><time>2026-04-11T11:57:01.422Z</time></trkpt><trkpt lat="43.9952083" lon="11.2464967"><ele>295.2</ele><time>2026-04-11T11:57:03.421Z</time></trkpt><trkpt lat="43.9951833" lon="11.2464117"><ele>295.0</ele><time>2026-04-11T11:57:04.42Z</time></trkpt><trkpt lat="43.995135" lon="11.246275"><ele>294.6</ele><time>2026-04-11T11:57:06.421Z</time></trkpt><trkpt lat="43.9951033" lon="11.2461267"><ele>294.2</ele><time>2026-04-11T11:57:08.423Z</time></trkpt><trkpt lat="43.995095" lon="11.2459733"><ele>293.8</ele><time>2026-04-11T11:57:10.423Z</time></trkpt><trkpt lat="43.9951" lon="11.2458533"><ele>293.4</ele><time>2026-04-11T11:57:12.423Z</time></trkpt><trkpt lat="43.9951017" lon="11.2457367"><ele>293.0</ele><time>2026-04-11T11:57:14.423Z</time></trkpt><trkpt lat="43.9951217" lon="11.24565"><ele>290.33333333333337</ele><time>2026-04-11T11:57:16.422Z</time></trkpt><trkpt lat="43.995175" lon="11.24558"><ele>287.6666666666667</ele><time>2026-04-11T11:57:18.42Z</time></trkpt><trkpt lat="43.9952567" lon="11.2455433"><ele>285.0</ele><time>2026-04-11T11:57:22.42Z</time></trkpt><trkpt lat="43.99526" lon="11.24543"><ele>282.3333333333333</ele><time>2026-04-11T11:57:25.419Z</time></trkpt><trkpt lat="43.9952383" lon="11.2453467"><ele>279.66666666666663</ele><time>2026-04-11T11:57:27.421Z</time></trkpt><trkpt lat="43.995255" lon="11.2452517"><ele>277.0</ele><time>2026-04-11T11:57:29.422Z</time></trkpt><trkpt lat="43.9953117" lon="11.245145"><ele>277.0</ele><time>2026-04-11T11:57:31.421Z</time></trkpt><trkpt lat="43.995365" lon="11.2449817"><ele>277.0</ele><time>2026-04-11T11:57:33.421Z</time></trkpt><trkpt lat="43.9953833" lon="11.2448767"><ele>277.0</ele><time>2026-04-11T11:57:34.422Z</time></trkpt><trkpt lat="43.9953983" lon="11.244755"><ele>277.0</ele><time>2026-04-11T11:57:35.422Z</time></trkpt><trkpt lat="43.9954117" lon="11.24463"><ele>277.0</ele><time>2026-04-11T11:57:36.421Z</time></trkpt><trkpt lat="43.9954317" lon="11.24452"><ele>274.3333333333333</ele><time>2026-04-11T11:57:37.421Z</time></trkpt><trkpt lat="43.9954533" lon="11.2444283"><ele>271.66666666666663</ele><time>2026-04-11T11:57:38.422Z</time></trkpt><trkpt lat="43.99551" lon="11.2443067"><ele>269.0</ele><time>2026-04-11T11:57:40.42Z</time></trkpt><trkpt lat="43.9955617" lon="11.2442567"><ele>266.3333333333333</ele><time>2026-04-11T11:57:41.422Z</time></trkpt><trkpt lat="43.99567" lon="11.244165"><ele>263.6666666666667</ele><time>2026-04-11T11:57:43.421Z</time></trkpt><trkpt lat="43.99573" lon="11.2441217"><ele>261.0</ele><time>2026-04-11T11:57:44.421Z</time></trkpt><trkpt lat="43.9957967" lon="11.2440717"><ele>261.0</ele><time>2026-04-11T11:57:45.422Z</time></trkpt><trkpt lat="43.995855" lon="11.2440133"><ele>261.0</ele><time>2026-04-11T11:57:46.42Z</time></trkpt><trkpt lat="43.9959083" lon="11.2439533"><ele>261.0</ele><time>2026-04-11T11:57:47.42Z</time></trkpt><trkpt lat="43.9959583" lon="11.2438883"><ele>261.0</ele><time>2026-04-11T11:57:48.419Z</time></trkpt><trkpt lat="43.9960283" lon="11.2438117"><ele>261.0</ele><time>2026-04-11T11:57:50.42Z</time></trkpt><trkpt lat="43.9960767" lon="11.243715"><ele>261.0</ele><time>2026-04-11T11:58:16.422Z</time></trkpt><trkpt lat="43.9960317" lon="11.2437767"><ele>261.0</ele><time>2026-04-11T11:58:23.42Z</time></trkpt><trkpt lat="43.995955" lon="11.24389"><ele>261.0</ele><time>2026-04-11T11:58:26.422Z</time></trkpt><trkpt lat="43.9958867" lon="11.2439383"><ele>261.0</ele><time>2026-04-11T11:58:27.422Z</time></trkpt><trkpt lat="43.9958117" lon="11.2439967"><ele>261.0</ele><time>2026-04-11T11:58:28.422Z</time></trkpt><trkpt lat="43.9957283" lon="11.244055"><ele>261.0</ele><time>2026-04-11T11:58:29.421Z</time></trkpt><trkpt lat="43.9956517" lon="11.244115"><ele>261.0</ele><time>2026-04-11T11:58:30.419Z</time></trkpt><trkpt lat="43.9955933" lon="11.2441767"><ele>261.0</ele><time>2026-04-11T11:58:31.421Z</time></trkpt><trkpt lat="43.9955517" lon="11.2442483"><ele>261.0</ele><time>2026-04-11T11:58:32.42Z</time></trkpt><trkpt lat="43.9955217" lon="11.2443367"><ele>261.0</ele><time>2026-04-11T11:58:33.421Z</time></trkpt><trkpt lat="43.9955017" lon="11.2444467"><ele>261.0</ele><time>2026-04-11T11:58:34.421Z</time></trkpt><trkpt lat="43.99549" lon="11.2445933"><ele>261.0</ele><time>2026-04-11T11:58:35.42Z</time></trkpt><trkpt lat="43.9954817" lon="11.2447383"><ele>261.0</ele><time>2026-04-11T11:58:36.419Z</time></trkpt><trkpt lat="43.9954617" lon="11.2448683"><ele>263.6666666666667</ele><time>2026-04-11T11:58:37.421Z</time></trkpt><trkpt lat="43.9954267" lon="11.2449717"><ele>266.3333333333333</ele><time>2026-04-11T11:58:38.421Z</time></trkpt><trkpt lat="43.9953783" lon="11.2450483"><ele>269.0</ele><time>2026-04-11T11:58:39.421Z</time></trkpt><trkpt lat="43.9953333" lon="11.245115"><ele>271.66666666666663</ele><time>2026-04-11T11:58:40.42Z</time></trkpt><trkpt lat="43.9952733" lon="11.245225"><ele>274.3333333333333</ele><time>2026-04-11T11:58:42.422Z</time></trkpt><trkpt lat="43.9953083" lon="11.2453333"><ele>277.0</ele><time>2026-04-11T11:58:45.42Z</time></trkpt><trkpt lat="43.9953117" lon="11.24543"><ele>277.0</ele><time>2026-04-11T11:58:49.421Z</time></trkpt><trkpt lat="43.9952183" lon="11.2454517"><ele>277.0</ele><time>2026-04-11T11:58:51.42Z</time></trkpt><trkpt lat="43.9951317" lon="11.2454883"><ele>277.0</ele><time>2026-04-11T11:58:53.421Z</time></trkpt><trkpt lat="43.99507" lon="11.2455933"><ele>277.0</ele><time>2026-04-11T11:58:55.421Z</time></trkpt><trkpt lat="43.9950383" lon="11.245735"><ele>277.0</ele><time>2026-04-11T11:58:57.422Z</time></trkpt><trkpt lat="43.995055" lon="11.2459083"><ele>280.2</ele><time>2026-04-11T11:58:59.422Z</time></trkpt><trkpt lat="43.99512" lon="11.2460617"><ele>283.4</ele><time>2026-04-11T11:59:01.421Z</time></trkpt><trkpt lat="43.995155" lon="11.24618"><ele>286.6</ele><time>2026-04-11T11:59:02.42Z</time></trkpt><trkpt lat="43.9951967" lon="11.2463233"><ele>289.8</ele><time>2026-04-11T11:59:03.42Z</time></trkpt><trkpt lat="43.99524" lon="11.24646"><ele>293.0</ele><time>2026-04-11T11:59:04.42Z</time></trkpt><trkpt lat="43.9952867" lon="11.2466133"><ele>293.4</ele><time>2026-04-11T11:59:05.422Z</time></trkpt><trkpt lat="43.99533" lon="11.2467833"><ele>293.8</ele><time>2026-04-11T11:59:06.421Z</time></trkpt><trkpt lat="43.9953733" lon="11.2469417"><ele>294.2</ele><time>2026-04-11T11:59:07.422Z</time></trkpt><trkpt lat="43.9954033" lon="11.2470617"><ele>294.6</ele><time>2026-04-11T11:59:08.421Z</time></trkpt><trkpt lat="43.995425" lon="11.24717"><ele>295.0</ele><time>2026-04-11T11:59:09.421Z</time></trkpt><trkpt lat="43.9954317" lon="11.24729"><ele>295.16666666666663</ele><time>2026-04-11T11:59:10.42Z</time></trkpt><trkpt lat="43.9954267" lon="11.2474067"><ele>295.3333333333333</ele><time>2026-04-11T11:59:11.42Z</time></trkpt><trkpt lat="43.9954017" lon="11.24751"><ele>295.5</ele><time>2026-04-11T11:59:12.421Z</time></trkpt><trkpt lat="43.99536" lon="11.24761"><ele>295.6666666666667</ele><time>2026-04-11T11:59:13.419Z</time></trkpt><trkpt lat="43.9953183" lon="11.247695"><ele>295.83333333333337</ele><time>2026-04-11T11:59:14.421Z</time></trkpt><trkpt lat="43.99528" lon="11.2477733"><ele>296.0</ele><time>2026-04-11T11:59:15.422Z</time></trkpt><trkpt lat="43.995245" lon="11.24785"><ele>296.0</ele><time>2026-04-11T11:59:16.42Z</time></trkpt><trkpt lat="43.995205" lon="11.2480317"><ele>296.0</ele><time>2026-04-11T11:59:18.422Z</time></trkpt><trkpt lat="43.99519" lon="11.2481333"><ele>296.0</ele><time>2026-04-11T11:59:19.419Z</time></trkpt><trkpt lat="43.995185" lon="11.2482267"><ele>296.0</ele><time>2026-04-11T11:59:20.422Z</time></trkpt><trkpt lat="43.9951933" lon="11.2483283"><ele>296.0</ele><time>2026-04-11T11:59:21.42Z</time></trkpt><trkpt lat="43.9952083" lon="11.2484483"><ele>296.0</ele><time>2026-04-11T11:59:22.421Z</time></trkpt><trkpt lat="43.9952267" lon="11.2485667"><ele>297.40000000000003</ele><time>2026-04-11T11:59:23.421Z</time></trkpt><trkpt lat="43.9952533" lon="11.24869"><ele>298.8</ele><time>2026-04-11T11:59:24.422Z</time></trkpt><trkpt lat="43.9952833" lon="11.24881"><ele>300.20000000000005</ele><time>2026-04-11T11:59:25.422Z</time></trkpt><trkpt lat="43.9953117" lon="11.2489167"><ele>301.6</ele><time>2026-04-11T11:59:26.422Z</time></trkpt><trkpt lat="43.995335" lon="11.249025"><ele>303.0</ele><time>2026-04-11T11:59:28.422Z</time></trkpt><trkpt lat="43.9952917" lon="11.2491817"><ele>303.8333333333333</ele><time>2026-04-11T11:59:30.422Z</time></trkpt><trkpt lat="43.9952567" lon="11.249285"><ele>304.6666666666667</ele><time>2026-04-11T11:59:31.422Z</time></trkpt><trkpt lat="43.99523" lon="11.2494"><ele>305.5</ele><time>2026-04-11T11:59:32.421Z</time></trkpt><trkpt lat="43.9952133" lon="11.24952"><ele>306.33333333333337</ele><time>2026-04-11T11:59:33.419Z</time></trkpt><trkpt lat="43.9952033" lon="11.2496417"><ele>307.1666666666667</ele><time>2026-04-11T11:59:34.422Z</time></trkpt><trkpt lat="43.9951967" lon="11.2497633"><ele>308.0</ele><time>2026-04-11T11:59:35.421Z</time></trkpt><trkpt lat="43.9951933" lon="11.2498783"><ele>308.5</ele><time>2026-04-11T11:59:36.419Z</time></trkpt><trkpt lat="43.9951883" lon="11.2499917"><ele>309.0</ele><time>2026-04-11T11:59:37.42Z</time></trkpt><trkpt lat="43.995185" lon="11.2500917"><ele>309.5</ele><time>2026-04-11T11:59:38.42Z</time></trkpt><trkpt lat="43.995175" lon="11.2502233"><ele>310.0</ele><time>2026-04-11T11:59:40.418Z</time></trkpt><trkpt lat="43.9951817" lon="11.2503417"><ele>310.5</ele><time>2026-04-11T12:00:07.422Z</time></trkpt><trkpt lat="43.99526" lon="11.2503933"><ele>311.0</ele><time>2026-04-11T12:00:10.423Z</time></trkpt><trkpt lat="43.995335" lon="11.2503817"><ele>311.0</ele><time>2026-04-11T12:00:12.421Z</time></trkpt><trkpt lat="43.9954217" lon="11.2503283"><ele>311.0</ele><time>2026-04-11T12:00:14.421Z</time></trkpt><trkpt lat="43.9955183" lon="11.250245"><ele>311.0</ele><time>2026-04-11T12:00:16.42Z</time></trkpt><trkpt lat="43.9955767" lon="11.2502"><ele>311.0</ele><time>2026-04-11T12:00:17.421Z</time></trkpt><trkpt lat="43.9956867" lon="11.25012"><ele>311.0</ele><time>2026-04-11T12:00:19.421Z</time></trkpt><trkpt lat="43.9957533" lon="11.2500833"><ele>311.0</ele><time>2026-04-11T12:00:20.42Z</time></trkpt><trkpt lat="43.9958233" lon="11.2500633"><ele>311.0</ele><time>2026-04-11T12:00:21.42Z</time></trkpt><trkpt lat="43.9958933" lon="11.2500517"><ele>311.0</ele><time>2026-04-11T12:00:22.421Z</time></trkpt><trkpt lat="43.9959683" lon="11.2500433"><ele>311.0</ele><time>2026-04-11T12:00:23.421Z</time></trkpt><trkpt lat="43.9960367" lon="11.2500333"><ele>311.0</ele><time>2026-04-11T12:00:24.421Z</time></trkpt><trkpt lat="43.9961117" lon="11.2500267"><ele>311.0</ele><time>2026-04-11T12:00:25.422Z</time></trkpt><trkpt lat="43.9962017" lon="11.2500233"><ele>311.0</ele><time>2026-04-11T12:00:26.421Z</time></trkpt><trkpt lat="43.9962767" lon="11.2500183"><ele>311.0</ele><time>2026-04-11T12:00:27.419Z</time></trkpt><trkpt lat="43.9963483" lon="11.2500267"><ele>311.0</ele><time>2026-04-11T12:00:28.421Z</time></trkpt><trkpt lat="43.9964233" lon="11.25005"><ele>311.0</ele><time>2026-04-11T12:00:29.421Z</time></trkpt><trkpt lat="43.9965017" lon="11.2500833"><ele>311.0</ele><time>2026-04-11T12:00:30.421Z</time></trkpt><trkpt lat="43.9965833" lon="11.2501117"><ele>311.0</ele><time>2026-04-11T12:00:31.42Z</time></trkpt><trkpt lat="43.99667" lon="11.2501417"><ele>310.6</ele><time>2026-04-11T12:00:32.423Z</time></trkpt><trkpt lat="43.996755" lon="11.250175"><ele>310.20000000000005</ele><time>2026-04-11T12:00:33.421Z</time></trkpt><trkpt lat="43.9968417" lon="11.2502033"><ele>309.79999999999995</ele><time>2026-04-11T12:00:34.423Z</time></trkpt><trkpt lat="43.9969383" lon="11.250225"><ele>309.4</ele><time>2026-04-11T12:00:35.422Z</time></trkpt><trkpt lat="43.9970283" lon="11.250235"><ele>309.0</ele><time>2026-04-11T12:00:36.421Z</time></trkpt><trkpt lat="43.99712" lon="11.250235"><ele>309.0</ele><time>2026-04-11T12:00:37.423Z</time></trkpt><trkpt lat="43.9972133" lon="11.2502217"><ele>309.0</ele><time>2026-04-11T12:00:38.42Z</time></trkpt><trkpt lat="43.9973017" lon="11.2502033"><ele>309.0</ele><time>2026-04-11T12:00:39.419Z</time></trkpt><trkpt lat="43.9973883" lon="11.2501833"><ele>309.0</ele><time>2026-04-11T12:00:40.422Z</time></trkpt><trkpt lat="43.9974633" lon="11.2501583"><ele>309.0</ele><time>2026-04-11T12:00:41.42Z</time></trkpt><trkpt lat="43.9975317" lon="11.2501383"><ele>309.0</ele><time>2026-04-11T12:00:42.42Z</time></trkpt><trkpt lat="43.9976033" lon="11.2501117"><ele>308.5714285714286</ele><time>2026-04-11T12:00:43.42Z</time></trkpt><trkpt lat="43.99767" lon="11.2500967"><ele>308.14285714285717</ele><time>2026-04-11T12:00:44.421Z</time></trkpt><trkpt lat="43.99774" lon="11.2500733"><ele>307.7142857142857</ele><time>2026-04-11T12:00:45.42Z</time></trkpt><trkpt lat="43.9978183" lon="11.250045"><ele>307.28571428571433</ele><time>2026-04-11T12:00:46.421Z</time></trkpt><trkpt lat="43.99789" lon="11.250015"><ele>306.8571428571429</ele><time>2026-04-11T12:00:47.419Z</time></trkpt><trkpt lat="43.9979583" lon="11.2499817"><ele>306.42857142857144</ele><time>2026-04-11T12:00:48.42Z</time></trkpt><trkpt lat="43.9980183" lon="11.2499433"><ele>306.0</ele><time>2026-04-11T12:00:49.42Z</time></trkpt><trkpt lat="43.998085" lon="11.2498983"><ele>306.0</ele><time>2026-04-11T12:00:50.421Z</time></trkpt><trkpt lat="43.9981983" lon="11.2498183"><ele>306.0</ele><time>2026-04-11T12:00:52.419Z</time></trkpt><trkpt lat="43.9983133" lon="11.2497483"><ele>306.0</ele><time>2026-04-11T12:00:54.422Z</time></trkpt><trkpt lat="43.9983733" lon="11.249715"><ele>306.0</ele><time>2026-04-11T12:00:55.42Z</time></trkpt><trkpt lat="43.998495" lon="11.24965"><ele>306.0</ele><time>2026-04-11T12:00:57.421Z</time></trkpt><trkpt lat="43.9985733" lon="11.24962"><ele>306.1666666666667</ele><time>2026-04-11T12:00:58.421Z</time></trkpt><trkpt lat="43.9986517" lon="11.2495867"><ele>306.3333333333333</ele><time>2026-04-11T12:00:59.422Z</time></trkpt><trkpt lat="43.9987367" lon="11.2495417"><ele>306.5</ele><time>2026-04-11T12:01:00.421Z</time></trkpt><trkpt lat="43.9988133" lon="11.2494917"><ele>306.66666666666663</ele><time>2026-04-11T12:01:01.421Z</time></trkpt><trkpt lat="43.99888" lon="11.2494467"><ele>306.8333333333333</ele><time>2026-04-11T12:01:02.421Z</time></trkpt><trkpt lat="43.9989467" lon="11.2494"><ele>307.0</ele><time>2026-04-11T12:01:03.422Z</time></trkpt><trkpt lat="43.9990117" lon="11.2493567"><ele>307.0</ele><time>2026-04-11T12:01:04.422Z</time></trkpt><trkpt lat="43.9991417" lon="11.249285"><ele>307.0</ele><time>2026-04-11T12:01:06.421Z</time></trkpt><trkpt lat="43.9992367" lon="11.2492417"><ele>307.0</ele><time>2026-04-11T12:01:07.421Z</time></trkpt><trkpt lat="43.9993233" lon="11.2492083"><ele>307.0</ele><time>2026-04-11T12:01:08.42Z</time></trkpt><trkpt lat="43.9994167" lon="11.2491917"><ele>307.0</ele><time>2026-04-11T12:01:09.422Z</time></trkpt><trkpt lat="43.999515" lon="11.249175"><ele>306.0</ele><time>2026-04-11T12:01:10.421Z</time></trkpt><trkpt lat="43.9996033" lon="11.2491633"><ele>305.0</ele><time>2026-04-11T12:01:11.421Z</time></trkpt><trkpt lat="43.999695" lon="11.2491483"><ele>304.0</ele><time>2026-04-11T12:01:12.42Z</time></trkpt><trkpt lat="43.9997883" lon="11.2491317"><ele>303.0</ele><time>2026-04-11T12:01:13.422Z</time></trkpt><trkpt lat="43.9998767" lon="11.2491117"><ele>302.0</ele><time>2026-04-11T12:01:14.419Z</time></trkpt><trkpt lat="43.9999583" lon="11.2490933"><ele>301.0</ele><time>2026-04-11T12:01:15.421Z</time></trkpt><trkpt lat="44.0000433" lon="11.249065"><ele>301.0</ele><time>2026-04-11T12:01:16.422Z</time></trkpt><trkpt lat="44.00013" lon="11.2490233"><ele>301.0</ele><time>2026-04-11T12:01:17.422Z</time></trkpt><trkpt lat="44.00022" lon="11.2489767"><ele>301.0</ele><time>2026-04-11T12:01:18.421Z</time></trkpt><trkpt lat="44.0003117" lon="11.2489283"><ele>301.0</ele><time>2026-04-11T12:01:19.42Z</time></trkpt><trkpt lat="44.000395" lon="11.2488933"><ele>301.0</ele><time>2026-04-11T12:01:20.423Z</time></trkpt><trkpt lat="44.00048" lon="11.24886"><ele>300.8333333333333</ele><time>2026-04-11T12:01:21.421Z</time></trkpt><trkpt lat="44.000565" lon="11.2488183"><ele>300.66666666666663</ele><time>2026-04-11T12:01:22.419Z</time></trkpt><trkpt lat="44.00065" lon="11.2487717"><ele>300.5</ele><time>2026-04-11T12:01:23.421Z</time></trkpt><trkpt lat="44.0007167" lon="11.24872"><ele>300.3333333333333</ele><time>2026-04-11T12:01:24.422Z</time></trkpt><trkpt lat="44.000775" lon="11.2486683"><ele>300.1666666666667</ele><time>2026-04-11T12:01:25.422Z</time></trkpt><trkpt lat="44.0008483" lon="11.2486117"><ele>300.0</ele><time>2026-04-11T12:01:26.422Z</time></trkpt><trkpt lat="44.0009467" lon="11.2485133"><ele>300.0</ele><time>2026-04-11T12:01:28.421Z</time></trkpt><trkpt lat="44.0010417" lon="11.248435"><ele>300.0</ele><time>2026-04-11T12:01:30.42Z</time></trkpt><trkpt lat="44.0011033" lon="11.24838"><ele>300.0</ele><time>2026-04-11T12:01:32.421Z</time></trkpt><trkpt lat="44.0011533" lon="11.2483217"><ele>300.0</ele><time>2026-04-11T12:01:34.42Z</time></trkpt><trkpt lat="44.0012533" lon="11.2482567"><ele>300.0</ele><time>2026-04-11T12:02:00.425Z</time></trkpt><trkpt lat="44.0012183" lon="11.2481383"><ele>299.1666666666667</ele><time>2026-04-11T12:02:04.42Z</time></trkpt><trkpt lat="44.00115" lon="11.2480933"><ele>298.3333333333333</ele><time>2026-04-11T12:02:05.419Z</time></trkpt><trkpt lat="44.0010783" lon="11.2480567"><ele>297.5</ele><time>2026-04-11T12:02:06.419Z</time></trkpt><trkpt lat="44.0010067" lon="11.2480117"><ele>296.66666666666663</ele><time>2026-04-11T12:02:07.42Z</time></trkpt><trkpt lat="44.0009333" lon="11.247965"><ele>295.8333333333333</ele><time>2026-04-11T12:02:08.42Z</time></trkpt><trkpt lat="44.0008583" lon="11.2479283"><ele>295.0</ele><time>2026-04-11T12:02:09.419Z</time></trkpt><trkpt lat="44.0007867" lon="11.2478767"><ele>294.7142857142857</ele><time>2026-04-11T12:02:10.419Z</time></trkpt><trkpt lat="44.0007183" lon="11.2478267"><ele>294.42857142857144</ele><time>2026-04-11T12:02:11.419Z</time></trkpt><trkpt lat="44.000655" lon="11.247775"><ele>294.1428571428571</ele><time>2026-04-11T12:02:12.418Z</time></trkpt><trkpt lat="44.0005933" lon="11.24773"><ele>293.8571428571429</ele><time>2026-04-11T12:02:13.42Z</time></trkpt><trkpt lat="44.000535" lon="11.2476917"><ele>293.57142857142856</ele><time>2026-04-11T12:02:14.42Z</time></trkpt><trkpt lat="44.0004767" lon="11.2476583"><ele>293.2857142857143</ele><time>2026-04-11T12:02:15.42Z</time></trkpt><trkpt lat="44.0003983" lon="11.2475733"><ele>293.0</ele><time>2026-04-11T12:02:17.422Z</time></trkpt><trkpt lat="44.0003433" lon="11.2474333"><ele>292.0</ele><time>2026-04-11T12:02:19.422Z</time></trkpt><trkpt lat="44.0002767" lon="11.24728"><ele>291.0</ele><time>2026-04-11T12:02:21.42Z</time></trkpt><trkpt lat="44.0002433" lon="11.2471967"><ele>290.0</ele><time>2026-04-11T12:02:22.422Z</time></trkpt><trkpt lat="44.0002133" lon="11.2471067"><ele>289.0</ele><time>2026-04-11T12:02:23.419Z</time></trkpt><trkpt lat="44.0001817" lon="11.2470233"><ele>288.0</ele><time>2026-04-11T12:02:24.421Z</time></trkpt><trkpt lat="44.0001517" lon="11.2469333"><ele>287.0</ele><time>2026-04-11T12:02:25.422Z</time></trkpt><trkpt lat="44.0000917" lon="11.24676"><ele>287.0</ele><time>2026-04-11T12:02:27.422Z</time></trkpt><trkpt lat="44.0000617" lon="11.2466633"><ele>287.0</ele><time>2026-04-11T12:02:28.42Z</time></trkpt><trkpt lat="44.0000333" lon="11.2465633"><ele>287.0</ele><time>2026-04-11T12:02:29.419Z</time></trkpt><trkpt lat="44.0000017" lon="11.2464617"><ele>287.0</ele><time>2026-04-11T12:02:30.42Z</time></trkpt><trkpt lat="43.9999667" lon="11.2463617"><ele>287.0</ele><time>2026-04-11T12:02:31.422Z</time></trkpt><trkpt lat="43.9999317" lon="11.2462517"><ele>287.0</ele><time>2026-04-11T12:02:32.422Z</time></trkpt><trkpt lat="43.999895" lon="11.2461417"><ele>285.33333333333337</ele><time>2026-04-11T12:02:33.421Z</time></trkpt><trkpt lat="43.99986" lon="11.246035"><ele>283.6666666666667</ele><time>2026-04-11T12:02:34.422Z</time></trkpt><trkpt lat="43.9998217" lon="11.24593"><ele>282.0</ele><time>2026-04-11T12:02:35.422Z</time></trkpt><trkpt lat="43.9997867" lon="11.2458283"><ele>280.3333333333333</ele><time>2026-04-11T12:02:36.421Z</time></trkpt><trkpt lat="43.9997483" lon="11.2457283"><ele>278.66666666666663</ele><time>2026-04-11T12:02:37.422Z</time></trkpt><trkpt lat="43.9997083" lon="11.2456367"><ele>277.0</ele><time>2026-04-11T12:02:38.422Z</time></trkpt><trkpt lat="43.9996717" lon="11.2455467"><ele>276.16666666666663</ele><time>2026-04-11T12:02:39.421Z</time></trkpt><trkpt lat="43.9996383" lon="11.2454633"><ele>275.3333333333333</ele><time>2026-04-11T12:02:40.422Z</time></trkpt><trkpt lat="43.9996017" lon="11.2453767"><ele>274.5</ele><time>2026-04-11T12:02:41.422Z</time></trkpt><trkpt lat="43.9995667" lon="11.24529"><ele>273.6666666666667</ele><time>2026-04-11T12:02:42.421Z</time></trkpt><trkpt lat="43.99954" lon="11.245195"><ele>272.83333333333337</ele><time>2026-04-11T12:02:43.421Z</time></trkpt><trkpt lat="43.99951" lon="11.2450933"><ele>272.0</ele><time>2026-04-11T12:02:44.421Z</time></trkpt><trkpt lat="43.9994767" lon="11.2449817"><ele>272.0</ele><time>2026-04-11T12:02:45.42Z</time></trkpt><trkpt lat="43.999445" lon="11.2448617"><ele>272.0</ele><time>2026-04-11T12:02:46.421Z</time></trkpt><trkpt lat="43.9994217" lon="11.2447367"><ele>272.0</ele><time>2026-04-11T12:02:47.421Z</time></trkpt><trkpt lat="43.9994067" lon="11.2446083"><ele>272.0</ele><time>2026-04-11T12:02:48.422Z</time></trkpt><trkpt lat="43.9994067" lon="11.24449"><ele>272.0</ele><time>2026-04-11T12:02:49.422Z</time></trkpt><trkpt lat="43.99942" lon="11.2443717"><ele>271.6666666666667</ele><time>2026-04-11T12:02:50.421Z</time></trkpt><trkpt lat="43.9994417" lon="11.2442583"><ele>271.33333333333337</ele><time>2026-04-11T12:02:51.421Z</time></trkpt><trkpt lat="43.9994833" lon="11.244155"><ele>271.0</ele><time>2026-04-11T12:02:52.42Z</time></trkpt><trkpt lat="43.999535" lon="11.24406"><ele>270.6666666666667</ele><time>2026-04-11T12:02:53.42Z</time></trkpt><trkpt lat="43.999585" lon="11.2439717"><ele>270.3333333333333</ele><time>2026-04-11T12:02:54.421Z</time></trkpt><trkpt lat="43.9996317" lon="11.2438917"><ele>270.0</ele><time>2026-04-11T12:02:55.422Z</time></trkpt><trkpt lat="43.9996783" lon="11.24382"><ele>269.8</ele><time>2026-04-11T12:02:56.421Z</time></trkpt><trkpt lat="43.9997467" lon="11.2437033"><ele>269.6</ele><time>2026-04-11T12:02:58.421Z</time></trkpt><trkpt lat="43.9997867" lon="11.243635"><ele>269.4</ele><time>2026-04-11T12:03:00.421Z</time></trkpt><trkpt lat="43.9998717" lon="11.2435083"><ele>269.2</ele><time>2026-04-11T12:06:12.418Z</time></trkpt><trkpt lat="43.99995" lon="11.2434317"><ele>269.0</ele><time>2026-04-11T12:06:15.421Z</time></trkpt><trkpt lat="44.0000217" lon="11.24342"><ele>269.0</ele><time>2026-04-11T12:06:17.421Z</time></trkpt><trkpt lat="44.0001117" lon="11.2434533"><ele>269.0</ele><time>2026-04-11T12:06:19.419Z</time></trkpt><trkpt lat="44.0001733" lon="11.2434833"><ele>269.0</ele><time>2026-04-11T12:06:20.421Z</time></trkpt><trkpt lat="44.000255" lon="11.2435183"><ele>269.0</ele><time>2026-04-11T12:06:21.421Z</time></trkpt><trkpt lat="44.0003633" lon="11.2435583"><ele>269.0</ele><time>2026-04-11T12:06:22.42Z</time></trkpt><trkpt lat="44.000495" lon="11.2436"><ele>269.0</ele><time>2026-04-11T12:06:23.421Z</time></trkpt><trkpt lat="44.0006467" lon="11.243625"><ele>269.0</ele><time>2026-04-11T12:06:24.42Z</time></trkpt><trkpt lat="44.0008083" lon="11.24363"><ele>269.0</ele><time>2026-04-11T12:06:25.42Z</time></trkpt><trkpt lat="44.0009583" lon="11.243615"><ele>269.75</ele><time>2026-04-11T12:06:26.42Z</time></trkpt><trkpt lat="44.0011017" lon="11.2435767"><ele>270.5</ele><time>2026-04-11T12:06:27.42Z</time></trkpt><trkpt lat="44.0012417" lon="11.2435233"><ele>271.25</ele><time>2026-04-11T12:06:28.42Z</time></trkpt><trkpt lat="44.001375" lon="11.2434567"><ele>272.0</ele><time>2026-04-11T12:06:29.419Z</time></trkpt><trkpt lat="44.0014967" lon="11.243385"><ele>272.0</ele><time>2026-04-11T12:06:30.42Z</time></trkpt><trkpt lat="44.0016217" lon="11.2433033"><ele>272.0</ele><time>2026-04-11T12:06:31.419Z</time></trkpt><trkpt lat="44.0017483" lon="11.2432233"><ele>272.0</ele><time>2026-04-11T12:06:32.422Z</time></trkpt><trkpt lat="44.001875" lon="11.2431483"><ele>272.0</ele><time>2026-04-11T12:06:33.421Z</time></trkpt><trkpt lat="44.0020033" lon="11.2430717"><ele>271.25</ele><time>2026-04-11T12:06:34.421Z</time></trkpt><trkpt lat="44.0021283" lon="11.242995"><ele>270.5</ele><time>2026-04-11T12:06:35.421Z</time></trkpt><trkpt lat="44.0022533" lon="11.24291"><ele>269.75</ele><time>2026-04-11T12:06:36.422Z</time></trkpt><trkpt lat="44.0023783" lon="11.2428167"><ele>269.0</ele><time>2026-04-11T12:06:37.42Z</time></trkpt><trkpt lat="44.0025017" lon="11.2427333"><ele>270.5</ele><time>2026-04-11T12:06:38.422Z</time></trkpt><trkpt lat="44.0026167" lon="11.2426617"><ele>272.0</ele><time>2026-04-11T12:06:39.421Z</time></trkpt><trkpt lat="44.0027217" lon="11.2425983"><ele>273.5</ele><time>2026-04-11T12:06:40.421Z</time></trkpt><trkpt lat="44.0028183" lon="11.242535"><ele>275.0</ele><time>2026-04-11T12:06:41.422Z</time></trkpt><trkpt lat="44.0029183" lon="11.242465"><ele>275.0</ele><time>2026-04-11T12:06:42.422Z</time></trkpt><trkpt lat="44.0030217" lon="11.2423867"><ele>275.0</ele><time>2026-04-11T12:06:43.42Z</time></trkpt><trkpt lat="44.003135" lon="11.2423017"><ele>275.0</ele><time>2026-04-11T12:06:44.422Z</time></trkpt><trkpt lat="44.0032517" lon="11.2422033"><ele>275.0</ele><time>2026-04-11T12:06:45.42Z</time></trkpt><trkpt lat="44.0033733" lon="11.242085"><ele>275.0</ele><time>2026-04-11T12:06:46.421Z</time></trkpt><trkpt lat="44.0034933" lon="11.2419483"><ele>275.0</ele><time>2026-04-11T12:06:47.422Z</time></trkpt><trkpt lat="44.0036067" lon="11.2417967"><ele>275.0</ele><time>2026-04-11T12:06:48.419Z</time></trkpt><trkpt lat="44.0037117" lon="11.2416417"><ele>275.0</ele><time>2026-04-11T12:06:49.421Z</time></trkpt><trkpt lat="44.0038067" lon="11.2414867"><ele>275.0</ele><time>2026-04-11T12:06:50.421Z</time></trkpt><trkpt lat="44.0038967" lon="11.2413367"><ele>275.0</ele><time>2026-04-11T12:06:51.421Z</time></trkpt><trkpt lat="44.0039867" lon="11.241185"><ele>275.0</ele><time>2026-04-11T12:06:52.422Z</time></trkpt><trkpt lat="44.004075" lon="11.24104"><ele>275.0</ele><time>2026-04-11T12:06:53.421Z</time></trkpt><trkpt lat="44.004155" lon="11.2409067"><ele>275.0</ele><time>2026-04-11T12:06:54.419Z</time></trkpt><trkpt lat="44.0042333" lon="11.240785"><ele>275.0</ele><time>2026-04-11T12:06:55.42Z</time></trkpt><trkpt lat="44.0043167" lon="11.2406667"><ele>275.0</ele><time>2026-04-11T12:06:56.421Z</time></trkpt><trkpt lat="44.0044067" lon="11.2405483"><ele>275.0</ele><time>2026-04-11T12:06:57.421Z</time></trkpt><trkpt lat="44.0045033" lon="11.240445"><ele>275.0</ele><time>2026-04-11T12:06:58.421Z</time></trkpt><trkpt lat="44.0046083" lon="11.2403567"><ele>275.0</ele><time>2026-04-11T12:06:59.419Z</time></trkpt><trkpt lat="44.0047183" lon="11.2402767"><ele>275.0</ele><time>2026-04-11T12:07:00.42Z</time></trkpt><trkpt lat="44.004835" lon="11.2402083"><ele>275.0</ele><time>2026-04-11T12:07:01.42Z</time></trkpt><trkpt lat="44.0049567" lon="11.2401567"><ele>275.0</ele><time>2026-04-11T12:07:02.422Z</time></trkpt><trkpt lat="44.0050833" lon="11.240115"><ele>275.0</ele><time>2026-04-11T12:07:03.421Z</time></trkpt><trkpt lat="44.005215" lon="11.2400783"><ele>275.0</ele><time>2026-04-11T12:07:04.421Z</time></trkpt><trkpt lat="44.005345" lon="11.240065"><ele>275.75</ele><time>2026-04-11T12:07:05.42Z</time></trkpt><trkpt lat="44.0054767" lon="11.2400683"><ele>276.5</ele><time>2026-04-11T12:07:06.421Z</time></trkpt><trkpt lat="44.0056017" lon="11.2400867"><ele>277.25</ele><time>2026-04-11T12:07:07.421Z</time></trkpt><trkpt lat="44.00573" lon="11.24011"><ele>278.0</ele><time>2026-04-11T12:07:08.42Z</time></trkpt><trkpt lat="44.0058633" lon="11.24014"><ele>278.5</ele><time>2026-04-11T12:07:09.42Z</time></trkpt><trkpt lat="44.006" lon="11.2401683"><ele>279.0</ele><time>2026-04-11T12:07:10.42Z</time></trkpt><trkpt lat="44.0061417" lon="11.2402"><ele>279.5</ele><time>2026-04-11T12:07:11.422Z</time></trkpt><trkpt lat="44.006285" lon="11.2402317"><ele>280.0</ele><time>2026-04-11T12:07:12.42Z</time></trkpt><trkpt lat="44.006425" lon="11.240265"><ele>280.0</ele><time>2026-04-11T12:07:13.42Z</time></trkpt><trkpt lat="44.0065783" lon="11.2402933"><ele>280.0</ele><time>2026-04-11T12:07:14.421Z</time></trkpt><trkpt lat="44.0067333" lon="11.2403283"><ele>280.0</ele><time>2026-04-11T12:07:15.422Z</time></trkpt><trkpt lat="44.0068833" lon="11.240365"><ele>279.25</ele><time>2026-04-11T12:07:16.421Z</time></trkpt><trkpt lat="44.007025" lon="11.2403967"><ele>278.5</ele><time>2026-04-11T12:07:17.419Z</time></trkpt><trkpt lat="44.0071533" lon="11.2404233"><ele>277.75</ele><time>2026-04-11T12:07:18.421Z</time></trkpt><trkpt lat="44.00727" lon="11.2404517"><ele>277.0</ele><time>2026-04-11T12:07:19.422Z</time></trkpt><trkpt lat="44.0073717" lon="11.240475"><ele>277.0</ele><time>2026-04-11T12:07:20.42Z</time></trkpt><trkpt lat="44.0074633" lon="11.2404933"><ele>277.0</ele><time>2026-04-11T12:07:21.422Z</time></trkpt><trkpt lat="44.0075533" lon="11.2405067"><ele>277.0</ele><time>2026-04-11T12:07:22.421Z</time></trkpt><trkpt lat="44.007645" lon="11.240515"><ele>277.0</ele><time>2026-04-11T12:07:23.421Z</time></trkpt><trkpt lat="44.0077383" lon="11.2405167"><ele>277.0</ele><time>2026-04-11T12:07:24.421Z</time></trkpt><trkpt lat="44.0078283" lon="11.2405167"><ele>277.3333333333333</ele><time>2026-04-11T12:07:25.421Z</time></trkpt><trkpt lat="44.007905" lon="11.240515"><ele>277.66666666666663</ele><time>2026-04-11T12:07:26.42Z</time></trkpt><trkpt lat="44.0079733" lon="11.24051"><ele>278.0</ele><time>2026-04-11T12:07:27.421Z</time></trkpt><trkpt lat="44.008045" lon="11.2405017"><ele>278.3333333333333</ele><time>2026-04-11T12:07:28.421Z</time></trkpt><trkpt lat="44.0081167" lon="11.2404967"><ele>278.6666666666667</ele><time>2026-04-11T12:07:29.423Z</time></trkpt><trkpt lat="44.0081833" lon="11.240495"><ele>279.0</ele><time>2026-04-11T12:07:30.422Z</time></trkpt><trkpt lat="44.0082933" lon="11.2405317"><ele>279.4</ele><time>2026-04-11T12:07:32.423Z</time></trkpt><trkpt lat="44.0083733" lon="11.2406483"><ele>279.79999999999995</ele><time>2026-04-11T12:07:34.42Z</time></trkpt><trkpt lat="44.0084" lon="11.2407383"><ele>280.20000000000005</ele><time>2026-04-11T12:07:35.42Z</time></trkpt><trkpt lat="44.00842" lon="11.2408317"><ele>280.6</ele><time>2026-04-11T12:07:36.422Z</time></trkpt><trkpt lat="44.0084467" lon="11.2409933"><ele>281.0</ele><time>2026-04-11T12:07:38.422Z</time></trkpt><trkpt lat="44.00845" lon="11.2411067"><ele>281.0</ele><time>2026-04-11T12:07:40.42Z</time></trkpt><trkpt lat="44.0084133" lon="11.2413017"><ele>281.0</ele><time>2026-04-11T12:10:30.418Z</time></trkpt><trkpt lat="44.0083983" lon="11.2414067"><ele>281.0</ele><time>2026-04-11T12:10:33.418Z</time></trkpt><trkpt lat="44.0083917" lon="11.241515"><ele>281.0</ele><time>2026-04-11T12:10:36.421Z</time></trkpt><trkpt lat="44.0084833" lon="11.241585"><ele>281.0</ele><time>2026-04-11T12:10:39.418Z</time></trkpt><trkpt lat="44.0085967" lon="11.2415983"><ele>281.5</ele><time>2026-04-11T12:10:41.418Z</time></trkpt><trkpt lat="44.00867" lon="11.2416133"><ele>282.0</ele><time>2026-04-11T12:10:42.419Z</time></trkpt><trkpt lat="44.0087533" lon="11.2416383"><ele>282.5</ele><time>2026-04-11T12:10:43.42Z</time></trkpt><trkpt lat="44.0088417" lon="11.2416633"><ele>283.0</ele><time>2026-04-11T12:10:44.42Z</time></trkpt><trkpt lat="44.0089317" lon="11.2416867"><ele>283.5</ele><time>2026-04-11T12:10:45.42Z</time></trkpt><trkpt lat="44.0090217" lon="11.2417083"><ele>284.0</ele><time>2026-04-11T12:10:46.42Z</time></trkpt><trkpt lat="44.00912" lon="11.24172"><ele>284.59999999999997</ele><time>2026-04-11T12:10:47.421Z</time></trkpt><trkpt lat="44.0092183" lon="11.24172"><ele>285.2</ele><time>2026-04-11T12:10:48.421Z</time></trkpt><trkpt lat="44.0093267" lon="11.2417017"><ele>285.79999999999995</ele><time>2026-04-11T12:10:49.421Z</time></trkpt><trkpt lat="44.00944" lon="11.2416733"><ele>286.4</ele><time>2026-04-11T12:10:50.422Z</time></trkpt><trkpt lat="44.0095517" lon="11.241645"><ele>287.0</ele><time>2026-04-11T12:10:51.421Z</time></trkpt><trkpt lat="44.0096717" lon="11.2416317"><ele>287.0</ele><time>2026-04-11T12:10:52.419Z</time></trkpt><trkpt lat="44.0097967" lon="11.2416367"><ele>287.0</ele><time>2026-04-11T12:10:53.419Z</time></trkpt><trkpt lat="44.009945" lon="11.241655"><ele>287.0</ele><time>2026-04-11T12:10:54.42Z</time></trkpt><trkpt lat="44.01012" lon="11.24168"><ele>289.0</ele><time>2026-04-11T12:10:55.42Z</time></trkpt><trkpt lat="44.0103067" lon="11.241695"><ele>291.0</ele><time>2026-04-11T12:10:56.421Z</time></trkpt><trkpt lat="44.0105" lon="11.2416983"><ele>293.0</ele><time>2026-04-11T12:10:57.42Z</time></trkpt><trkpt lat="44.0106967" lon="11.2417"><ele>295.33333333333337</ele><time>2026-04-11T12:10:58.421Z</time></trkpt><trkpt lat="44.0108933" lon="11.2417033"><ele>297.6666666666667</ele><time>2026-04-11T12:10:59.42Z</time></trkpt><trkpt lat="44.011095" lon="11.2416983"><ele>300.0</ele><time>2026-04-11T12:11:00.422Z</time></trkpt><trkpt lat="44.0112833" lon="11.2416883"><ele>300.0</ele><time>2026-04-11T12:11:01.419Z</time></trkpt><trkpt lat="44.01145" lon="11.2416733"><ele>300.0</ele><time>2026-04-11T12:11:02.42Z</time></trkpt><trkpt lat="44.0115983" lon="11.24165"><ele>300.0</ele><time>2026-04-11T12:11:03.42Z</time></trkpt><trkpt lat="44.011735" lon="11.241615"><ele>302.0</ele><time>2026-04-11T12:11:04.419Z</time></trkpt><trkpt lat="44.011855" lon="11.241565"><ele>304.0</ele><time>2026-04-11T12:11:05.42Z</time></trkpt><trkpt lat="44.01197" lon="11.2415"><ele>306.0</ele><time>2026-04-11T12:11:06.421Z</time></trkpt><trkpt lat="44.01209" lon="11.2414267"><ele>308.0</ele><time>2026-04-11T12:11:07.422Z</time></trkpt><trkpt lat="44.0122283" lon="11.2413467"><ele>308.0</ele><time>2026-04-11T12:11:08.421Z</time></trkpt><trkpt lat="44.012365" lon="11.2412617"><ele>308.0</ele><time>2026-04-11T12:11:09.42Z</time></trkpt><trkpt lat="44.0125083" lon="11.2411883"><ele>308.0</ele><time>2026-04-11T12:11:10.42Z</time></trkpt><trkpt lat="44.0126533" lon="11.24112"><ele>312.6666666666667</ele><time>2026-04-11T12:11:11.421Z</time></trkpt><trkpt lat="44.0128117" lon="11.2410517"><ele>317.3333333333333</ele><time>2026-04-11T12:11:12.421Z</time></trkpt><trkpt lat="44.0129717" lon="11.240985"><ele>322.0</ele><time>2026-04-11T12:11:13.421Z</time></trkpt><trkpt lat="44.0131233" lon="11.2409367"><ele>322.0</ele><time>2026-04-11T12:11:14.419Z</time></trkpt><trkpt lat="44.0132683" lon="11.2409033"><ele>322.0</ele><time>2026-04-11T12:11:15.422Z</time></trkpt><trkpt lat="44.0134" lon="11.24088"><ele>322.0</ele><time>2026-04-11T12:11:16.42Z</time></trkpt><trkpt lat="44.0135283" lon="11.2408683"><ele>322.0</ele><time>2026-04-11T12:11:17.422Z</time></trkpt><trkpt lat="44.0136583" lon="11.2408683"><ele>324.25</ele><time>2026-04-11T12:11:18.422Z</time></trkpt><trkpt lat="44.01379" lon="11.240885"><ele>326.5</ele><time>2026-04-11T12:11:19.42Z</time></trkpt><trkpt lat="44.0139233" lon="11.2409133"><ele>328.75</ele><time>2026-04-11T12:11:20.421Z</time></trkpt><trkpt lat="44.0140833" lon="11.2409433"><ele>331.0</ele><time>2026-04-11T12:11:21.421Z</time></trkpt><trkpt lat="44.0142433" lon="11.2409817"><ele>334.0</ele><time>2026-04-11T12:11:22.42Z</time></trkpt><trkpt lat="44.0144167" lon="11.24102"><ele>337.0</ele><time>2026-04-11T12:11:23.422Z</time></trkpt><trkpt lat="44.0145767" lon="11.24107"><ele>340.0</ele><time>2026-04-11T12:11:24.422Z</time></trkpt><trkpt lat="44.014725" lon="11.24114"><ele>340.0</ele><time>2026-04-11T12:11:25.421Z</time></trkpt><trkpt lat="44.0148683" lon="11.24124"><ele>340.0</ele><time>2026-04-11T12:11:26.421Z</time></trkpt><trkpt lat="44.01502" lon="11.241345"><ele>340.0</ele><time>2026-04-11T12:11:27.42Z</time></trkpt><trkpt lat="44.0151733" lon="11.241445"><ele>340.75</ele><time>2026-04-11T12:11:28.419Z</time></trkpt><trkpt lat="44.01532" lon="11.2415317"><ele>341.5</ele><time>2026-04-11T12:11:29.421Z</time></trkpt><trkpt lat="44.0154467" lon="11.2415983"><ele>342.25</ele><time>2026-04-11T12:11:30.421Z</time></trkpt><trkpt lat="44.01556" lon="11.2416367"><ele>343.0</ele><time>2026-04-11T12:11:31.42Z</time></trkpt><trkpt lat="44.0156683" lon="11.2416383"><ele>343.0</ele><time>2026-04-11T12:11:32.419Z</time></trkpt><trkpt lat="44.0157817" lon="11.24161"><ele>343.0</ele><time>2026-04-11T12:11:33.419Z</time></trkpt><trkpt lat="44.0159033" lon="11.24157"><ele>343.0</ele><time>2026-04-11T12:11:34.419Z</time></trkpt><trkpt lat="44.01601" lon="11.24154"><ele>343.0</ele><time>2026-04-11T12:11:35.419Z</time></trkpt><trkpt lat="44.0161133" lon="11.241525"><ele>344.59999999999997</ele><time>2026-04-11T12:11:36.42Z</time></trkpt><trkpt lat="44.0162183" lon="11.2415317"><ele>346.2</ele><time>2026-04-11T12:11:37.42Z</time></trkpt><trkpt lat="44.0163267" lon="11.24156"><ele>347.8</ele><time>2026-04-11T12:11:38.422Z</time></trkpt><trkpt lat="44.0164333" lon="11.2416117"><ele>349.4</ele><time>2026-04-11T12:11:39.42Z</time></trkpt><trkpt lat="44.0165267" lon="11.2416733"><ele>351.0</ele><time>2026-04-11T12:11:40.421Z</time></trkpt><trkpt lat="44.0166067" lon="11.2417417"><ele>352.0</ele><time>2026-04-11T12:11:41.42Z</time></trkpt><trkpt lat="44.0166867" lon="11.2418133"><ele>353.0</ele><time>2026-04-11T12:11:42.421Z</time></trkpt><trkpt lat="44.01676" lon="11.2418967"><ele>354.0</ele><time>2026-04-11T12:11:43.421Z</time></trkpt><trkpt lat="44.0168167" lon="11.2419933"><ele>355.0</ele><time>2026-04-11T12:11:44.422Z</time></trkpt><trkpt lat="44.01687" lon="11.2421083"><ele>356.0</ele><time>2026-04-11T12:11:45.419Z</time></trkpt><trkpt lat="44.01691" lon="11.2422217"><ele>356.4</ele><time>2026-04-11T12:11:46.422Z</time></trkpt><trkpt lat="44.01694" lon="11.2423233"><ele>356.8</ele><time>2026-04-11T12:11:47.422Z</time></trkpt><trkpt lat="44.016965" lon="11.2424233"><ele>357.2</ele><time>2026-04-11T12:11:48.421Z</time></trkpt><trkpt lat="44.0169867" lon="11.2425117"><ele>357.59999999999997</ele><time>2026-04-11T12:11:49.421Z</time></trkpt><trkpt lat="44.0170183" lon="11.2426717"><ele>358.0</ele><time>2026-04-11T12:11:51.42Z</time></trkpt><trkpt lat="44.017055" lon="11.2428317"><ele>358.0</ele><time>2026-04-11T12:11:53.419Z</time></trkpt><trkpt lat="44.017095" lon="11.242985"><ele>358.0</ele><time>2026-04-11T12:11:55.42Z</time></trkpt><trkpt lat="44.0171233" lon="11.24307"><ele>358.0</ele><time>2026-04-11T12:11:56.421Z</time></trkpt><trkpt lat="44.0171583" lon="11.2431567"><ele>358.0</ele><time>2026-04-11T12:11:57.421Z</time></trkpt><trkpt lat="44.0171967" lon="11.2432467"><ele>358.0</ele><time>2026-04-11T12:11:58.42Z</time></trkpt><trkpt lat="44.017235" lon="11.2433367"><ele>358.0</ele><time>2026-04-11T12:11:59.419Z</time></trkpt><trkpt lat="44.0172733" lon="11.243425"><ele>358.16666666666663</ele><time>2026-04-11T12:12:00.42Z</time></trkpt><trkpt lat="44.0173133" lon="11.2435167"><ele>358.3333333333333</ele><time>2026-04-11T12:12:01.419Z</time></trkpt><trkpt lat="44.017355" lon="11.2436033"><ele>358.5</ele><time>2026-04-11T12:12:02.42Z</time></trkpt><trkpt lat="44.0173967" lon="11.2436933"><ele>358.6666666666667</ele><time>2026-04-11T12:12:03.42Z</time></trkpt><trkpt lat="44.0174333" lon="11.2437917"><ele>358.83333333333337</ele><time>2026-04-11T12:12:04.422Z</time></trkpt><trkpt lat="44.017475" lon="11.2439033"><ele>359.0</ele><time>2026-04-11T12:12:05.421Z</time></trkpt><trkpt lat="44.0175133" lon="11.2440067"><ele>361.0</ele><time>2026-04-11T12:12:06.421Z</time></trkpt><trkpt lat="44.0175517" lon="11.2441"><ele>363.0</ele><time>2026-04-11T12:12:07.419Z</time></trkpt><trkpt lat="44.0175933" lon="11.24419"><ele>365.0</ele><time>2026-04-11T12:12:08.421Z</time></trkpt><trkpt lat="44.0176333" lon="11.24428"><ele>367.0</ele><time>2026-04-11T12:12:09.421Z</time></trkpt><trkpt lat="44.01768" lon="11.2443817"><ele>369.0</ele><time>2026-04-11T12:12:10.421Z</time></trkpt><trkpt lat="44.0177317" lon="11.2444867"><ele>371.0</ele><time>2026-04-11T12:12:11.42Z</time></trkpt><trkpt lat="44.0177917" lon="11.2446067"><ele>371.0</ele><time>2026-04-11T12:12:12.422Z</time></trkpt><trkpt lat="44.0178533" lon="11.24474"><ele>371.0</ele><time>2026-04-11T12:12:13.42Z</time></trkpt><trkpt lat="44.0179183" lon="11.24488"><ele>371.0</ele><time>2026-04-11T12:12:14.421Z</time></trkpt><trkpt lat="44.0179817" lon="11.2449983"><ele>371.0</ele><time>2026-04-11T12:12:15.42Z</time></trkpt><trkpt lat="44.0180433" lon="11.2451017"><ele>371.0</ele><time>2026-04-11T12:12:16.42Z</time></trkpt><trkpt lat="44.0181133" lon="11.2452017"><ele>370.8</ele><time>2026-04-11T12:12:17.422Z</time></trkpt><trkpt lat="44.0181883" lon="11.245285"><ele>370.6</ele><time>2026-04-11T12:12:18.422Z</time></trkpt><trkpt lat="44.0182683" lon="11.2453583"><ele>370.4</ele><time>2026-04-11T12:12:19.42Z</time></trkpt><trkpt lat="44.0183483" lon="11.245425"><ele>370.2</ele><time>2026-04-11T12:12:20.419Z</time></trkpt><trkpt lat="44.01843" lon="11.2454783"><ele>370.0</ele><time>2026-04-11T12:12:21.421Z</time></trkpt><trkpt lat="44.018525" lon="11.2455317"><ele>370.66666666666663</ele><time>2026-04-11T12:12:22.42Z</time></trkpt><trkpt lat="44.01862" lon="11.2455683"><ele>371.3333333333333</ele><time>2026-04-11T12:12:23.421Z</time></trkpt><trkpt lat="44.0187117" lon="11.2455933"><ele>372.0</ele><time>2026-04-11T12:12:24.42Z</time></trkpt><trkpt lat="44.018795" lon="11.2456183"><ele>372.6666666666667</ele><time>2026-04-11T12:12:25.422Z</time></trkpt><trkpt lat="44.0188717" lon="11.2456517"><ele>373.33333333333337</ele><time>2026-04-11T12:12:26.422Z</time></trkpt><trkpt lat="44.0189433" lon="11.2456867"><ele>374.0</ele><time>2026-04-11T12:12:27.42Z</time></trkpt><trkpt lat="44.0190033" lon="11.2457133"><ele>375.0</ele><time>2026-04-11T12:12:28.42Z</time></trkpt><trkpt lat="44.0191133" lon="11.245695"><ele>376.0</ele><time>2026-04-11T12:12:30.42Z</time></trkpt><trkpt lat="44.019185" lon="11.2456667"><ele>377.0</ele><time>2026-04-11T12:12:31.42Z</time></trkpt><trkpt lat="44.0192767" lon="11.24564"><ele>378.0</ele><time>2026-04-11T12:12:32.419Z</time></trkpt><trkpt lat="44.01937" lon="11.2456067"><ele>379.0</ele><time>2026-04-11T12:12:33.421Z</time></trkpt><trkpt lat="44.01947" lon="11.2455733"><ele>379.0</ele><time>2026-04-11T12:12:34.42Z</time></trkpt><trkpt lat="44.0195767" lon="11.2455367"><ele>379.0</ele><time>2026-04-11T12:12:35.421Z</time></trkpt><trkpt lat="44.01969" lon="11.2454967"><ele>379.0</ele><time>2026-04-11T12:12:36.421Z</time></trkpt><trkpt lat="44.0198017" lon="11.2454583"><ele>379.0</ele><time>2026-04-11T12:12:37.42Z</time></trkpt><trkpt lat="44.0199167" lon="11.2454167"><ele>381.4</ele><time>2026-04-11T12:12:38.421Z</time></trkpt><trkpt lat="44.0200283" lon="11.2453767"><ele>383.79999999999995</ele><time>2026-04-11T12:12:39.422Z</time></trkpt><trkpt lat="44.020135" lon="11.2453383"><ele>386.20000000000005</ele><time>2026-04-11T12:12:40.422Z</time></trkpt><trkpt lat="44.0202417" lon="11.245305"><ele>388.6</ele><time>2026-04-11T12:12:41.422Z</time></trkpt><trkpt lat="44.0203383" lon="11.2452767"><ele>391.0</ele><time>2026-04-11T12:12:42.42Z</time></trkpt><trkpt lat="44.02043" lon="11.2452517"><ele>391.0</ele><time>2026-04-11T12:12:43.42Z</time></trkpt><trkpt lat="44.02053" lon="11.2452267"><ele>391.0</ele><time>2026-04-11T12:12:44.42Z</time></trkpt><trkpt lat="44.0206233" lon="11.2452117"><ele>391.0</ele><time>2026-04-11T12:12:45.422Z</time></trkpt><trkpt lat="44.02072" lon="11.2452033"><ele>391.0</ele><time>2026-04-11T12:12:46.419Z</time></trkpt><trkpt lat="44.0208117" lon="11.2451917"><ele>391.0</ele><time>2026-04-11T12:12:47.42Z</time></trkpt><trkpt lat="44.0208933" lon="11.2451733"><ele>393.1666666666667</ele><time>2026-04-11T12:12:48.421Z</time></trkpt><trkpt lat="44.02097" lon="11.2451467"><ele>395.33333333333337</ele><time>2026-04-11T12:12:49.42Z</time></trkpt><trkpt lat="44.0210467" lon="11.2450983"><ele>397.5</ele><time>2026-04-11T12:12:50.421Z</time></trkpt><trkpt lat="44.021125" lon="11.245045"><ele>399.66666666666663</ele><time>2026-04-11T12:12:51.42Z</time></trkpt><trkpt lat="44.02119" lon="11.2449767"><ele>401.8333333333333</ele><time>2026-04-11T12:12:52.422Z</time></trkpt><trkpt lat="44.021255" lon="11.2449067"><ele>404.0</ele><time>2026-04-11T12:12:53.421Z</time></trkpt><trkpt lat="44.0213067" lon="11.24483"><ele>403.2</ele><time>2026-04-11T12:12:54.42Z</time></trkpt><trkpt lat="44.0213517" lon="11.2447533"><ele>402.4</ele><time>2026-04-11T12:12:55.422Z</time></trkpt><trkpt lat="44.0213983" lon="11.24469"><ele>401.6</ele><time>2026-04-11T12:12:56.421Z</time></trkpt><trkpt lat="44.0215033" lon="11.2446017"><ele>400.8</ele><time>2026-04-11T12:12:58.421Z</time></trkpt><trkpt lat="44.0216233" lon="11.244555"><ele>400.0</ele><time>2026-04-11T12:13:00.421Z</time></trkpt><trkpt lat="44.0217" lon="11.244565"><ele>401.50000000000006</ele><time>2026-04-11T12:13:01.421Z</time></trkpt><trkpt lat="44.021775" lon="11.2446017"><ele>403.0</ele><time>2026-04-11T12:13:02.421Z</time></trkpt><trkpt lat="44.0218533" lon="11.2446533"><ele>404.5</ele><time>2026-04-11T12:13:03.419Z</time></trkpt><trkpt lat="44.0219333" lon="11.244715"><ele>406.0</ele><time>2026-04-11T12:13:04.422Z</time></trkpt><trkpt lat="44.0220133" lon="11.244775"><ele>407.50000000000006</ele><time>2026-04-11T12:13:05.42Z</time></trkpt><trkpt lat="44.0221" lon="11.244835"><ele>409.0</ele><time>2026-04-11T12:13:06.42Z</time></trkpt><trkpt lat="44.022185" lon="11.2448817"><ele>409.83333333333337</ele><time>2026-04-11T12:13:07.419Z</time></trkpt><trkpt lat="44.022265" lon="11.2449233"><ele>410.6666666666667</ele><time>2026-04-11T12:13:08.419Z</time></trkpt><trkpt lat="44.0223383" lon="11.244945"><ele>411.5</ele><time>2026-04-11T12:13:09.418Z</time></trkpt><trkpt lat="44.022415" lon="11.2449317"><ele>412.33333333333337</ele><time>2026-04-11T12:13:10.418Z</time></trkpt><trkpt lat="44.0224883" lon="11.2449"><ele>413.1666666666667</ele><time>2026-04-11T12:13:11.42Z</time></trkpt><trkpt lat="44.0225517" lon="11.2448583"><ele>414.0</ele><time>2026-04-11T12:13:12.42Z</time></trkpt><trkpt lat="44.022605" lon="11.2448033"><ele>415.4</ele><time>2026-04-11T12:13:13.42Z</time></trkpt><trkpt lat="44.02266" lon="11.2447417"><ele>416.79999999999995</ele><time>2026-04-11T12:13:14.421Z</time></trkpt><trkpt lat="44.0227133" lon="11.2446817"><ele>418.20000000000005</ele><time>2026-04-11T12:13:15.419Z</time></trkpt><trkpt lat="44.022795" lon="11.2445633"><ele>419.6</ele><time>2026-04-11T12:13:17.42Z</time></trkpt><trkpt lat="44.0228833" lon="11.2444483"><ele>421.0</ele><time>2026-04-11T12:13:19.421Z</time></trkpt><trkpt lat="44.0229783" lon="11.2443217"><ele>421.0</ele><time>2026-04-11T12:13:21.419Z</time></trkpt><trkpt lat="44.02304" lon="11.24426"><ele>421.0</ele><time>2026-04-11T12:13:22.422Z</time></trkpt><trkpt lat="44.0230933" lon="11.2442017"><ele>421.0</ele><time>2026-04-11T12:13:23.42Z</time></trkpt><trkpt lat="44.0232117" lon="11.2441417"><ele>421.0</ele><time>2026-04-11T12:13:25.421Z</time></trkpt><trkpt lat="44.0233433" lon="11.2441583"><ele>421.0</ele><time>2026-04-11T12:13:27.42Z</time></trkpt><trkpt lat="44.0234333" lon="11.244175"><ele>424.33333333333337</ele><time>2026-04-11T12:13:28.421Z</time></trkpt><trkpt lat="44.0235117" lon="11.2441967"><ele>427.6666666666667</ele><time>2026-04-11T12:13:29.422Z</time></trkpt><trkpt lat="44.023575" lon="11.2442233"><ele>431.0</ele><time>2026-04-11T12:13:30.421Z</time></trkpt><trkpt lat="44.0236433" lon="11.24425"><ele>434.33333333333337</ele><time>2026-04-11T12:13:31.422Z</time></trkpt><trkpt lat="44.0237683" lon="11.2442917"><ele>437.6666666666667</ele><time>2026-04-11T12:13:33.421Z</time></trkpt><trkpt lat="44.02383" lon="11.2443183"><ele>441.0</ele><time>2026-04-11T12:13:34.422Z</time></trkpt><trkpt lat="44.0239" lon="11.244355"><ele>441.0</ele><time>2026-04-11T12:13:35.421Z</time></trkpt><trkpt lat="44.02397" lon="11.244395"><ele>441.0</ele><time>2026-04-11T12:13:36.422Z</time></trkpt><trkpt lat="44.0240433" lon="11.2444217"><ele>441.0</ele><time>2026-04-11T12:13:37.421Z</time></trkpt><trkpt lat="44.0241117" lon="11.24444"><ele>441.0</ele><time>2026-04-11T12:13:38.421Z</time></trkpt><trkpt lat="44.0241817" lon="11.2444433"><ele>441.0</ele><time>2026-04-11T12:13:39.421Z</time></trkpt><trkpt lat="44.0242533" lon="11.244445"><ele>441.0</ele><time>2026-04-11T12:13:40.422Z</time></trkpt><trkpt lat="44.0243167" lon="11.2444433"><ele>441.0</ele><time>2026-04-11T12:13:41.421Z</time></trkpt><trkpt lat="44.0243883" lon="11.2444467"><ele>442.8333333333333</ele><time>2026-04-11T12:13:42.422Z</time></trkpt><trkpt lat="44.0244667" lon="11.2444483"><ele>444.66666666666663</ele><time>2026-04-11T12:13:43.42Z</time></trkpt><trkpt lat="44.0245317" lon="11.244455"><ele>446.5</ele><time>2026-04-11T12:13:44.422Z</time></trkpt><trkpt lat="44.02466" lon="11.24449"><ele>448.3333333333333</ele><time>2026-04-11T12:13:46.423Z</time></trkpt><trkpt lat="44.0247317" lon="11.2445267"><ele>450.16666666666663</ele><time>2026-04-11T12:13:47.421Z</time></trkpt><trkpt lat="44.0248083" lon="11.2445733"><ele>452.0</ele><time>2026-04-11T12:13:48.42Z</time></trkpt><trkpt lat="44.0248833" lon="11.244625"><ele>452.0</ele><time>2026-04-11T12:13:49.422Z</time></trkpt><trkpt lat="44.024955" lon="11.2446767"><ele>452.0</ele><time>2026-04-11T12:13:50.42Z</time></trkpt><trkpt lat="44.0250233" lon="11.24473"><ele>452.0</ele><time>2026-04-11T12:13:51.42Z</time></trkpt><trkpt lat="44.0250883" lon="11.244785"><ele>452.0</ele><time>2026-04-11T12:13:52.421Z</time></trkpt><trkpt lat="44.02515" lon="11.24483"><ele>452.0</ele><time>2026-04-11T12:13:53.422Z</time></trkpt><trkpt lat="44.0252083" lon="11.2448783"><ele>452.0</ele><time>2026-04-11T12:13:54.42Z</time></trkpt><trkpt lat="44.0252717" lon="11.244935"><ele>452.0</ele><time>2026-04-11T12:13:55.421Z</time></trkpt><trkpt lat="44.0253433" lon="11.2449983"><ele>454.20000000000005</ele><time>2026-04-11T12:13:56.422Z</time></trkpt><trkpt lat="44.0254233" lon="11.2450733"><ele>456.40000000000003</ele><time>2026-04-11T12:13:57.434Z</time></trkpt><trkpt lat="44.025505" lon="11.2451533"><ele>458.59999999999997</ele><time>2026-04-11T12:13:58.418Z</time></trkpt><trkpt lat="44.02557" lon="11.2452183"><ele>460.79999999999995</ele><time>2026-04-11T12:13:59.424Z</time></trkpt><trkpt lat="44.0256367" lon="11.245285"><ele>463.0</ele><time>2026-04-11T12:14:00.421Z</time></trkpt><trkpt lat="44.0257133" lon="11.245355"><ele>463.00000000000006</ele><time>2026-04-11T12:14:01.419Z</time></trkpt><trkpt lat="44.0257833" lon="11.245415"><ele>463.0</ele><time>2026-04-11T12:14:02.419Z</time></trkpt><trkpt lat="44.0258567" lon="11.2454883"><ele>463.0</ele><time>2026-04-11T12:14:03.419Z</time></trkpt><trkpt lat="44.025925" lon="11.24554"><ele>463.0</ele><time>2026-04-11T12:14:04.419Z</time></trkpt><trkpt lat="44.02599" lon="11.2455933"><ele>463.00000000000006</ele><time>2026-04-11T12:14:05.42Z</time></trkpt><trkpt lat="44.0260567" lon="11.2456433"><ele>463.0</ele><time>2026-04-11T12:14:06.419Z</time></trkpt><trkpt lat="44.0261217" lon="11.245685"><ele>464.2</ele><time>2026-04-11T12:14:07.418Z</time></trkpt><trkpt lat="44.0261817" lon="11.2457267"><ele>465.4</ele><time>2026-04-11T12:14:08.419Z</time></trkpt><trkpt lat="44.0262783" lon="11.2458133"><ele>466.59999999999997</ele><time>2026-04-11T12:14:10.419Z</time></trkpt><trkpt lat="44.0263817" lon="11.24588"><ele>467.79999999999995</ele><time>2026-04-11T12:14:12.42Z</time></trkpt><trkpt lat="44.0264783" lon="11.2459417"><ele>469.0</ele><time>2026-04-11T12:14:14.421Z</time></trkpt><trkpt lat="44.0265717" lon="11.246005"><ele>469.2</ele><time>2026-04-11T12:14:16.421Z</time></trkpt><trkpt lat="44.02665" lon="11.2460733"><ele>469.4</ele><time>2026-04-11T12:14:18.422Z</time></trkpt><trkpt lat="44.02674" lon="11.24613"><ele>469.6</ele><time>2026-04-11T12:14:20.422Z</time></trkpt><trkpt lat="44.0268433" lon="11.2462"><ele>469.8</ele><time>2026-04-11T12:14:22.422Z</time></trkpt><trkpt lat="44.0269583" lon="11.2462833"><ele>470.0</ele><time>2026-04-11T12:14:24.422Z</time></trkpt><trkpt lat="44.0270183" lon="11.2463233"><ele>469.99999999999994</ele><time>2026-04-11T12:14:25.419Z</time></trkpt><trkpt lat="44.027075" lon="11.24637"><ele>470.0</ele><time>2026-04-11T12:14:26.42Z</time></trkpt><trkpt lat="44.02713" lon="11.2464233"><ele>470.0</ele><time>2026-04-11T12:14:27.421Z</time></trkpt><trkpt lat="44.02722" lon="11.24654"><ele>470.0</ele><time>2026-04-11T12:14:29.422Z</time></trkpt><trkpt lat="44.0272683" lon="11.2466"><ele>469.99999999999994</ele><time>2026-04-11T12:14:30.422Z</time></trkpt><trkpt lat="44.02734" lon="11.2467117"><ele>470.0</ele><time>2026-04-11T12:14:32.423Z</time></trkpt><trkpt lat="44.0274217" lon="11.246805"><ele>469.3333333333333</ele><time>2026-04-11T12:14:34.42Z</time></trkpt><trkpt lat="44.0275233" lon="11.24684"><ele>468.66666666666663</ele><time>2026-04-11T12:14:36.422Z</time></trkpt><trkpt lat="44.027625" lon="11.246875"><ele>468.0</ele><time>2026-04-11T12:14:38.422Z</time></trkpt><trkpt lat="44.0277167" lon="11.24692"><ele>467.33333333333337</ele><time>2026-04-11T12:14:40.422Z</time></trkpt><trkpt lat="44.0277783" lon="11.246945"><ele>466.6666666666667</ele><time>2026-04-11T12:14:41.422Z</time></trkpt><trkpt lat="44.027845" lon="11.2469717"><ele>466.0</ele><time>2026-04-11T12:14:42.422Z</time></trkpt><trkpt lat="44.0279083" lon="11.2470033"><ele>466.0</ele><time>2026-04-11T12:14:43.421Z</time></trkpt><trkpt lat="44.0280033" lon="11.247065"><ele>466.0</ele><time>2026-04-11T12:14:45.421Z</time></trkpt><trkpt lat="44.0280617" lon="11.2471167"><ele>466.0</ele><time>2026-04-11T12:14:47.421Z</time></trkpt><trkpt lat="44.0281267" lon="11.2471617"><ele>466.0</ele><time>2026-04-11T12:14:49.421Z</time></trkpt><trkpt lat="44.02821" lon="11.2472483"><ele>466.0</ele><time>2026-04-11T12:14:51.421Z</time></trkpt><trkpt lat="44.0283083" lon="11.247355"><ele>467.8</ele><time>2026-04-11T12:14:53.421Z</time></trkpt><trkpt lat="44.0284083" lon="11.2474567"><ele>469.6</ele><time>2026-04-11T12:14:55.422Z</time></trkpt><trkpt lat="44.0284817" lon="11.2475317"><ele>471.4</ele><time>2026-04-11T12:14:57.422Z</time></trkpt><trkpt lat="44.0285733" lon="11.2476283"><ele>473.2</ele><time>2026-04-11T12:14:59.42Z</time></trkpt><trkpt lat="44.0286567" lon="11.2477367"><ele>475.0</ele><time>2026-04-11T12:15:01.42Z</time></trkpt><trkpt lat="44.0287133" lon="11.2478067"><ele>475.00000000000006</ele><time>2026-04-11T12:15:02.419Z</time></trkpt><trkpt lat="44.02877" lon="11.2478867"><ele>475.0</ele><time>2026-04-11T12:15:03.421Z</time></trkpt><trkpt lat="44.0288167" lon="11.24795"><ele>475.0</ele><time>2026-04-11T12:15:04.422Z</time></trkpt><trkpt lat="44.02887" lon="11.2479983"><ele>475.0</ele><time>2026-04-11T12:15:05.422Z</time></trkpt><trkpt lat="44.0289767" lon="11.248055"><ele>475.00000000000006</ele><time>2026-04-11T12:15:07.421Z</time></trkpt><trkpt lat="44.0290417" lon="11.2481"><ele>475.0</ele><time>2026-04-11T12:15:08.421Z</time></trkpt><trkpt lat="44.0291083" lon="11.2481383"><ele>474.2</ele><time>2026-04-11T12:15:09.421Z</time></trkpt><trkpt lat="44.0292" lon="11.248175"><ele>473.4</ele><time>2026-04-11T12:15:10.42Z</time></trkpt><trkpt lat="44.0292833" lon="11.2482217"><ele>472.6</ele><time>2026-04-11T12:15:11.421Z</time></trkpt><trkpt lat="44.0293683" lon="11.2482683"><ele>471.8</ele><time>2026-04-11T12:15:12.422Z</time></trkpt><trkpt lat="44.029455" lon="11.2483083"><ele>471.0</ele><time>2026-04-11T12:15:13.422Z</time></trkpt><trkpt lat="44.0295467" lon="11.24836"><ele>471.0</ele><time>2026-04-11T12:15:14.422Z</time></trkpt><trkpt lat="44.0296333" lon="11.2484033"><ele>471.0</ele><time>2026-04-11T12:15:15.421Z</time></trkpt><trkpt lat="44.029715" lon="11.2484367"><ele>471.0</ele><time>2026-04-11T12:15:16.422Z</time></trkpt><trkpt lat="44.0297933" lon="11.2484617"><ele>471.0</ele><time>2026-04-11T12:15:17.421Z</time></trkpt><trkpt lat="44.0298683" lon="11.2484883"><ele>471.0</ele><time>2026-04-11T12:15:18.422Z</time></trkpt><trkpt lat="44.0299333" lon="11.248505"><ele>471.0</ele><time>2026-04-11T12:15:19.42Z</time></trkpt><trkpt lat="44.0300067" lon="11.2485317"><ele>474.20000000000005</ele><time>2026-04-11T12:15:20.42Z</time></trkpt><trkpt lat="44.0300867" lon="11.2485583"><ele>477.40000000000003</ele><time>2026-04-11T12:15:21.421Z</time></trkpt><trkpt lat="44.0301483" lon="11.2485883"><ele>480.6</ele><time>2026-04-11T12:15:22.42Z</time></trkpt><trkpt lat="44.0302567" lon="11.2486517"><ele>483.8</ele><time>2026-04-11T12:15:24.42Z</time></trkpt><trkpt lat="44.0303617" lon="11.2486967"><ele>487.0</ele><time>2026-04-11T12:15:26.422Z</time></trkpt><trkpt lat="44.0304567" lon="11.2487417"><ele>487.0</ele><time>2026-04-11T12:15:28.421Z</time></trkpt><trkpt lat="44.03055" lon="11.2487683"><ele>487.00000000000006</ele><time>2026-04-11T12:15:30.42Z</time></trkpt><trkpt lat="44.0306633" lon="11.2487633"><ele>487.00000000000006</ele><time>2026-04-11T12:15:32.423Z</time></trkpt><trkpt lat="44.03074" lon="11.2487367"><ele>487.0</ele><time>2026-04-11T12:15:33.42Z</time></trkpt><trkpt lat="44.0308217" lon="11.2487133"><ele>487.0</ele><time>2026-04-11T12:15:34.421Z</time></trkpt><trkpt lat="44.0309133" lon="11.248695"><ele>488.83333333333337</ele><time>2026-04-11T12:15:35.422Z</time></trkpt><trkpt lat="44.031005" lon="11.2486883"><ele>490.6666666666667</ele><time>2026-04-11T12:15:36.422Z</time></trkpt><trkpt lat="44.0310967" lon="11.2486917"><ele>492.5</ele><time>2026-04-11T12:15:37.423Z</time></trkpt><trkpt lat="44.0311817" lon="11.248695"><ele>494.33333333333337</ele><time>2026-04-11T12:15:38.421Z</time></trkpt><trkpt lat="44.0312733" lon="11.2487017"><ele>496.1666666666667</ele><time>2026-04-11T12:15:39.421Z</time></trkpt><trkpt lat="44.03136" lon="11.24871"><ele>498.0</ele><time>2026-04-11T12:15:40.422Z</time></trkpt><trkpt lat="44.03144" lon="11.2487117"><ele>498.0</ele><time>2026-04-11T12:15:41.42Z</time></trkpt><trkpt lat="44.0315117" lon="11.2487083"><ele>497.99999999999994</ele><time>2026-04-11T12:15:42.42Z</time></trkpt><trkpt lat="44.0316283" lon="11.2486717"><ele>497.99999999999994</ele><time>2026-04-11T12:15:44.421Z</time></trkpt><trkpt lat="44.0317683" lon="11.2486367"><ele>498.0</ele><time>2026-04-11T12:15:46.422Z</time></trkpt><trkpt lat="44.0318433" lon="11.2486233"><ele>498.0</ele><time>2026-04-11T12:15:47.421Z</time></trkpt><trkpt lat="44.03193" lon="11.2486317"><ele>498.1666666666667</ele><time>2026-04-11T12:15:48.423Z</time></trkpt><trkpt lat="44.032005" lon="11.2486467"><ele>498.33333333333337</ele><time>2026-04-11T12:15:49.419Z</time></trkpt><trkpt lat="44.0321033" lon="11.2486667"><ele>498.5</ele><time>2026-04-11T12:15:50.42Z</time></trkpt><trkpt lat="44.0322083" lon="11.2486967"><ele>498.6666666666667</ele><time>2026-04-11T12:15:51.422Z</time></trkpt><trkpt lat="44.032295" lon="11.248715"><ele>498.83333333333337</ele><time>2026-04-11T12:15:52.422Z</time></trkpt><trkpt lat="44.0323683" lon="11.2487233"><ele>499.0</ele><time>2026-04-11T12:15:53.422Z</time></trkpt><trkpt lat="44.032435" lon="11.24873"><ele>497.1666666666667</ele><time>2026-04-11T12:15:54.42Z</time></trkpt><trkpt lat="44.0324983" lon="11.2487367"><ele>495.33333333333337</ele><time>2026-04-11T12:15:55.421Z</time></trkpt><trkpt lat="44.0326083" lon="11.2487367"><ele>493.5</ele><time>2026-04-11T12:15:57.418Z</time></trkpt><trkpt lat="44.032685" lon="11.2487133"><ele>491.66666666666663</ele><time>2026-04-11T12:15:59.422Z</time></trkpt><trkpt lat="44.03275" lon="11.2487267"><ele>489.8333333333333</ele><time>2026-04-11T12:17:43.421Z</time></trkpt><trkpt lat="44.0328217" lon="11.248715"><ele>488.0</ele><time>2026-04-11T12:17:45.421Z</time></trkpt><trkpt lat="44.03291" lon="11.2487267"><ele>487.99999999999994</ele><time>2026-04-11T12:17:47.421Z</time></trkpt><trkpt lat="44.032985" lon="11.248775"><ele>488.0</ele><time>2026-04-11T12:17:49.423Z</time></trkpt><trkpt lat="44.0330533" lon="11.2488417"><ele>488.0</ele><time>2026-04-11T12:17:51.42Z</time></trkpt><trkpt lat="44.0331167" lon="11.2489117"><ele>488.0</ele><time>2026-04-11T12:17:53.419Z</time></trkpt><trkpt lat="44.033175" lon="11.2489967"><ele>487.99999999999994</ele><time>2026-04-11T12:17:55.422Z</time></trkpt><trkpt lat="44.033255" lon="11.2491017"><ele>488.0</ele><time>2026-04-11T12:17:57.421Z</time></trkpt><trkpt lat="44.0333567" lon="11.2492033"><ele>488.2</ele><time>2026-04-11T12:17:59.421Z</time></trkpt><trkpt lat="44.0334583" lon="11.24929"><ele>488.4</ele><time>2026-04-11T12:18:01.423Z</time></trkpt><trkpt lat="44.0335583" lon="11.249375"><ele>488.59999999999997</ele><time>2026-04-11T12:18:03.421Z</time></trkpt><trkpt lat="44.033615" lon="11.2494217"><ele>488.79999999999995</ele><time>2026-04-11T12:18:04.422Z</time></trkpt><trkpt lat="44.033675" lon="11.2494783"><ele>489.0</ele><time>2026-04-11T12:18:05.421Z</time></trkpt><trkpt lat="44.0337383" lon="11.2495383"><ele>489.0</ele><time>2026-04-11T12:18:06.422Z</time></trkpt><trkpt lat="44.0338083" lon="11.24961"><ele>489.0</ele><time>2026-04-11T12:18:07.422Z</time></trkpt><trkpt lat="44.033875" lon="11.2496733"><ele>489.0</ele><time>2026-04-11T12:18:08.422Z</time></trkpt><trkpt lat="44.033935" lon="11.249735"><ele>489.0</ele><time>2026-04-11T12:18:09.422Z</time></trkpt><trkpt lat="44.03399" lon="11.2497917"><ele>489.0</ele><time>2026-04-11T12:18:10.42Z</time></trkpt><trkpt lat="44.0340433" lon="11.2498467"><ele>489.0</ele><time>2026-04-11T12:18:11.422Z</time></trkpt><trkpt lat="44.0341033" lon="11.24991"><ele>488.6666666666667</ele><time>2026-04-11T12:18:12.421Z</time></trkpt><trkpt lat="44.034155" lon="11.24998"><ele>488.33333333333337</ele><time>2026-04-11T12:18:13.421Z</time></trkpt><trkpt lat="44.034225" lon="11.2500517"><ele>488.0</ele><time>2026-04-11T12:18:14.422Z</time></trkpt><trkpt lat="44.034295" lon="11.250125"><ele>487.6666666666667</ele><time>2026-04-11T12:18:15.42Z</time></trkpt><trkpt lat="44.03436" lon="11.2501967"><ele>487.33333333333337</ele><time>2026-04-11T12:18:16.423Z</time></trkpt><trkpt lat="44.0344133" lon="11.2502517"><ele>487.0</ele><time>2026-04-11T12:18:17.42Z</time></trkpt><trkpt lat="44.0344683" lon="11.2503017"><ele>487.00000000000006</ele><time>2026-04-11T12:18:18.422Z</time></trkpt><trkpt lat="44.034525" lon="11.2503417"><ele>487.0</ele><time>2026-04-11T12:18:19.421Z</time></trkpt><trkpt lat="44.0345967" lon="11.25037"><ele>487.0</ele><time>2026-04-11T12:18:20.422Z</time></trkpt><trkpt lat="44.0346683" lon="11.2503733"><ele>487.0</ele><time>2026-04-11T12:18:21.421Z</time></trkpt><trkpt lat="44.0347833" lon="11.2504017"><ele>487.00000000000006</ele><time>2026-04-11T12:18:23.422Z</time></trkpt><trkpt lat="44.0348517" lon="11.2504233"><ele>487.0</ele><time>2026-04-11T12:18:24.422Z</time></trkpt><trkpt lat="44.0349167" lon="11.2504567"><ele>486.33333333333337</ele><time>2026-04-11T12:18:25.421Z</time></trkpt><trkpt lat="44.0349717" lon="11.2505033"><ele>485.6666666666667</ele><time>2026-04-11T12:18:26.421Z</time></trkpt><trkpt lat="44.0350567" lon="11.250555"><ele>485.0</ele><time>2026-04-11T12:18:27.42Z</time></trkpt><trkpt lat="44.0351367" lon="11.2506183"><ele>484.33333333333337</ele><time>2026-04-11T12:18:28.422Z</time></trkpt><trkpt lat="44.035215" lon="11.250685"><ele>483.6666666666667</ele><time>2026-04-11T12:18:29.422Z</time></trkpt><trkpt lat="44.0352917" lon="11.25075"><ele>483.0</ele><time>2026-04-11T12:18:30.421Z</time></trkpt><trkpt lat="44.0353567" lon="11.2508083"><ele>483.0</ele><time>2026-04-11T12:18:31.421Z</time></trkpt><trkpt lat="44.0354333" lon="11.2508633"><ele>482.99999999999994</ele><time>2026-04-11T12:18:32.422Z</time></trkpt><trkpt lat="44.0355083" lon="11.2509233"><ele>482.99999999999994</ele><time>2026-04-11T12:18:33.421Z</time></trkpt><trkpt lat="44.035595" lon="11.2509933"><ele>483.0</ele><time>2026-04-11T12:18:34.422Z</time></trkpt><trkpt lat="44.035675" lon="11.2510783"><ele>483.0</ele><time>2026-04-11T12:18:35.421Z</time></trkpt><trkpt lat="44.0357483" lon="11.2511783"><ele>480.79999999999995</ele><time>2026-04-11T12:18:36.422Z</time></trkpt><trkpt lat="44.0358267" lon="11.2513017"><ele>478.59999999999997</ele><time>2026-04-11T12:18:37.421Z</time></trkpt><trkpt lat="44.0358967" lon="11.25143"><ele>476.40000000000003</ele><time>2026-04-11T12:18:38.42Z</time></trkpt><trkpt lat="44.0359533" lon="11.2515567"><ele>474.20000000000005</ele><time>2026-04-11T12:18:39.422Z</time></trkpt><trkpt lat="44.0359983" lon="11.2516733"><ele>472.0</ele><time>2026-04-11T12:18:40.42Z</time></trkpt><trkpt lat="44.0360483" lon="11.25179"><ele>472.00000000000006</ele><time>2026-04-11T12:18:41.42Z</time></trkpt><trkpt lat="44.036075" lon="11.2518933"><ele>472.0</ele><time>2026-04-11T12:18:42.421Z</time></trkpt><trkpt lat="44.03609" lon="11.2519967"><ele>472.0</ele><time>2026-04-11T12:18:43.42Z</time></trkpt><trkpt lat="44.0360917" lon="11.252105"><ele>472.0</ele><time>2026-04-11T12:18:44.421Z</time></trkpt><trkpt lat="44.0360767" lon="11.2522167"><ele>472.00000000000006</ele><time>2026-04-11T12:18:45.42Z</time></trkpt><trkpt lat="44.0360433" lon="11.2523433"><ele>472.0</ele><time>2026-04-11T12:18:46.421Z</time></trkpt><trkpt lat="44.0359817" lon="11.2525"><ele>471.20000000000005</ele><time>2026-04-11T12:18:47.422Z</time></trkpt><trkpt lat="44.0359183" lon="11.2526367"><ele>470.40000000000003</ele><time>2026-04-11T12:18:48.423Z</time></trkpt><trkpt lat="44.035855" lon="11.2527633"><ele>469.59999999999997</ele><time>2026-04-11T12:18:49.423Z</time></trkpt><trkpt lat="44.035795" lon="11.25287"><ele>468.79999999999995</ele><time>2026-04-11T12:18:50.422Z</time></trkpt><trkpt lat="44.0357467" lon="11.25297"><ele>468.0</ele><time>2026-04-11T12:18:51.422Z</time></trkpt><trkpt lat="44.0357033" lon="11.2530733"><ele>466.79999999999995</ele><time>2026-04-11T12:18:52.421Z</time></trkpt><trkpt lat="44.0356683" lon="11.253185"><ele>465.59999999999997</ele><time>2026-04-11T12:18:53.422Z</time></trkpt><trkpt lat="44.0356417" lon="11.2533033"><ele>464.40000000000003</ele><time>2026-04-11T12:18:54.421Z</time></trkpt><trkpt lat="44.0356183" lon="11.253425"><ele>463.20000000000005</ele><time>2026-04-11T12:18:55.421Z</time></trkpt><trkpt lat="44.0356017" lon="11.2535817"><ele>462.0</ele><time>2026-04-11T12:18:56.423Z</time></trkpt><trkpt lat="44.0355883" lon="11.2537283"><ele>462.0</ele><time>2026-04-11T12:18:57.421Z</time></trkpt><trkpt lat="44.0355817" lon="11.2538633"><ele>462.0</ele><time>2026-04-11T12:18:58.422Z</time></trkpt><trkpt lat="44.0355783" lon="11.2539933"><ele>462.0</ele><time>2026-04-11T12:18:59.422Z</time></trkpt><trkpt lat="44.0355783" lon="11.2541167"><ele>462.0</ele><time>2026-04-11T12:19:00.42Z</time></trkpt><trkpt lat="44.03558" lon="11.25423"><ele>462.0</ele><time>2026-04-11T12:19:01.422Z</time></trkpt><trkpt lat="44.0355833" lon="11.2543383"><ele>462.0</ele><time>2026-04-11T12:19:02.422Z</time></trkpt><trkpt lat="44.035585" lon="11.2544467"><ele>463.40000000000003</ele><time>2026-04-11T12:19:03.42Z</time></trkpt><trkpt lat="44.0355867" lon="11.2545633"><ele>464.80000000000007</ele><time>2026-04-11T12:19:04.421Z</time></trkpt><trkpt lat="44.0355917" lon="11.25469"><ele>466.2</ele><time>2026-04-11T12:19:05.421Z</time></trkpt><trkpt lat="44.035595" lon="11.2548233"><ele>467.6</ele><time>2026-04-11T12:19:06.419Z</time></trkpt><trkpt lat="44.0355983" lon="11.25497"><ele>469.0</ele><time>2026-04-11T12:19:07.421Z</time></trkpt><trkpt lat="44.0356033" lon="11.2551183"><ele>469.0</ele><time>2026-04-11T12:19:08.423Z</time></trkpt><trkpt lat="44.0356083" lon="11.2552617"><ele>469.0</ele><time>2026-04-11T12:19:09.42Z</time></trkpt><trkpt lat="44.0356133" lon="11.25539"><ele>469.0</ele><time>2026-04-11T12:19:10.419Z</time></trkpt><trkpt lat="44.035615" lon="11.255515"><ele>469.0</ele><time>2026-04-11T12:19:11.421Z</time></trkpt><trkpt lat="44.0356183" lon="11.2556367"><ele>469.0</ele><time>2026-04-11T12:19:12.421Z</time></trkpt><trkpt lat="44.0356217" lon="11.2557517"><ele>469.1428571428571</ele><time>2026-04-11T12:19:13.421Z</time></trkpt><trkpt lat="44.0356283" lon="11.2558633"><ele>469.2857142857143</ele><time>2026-04-11T12:19:14.421Z</time></trkpt><trkpt lat="44.0356417" lon="11.2559733"><ele>469.42857142857144</ele><time>2026-04-11T12:19:15.42Z</time></trkpt><trkpt lat="44.0356633" lon="11.256075"><ele>469.57142857142856</ele><time>2026-04-11T12:19:16.422Z</time></trkpt><trkpt lat="44.0356983" lon="11.2561617"><ele>469.71428571428567</ele><time>2026-04-11T12:19:17.423Z</time></trkpt><trkpt lat="44.0357467" lon="11.2562183"><ele>469.85714285714283</ele><time>2026-04-11T12:19:18.421Z</time></trkpt><trkpt lat="44.035805" lon="11.2562833"><ele>470.0</ele><time>2026-04-11T12:19:19.42Z</time></trkpt><trkpt lat="44.035875" lon="11.25633"><ele>472.3333333333333</ele><time>2026-04-11T12:19:20.423Z</time></trkpt><trkpt lat="44.0359483" lon="11.2563717"><ele>474.66666666666663</ele><time>2026-04-11T12:19:21.419Z</time></trkpt><trkpt lat="44.0360217" lon="11.256415"><ele>477.0</ele><time>2026-04-11T12:19:22.422Z</time></trkpt><trkpt lat="44.036085" lon="11.2564317"><ele>479.33333333333337</ele><time>2026-04-11T12:19:23.422Z</time></trkpt><trkpt lat="44.0361533" lon="11.2564333"><ele>481.6666666666667</ele><time>2026-04-11T12:19:24.419Z</time></trkpt><trkpt lat="44.0362333" lon="11.2564217"><ele>484.0</ele><time>2026-04-11T12:19:25.42Z</time></trkpt><trkpt lat="44.0363117" lon="11.2563967"><ele>484.00000000000006</ele><time>2026-04-11T12:19:26.421Z</time></trkpt><trkpt lat="44.0363967" lon="11.2563633"><ele>484.0</ele><time>2026-04-11T12:19:27.42Z</time></trkpt><trkpt lat="44.036485" lon="11.2563333"><ele>484.0</ele><time>2026-04-11T12:19:28.422Z</time></trkpt><trkpt lat="44.03657" lon="11.2563067"><ele>484.0</ele><time>2026-04-11T12:19:29.423Z</time></trkpt><trkpt lat="44.0366567" lon="11.2563017"><ele>484.00000000000006</ele><time>2026-04-11T12:19:30.421Z</time></trkpt><trkpt lat="44.0367383" lon="11.2563067"><ele>484.0</ele><time>2026-04-11T12:19:31.421Z</time></trkpt><trkpt lat="44.03681" lon="11.2563283"><ele>485.00000000000006</ele><time>2026-04-11T12:19:32.421Z</time></trkpt><trkpt lat="44.0368817" lon="11.25636"><ele>486.0</ele><time>2026-04-11T12:19:33.42Z</time></trkpt><trkpt lat="44.0369583" lon="11.256405"><ele>487.0</ele><time>2026-04-11T12:19:34.421Z</time></trkpt><trkpt lat="44.037035" lon="11.2564483"><ele>488.0</ele><time>2026-04-11T12:19:35.422Z</time></trkpt><trkpt lat="44.0371133" lon="11.2565067"><ele>489.00000000000006</ele><time>2026-04-11T12:19:36.421Z</time></trkpt><trkpt lat="44.0372" lon="11.2565717"><ele>490.0</ele><time>2026-04-11T12:19:37.42Z</time></trkpt><trkpt lat="44.0372833" lon="11.2566383"><ele>491.0</ele><time>2026-04-11T12:19:38.421Z</time></trkpt><trkpt lat="44.0373683" lon="11.2567133"><ele>492.0</ele><time>2026-04-11T12:19:39.421Z</time></trkpt><trkpt lat="44.037455" lon="11.2567667"><ele>493.0</ele><time>2026-04-11T12:19:40.42Z</time></trkpt><trkpt lat="44.0375467" lon="11.2568117"><ele>494.0</ele><time>2026-04-11T12:19:41.42Z</time></trkpt><trkpt lat="44.0376317" lon="11.2568517"><ele>495.0</ele><time>2026-04-11T12:19:42.421Z</time></trkpt><trkpt lat="44.0377083" lon="11.2569017"><ele>496.4</ele><time>2026-04-11T12:19:43.42Z</time></trkpt><trkpt lat="44.0377817" lon="11.256975"><ele>497.8</ele><time>2026-04-11T12:19:44.42Z</time></trkpt><trkpt lat="44.0378583" lon="11.2570517"><ele>499.20000000000005</ele><time>2026-04-11T12:19:45.419Z</time></trkpt><trkpt lat="44.03794" lon="11.2571267"><ele>500.6</ele><time>2026-04-11T12:19:46.421Z</time></trkpt><trkpt lat="44.038025" lon="11.2572"><ele>502.0</ele><time>2026-04-11T12:19:47.42Z</time></trkpt><trkpt lat="44.0381167" lon="11.2572517"><ele>502.40000000000003</ele><time>2026-04-11T12:19:48.42Z</time></trkpt><trkpt lat="44.038225" lon="11.2572983"><ele>502.80000000000007</ele><time>2026-04-11T12:19:49.422Z</time></trkpt><trkpt lat="44.0383283" lon="11.25732"><ele>503.2</ele><time>2026-04-11T12:19:50.421Z</time></trkpt><trkpt lat="44.038445" lon="11.2573367"><ele>503.6</ele><time>2026-04-11T12:19:51.419Z</time></trkpt><trkpt lat="44.0385483" lon="11.2573417"><ele>504.0</ele><time>2026-04-11T12:19:52.422Z</time></trkpt><trkpt lat="44.0386483" lon="11.2573383"><ele>505.2</ele><time>2026-04-11T12:19:53.42Z</time></trkpt><trkpt lat="44.038735" lon="11.25732"><ele>506.4</ele><time>2026-04-11T12:19:54.421Z</time></trkpt><trkpt lat="44.0388233" lon="11.2572833"><ele>507.6</ele><time>2026-04-11T12:19:55.421Z</time></trkpt><trkpt lat="44.0389117" lon="11.257235"><ele>508.8</ele><time>2026-04-11T12:19:56.421Z</time></trkpt><trkpt lat="44.0389833" lon="11.2571883"><ele>510.0</ele><time>2026-04-11T12:19:57.422Z</time></trkpt><trkpt lat="44.03907" lon="11.2571167"><ele>509.5</ele><time>2026-04-11T12:19:59.421Z</time></trkpt><trkpt lat="44.0391467" lon="11.2571133"><ele>509.0</ele><time>2026-04-11T12:20:00.421Z</time></trkpt><trkpt lat="44.0392233" lon="11.2571317"><ele>508.5</ele><time>2026-04-11T12:20:01.422Z</time></trkpt><trkpt lat="44.0392983" lon="11.2571767"><ele>508.0</ele><time>2026-04-11T12:20:02.421Z</time></trkpt><trkpt lat="44.039375" lon="11.2572333"><ele>507.5</ele><time>2026-04-11T12:20:03.422Z</time></trkpt><trkpt lat="44.0394467" lon="11.2573033"><ele>507.0</ele><time>2026-04-11T12:20:04.421Z</time></trkpt><trkpt lat="44.0395167" lon="11.2573767"><ele>507.0</ele><time>2026-04-11T12:20:05.42Z</time></trkpt><trkpt lat="44.03958" lon="11.2574717"><ele>507.00000000000006</ele><time>2026-04-11T12:20:06.423Z</time></trkpt><trkpt lat="44.0396383" lon="11.2575833"><ele>507.00000000000006</ele><time>2026-04-11T12:20:07.42Z</time></trkpt><trkpt lat="44.0397017" lon="11.2577217"><ele>507.0</ele><time>2026-04-11T12:20:08.421Z</time></trkpt><trkpt lat="44.0397667" lon="11.2578733"><ele>507.0</ele><time>2026-04-11T12:20:09.421Z</time></trkpt><trkpt lat="44.039835" lon="11.2580183"><ele>506.8</ele><time>2026-04-11T12:20:10.422Z</time></trkpt><trkpt lat="44.0398983" lon="11.2581583"><ele>506.6</ele><time>2026-04-11T12:20:11.42Z</time></trkpt><trkpt lat="44.039955" lon="11.2582683"><ele>506.40000000000003</ele><time>2026-04-11T12:20:12.421Z</time></trkpt><trkpt lat="44.0400217" lon="11.25836"><ele>506.20000000000005</ele><time>2026-04-11T12:20:13.42Z</time></trkpt><trkpt lat="44.0400983" lon="11.2584433"><ele>506.0</ele><time>2026-04-11T12:20:14.421Z</time></trkpt><trkpt lat="44.04019" lon="11.2585"><ele>503.0</ele><time>2026-04-11T12:20:15.422Z</time></trkpt><trkpt lat="44.0402983" lon="11.2585483"><ele>500.0</ele><time>2026-04-11T12:20:16.421Z</time></trkpt><trkpt lat="44.0404233" lon="11.25859"><ele>497.0</ele><time>2026-04-11T12:20:17.42Z</time></trkpt><trkpt lat="44.04055" lon="11.2586133"><ele>494.0</ele><time>2026-04-11T12:20:18.421Z</time></trkpt><trkpt lat="44.0406867" lon="11.258635"><ele>492.75</ele><time>2026-04-11T12:20:19.422Z</time></trkpt><trkpt lat="44.0408133" lon="11.2586517"><ele>491.5</ele><time>2026-04-11T12:20:20.422Z</time></trkpt><trkpt lat="44.0409417" lon="11.2586683"><ele>490.25</ele><time>2026-04-11T12:20:21.422Z</time></trkpt><trkpt lat="44.04107" lon="11.2586867"><ele>489.0</ele><time>2026-04-11T12:20:22.419Z</time></trkpt><trkpt lat="44.0411933" lon="11.2587033"><ele>489.0</ele><time>2026-04-11T12:20:23.419Z</time></trkpt><trkpt lat="44.0413083" lon="11.2587217"><ele>489.0</ele><time>2026-04-11T12:20:24.418Z</time></trkpt><trkpt lat="44.04142" lon="11.2587417"><ele>489.0</ele><time>2026-04-11T12:20:25.419Z</time></trkpt><trkpt lat="44.0415283" lon="11.2587633"><ele>489.0</ele><time>2026-04-11T12:20:26.421Z</time></trkpt><trkpt lat="44.0416283" lon="11.2587817"><ele>489.0</ele><time>2026-04-11T12:20:27.42Z</time></trkpt><trkpt lat="44.04173" lon="11.2588083"><ele>488.6</ele><time>2026-04-11T12:20:28.42Z</time></trkpt><trkpt lat="44.0418217" lon="11.2588483"><ele>488.2</ele><time>2026-04-11T12:20:29.418Z</time></trkpt><trkpt lat="44.0419117" lon="11.25889"><ele>487.80000000000007</ele><time>2026-04-11T12:20:30.419Z</time></trkpt><trkpt lat="44.0420067" lon="11.2589283"><ele>487.40000000000003</ele><time>2026-04-11T12:20:31.418Z</time></trkpt><trkpt lat="44.0420967" lon="11.2589617"><ele>487.0</ele><time>2026-04-11T12:20:32.418Z</time></trkpt><trkpt lat="44.0421717" lon="11.25899"><ele>488.00000000000006</ele><time>2026-04-11T12:20:33.419Z</time></trkpt><trkpt lat="44.0422367" lon="11.2590117"><ele>489.0</ele><time>2026-04-11T12:20:34.418Z</time></trkpt><trkpt lat="44.04231" lon="11.25903"><ele>490.0</ele><time>2026-04-11T12:20:36.418Z</time></trkpt><trkpt lat="44.0423717" lon="11.2590617"><ele>491.0</ele><time>2026-04-11T12:20:42.419Z</time></trkpt><trkpt lat="44.04247" lon="11.2591017"><ele>492.00000000000006</ele><time>2026-04-11T12:20:48.422Z</time></trkpt><trkpt lat="44.0425433" lon="11.2590817"><ele>493.0</ele><time>2026-04-11T12:20:49.421Z</time></trkpt><trkpt lat="44.0426483" lon="11.25905"><ele>493.0</ele><time>2026-04-11T12:20:50.419Z</time></trkpt><trkpt lat="44.0428017" lon="11.2590217"><ele>493.0</ele><time>2026-04-11T12:20:51.417Z</time></trkpt><trkpt lat="44.0429583" lon="11.2589917"><ele>493.0</ele><time>2026-04-11T12:20:52.419Z</time></trkpt><trkpt lat="44.0431333" lon="11.2589633"><ele>491.0</ele><time>2026-04-11T12:20:53.419Z</time></trkpt><trkpt lat="44.0432917" lon="11.2589483"><ele>489.0</ele><time>2026-04-11T12:20:54.419Z</time></trkpt><trkpt lat="44.04345" lon="11.2589383"><ele>487.0</ele><time>2026-04-11T12:20:55.418Z</time></trkpt><trkpt lat="44.0436117" lon="11.2589217"><ele>487.0</ele><time>2026-04-11T12:20:56.42Z</time></trkpt><trkpt lat="44.04377" lon="11.2588967"><ele>487.0</ele><time>2026-04-11T12:20:57.419Z</time></trkpt><trkpt lat="44.043925" lon="11.258865"><ele>487.0</ele><time>2026-04-11T12:20:58.42Z</time></trkpt><trkpt lat="44.044085" lon="11.2588217"><ele>488.6666666666667</ele><time>2026-04-11T12:20:59.42Z</time></trkpt><trkpt lat="44.044245" lon="11.2587733"><ele>490.33333333333337</ele><time>2026-04-11T12:21:00.419Z</time></trkpt><trkpt lat="44.0443933" lon="11.25873"><ele>492.0</ele><time>2026-04-11T12:21:01.418Z</time></trkpt><trkpt lat="44.0445367" lon="11.2586883"><ele>492.0</ele><time>2026-04-11T12:21:02.419Z</time></trkpt><trkpt lat="44.0446767" lon="11.25865"><ele>492.0</ele><time>2026-04-11T12:21:03.419Z</time></trkpt><trkpt lat="44.0448117" lon="11.2586117"><ele>492.0</ele><time>2026-04-11T12:21:04.419Z</time></trkpt><trkpt lat="44.0449467" lon="11.2585733"><ele>492.0</ele><time>2026-04-11T12:21:05.419Z</time></trkpt><trkpt lat="44.0450833" lon="11.2585383"><ele>494.75</ele><time>2026-04-11T12:21:06.419Z</time></trkpt><trkpt lat="44.0452167" lon="11.2585017"><ele>497.5</ele><time>2026-04-11T12:21:07.421Z</time></trkpt><trkpt lat="44.0453617" lon="11.2584583"><ele>500.25</ele><time>2026-04-11T12:21:08.421Z</time></trkpt><trkpt lat="44.0455133" lon="11.2584"><ele>503.0</ele><time>2026-04-11T12:21:09.422Z</time></trkpt><trkpt lat="44.0456767" lon="11.25833"><ele>504.75</ele><time>2026-04-11T12:21:10.421Z</time></trkpt><trkpt lat="44.045825" lon="11.25826"><ele>506.5</ele><time>2026-04-11T12:21:11.419Z</time></trkpt><trkpt lat="44.0459633" lon="11.2582083"><ele>508.25</ele><time>2026-04-11T12:21:12.42Z</time></trkpt><trkpt lat="44.046085" lon="11.2581933"><ele>510.0</ele><time>2026-04-11T12:21:13.42Z</time></trkpt><trkpt lat="44.0461983" lon="11.2582133"><ele>510.0</ele><time>2026-04-11T12:21:14.421Z</time></trkpt><trkpt lat="44.0463067" lon="11.2582667"><ele>510.0</ele><time>2026-04-11T12:21:15.422Z</time></trkpt><trkpt lat="44.0464167" lon="11.2583617"><ele>510.0</ele><time>2026-04-11T12:21:16.421Z</time></trkpt><trkpt lat="44.0465333" lon="11.2584983"><ele>510.0</ele><time>2026-04-11T12:21:17.422Z</time></trkpt><trkpt lat="44.0466567" lon="11.25865"><ele>508.33333333333337</ele><time>2026-04-11T12:21:18.419Z</time></trkpt><trkpt lat="44.0468033" lon="11.2588133"><ele>506.6666666666667</ele><time>2026-04-11T12:21:19.422Z</time></trkpt><trkpt lat="44.0469533" lon="11.258975"><ele>505.0</ele><time>2026-04-11T12:21:20.422Z</time></trkpt><trkpt lat="44.0471033" lon="11.259135"><ele>503.6666666666667</ele><time>2026-04-11T12:21:21.42Z</time></trkpt><trkpt lat="44.0472417" lon="11.2592817"><ele>502.33333333333337</ele><time>2026-04-11T12:21:22.421Z</time></trkpt><trkpt lat="44.047385" lon="11.259425"><ele>501.0</ele><time>2026-04-11T12:21:23.422Z</time></trkpt><trkpt lat="44.0475183" lon="11.259565"><ele>501.0</ele><time>2026-04-11T12:21:24.42Z</time></trkpt><trkpt lat="44.0476517" lon="11.2597017"><ele>501.0</ele><time>2026-04-11T12:21:25.421Z</time></trkpt><trkpt lat="44.04778" lon="11.2598417"><ele>501.0</ele><time>2026-04-11T12:21:26.42Z</time></trkpt><trkpt lat="44.0479033" lon="11.2599733"><ele>504.33333333333337</ele><time>2026-04-11T12:21:27.42Z</time></trkpt><trkpt lat="44.048015" lon="11.2601167"><ele>507.6666666666667</ele><time>2026-04-11T12:21:28.42Z</time></trkpt><trkpt lat="44.0481267" lon="11.2602683"><ele>511.0</ele><time>2026-04-11T12:21:29.42Z</time></trkpt><trkpt lat="44.0482367" lon="11.2604117"><ele>510.6666666666667</ele><time>2026-04-11T12:21:30.42Z</time></trkpt><trkpt lat="44.0483583" lon="11.2605483"><ele>510.33333333333337</ele><time>2026-04-11T12:21:31.419Z</time></trkpt><trkpt lat="44.0484817" lon="11.2606817"><ele>510.0</ele><time>2026-04-11T12:21:32.422Z</time></trkpt><trkpt lat="44.0486" lon="11.26081"><ele>512.0</ele><time>2026-04-11T12:21:33.42Z</time></trkpt><trkpt lat="44.0487083" lon="11.2609233"><ele>514.0</ele><time>2026-04-11T12:21:34.42Z</time></trkpt><trkpt lat="44.0488283" lon="11.2610167"><ele>516.0</ele><time>2026-04-11T12:21:35.421Z</time></trkpt><trkpt lat="44.0489583" lon="11.2611"><ele>518.0</ele><time>2026-04-11T12:21:36.422Z</time></trkpt><trkpt lat="44.0490967" lon="11.26116"><ele>516.6666666666666</ele><time>2026-04-11T12:21:37.42Z</time></trkpt><trkpt lat="44.049245" lon="11.2612067"><ele>515.3333333333334</ele><time>2026-04-11T12:21:38.419Z</time></trkpt><trkpt lat="44.0493967" lon="11.2612533"><ele>514.0</ele><time>2026-04-11T12:21:39.42Z</time></trkpt><trkpt lat="44.04955" lon="11.2612917"><ele>514.0</ele><time>2026-04-11T12:21:40.42Z</time></trkpt><trkpt lat="44.0497083" lon="11.2613183"><ele>514.0</ele><time>2026-04-11T12:21:41.42Z</time></trkpt><trkpt lat="44.049865" lon="11.261335"><ele>514.0</ele><time>2026-04-11T12:21:42.422Z</time></trkpt><trkpt lat="44.0500233" lon="11.26134"><ele>514.6666666666667</ele><time>2026-04-11T12:21:43.419Z</time></trkpt><trkpt lat="44.0501817" lon="11.2613283"><ele>515.3333333333334</ele><time>2026-04-11T12:21:44.421Z</time></trkpt><trkpt lat="44.05034" lon="11.2613083"><ele>516.0</ele><time>2026-04-11T12:21:45.419Z</time></trkpt><trkpt lat="44.0505" lon="11.261275"><ele>516.0</ele><time>2026-04-11T12:21:46.421Z</time></trkpt><trkpt lat="44.0506617" lon="11.2612333"><ele>516.0</ele><time>2026-04-11T12:21:47.422Z</time></trkpt><trkpt lat="44.0508233" lon="11.2611817"><ele>516.0</ele><time>2026-04-11T12:21:48.421Z</time></trkpt><trkpt lat="44.0509767" lon="11.2611233"><ele>516.6666666666666</ele><time>2026-04-11T12:21:49.419Z</time></trkpt><trkpt lat="44.0511383" lon="11.261065"><ele>517.3333333333333</ele><time>2026-04-11T12:21:50.421Z</time></trkpt><trkpt lat="44.0513033" lon="11.261005"><ele>518.0</ele><time>2026-04-11T12:21:51.421Z</time></trkpt><trkpt lat="44.0514667" lon="11.2609417"><ele>518.75</ele><time>2026-04-11T12:21:52.42Z</time></trkpt><trkpt lat="44.051625" lon="11.2608833"><ele>519.5</ele><time>2026-04-11T12:21:53.42Z</time></trkpt><trkpt lat="44.0517617" lon="11.2608333"><ele>520.25</ele><time>2026-04-11T12:21:54.42Z</time></trkpt><trkpt lat="44.0518983" lon="11.2607867"><ele>521.0</ele><time>2026-04-11T12:21:55.42Z</time></trkpt><trkpt lat="44.05203" lon="11.26074"><ele>521.0</ele><time>2026-04-11T12:21:56.421Z</time></trkpt><trkpt lat="44.0521617" lon="11.2607"><ele>521.0</ele><time>2026-04-11T12:21:57.42Z</time></trkpt><trkpt lat="44.0522933" lon="11.2606667"><ele>521.0</ele><time>2026-04-11T12:21:58.421Z</time></trkpt><trkpt lat="44.05242" lon="11.260645"><ele>521.0</ele><time>2026-04-11T12:21:59.422Z</time></trkpt><trkpt lat="44.052545" lon="11.26063"><ele>522.75</ele><time>2026-04-11T12:22:00.42Z</time></trkpt><trkpt lat="44.0526483" lon="11.2606467"><ele>524.5</ele><time>2026-04-11T12:22:01.419Z</time></trkpt><trkpt lat="44.0527733" lon="11.2606833"><ele>526.25</ele><time>2026-04-11T12:22:02.422Z</time></trkpt><trkpt lat="44.0529" lon="11.2607533"><ele>528.0</ele><time>2026-04-11T12:22:03.421Z</time></trkpt><trkpt lat="44.0530283" lon="11.260855"><ele>528.0</ele><time>2026-04-11T12:22:04.419Z</time></trkpt><trkpt lat="44.0531683" lon="11.260985"><ele>528.0</ele><time>2026-04-11T12:22:05.422Z</time></trkpt><trkpt lat="44.0533183" lon="11.26112"><ele>528.0</ele><time>2026-04-11T12:22:06.422Z</time></trkpt><trkpt lat="44.053475" lon="11.2612533"><ele>527.6666666666666</ele><time>2026-04-11T12:22:07.418Z</time></trkpt><trkpt lat="44.053635" lon="11.2613817"><ele>527.3333333333333</ele><time>2026-04-11T12:22:08.421Z</time></trkpt><trkpt lat="44.05381" lon="11.2614867"><ele>527.0</ele><time>2026-04-11T12:22:09.422Z</time></trkpt><trkpt lat="44.05399" lon="11.2615783"><ele>529.3333333333333</ele><time>2026-04-11T12:22:10.42Z</time></trkpt><trkpt lat="44.0541717" lon="11.2616583"><ele>531.6666666666666</ele><time>2026-04-11T12:22:11.419Z</time></trkpt><trkpt lat="44.05437" lon="11.261735"><ele>534.0</ele><time>2026-04-11T12:22:12.421Z</time></trkpt><trkpt lat="44.0545733" lon="11.2618183"><ele>534.0</ele><time>2026-04-11T12:22:13.42Z</time></trkpt><trkpt lat="44.054785" lon="11.2619067"><ele>534.0</ele><time>2026-04-11T12:22:14.421Z</time></trkpt><trkpt lat="44.0550017" lon="11.2619883"><ele>534.0</ele><time>2026-04-11T12:22:15.421Z</time></trkpt><trkpt lat="44.0552167" lon="11.26207"><ele>532.6666666666666</ele><time>2026-04-11T12:22:16.421Z</time></trkpt><trkpt lat="44.055425" lon="11.2621483"><ele>531.3333333333333</ele><time>2026-04-11T12:22:17.42Z</time></trkpt><trkpt lat="44.05562" lon="11.2622233"><ele>530.0</ele><time>2026-04-11T12:22:18.421Z</time></trkpt><trkpt lat="44.0558067" lon="11.2623017"><ele>533.0</ele><time>2026-04-11T12:22:19.42Z</time></trkpt><trkpt lat="44.055985" lon="11.2623917"><ele>536.0</ele><time>2026-04-11T12:22:20.42Z</time></trkpt><trkpt lat="44.0561517" lon="11.2624983"><ele>539.0</ele><time>2026-04-11T12:22:21.42Z</time></trkpt><trkpt lat="44.0562933" lon="11.2626217"><ele>539.0</ele><time>2026-04-11T12:22:22.418Z</time></trkpt><trkpt lat="44.0564083" lon="11.2627333"><ele>539.0</ele><time>2026-04-11T12:22:23.421Z</time></trkpt><trkpt lat="44.0565167" lon="11.2628033"><ele>539.0</ele><time>2026-04-11T12:22:24.42Z</time></trkpt><trkpt lat="44.0566283" lon="11.26282"><ele>539.0</ele><time>2026-04-11T12:22:25.42Z</time></trkpt><trkpt lat="44.0567383" lon="11.26279"><ele>541.25</ele><time>2026-04-11T12:22:26.42Z</time></trkpt><trkpt lat="44.0568617" lon="11.2627167"><ele>543.5</ele><time>2026-04-11T12:22:27.422Z</time></trkpt><trkpt lat="44.05699" lon="11.2626233"><ele>545.75</ele><time>2026-04-11T12:22:28.418Z</time></trkpt><trkpt lat="44.0571267" lon="11.2625317"><ele>548.0</ele><time>2026-04-11T12:22:29.42Z</time></trkpt><trkpt lat="44.057255" lon="11.2624717"><ele>548.0</ele><time>2026-04-11T12:22:30.419Z</time></trkpt><trkpt lat="44.0573783" lon="11.2624567"><ele>548.0</ele><time>2026-04-11T12:22:31.422Z</time></trkpt><trkpt lat="44.0575117" lon="11.26249"><ele>548.0</ele><time>2026-04-11T12:22:32.421Z</time></trkpt><trkpt lat="44.0576617" lon="11.262565"><ele>548.0</ele><time>2026-04-11T12:22:33.42Z</time></trkpt><trkpt lat="44.0578167" lon="11.2626717"><ele>550.3333333333333</ele><time>2026-04-11T12:22:34.419Z</time></trkpt><trkpt lat="44.057975" lon="11.2627967"><ele>552.6666666666666</ele><time>2026-04-11T12:22:35.42Z</time></trkpt><trkpt lat="44.05813" lon="11.2629183"><ele>555.0</ele><time>2026-04-11T12:22:36.42Z</time></trkpt><trkpt lat="44.05829" lon="11.2630083"><ele>556.0</ele><time>2026-04-11T12:22:37.42Z</time></trkpt><trkpt lat="44.0584667" lon="11.26306"><ele>557.0</ele><time>2026-04-11T12:22:38.422Z</time></trkpt><trkpt lat="44.05866" lon="11.2630733"><ele>558.0</ele><time>2026-04-11T12:22:39.419Z</time></trkpt><trkpt lat="44.05886" lon="11.2630633"><ele>558.0</ele><time>2026-04-11T12:22:40.422Z</time></trkpt><trkpt lat="44.05906" lon="11.2630467"><ele>558.0</ele><time>2026-04-11T12:22:41.419Z</time></trkpt><trkpt lat="44.059245" lon="11.2630383"><ele>558.0</ele><time>2026-04-11T12:22:42.422Z</time></trkpt><trkpt lat="44.0594267" lon="11.26304"><ele>560.0</ele><time>2026-04-11T12:22:43.42Z</time></trkpt><trkpt lat="44.059605" lon="11.26304"><ele>562.0</ele><time>2026-04-11T12:22:44.422Z</time></trkpt><trkpt lat="44.05978" lon="11.2630433"><ele>564.0</ele><time>2026-04-11T12:22:45.421Z</time></trkpt><trkpt lat="44.05996" lon="11.2630483"><ele>567.6666666666666</ele><time>2026-04-11T12:22:46.419Z</time></trkpt><trkpt lat="44.06014" lon="11.2630533"><ele>571.3333333333333</ele><time>2026-04-11T12:22:47.42Z</time></trkpt><trkpt lat="44.060325" lon="11.263065"><ele>575.0</ele><time>2026-04-11T12:22:48.421Z</time></trkpt><trkpt lat="44.0605133" lon="11.2630833"><ele>574.0</ele><time>2026-04-11T12:22:49.419Z</time></trkpt><trkpt lat="44.0607" lon="11.263115"><ele>573.0</ele><time>2026-04-11T12:22:50.42Z</time></trkpt><trkpt lat="44.0608783" lon="11.2631667"><ele>572.0</ele><time>2026-04-11T12:22:51.421Z</time></trkpt><trkpt lat="44.06105" lon="11.2632417"><ele>572.0</ele><time>2026-04-11T12:22:52.419Z</time></trkpt><trkpt lat="44.06122" lon="11.2633383"><ele>572.0</ele><time>2026-04-11T12:22:53.521Z</time></trkpt><trkpt lat="44.0615617" lon="11.2635617"><ele>573.6666666666666</ele><time>2026-04-11T12:22:55.421Z</time></trkpt><trkpt lat="44.06174" lon="11.26368"><ele>575.3333333333334</ele><time>2026-04-11T12:22:56.421Z</time></trkpt><trkpt lat="44.0619217" lon="11.2638"><ele>577.0</ele><time>2026-04-11T12:22:57.421Z</time></trkpt><trkpt lat="44.0621133" lon="11.2639183"><ele>577.3333333333334</ele><time>2026-04-11T12:22:58.421Z</time></trkpt><trkpt lat="44.0623083" lon="11.2640333"><ele>577.6666666666666</ele><time>2026-04-11T12:22:59.422Z</time></trkpt><trkpt lat="44.0624967" lon="11.26414"><ele>578.0</ele><time>2026-04-11T12:23:00.421Z</time></trkpt><trkpt lat="44.062665" lon="11.26424"><ele>581.6666666666666</ele><time>2026-04-11T12:23:01.42Z</time></trkpt><trkpt lat="44.0628183" lon="11.26435"><ele>585.3333333333334</ele><time>2026-04-11T12:23:02.422Z</time></trkpt><trkpt lat="44.0629583" lon="11.2644883"><ele>589.0</ele><time>2026-04-11T12:23:03.42Z</time></trkpt><trkpt lat="44.063085" lon="11.2646567"><ele>588.0</ele><time>2026-04-11T12:23:04.419Z</time></trkpt><trkpt lat="44.0631917" lon="11.2648583"><ele>587.0</ele><time>2026-04-11T12:23:05.421Z</time></trkpt><trkpt lat="44.06329" lon="11.2650933"><ele>586.0</ele><time>2026-04-11T12:23:06.422Z</time></trkpt><trkpt lat="44.0633833" lon="11.2653333"><ele>591.0</ele><time>2026-04-11T12:23:07.422Z</time></trkpt><trkpt lat="44.0634817" lon="11.2655717"><ele>596.0</ele><time>2026-04-11T12:23:08.421Z</time></trkpt><trkpt lat="44.0635967" lon="11.2658"><ele>601.0</ele><time>2026-04-11T12:23:09.421Z</time></trkpt><trkpt lat="44.0637233" lon="11.266015"><ele>601.0</ele><time>2026-04-11T12:23:10.419Z</time></trkpt><trkpt lat="44.0638567" lon="11.2662233"><ele>601.0</ele><time>2026-04-11T12:23:11.42Z</time></trkpt><trkpt lat="44.0639883" lon="11.2664283"><ele>601.0</ele><time>2026-04-11T12:23:12.42Z</time></trkpt><trkpt lat="44.0641067" lon="11.2666117"><ele>604.75</ele><time>2026-04-11T12:23:13.42Z</time></trkpt><trkpt lat="44.0642133" lon="11.266765"><ele>608.5</ele><time>2026-04-11T12:23:14.422Z</time></trkpt><trkpt lat="44.0643217" lon="11.266875"><ele>612.25</ele><time>2026-04-11T12:23:15.419Z</time></trkpt><trkpt lat="44.0644433" lon="11.2669517"><ele>616.0</ele><time>2026-04-11T12:23:16.42Z</time></trkpt><trkpt lat="44.0645917" lon="11.2669867"><ele>616.0</ele><time>2026-04-11T12:23:17.421Z</time></trkpt><trkpt lat="44.0647583" lon="11.267"><ele>616.0</ele><time>2026-04-11T12:23:18.421Z</time></trkpt><trkpt lat="44.0649333" lon="11.2670083"><ele>616.0</ele><time>2026-04-11T12:23:19.421Z</time></trkpt><trkpt lat="44.0651183" lon="11.2670383"><ele>615.0</ele><time>2026-04-11T12:23:20.42Z</time></trkpt><trkpt lat="44.0653217" lon="11.2671017"><ele>614.0</ele><time>2026-04-11T12:23:21.421Z</time></trkpt><trkpt lat="44.0655317" lon="11.2671883"><ele>613.0</ele><time>2026-04-11T12:23:22.42Z</time></trkpt><trkpt lat="44.06575" lon="11.2672783"><ele>617.0</ele><time>2026-04-11T12:23:23.42Z</time></trkpt><trkpt lat="44.0659617" lon="11.2673533"><ele>621.0</ele><time>2026-04-11T12:23:24.421Z</time></trkpt><trkpt lat="44.066165" lon="11.2674067"><ele>625.0</ele><time>2026-04-11T12:23:25.421Z</time></trkpt><trkpt lat="44.0663483" lon="11.2674633"><ele>625.0</ele><time>2026-04-11T12:23:26.418Z</time></trkpt><trkpt lat="44.066515" lon="11.2675533"><ele>625.0</ele><time>2026-04-11T12:23:27.421Z</time></trkpt><trkpt lat="44.0666733" lon="11.26768"><ele>625.0</ele><time>2026-04-11T12:23:28.421Z</time></trkpt><trkpt lat="44.06682" lon="11.26784"><ele>625.3333333333334</ele><time>2026-04-11T12:23:29.42Z</time></trkpt><trkpt lat="44.066965" lon="11.2679883"><ele>625.6666666666666</ele><time>2026-04-11T12:23:30.42Z</time></trkpt><trkpt lat="44.0671267" lon="11.2681017"><ele>626.0</ele><time>2026-04-11T12:23:31.42Z</time></trkpt><trkpt lat="44.0673033" lon="11.26818"><ele>629.0</ele><time>2026-04-11T12:23:32.421Z</time></trkpt><trkpt lat="44.0674617" lon="11.2682433"><ele>632.0</ele><time>2026-04-11T12:23:33.419Z</time></trkpt><trkpt lat="44.0675883" lon="11.268315"><ele>635.0</ele><time>2026-04-11T12:23:34.422Z</time></trkpt><trkpt lat="44.0676933" lon="11.26843"><ele>638.0</ele><time>2026-04-11T12:23:35.422Z</time></trkpt><trkpt lat="44.0677717" lon="11.2685983"><ele>638.0</ele><time>2026-04-11T12:23:36.421Z</time></trkpt><trkpt lat="44.067825" lon="11.268805"><ele>638.0</ele><time>2026-04-11T12:23:37.423Z</time></trkpt><trkpt lat="44.0678733" lon="11.26903"><ele>638.0</ele><time>2026-04-11T12:23:38.423Z</time></trkpt><trkpt lat="44.0679333" lon="11.26925"><ele>637.25</ele><time>2026-04-11T12:23:39.423Z</time></trkpt><trkpt lat="44.0680067" lon="11.2694633"><ele>636.5</ele><time>2026-04-11T12:23:40.422Z</time></trkpt><trkpt lat="44.06809" lon="11.269625"><ele>635.75</ele><time>2026-04-11T12:23:41.42Z</time></trkpt><trkpt lat="44.06817" lon="11.2697767"><ele>635.0</ele><time>2026-04-11T12:23:42.422Z</time></trkpt><trkpt lat="44.068275" lon="11.2699017"><ele>638.5</ele><time>2026-04-11T12:23:43.423Z</time></trkpt><trkpt lat="44.0684" lon="11.2700033"><ele>642.0</ele><time>2026-04-11T12:23:44.424Z</time></trkpt><trkpt lat="44.0685383" lon="11.2700917"><ele>645.5</ele><time>2026-04-11T12:23:45.424Z</time></trkpt><trkpt lat="44.0686833" lon="11.2701517"><ele>649.0</ele><time>2026-04-11T12:23:46.423Z</time></trkpt><trkpt lat="44.068835" lon="11.27018"><ele>649.0</ele><time>2026-04-11T12:23:47.42Z</time></trkpt><trkpt lat="44.069" lon="11.27018"><ele>649.0</ele><time>2026-04-11T12:23:48.423Z</time></trkpt><trkpt lat="44.0691617" lon="11.2701633"><ele>649.0</ele><time>2026-04-11T12:23:49.422Z</time></trkpt><trkpt lat="44.069315" lon="11.2701383"><ele>652.25</ele><time>2026-04-11T12:23:50.422Z</time></trkpt><trkpt lat="44.0694633" lon="11.270115"><ele>655.5</ele><time>2026-04-11T12:23:51.423Z</time></trkpt><trkpt lat="44.0696083" lon="11.2700867"><ele>658.75</ele><time>2026-04-11T12:23:52.424Z</time></trkpt><trkpt lat="44.06976" lon="11.270055"><ele>662.0</ele><time>2026-04-11T12:23:53.421Z</time></trkpt><trkpt lat="44.06991" lon="11.2700217"><ele>664.0</ele><time>2026-04-11T12:23:54.42Z</time></trkpt><trkpt lat="44.0700583" lon="11.2699783"><ele>666.0</ele><time>2026-04-11T12:23:55.422Z</time></trkpt><trkpt lat="44.07021" lon="11.2699283"><ele>668.0</ele><time>2026-04-11T12:23:56.422Z</time></trkpt><trkpt lat="44.0703567" lon="11.26989"><ele>668.0</ele><time>2026-04-11T12:23:57.421Z</time></trkpt><trkpt lat="44.07049" lon="11.2698817"><ele>668.0</ele><time>2026-04-11T12:23:58.422Z</time></trkpt><trkpt lat="44.0706183" lon="11.26992"><ele>668.0</ele><time>2026-04-11T12:23:59.421Z</time></trkpt><trkpt lat="44.0707467" lon="11.2699933"><ele>668.0</ele><time>2026-04-11T12:24:00.42Z</time></trkpt><trkpt lat="44.0708783" lon="11.2700767"><ele>670.0</ele><time>2026-04-11T12:24:01.423Z</time></trkpt><trkpt lat="44.0710133" lon="11.2701767"><ele>672.0</ele><time>2026-04-11T12:24:02.422Z</time></trkpt><trkpt lat="44.071145" lon="11.2702833"><ele>674.0</ele><time>2026-04-11T12:24:03.421Z</time></trkpt><trkpt lat="44.0712733" lon="11.2704083"><ele>674.0</ele><time>2026-04-11T12:24:04.422Z</time></trkpt><trkpt lat="44.0713883" lon="11.2705567"><ele>674.0</ele><time>2026-04-11T12:24:05.423Z</time></trkpt><trkpt lat="44.0714983" lon="11.2707317"><ele>674.0</ele><time>2026-04-11T12:24:06.421Z</time></trkpt><trkpt lat="44.0716017" lon="11.2709033"><ele>678.0</ele><time>2026-04-11T12:24:07.422Z</time></trkpt><trkpt lat="44.0717083" lon="11.2710583"><ele>682.0</ele><time>2026-04-11T12:24:08.421Z</time></trkpt><trkpt lat="44.0718333" lon="11.2712"><ele>686.0</ele><time>2026-04-11T12:24:09.421Z</time></trkpt><trkpt lat="44.0719733" lon="11.2713333"><ele>687.25</ele><time>2026-04-11T12:24:10.422Z</time></trkpt><trkpt lat="44.07211" lon="11.2714583"><ele>688.5</ele><time>2026-04-11T12:24:11.422Z</time></trkpt><trkpt lat="44.0722333" lon="11.2715717"><ele>689.75</ele><time>2026-04-11T12:24:12.421Z</time></trkpt><trkpt lat="44.0723417" lon="11.27167"><ele>691.0</ele><time>2026-04-11T12:24:13.421Z</time></trkpt><trkpt lat="44.0724433" lon="11.2717383"><ele>691.0</ele><time>2026-04-11T12:24:14.423Z</time></trkpt><trkpt lat="44.07254" lon="11.2717567"><ele>691.0</ele><time>2026-04-11T12:24:15.421Z</time></trkpt><trkpt lat="44.0726367" lon="11.2717267"><ele>691.0</ele><time>2026-04-11T12:24:16.421Z</time></trkpt><trkpt lat="44.07272" lon="11.271645"><ele>691.0</ele><time>2026-04-11T12:24:17.42Z</time></trkpt><trkpt lat="44.072775" lon="11.271515"><ele>691.0</ele><time>2026-04-11T12:24:18.422Z</time></trkpt><trkpt lat="44.072805" lon="11.2713467"><ele>694.0</ele><time>2026-04-11T12:24:19.421Z</time></trkpt><trkpt lat="44.0728117" lon="11.2711533"><ele>697.0</ele><time>2026-04-11T12:24:20.42Z</time></trkpt><trkpt lat="44.072805" lon="11.270935"><ele>700.0</ele><time>2026-04-11T12:24:21.422Z</time></trkpt><trkpt lat="44.0727933" lon="11.2707217"><ele>699.0</ele><time>2026-04-11T12:24:22.422Z</time></trkpt><trkpt lat="44.0727933" lon="11.2705333"><ele>698.0</ele><time>2026-04-11T12:24:23.421Z</time></trkpt><trkpt lat="44.0727983" lon="11.2703733"><ele>697.0</ele><time>2026-04-11T12:24:24.423Z</time></trkpt><trkpt lat="44.0728183" lon="11.2702433"><ele>696.0</ele><time>2026-04-11T12:24:25.423Z</time></trkpt><trkpt lat="44.07285" lon="11.2701467"><ele>695.0</ele><time>2026-04-11T12:24:26.421Z</time></trkpt><trkpt lat="44.0728983" lon="11.2700817"><ele>695.0</ele><time>2026-04-11T12:24:27.422Z</time></trkpt><trkpt lat="44.0729967" lon="11.2700717"><ele>695.0</ele><time>2026-04-11T12:24:28.423Z</time></trkpt><trkpt lat="44.0730883" lon="11.2700683"><ele>695.0</ele><time>2026-04-11T12:24:29.423Z</time></trkpt><trkpt lat="44.07318" lon="11.2700817"><ele>695.0</ele><time>2026-04-11T12:24:30.422Z</time></trkpt><trkpt lat="44.0732983" lon="11.2701583"><ele>695.0</ele><time>2026-04-11T12:24:31.421Z</time></trkpt><trkpt lat="44.07342" lon="11.2702633"><ele>697.0</ele><time>2026-04-11T12:24:32.421Z</time></trkpt><trkpt lat="44.07354" lon="11.27038"><ele>699.0</ele><time>2026-04-11T12:24:33.424Z</time></trkpt><trkpt lat="44.0736483" lon="11.270515"><ele>701.0</ele><time>2026-04-11T12:24:34.423Z</time></trkpt><trkpt lat="44.0737467" lon="11.2706567"><ele>703.0</ele><time>2026-04-11T12:24:35.42Z</time></trkpt><trkpt lat="44.0738317" lon="11.2708267"><ele>703.3333333333334</ele><time>2026-04-11T12:24:36.418Z</time></trkpt><trkpt lat="44.0739083" lon="11.2710117"><ele>703.6666666666666</ele><time>2026-04-11T12:24:37.421Z</time></trkpt><trkpt lat="44.0739667" lon="11.2712183"><ele>704.0</ele><time>2026-04-11T12:24:38.42Z</time></trkpt><trkpt lat="44.0740167" lon="11.2714417"><ele>703.3333333333333</ele><time>2026-04-11T12:24:39.422Z</time></trkpt><trkpt lat="44.0740517" lon="11.27169"><ele>702.6666666666666</ele><time>2026-04-11T12:24:40.42Z</time></trkpt><trkpt lat="44.0740683" lon="11.2719567"><ele>702.0</ele><time>2026-04-11T12:24:41.421Z</time></trkpt><trkpt lat="44.0740867" lon="11.2722383"><ele>702.3333333333334</ele><time>2026-04-11T12:24:42.423Z</time></trkpt><trkpt lat="44.0741" lon="11.272515"><ele>702.6666666666667</ele><time>2026-04-11T12:24:43.422Z</time></trkpt><trkpt lat="44.0741067" lon="11.27276"><ele>703.0</ele><time>2026-04-11T12:24:44.422Z</time></trkpt><trkpt lat="44.0741017" lon="11.272985"><ele>706.0</ele><time>2026-04-11T12:24:45.422Z</time></trkpt><trkpt lat="44.0740733" lon="11.2731967"><ele>709.0</ele><time>2026-04-11T12:24:46.421Z</time></trkpt><trkpt lat="44.0740133" lon="11.2733967"><ele>712.0</ele><time>2026-04-11T12:24:47.421Z</time></trkpt><trkpt lat="44.0739533" lon="11.2735633"><ele>715.0</ele><time>2026-04-11T12:24:48.421Z</time></trkpt><trkpt lat="44.0739133" lon="11.273715"><ele>715.0</ele><time>2026-04-11T12:24:49.423Z</time></trkpt><trkpt lat="44.0738983" lon="11.2738733"><ele>715.0</ele><time>2026-04-11T12:24:50.422Z</time></trkpt><trkpt lat="44.073915" lon="11.27404"><ele>715.0</ele><time>2026-04-11T12:24:51.42Z</time></trkpt><trkpt lat="44.0739683" lon="11.2741917"><ele>715.0</ele><time>2026-04-11T12:24:52.423Z</time></trkpt><trkpt lat="44.07405" lon="11.2743467"><ele>721.0</ele><time>2026-04-11T12:24:53.423Z</time></trkpt><trkpt lat="44.0741533" lon="11.2745083"><ele>727.0</ele><time>2026-04-11T12:24:54.421Z</time></trkpt><trkpt lat="44.0742683" lon="11.2746883"><ele>733.0</ele><time>2026-04-11T12:24:55.421Z</time></trkpt><trkpt lat="44.074395" lon="11.2748567"><ele>733.0</ele><time>2026-04-11T12:24:56.42Z</time></trkpt><trkpt lat="44.0745417" lon="11.2750067"><ele>733.0</ele><time>2026-04-11T12:24:57.422Z</time></trkpt><trkpt lat="44.0747" lon="11.2751233"><ele>733.0</ele><time>2026-04-11T12:24:58.419Z</time></trkpt><trkpt lat="44.07485" lon="11.2752283"><ele>736.0</ele><time>2026-04-11T12:24:59.422Z</time></trkpt><trkpt lat="44.0749717" lon="11.2753417"><ele>739.0</ele><time>2026-04-11T12:25:00.423Z</time></trkpt><trkpt lat="44.0750717" lon="11.2754633"><ele>742.0</ele><time>2026-04-11T12:25:01.42Z</time></trkpt><trkpt lat="44.07515" lon="11.27562"><ele>745.0</ele><time>2026-04-11T12:25:02.422Z</time></trkpt><trkpt lat="44.0752183" lon="11.2758067"><ele>745.0</ele><time>2026-04-11T12:25:03.422Z</time></trkpt><trkpt lat="44.0752933" lon="11.276005"><ele>745.0</ele><time>2026-04-11T12:25:04.42Z</time></trkpt><trkpt lat="44.0753867" lon="11.2762"><ele>745.0</ele><time>2026-04-11T12:25:05.422Z</time></trkpt><trkpt lat="44.0755067" lon="11.27639"><ele>745.0</ele><time>2026-04-11T12:25:06.422Z</time></trkpt><trkpt lat="44.0756233" lon="11.2765617"><ele>745.0</ele><time>2026-04-11T12:25:07.42Z</time></trkpt><trkpt lat="44.0757217" lon="11.2767067"><ele>745.0</ele><time>2026-04-11T12:25:08.422Z</time></trkpt><trkpt lat="44.0757933" lon="11.2768483"><ele>745.0</ele><time>2026-04-11T12:25:09.42Z</time></trkpt><trkpt lat="44.0758267" lon="11.276995"><ele>750.5</ele><time>2026-04-11T12:25:10.421Z</time></trkpt><trkpt lat="44.0758333" lon="11.2771633"><ele>756.0</ele><time>2026-04-11T12:25:11.422Z</time></trkpt><trkpt lat="44.0758067" lon="11.27734"><ele>761.5</ele><time>2026-04-11T12:25:12.421Z</time></trkpt><trkpt lat="44.0757867" lon="11.277525"><ele>767.0</ele><time>2026-04-11T12:25:13.42Z</time></trkpt><trkpt lat="44.0757933" lon="11.2777167"><ele>767.0</ele><time>2026-04-11T12:25:14.419Z</time></trkpt><trkpt lat="44.0758183" lon="11.2779317"><ele>767.0</ele><time>2026-04-11T12:25:15.419Z</time></trkpt><trkpt lat="44.07587" lon="11.2781717"><ele>767.0</ele><time>2026-04-11T12:25:16.419Z</time></trkpt><trkpt lat="44.07589" lon="11.27844"><ele>767.0</ele><time>2026-04-11T12:25:17.419Z</time></trkpt><trkpt lat="44.075885" lon="11.2787083"><ele>767.0</ele><time>2026-04-11T12:25:18.419Z</time></trkpt><trkpt lat="44.0758583" lon="11.2789783"><ele>767.0</ele><time>2026-04-11T12:25:19.418Z</time></trkpt><trkpt lat="44.075835" lon="11.2792383"><ele>766.6666666666666</ele><time>2026-04-11T12:25:20.421Z</time></trkpt><trkpt lat="44.0758133" lon="11.279485"><ele>766.3333333333334</ele><time>2026-04-11T12:25:21.419Z</time></trkpt><trkpt lat="44.0757983" lon="11.2797183"><ele>766.0</ele><time>2026-04-11T12:25:22.419Z</time></trkpt><trkpt lat="44.075795" lon="11.279935"><ele>765.75</ele><time>2026-04-11T12:25:23.419Z</time></trkpt><trkpt lat="44.0758067" lon="11.2801283"><ele>765.5</ele><time>2026-04-11T12:25:24.422Z</time></trkpt><trkpt lat="44.0758367" lon="11.2802867"><ele>765.25</ele><time>2026-04-11T12:25:25.42Z</time></trkpt><trkpt lat="44.0758917" lon="11.28043"><ele>765.0</ele><time>2026-04-11T12:25:26.419Z</time></trkpt><trkpt lat="44.0759733" lon="11.2805417"><ele>762.25</ele><time>2026-04-11T12:25:27.418Z</time></trkpt><trkpt lat="44.076075" lon="11.2806183"><ele>759.5</ele><time>2026-04-11T12:25:28.42Z</time></trkpt><trkpt lat="44.076185" lon="11.280665"><ele>756.75</ele><time>2026-04-11T12:25:29.42Z</time></trkpt><trkpt lat="44.0762967" lon="11.280705"><ele>754.0</ele><time>2026-04-11T12:25:30.419Z</time></trkpt><trkpt lat="44.0764017" lon="11.280735"><ele>754.0</ele><time>2026-04-11T12:25:31.42Z</time></trkpt><trkpt lat="44.0765033" lon="11.2807767"><ele>754.0</ele><time>2026-04-11T12:25:32.423Z</time></trkpt><trkpt lat="44.0765983" lon="11.28081"><ele>754.0</ele><time>2026-04-11T12:25:33.421Z</time></trkpt><trkpt lat="44.0766933" lon="11.2808717"><ele>754.0</ele><time>2026-04-11T12:25:34.42Z</time></trkpt><trkpt lat="44.0767867" lon="11.280955"><ele>754.0</ele><time>2026-04-11T12:25:35.421Z</time></trkpt><trkpt lat="44.0768767" lon="11.2810617"><ele>756.75</ele><time>2026-04-11T12:25:36.42Z</time></trkpt><trkpt lat="44.0769683" lon="11.28116"><ele>759.5</ele><time>2026-04-11T12:25:37.421Z</time></trkpt><trkpt lat="44.07707" lon="11.2812517"><ele>762.25</ele><time>2026-04-11T12:25:38.421Z</time></trkpt><trkpt lat="44.0771767" lon="11.28133"><ele>765.0</ele><time>2026-04-11T12:25:39.421Z</time></trkpt><trkpt lat="44.0772883" lon="11.2813867"><ele>764.75</ele><time>2026-04-11T12:25:40.421Z</time></trkpt><trkpt lat="44.0774017" lon="11.2814517"><ele>764.5</ele><time>2026-04-11T12:25:41.422Z</time></trkpt><trkpt lat="44.077515" lon="11.2815083"><ele>764.25</ele><time>2026-04-11T12:25:42.42Z</time></trkpt><trkpt lat="44.07763" lon="11.2815567"><ele>764.0</ele><time>2026-04-11T12:25:43.421Z</time></trkpt><trkpt lat="44.0777467" lon="11.2816133"><ele>764.0</ele><time>2026-04-11T12:25:44.42Z</time></trkpt><trkpt lat="44.0778633" lon="11.2816617"><ele>764.0</ele><time>2026-04-11T12:25:45.421Z</time></trkpt><trkpt lat="44.0779767" lon="11.281715"><ele>764.0</ele><time>2026-04-11T12:25:46.422Z</time></trkpt><trkpt lat="44.0780767" lon="11.2817683"><ele>764.0</ele><time>2026-04-11T12:25:47.42Z</time></trkpt><trkpt lat="44.0781717" lon="11.28181"><ele>764.0</ele><time>2026-04-11T12:25:48.422Z</time></trkpt><trkpt lat="44.078265" lon="11.281845"><ele>766.5</ele><time>2026-04-11T12:25:49.422Z</time></trkpt><trkpt lat="44.07837" lon="11.2818917"><ele>769.0</ele><time>2026-04-11T12:25:50.422Z</time></trkpt><trkpt lat="44.0784683" lon="11.2819417"><ele>771.5</ele><time>2026-04-11T12:25:51.42Z</time></trkpt><trkpt lat="44.078575" lon="11.281995"><ele>774.0</ele><time>2026-04-11T12:25:52.423Z</time></trkpt><trkpt lat="44.0786967" lon="11.2820383"><ele>774.0</ele><time>2026-04-11T12:25:53.421Z</time></trkpt><trkpt lat="44.0788217" lon="11.28206"><ele>774.0</ele><time>2026-04-11T12:25:54.422Z</time></trkpt><trkpt lat="44.0789617" lon="11.282065"><ele>774.0</ele><time>2026-04-11T12:25:55.421Z</time></trkpt><trkpt lat="44.079115" lon="11.28206"><ele>774.0</ele><time>2026-04-11T12:25:56.421Z</time></trkpt><trkpt lat="44.0792817" lon="11.2820483"><ele>780.0</ele><time>2026-04-11T12:25:57.421Z</time></trkpt><trkpt lat="44.0794683" lon="11.2820283"><ele>786.0</ele><time>2026-04-11T12:25:58.421Z</time></trkpt><trkpt lat="44.079675" lon="11.2820133"><ele>792.0</ele><time>2026-04-11T12:25:59.421Z</time></trkpt><trkpt lat="44.0798717" lon="11.2819967"><ele>796.6666666666667</ele><time>2026-04-11T12:26:00.422Z</time></trkpt><trkpt lat="44.0800567" lon="11.2819817"><ele>801.3333333333334</ele><time>2026-04-11T12:26:01.421Z</time></trkpt><trkpt lat="44.0802317" lon="11.2819683"><ele>806.0</ele><time>2026-04-11T12:26:02.421Z</time></trkpt><trkpt lat="44.0804017" lon="11.2819533"><ele>806.0</ele><time>2026-04-11T12:26:03.42Z</time></trkpt><trkpt lat="44.0805567" lon="11.2819333"><ele>806.0</ele><time>2026-04-11T12:26:04.422Z</time></trkpt><trkpt lat="44.0807033" lon="11.2818967"><ele>806.0</ele><time>2026-04-11T12:26:05.421Z</time></trkpt><trkpt lat="44.080855" lon="11.2818433"><ele>806.75</ele><time>2026-04-11T12:26:06.421Z</time></trkpt><trkpt lat="44.08099" lon="11.2817867"><ele>807.5</ele><time>2026-04-11T12:26:07.421Z</time></trkpt><trkpt lat="44.0811067" lon="11.2817267"><ele>808.25</ele><time>2026-04-11T12:26:08.421Z</time></trkpt><trkpt lat="44.0812283" lon="11.2816567"><ele>809.0</ele><time>2026-04-11T12:26:09.422Z</time></trkpt><trkpt lat="44.081345" lon="11.2815533"><ele>813.0</ele><time>2026-04-11T12:26:10.422Z</time></trkpt><trkpt lat="44.08146" lon="11.2814233"><ele>817.0</ele><time>2026-04-11T12:26:11.422Z</time></trkpt><trkpt lat="44.0815667" lon="11.2812817"><ele>821.0</ele><time>2026-04-11T12:26:12.422Z</time></trkpt><trkpt lat="44.0816717" lon="11.2811517"><ele>825.0</ele><time>2026-04-11T12:26:13.422Z</time></trkpt><trkpt lat="44.0817667" lon="11.2810433"><ele>825.0</ele><time>2026-04-11T12:26:14.423Z</time></trkpt><trkpt lat="44.0818517" lon="11.2809683"><ele>825.0</ele><time>2026-04-11T12:26:15.422Z</time></trkpt><trkpt lat="44.08194" lon="11.2809283"><ele>825.0</ele><time>2026-04-11T12:26:16.421Z</time></trkpt><trkpt lat="44.0820417" lon="11.2809383"><ele>825.0</ele><time>2026-04-11T12:26:17.421Z</time></trkpt><trkpt lat="44.0821583" lon="11.2809917"><ele>825.0</ele><time>2026-04-11T12:26:18.421Z</time></trkpt><trkpt lat="44.0822617" lon="11.281075"><ele>825.0</ele><time>2026-04-11T12:26:19.422Z</time></trkpt><trkpt lat="44.082335" lon="11.2811933"><ele>825.0</ele><time>2026-04-11T12:26:20.422Z</time></trkpt><trkpt lat="44.0823917" lon="11.28133"><ele>825.0</ele><time>2026-04-11T12:26:21.421Z</time></trkpt><trkpt lat="44.0824317" lon="11.2814867"><ele>825.0</ele><time>2026-04-11T12:26:22.422Z</time></trkpt><trkpt lat="44.0824383" lon="11.2816867"><ele>823.6666666666667</ele><time>2026-04-11T12:26:23.421Z</time></trkpt><trkpt lat="44.0824417" lon="11.28192"><ele>822.3333333333334</ele><time>2026-04-11T12:26:24.422Z</time></trkpt><trkpt lat="44.0824633" lon="11.2821317"><ele>821.0</ele><time>2026-04-11T12:26:25.424Z</time></trkpt><trkpt lat="44.0825" lon="11.28232"><ele>821.0</ele><time>2026-04-11T12:26:26.422Z</time></trkpt><trkpt lat="44.0825517" lon="11.28248"><ele>821.0</ele><time>2026-04-11T12:26:27.423Z</time></trkpt><trkpt lat="44.0825983" lon="11.282625"><ele>821.0</ele><time>2026-04-11T12:26:28.422Z</time></trkpt><trkpt lat="44.0826383" lon="11.2827417"><ele>821.0</ele><time>2026-04-11T12:26:29.421Z</time></trkpt><trkpt lat="44.0826733" lon="11.28282"><ele>821.0</ele><time>2026-04-11T12:26:30.422Z</time></trkpt><trkpt lat="44.0827167" lon="11.2829317"><ele>821.0000000000001</ele><time>2026-04-11T12:26:32.423Z</time></trkpt><trkpt lat="44.08276" lon="11.283025"><ele>821.0</ele><time>2026-04-11T12:26:34.422Z</time></trkpt><trkpt lat="44.0827917" lon="11.28311"><ele>821.0</ele><time>2026-04-11T12:26:37.421Z</time></trkpt><trkpt lat="44.0828317" lon="11.2832233"><ele>821.0</ele><time>2026-04-11T12:26:40.421Z</time></trkpt><trkpt lat="44.0828717" lon="11.2833117"><ele>821.0000000000001</ele><time>2026-04-11T12:26:42.422Z</time></trkpt><trkpt lat="44.0829033" lon="11.28343"><ele>821.0</ele><time>2026-04-11T12:27:00.423Z</time></trkpt><trkpt lat="44.08296" lon="11.2834717"><ele>821.0</ele><time>2026-04-11T12:27:06.423Z</time></trkpt><trkpt lat="44.0829233" lon="11.2833967"><ele>821.0</ele><time>2026-04-11T12:27:09.422Z</time></trkpt><trkpt lat="44.0828433" lon="11.28332"><ele>821.0</ele><time>2026-04-11T12:27:11.42Z</time></trkpt><trkpt lat="44.08275" lon="11.283185"><ele>821.0</ele><time>2026-04-11T12:27:13.421Z</time></trkpt><trkpt lat="44.0827" lon="11.28308"><ele>821.0</ele><time>2026-04-11T12:27:14.42Z</time></trkpt><trkpt lat="44.082645" lon="11.2829533"><ele>821.0</ele><time>2026-04-11T12:27:15.421Z</time></trkpt><trkpt lat="44.0825833" lon="11.2827733"><ele>821.0</ele><time>2026-04-11T12:27:16.423Z</time></trkpt><trkpt lat="44.0825283" lon="11.2826017"><ele>821.0</ele><time>2026-04-11T12:27:17.422Z</time></trkpt><trkpt lat="44.082485" lon="11.2824133"><ele>821.0</ele><time>2026-04-11T12:27:18.422Z</time></trkpt><trkpt lat="44.0824567" lon="11.2822467"><ele>820.75</ele><time>2026-04-11T12:27:19.423Z</time></trkpt><trkpt lat="44.082455" lon="11.2820633"><ele>820.5</ele><time>2026-04-11T12:27:20.422Z</time></trkpt><trkpt lat="44.0824567" lon="11.2818583"><ele>820.25</ele><time>2026-04-11T12:27:21.422Z</time></trkpt><trkpt lat="44.0824467" lon="11.28167"><ele>820.0</ele><time>2026-04-11T12:27:22.423Z</time></trkpt><trkpt lat="44.0824333" lon="11.281505"><ele>821.0</ele><time>2026-04-11T12:27:23.422Z</time></trkpt><trkpt lat="44.0824083" lon="11.2813567"><ele>822.0</ele><time>2026-04-11T12:27:24.421Z</time></trkpt><trkpt lat="44.0823733" lon="11.2812167"><ele>823.0</ele><time>2026-04-11T12:27:25.422Z</time></trkpt><trkpt lat="44.0823133" lon="11.2810933"><ele>824.0</ele><time>2026-04-11T12:27:26.419Z</time></trkpt><trkpt lat="44.082235" lon="11.2809933"><ele>825.0</ele><time>2026-04-11T12:27:27.419Z</time></trkpt><trkpt lat="44.0821433" lon="11.280915"><ele>825.0</ele><time>2026-04-11T12:27:28.419Z</time></trkpt><trkpt lat="44.0820417" lon="11.2808833"><ele>825.0</ele><time>2026-04-11T12:27:29.419Z</time></trkpt><trkpt lat="44.081945" lon="11.28089"><ele>825.0</ele><time>2026-04-11T12:27:30.42Z</time></trkpt><trkpt lat="44.0818467" lon="11.280935"><ele>825.0</ele><time>2026-04-11T12:27:31.42Z</time></trkpt><trkpt lat="44.08177" lon="11.2810033"><ele>825.0</ele><time>2026-04-11T12:27:32.42Z</time></trkpt><trkpt lat="44.0816967" lon="11.2811017"><ele>825.0</ele><time>2026-04-11T12:27:33.42Z</time></trkpt><trkpt lat="44.0816167" lon="11.28117"><ele>825.0</ele><time>2026-04-11T12:27:34.42Z</time></trkpt><trkpt lat="44.0815317" lon="11.28127"><ele>825.0</ele><time>2026-04-11T12:27:35.421Z</time></trkpt><trkpt lat="44.0814467" lon="11.2813617"><ele>825.0</ele><time>2026-04-11T12:27:36.42Z</time></trkpt><trkpt lat="44.0813633" lon="11.281435"><ele>825.0</ele><time>2026-04-11T12:27:37.422Z</time></trkpt><trkpt lat="44.0812867" lon="11.2815033"><ele>822.7142857142857</ele><time>2026-04-11T12:27:38.421Z</time></trkpt><trkpt lat="44.081215" lon="11.2815733"><ele>820.4285714285714</ele><time>2026-04-11T12:27:39.421Z</time></trkpt><trkpt lat="44.0811533" lon="11.2816133"><ele>818.1428571428571</ele><time>2026-04-11T12:27:40.421Z</time></trkpt><trkpt lat="44.0810917" lon="11.2816517"><ele>815.8571428571429</ele><time>2026-04-11T12:27:41.422Z</time></trkpt><trkpt lat="44.0810317" lon="11.2816817"><ele>813.5714285714287</ele><time>2026-04-11T12:27:42.419Z</time></trkpt><trkpt lat="44.0809683" lon="11.28171"><ele>811.2857142857143</ele><time>2026-04-11T12:27:43.421Z</time></trkpt><trkpt lat="44.0808967" lon="11.2817467"><ele>809.0</ele><time>2026-04-11T12:27:44.42Z</time></trkpt><trkpt lat="44.0808267" lon="11.281755"><ele>809.0000000000001</ele><time>2026-04-11T12:27:46.42Z</time></trkpt><trkpt lat="44.0807417" lon="11.2817817"><ele>809.0</ele><time>2026-04-11T12:27:50.422Z</time></trkpt><trkpt lat="44.0806717" lon="11.2818167"><ele>809.0</ele><time>2026-04-11T12:27:53.42Z</time></trkpt><trkpt lat="44.080595" lon="11.2818133"><ele>809.0</ele><time>2026-04-11T12:28:06.422Z</time></trkpt><trkpt lat="44.0806717" lon="11.2817533"><ele>809.0000000000001</ele><time>2026-04-11T12:28:10.423Z</time></trkpt><trkpt lat="44.0807667" lon="11.281715"><ele>809.0</ele><time>2026-04-11T12:28:12.422Z</time></trkpt><trkpt lat="44.0808667" lon="11.2816667"><ele>809.0</ele><time>2026-04-11T12:28:14.423Z</time></trkpt><trkpt lat="44.08094" lon="11.2816"><ele>809.0</ele><time>2026-04-11T12:28:16.422Z</time></trkpt><trkpt lat="44.0810217" lon="11.281505"><ele>809.0</ele><time>2026-04-11T12:28:18.423Z</time></trkpt><trkpt lat="44.08112" lon="11.281395"><ele>809.0</ele><time>2026-04-11T12:28:20.423Z</time></trkpt><trkpt lat="44.0811617" lon="11.2813233"><ele>809.0</ele><time>2026-04-11T12:28:21.422Z</time></trkpt><trkpt lat="44.0812067" lon="11.2812617"><ele>815.8000000000001</ele><time>2026-04-11T12:28:22.423Z</time></trkpt><trkpt lat="44.081255" lon="11.2812"><ele>822.6</ele><time>2026-04-11T12:28:23.423Z</time></trkpt><trkpt lat="44.08131" lon="11.2811383"><ele>829.4</ele><time>2026-04-11T12:28:24.423Z</time></trkpt><trkpt lat="44.0813933" lon="11.2810467"><ele>836.2</ele><time>2026-04-11T12:28:26.422Z</time></trkpt><trkpt lat="44.0814817" lon="11.28096"><ele>843.0</ele><time>2026-04-11T12:28:28.421Z</time></trkpt><trkpt lat="44.081565" lon="11.28087"><ele>844.7142857142857</ele><time>2026-04-11T12:28:30.421Z</time></trkpt><trkpt lat="44.081615" lon="11.2808167"><ele>846.4285714285713</ele><time>2026-04-11T12:28:31.423Z</time></trkpt><trkpt lat="44.0816667" lon="11.2807467"><ele>848.1428571428571</ele><time>2026-04-11T12:28:32.424Z</time></trkpt><trkpt lat="44.0817133" lon="11.280675"><ele>849.8571428571429</ele><time>2026-04-11T12:28:33.423Z</time></trkpt><trkpt lat="44.0817683" lon="11.2805933"><ele>851.5714285714286</ele><time>2026-04-11T12:28:34.422Z</time></trkpt><trkpt lat="44.0818167" lon="11.2805167"><ele>853.2857142857143</ele><time>2026-04-11T12:28:35.422Z</time></trkpt><trkpt lat="44.0818633" lon="11.2804433"><ele>855.0</ele><time>2026-04-11T12:28:36.423Z</time></trkpt><trkpt lat="44.0819467" lon="11.2803267"><ele>855.0</ele><time>2026-04-11T12:28:38.424Z</time></trkpt><trkpt lat="44.0820183" lon="11.2802483"><ele>855.0</ele><time>2026-04-11T12:28:40.423Z</time></trkpt><trkpt lat="44.0820933" lon="11.2801833"><ele>855.0</ele><time>2026-04-11T12:28:43.423Z</time></trkpt><trkpt lat="44.0821833" lon="11.280165"><ele>855.0</ele><time>2026-04-11T12:28:46.421Z</time></trkpt><trkpt lat="44.082295" lon="11.2801467"><ele>855.0</ele><time>2026-04-11T12:28:48.421Z</time></trkpt><trkpt lat="44.0823917" lon="11.2801383"><ele>851.8</ele><time>2026-04-11T12:28:50.42Z</time></trkpt><trkpt lat="44.0825" lon="11.28015"><ele>848.6</ele><time>2026-04-11T12:28:52.422Z</time></trkpt><trkpt lat="44.0826217" lon="11.2801117"><ele>845.4000000000001</ele><time>2026-04-11T12:28:54.421Z</time></trkpt><trkpt lat="44.0826967" lon="11.2801083"><ele>842.2</ele><time>2026-04-11T12:28:55.422Z</time></trkpt><trkpt lat="44.0827783" lon="11.2800767"><ele>839.0</ele><time>2026-04-11T12:28:57.422Z</time></trkpt><trkpt lat="44.0828733" lon="11.2800483"><ele>839.0</ele><time>2026-04-11T12:29:00.422Z</time></trkpt><trkpt lat="44.0829517" lon="11.280025"><ele>839.0</ele><time>2026-04-11T12:29:02.423Z</time></trkpt><trkpt lat="44.083035" lon="11.2800167"><ele>839.0</ele><time>2026-04-11T12:29:04.421Z</time></trkpt><trkpt lat="44.0831417" lon="11.2800483"><ele>839.0</ele><time>2026-04-11T12:29:06.421Z</time></trkpt><trkpt lat="44.0832533" lon="11.2800667"><ele>839.0</ele><time>2026-04-11T12:29:08.423Z</time></trkpt><trkpt lat="44.0833633" lon="11.280075"><ele>840.6</ele><time>2026-04-11T12:29:10.421Z</time></trkpt><trkpt lat="44.0834533" lon="11.2800667"><ele>842.2</ele><time>2026-04-11T12:29:12.422Z</time></trkpt><trkpt lat="44.0835533" lon="11.28005"><ele>843.8000000000001</ele><time>2026-04-11T12:29:14.42Z</time></trkpt><trkpt lat="44.0836533" lon="11.2800433"><ele>845.4000000000001</ele><time>2026-04-11T12:29:16.422Z</time></trkpt><trkpt lat="44.08376" lon="11.280025"><ele>847.0</ele><time>2026-04-11T12:29:18.421Z</time></trkpt><trkpt lat="44.083875" lon="11.2800117"><ele>847.0</ele><time>2026-04-11T12:29:20.424Z</time></trkpt><trkpt lat="44.083965" lon="11.2799883"><ele>847.0</ele><time>2026-04-11T12:29:22.422Z</time></trkpt><trkpt lat="44.0840667" lon="11.279985"><ele>847.0</ele><time>2026-04-11T12:29:24.421Z</time></trkpt><trkpt lat="44.0841683" lon="11.2799967"><ele>847.0</ele><time>2026-04-11T12:29:26.422Z</time></trkpt><trkpt lat="44.084235" lon="11.2799633"><ele>847.0</ele><time>2026-04-11T12:29:28.422Z</time></trkpt><trkpt lat="44.084325" lon="11.2798967"><ele>848.6</ele><time>2026-04-11T12:29:30.422Z</time></trkpt><trkpt lat="44.0844167" lon="11.279835"><ele>850.2</ele><time>2026-04-11T12:29:32.421Z</time></trkpt><trkpt lat="44.08452" lon="11.2798"><ele>851.8</ele><time>2026-04-11T12:29:35.42Z</time></trkpt><trkpt lat="44.0846217" lon="11.2797883"><ele>853.4</ele><time>2026-04-11T12:29:37.42Z</time></trkpt><trkpt lat="44.0847117" lon="11.2797867"><ele>855.0</ele><time>2026-04-11T12:29:39.422Z</time></trkpt><trkpt lat="44.0847967" lon="11.27978"><ele>855.0</ele><time>2026-04-11T12:29:41.421Z</time></trkpt><trkpt lat="44.0848983" lon="11.2797867"><ele>855.0</ele><time>2026-04-11T12:29:43.421Z</time></trkpt><trkpt lat="44.08497" lon="11.2798033"><ele>855.0</ele><time>2026-04-11T12:29:45.421Z</time></trkpt><trkpt lat="44.0850533" lon="11.2798167"><ele>855.0</ele><time>2026-04-11T12:29:47.422Z</time></trkpt><trkpt lat="44.08517" lon="11.2798067"><ele>855.0</ele><time>2026-04-11T12:29:49.422Z</time></trkpt><trkpt lat="44.0852833" lon="11.2798083"><ele>855.2</ele><time>2026-04-11T12:29:51.422Z</time></trkpt><trkpt lat="44.0853817" lon="11.2798017"><ele>855.4</ele><time>2026-04-11T12:29:53.421Z</time></trkpt><trkpt lat="44.0854683" lon="11.2798083"><ele>855.5999999999999</ele><time>2026-04-11T12:29:55.421Z</time></trkpt><trkpt lat="44.0855583" lon="11.2798467"><ele>855.8</ele><time>2026-04-11T12:29:57.422Z</time></trkpt><trkpt lat="44.085655" lon="11.2799"><ele>856.0</ele><time>2026-04-11T12:29:59.421Z</time></trkpt><trkpt lat="44.085745" lon="11.2799933"><ele>857.9999999999999</ele><time>2026-04-11T12:30:01.423Z</time></trkpt><trkpt lat="44.0858017" lon="11.2800483"><ele>860.0</ele><time>2026-04-11T12:30:02.419Z</time></trkpt><trkpt lat="44.0858733" lon="11.2801"><ele>862.0</ele><time>2026-04-11T12:30:03.42Z</time></trkpt><trkpt lat="44.0859333" lon="11.28019"><ele>864.0</ele><time>2026-04-11T12:30:05.421Z</time></trkpt><trkpt lat="44.0859983" lon="11.280285"><ele>865.9999999999999</ele><time>2026-04-11T12:30:07.42Z</time></trkpt><trkpt lat="44.0860633" lon="11.2803683"><ele>868.0</ele><time>2026-04-11T12:30:09.421Z</time></trkpt><trkpt lat="44.0861417" lon="11.2804133"><ele>868.0</ele><time>2026-04-11T12:30:11.42Z</time></trkpt><trkpt lat="44.0862483" lon="11.280445"><ele>868.0</ele><time>2026-04-11T12:30:13.42Z</time></trkpt><trkpt lat="44.0863583" lon="11.2804433"><ele>868.0</ele><time>2026-04-11T12:30:15.422Z</time></trkpt><trkpt lat="44.0864233" lon="11.2804683"><ele>868.0</ele><time>2026-04-11T12:30:16.419Z</time></trkpt><trkpt lat="44.0865483" lon="11.2805067"><ele>868.0</ele><time>2026-04-11T12:30:18.419Z</time></trkpt><trkpt lat="44.086655" lon="11.280555"><ele>869.2</ele><time>2026-04-11T12:30:20.422Z</time></trkpt><trkpt lat="44.0868167" lon="11.280635"><ele>870.4</ele><time>2026-04-11T12:30:50.421Z</time></trkpt><trkpt lat="44.0868983" lon="11.2806533"><ele>871.6000000000001</ele><time>2026-04-11T12:30:52.421Z</time></trkpt><trkpt lat="44.0869567" lon="11.28062"><ele>872.8000000000001</ele><time>2026-04-11T12:30:53.419Z</time></trkpt><trkpt lat="44.087075" lon="11.28054"><ele>874.0</ele><time>2026-04-11T12:30:55.42Z</time></trkpt><trkpt lat="44.0871467" lon="11.2805"><ele>874.0</ele><time>2026-04-11T12:30:56.422Z</time></trkpt><trkpt lat="44.0872067" lon="11.28047"><ele>874.0000000000001</ele><time>2026-04-11T12:30:57.42Z</time></trkpt><trkpt lat="44.087275" lon="11.2804617"><ele>874.0000000000001</ele><time>2026-04-11T12:30:58.417Z</time></trkpt><trkpt lat="44.087365" lon="11.2804633"><ele>874.0</ele><time>2026-04-11T12:30:59.419Z</time></trkpt><trkpt lat="44.08746" lon="11.280545"><ele>874.0</ele><time>2026-04-11T12:31:00.419Z</time></trkpt><trkpt lat="44.087565" lon="11.2806817"><ele>879.0</ele><time>2026-04-11T12:31:01.421Z</time></trkpt><trkpt lat="44.087665" lon="11.2808233"><ele>884.0</ele><time>2026-04-11T12:31:02.419Z</time></trkpt><trkpt lat="44.087755" lon="11.2809483"><ele>889.0</ele><time>2026-04-11T12:31:03.42Z</time></trkpt><trkpt lat="44.0878317" lon="11.2810833"><ele>894.0</ele><time>2026-04-11T12:31:04.421Z</time></trkpt><trkpt lat="44.08792" lon="11.2811933"><ele>894.0</ele><time>2026-04-11T12:31:05.419Z</time></trkpt><trkpt lat="44.0880217" lon="11.28128"><ele>894.0</ele><time>2026-04-11T12:31:06.421Z</time></trkpt><trkpt lat="44.08814" lon="11.2813333"><ele>894.0</ele><time>2026-04-11T12:31:07.419Z</time></trkpt><trkpt lat="44.088275" lon="11.2813533"><ele>894.0</ele><time>2026-04-11T12:31:08.421Z</time></trkpt><trkpt lat="44.08842" lon="11.2813583"><ele>896.3333333333333</ele><time>2026-04-11T12:31:09.423Z</time></trkpt><trkpt lat="44.0885883" lon="11.2813767"><ele>898.6666666666666</ele><time>2026-04-11T12:31:10.422Z</time></trkpt><trkpt lat="44.0887817" lon="11.2814117"><ele>901.0</ele><time>2026-04-11T12:31:11.422Z</time></trkpt><trkpt lat="44.08894" lon="11.2814417"><ele>901.0</ele><time>2026-04-11T12:31:12.421Z</time></trkpt><trkpt lat="44.0890867" lon="11.2814633"><ele>901.0</ele><time>2026-04-11T12:31:13.423Z</time></trkpt><trkpt lat="44.0892333" lon="11.2814617"><ele>901.0</ele><time>2026-04-11T12:31:14.421Z</time></trkpt><trkpt lat="44.089365" lon="11.2814267"><ele>901.0</ele><time>2026-04-11T12:31:15.421Z</time></trkpt><trkpt lat="44.0894683" lon="11.2813767"><ele>899.5999999999999</ele><time>2026-04-11T12:31:16.422Z</time></trkpt><trkpt lat="44.0895667" lon="11.28132"><ele>898.1999999999999</ele><time>2026-04-11T12:31:17.423Z</time></trkpt><trkpt lat="44.0896633" lon="11.281275"><ele>896.8000000000001</ele><time>2026-04-11T12:31:18.422Z</time></trkpt><trkpt lat="44.0897683" lon="11.281235"><ele>895.4000000000001</ele><time>2026-04-11T12:31:19.422Z</time></trkpt><trkpt lat="44.0898783" lon="11.2811933"><ele>894.0</ele><time>2026-04-11T12:31:20.42Z</time></trkpt><trkpt lat="44.0899883" lon="11.28116"><ele>894.0</ele><time>2026-04-11T12:31:21.422Z</time></trkpt><trkpt lat="44.0900867" lon="11.2811383"><ele>894.0000000000001</ele><time>2026-04-11T12:31:22.419Z</time></trkpt><trkpt lat="44.0901833" lon="11.2811383"><ele>894.0000000000001</ele><time>2026-04-11T12:31:23.419Z</time></trkpt><trkpt lat="44.0902567" lon="11.2811617"><ele>894.0</ele><time>2026-04-11T12:31:24.422Z</time></trkpt><trkpt lat="44.0903517" lon="11.28119"><ele>894.0</ele><time>2026-04-11T12:31:25.42Z</time></trkpt><trkpt lat="44.09046" lon="11.2811983"><ele>894.0</ele><time>2026-04-11T12:31:26.422Z</time></trkpt><trkpt lat="44.09057" lon="11.281175"><ele>894.0</ele><time>2026-04-11T12:31:27.421Z</time></trkpt><trkpt lat="44.0906817" lon="11.2811117"><ele>894.0</ele><time>2026-04-11T12:31:28.425Z</time></trkpt><trkpt lat="44.090795" lon="11.281005"><ele>894.0</ele><time>2026-04-11T12:31:29.423Z</time></trkpt><trkpt lat="44.090875" lon="11.28088"><ele>894.6666666666667</ele><time>2026-04-11T12:31:30.422Z</time></trkpt><trkpt lat="44.0909917" lon="11.28076"><ele>895.3333333333334</ele><time>2026-04-11T12:31:31.422Z</time></trkpt><trkpt lat="44.0911167" lon="11.2806417"><ele>896.0</ele><time>2026-04-11T12:31:32.422Z</time></trkpt><trkpt lat="44.0912717" lon="11.2805383"><ele>892.6666666666667</ele><time>2026-04-11T12:31:33.42Z</time></trkpt><trkpt lat="44.0914167" lon="11.2804583"><ele>889.3333333333333</ele><time>2026-04-11T12:31:34.421Z</time></trkpt><trkpt lat="44.091565" lon="11.2803733"><ele>886.0</ele><time>2026-04-11T12:31:35.422Z</time></trkpt><trkpt lat="44.0916983" lon="11.2802883"><ele>886.0</ele><time>2026-04-11T12:31:36.421Z</time></trkpt><trkpt lat="44.09184" lon="11.2802017"><ele>886.0</ele><time>2026-04-11T12:31:37.421Z</time></trkpt><trkpt lat="44.0919783" lon="11.2801133"><ele>886.0</ele><time>2026-04-11T12:31:38.422Z</time></trkpt><trkpt lat="44.092115" lon="11.2800167"><ele>886.0</ele><time>2026-04-11T12:31:39.421Z</time></trkpt><trkpt lat="44.0922283" lon="11.27991"><ele>886.0</ele><time>2026-04-11T12:31:40.421Z</time></trkpt><trkpt lat="44.09231" lon="11.2797767"><ele>886.0</ele><time>2026-04-11T12:31:41.421Z</time></trkpt><trkpt lat="44.0923833" lon="11.2796233"><ele>886.0</ele><time>2026-04-11T12:31:42.419Z</time></trkpt><trkpt lat="44.0924467" lon="11.2794467"><ele>887.25</ele><time>2026-04-11T12:31:43.421Z</time></trkpt><trkpt lat="44.0925067" lon="11.2792683"><ele>888.5</ele><time>2026-04-11T12:31:44.419Z</time></trkpt><trkpt lat="44.0925617" lon="11.2790917"><ele>889.75</ele><time>2026-04-11T12:31:45.422Z</time></trkpt><trkpt lat="44.0926083" lon="11.2789233"><ele>891.0</ele><time>2026-04-11T12:31:46.42Z</time></trkpt><trkpt lat="44.092665" lon="11.278765"><ele>891.0</ele><time>2026-04-11T12:31:47.42Z</time></trkpt><trkpt lat="44.0927483" lon="11.2786367"><ele>891.0</ele><time>2026-04-11T12:31:48.42Z</time></trkpt><trkpt lat="44.09284" lon="11.27853"><ele>891.0</ele><time>2026-04-11T12:31:49.419Z</time></trkpt><trkpt lat="44.092955" lon="11.2784633"><ele>891.0</ele><time>2026-04-11T12:31:50.422Z</time></trkpt><trkpt lat="44.093085" lon="11.2784233"><ele>891.0</ele><time>2026-04-11T12:31:51.422Z</time></trkpt><trkpt lat="44.0932183" lon="11.27839"><ele>891.0</ele><time>2026-04-11T12:31:52.421Z</time></trkpt><trkpt lat="44.0933467" lon="11.2783333"><ele>891.0</ele><time>2026-04-11T12:31:53.422Z</time></trkpt><trkpt lat="44.0934617" lon="11.2782483"><ele>891.0</ele><time>2026-04-11T12:31:54.423Z</time></trkpt><trkpt lat="44.0935617" lon="11.278135"><ele>892.5</ele><time>2026-04-11T12:31:55.424Z</time></trkpt><trkpt lat="44.0936583" lon="11.2779983"><ele>894.0</ele><time>2026-04-11T12:31:56.42Z</time></trkpt><trkpt lat="44.0937517" lon="11.277845"><ele>895.5</ele><time>2026-04-11T12:31:57.422Z</time></trkpt><trkpt lat="44.0938383" lon="11.2776783"><ele>897.0</ele><time>2026-04-11T12:31:58.42Z</time></trkpt><trkpt lat="44.093915" lon="11.27751"><ele>897.0</ele><time>2026-04-11T12:31:59.423Z</time></trkpt><trkpt lat="44.0939783" lon="11.2773567"><ele>897.0</ele><time>2026-04-11T12:32:00.422Z</time></trkpt><trkpt lat="44.09403" lon="11.2772267"><ele>897.0</ele><time>2026-04-11T12:32:01.422Z</time></trkpt><trkpt lat="44.0940767" lon="11.27711"><ele>897.0</ele><time>2026-04-11T12:32:02.423Z</time></trkpt><trkpt lat="44.0941133" lon="11.2770083"><ele>897.0</ele><time>2026-04-11T12:32:03.424Z</time></trkpt><trkpt lat="44.09414" lon="11.2769133"><ele>898.1666666666666</ele><time>2026-04-11T12:32:04.424Z</time></trkpt><trkpt lat="44.0941667" lon="11.2768267"><ele>899.3333333333333</ele><time>2026-04-11T12:32:05.424Z</time></trkpt><trkpt lat="44.0942" lon="11.276725"><ele>900.5</ele><time>2026-04-11T12:32:06.424Z</time></trkpt><trkpt lat="44.09424" lon="11.2766217"><ele>901.6666666666666</ele><time>2026-04-11T12:32:07.424Z</time></trkpt><trkpt lat="44.0942633" lon="11.27652"><ele>902.8333333333333</ele><time>2026-04-11T12:32:08.424Z</time></trkpt><trkpt lat="44.09426" lon="11.27642"><ele>904.0</ele><time>2026-04-11T12:32:09.425Z</time></trkpt><trkpt lat="44.09423" lon="11.2763283"><ele>903.9999999999999</ele><time>2026-04-11T12:32:10.421Z</time></trkpt><trkpt lat="44.09417" lon="11.2762567"><ele>904.0</ele><time>2026-04-11T12:32:11.423Z</time></trkpt><trkpt lat="44.0940917" lon="11.2762217"><ele>904.0</ele><time>2026-04-11T12:32:12.421Z</time></trkpt><trkpt lat="44.0940217" lon="11.27619"><ele>904.0</ele><time>2026-04-11T12:32:13.421Z</time></trkpt><trkpt lat="44.0939533" lon="11.2761467"><ele>903.9999999999999</ele><time>2026-04-11T12:32:14.419Z</time></trkpt><trkpt lat="44.0939233" lon="11.27599"><ele>904.0</ele><time>2026-04-11T12:32:16.421Z</time></trkpt><trkpt lat="44.093955" lon="11.2758917"><ele>904.25</ele><time>2026-04-11T12:32:17.421Z</time></trkpt><trkpt lat="44.0940133" lon="11.2757733"><ele>904.5</ele><time>2026-04-11T12:32:18.422Z</time></trkpt><trkpt lat="44.0940817" lon="11.2756333"><ele>904.75</ele><time>2026-04-11T12:32:19.421Z</time></trkpt><trkpt lat="44.0941317" lon="11.275465"><ele>905.0</ele><time>2026-04-11T12:32:20.421Z</time></trkpt><trkpt lat="44.0941567" lon="11.275285"><ele>905.0</ele><time>2026-04-11T12:32:21.42Z</time></trkpt><trkpt lat="44.0941633" lon="11.2750883"><ele>905.0</ele><time>2026-04-11T12:32:22.42Z</time></trkpt><trkpt lat="44.0941583" lon="11.2748783"><ele>905.0</ele><time>2026-04-11T12:32:23.421Z</time></trkpt><trkpt lat="44.09415" lon="11.274655"><ele>905.6666666666667</ele><time>2026-04-11T12:32:24.422Z</time></trkpt><trkpt lat="44.0941417" lon="11.2744383"><ele>906.3333333333333</ele><time>2026-04-11T12:32:25.421Z</time></trkpt><trkpt lat="44.0941333" lon="11.2742117"><ele>907.0</ele><time>2026-04-11T12:32:26.421Z</time></trkpt><trkpt lat="44.094125" lon="11.2739917"><ele>906.3333333333333</ele><time>2026-04-11T12:32:27.421Z</time></trkpt><trkpt lat="44.0941183" lon="11.2737733"><ele>905.6666666666667</ele><time>2026-04-11T12:32:28.42Z</time></trkpt><trkpt lat="44.09411" lon="11.2735633"><ele>905.0</ele><time>2026-04-11T12:32:29.422Z</time></trkpt><trkpt lat="44.0941" lon="11.273365"><ele>901.0</ele><time>2026-04-11T12:32:30.422Z</time></trkpt><trkpt lat="44.0940867" lon="11.273185"><ele>897.0</ele><time>2026-04-11T12:32:31.421Z</time></trkpt><trkpt lat="44.0940717" lon="11.273"><ele>893.0</ele><time>2026-04-11T12:32:32.423Z</time></trkpt><trkpt lat="44.0940517" lon="11.272815"><ele>889.0</ele><time>2026-04-11T12:32:33.424Z</time></trkpt><trkpt lat="44.094025" lon="11.2726267"><ele>889.0</ele><time>2026-04-11T12:32:34.423Z</time></trkpt><trkpt lat="44.094" lon="11.2724333"><ele>889.0</ele><time>2026-04-11T12:32:35.423Z</time></trkpt><trkpt lat="44.0939767" lon="11.272245"><ele>889.0</ele><time>2026-04-11T12:32:36.423Z</time></trkpt><trkpt lat="44.093955" lon="11.2720517"><ele>889.0</ele><time>2026-04-11T12:32:37.422Z</time></trkpt><trkpt lat="44.0939333" lon="11.27186"><ele>889.0</ele><time>2026-04-11T12:32:38.424Z</time></trkpt><trkpt lat="44.0939117" lon="11.2716733"><ele>889.0</ele><time>2026-04-11T12:32:39.424Z</time></trkpt><trkpt lat="44.0938883" lon="11.27149"><ele>889.0</ele><time>2026-04-11T12:32:40.421Z</time></trkpt><trkpt lat="44.0938633" lon="11.2713133"><ele>889.0</ele><time>2026-04-11T12:32:41.423Z</time></trkpt><trkpt lat="44.0938417" lon="11.2711317"><ele>889.0</ele><time>2026-04-11T12:32:42.422Z</time></trkpt><trkpt lat="44.09382" lon="11.2709417"><ele>889.0</ele><time>2026-04-11T12:32:43.421Z</time></trkpt><trkpt lat="44.093795" lon="11.2707467"><ele>889.0</ele><time>2026-04-11T12:32:44.42Z</time></trkpt><trkpt lat="44.0937717" lon="11.270545"><ele>889.0</ele><time>2026-04-11T12:32:45.423Z</time></trkpt><trkpt lat="44.09375" lon="11.2703517"><ele>890.5</ele><time>2026-04-11T12:32:46.421Z</time></trkpt><trkpt lat="44.0937267" lon="11.2701633"><ele>892.0</ele><time>2026-04-11T12:32:47.422Z</time></trkpt><trkpt lat="44.0937" lon="11.2699783"><ele>893.5</ele><time>2026-04-11T12:32:48.421Z</time></trkpt><trkpt lat="44.0936667" lon="11.2698117"><ele>895.0</ele><time>2026-04-11T12:32:49.422Z</time></trkpt><trkpt lat="44.09362" lon="11.2696617"><ele>895.25</ele><time>2026-04-11T12:32:50.422Z</time></trkpt><trkpt lat="44.0935467" lon="11.26953"><ele>895.5</ele><time>2026-04-11T12:32:51.421Z</time></trkpt><trkpt lat="44.0934533" lon="11.2694267"><ele>895.75</ele><time>2026-04-11T12:32:52.422Z</time></trkpt><trkpt lat="44.0933433" lon="11.2693567"><ele>896.0</ele><time>2026-04-11T12:32:53.421Z</time></trkpt><trkpt lat="44.093225" lon="11.26931"><ele>896.0</ele><time>2026-04-11T12:32:54.421Z</time></trkpt><trkpt lat="44.0931117" lon="11.2692717"><ele>896.0</ele><time>2026-04-11T12:32:55.422Z</time></trkpt><trkpt lat="44.0929983" lon="11.2692283"><ele>896.0</ele><time>2026-04-11T12:32:56.423Z</time></trkpt><trkpt lat="44.0928833" lon="11.2691883"><ele>896.0</ele><time>2026-04-11T12:32:57.423Z</time></trkpt><trkpt lat="44.0927867" lon="11.2691567"><ele>896.0000000000001</ele><time>2026-04-11T12:32:58.423Z</time></trkpt><trkpt lat="44.0927033" lon="11.26913"><ele>896.0</ele><time>2026-04-11T12:32:59.421Z</time></trkpt><trkpt lat="44.09263" lon="11.2691133"><ele>896.0</ele><time>2026-04-11T12:33:00.422Z</time></trkpt><trkpt lat="44.0925317" lon="11.2690817"><ele>896.0</ele><time>2026-04-11T12:33:02.423Z</time></trkpt><trkpt lat="44.092465" lon="11.2690617"><ele>896.0000000000001</ele><time>2026-04-11T12:33:04.421Z</time></trkpt><trkpt lat="44.0923833" lon="11.2690133"><ele>896.0</ele><time>2026-04-11T12:33:09.423Z</time></trkpt><trkpt lat="44.092305" lon="11.268995"><ele>896.6666666666667</ele><time>2026-04-11T12:33:11.422Z</time></trkpt><trkpt lat="44.0922883" lon="11.2688883"><ele>897.3333333333334</ele><time>2026-04-11T12:33:14.422Z</time></trkpt><trkpt lat="44.0923033" lon="11.2687983"><ele>898.0</ele><time>2026-04-11T12:33:16.423Z</time></trkpt><trkpt lat="44.0923483" lon="11.2687267"><ele>898.6666666666667</ele><time>2026-04-11T12:33:18.421Z</time></trkpt><trkpt lat="44.092425" lon="11.268665"><ele>899.3333333333334</ele><time>2026-04-11T12:33:20.421Z</time></trkpt><trkpt lat="44.0925" lon="11.26859"><ele>900.0</ele><time>2026-04-11T12:33:22.421Z</time></trkpt><trkpt lat="44.092545" lon="11.2685167"><ele>900.0</ele><time>2026-04-11T12:33:24.422Z</time></trkpt><trkpt lat="44.0925133" lon="11.2684317"><ele>900.0</ele><time>2026-04-11T12:33:28.423Z</time></trkpt><trkpt lat="44.09244" lon="11.2684167"><ele>900.0</ele><time>2026-04-11T12:33:30.423Z</time></trkpt><trkpt lat="44.0923533" lon="11.2683867"><ele>900.0</ele><time>2026-04-11T12:33:32.424Z</time></trkpt><trkpt lat="44.09226" lon="11.26834"><ele>900.0</ele><time>2026-04-11T12:33:34.421Z</time></trkpt><trkpt lat="44.09219" lon="11.268355"><ele>900.0</ele><time>2026-04-11T12:33:36.424Z</time></trkpt><trkpt lat="44.0920867" lon="11.2683183"><ele>900.6</ele><time>2026-04-11T12:33:39.423Z</time></trkpt><trkpt lat="44.0919717" lon="11.26828"><ele>901.2</ele><time>2026-04-11T12:33:41.422Z</time></trkpt><trkpt lat="44.0919017" lon="11.2682633"><ele>901.8</ele><time>2026-04-11T12:33:42.423Z</time></trkpt><trkpt lat="44.0918" lon="11.26824"><ele>902.4</ele><time>2026-04-11T12:33:43.424Z</time></trkpt><trkpt lat="44.09171" lon="11.2682217"><ele>903.0</ele><time>2026-04-11T12:33:44.423Z</time></trkpt><trkpt lat="44.0916367" lon="11.26821"><ele>901.6666666666666</ele><time>2026-04-11T12:33:45.424Z</time></trkpt><trkpt lat="44.0915683" lon="11.2681883"><ele>900.3333333333333</ele><time>2026-04-11T12:33:46.422Z</time></trkpt><trkpt lat="44.0914467" lon="11.2681483"><ele>899.0</ele><time>2026-04-11T12:33:48.422Z</time></trkpt><trkpt lat="44.0913867" lon="11.2680867"><ele>897.6666666666666</ele><time>2026-04-11T12:33:49.424Z</time></trkpt><trkpt lat="44.0913283" lon="11.2680183"><ele>896.3333333333333</ele><time>2026-04-11T12:33:50.423Z</time></trkpt><trkpt lat="44.091275" lon="11.26794"><ele>895.0</ele><time>2026-04-11T12:33:51.423Z</time></trkpt><trkpt lat="44.0912217" lon="11.2678333"><ele>895.0</ele><time>2026-04-11T12:33:52.421Z</time></trkpt><trkpt lat="44.0911833" lon="11.2677267"><ele>895.0</ele><time>2026-04-11T12:33:53.423Z</time></trkpt><trkpt lat="44.0911483" lon="11.2676"><ele>895.0</ele><time>2026-04-11T12:33:54.423Z</time></trkpt><trkpt lat="44.09111" lon="11.2674333"><ele>895.0</ele><time>2026-04-11T12:33:55.424Z</time></trkpt><trkpt lat="44.0910583" lon="11.2672767"><ele>895.0</ele><time>2026-04-11T12:33:56.424Z</time></trkpt><trkpt lat="44.0910017" lon="11.2671167"><ele>895.25</ele><time>2026-04-11T12:33:57.424Z</time></trkpt><trkpt lat="44.09094" lon="11.2669617"><ele>895.5</ele><time>2026-04-11T12:33:58.421Z</time></trkpt><trkpt lat="44.090875" lon="11.2668217"><ele>895.75</ele><time>2026-04-11T12:33:59.423Z</time></trkpt><trkpt lat="44.0908083" lon="11.2666933"><ele>896.0</ele><time>2026-04-11T12:34:00.422Z</time></trkpt><trkpt lat="44.0907417" lon="11.2665717"><ele>893.8</ele><time>2026-04-11T12:34:01.424Z</time></trkpt><trkpt lat="44.09068" lon="11.2664583"><ele>891.5999999999999</ele><time>2026-04-11T12:34:02.423Z</time></trkpt><trkpt lat="44.0906167" lon="11.2663533"><ele>889.4</ele><time>2026-04-11T12:34:03.422Z</time></trkpt><trkpt lat="44.0905517" lon="11.266245"><ele>887.2</ele><time>2026-04-11T12:34:04.421Z</time></trkpt><trkpt lat="44.0904817" lon="11.26612"><ele>885.0</ele><time>2026-04-11T12:34:05.423Z</time></trkpt><trkpt lat="44.09042" lon="11.266025"><ele>885.0</ele><time>2026-04-11T12:34:06.42Z</time></trkpt><trkpt lat="44.0903517" lon="11.2659017"><ele>885.0</ele><time>2026-04-11T12:34:07.423Z</time></trkpt><trkpt lat="44.0903017" lon="11.2657933"><ele>885.0</ele><time>2026-04-11T12:34:08.423Z</time></trkpt><trkpt lat="44.0902583" lon="11.2656917"><ele>885.0</ele><time>2026-04-11T12:34:09.422Z</time></trkpt><trkpt lat="44.0902167" lon="11.2656"><ele>885.0</ele><time>2026-04-11T12:34:10.421Z</time></trkpt><trkpt lat="44.0901717" lon="11.265525"><ele>885.0</ele><time>2026-04-11T12:34:11.422Z</time></trkpt><trkpt lat="44.0901183" lon="11.265435"><ele>884.2</ele><time>2026-04-11T12:34:12.422Z</time></trkpt><trkpt lat="44.090055" lon="11.26535"><ele>883.4</ele><time>2026-04-11T12:34:13.419Z</time></trkpt><trkpt lat="44.0899667" lon="11.2652567"><ele>882.5999999999999</ele><time>2026-04-11T12:34:14.421Z</time></trkpt><trkpt lat="44.08988" lon="11.26518"><ele>881.8</ele><time>2026-04-11T12:34:15.42Z</time></trkpt><trkpt lat="44.089805" lon="11.26511"><ele>881.0</ele><time>2026-04-11T12:34:16.42Z</time></trkpt><trkpt lat="44.0897317" lon="11.2650167"><ele>880.1999999999999</ele><time>2026-04-11T12:34:17.42Z</time></trkpt><trkpt lat="44.0896717" lon="11.264905"><ele>879.3999999999999</ele><time>2026-04-11T12:34:18.42Z</time></trkpt><trkpt lat="44.08963" lon="11.2647917"><ele>878.6</ele><time>2026-04-11T12:34:19.422Z</time></trkpt><trkpt lat="44.0895883" lon="11.26466"><ele>877.8</ele><time>2026-04-11T12:34:20.422Z</time></trkpt><trkpt lat="44.089545" lon="11.264525"><ele>877.0</ele><time>2026-04-11T12:34:21.422Z</time></trkpt><trkpt lat="44.0895033" lon="11.2644"><ele>875.6</ele><time>2026-04-11T12:34:22.423Z</time></trkpt><trkpt lat="44.0894717" lon="11.2642683"><ele>874.2</ele><time>2026-04-11T12:34:23.422Z</time></trkpt><trkpt lat="44.0894467" lon="11.2641517"><ele>872.8</ele><time>2026-04-11T12:34:24.423Z</time></trkpt><trkpt lat="44.0894367" lon="11.2640333"><ele>871.4</ele><time>2026-04-11T12:34:25.423Z</time></trkpt><trkpt lat="44.08943" lon="11.26392"><ele>870.0</ele><time>2026-04-11T12:34:26.424Z</time></trkpt><trkpt lat="44.089415" lon="11.2637617"><ele>869.0</ele><time>2026-04-11T12:34:27.424Z</time></trkpt><trkpt lat="44.0894117" lon="11.2636"><ele>868.0</ele><time>2026-04-11T12:34:28.424Z</time></trkpt><trkpt lat="44.089405" lon="11.2634533"><ele>867.0</ele><time>2026-04-11T12:34:29.422Z</time></trkpt><trkpt lat="44.0893983" lon="11.2633183"><ele>866.0</ele><time>2026-04-11T12:34:30.423Z</time></trkpt><trkpt lat="44.0893883" lon="11.2631933"><ele>865.0</ele><time>2026-04-11T12:34:31.421Z</time></trkpt><trkpt lat="44.0893783" lon="11.2630683"><ele>865.0</ele><time>2026-04-11T12:34:32.422Z</time></trkpt><trkpt lat="44.08938" lon="11.2629483"><ele>865.0</ele><time>2026-04-11T12:34:33.422Z</time></trkpt><trkpt lat="44.08939" lon="11.2628033"><ele>865.0</ele><time>2026-04-11T12:34:34.421Z</time></trkpt><trkpt lat="44.0894033" lon="11.26263"><ele>865.0</ele><time>2026-04-11T12:34:35.422Z</time></trkpt><trkpt lat="44.0894183" lon="11.26248"><ele>865.0</ele><time>2026-04-11T12:34:36.422Z</time></trkpt><trkpt lat="44.0894333" lon="11.2623267"><ele>865.8</ele><time>2026-04-11T12:34:37.423Z</time></trkpt><trkpt lat="44.0894433" lon="11.2621767"><ele>866.6</ele><time>2026-04-11T12:34:38.422Z</time></trkpt><trkpt lat="44.08945" lon="11.262015"><ele>867.4000000000001</ele><time>2026-04-11T12:34:39.422Z</time></trkpt><trkpt lat="44.0894517" lon="11.2618667"><ele>868.2</ele><time>2026-04-11T12:34:40.422Z</time></trkpt><trkpt lat="44.08945" lon="11.2617117"><ele>869.0</ele><time>2026-04-11T12:34:41.424Z</time></trkpt><trkpt lat="44.0894533" lon="11.2615617"><ele>869.6</ele><time>2026-04-11T12:34:42.423Z</time></trkpt><trkpt lat="44.08946" lon="11.261395"><ele>870.2</ele><time>2026-04-11T12:34:43.421Z</time></trkpt><trkpt lat="44.0894783" lon="11.2612633"><ele>870.8000000000001</ele><time>2026-04-11T12:34:44.422Z</time></trkpt><trkpt lat="44.0895167" lon="11.2611483"><ele>871.4000000000001</ele><time>2026-04-11T12:34:45.423Z</time></trkpt><trkpt lat="44.0895667" lon="11.2610683"><ele>872.0</ele><time>2026-04-11T12:34:46.421Z</time></trkpt><trkpt lat="44.0896183" lon="11.2609883"><ele>872.0000000000001</ele><time>2026-04-11T12:34:47.422Z</time></trkpt><trkpt lat="44.0896733" lon="11.2608933"><ele>872.0</ele><time>2026-04-11T12:34:48.422Z</time></trkpt><trkpt lat="44.08973" lon="11.26081"><ele>872.0</ele><time>2026-04-11T12:34:49.421Z</time></trkpt><trkpt lat="44.08978" lon="11.2607217"><ele>872.0</ele><time>2026-04-11T12:34:50.421Z</time></trkpt><trkpt lat="44.0898267" lon="11.2606333"><ele>872.0000000000001</ele><time>2026-04-11T12:34:51.422Z</time></trkpt><trkpt lat="44.0898583" lon="11.2605383"><ele>872.0</ele><time>2026-04-11T12:34:52.421Z</time></trkpt><trkpt lat="44.089875" lon="11.26045"><ele>870.4000000000001</ele><time>2026-04-11T12:34:53.423Z</time></trkpt><trkpt lat="44.089855" lon="11.260275"><ele>868.8000000000001</ele><time>2026-04-11T12:34:55.424Z</time></trkpt><trkpt lat="44.0898317" lon="11.2601883"><ele>867.2</ele><time>2026-04-11T12:34:56.421Z</time></trkpt><trkpt lat="44.0897867" lon="11.2601083"><ele>865.6</ele><time>2026-04-11T12:34:57.424Z</time></trkpt><trkpt lat="44.0897367" lon="11.260015"><ele>864.0</ele><time>2026-04-11T12:34:58.423Z</time></trkpt><trkpt lat="44.0896533" lon="11.2599083"><ele>861.0</ele><time>2026-04-11T12:34:59.421Z</time></trkpt><trkpt lat="44.0895383" lon="11.2597783"><ele>858.0</ele><time>2026-04-11T12:35:00.422Z</time></trkpt><trkpt lat="44.0894433" lon="11.2596667"><ele>855.0</ele><time>2026-04-11T12:35:01.421Z</time></trkpt><trkpt lat="44.0893483" lon="11.259555"><ele>852.0</ele><time>2026-04-11T12:35:02.425Z</time></trkpt><trkpt lat="44.0892767" lon="11.25947"><ele>852.0</ele><time>2026-04-11T12:35:03.423Z</time></trkpt><trkpt lat="44.0892217" lon="11.2593883"><ele>852.0</ele><time>2026-04-11T12:35:04.422Z</time></trkpt><trkpt lat="44.0891867" lon="11.2593017"><ele>852.0</ele><time>2026-04-11T12:35:05.422Z</time></trkpt><trkpt lat="44.0891667" lon="11.259215"><ele>852.0</ele><time>2026-04-11T12:35:06.42Z</time></trkpt><trkpt lat="44.0891417" lon="11.259125"><ele>852.0</ele><time>2026-04-11T12:35:07.423Z</time></trkpt><trkpt lat="44.0891183" lon="11.2590117"><ele>852.0</ele><time>2026-04-11T12:35:08.422Z</time></trkpt><trkpt lat="44.0890967" lon="11.2588683"><ele>849.75</ele><time>2026-04-11T12:35:09.424Z</time></trkpt><trkpt lat="44.08909" lon="11.2587217"><ele>847.5</ele><time>2026-04-11T12:35:10.423Z</time></trkpt><trkpt lat="44.089075" lon="11.2585283"><ele>845.25</ele><time>2026-04-11T12:35:11.422Z</time></trkpt><trkpt lat="44.089065" lon="11.2583817"><ele>843.0</ele><time>2026-04-11T12:35:12.424Z</time></trkpt><trkpt lat="44.0890467" lon="11.2582333"><ele>839.8</ele><time>2026-04-11T12:35:13.42Z</time></trkpt><trkpt lat="44.0890167" lon="11.2580867"><ele>836.5999999999999</ele><time>2026-04-11T12:35:14.424Z</time></trkpt><trkpt lat="44.0889883" lon="11.257955"><ele>833.4000000000001</ele><time>2026-04-11T12:35:15.42Z</time></trkpt><trkpt lat="44.0889633" lon="11.2578067"><ele>830.2</ele><time>2026-04-11T12:35:16.422Z</time></trkpt><trkpt lat="44.08895" lon="11.2576517"><ele>827.0</ele><time>2026-04-11T12:35:17.419Z</time></trkpt><trkpt lat="44.0889483" lon="11.257505"><ele>827.0</ele><time>2026-04-11T12:35:18.423Z</time></trkpt><trkpt lat="44.0889667" lon="11.257355"><ele>827.0</ele><time>2026-04-11T12:35:19.422Z</time></trkpt><trkpt lat="44.088995" lon="11.257205"><ele>827.0</ele><time>2026-04-11T12:35:20.423Z</time></trkpt><trkpt lat="44.0890267" lon="11.2570433"><ele>827.0</ele><time>2026-04-11T12:35:21.423Z</time></trkpt><trkpt lat="44.0890467" lon="11.2568817"><ele>826.25</ele><time>2026-04-11T12:35:22.422Z</time></trkpt><trkpt lat="44.0890567" lon="11.2567233"><ele>825.5</ele><time>2026-04-11T12:35:23.421Z</time></trkpt><trkpt lat="44.0890667" lon="11.2565567"><ele>824.75</ele><time>2026-04-11T12:35:24.423Z</time></trkpt><trkpt lat="44.0890733" lon="11.256395"><ele>824.0</ele><time>2026-04-11T12:35:25.42Z</time></trkpt><trkpt lat="44.0890933" lon="11.2562483"><ele>824.0</ele><time>2026-04-11T12:35:26.422Z</time></trkpt><trkpt lat="44.0891233" lon="11.2561033"><ele>824.0</ele><time>2026-04-11T12:35:27.42Z</time></trkpt><trkpt lat="44.0891583" lon="11.2559583"><ele>824.0</ele><time>2026-04-11T12:35:28.419Z</time></trkpt><trkpt lat="44.0891883" lon="11.2558233"><ele>824.0</ele><time>2026-04-11T12:35:29.419Z</time></trkpt><trkpt lat="44.0892283" lon="11.2556967"><ele>824.0</ele><time>2026-04-11T12:35:30.42Z</time></trkpt><trkpt lat="44.0892767" lon="11.2555817"><ele>822.8000000000001</ele><time>2026-04-11T12:35:31.425Z</time></trkpt><trkpt lat="44.0893383" lon="11.255465"><ele>821.6</ele><time>2026-04-11T12:35:32.424Z</time></trkpt><trkpt lat="44.0894033" lon="11.2553583"><ele>820.4</ele><time>2026-04-11T12:35:33.422Z</time></trkpt><trkpt lat="44.0894667" lon="11.2552383"><ele>819.2</ele><time>2026-04-11T12:35:34.421Z</time></trkpt><trkpt lat="44.089515" lon="11.2551283"><ele>818.0</ele><time>2026-04-11T12:35:35.421Z</time></trkpt><trkpt lat="44.0895583" lon="11.2550317"><ele>818.0</ele><time>2026-04-11T12:35:36.421Z</time></trkpt><trkpt lat="44.0896033" lon="11.2549133"><ele>818.0</ele><time>2026-04-11T12:35:37.42Z</time></trkpt><trkpt lat="44.0896417" lon="11.2548183"><ele>818.0</ele><time>2026-04-11T12:35:38.423Z</time></trkpt><trkpt lat="44.0896733" lon="11.254705"><ele>818.0</ele><time>2026-04-11T12:35:39.42Z</time></trkpt><trkpt lat="44.0897117" lon="11.2545833"><ele>818.0</ele><time>2026-04-11T12:35:40.419Z</time></trkpt><trkpt lat="44.0897567" lon="11.254455"><ele>816.2</ele><time>2026-04-11T12:35:41.43Z</time></trkpt><trkpt lat="44.0898017" lon="11.2543317"><ele>814.4</ele><time>2026-04-11T12:35:42.42Z</time></trkpt><trkpt lat="44.0898317" lon="11.2542067"><ele>812.6</ele><time>2026-04-11T12:35:43.419Z</time></trkpt><trkpt lat="44.08985" lon="11.2540833"><ele>810.8000000000001</ele><time>2026-04-11T12:35:44.42Z</time></trkpt><trkpt lat="44.0898633" lon="11.253955"><ele>809.0</ele><time>2026-04-11T12:35:45.419Z</time></trkpt><trkpt lat="44.089875" lon="11.253825"><ele>808.0000000000001</ele><time>2026-04-11T12:35:46.421Z</time></trkpt><trkpt lat="44.08988" lon="11.2537067"><ele>807.0</ele><time>2026-04-11T12:35:47.422Z</time></trkpt><trkpt lat="44.0898783" lon="11.2535733"><ele>806.0</ele><time>2026-04-11T12:35:48.419Z</time></trkpt><trkpt lat="44.089865" lon="11.2534667"><ele>805.0</ele><time>2026-04-11T12:35:49.42Z</time></trkpt><trkpt lat="44.0898533" lon="11.253335"><ele>804.0000000000001</ele><time>2026-04-11T12:35:50.423Z</time></trkpt><trkpt lat="44.08983" lon="11.2532083"><ele>803.0</ele><time>2026-04-11T12:35:51.426Z</time></trkpt><trkpt lat="44.089795" lon="11.2530867"><ele>802.7142857142857</ele><time>2026-04-11T12:35:52.419Z</time></trkpt><trkpt lat="44.0897533" lon="11.2530017"><ele>802.4285714285714</ele><time>2026-04-11T12:35:53.421Z</time></trkpt><trkpt lat="44.0897167" lon="11.2529033"><ele>802.1428571428571</ele><time>2026-04-11T12:35:54.419Z</time></trkpt><trkpt lat="44.0896817" lon="11.252805"><ele>801.8571428571429</ele><time>2026-04-11T12:35:55.419Z</time></trkpt><trkpt lat="44.0896583" lon="11.2527083"><ele>801.5714285714286</ele><time>2026-04-11T12:35:56.419Z</time></trkpt><trkpt lat="44.0896467" lon="11.2526117"><ele>801.2857142857142</ele><time>2026-04-11T12:35:57.418Z</time></trkpt><trkpt lat="44.0896417" lon="11.2525217"><ele>801.0</ele><time>2026-04-11T12:35:58.419Z</time></trkpt><trkpt lat="44.0896433" lon="11.25243"><ele>801.0</ele><time>2026-04-11T12:35:59.42Z</time></trkpt><trkpt lat="44.0896567" lon="11.2523217"><ele>801.0</ele><time>2026-04-11T12:36:00.419Z</time></trkpt><trkpt lat="44.0896883" lon="11.2521917"><ele>801.0</ele><time>2026-04-11T12:36:01.42Z</time></trkpt><trkpt lat="44.08972" lon="11.25207"><ele>801.0</ele><time>2026-04-11T12:36:02.422Z</time></trkpt><trkpt lat="44.0897533" lon="11.2519567"><ele>801.0</ele><time>2026-04-11T12:36:03.423Z</time></trkpt><trkpt lat="44.0897717" lon="11.2518533"><ele>801.0</ele><time>2026-04-11T12:36:04.42Z</time></trkpt><trkpt lat="44.0898283" lon="11.2517117"><ele>801.0</ele><time>2026-04-11T12:36:06.419Z</time></trkpt><trkpt lat="44.0898517" lon="11.2516283"><ele>801.0</ele><time>2026-04-11T12:36:08.424Z</time></trkpt><trkpt lat="44.08988" lon="11.25155"><ele>801.0</ele><time>2026-04-11T12:36:09.421Z</time></trkpt><trkpt lat="44.089875" lon="11.2513867"><ele>801.0</ele><time>2026-04-11T12:36:11.423Z</time></trkpt><trkpt lat="44.08984" lon="11.2512883"><ele>801.0</ele><time>2026-04-11T12:36:12.421Z</time></trkpt><trkpt lat="44.0897933" lon="11.2511917"><ele>801.0</ele><time>2026-04-11T12:36:13.421Z</time></trkpt><trkpt lat="44.089735" lon="11.2510883"><ele>801.0</ele><time>2026-04-11T12:36:14.419Z</time></trkpt><trkpt lat="44.0896483" lon="11.2510083"><ele>801.0</ele><time>2026-04-11T12:36:15.422Z</time></trkpt><trkpt lat="44.08955" lon="11.2509283"><ele>801.0</ele><time>2026-04-11T12:36:16.42Z</time></trkpt><trkpt lat="44.08944" lon="11.2508533"><ele>801.0</ele><time>2026-04-11T12:36:17.422Z</time></trkpt><trkpt lat="44.0893117" lon="11.250775"><ele>801.0</ele><time>2026-04-11T12:36:18.42Z</time></trkpt><trkpt lat="44.0891667" lon="11.250665"><ele>801.0</ele><time>2026-04-11T12:36:19.421Z</time></trkpt><trkpt lat="44.0890183" lon="11.2505517"><ele>801.0</ele><time>2026-04-11T12:36:20.421Z</time></trkpt><trkpt lat="44.0888767" lon="11.2504333"><ele>800.25</ele><time>2026-04-11T12:36:21.421Z</time></trkpt><trkpt lat="44.0887383" lon="11.2503433"><ele>799.5</ele><time>2026-04-11T12:36:22.42Z</time></trkpt><trkpt lat="44.0886083" lon="11.2502583"><ele>798.75</ele><time>2026-04-11T12:36:23.421Z</time></trkpt><trkpt lat="44.0884833" lon="11.2501817"><ele>798.0</ele><time>2026-04-11T12:36:24.42Z</time></trkpt><trkpt lat="44.08837" lon="11.2501033"><ele>794.5</ele><time>2026-04-11T12:36:25.419Z</time></trkpt><trkpt lat="44.0882567" lon="11.2500217"><ele>791.0</ele><time>2026-04-11T12:36:26.421Z</time></trkpt><trkpt lat="44.0881467" lon="11.2499433"><ele>787.5</ele><time>2026-04-11T12:36:27.42Z</time></trkpt><trkpt lat="44.08804" lon="11.2498733"><ele>784.0</ele><time>2026-04-11T12:36:28.421Z</time></trkpt><trkpt lat="44.0879383" lon="11.2498067"><ele>787.0</ele><time>2026-04-11T12:36:29.422Z</time></trkpt><trkpt lat="44.08784" lon="11.2497617"><ele>790.0</ele><time>2026-04-11T12:36:30.421Z</time></trkpt><trkpt lat="44.0877533" lon="11.2497267"><ele>793.0</ele><time>2026-04-11T12:36:31.423Z</time></trkpt><trkpt lat="44.0876667" lon="11.249685"><ele>796.0</ele><time>2026-04-11T12:36:32.422Z</time></trkpt><trkpt lat="44.0875833" lon="11.2496383"><ele>799.0</ele><time>2026-04-11T12:36:33.42Z</time></trkpt><trkpt lat="44.0875083" lon="11.2495983"><ele>798.9999999999999</ele><time>2026-04-11T12:36:34.419Z</time></trkpt><trkpt lat="44.087435" lon="11.249565"><ele>799.0</ele><time>2026-04-11T12:36:35.422Z</time></trkpt><trkpt lat="44.087365" lon="11.2495317"><ele>799.0</ele><time>2026-04-11T12:36:36.419Z</time></trkpt><trkpt lat="44.0872767" lon="11.249495"><ele>799.0</ele><time>2026-04-11T12:36:37.421Z</time></trkpt><trkpt lat="44.08718" lon="11.2494633"><ele>798.9999999999999</ele><time>2026-04-11T12:36:38.42Z</time></trkpt><trkpt lat="44.087085" lon="11.2494333"><ele>799.0</ele><time>2026-04-11T12:36:39.42Z</time></trkpt><trkpt lat="44.08699" lon="11.2493933"><ele>796.0</ele><time>2026-04-11T12:36:40.421Z</time></trkpt><trkpt lat="44.0868933" lon="11.2493683"><ele>793.0</ele><time>2026-04-11T12:36:41.42Z</time></trkpt><trkpt lat="44.086805" lon="11.249365"><ele>790.0</ele><time>2026-04-11T12:36:42.421Z</time></trkpt><trkpt lat="44.0867233" lon="11.2493517"><ele>787.0</ele><time>2026-04-11T12:36:43.421Z</time></trkpt><trkpt lat="44.08664" lon="11.2493217"><ele>784.0</ele><time>2026-04-11T12:36:44.422Z</time></trkpt><trkpt lat="44.0865417" lon="11.2492167"><ele>780.8571428571429</ele><time>2026-04-11T12:36:46.42Z</time></trkpt><trkpt lat="44.086495" lon="11.2491467"><ele>777.7142857142858</ele><time>2026-04-11T12:36:47.42Z</time></trkpt><trkpt lat="44.086445" lon="11.2490817"><ele>774.5714285714286</ele><time>2026-04-11T12:36:48.42Z</time></trkpt><trkpt lat="44.0863933" lon="11.2490217"><ele>771.4285714285714</ele><time>2026-04-11T12:36:49.42Z</time></trkpt><trkpt lat="44.08635" lon="11.2489467"><ele>768.2857142857143</ele><time>2026-04-11T12:36:50.421Z</time></trkpt><trkpt lat="44.0863233" lon="11.2488667"><ele>765.1428571428571</ele><time>2026-04-11T12:36:51.421Z</time></trkpt><trkpt lat="44.0863117" lon="11.248755"><ele>762.0</ele><time>2026-04-11T12:36:52.42Z</time></trkpt><trkpt lat="44.0863167" lon="11.2486333"><ele>762.0</ele><time>2026-04-11T12:36:53.42Z</time></trkpt><trkpt lat="44.0863267" lon="11.2485283"><ele>762.0</ele><time>2026-04-11T12:36:54.423Z</time></trkpt><trkpt lat="44.0863383" lon="11.2484233"><ele>762.0</ele><time>2026-04-11T12:36:55.421Z</time></trkpt><trkpt lat="44.0863417" lon="11.248315"><ele>762.0</ele><time>2026-04-11T12:36:56.422Z</time></trkpt><trkpt lat="44.0863483" lon="11.248185"><ele>762.0</ele><time>2026-04-11T12:36:57.42Z</time></trkpt><trkpt lat="44.086335" lon="11.2480483"><ele>762.0</ele><time>2026-04-11T12:36:58.42Z</time></trkpt><trkpt lat="44.0863317" lon="11.2479217"><ele>762.2</ele><time>2026-04-11T12:36:59.42Z</time></trkpt><trkpt lat="44.0863467" lon="11.2477867"><ele>762.4000000000001</ele><time>2026-04-11T12:37:00.421Z</time></trkpt><trkpt lat="44.086355" lon="11.2476467"><ele>762.5999999999999</ele><time>2026-04-11T12:37:01.422Z</time></trkpt><trkpt lat="44.0863617" lon="11.2475167"><ele>762.8</ele><time>2026-04-11T12:37:02.422Z</time></trkpt><trkpt lat="44.0863783" lon="11.2474033"><ele>763.0</ele><time>2026-04-11T12:37:03.419Z</time></trkpt><trkpt lat="44.08637" lon="11.247265"><ele>763.5999999999999</ele><time>2026-04-11T12:37:04.42Z</time></trkpt><trkpt lat="44.08636" lon="11.2471417"><ele>764.1999999999999</ele><time>2026-04-11T12:37:05.422Z</time></trkpt><trkpt lat="44.0863483" lon="11.24702"><ele>764.8</ele><time>2026-04-11T12:37:06.421Z</time></trkpt><trkpt lat="44.08632" lon="11.246895"><ele>765.4</ele><time>2026-04-11T12:37:07.421Z</time></trkpt><trkpt lat="44.08627" lon="11.246775"><ele>766.0</ele><time>2026-04-11T12:37:08.421Z</time></trkpt><trkpt lat="44.086225" lon="11.2466683"><ele>766.0</ele><time>2026-04-11T12:37:09.42Z</time></trkpt><trkpt lat="44.08615" lon="11.2465783"><ele>766.0</ele><time>2026-04-11T12:37:11.422Z</time></trkpt><trkpt lat="44.0860767" lon="11.2465783"><ele>766.0</ele><time>2026-04-11T12:37:12.421Z</time></trkpt><trkpt lat="44.0860117" lon="11.2465717"><ele>766.0</ele><time>2026-04-11T12:37:14.42Z</time></trkpt><trkpt lat="44.085935" lon="11.246565"><ele>766.0</ele><time>2026-04-11T12:37:59.419Z</time></trkpt><trkpt lat="44.08584" lon="11.2465233"><ele>766.0</ele><time>2026-04-11T12:38:01.419Z</time></trkpt><trkpt lat="44.0857633" lon="11.246465"><ele>765.0</ele><time>2026-04-11T12:38:02.418Z</time></trkpt><trkpt lat="44.0856983" lon="11.246385"><ele>764.0</ele><time>2026-04-11T12:38:03.424Z</time></trkpt><trkpt lat="44.085645" lon="11.2463"><ele>763.0</ele><time>2026-04-11T12:38:04.419Z</time></trkpt><trkpt lat="44.085605" lon="11.24622"><ele>762.0</ele><time>2026-04-11T12:38:05.419Z</time></trkpt><trkpt lat="44.0855783" lon="11.246135"><ele>761.0</ele><time>2026-04-11T12:38:06.419Z</time></trkpt><trkpt lat="44.0855517" lon="11.2460367"><ele>760.0</ele><time>2026-04-11T12:38:07.419Z</time></trkpt><trkpt lat="44.0855417" lon="11.245935"><ele>760.0</ele><time>2026-04-11T12:38:08.42Z</time></trkpt><trkpt lat="44.0855417" lon="11.2458317"><ele>760.0</ele><time>2026-04-11T12:38:09.418Z</time></trkpt><trkpt lat="44.0855583" lon="11.2457333"><ele>760.0</ele><time>2026-04-11T12:38:10.42Z</time></trkpt><trkpt lat="44.0855867" lon="11.245635"><ele>760.0</ele><time>2026-04-11T12:38:11.421Z</time></trkpt><trkpt lat="44.0856367" lon="11.2455367"><ele>760.0</ele><time>2026-04-11T12:38:12.424Z</time></trkpt><trkpt lat="44.0857" lon="11.24543"><ele>760.0</ele><time>2026-04-11T12:38:13.42Z</time></trkpt><trkpt lat="44.0857683" lon="11.24533"><ele>760.8</ele><time>2026-04-11T12:38:14.422Z</time></trkpt><trkpt lat="44.0858367" lon="11.245235"><ele>761.6</ele><time>2026-04-11T12:38:15.421Z</time></trkpt><trkpt lat="44.085895" lon="11.2451333"><ele>762.4000000000001</ele><time>2026-04-11T12:38:16.421Z</time></trkpt><trkpt lat="44.0859367" lon="11.2450167"><ele>763.2</ele><time>2026-04-11T12:38:17.421Z</time></trkpt><trkpt lat="44.0859667" lon="11.24489"><ele>764.0</ele><time>2026-04-11T12:38:18.42Z</time></trkpt><trkpt lat="44.08598" lon="11.2447533"><ele>764.25</ele><time>2026-04-11T12:38:19.42Z</time></trkpt><trkpt lat="44.08597" lon="11.2446033"><ele>764.5</ele><time>2026-04-11T12:38:20.42Z</time></trkpt><trkpt lat="44.085945" lon="11.2444333"><ele>764.75</ele><time>2026-04-11T12:38:21.42Z</time></trkpt><trkpt lat="44.0859117" lon="11.244255"><ele>765.0</ele><time>2026-04-11T12:38:22.419Z</time></trkpt><trkpt lat="44.0858733" lon="11.2440767"><ele>767.25</ele><time>2026-04-11T12:38:23.42Z</time></trkpt><trkpt lat="44.0858367" lon="11.243905"><ele>769.5</ele><time>2026-04-11T12:38:24.422Z</time></trkpt><trkpt lat="44.085805" lon="11.243745"><ele>771.75</ele><time>2026-04-11T12:38:25.422Z</time></trkpt><trkpt lat="44.0857717" lon="11.2435917"><ele>774.0</ele><time>2026-04-11T12:38:26.422Z</time></trkpt><trkpt lat="44.0857283" lon="11.2434683"><ele>769.8000000000001</ele><time>2026-04-11T12:38:27.422Z</time></trkpt><trkpt lat="44.0856683" lon="11.2433633"><ele>765.6</ele><time>2026-04-11T12:38:28.423Z</time></trkpt><trkpt lat="44.0855983" lon="11.2432817"><ele>761.4</ele><time>2026-04-11T12:38:29.422Z</time></trkpt><trkpt lat="44.085515" lon="11.2432217"><ele>757.2</ele><time>2026-04-11T12:38:30.421Z</time></trkpt><trkpt lat="44.0853983" lon="11.2432017"><ele>753.0</ele><time>2026-04-11T12:38:31.421Z</time></trkpt><trkpt lat="44.08527" lon="11.243185"><ele>753.0</ele><time>2026-04-11T12:38:32.422Z</time></trkpt><trkpt lat="44.0851417" lon="11.2431617"><ele>753.0</ele><time>2026-04-11T12:38:33.42Z</time></trkpt><trkpt lat="44.0850133" lon="11.243145"><ele>753.0</ele><time>2026-04-11T12:38:34.422Z</time></trkpt><trkpt lat="44.0849" lon="11.2431167"><ele>753.0</ele><time>2026-04-11T12:38:35.423Z</time></trkpt><trkpt lat="44.0848033" lon="11.243075"><ele>750.4</ele><time>2026-04-11T12:38:36.421Z</time></trkpt><trkpt lat="44.084725" lon="11.2430033"><ele>747.8</ele><time>2026-04-11T12:38:37.422Z</time></trkpt><trkpt lat="44.0846583" lon="11.242915"><ele>745.2</ele><time>2026-04-11T12:38:38.422Z</time></trkpt><trkpt lat="44.0846217" lon="11.242805"><ele>742.6</ele><time>2026-04-11T12:38:39.421Z</time></trkpt><trkpt lat="44.08461" lon="11.242665"><ele>740.0</ele><time>2026-04-11T12:38:40.421Z</time></trkpt><trkpt lat="44.08461" lon="11.2425117"><ele>740.0</ele><time>2026-04-11T12:38:41.422Z</time></trkpt><trkpt lat="44.0846017" lon="11.2423617"><ele>740.0</ele><time>2026-04-11T12:38:42.421Z</time></trkpt><trkpt lat="44.0845767" lon="11.2422283"><ele>740.0</ele><time>2026-04-11T12:38:43.422Z</time></trkpt><trkpt lat="44.08453" lon="11.2421233"><ele>740.0</ele><time>2026-04-11T12:38:44.421Z</time></trkpt><trkpt lat="44.0844767" lon="11.242025"><ele>740.0</ele><time>2026-04-11T12:38:45.421Z</time></trkpt><trkpt lat="44.0843867" lon="11.24195"><ele>740.25</ele><time>2026-04-11T12:38:46.42Z</time></trkpt><trkpt lat="44.084285" lon="11.241905"><ele>740.5</ele><time>2026-04-11T12:38:47.422Z</time></trkpt><trkpt lat="44.0841683" lon="11.2418833"><ele>740.75</ele><time>2026-04-11T12:38:48.422Z</time></trkpt><trkpt lat="44.0840433" lon="11.2418667"><ele>741.0</ele><time>2026-04-11T12:38:49.421Z</time></trkpt><trkpt lat="44.0839167" lon="11.2418333"><ele>741.0</ele><time>2026-04-11T12:38:50.423Z</time></trkpt><trkpt lat="44.0837817" lon="11.241765"><ele>741.0</ele><time>2026-04-11T12:38:51.42Z</time></trkpt><trkpt lat="44.0836367" lon="11.2416683"><ele>741.0</ele><time>2026-04-11T12:38:52.422Z</time></trkpt><trkpt lat="44.0834717" lon="11.2415583"><ele>738.0</ele><time>2026-04-11T12:38:53.421Z</time></trkpt><trkpt lat="44.08331" lon="11.2414567"><ele>735.0</ele><time>2026-04-11T12:38:54.42Z</time></trkpt><trkpt lat="44.0831433" lon="11.2413533"><ele>732.0</ele><time>2026-04-11T12:38:55.422Z</time></trkpt><trkpt lat="44.0829883" lon="11.2412483"><ele>732.0</ele><time>2026-04-11T12:38:56.421Z</time></trkpt><trkpt lat="44.082855" lon="11.2411433"><ele>732.0</ele><time>2026-04-11T12:38:57.419Z</time></trkpt><trkpt lat="44.0827283" lon="11.2410333"><ele>732.0</ele><time>2026-04-11T12:38:58.421Z</time></trkpt><trkpt lat="44.08263" lon="11.240915"><ele>732.0</ele><time>2026-04-11T12:38:59.422Z</time></trkpt><trkpt lat="44.0825617" lon="11.240795"><ele>732.0</ele><time>2026-04-11T12:39:00.421Z</time></trkpt><trkpt lat="44.082535" lon="11.2406733"><ele>732.0</ele><time>2026-04-11T12:39:01.421Z</time></trkpt><trkpt lat="44.0825217" lon="11.2405367"><ele>732.0</ele><time>2026-04-11T12:39:02.421Z</time></trkpt><trkpt lat="44.0825333" lon="11.240375"><ele>732.0</ele><time>2026-04-11T12:39:03.42Z</time></trkpt><trkpt lat="44.0825867" lon="11.2402017"><ele>732.0</ele><time>2026-04-11T12:39:04.421Z</time></trkpt><trkpt lat="44.0826467" lon="11.2400383"><ele>731.0</ele><time>2026-04-11T12:39:05.422Z</time></trkpt><trkpt lat="44.082695" lon="11.2398783"><ele>730.0</ele><time>2026-04-11T12:39:06.421Z</time></trkpt><trkpt lat="44.0827217" lon="11.2397"><ele>729.0</ele><time>2026-04-11T12:39:07.422Z</time></trkpt><trkpt lat="44.0827417" lon="11.2395317"><ele>728.0</ele><time>2026-04-11T12:39:08.422Z</time></trkpt><trkpt lat="44.082765" lon="11.239385"><ele>726.2</ele><time>2026-04-11T12:39:09.421Z</time></trkpt><trkpt lat="44.0828" lon="11.23926"><ele>724.4</ele><time>2026-04-11T12:39:10.422Z</time></trkpt><trkpt lat="44.08285" lon="11.2391483"><ele>722.6</ele><time>2026-04-11T12:39:11.422Z</time></trkpt><trkpt lat="44.0829133" lon="11.23907"><ele>720.8000000000001</ele><time>2026-04-11T12:39:12.423Z</time></trkpt><trkpt lat="44.0830233" lon="11.239015"><ele>719.0</ele><time>2026-04-11T12:39:13.422Z</time></trkpt><trkpt lat="44.0831483" lon="11.2389683"><ele>719.5</ele><time>2026-04-11T12:39:14.519Z</time></trkpt><trkpt lat="44.0832683" lon="11.2389233"><ele>720.0</ele><time>2026-04-11T12:39:15.423Z</time></trkpt><trkpt lat="44.08338" lon="11.2388717"><ele>720.5</ele><time>2026-04-11T12:39:16.421Z</time></trkpt><trkpt lat="44.0834967" lon="11.2388117"><ele>721.0</ele><time>2026-04-11T12:39:17.421Z</time></trkpt><trkpt lat="44.08361" lon="11.238745"><ele>721.0</ele><time>2026-04-11T12:39:18.422Z</time></trkpt><trkpt lat="44.0837167" lon="11.238675"><ele>721.0</ele><time>2026-04-11T12:39:19.42Z</time></trkpt><trkpt lat="44.0838233" lon="11.2386"><ele>721.0</ele><time>2026-04-11T12:39:20.421Z</time></trkpt><trkpt lat="44.0839267" lon="11.2385217"><ele>721.0</ele><time>2026-04-11T12:39:21.421Z</time></trkpt><trkpt lat="44.084035" lon="11.2384433"><ele>725.5</ele><time>2026-04-11T12:39:22.421Z</time></trkpt><trkpt lat="44.0841433" lon="11.2383583"><ele>730.0</ele><time>2026-04-11T12:39:23.421Z</time></trkpt><trkpt lat="44.08425" lon="11.2382783"><ele>734.5</ele><time>2026-04-11T12:39:24.421Z</time></trkpt><trkpt lat="44.08435" lon="11.2382133"><ele>739.0</ele><time>2026-04-11T12:39:25.421Z</time></trkpt><trkpt lat="44.08445" lon="11.2381567"><ele>739.8000000000001</ele><time>2026-04-11T12:39:26.42Z</time></trkpt><trkpt lat="44.0845583" lon="11.2381183"><ele>740.6</ele><time>2026-04-11T12:39:27.421Z</time></trkpt><trkpt lat="44.0846617" lon="11.2380833"><ele>741.4</ele><time>2026-04-11T12:39:28.424Z</time></trkpt><trkpt lat="44.084765" lon="11.23805"><ele>742.2</ele><time>2026-04-11T12:39:29.42Z</time></trkpt><trkpt lat="44.0848683" lon="11.238"><ele>743.0</ele><time>2026-04-11T12:39:30.423Z</time></trkpt><trkpt lat="44.084965" lon="11.237915"><ele>743.0</ele><time>2026-04-11T12:39:31.423Z</time></trkpt><trkpt lat="44.0850717" lon="11.23776"><ele>743.0</ele><time>2026-04-11T12:39:32.422Z</time></trkpt><trkpt lat="44.0851617" lon="11.2376183"><ele>743.0</ele><time>2026-04-11T12:39:33.423Z</time></trkpt><trkpt lat="44.0852533" lon="11.2374733"><ele>743.0</ele><time>2026-04-11T12:39:34.424Z</time></trkpt><trkpt lat="44.0853417" lon="11.2373333"><ele>743.0</ele><time>2026-04-11T12:39:35.422Z</time></trkpt><trkpt lat="44.085405" lon="11.2372217"><ele>743.0</ele><time>2026-04-11T12:39:36.423Z</time></trkpt><trkpt lat="44.08547" lon="11.2370833"><ele>743.0</ele><time>2026-04-11T12:39:37.423Z</time></trkpt><trkpt lat="44.0855117" lon="11.2369417"><ele>743.0</ele><time>2026-04-11T12:39:38.422Z</time></trkpt><trkpt lat="44.0855233" lon="11.2367783"><ele>743.0</ele><time>2026-04-11T12:39:39.424Z</time></trkpt><trkpt lat="44.08552" lon="11.2366017"><ele>744.25</ele><time>2026-04-11T12:39:40.424Z</time></trkpt><trkpt lat="44.0854867" lon="11.236415"><ele>745.5</ele><time>2026-04-11T12:39:41.424Z</time></trkpt><trkpt lat="44.085445" lon="11.236225"><ele>746.75</ele><time>2026-04-11T12:39:42.423Z</time></trkpt><trkpt lat="44.0853933" lon="11.2360267"><ele>748.0</ele><time>2026-04-11T12:39:43.423Z</time></trkpt><trkpt lat="44.08534" lon="11.2358317"><ele>748.0</ele><time>2026-04-11T12:39:44.421Z</time></trkpt><trkpt lat="44.0852883" lon="11.23564"><ele>748.0</ele><time>2026-04-11T12:39:45.424Z</time></trkpt><trkpt lat="44.0852467" lon="11.2354483"><ele>748.0</ele><time>2026-04-11T12:39:46.422Z</time></trkpt><trkpt lat="44.0852017" lon="11.2352533"><ele>748.0</ele><time>2026-04-11T12:39:47.422Z</time></trkpt><trkpt lat="44.0851633" lon="11.2350683"><ele>751.5</ele><time>2026-04-11T12:39:48.423Z</time></trkpt><trkpt lat="44.0851267" lon="11.2348933"><ele>755.0</ele><time>2026-04-11T12:39:49.42Z</time></trkpt><trkpt lat="44.0850933" lon="11.2347367"><ele>758.5</ele><time>2026-04-11T12:39:50.423Z</time></trkpt><trkpt lat="44.0850767" lon="11.2345817"><ele>762.0</ele><time>2026-04-11T12:39:51.423Z</time></trkpt><trkpt lat="44.0850733" lon="11.23443"><ele>762.0</ele><time>2026-04-11T12:39:52.422Z</time></trkpt><trkpt lat="44.08509" lon="11.2342767"><ele>762.0</ele><time>2026-04-11T12:39:53.422Z</time></trkpt><trkpt lat="44.085125" lon="11.2341167"><ele>762.0</ele><time>2026-04-11T12:39:54.424Z</time></trkpt><trkpt lat="44.0851733" lon="11.23396"><ele>762.0</ele><time>2026-04-11T12:39:55.424Z</time></trkpt><trkpt lat="44.0852333" lon="11.2338"><ele>762.0</ele><time>2026-04-11T12:39:56.421Z</time></trkpt><trkpt lat="44.085295" lon="11.23364"><ele>762.0</ele><time>2026-04-11T12:39:57.424Z</time></trkpt><trkpt lat="44.0853583" lon="11.233475"><ele>762.0</ele><time>2026-04-11T12:39:58.424Z</time></trkpt><trkpt lat="44.0854217" lon="11.2333083"><ele>762.0</ele><time>2026-04-11T12:39:59.421Z</time></trkpt><trkpt lat="44.085495" lon="11.2331317"><ele>762.0</ele><time>2026-04-11T12:40:00.422Z</time></trkpt><trkpt lat="44.0855683" lon="11.2329533"><ele>762.0</ele><time>2026-04-11T12:40:01.423Z</time></trkpt><trkpt lat="44.0856517" lon="11.2327617"><ele>762.0</ele><time>2026-04-11T12:40:02.422Z</time></trkpt><trkpt lat="44.085735" lon="11.2325683"><ele>767.0</ele><time>2026-04-11T12:40:03.421Z</time></trkpt><trkpt lat="44.08582" lon="11.2323717"><ele>772.0</ele><time>2026-04-11T12:40:04.422Z</time></trkpt><trkpt lat="44.085905" lon="11.2321733"><ele>777.0</ele><time>2026-04-11T12:40:05.422Z</time></trkpt><trkpt lat="44.0859883" lon="11.231975"><ele>777.0</ele><time>2026-04-11T12:40:06.421Z</time></trkpt><trkpt lat="44.0860717" lon="11.2317783"><ele>777.0</ele><time>2026-04-11T12:40:07.422Z</time></trkpt><trkpt lat="44.0861467" lon="11.2315933"><ele>777.0</ele><time>2026-04-11T12:40:08.422Z</time></trkpt><trkpt lat="44.0862183" lon="11.2314133"><ele>775.5</ele><time>2026-04-11T12:40:09.422Z</time></trkpt><trkpt lat="44.086285" lon="11.23124"><ele>774.0</ele><time>2026-04-11T12:40:10.423Z</time></trkpt><trkpt lat="44.0863533" lon="11.2310667"><ele>772.5</ele><time>2026-04-11T12:40:11.422Z</time></trkpt><trkpt lat="44.0864217" lon="11.23089"><ele>771.0</ele><time>2026-04-11T12:40:12.421Z</time></trkpt><trkpt lat="44.0864933" lon="11.2307083"><ele>771.25</ele><time>2026-04-11T12:40:13.422Z</time></trkpt><trkpt lat="44.0865683" lon="11.2305267"><ele>771.5</ele><time>2026-04-11T12:40:14.422Z</time></trkpt><trkpt lat="44.086645" lon="11.230355"><ele>771.75</ele><time>2026-04-11T12:40:15.42Z</time></trkpt><trkpt lat="44.086715" lon="11.2301983"><ele>772.0</ele><time>2026-04-11T12:40:16.422Z</time></trkpt><trkpt lat="44.0867817" lon="11.2300483"><ele>773.8</ele><time>2026-04-11T12:40:17.421Z</time></trkpt><trkpt lat="44.0868433" lon="11.22991"><ele>775.6</ele><time>2026-04-11T12:40:18.419Z</time></trkpt><trkpt lat="44.0869" lon="11.2297817"><ele>777.4</ele><time>2026-04-11T12:40:19.421Z</time></trkpt><trkpt lat="44.0869517" lon="11.2296583"><ele>779.1999999999999</ele><time>2026-04-11T12:40:20.422Z</time></trkpt><trkpt lat="44.0869967" lon="11.22954"><ele>781.0</ele><time>2026-04-11T12:40:21.421Z</time></trkpt><trkpt lat="44.0870333" lon="11.2294367"><ele>781.4</ele><time>2026-04-11T12:40:22.423Z</time></trkpt><trkpt lat="44.0870617" lon="11.2293533"><ele>781.8</ele><time>2026-04-11T12:40:23.424Z</time></trkpt><trkpt lat="44.087085" lon="11.22921"><ele>782.1999999999999</ele><time>2026-04-11T12:40:25.422Z</time></trkpt><trkpt lat="44.08706" lon="11.2290733"><ele>782.5999999999999</ele><time>2026-04-11T12:40:27.422Z</time></trkpt><trkpt lat="44.0869967" lon="11.2289183"><ele>783.0</ele><time>2026-04-11T12:40:29.422Z</time></trkpt><trkpt lat="44.0869433" lon="11.2288367"><ele>783.3333333333334</ele><time>2026-04-11T12:40:30.418Z</time></trkpt><trkpt lat="44.08688" lon="11.22876"><ele>783.6666666666667</ele><time>2026-04-11T12:40:31.422Z</time></trkpt><trkpt lat="44.0868133" lon="11.228685"><ele>784.0</ele><time>2026-04-11T12:40:32.42Z</time></trkpt><trkpt lat="44.0867483" lon="11.2286117"><ele>784.3333333333334</ele><time>2026-04-11T12:40:33.421Z</time></trkpt><trkpt lat="44.0866817" lon="11.2285383"><ele>784.6666666666667</ele><time>2026-04-11T12:40:34.42Z</time></trkpt><trkpt lat="44.08662" lon="11.2284683"><ele>785.0</ele><time>2026-04-11T12:40:35.422Z</time></trkpt><trkpt lat="44.0865633" lon="11.2283967"><ele>785.0000000000001</ele><time>2026-04-11T12:40:36.42Z</time></trkpt><trkpt lat="44.08651" lon="11.2283217"><ele>785.0</ele><time>2026-04-11T12:40:37.42Z</time></trkpt><trkpt lat="44.0864467" lon="11.2282417"><ele>785.0</ele><time>2026-04-11T12:40:38.421Z</time></trkpt><trkpt lat="44.0863817" lon="11.2281617"><ele>785.0</ele><time>2026-04-11T12:40:39.421Z</time></trkpt><trkpt lat="44.0863133" lon="11.228095"><ele>785.0000000000001</ele><time>2026-04-11T12:40:40.42Z</time></trkpt><trkpt lat="44.0862433" lon="11.228045"><ele>785.0</ele><time>2026-04-11T12:40:41.42Z</time></trkpt><trkpt lat="44.0861717" lon="11.2280167"><ele>785.8333333333334</ele><time>2026-04-11T12:40:42.422Z</time></trkpt><trkpt lat="44.0860917" lon="11.2280117"><ele>786.6666666666667</ele><time>2026-04-11T12:40:43.422Z</time></trkpt><trkpt lat="44.0860133" lon="11.2280383"><ele>787.5</ele><time>2026-04-11T12:40:44.422Z</time></trkpt><trkpt lat="44.0859367" lon="11.2280633"><ele>788.3333333333333</ele><time>2026-04-11T12:40:45.421Z</time></trkpt><trkpt lat="44.0858583" lon="11.2280867"><ele>789.1666666666666</ele><time>2026-04-11T12:40:46.421Z</time></trkpt><trkpt lat="44.0857817" lon="11.2280867"><ele>790.0</ele><time>2026-04-11T12:40:47.421Z</time></trkpt><trkpt lat="44.0857033" lon="11.2280633"><ele>789.9999999999999</ele><time>2026-04-11T12:40:48.42Z</time></trkpt><trkpt lat="44.085625" lon="11.2280267"><ele>790.0</ele><time>2026-04-11T12:40:49.422Z</time></trkpt><trkpt lat="44.0855433" lon="11.2279983"><ele>790.0</ele><time>2026-04-11T12:40:50.422Z</time></trkpt><trkpt lat="44.085455" lon="11.227975"><ele>790.0</ele><time>2026-04-11T12:40:51.421Z</time></trkpt><trkpt lat="44.0853683" lon="11.2279383"><ele>789.9999999999999</ele><time>2026-04-11T12:40:52.422Z</time></trkpt><trkpt lat="44.0852833" lon="11.227915"><ele>790.0</ele><time>2026-04-11T12:40:53.422Z</time></trkpt><trkpt lat="44.08522" lon="11.2279233"><ele>789.9999999999999</ele><time>2026-04-11T12:40:54.425Z</time></trkpt><trkpt lat="44.0851533" lon="11.2279183"><ele>790.0</ele><time>2026-04-11T12:40:55.423Z</time></trkpt><trkpt lat="44.08507" lon="11.22796"><ele>790.0</ele><time>2026-04-11T12:40:57.42Z</time></trkpt><trkpt lat="44.0849783" lon="11.228065"><ele>790.0</ele><time>2026-04-11T12:40:59.421Z</time></trkpt><trkpt lat="44.084945" lon="11.2281417"><ele>789.9999999999999</ele><time>2026-04-11T12:41:00.42Z</time></trkpt><trkpt lat="44.0848717" lon="11.2281933"><ele>790.0</ele><time>2026-04-11T12:41:02.422Z</time></trkpt><trkpt lat="44.08478" lon="11.2282167"><ele>787.4</ele><time>2026-04-11T12:41:04.42Z</time></trkpt><trkpt lat="44.0846833" lon="11.228235"><ele>784.8</ele><time>2026-04-11T12:41:06.421Z</time></trkpt><trkpt lat="44.084605" lon="11.22814"><ele>782.2</ele><time>2026-04-11T12:41:08.421Z</time></trkpt><trkpt lat="44.0845567" lon="11.2279733"><ele>779.6</ele><time>2026-04-11T12:41:10.419Z</time></trkpt><trkpt lat="44.0845333" lon="11.227875"><ele>777.0</ele><time>2026-04-11T12:41:11.421Z</time></trkpt><trkpt lat="44.0845117" lon="11.2277667"><ele>777.0</ele><time>2026-04-11T12:41:12.421Z</time></trkpt><trkpt lat="44.0845067" lon="11.2276633"><ele>777.0</ele><time>2026-04-11T12:41:13.422Z</time></trkpt><trkpt lat="44.0844817" lon="11.2275767"><ele>777.0</ele><time>2026-04-11T12:41:14.422Z</time></trkpt><trkpt lat="44.0844417" lon="11.2274883"><ele>777.0</ele><time>2026-04-11T12:41:15.424Z</time></trkpt><trkpt lat="44.0844067" lon="11.2274"><ele>777.0</ele><time>2026-04-11T12:41:16.422Z</time></trkpt><trkpt lat="44.08437" lon="11.2273217"><ele>777.0</ele><time>2026-04-11T12:41:17.421Z</time></trkpt><trkpt lat="44.08431" lon="11.2272483"><ele>777.0</ele><time>2026-04-11T12:41:18.421Z</time></trkpt><trkpt lat="44.0842567" lon="11.227195"><ele>777.5</ele><time>2026-04-11T12:41:19.422Z</time></trkpt><trkpt lat="44.0842" lon="11.22712"><ele>778.0</ele><time>2026-04-11T12:41:20.423Z</time></trkpt><trkpt lat="44.084135" lon="11.2270767"><ele>778.5</ele><time>2026-04-11T12:41:21.423Z</time></trkpt><trkpt lat="44.084025" lon="11.226975"><ele>779.0</ele><time>2026-04-11T12:41:23.422Z</time></trkpt><trkpt lat="44.083975" lon="11.2269133"><ele>779.5</ele><time>2026-04-11T12:41:24.422Z</time></trkpt><trkpt lat="44.0839283" lon="11.22685"><ele>780.0</ele><time>2026-04-11T12:41:25.424Z</time></trkpt><trkpt lat="44.0838733" lon="11.226785"><ele>780.0</ele><time>2026-04-11T12:41:26.422Z</time></trkpt><trkpt lat="44.0838083" lon="11.2267233"><ele>780.0</ele><time>2026-04-11T12:41:27.421Z</time></trkpt><trkpt lat="44.08373" lon="11.2266783"><ele>780.0</ele><time>2026-04-11T12:41:28.423Z</time></trkpt><trkpt lat="44.0836483" lon="11.2266433"><ele>780.0</ele><time>2026-04-11T12:41:29.421Z</time></trkpt><trkpt lat="44.0835817" lon="11.226605"><ele>780.0</ele><time>2026-04-11T12:41:30.421Z</time></trkpt><trkpt lat="44.083515" lon="11.2265817"><ele>780.0</ele><time>2026-04-11T12:41:31.421Z</time></trkpt><trkpt lat="44.083445" lon="11.2265517"><ele>780.0</ele><time>2026-04-11T12:41:32.421Z</time></trkpt><trkpt lat="44.0833117" lon="11.226505"><ele>780.0</ele><time>2026-04-11T12:41:34.422Z</time></trkpt><trkpt lat="44.0832467" lon="11.2264883"><ele>780.0</ele><time>2026-04-11T12:41:35.424Z</time></trkpt><trkpt lat="44.0831233" lon="11.2264533"><ele>780.0</ele><time>2026-04-11T12:41:37.418Z</time></trkpt><trkpt lat="44.0830267" lon="11.2265033"><ele>780.0</ele><time>2026-04-11T12:41:39.418Z</time></trkpt><trkpt lat="44.0829717" lon="11.2265583"><ele>781.1666666666666</ele><time>2026-04-11T12:41:40.42Z</time></trkpt><trkpt lat="44.08291" lon="11.226615"><ele>782.3333333333333</ele><time>2026-04-11T12:41:41.42Z</time></trkpt><trkpt lat="44.08285" lon="11.226665"><ele>783.5</ele><time>2026-04-11T12:41:42.419Z</time></trkpt><trkpt lat="44.0827983" lon="11.2267267"><ele>784.6666666666666</ele><time>2026-04-11T12:41:43.418Z</time></trkpt><trkpt lat="44.0827267" lon="11.2268117"><ele>785.8333333333333</ele><time>2026-04-11T12:41:44.419Z</time></trkpt><trkpt lat="44.0826417" lon="11.2268917"><ele>787.0</ele><time>2026-04-11T12:41:45.419Z</time></trkpt><trkpt lat="44.0825317" lon="11.2269733"><ele>792.75</ele><time>2026-04-11T12:41:46.42Z</time></trkpt><trkpt lat="44.0824017" lon="11.2270383"><ele>798.5</ele><time>2026-04-11T12:41:47.42Z</time></trkpt><trkpt lat="44.0822817" lon="11.22711"><ele>804.25</ele><time>2026-04-11T12:41:48.419Z</time></trkpt><trkpt lat="44.0821583" lon="11.227185"><ele>810.0</ele><time>2026-04-11T12:41:49.42Z</time></trkpt><trkpt lat="44.0820367" lon="11.2272567"><ele>810.25</ele><time>2026-04-11T12:41:50.419Z</time></trkpt><trkpt lat="44.08192" lon="11.2273167"><ele>810.5</ele><time>2026-04-11T12:41:51.418Z</time></trkpt><trkpt lat="44.0818033" lon="11.2274183"><ele>810.75</ele><time>2026-04-11T12:41:52.419Z</time></trkpt><trkpt lat="44.0816533" lon="11.2275333"><ele>811.0</ele><time>2026-04-11T12:41:53.42Z</time></trkpt><trkpt lat="44.0815433" lon="11.2276317"><ele>811.0</ele><time>2026-04-11T12:41:54.42Z</time></trkpt><trkpt lat="44.0814267" lon="11.2277283"><ele>811.0</ele><time>2026-04-11T12:41:55.421Z</time></trkpt><trkpt lat="44.0813133" lon="11.2278283"><ele>811.0</ele><time>2026-04-11T12:41:56.424Z</time></trkpt><trkpt lat="44.0812033" lon="11.22794"><ele>811.0</ele><time>2026-04-11T12:41:57.423Z</time></trkpt><trkpt lat="44.0811067" lon="11.2280283"><ele>804.75</ele><time>2026-04-11T12:41:58.419Z</time></trkpt><trkpt lat="44.0810083" lon="11.22815"><ele>798.5</ele><time>2026-04-11T12:41:59.42Z</time></trkpt><trkpt lat="44.0809383" lon="11.2282633"><ele>792.25</ele><time>2026-04-11T12:42:00.419Z</time></trkpt><trkpt lat="44.08086" lon="11.2283817"><ele>786.0</ele><time>2026-04-11T12:42:01.419Z</time></trkpt><trkpt lat="44.0807833" lon="11.2284967"><ele>784.5</ele><time>2026-04-11T12:42:02.42Z</time></trkpt><trkpt lat="44.0806967" lon="11.2286267"><ele>783.0</ele><time>2026-04-11T12:42:03.418Z</time></trkpt><trkpt lat="44.08063" lon="11.2287383"><ele>781.5</ele><time>2026-04-11T12:42:04.42Z</time></trkpt><trkpt lat="44.0805683" lon="11.2288517"><ele>780.0</ele><time>2026-04-11T12:42:05.421Z</time></trkpt><trkpt lat="44.0805083" lon="11.2290867"><ele>780.0</ele><time>2026-04-11T12:42:06.418Z</time></trkpt><trkpt lat="44.0804617" lon="11.2291983"><ele>780.0</ele><time>2026-04-11T12:42:07.42Z</time></trkpt><trkpt lat="44.0804067" lon="11.2292933"><ele>780.0</ele><time>2026-04-11T12:42:08.419Z</time></trkpt><trkpt lat="44.0803483" lon="11.22937"><ele>780.0</ele><time>2026-04-11T12:42:09.419Z</time></trkpt><trkpt lat="44.0802467" lon="11.2294133"><ele>780.0</ele><time>2026-04-11T12:42:11.42Z</time></trkpt><trkpt lat="44.0801133" lon="11.2293917"><ele>780.0</ele><time>2026-04-11T12:42:13.419Z</time></trkpt><trkpt lat="44.0800267" lon="11.22937"><ele>780.0</ele><time>2026-04-11T12:42:14.419Z</time></trkpt><trkpt lat="44.0799017" lon="11.2293417"><ele>780.0</ele><time>2026-04-11T12:42:15.42Z</time></trkpt><trkpt lat="44.0797733" lon="11.2292783"><ele>780.0</ele><time>2026-04-11T12:42:16.421Z</time></trkpt><trkpt lat="44.07965" lon="11.2292167"><ele>778.6</ele><time>2026-04-11T12:42:17.421Z</time></trkpt><trkpt lat="44.0795433" lon="11.22915"><ele>777.2</ele><time>2026-04-11T12:42:18.422Z</time></trkpt><trkpt lat="44.0794583" lon="11.22909"><ele>775.8</ele><time>2026-04-11T12:42:19.421Z</time></trkpt><trkpt lat="44.079365" lon="11.2290133"><ele>774.4</ele><time>2026-04-11T12:42:20.421Z</time></trkpt><trkpt lat="44.0792783" lon="11.2289367"><ele>773.0</ele><time>2026-04-11T12:42:21.422Z</time></trkpt><trkpt lat="44.07919" lon="11.2288583"><ele>773.0</ele><time>2026-04-11T12:42:22.422Z</time></trkpt><trkpt lat="44.07913" lon="11.2287783"><ele>773.0</ele><time>2026-04-11T12:42:23.423Z</time></trkpt><trkpt lat="44.0790533" lon="11.2286883"><ele>773.0</ele><time>2026-04-11T12:42:24.421Z</time></trkpt><trkpt lat="44.0789867" lon="11.2285917"><ele>773.0</ele><time>2026-04-11T12:42:25.422Z</time></trkpt><trkpt lat="44.0789333" lon="11.2284883"><ele>773.0</ele><time>2026-04-11T12:42:26.422Z</time></trkpt><trkpt lat="44.078885" lon="11.2283683"><ele>768.5999999999999</ele><time>2026-04-11T12:42:27.423Z</time></trkpt><trkpt lat="44.0788267" lon="11.228245"><ele>764.1999999999999</ele><time>2026-04-11T12:42:28.422Z</time></trkpt><trkpt lat="44.0787733" lon="11.2281283"><ele>759.8</ele><time>2026-04-11T12:42:29.422Z</time></trkpt><trkpt lat="44.0787283" lon="11.22801"><ele>755.4</ele><time>2026-04-11T12:42:30.419Z</time></trkpt><trkpt lat="44.0786667" lon="11.227905"><ele>751.0</ele><time>2026-04-11T12:42:31.422Z</time></trkpt><trkpt lat="44.0785917" lon="11.2278183"><ele>751.0</ele><time>2026-04-11T12:42:32.422Z</time></trkpt><trkpt lat="44.0785083" lon="11.22773"><ele>751.0</ele><time>2026-04-11T12:42:33.422Z</time></trkpt><trkpt lat="44.07842" lon="11.2276733"><ele>751.0</ele><time>2026-04-11T12:42:34.422Z</time></trkpt><trkpt lat="44.0783383" lon="11.2276283"><ele>751.0</ele><time>2026-04-11T12:42:35.422Z</time></trkpt><trkpt lat="44.0782583" lon="11.22758"><ele>751.0</ele><time>2026-04-11T12:42:36.422Z</time></trkpt><trkpt lat="44.0781833" lon="11.227535"><ele>749.4</ele><time>2026-04-11T12:42:37.422Z</time></trkpt><trkpt lat="44.0781167" lon="11.2274567"><ele>747.8</ele><time>2026-04-11T12:42:38.421Z</time></trkpt><trkpt lat="44.0780617" lon="11.2273583"><ele>746.1999999999999</ele><time>2026-04-11T12:42:39.422Z</time></trkpt><trkpt lat="44.0780067" lon="11.2272483"><ele>744.5999999999999</ele><time>2026-04-11T12:42:40.421Z</time></trkpt><trkpt lat="44.077965" lon="11.22714"><ele>743.0</ele><time>2026-04-11T12:42:41.422Z</time></trkpt><trkpt lat="44.0779333" lon="11.22702"><ele>743.0</ele><time>2026-04-11T12:42:42.42Z</time></trkpt><trkpt lat="44.0779017" lon="11.2268967"><ele>743.0</ele><time>2026-04-11T12:42:43.421Z</time></trkpt><trkpt lat="44.07787" lon="11.2267717"><ele>743.0</ele><time>2026-04-11T12:42:44.421Z</time></trkpt><trkpt lat="44.07782" lon="11.22667"><ele>743.0</ele><time>2026-04-11T12:42:45.422Z</time></trkpt><trkpt lat="44.0777833" lon="11.2265783"><ele>743.0</ele><time>2026-04-11T12:42:46.422Z</time></trkpt><trkpt lat="44.0777217" lon="11.226495"><ele>743.0</ele><time>2026-04-11T12:42:47.422Z</time></trkpt><trkpt lat="44.077665" lon="11.2264133"><ele>746.4</ele><time>2026-04-11T12:42:48.423Z</time></trkpt><trkpt lat="44.0775933" lon="11.2263783"><ele>749.8</ele><time>2026-04-11T12:42:49.421Z</time></trkpt><trkpt lat="44.0775183" lon="11.2263583"><ele>753.2</ele><time>2026-04-11T12:42:50.421Z</time></trkpt><trkpt lat="44.077415" lon="11.2263533"><ele>756.6</ele><time>2026-04-11T12:42:51.421Z</time></trkpt><trkpt lat="44.077335" lon="11.2263733"><ele>760.0</ele><time>2026-04-11T12:42:52.419Z</time></trkpt><trkpt lat="44.0772167" lon="11.2263983"><ele>760.0</ele><time>2026-04-11T12:42:53.42Z</time></trkpt><trkpt lat="44.0770867" lon="11.2264283"><ele>760.0</ele><time>2026-04-11T12:42:54.42Z</time></trkpt><trkpt lat="44.0769983" lon="11.2264417"><ele>760.0</ele><time>2026-04-11T12:42:55.42Z</time></trkpt><trkpt lat="44.0769183" lon="11.2264333"><ele>760.0</ele><time>2026-04-11T12:42:56.42Z</time></trkpt><trkpt lat="44.0768367" lon="11.2264167"><ele>760.0</ele><time>2026-04-11T12:42:57.421Z</time></trkpt><trkpt lat="44.076755" lon="11.2263967"><ele>760.0</ele><time>2026-04-11T12:42:58.422Z</time></trkpt><trkpt lat="44.07668" lon="11.22638"><ele>760.0</ele><time>2026-04-11T12:42:59.42Z</time></trkpt><trkpt lat="44.07662" lon="11.2263367"><ele>760.0</ele><time>2026-04-11T12:43:00.421Z</time></trkpt><trkpt lat="44.0765583" lon="11.22628"><ele>760.0</ele><time>2026-04-11T12:43:01.422Z</time></trkpt><trkpt lat="44.0765033" lon="11.2262167"><ele>760.0</ele><time>2026-04-11T12:43:02.421Z</time></trkpt><trkpt lat="44.0764517" lon="11.226155"><ele>760.0</ele><time>2026-04-11T12:43:03.421Z</time></trkpt><trkpt lat="44.0764" lon="11.2260967"><ele>760.0</ele><time>2026-04-11T12:43:04.42Z</time></trkpt><trkpt lat="44.0763433" lon="11.2260367"><ele>757.5714285714286</ele><time>2026-04-11T12:43:05.421Z</time></trkpt><trkpt lat="44.076275" lon="11.2259867"><ele>755.1428571428571</ele><time>2026-04-11T12:43:06.421Z</time></trkpt><trkpt lat="44.0762017" lon="11.2259517"><ele>752.7142857142858</ele><time>2026-04-11T12:43:07.42Z</time></trkpt><trkpt lat="44.0761267" lon="11.2259517"><ele>750.2857142857142</ele><time>2026-04-11T12:43:08.422Z</time></trkpt><trkpt lat="44.07606" lon="11.2259683"><ele>747.8571428571428</ele><time>2026-04-11T12:43:09.421Z</time></trkpt><trkpt lat="44.0759967" lon="11.22597"><ele>745.4285714285714</ele><time>2026-04-11T12:43:10.42Z</time></trkpt><trkpt lat="44.0759233" lon="11.225975"><ele>743.0</ele><time>2026-04-11T12:43:11.422Z</time></trkpt><trkpt lat="44.07586" lon="11.22597"><ele>741.1666666666666</ele><time>2026-04-11T12:43:12.422Z</time></trkpt><trkpt lat="44.07577" lon="11.2259533"><ele>739.3333333333333</ele><time>2026-04-11T12:43:13.419Z</time></trkpt><trkpt lat="44.0756833" lon="11.2259217"><ele>737.5</ele><time>2026-04-11T12:43:14.419Z</time></trkpt><trkpt lat="44.0756017" lon="11.2258967"><ele>735.6666666666666</ele><time>2026-04-11T12:43:15.42Z</time></trkpt><trkpt lat="44.075515" lon="11.2258817"><ele>733.8333333333334</ele><time>2026-04-11T12:43:16.421Z</time></trkpt><trkpt lat="44.0754433" lon="11.225885"><ele>732.0</ele><time>2026-04-11T12:43:17.421Z</time></trkpt><trkpt lat="44.07537" lon="11.2258967"><ele>732.0</ele><time>2026-04-11T12:43:18.42Z</time></trkpt><trkpt lat="44.0753067" lon="11.2259317"><ele>732.0</ele><time>2026-04-11T12:43:19.421Z</time></trkpt><trkpt lat="44.0752817" lon="11.226025"><ele>732.0</ele><time>2026-04-11T12:43:20.421Z</time></trkpt><trkpt lat="44.0752183" lon="11.2260867"><ele>732.0</ele><time>2026-04-11T12:43:21.421Z</time></trkpt><trkpt lat="44.07515" lon="11.226135"><ele>732.0</ele><time>2026-04-11T12:43:22.422Z</time></trkpt><trkpt lat="44.0750817" lon="11.226175"><ele>732.0</ele><time>2026-04-11T12:43:23.421Z</time></trkpt><trkpt lat="44.0750283" lon="11.2262283"><ele>732.0</ele><time>2026-04-11T12:43:24.42Z</time></trkpt><trkpt lat="44.0749317" lon="11.2262483"><ele>729.4000000000001</ele><time>2026-04-11T12:43:26.422Z</time></trkpt><trkpt lat="44.0748167" lon="11.2262033"><ele>726.8000000000001</ele><time>2026-04-11T12:43:28.421Z</time></trkpt><trkpt lat="44.074735" lon="11.2261783"><ele>724.2</ele><time>2026-04-11T12:43:29.419Z</time></trkpt><trkpt lat="44.0746517" lon="11.2261467"><ele>721.6</ele><time>2026-04-11T12:43:30.42Z</time></trkpt><trkpt lat="44.07455" lon="11.2261533"><ele>719.0</ele><time>2026-04-11T12:43:32.42Z</time></trkpt><trkpt lat="44.0744767" lon="11.2261467"><ele>719.0</ele><time>2026-04-11T12:43:33.422Z</time></trkpt><trkpt lat="44.074395" lon="11.2261567"><ele>719.0</ele><time>2026-04-11T12:43:34.422Z</time></trkpt><trkpt lat="44.0742917" lon="11.2261633"><ele>719.0</ele><time>2026-04-11T12:43:35.422Z</time></trkpt><trkpt lat="44.0741767" lon="11.2261867"><ele>719.0</ele><time>2026-04-11T12:43:36.423Z</time></trkpt><trkpt lat="44.0740733" lon="11.2262017"><ele>719.0</ele><time>2026-04-11T12:43:37.421Z</time></trkpt><trkpt lat="44.0739583" lon="11.2262033"><ele>715.8000000000001</ele><time>2026-04-11T12:43:38.42Z</time></trkpt><trkpt lat="44.07386" lon="11.2262017"><ele>712.6</ele><time>2026-04-11T12:43:39.42Z</time></trkpt><trkpt lat="44.0737567" lon="11.2261833"><ele>709.4</ele><time>2026-04-11T12:43:40.422Z</time></trkpt><trkpt lat="44.073655" lon="11.226145"><ele>706.2</ele><time>2026-04-11T12:43:41.422Z</time></trkpt><trkpt lat="44.0735667" lon="11.2261133"><ele>703.0</ele><time>2026-04-11T12:43:42.422Z</time></trkpt><trkpt lat="44.0734817" lon="11.2260767"><ele>703.0</ele><time>2026-04-11T12:43:43.422Z</time></trkpt><trkpt lat="44.0734167" lon="11.22602"><ele>703.0</ele><time>2026-04-11T12:43:44.422Z</time></trkpt><trkpt lat="44.0733517" lon="11.22597"><ele>703.0</ele><time>2026-04-11T12:43:45.42Z</time></trkpt><trkpt lat="44.0732633" lon="11.225935"><ele>703.0</ele><time>2026-04-11T12:43:46.422Z</time></trkpt><trkpt lat="44.073215" lon="11.2258617"><ele>703.0</ele><time>2026-04-11T12:43:47.421Z</time></trkpt><trkpt lat="44.0731317" lon="11.225805"><ele>703.0</ele><time>2026-04-11T12:43:48.421Z</time></trkpt><trkpt lat="44.0730417" lon="11.2257317"><ele>699.0</ele><time>2026-04-11T12:43:49.421Z</time></trkpt><trkpt lat="44.0729667" lon="11.2256533"><ele>695.0</ele><time>2026-04-11T12:43:50.422Z</time></trkpt><trkpt lat="44.0728967" lon="11.225565"><ele>691.0</ele><time>2026-04-11T12:43:51.421Z</time></trkpt><trkpt lat="44.0727967" lon="11.22549"><ele>687.0</ele><time>2026-04-11T12:43:52.422Z</time></trkpt><trkpt lat="44.07268" lon="11.2254167"><ele>683.0</ele><time>2026-04-11T12:43:53.422Z</time></trkpt><trkpt lat="44.0725717" lon="11.2253433"><ele>682.5</ele><time>2026-04-11T12:43:54.422Z</time></trkpt><trkpt lat="44.0724467" lon="11.22527"><ele>682.0</ele><time>2026-04-11T12:43:55.422Z</time></trkpt><trkpt lat="44.0723283" lon="11.2251983"><ele>681.5</ele><time>2026-04-11T12:43:56.422Z</time></trkpt><trkpt lat="44.07223" lon="11.22514"><ele>681.0</ele><time>2026-04-11T12:43:57.422Z</time></trkpt><trkpt lat="44.0721367" lon="11.22509"><ele>681.0</ele><time>2026-04-11T12:43:58.422Z</time></trkpt><trkpt lat="44.0720317" lon="11.2250783"><ele>681.0</ele><time>2026-04-11T12:43:59.421Z</time></trkpt><trkpt lat="44.0719367" lon="11.2250867"><ele>681.0</ele><time>2026-04-11T12:44:00.421Z</time></trkpt><trkpt lat="44.0718367" lon="11.225085"><ele>681.0</ele><time>2026-04-11T12:44:01.422Z</time></trkpt><trkpt lat="44.0717483" lon="11.2251133"><ele>681.0</ele><time>2026-04-11T12:44:02.423Z</time></trkpt><trkpt lat="44.0716583" lon="11.2251617"><ele>681.8</ele><time>2026-04-11T12:44:03.423Z</time></trkpt><trkpt lat="44.0715683" lon="11.2251933"><ele>682.5999999999999</ele><time>2026-04-11T12:44:04.422Z</time></trkpt><trkpt lat="44.0714767" lon="11.2252233"><ele>683.4</ele><time>2026-04-11T12:44:05.423Z</time></trkpt><trkpt lat="44.0713867" lon="11.225255"><ele>684.2</ele><time>2026-04-11T12:44:06.42Z</time></trkpt><trkpt lat="44.0712967" lon="11.2252917"><ele>685.0</ele><time>2026-04-11T12:44:07.422Z</time></trkpt><trkpt lat="44.07121" lon="11.2253333"><ele>685.0</ele><time>2026-04-11T12:44:08.422Z</time></trkpt><trkpt lat="44.0711233" lon="11.225385"><ele>685.0</ele><time>2026-04-11T12:44:09.422Z</time></trkpt><trkpt lat="44.07104" lon="11.2254467"><ele>685.0</ele><time>2026-04-11T12:44:10.42Z</time></trkpt><trkpt lat="44.0709617" lon="11.2255"><ele>685.0</ele><time>2026-04-11T12:44:11.422Z</time></trkpt><trkpt lat="44.0708733" lon="11.2255583"><ele>685.0</ele><time>2026-04-11T12:44:12.421Z</time></trkpt><trkpt lat="44.0707767" lon="11.2255883"><ele>683.8</ele><time>2026-04-11T12:44:13.422Z</time></trkpt><trkpt lat="44.070685" lon="11.2256083"><ele>682.6</ele><time>2026-04-11T12:44:14.423Z</time></trkpt><trkpt lat="44.0706033" lon="11.2256"><ele>681.4000000000001</ele><time>2026-04-11T12:44:15.421Z</time></trkpt><trkpt lat="44.0705033" lon="11.2255733"><ele>680.2</ele><time>2026-04-11T12:44:16.422Z</time></trkpt><trkpt lat="44.0704033" lon="11.2255483"><ele>679.0</ele><time>2026-04-11T12:44:17.422Z</time></trkpt><trkpt lat="44.0703283" lon="11.2255283"><ele>679.0</ele><time>2026-04-11T12:44:18.423Z</time></trkpt><trkpt lat="44.0702333" lon="11.2255233"><ele>679.0</ele><time>2026-04-11T12:44:19.423Z</time></trkpt><trkpt lat="44.07012" lon="11.2255417"><ele>679.0</ele><time>2026-04-11T12:44:20.422Z</time></trkpt><trkpt lat="44.0700117" lon="11.225575"><ele>679.0</ele><time>2026-04-11T12:44:21.423Z</time></trkpt><trkpt lat="44.0699067" lon="11.2256133"><ele>679.0</ele><time>2026-04-11T12:44:22.422Z</time></trkpt><trkpt lat="44.069805" lon="11.2256367"><ele>678.6</ele><time>2026-04-11T12:44:23.423Z</time></trkpt><trkpt lat="44.0697" lon="11.22564"><ele>678.2</ele><time>2026-04-11T12:44:24.422Z</time></trkpt><trkpt lat="44.0696183" lon="11.2256333"><ele>677.8000000000001</ele><time>2026-04-11T12:44:25.423Z</time></trkpt><trkpt lat="44.06952" lon="11.2256333"><ele>677.4000000000001</ele><time>2026-04-11T12:44:26.423Z</time></trkpt><trkpt lat="44.0694117" lon="11.2256267"><ele>677.0</ele><time>2026-04-11T12:44:27.42Z</time></trkpt><trkpt lat="44.069305" lon="11.22562"><ele>677.0</ele><time>2026-04-11T12:44:28.423Z</time></trkpt><trkpt lat="44.0692017" lon="11.22561"><ele>677.0</ele><time>2026-04-11T12:44:29.421Z</time></trkpt><trkpt lat="44.0690933" lon="11.2256033"><ele>677.0</ele><time>2026-04-11T12:44:30.422Z</time></trkpt><trkpt lat="44.0689833" lon="11.2256017"><ele>677.0</ele><time>2026-04-11T12:44:31.422Z</time></trkpt><trkpt lat="44.0688883" lon="11.2255833"><ele>677.0</ele><time>2026-04-11T12:44:32.423Z</time></trkpt><trkpt lat="44.0687967" lon="11.2255533"><ele>674.5</ele><time>2026-04-11T12:44:33.424Z</time></trkpt><trkpt lat="44.0687133" lon="11.225515"><ele>672.0</ele><time>2026-04-11T12:44:34.424Z</time></trkpt><trkpt lat="44.0686317" lon="11.2254933"><ele>669.5</ele><time>2026-04-11T12:44:35.424Z</time></trkpt><trkpt lat="44.0685467" lon="11.22548"><ele>667.0</ele><time>2026-04-11T12:44:36.422Z</time></trkpt><trkpt lat="44.0684733" lon="11.2254817"><ele>664.5</ele><time>2026-04-11T12:44:37.424Z</time></trkpt><trkpt lat="44.0684083" lon="11.2254967"><ele>662.0</ele><time>2026-04-11T12:44:38.422Z</time></trkpt><trkpt lat="44.068345" lon="11.2255283"><ele>661.1666666666666</ele><time>2026-04-11T12:44:39.424Z</time></trkpt><trkpt lat="44.0682683" lon="11.2255917"><ele>660.3333333333333</ele><time>2026-04-11T12:44:41.423Z</time></trkpt><trkpt lat="44.0682033" lon="11.22567"><ele>659.5</ele><time>2026-04-11T12:45:37.422Z</time></trkpt><trkpt lat="44.068115" lon="11.2257333"><ele>658.6666666666666</ele><time>2026-04-11T12:45:39.422Z</time></trkpt><trkpt lat="44.06804" lon="11.2257733"><ele>657.8333333333334</ele><time>2026-04-11T12:45:40.423Z</time></trkpt><trkpt lat="44.0679583" lon="11.22581"><ele>657.0</ele><time>2026-04-11T12:45:41.421Z</time></trkpt><trkpt lat="44.0678867" lon="11.2258433"><ele>656.6666666666666</ele><time>2026-04-11T12:45:42.423Z</time></trkpt><trkpt lat="44.0678233" lon="11.22587"><ele>656.3333333333334</ele><time>2026-04-11T12:45:43.423Z</time></trkpt><trkpt lat="44.0677233" lon="11.22591"><ele>656.0</ele><time>2026-04-11T12:45:45.422Z</time></trkpt><trkpt lat="44.0676083" lon="11.2259433"><ele>655.6666666666667</ele><time>2026-04-11T12:45:47.421Z</time></trkpt><trkpt lat="44.0675433" lon="11.2259683"><ele>655.3333333333334</ele><time>2026-04-11T12:45:48.423Z</time></trkpt><trkpt lat="44.0674767" lon="11.2259967"><ele>655.0</ele><time>2026-04-11T12:45:49.423Z</time></trkpt><trkpt lat="44.0674067" lon="11.22603"><ele>653.8333333333334</ele><time>2026-04-11T12:45:50.42Z</time></trkpt><trkpt lat="44.0673267" lon="11.226055"><ele>652.6666666666667</ele><time>2026-04-11T12:45:51.423Z</time></trkpt><trkpt lat="44.0672483" lon="11.2260733"><ele>651.5</ele><time>2026-04-11T12:45:52.423Z</time></trkpt><trkpt lat="44.067165" lon="11.2261067"><ele>650.3333333333334</ele><time>2026-04-11T12:45:53.423Z</time></trkpt><trkpt lat="44.0670883" lon="11.2261383"><ele>649.1666666666666</ele><time>2026-04-11T12:45:54.422Z</time></trkpt><trkpt lat="44.067025" lon="11.2261933"><ele>648.0</ele><time>2026-04-11T12:45:55.422Z</time></trkpt><trkpt lat="44.0669767" lon="11.22627"><ele>648.0</ele><time>2026-04-11T12:45:56.423Z</time></trkpt><trkpt lat="44.0669367" lon="11.2263717"><ele>648.0</ele><time>2026-04-11T12:45:57.423Z</time></trkpt><trkpt lat="44.0669217" lon="11.22648"><ele>648.0</ele><time>2026-04-11T12:45:58.421Z</time></trkpt><trkpt lat="44.0669067" lon="11.2265833"><ele>648.0</ele><time>2026-04-11T12:45:59.421Z</time></trkpt><trkpt lat="44.0668817" lon="11.2266733"><ele>648.0</ele><time>2026-04-11T12:46:00.423Z</time></trkpt><trkpt lat="44.066775" lon="11.2267967"><ele>648.0</ele><time>2026-04-11T12:46:02.422Z</time></trkpt><trkpt lat="44.0667133" lon="11.2268683"><ele>648.0</ele><time>2026-04-11T12:46:03.42Z</time></trkpt><trkpt lat="44.066665" lon="11.2269633"><ele>648.0</ele><time>2026-04-11T12:46:04.421Z</time></trkpt><trkpt lat="44.0666317" lon="11.227075"><ele>648.0</ele><time>2026-04-11T12:46:05.421Z</time></trkpt><trkpt lat="44.0666167" lon="11.2272117"><ele>648.0</ele><time>2026-04-11T12:46:06.422Z</time></trkpt><trkpt lat="44.066605" lon="11.2273567"><ele>648.0</ele><time>2026-04-11T12:46:07.421Z</time></trkpt><trkpt lat="44.0665817" lon="11.2274917"><ele>648.0</ele><time>2026-04-11T12:46:08.423Z</time></trkpt><trkpt lat="44.0665367" lon="11.2276233"><ele>648.0</ele><time>2026-04-11T12:46:09.421Z</time></trkpt><trkpt lat="44.0664683" lon="11.22775"><ele>648.0</ele><time>2026-04-11T12:46:10.421Z</time></trkpt><trkpt lat="44.0663867" lon="11.2278583"><ele>648.0</ele><time>2026-04-11T12:46:11.42Z</time></trkpt><trkpt lat="44.06629" lon="11.2279417"><ele>648.0</ele><time>2026-04-11T12:46:12.422Z</time></trkpt><trkpt lat="44.0661967" lon="11.2280133"><ele>648.0</ele><time>2026-04-11T12:46:13.423Z</time></trkpt><trkpt lat="44.0661133" lon="11.2280917"><ele>648.0</ele><time>2026-04-11T12:46:14.421Z</time></trkpt><trkpt lat="44.066045" lon="11.228195"><ele>648.0</ele><time>2026-04-11T12:46:15.42Z</time></trkpt><trkpt lat="44.0659933" lon="11.2283333"><ele>648.0</ele><time>2026-04-11T12:46:16.422Z</time></trkpt><trkpt lat="44.0659483" lon="11.228485"><ele>648.0</ele><time>2026-04-11T12:46:17.42Z</time></trkpt><trkpt lat="44.0658917" lon="11.2286283"><ele>647.75</ele><time>2026-04-11T12:46:18.424Z</time></trkpt><trkpt lat="44.0658233" lon="11.22875"><ele>647.5</ele><time>2026-04-11T12:46:19.424Z</time></trkpt><trkpt lat="44.0657383" lon="11.2288583"><ele>647.25</ele><time>2026-04-11T12:46:20.42Z</time></trkpt><trkpt lat="44.06564" lon="11.2289583"><ele>647.0</ele><time>2026-04-11T12:46:21.422Z</time></trkpt><trkpt lat="44.06552" lon="11.2290633"><ele>644.0</ele><time>2026-04-11T12:46:22.422Z</time></trkpt><trkpt lat="44.0653833" lon="11.2291733"><ele>641.0</ele><time>2026-04-11T12:46:23.42Z</time></trkpt><trkpt lat="44.0652433" lon="11.229275"><ele>638.0</ele><time>2026-04-11T12:46:24.422Z</time></trkpt><trkpt lat="44.065095" lon="11.22938"><ele>638.0</ele><time>2026-04-11T12:46:25.422Z</time></trkpt><trkpt lat="44.0649517" lon="11.2294783"><ele>638.0</ele><time>2026-04-11T12:46:26.422Z</time></trkpt><trkpt lat="44.064815" lon="11.2295717"><ele>638.0</ele><time>2026-04-11T12:46:27.422Z</time></trkpt><trkpt lat="44.0646833" lon="11.2296667"><ele>637.0</ele><time>2026-04-11T12:46:28.42Z</time></trkpt><trkpt lat="44.0645567" lon="11.2297617"><ele>636.0</ele><time>2026-04-11T12:46:29.42Z</time></trkpt><trkpt lat="44.0644383" lon="11.229855"><ele>635.0</ele><time>2026-04-11T12:46:30.423Z</time></trkpt><trkpt lat="44.0643317" lon="11.2299383"><ele>634.0</ele><time>2026-04-11T12:46:31.422Z</time></trkpt><trkpt lat="44.0642283" lon="11.230015"><ele>634.0</ele><time>2026-04-11T12:46:32.422Z</time></trkpt><trkpt lat="44.0641267" lon="11.2300983"><ele>634.0</ele><time>2026-04-11T12:46:33.423Z</time></trkpt><trkpt lat="44.064035" lon="11.2301833"><ele>634.0</ele><time>2026-04-11T12:46:34.423Z</time></trkpt><trkpt lat="44.0639667" lon="11.2302667"><ele>634.0</ele><time>2026-04-11T12:46:35.423Z</time></trkpt><trkpt lat="44.063895" lon="11.2303883"><ele>634.0</ele><time>2026-04-11T12:46:36.421Z</time></trkpt><trkpt lat="44.0638317" lon="11.2305133"><ele>632.25</ele><time>2026-04-11T12:46:37.421Z</time></trkpt><trkpt lat="44.063775" lon="11.2306433"><ele>630.5</ele><time>2026-04-11T12:46:38.421Z</time></trkpt><trkpt lat="44.0637083" lon="11.2307683"><ele>628.75</ele><time>2026-04-11T12:46:39.42Z</time></trkpt><trkpt lat="44.0636317" lon="11.2308983"><ele>627.0</ele><time>2026-04-11T12:46:40.422Z</time></trkpt><trkpt lat="44.0635483" lon="11.231025"><ele>627.0</ele><time>2026-04-11T12:46:41.424Z</time></trkpt><trkpt lat="44.0634633" lon="11.2311467"><ele>627.0</ele><time>2026-04-11T12:46:42.423Z</time></trkpt><trkpt lat="44.063365" lon="11.2312667"><ele>627.0</ele><time>2026-04-11T12:46:43.422Z</time></trkpt><trkpt lat="44.0632567" lon="11.2313783"><ele>627.0</ele><time>2026-04-11T12:46:44.422Z</time></trkpt><trkpt lat="44.0631317" lon="11.231495"><ele>624.25</ele><time>2026-04-11T12:46:45.421Z</time></trkpt><trkpt lat="44.0630083" lon="11.231615"><ele>621.5</ele><time>2026-04-11T12:46:46.422Z</time></trkpt><trkpt lat="44.0628933" lon="11.231745"><ele>618.75</ele><time>2026-04-11T12:46:47.422Z</time></trkpt><trkpt lat="44.062785" lon="11.23189"><ele>616.0</ele><time>2026-04-11T12:46:48.423Z</time></trkpt><trkpt lat="44.0626883" lon="11.2320467"><ele>616.0</ele><time>2026-04-11T12:46:49.422Z</time></trkpt><trkpt lat="44.0625983" lon="11.2322033"><ele>616.0</ele><time>2026-04-11T12:46:50.421Z</time></trkpt><trkpt lat="44.062505" lon="11.2323567"><ele>616.0</ele><time>2026-04-11T12:46:51.422Z</time></trkpt><trkpt lat="44.0624" lon="11.2324967"><ele>616.0</ele><time>2026-04-11T12:46:52.421Z</time></trkpt><trkpt lat="44.0622883" lon="11.2326333"><ele>615.3333333333334</ele><time>2026-04-11T12:46:53.421Z</time></trkpt><trkpt lat="44.06217" lon="11.23277"><ele>614.6666666666666</ele><time>2026-04-11T12:46:54.419Z</time></trkpt><trkpt lat="44.0620467" lon="11.23291"><ele>614.0</ele><time>2026-04-11T12:46:55.423Z</time></trkpt><trkpt lat="44.0619267" lon="11.233035"><ele>612.75</ele><time>2026-04-11T12:46:56.423Z</time></trkpt><trkpt lat="44.061815" lon="11.2331617"><ele>611.5</ele><time>2026-04-11T12:46:57.421Z</time></trkpt><trkpt lat="44.061715" lon="11.233295"><ele>610.25</ele><time>2026-04-11T12:46:58.422Z</time></trkpt><trkpt lat="44.0616333" lon="11.2334633"><ele>609.0</ele><time>2026-04-11T12:46:59.421Z</time></trkpt><trkpt lat="44.0615767" lon="11.23365"><ele>607.25</ele><time>2026-04-11T12:47:00.421Z</time></trkpt><trkpt lat="44.0615367" lon="11.2338483"><ele>605.5</ele><time>2026-04-11T12:47:01.423Z</time></trkpt><trkpt lat="44.06151" lon="11.234035"><ele>603.75</ele><time>2026-04-11T12:47:02.422Z</time></trkpt><trkpt lat="44.061495" lon="11.2342217"><ele>602.0</ele><time>2026-04-11T12:47:03.421Z</time></trkpt><trkpt lat="44.061495" lon="11.2344083"><ele>602.0</ele><time>2026-04-11T12:47:04.421Z</time></trkpt><trkpt lat="44.061515" lon="11.2345783"><ele>602.0</ele><time>2026-04-11T12:47:05.423Z</time></trkpt><trkpt lat="44.061555" lon="11.2347333"><ele>602.0</ele><time>2026-04-11T12:47:06.422Z</time></trkpt><trkpt lat="44.0616033" lon="11.2348617"><ele>602.0</ele><time>2026-04-11T12:47:07.419Z</time></trkpt><trkpt lat="44.06166" lon="11.2349533"><ele>602.0</ele><time>2026-04-11T12:47:08.422Z</time></trkpt><trkpt lat="44.061715" lon="11.2350167"><ele>600.5</ele><time>2026-04-11T12:47:09.422Z</time></trkpt><trkpt lat="44.0617883" lon="11.235035"><ele>599.0</ele><time>2026-04-11T12:47:10.423Z</time></trkpt><trkpt lat="44.0618767" lon="11.234985"><ele>597.5</ele><time>2026-04-11T12:47:11.421Z</time></trkpt><trkpt lat="44.0619517" lon="11.2349383"><ele>596.0</ele><time>2026-04-11T12:47:12.422Z</time></trkpt><trkpt lat="44.0620233" lon="11.234905"><ele>594.5</ele><time>2026-04-11T12:47:13.423Z</time></trkpt><trkpt lat="44.06209" lon="11.2348983"><ele>593.0</ele><time>2026-04-11T12:47:14.422Z</time></trkpt><trkpt lat="44.0621933" lon="11.234965"><ele>593.0</ele><time>2026-04-11T12:47:16.422Z</time></trkpt><trkpt lat="44.0622083" lon="11.23512"><ele>593.0</ele><time>2026-04-11T12:47:18.422Z</time></trkpt><trkpt lat="44.0621617" lon="11.2352517"><ele>593.0</ele><time>2026-04-11T12:47:19.423Z</time></trkpt><trkpt lat="44.0620817" lon="11.2353983"><ele>593.0</ele><time>2026-04-11T12:47:20.423Z</time></trkpt><trkpt lat="44.061955" lon="11.2355517"><ele>590.0</ele><time>2026-04-11T12:47:21.422Z</time></trkpt><trkpt lat="44.0617917" lon="11.2357033"><ele>587.0</ele><time>2026-04-11T12:47:22.42Z</time></trkpt><trkpt lat="44.0616667" lon="11.235845"><ele>584.0</ele><time>2026-04-11T12:47:23.424Z</time></trkpt><trkpt lat="44.0615617" lon="11.2359933"><ele>584.0</ele><time>2026-04-11T12:47:24.422Z</time></trkpt><trkpt lat="44.0614783" lon="11.23614"><ele>584.0</ele><time>2026-04-11T12:47:25.422Z</time></trkpt><trkpt lat="44.0614133" lon="11.2363017"><ele>584.0</ele><time>2026-04-11T12:47:26.422Z</time></trkpt><trkpt lat="44.0613767" lon="11.2364683"><ele>584.0</ele><time>2026-04-11T12:47:27.422Z</time></trkpt><trkpt lat="44.0613667" lon="11.236635"><ele>580.5</ele><time>2026-04-11T12:47:28.42Z</time></trkpt><trkpt lat="44.0613767" lon="11.23682"><ele>577.0</ele><time>2026-04-11T12:47:29.421Z</time></trkpt><trkpt lat="44.0614083" lon="11.2370183"><ele>573.5</ele><time>2026-04-11T12:47:30.422Z</time></trkpt><trkpt lat="44.0614483" lon="11.2372283"><ele>570.0</ele><time>2026-04-11T12:47:31.419Z</time></trkpt><trkpt lat="44.061495" lon="11.2374383"><ele>569.0</ele><time>2026-04-11T12:47:32.423Z</time></trkpt><trkpt lat="44.061535" lon="11.2376217"><ele>568.0</ele><time>2026-04-11T12:47:33.422Z</time></trkpt><trkpt lat="44.0615767" lon="11.23781"><ele>567.0</ele><time>2026-04-11T12:47:34.421Z</time></trkpt><trkpt lat="44.061605" lon="11.237965"><ele>566.0</ele><time>2026-04-11T12:47:35.422Z</time></trkpt><trkpt lat="44.0616233" lon="11.2381083"><ele>565.4</ele><time>2026-04-11T12:47:36.422Z</time></trkpt><trkpt lat="44.061635" lon="11.2382533"><ele>564.8</ele><time>2026-04-11T12:47:37.422Z</time></trkpt><trkpt lat="44.0616267" lon="11.23839"><ele>564.1999999999999</ele><time>2026-04-11T12:47:38.421Z</time></trkpt><trkpt lat="44.06161" lon="11.2385283"><ele>563.6</ele><time>2026-04-11T12:47:39.422Z</time></trkpt><trkpt lat="44.06158" lon="11.2386767"><ele>563.0</ele><time>2026-04-11T12:47:40.421Z</time></trkpt><trkpt lat="44.061545" lon="11.2388083"><ele>561.1999999999999</ele><time>2026-04-11T12:47:41.423Z</time></trkpt><trkpt lat="44.0614717" lon="11.2389483"><ele>559.4</ele><time>2026-04-11T12:47:43.421Z</time></trkpt><trkpt lat="44.0613883" lon="11.23903"><ele>557.5999999999999</ele><time>2026-04-11T12:47:45.421Z</time></trkpt><trkpt lat="44.061315" lon="11.2389867"><ele>555.8</ele><time>2026-04-11T12:47:47.421Z</time></trkpt><trkpt lat="44.0612683" lon="11.2388967"><ele>554.0</ele><time>2026-04-11T12:47:48.422Z</time></trkpt><trkpt lat="44.061205" lon="11.23875"><ele>554.0</ele><time>2026-04-11T12:47:49.423Z</time></trkpt><trkpt lat="44.0611083" lon="11.2385917"><ele>554.0</ele><time>2026-04-11T12:47:50.421Z</time></trkpt><trkpt lat="44.0609967" lon="11.2384817"><ele>554.0</ele><time>2026-04-11T12:47:51.42Z</time></trkpt><trkpt lat="44.0608767" lon="11.2383983"><ele>554.0</ele><time>2026-04-11T12:47:52.421Z</time></trkpt><trkpt lat="44.060725" lon="11.238315"><ele>553.6666666666666</ele><time>2026-04-11T12:47:53.421Z</time></trkpt><trkpt lat="44.0605667" lon="11.2382117"><ele>553.3333333333334</ele><time>2026-04-11T12:47:54.42Z</time></trkpt><trkpt lat="44.0604117" lon="11.2380683"><ele>553.0</ele><time>2026-04-11T12:47:55.421Z</time></trkpt><trkpt lat="44.06028" lon="11.237945"><ele>553.0</ele><time>2026-04-11T12:47:56.421Z</time></trkpt><trkpt lat="44.060165" lon="11.2378367"><ele>553.0</ele><time>2026-04-11T12:47:57.421Z</time></trkpt><trkpt lat="44.0600617" lon="11.23775"><ele>553.0</ele><time>2026-04-11T12:47:58.42Z</time></trkpt><trkpt lat="44.0599483" lon="11.2376917"><ele>553.0</ele><time>2026-04-11T12:47:59.421Z</time></trkpt><trkpt lat="44.0598333" lon="11.2376583"><ele>553.25</ele><time>2026-04-11T12:48:00.42Z</time></trkpt><trkpt lat="44.0597217" lon="11.2376617"><ele>553.5</ele><time>2026-04-11T12:48:01.42Z</time></trkpt><trkpt lat="44.0596083" lon="11.237685"><ele>553.75</ele><time>2026-04-11T12:48:02.421Z</time></trkpt><trkpt lat="44.0595033" lon="11.2377417"><ele>554.0</ele><time>2026-04-11T12:48:03.42Z</time></trkpt><trkpt lat="44.0593883" lon="11.2378683"><ele>554.0</ele><time>2026-04-11T12:48:04.422Z</time></trkpt><trkpt lat="44.059285" lon="11.238015"><ele>554.0</ele><time>2026-04-11T12:48:05.421Z</time></trkpt><trkpt lat="44.059185" lon="11.2381583"><ele>554.0</ele><time>2026-04-11T12:48:06.424Z</time></trkpt><trkpt lat="44.0590867" lon="11.2382817"><ele>554.0</ele><time>2026-04-11T12:48:07.422Z</time></trkpt><trkpt lat="44.0589833" lon="11.238405"><ele>550.25</ele><time>2026-04-11T12:48:08.42Z</time></trkpt><trkpt lat="44.0588817" lon="11.23853"><ele>546.5</ele><time>2026-04-11T12:48:09.419Z</time></trkpt><trkpt lat="44.0587783" lon="11.2386533"><ele>542.75</ele><time>2026-04-11T12:48:10.421Z</time></trkpt><trkpt lat="44.0586817" lon="11.23877"><ele>539.0</ele><time>2026-04-11T12:48:11.421Z</time></trkpt><trkpt lat="44.0585783" lon="11.23888"><ele>534.75</ele><time>2026-04-11T12:48:12.42Z</time></trkpt><trkpt lat="44.0584783" lon="11.238975"><ele>530.5</ele><time>2026-04-11T12:48:13.42Z</time></trkpt><trkpt lat="44.05837" lon="11.2390567"><ele>526.25</ele><time>2026-04-11T12:48:14.421Z</time></trkpt><trkpt lat="44.0582567" lon="11.2391033"><ele>522.0</ele><time>2026-04-11T12:48:15.419Z</time></trkpt><trkpt lat="44.0581417" lon="11.23912"><ele>520.75</ele><time>2026-04-11T12:48:16.421Z</time></trkpt><trkpt lat="44.05802" lon="11.2391117"><ele>519.5</ele><time>2026-04-11T12:48:17.421Z</time></trkpt><trkpt lat="44.0579067" lon="11.2390733"><ele>518.25</ele><time>2026-04-11T12:48:18.422Z</time></trkpt><trkpt lat="44.0577983" lon="11.23902"><ele>517.0</ele><time>2026-04-11T12:48:19.42Z</time></trkpt><trkpt lat="44.0577033" lon="11.238955"><ele>517.0</ele><time>2026-04-11T12:48:20.42Z</time></trkpt><trkpt lat="44.0576433" lon="11.2388767"><ele>517.0</ele><time>2026-04-11T12:48:21.42Z</time></trkpt><trkpt lat="44.0575833" lon="11.2388017"><ele>517.0</ele><time>2026-04-11T12:48:22.435Z</time></trkpt><trkpt lat="44.0575217" lon="11.2387233"><ele>517.0</ele><time>2026-04-11T12:48:23.421Z</time></trkpt><trkpt lat="44.0574817" lon="11.2386233"><ele>517.0</ele><time>2026-04-11T12:48:24.423Z</time></trkpt><trkpt lat="44.0574533" lon="11.238505"><ele>517.0</ele><time>2026-04-11T12:48:25.422Z</time></trkpt><trkpt lat="44.0574567" lon="11.23835"><ele>515.4</ele><time>2026-04-11T12:48:26.423Z</time></trkpt><trkpt lat="44.0574417" lon="11.238215"><ele>513.8000000000001</ele><time>2026-04-11T12:48:27.421Z</time></trkpt><trkpt lat="44.057415" lon="11.23809"><ele>512.2</ele><time>2026-04-11T12:48:28.421Z</time></trkpt><trkpt lat="44.0573833" lon="11.2379717"><ele>510.6</ele><time>2026-04-11T12:48:29.422Z</time></trkpt><trkpt lat="44.0573167" lon="11.237885"><ele>509.0</ele><time>2026-04-11T12:48:30.422Z</time></trkpt><trkpt lat="44.0572117" lon="11.23782"><ele>509.0</ele><time>2026-04-11T12:48:31.422Z</time></trkpt><trkpt lat="44.0570917" lon="11.2377817"><ele>509.0</ele><time>2026-04-11T12:48:32.422Z</time></trkpt><trkpt lat="44.05697" lon="11.2377567"><ele>509.0</ele><time>2026-04-11T12:48:33.421Z</time></trkpt><trkpt lat="44.0568467" lon="11.237755"><ele>509.0</ele><time>2026-04-11T12:48:34.421Z</time></trkpt><trkpt lat="44.0567183" lon="11.237805"><ele>506.25</ele><time>2026-04-11T12:48:35.422Z</time></trkpt><trkpt lat="44.0565883" lon="11.2378767"><ele>503.5</ele><time>2026-04-11T12:48:36.421Z</time></trkpt><trkpt lat="44.056465" lon="11.23794"><ele>500.75</ele><time>2026-04-11T12:48:37.42Z</time></trkpt><trkpt lat="44.056335" lon="11.237985"><ele>498.0</ele><time>2026-04-11T12:48:38.422Z</time></trkpt><trkpt lat="44.056205" lon="11.2380083"><ele>498.0</ele><time>2026-04-11T12:48:39.422Z</time></trkpt><trkpt lat="44.0560783" lon="11.23802"><ele>498.0</ele><time>2026-04-11T12:48:40.421Z</time></trkpt><trkpt lat="44.0559567" lon="11.23802"><ele>498.0</ele><time>2026-04-11T12:48:41.42Z</time></trkpt><trkpt lat="44.0558383" lon="11.2380033"><ele>498.0</ele><time>2026-04-11T12:48:42.422Z</time></trkpt><trkpt lat="44.0557217" lon="11.2379667"><ele>497.5</ele><time>2026-04-11T12:48:43.42Z</time></trkpt><trkpt lat="44.0556033" lon="11.23791"><ele>497.0</ele><time>2026-04-11T12:48:44.422Z</time></trkpt><trkpt lat="44.0554883" lon="11.2378567"><ele>496.5</ele><time>2026-04-11T12:48:45.42Z</time></trkpt><trkpt lat="44.0553783" lon="11.2378117"><ele>496.0</ele><time>2026-04-11T12:48:46.422Z</time></trkpt><trkpt lat="44.0552733" lon="11.2377883"><ele>496.0</ele><time>2026-04-11T12:48:47.422Z</time></trkpt><trkpt lat="44.05517" lon="11.2377967"><ele>496.0</ele><time>2026-04-11T12:48:48.422Z</time></trkpt><trkpt lat="44.05507" lon="11.2378433"><ele>496.0</ele><time>2026-04-11T12:48:49.422Z</time></trkpt><trkpt lat="44.0549733" lon="11.2379317"><ele>496.0</ele><time>2026-04-11T12:48:50.423Z</time></trkpt><trkpt lat="44.0548733" lon="11.2380517"><ele>495.75</ele><time>2026-04-11T12:48:51.422Z</time></trkpt><trkpt lat="44.0547767" lon="11.23819"><ele>495.5</ele><time>2026-04-11T12:48:52.421Z</time></trkpt><trkpt lat="44.0546817" lon="11.238325"><ele>495.25</ele><time>2026-04-11T12:48:53.422Z</time></trkpt><trkpt lat="44.0545833" lon="11.23846"><ele>495.0</ele><time>2026-04-11T12:48:54.423Z</time></trkpt><trkpt lat="44.054475" lon="11.2385983"><ele>495.0</ele><time>2026-04-11T12:48:55.422Z</time></trkpt><trkpt lat="44.0543633" lon="11.2387133"><ele>495.0</ele><time>2026-04-11T12:48:56.421Z</time></trkpt><trkpt lat="44.0542517" lon="11.238815"><ele>495.0</ele><time>2026-04-11T12:48:57.421Z</time></trkpt><trkpt lat="44.0541317" lon="11.2388883"><ele>495.0</ele><time>2026-04-11T12:48:58.42Z</time></trkpt><trkpt lat="44.0539983" lon="11.2389433"><ele>490.75</ele><time>2026-04-11T12:48:59.421Z</time></trkpt><trkpt lat="44.0538617" lon="11.23898"><ele>486.5</ele><time>2026-04-11T12:49:00.421Z</time></trkpt><trkpt lat="44.0537317" lon="11.238995"><ele>482.25</ele><time>2026-04-11T12:49:01.423Z</time></trkpt><trkpt lat="44.053605" lon="11.2389933"><ele>478.0</ele><time>2026-04-11T12:49:02.42Z</time></trkpt><trkpt lat="44.05348" lon="11.2389833"><ele>478.0</ele><time>2026-04-11T12:49:03.422Z</time></trkpt><trkpt lat="44.053355" lon="11.238975"><ele>478.0</ele><time>2026-04-11T12:49:04.421Z</time></trkpt><trkpt lat="44.0532367" lon="11.2389667"><ele>478.0</ele><time>2026-04-11T12:49:05.422Z</time></trkpt><trkpt lat="44.0531133" lon="11.2389633"><ele>478.0</ele><time>2026-04-11T12:49:06.422Z</time></trkpt><trkpt lat="44.0529833" lon="11.2389733"><ele>477.75</ele><time>2026-04-11T12:49:07.421Z</time></trkpt><trkpt lat="44.0528483" lon="11.239"><ele>477.5</ele><time>2026-04-11T12:49:08.421Z</time></trkpt><trkpt lat="44.05272" lon="11.239035"><ele>477.25</ele><time>2026-04-11T12:49:09.421Z</time></trkpt><trkpt lat="44.0525983" lon="11.2390533"><ele>477.0</ele><time>2026-04-11T12:49:10.421Z</time></trkpt><trkpt lat="44.0524817" lon="11.2390717"><ele>474.25</ele><time>2026-04-11T12:49:11.421Z</time></trkpt><trkpt lat="44.0523817" lon="11.239065"><ele>471.5</ele><time>2026-04-11T12:49:12.422Z</time></trkpt><trkpt lat="44.0522667" lon="11.2390867"><ele>468.75</ele><time>2026-04-11T12:49:13.42Z</time></trkpt><trkpt lat="44.0521417" lon="11.2391033"><ele>466.0</ele><time>2026-04-11T12:49:14.421Z</time></trkpt><trkpt lat="44.052015" lon="11.2391117"><ele>466.0</ele><time>2026-04-11T12:49:15.42Z</time></trkpt><trkpt lat="44.0518983" lon="11.2391117"><ele>466.0</ele><time>2026-04-11T12:49:16.422Z</time></trkpt><trkpt lat="44.0517733" lon="11.2391133"><ele>466.0</ele><time>2026-04-11T12:49:17.42Z</time></trkpt><trkpt lat="44.0516433" lon="11.2391083"><ele>466.0</ele><time>2026-04-11T12:49:18.422Z</time></trkpt><trkpt lat="44.0514983" lon="11.239125"><ele>464.5</ele><time>2026-04-11T12:49:19.423Z</time></trkpt><trkpt lat="44.0513633" lon="11.2391283"><ele>463.0</ele><time>2026-04-11T12:49:20.421Z</time></trkpt><trkpt lat="44.0512233" lon="11.2391283"><ele>461.5</ele><time>2026-04-11T12:49:21.423Z</time></trkpt><trkpt lat="44.0510783" lon="11.23913"><ele>460.0</ele><time>2026-04-11T12:49:22.423Z</time></trkpt><trkpt lat="44.050925" lon="11.2391283"><ele>459.33333333333337</ele><time>2026-04-11T12:49:23.421Z</time></trkpt><trkpt lat="44.0507583" lon="11.239125"><ele>458.66666666666663</ele><time>2026-04-11T12:49:24.421Z</time></trkpt><trkpt lat="44.0505933" lon="11.2391233"><ele>458.0</ele><time>2026-04-11T12:49:25.422Z</time></trkpt><trkpt lat="44.0504383" lon="11.239125"><ele>458.0</ele><time>2026-04-11T12:49:26.421Z</time></trkpt><trkpt lat="44.0502933" lon="11.2391233"><ele>458.0</ele><time>2026-04-11T12:49:27.42Z</time></trkpt><trkpt lat="44.0501517" lon="11.23912"><ele>458.0</ele><time>2026-04-11T12:49:28.42Z</time></trkpt><trkpt lat="44.0500133" lon="11.239115"><ele>458.0</ele><time>2026-04-11T12:49:29.421Z</time></trkpt><trkpt lat="44.0498817" lon="11.23911"><ele>458.5</ele><time>2026-04-11T12:49:30.42Z</time></trkpt><trkpt lat="44.0497517" lon="11.2391"><ele>459.0</ele><time>2026-04-11T12:49:31.42Z</time></trkpt><trkpt lat="44.04962" lon="11.23908"><ele>459.5</ele><time>2026-04-11T12:49:32.424Z</time></trkpt><trkpt lat="44.0494917" lon="11.239045"><ele>460.0</ele><time>2026-04-11T12:49:33.421Z</time></trkpt><trkpt lat="44.0493567" lon="11.2389867"><ele>459.75</ele><time>2026-04-11T12:49:34.421Z</time></trkpt><trkpt lat="44.049225" lon="11.2389"><ele>459.5</ele><time>2026-04-11T12:49:35.42Z</time></trkpt><trkpt lat="44.0490833" lon="11.2388117"><ele>459.25</ele><time>2026-04-11T12:49:36.42Z</time></trkpt><trkpt lat="44.048955" lon="11.2387267"><ele>459.0</ele><time>2026-04-11T12:49:37.419Z</time></trkpt><trkpt lat="44.0488317" lon="11.2386683"><ele>459.0</ele><time>2026-04-11T12:49:38.42Z</time></trkpt><trkpt lat="44.0487033" lon="11.23864"><ele>459.0</ele><time>2026-04-11T12:49:39.419Z</time></trkpt><trkpt lat="44.0485717" lon="11.238645"><ele>459.0</ele><time>2026-04-11T12:49:40.419Z</time></trkpt><trkpt lat="44.04844" lon="11.238685"><ele>459.0</ele><time>2026-04-11T12:49:41.419Z</time></trkpt><trkpt lat="44.04831" lon="11.238765"><ele>461.0</ele><time>2026-04-11T12:49:42.418Z</time></trkpt><trkpt lat="44.0481767" lon="11.2388733"><ele>463.0</ele><time>2026-04-11T12:49:43.418Z</time></trkpt><trkpt lat="44.0480367" lon="11.2389767"><ele>465.0</ele><time>2026-04-11T12:49:44.42Z</time></trkpt><trkpt lat="44.0478833" lon="11.2390683"><ele>465.0</ele><time>2026-04-11T12:49:45.419Z</time></trkpt><trkpt lat="44.0477067" lon="11.2391467"><ele>465.0</ele><time>2026-04-11T12:49:46.42Z</time></trkpt><trkpt lat="44.04752" lon="11.2392233"><ele>465.0</ele><time>2026-04-11T12:49:47.419Z</time></trkpt><trkpt lat="44.0473317" lon="11.2392917"><ele>462.33333333333337</ele><time>2026-04-11T12:49:48.418Z</time></trkpt><trkpt lat="44.04715" lon="11.239355"><ele>459.6666666666667</ele><time>2026-04-11T12:49:49.419Z</time></trkpt><trkpt lat="44.0469683" lon="11.2394133"><ele>457.0</ele><time>2026-04-11T12:49:50.421Z</time></trkpt><trkpt lat="44.046795" lon="11.2394717"><ele>454.0</ele><time>2026-04-11T12:49:51.42Z</time></trkpt><trkpt lat="44.0466267" lon="11.2395267"><ele>451.0</ele><time>2026-04-11T12:49:52.42Z</time></trkpt><trkpt lat="44.04646" lon="11.2395733"><ele>448.0</ele><time>2026-04-11T12:49:53.421Z</time></trkpt><trkpt lat="44.0463" lon="11.23961"><ele>448.0</ele><time>2026-04-11T12:49:54.42Z</time></trkpt><trkpt lat="44.0461417" lon="11.2396267"><ele>448.0</ele><time>2026-04-11T12:49:55.421Z</time></trkpt><trkpt lat="44.04599" lon="11.2396433"><ele>448.0</ele><time>2026-04-11T12:49:56.421Z</time></trkpt><trkpt lat="44.0458433" lon="11.239675"><ele>447.0</ele><time>2026-04-11T12:49:57.42Z</time></trkpt><trkpt lat="44.0457117" lon="11.239735"><ele>446.0</ele><time>2026-04-11T12:49:58.421Z</time></trkpt><trkpt lat="44.0455833" lon="11.2398367"><ele>445.0</ele><time>2026-04-11T12:49:59.421Z</time></trkpt><trkpt lat="44.0454467" lon="11.2399817"><ele>445.0</ele><time>2026-04-11T12:50:00.421Z</time></trkpt><trkpt lat="44.04531" lon="11.2401517"><ele>445.0</ele><time>2026-04-11T12:50:01.42Z</time></trkpt><trkpt lat="44.045175" lon="11.2403217"><ele>445.0</ele><time>2026-04-11T12:50:02.421Z</time></trkpt><trkpt lat="44.0450383" lon="11.2404833"><ele>444.33333333333337</ele><time>2026-04-11T12:50:03.418Z</time></trkpt><trkpt lat="44.0449067" lon="11.2406317"><ele>443.66666666666663</ele><time>2026-04-11T12:50:04.421Z</time></trkpt><trkpt lat="44.0447767" lon="11.2407833"><ele>443.0</ele><time>2026-04-11T12:50:05.423Z</time></trkpt><trkpt lat="44.0446517" lon="11.24092"><ele>443.0</ele><time>2026-04-11T12:50:06.423Z</time></trkpt><trkpt lat="44.0445317" lon="11.241055"><ele>443.0</ele><time>2026-04-11T12:50:07.423Z</time></trkpt><trkpt lat="44.0444083" lon="11.24119"><ele>443.0</ele><time>2026-04-11T12:50:08.422Z</time></trkpt><trkpt lat="44.044285" lon="11.2413217"><ele>443.0</ele><time>2026-04-11T12:50:09.42Z</time></trkpt><trkpt lat="44.044165" lon="11.2414433"><ele>443.0</ele><time>2026-04-11T12:50:10.42Z</time></trkpt><trkpt lat="44.04405" lon="11.2415483"><ele>443.0</ele><time>2026-04-11T12:50:11.421Z</time></trkpt><trkpt lat="44.0439333" lon="11.2416367"><ele>443.0</ele><time>2026-04-11T12:50:12.421Z</time></trkpt><trkpt lat="44.0438067" lon="11.241695"><ele>438.66666666666663</ele><time>2026-04-11T12:50:13.419Z</time></trkpt><trkpt lat="44.0436567" lon="11.2417233"><ele>434.33333333333337</ele><time>2026-04-11T12:50:14.421Z</time></trkpt><trkpt lat="44.0434933" lon="11.2417367"><ele>430.0</ele><time>2026-04-11T12:50:15.419Z</time></trkpt><trkpt lat="44.0433267" lon="11.2417283"><ele>426.6666666666667</ele><time>2026-04-11T12:50:16.421Z</time></trkpt><trkpt lat="44.043155" lon="11.2416867"><ele>423.33333333333337</ele><time>2026-04-11T12:50:17.42Z</time></trkpt><trkpt lat="44.0429767" lon="11.2416083"><ele>420.0</ele><time>2026-04-11T12:50:18.419Z</time></trkpt><trkpt lat="44.0427983" lon="11.2415133"><ele>418.25</ele><time>2026-04-11T12:50:19.42Z</time></trkpt><trkpt lat="44.042645" lon="11.2414267"><ele>416.5</ele><time>2026-04-11T12:50:20.421Z</time></trkpt><trkpt lat="44.04251" lon="11.2413683"><ele>414.75</ele><time>2026-04-11T12:50:21.421Z</time></trkpt><trkpt lat="44.0423817" lon="11.2413467"><ele>413.0</ele><time>2026-04-11T12:50:22.421Z</time></trkpt><trkpt lat="44.0422517" lon="11.2413617"><ele>412.25</ele><time>2026-04-11T12:50:23.42Z</time></trkpt><trkpt lat="44.042125" lon="11.24141"><ele>411.5</ele><time>2026-04-11T12:50:24.422Z</time></trkpt><trkpt lat="44.0420083" lon="11.2414883"><ele>410.75</ele><time>2026-04-11T12:50:25.421Z</time></trkpt><trkpt lat="44.041905" lon="11.2416033"><ele>410.0</ele><time>2026-04-11T12:50:26.421Z</time></trkpt><trkpt lat="44.0418133" lon="11.24175"><ele>410.0</ele><time>2026-04-11T12:50:27.421Z</time></trkpt><trkpt lat="44.041715" lon="11.2419117"><ele>410.0</ele><time>2026-04-11T12:50:28.42Z</time></trkpt><trkpt lat="44.0416083" lon="11.2420733"><ele>410.0</ele><time>2026-04-11T12:50:29.421Z</time></trkpt><trkpt lat="44.041505" lon="11.2422317"><ele>413.75</ele><time>2026-04-11T12:50:30.419Z</time></trkpt><trkpt lat="44.0414233" lon="11.242395"><ele>417.5</ele><time>2026-04-11T12:50:31.421Z</time></trkpt><trkpt lat="44.04136" lon="11.2425817"><ele>421.25</ele><time>2026-04-11T12:50:32.421Z</time></trkpt><trkpt lat="44.0413067" lon="11.2427717"><ele>425.0</ele><time>2026-04-11T12:50:33.42Z</time></trkpt><trkpt lat="44.0412467" lon="11.2429483"><ele>425.0</ele><time>2026-04-11T12:50:34.422Z</time></trkpt><trkpt lat="44.04118" lon="11.243105"><ele>425.0</ele><time>2026-04-11T12:50:35.421Z</time></trkpt><trkpt lat="44.0410983" lon="11.2432367"><ele>425.0</ele><time>2026-04-11T12:50:36.42Z</time></trkpt><trkpt lat="44.0409967" lon="11.243355"><ele>425.0</ele><time>2026-04-11T12:50:37.421Z</time></trkpt><trkpt lat="44.0408767" lon="11.2434733"><ele>427.0</ele><time>2026-04-11T12:50:38.421Z</time></trkpt><trkpt lat="44.0407383" lon="11.2436"><ele>429.0</ele><time>2026-04-11T12:50:39.419Z</time></trkpt><trkpt lat="44.0406" lon="11.2437233"><ele>431.0</ele><time>2026-04-11T12:50:40.421Z</time></trkpt><trkpt lat="44.0404667" lon="11.2438367"><ele>431.0</ele><time>2026-04-11T12:50:41.422Z</time></trkpt><trkpt lat="44.0403383" lon="11.24393"><ele>431.0</ele><time>2026-04-11T12:50:42.422Z</time></trkpt><trkpt lat="44.0402083" lon="11.2439983"><ele>431.0</ele><time>2026-04-11T12:50:43.423Z</time></trkpt><trkpt lat="44.0400733" lon="11.244035"><ele>431.0</ele><time>2026-04-11T12:50:44.42Z</time></trkpt><trkpt lat="44.0399283" lon="11.2440367"><ele>428.3333333333333</ele><time>2026-04-11T12:50:45.421Z</time></trkpt><trkpt lat="44.0397683" lon="11.2440133"><ele>425.66666666666663</ele><time>2026-04-11T12:50:46.419Z</time></trkpt><trkpt lat="44.0396017" lon="11.2439733"><ele>423.0</ele><time>2026-04-11T12:50:47.421Z</time></trkpt><trkpt lat="44.0394417" lon="11.243925"><ele>423.0</ele><time>2026-04-11T12:50:48.42Z</time></trkpt><trkpt lat="44.0392983" lon="11.2438667"><ele>423.0</ele><time>2026-04-11T12:50:49.423Z</time></trkpt><trkpt lat="44.0391683" lon="11.243795"><ele>423.0</ele><time>2026-04-11T12:50:50.422Z</time></trkpt><trkpt lat="44.0390583" lon="11.2436967"><ele>423.0</ele><time>2026-04-11T12:50:51.421Z</time></trkpt><trkpt lat="44.03897" lon="11.24357"><ele>418.0</ele><time>2026-04-11T12:50:52.421Z</time></trkpt><trkpt lat="44.0388967" lon="11.2434183"><ele>413.0</ele><time>2026-04-11T12:50:53.422Z</time></trkpt><trkpt lat="44.0388333" lon="11.2432333"><ele>408.0</ele><time>2026-04-11T12:50:54.423Z</time></trkpt><trkpt lat="44.0387633" lon="11.2430333"><ele>403.0</ele><time>2026-04-11T12:50:55.422Z</time></trkpt><trkpt lat="44.0386883" lon="11.2428367"><ele>403.0</ele><time>2026-04-11T12:50:56.422Z</time></trkpt><trkpt lat="44.038605" lon="11.2426633"><ele>403.0</ele><time>2026-04-11T12:50:57.422Z</time></trkpt><trkpt lat="44.0385" lon="11.2425067"><ele>403.0</ele><time>2026-04-11T12:50:58.42Z</time></trkpt><trkpt lat="44.0383667" lon="11.2423617"><ele>400.0</ele><time>2026-04-11T12:50:59.42Z</time></trkpt><trkpt lat="44.0382067" lon="11.2422283"><ele>397.0</ele><time>2026-04-11T12:51:00.422Z</time></trkpt><trkpt lat="44.03802" lon="11.2420867"><ele>394.0</ele><time>2026-04-11T12:51:01.421Z</time></trkpt><trkpt lat="44.0378267" lon="11.2419433"><ele>394.0</ele><time>2026-04-11T12:51:02.422Z</time></trkpt><trkpt lat="44.0376467" lon="11.2418117"><ele>394.0</ele><time>2026-04-11T12:51:03.421Z</time></trkpt><trkpt lat="44.037475" lon="11.2416967"><ele>394.0</ele><time>2026-04-11T12:51:04.422Z</time></trkpt><trkpt lat="44.0373083" lon="11.2416033"><ele>392.6666666666667</ele><time>2026-04-11T12:51:05.421Z</time></trkpt><trkpt lat="44.037145" lon="11.24153"><ele>391.33333333333337</ele><time>2026-04-11T12:51:06.421Z</time></trkpt><trkpt lat="44.036995" lon="11.2414833"><ele>390.0</ele><time>2026-04-11T12:51:07.422Z</time></trkpt><trkpt lat="44.0368533" lon="11.2414517"><ele>389.25</ele><time>2026-04-11T12:51:08.423Z</time></trkpt><trkpt lat="44.0367117" lon="11.2414183"><ele>388.5</ele><time>2026-04-11T12:51:09.422Z</time></trkpt><trkpt lat="44.036565" lon="11.2413783"><ele>387.75</ele><time>2026-04-11T12:51:10.42Z</time></trkpt><trkpt lat="44.0364133" lon="11.2413283"><ele>387.0</ele><time>2026-04-11T12:51:11.422Z</time></trkpt><trkpt lat="44.0362683" lon="11.2412667"><ele>386.0</ele><time>2026-04-11T12:51:12.42Z</time></trkpt><trkpt lat="44.036135" lon="11.2411833"><ele>385.0</ele><time>2026-04-11T12:51:13.421Z</time></trkpt><trkpt lat="44.0360083" lon="11.2410867"><ele>384.0</ele><time>2026-04-11T12:51:14.422Z</time></trkpt><trkpt lat="44.0358833" lon="11.2409833"><ele>383.0</ele><time>2026-04-11T12:51:15.421Z</time></trkpt><trkpt lat="44.0357533" lon="11.2408867"><ele>380.75</ele><time>2026-04-11T12:51:16.422Z</time></trkpt><trkpt lat="44.0356267" lon="11.2408067"><ele>378.5</ele><time>2026-04-11T12:51:17.421Z</time></trkpt><trkpt lat="44.0355" lon="11.240755"><ele>376.25</ele><time>2026-04-11T12:51:18.423Z</time></trkpt><trkpt lat="44.0353683" lon="11.2407367"><ele>374.0</ele><time>2026-04-11T12:51:19.422Z</time></trkpt><trkpt lat="44.0352417" lon="11.2407483"><ele>374.0</ele><time>2026-04-11T12:51:20.422Z</time></trkpt><trkpt lat="44.03512" lon="11.2407917"><ele>374.0</ele><time>2026-04-11T12:51:21.421Z</time></trkpt><trkpt lat="44.0349967" lon="11.24086"><ele>374.0</ele><time>2026-04-11T12:51:22.422Z</time></trkpt><trkpt lat="44.034875" lon="11.24093"><ele>374.0</ele><time>2026-04-11T12:51:23.421Z</time></trkpt><trkpt lat="44.034745" lon="11.2409717"><ele>375.25</ele><time>2026-04-11T12:51:24.422Z</time></trkpt><trkpt lat="44.0346033" lon="11.2409883"><ele>376.5</ele><time>2026-04-11T12:51:25.422Z</time></trkpt><trkpt lat="44.0344583" lon="11.241"><ele>377.75</ele><time>2026-04-11T12:51:26.423Z</time></trkpt><trkpt lat="44.0343117" lon="11.2410033"><ele>379.0</ele><time>2026-04-11T12:51:27.421Z</time></trkpt><trkpt lat="44.03416" lon="11.2410067"><ele>375.0</ele><time>2026-04-11T12:51:28.422Z</time></trkpt><trkpt lat="44.03401" lon="11.2410033"><ele>371.0</ele><time>2026-04-11T12:51:29.421Z</time></trkpt><trkpt lat="44.033855" lon="11.2409867"><ele>367.0</ele><time>2026-04-11T12:51:30.421Z</time></trkpt><trkpt lat="44.0336967" lon="11.2409583"><ele>367.0</ele><time>2026-04-11T12:51:31.422Z</time></trkpt><trkpt lat="44.0335367" lon="11.2409283"><ele>367.0</ele><time>2026-04-11T12:51:32.421Z</time></trkpt><trkpt lat="44.03338" lon="11.2408883"><ele>367.0</ele><time>2026-04-11T12:51:33.421Z</time></trkpt><trkpt lat="44.0332233" lon="11.2408367"><ele>366.0</ele><time>2026-04-11T12:51:34.422Z</time></trkpt><trkpt lat="44.03307" lon="11.2407733"><ele>365.0</ele><time>2026-04-11T12:51:35.421Z</time></trkpt><trkpt lat="44.0329217" lon="11.2406917"><ele>364.0</ele><time>2026-04-11T12:51:36.422Z</time></trkpt><trkpt lat="44.03278" lon="11.2406033"><ele>364.0</ele><time>2026-04-11T12:51:37.421Z</time></trkpt><trkpt lat="44.032625" lon="11.24053"><ele>364.0</ele><time>2026-04-11T12:51:38.422Z</time></trkpt><trkpt lat="44.03247" lon="11.240485"><ele>364.0</ele><time>2026-04-11T12:51:39.422Z</time></trkpt><trkpt lat="44.0323167" lon="11.24047"><ele>359.75</ele><time>2026-04-11T12:51:40.42Z</time></trkpt><trkpt lat="44.0321667" lon="11.240475"><ele>355.5</ele><time>2026-04-11T12:51:41.421Z</time></trkpt><trkpt lat="44.0320317" lon="11.2404883"><ele>351.25</ele><time>2026-04-11T12:51:42.423Z</time></trkpt><trkpt lat="44.0319117" lon="11.2404933"><ele>347.0</ele><time>2026-04-11T12:51:43.422Z</time></trkpt><trkpt lat="44.031805" lon="11.2404717"><ele>347.0</ele><time>2026-04-11T12:51:44.422Z</time></trkpt><trkpt lat="44.0317083" lon="11.240425"><ele>347.0</ele><time>2026-04-11T12:51:45.423Z</time></trkpt><trkpt lat="44.0316283" lon="11.2403417"><ele>347.0</ele><time>2026-04-11T12:51:46.422Z</time></trkpt><trkpt lat="44.0315533" lon="11.24022"><ele>347.0</ele><time>2026-04-11T12:51:47.421Z</time></trkpt><trkpt lat="44.0314817" lon="11.2400683"><ele>347.0</ele><time>2026-04-11T12:51:48.425Z</time></trkpt><trkpt lat="44.0314033" lon="11.23989"><ele>340.75</ele><time>2026-04-11T12:51:49.421Z</time></trkpt><trkpt lat="44.0313317" lon="11.2397167"><ele>334.5</ele><time>2026-04-11T12:51:50.421Z</time></trkpt><trkpt lat="44.0312767" lon="11.2395517"><ele>328.25</ele><time>2026-04-11T12:51:51.422Z</time></trkpt><trkpt lat="44.031245" lon="11.2393983"><ele>322.0</ele><time>2026-04-11T12:51:52.422Z</time></trkpt><trkpt lat="44.0312483" lon="11.2392433"><ele>322.0</ele><time>2026-04-11T12:51:53.421Z</time></trkpt><trkpt lat="44.0312833" lon="11.2390733"><ele>322.0</ele><time>2026-04-11T12:51:54.421Z</time></trkpt><trkpt lat="44.0313383" lon="11.2388967"><ele>322.0</ele><time>2026-04-11T12:51:55.423Z</time></trkpt><trkpt lat="44.0313817" lon="11.23873"><ele>322.0</ele><time>2026-04-11T12:51:56.422Z</time></trkpt><trkpt lat="44.0314033" lon="11.2385717"><ele>320.40000000000003</ele><time>2026-04-11T12:51:57.422Z</time></trkpt><trkpt lat="44.0313917" lon="11.2384217"><ele>318.8</ele><time>2026-04-11T12:51:58.421Z</time></trkpt><trkpt lat="44.0313483" lon="11.2382967"><ele>317.2</ele><time>2026-04-11T12:51:59.423Z</time></trkpt><trkpt lat="44.0312783" lon="11.2382033"><ele>315.6</ele><time>2026-04-11T12:52:00.423Z</time></trkpt><trkpt lat="44.031185" lon="11.2381483"><ele>314.0</ele><time>2026-04-11T12:52:01.422Z</time></trkpt><trkpt lat="44.03109" lon="11.2381533"><ele>314.0</ele><time>2026-04-11T12:52:02.423Z</time></trkpt><trkpt lat="44.031" lon="11.2382067"><ele>314.0</ele><time>2026-04-11T12:52:03.421Z</time></trkpt><trkpt lat="44.03091" lon="11.23831"><ele>314.0</ele><time>2026-04-11T12:52:04.422Z</time></trkpt><trkpt lat="44.0308283" lon="11.2384417"><ele>314.0</ele><time>2026-04-11T12:52:05.421Z</time></trkpt><trkpt lat="44.0307583" lon="11.2385733"><ele>313.6666666666667</ele><time>2026-04-11T12:52:06.423Z</time></trkpt><trkpt lat="44.0306933" lon="11.2386767"><ele>313.33333333333337</ele><time>2026-04-11T12:52:07.422Z</time></trkpt><trkpt lat="44.0306283" lon="11.2387517"><ele>313.0</ele><time>2026-04-11T12:52:08.423Z</time></trkpt><trkpt lat="44.0305667" lon="11.2388083"><ele>312.6666666666667</ele><time>2026-04-11T12:52:09.421Z</time></trkpt><trkpt lat="44.0305033" lon="11.238845"><ele>312.3333333333333</ele><time>2026-04-11T12:52:10.422Z</time></trkpt><trkpt lat="44.0303817" lon="11.23884"><ele>312.0</ele><time>2026-04-11T12:52:12.421Z</time></trkpt><trkpt lat="44.0303233" lon="11.2387733"><ele>312.0</ele><time>2026-04-11T12:52:13.422Z</time></trkpt><trkpt lat="44.030255" lon="11.2386933"><ele>312.0</ele><time>2026-04-11T12:52:14.422Z</time></trkpt><trkpt lat="44.0301767" lon="11.2386117"><ele>312.0</ele><time>2026-04-11T12:52:15.422Z</time></trkpt><trkpt lat="44.0300967" lon="11.2385267"><ele>312.0</ele><time>2026-04-11T12:52:16.42Z</time></trkpt><trkpt lat="44.030015" lon="11.2384383"><ele>312.0</ele><time>2026-04-11T12:52:17.422Z</time></trkpt><trkpt lat="44.0299217" lon="11.238335"><ele>311.75</ele><time>2026-04-11T12:52:18.422Z</time></trkpt><trkpt lat="44.0298183" lon="11.23823"><ele>311.5</ele><time>2026-04-11T12:52:19.421Z</time></trkpt><trkpt lat="44.0297067" lon="11.2381333"><ele>311.25</ele><time>2026-04-11T12:52:20.422Z</time></trkpt><trkpt lat="44.02958" lon="11.2380367"><ele>311.0</ele><time>2026-04-11T12:52:21.422Z</time></trkpt><trkpt lat="44.029435" lon="11.2379467"><ele>314.0</ele><time>2026-04-11T12:52:22.422Z</time></trkpt><trkpt lat="44.0292767" lon="11.237845"><ele>317.0</ele><time>2026-04-11T12:52:23.422Z</time></trkpt><trkpt lat="44.0291117" lon="11.237725"><ele>320.0</ele><time>2026-04-11T12:52:24.421Z</time></trkpt><trkpt lat="44.0289533" lon="11.2376183"><ele>320.0</ele><time>2026-04-11T12:52:25.421Z</time></trkpt><trkpt lat="44.02881" lon="11.23752"><ele>320.0</ele><time>2026-04-11T12:52:26.421Z</time></trkpt><trkpt lat="44.02868" lon="11.2374267"><ele>320.0</ele><time>2026-04-11T12:52:27.422Z</time></trkpt><trkpt lat="44.0285667" lon="11.2373317"><ele>320.0</ele><time>2026-04-11T12:52:28.421Z</time></trkpt><trkpt lat="44.0284583" lon="11.2372283"><ele>320.5</ele><time>2026-04-11T12:52:29.422Z</time></trkpt><trkpt lat="44.0283567" lon="11.2371133"><ele>321.0</ele><time>2026-04-11T12:52:30.42Z</time></trkpt><trkpt lat="44.028255" lon="11.2369883"><ele>321.5</ele><time>2026-04-11T12:52:31.42Z</time></trkpt><trkpt lat="44.0281533" lon="11.23687"><ele>322.0</ele><time>2026-04-11T12:52:32.421Z</time></trkpt><trkpt lat="44.0280433" lon="11.23676"><ele>322.0</ele><time>2026-04-11T12:52:33.42Z</time></trkpt><trkpt lat="44.0279267" lon="11.23667"><ele>322.0</ele><time>2026-04-11T12:52:34.422Z</time></trkpt><trkpt lat="44.027805" lon="11.2365983"><ele>322.0</ele><time>2026-04-11T12:52:35.42Z</time></trkpt><trkpt lat="44.0276783" lon="11.2365467"><ele>322.0</ele><time>2026-04-11T12:52:36.421Z</time></trkpt><trkpt lat="44.027545" lon="11.2365167"><ele>324.0</ele><time>2026-04-11T12:52:37.422Z</time></trkpt><trkpt lat="44.027405" lon="11.2364983"><ele>326.0</ele><time>2026-04-11T12:52:38.423Z</time></trkpt><trkpt lat="44.0272767" lon="11.23648"><ele>328.0</ele><time>2026-04-11T12:52:39.422Z</time></trkpt><trkpt lat="44.02716" lon="11.2364517"><ele>330.0</ele><time>2026-04-11T12:52:40.423Z</time></trkpt><trkpt lat="44.02705" lon="11.23641"><ele>330.0</ele><time>2026-04-11T12:52:41.421Z</time></trkpt><trkpt lat="44.026935" lon="11.23635"><ele>330.0</ele><time>2026-04-11T12:52:42.421Z</time></trkpt><trkpt lat="44.0268183" lon="11.236265"><ele>330.0</ele><time>2026-04-11T12:52:43.421Z</time></trkpt><trkpt lat="44.0267017" lon="11.2361767"><ele>330.0</ele><time>2026-04-11T12:52:44.421Z</time></trkpt><trkpt lat="44.0265867" lon="11.236105"><ele>326.25</ele><time>2026-04-11T12:52:45.421Z</time></trkpt><trkpt lat="44.0264567" lon="11.2360483"><ele>322.5</ele><time>2026-04-11T12:52:46.421Z</time></trkpt><trkpt lat="44.0263217" lon="11.23601"><ele>318.75</ele><time>2026-04-11T12:52:47.421Z</time></trkpt><trkpt lat="44.0261783" lon="11.2359817"><ele>315.0</ele><time>2026-04-11T12:52:48.422Z</time></trkpt><trkpt lat="44.0260367" lon="11.2359633"><ele>315.0</ele><time>2026-04-11T12:52:49.421Z</time></trkpt><trkpt lat="44.0258983" lon="11.2359483"><ele>315.0</ele><time>2026-04-11T12:52:50.422Z</time></trkpt><trkpt lat="44.02577" lon="11.23593"><ele>315.0</ele><time>2026-04-11T12:52:51.422Z</time></trkpt><trkpt lat="44.0256467" lon="11.2358933"><ele>315.0</ele><time>2026-04-11T12:52:52.422Z</time></trkpt><trkpt lat="44.0255183" lon="11.2358433"><ele>314.0</ele><time>2026-04-11T12:52:53.421Z</time></trkpt><trkpt lat="44.0253983" lon="11.2357817"><ele>313.0</ele><time>2026-04-11T12:52:54.423Z</time></trkpt><trkpt lat="44.0252817" lon="11.2357167"><ele>312.0</ele><time>2026-04-11T12:52:55.422Z</time></trkpt><trkpt lat="44.0251667" lon="11.235655"><ele>311.0</ele><time>2026-04-11T12:52:56.42Z</time></trkpt><trkpt lat="44.025055" lon="11.2355967"><ele>309.40000000000003</ele><time>2026-04-11T12:52:57.421Z</time></trkpt><trkpt lat="44.024945" lon="11.235545"><ele>307.8</ele><time>2026-04-11T12:52:58.423Z</time></trkpt><trkpt lat="44.0248433" lon="11.2355"><ele>306.20000000000005</ele><time>2026-04-11T12:52:59.421Z</time></trkpt><trkpt lat="44.02474" lon="11.235465"><ele>304.6</ele><time>2026-04-11T12:53:00.42Z</time></trkpt><trkpt lat="44.0246317" lon="11.235435"><ele>303.0</ele><time>2026-04-11T12:53:01.421Z</time></trkpt><trkpt lat="44.0245167" lon="11.235405"><ele>303.0</ele><time>2026-04-11T12:53:02.421Z</time></trkpt><trkpt lat="44.024405" lon="11.2353733"><ele>303.0</ele><time>2026-04-11T12:53:03.423Z</time></trkpt><trkpt lat="44.0242933" lon="11.2353433"><ele>303.0</ele><time>2026-04-11T12:53:04.42Z</time></trkpt><trkpt lat="44.02418" lon="11.2353167"><ele>303.0</ele><time>2026-04-11T12:53:05.423Z</time></trkpt><trkpt lat="44.0240717" lon="11.2352917"><ele>302.0</ele><time>2026-04-11T12:53:06.421Z</time></trkpt><trkpt lat="44.02396" lon="11.23527"><ele>301.0</ele><time>2026-04-11T12:53:07.419Z</time></trkpt><trkpt lat="44.023845" lon="11.235245"><ele>300.0</ele><time>2026-04-11T12:53:08.422Z</time></trkpt><trkpt lat="44.023725" lon="11.2352117"><ele>299.0</ele><time>2026-04-11T12:53:09.422Z</time></trkpt><trkpt lat="44.0236083" lon="11.23518"><ele>299.0</ele><time>2026-04-11T12:53:10.421Z</time></trkpt><trkpt lat="44.0234933" lon="11.235145"><ele>299.0</ele><time>2026-04-11T12:53:11.42Z</time></trkpt><trkpt lat="44.023375" lon="11.2351033"><ele>299.0</ele><time>2026-04-11T12:53:12.42Z</time></trkpt><trkpt lat="44.0232583" lon="11.235055"><ele>299.0</ele><time>2026-04-11T12:53:13.423Z</time></trkpt><trkpt lat="44.0231383" lon="11.235"><ele>298.75</ele><time>2026-04-11T12:53:14.423Z</time></trkpt><trkpt lat="44.0230233" lon="11.2349433"><ele>298.5</ele><time>2026-04-11T12:53:15.422Z</time></trkpt><trkpt lat="44.0229067" lon="11.234885"><ele>298.25</ele><time>2026-04-11T12:53:16.422Z</time></trkpt><trkpt lat="44.0227883" lon="11.2348133"><ele>298.0</ele><time>2026-04-11T12:53:17.422Z</time></trkpt><trkpt lat="44.0226683" lon="11.234725"><ele>298.0</ele><time>2026-04-11T12:53:18.419Z</time></trkpt><trkpt lat="44.0225483" lon="11.2346267"><ele>298.0</ele><time>2026-04-11T12:53:19.421Z</time></trkpt><trkpt lat="44.0224233" lon="11.23452"><ele>298.0</ele><time>2026-04-11T12:53:20.422Z</time></trkpt><trkpt lat="44.0223017" lon="11.2344083"><ele>298.0</ele><time>2026-04-11T12:53:21.422Z</time></trkpt><trkpt lat="44.0221967" lon="11.2343017"><ele>298.0</ele><time>2026-04-11T12:53:22.421Z</time></trkpt><trkpt lat="44.0221133" lon="11.23421"><ele>298.0</ele><time>2026-04-11T12:53:23.422Z</time></trkpt><trkpt lat="44.0220417" lon="11.2341317"><ele>298.0</ele><time>2026-04-11T12:53:24.422Z</time></trkpt><trkpt lat="44.0219817" lon="11.2340567"><ele>298.0</ele><time>2026-04-11T12:53:25.421Z</time></trkpt><trkpt lat="44.0219217" lon="11.23398"><ele>298.0</ele><time>2026-04-11T12:53:26.421Z</time></trkpt><trkpt lat="44.021855" lon="11.2338933"><ele>298.0</ele><time>2026-04-11T12:53:27.421Z</time></trkpt><trkpt lat="44.02179" lon="11.233805"><ele>298.0</ele><time>2026-04-11T12:53:28.421Z</time></trkpt><trkpt lat="44.0217317" lon="11.233715"><ele>298.0</ele><time>2026-04-11T12:53:29.42Z</time></trkpt><trkpt lat="44.0216717" lon="11.2336217"><ele>298.0</ele><time>2026-04-11T12:53:30.421Z</time></trkpt><trkpt lat="44.0216083" lon="11.233525"><ele>298.0</ele><time>2026-04-11T12:53:31.421Z</time></trkpt><trkpt lat="44.021545" lon="11.23343"><ele>297.8333333333333</ele><time>2026-04-11T12:53:32.421Z</time></trkpt><trkpt lat="44.021485" lon="11.2333417"><ele>297.66666666666663</ele><time>2026-04-11T12:53:33.422Z</time></trkpt><trkpt lat="44.02143" lon="11.2332567"><ele>297.5</ele><time>2026-04-11T12:53:34.42Z</time></trkpt><trkpt lat="44.02138" lon="11.23318"><ele>297.3333333333333</ele><time>2026-04-11T12:53:35.423Z</time></trkpt><trkpt lat="44.0213283" lon="11.233105"><ele>297.1666666666667</ele><time>2026-04-11T12:53:36.422Z</time></trkpt><trkpt lat="44.02128" lon="11.2330217"><ele>297.0</ele><time>2026-04-11T12:53:37.422Z</time></trkpt><trkpt lat="44.0212317" lon="11.2329367"><ele>297.0</ele><time>2026-04-11T12:53:38.42Z</time></trkpt><trkpt lat="44.0211767" lon="11.2328483"><ele>297.0</ele><time>2026-04-11T12:53:39.421Z</time></trkpt><trkpt lat="44.0211167" lon="11.2327583"><ele>297.0</ele><time>2026-04-11T12:53:40.423Z</time></trkpt><trkpt lat="44.0210567" lon="11.2326667"><ele>297.0</ele><time>2026-04-11T12:53:41.422Z</time></trkpt><trkpt lat="44.020995" lon="11.2325767"><ele>297.0</ele><time>2026-04-11T12:53:42.422Z</time></trkpt><trkpt lat="44.0209333" lon="11.2324817"><ele>297.0</ele><time>2026-04-11T12:53:43.422Z</time></trkpt><trkpt lat="44.020875" lon="11.2323833"><ele>297.2</ele><time>2026-04-11T12:53:44.42Z</time></trkpt><trkpt lat="44.0208167" lon="11.2322817"><ele>297.4</ele><time>2026-04-11T12:53:45.421Z</time></trkpt><trkpt lat="44.02075" lon="11.232175"><ele>297.6</ele><time>2026-04-11T12:53:46.423Z</time></trkpt><trkpt lat="44.020675" lon="11.2320633"><ele>297.8</ele><time>2026-04-11T12:53:47.42Z</time></trkpt><trkpt lat="44.0206017" lon="11.2319583"><ele>298.0</ele><time>2026-04-11T12:53:48.423Z</time></trkpt><trkpt lat="44.0205317" lon="11.2318583"><ele>298.0</ele><time>2026-04-11T12:53:49.421Z</time></trkpt><trkpt lat="44.0204667" lon="11.2317583"><ele>298.0</ele><time>2026-04-11T12:53:50.422Z</time></trkpt><trkpt lat="44.0204033" lon="11.2316617"><ele>298.0</ele><time>2026-04-11T12:53:51.42Z</time></trkpt><trkpt lat="44.020345" lon="11.2315717"><ele>298.0</ele><time>2026-04-11T12:53:52.422Z</time></trkpt><trkpt lat="44.0202933" lon="11.2314867"><ele>298.0</ele><time>2026-04-11T12:53:53.423Z</time></trkpt><trkpt lat="44.0202417" lon="11.2314083"><ele>298.0</ele><time>2026-04-11T12:53:54.421Z</time></trkpt><trkpt lat="44.0201867" lon="11.2313283"><ele>297.8333333333333</ele><time>2026-04-11T12:53:55.423Z</time></trkpt><trkpt lat="44.02013" lon="11.2312433"><ele>297.66666666666663</ele><time>2026-04-11T12:53:56.421Z</time></trkpt><trkpt lat="44.0200717" lon="11.2311517"><ele>297.5</ele><time>2026-04-11T12:53:57.421Z</time></trkpt><trkpt lat="44.0200133" lon="11.2310617"><ele>297.3333333333333</ele><time>2026-04-11T12:53:58.422Z</time></trkpt><trkpt lat="44.0199533" lon="11.2309717"><ele>297.1666666666667</ele><time>2026-04-11T12:53:59.418Z</time></trkpt><trkpt lat="44.01989" lon="11.2308733"><ele>297.0</ele><time>2026-04-11T12:54:00.421Z</time></trkpt><trkpt lat="44.019825" lon="11.230775"><ele>297.0</ele><time>2026-04-11T12:54:01.421Z</time></trkpt><trkpt lat="44.01976" lon="11.230675"><ele>297.0</ele><time>2026-04-11T12:54:02.421Z</time></trkpt><trkpt lat="44.01969" lon="11.2305667"><ele>297.0</ele><time>2026-04-11T12:54:03.421Z</time></trkpt><trkpt lat="44.0196217" lon="11.230455"><ele>297.0</ele><time>2026-04-11T12:54:04.421Z</time></trkpt><trkpt lat="44.019555" lon="11.2303483"><ele>297.0</ele><time>2026-04-11T12:54:05.422Z</time></trkpt><trkpt lat="44.0194883" lon="11.2302533"><ele>297.4</ele><time>2026-04-11T12:54:06.421Z</time></trkpt><trkpt lat="44.0194217" lon="11.2301617"><ele>297.79999999999995</ele><time>2026-04-11T12:54:07.421Z</time></trkpt><trkpt lat="44.0193567" lon="11.2300633"><ele>298.2</ele><time>2026-04-11T12:54:08.422Z</time></trkpt><trkpt lat="44.0192883" lon="11.2299583"><ele>298.59999999999997</ele><time>2026-04-11T12:54:09.42Z</time></trkpt><trkpt lat="44.019225" lon="11.2298567"><ele>299.0</ele><time>2026-04-11T12:54:10.421Z</time></trkpt><trkpt lat="44.01916" lon="11.22976"><ele>299.33333333333337</ele><time>2026-04-11T12:54:11.422Z</time></trkpt><trkpt lat="44.0190917" lon="11.2296683"><ele>299.6666666666667</ele><time>2026-04-11T12:54:12.42Z</time></trkpt><trkpt lat="44.0190283" lon="11.2295833"><ele>300.0</ele><time>2026-04-11T12:54:13.419Z</time></trkpt><trkpt lat="44.0189717" lon="11.2295067"><ele>300.3333333333333</ele><time>2026-04-11T12:54:14.42Z</time></trkpt><trkpt lat="44.0189217" lon="11.2294367"><ele>300.66666666666663</ele><time>2026-04-11T12:54:15.421Z</time></trkpt><trkpt lat="44.01885" lon="11.2293433"><ele>301.0</ele><time>2026-04-11T12:54:17.419Z</time></trkpt><trkpt lat="44.0187583" lon="11.2293483"><ele>301.0</ele><time>2026-04-11T12:54:21.421Z</time></trkpt><trkpt lat="44.018705" lon="11.22944"><ele>301.0</ele><time>2026-04-11T12:54:22.421Z</time></trkpt><trkpt lat="44.0186433" lon="11.2295567"><ele>301.0</ele><time>2026-04-11T12:54:23.42Z</time></trkpt><trkpt lat="44.01855" lon="11.229705"><ele>301.0</ele><time>2026-04-11T12:54:24.422Z</time></trkpt><trkpt lat="44.0184133" lon="11.229855"><ele>298.66666666666663</ele><time>2026-04-11T12:54:25.42Z</time></trkpt><trkpt lat="44.01826" lon="11.2300233"><ele>296.3333333333333</ele><time>2026-04-11T12:54:26.423Z</time></trkpt><trkpt lat="44.018105" lon="11.230205"><ele>294.0</ele><time>2026-04-11T12:54:27.419Z</time></trkpt><trkpt lat="44.01797" lon="11.23038"><ele>294.0</ele><time>2026-04-11T12:54:28.421Z</time></trkpt><trkpt lat="44.0178483" lon="11.230545"><ele>294.0</ele><time>2026-04-11T12:54:29.421Z</time></trkpt><trkpt lat="44.0177417" lon="11.230695"><ele>294.0</ele><time>2026-04-11T12:54:30.422Z</time></trkpt><trkpt lat="44.017645" lon="11.230825"><ele>294.2</ele><time>2026-04-11T12:54:31.421Z</time></trkpt><trkpt lat="44.0175583" lon="11.230935"><ele>294.4</ele><time>2026-04-11T12:54:32.421Z</time></trkpt><trkpt lat="44.0174783" lon="11.2310267"><ele>294.6</ele><time>2026-04-11T12:54:33.42Z</time></trkpt><trkpt lat="44.0174017" lon="11.2311133"><ele>294.8</ele><time>2026-04-11T12:54:34.42Z</time></trkpt><trkpt lat="44.0173267" lon="11.2312033"><ele>295.0</ele><time>2026-04-11T12:54:35.42Z</time></trkpt><trkpt lat="44.01726" lon="11.2312967"><ele>294.5</ele><time>2026-04-11T12:54:36.421Z</time></trkpt><trkpt lat="44.0172" lon="11.2313833"><ele>294.0</ele><time>2026-04-11T12:54:37.422Z</time></trkpt><trkpt lat="44.0171433" lon="11.2314733"><ele>293.5</ele><time>2026-04-11T12:54:38.421Z</time></trkpt><trkpt lat="44.017085" lon="11.2315567"><ele>293.0</ele><time>2026-04-11T12:54:39.422Z</time></trkpt><trkpt lat="44.0170283" lon="11.2316267"><ele>292.5</ele><time>2026-04-11T12:54:40.419Z</time></trkpt><trkpt lat="44.01697" lon="11.23169"><ele>292.0</ele><time>2026-04-11T12:54:41.422Z</time></trkpt><trkpt lat="44.0169133" lon="11.2317433"><ele>292.0</ele><time>2026-04-11T12:54:42.421Z</time></trkpt><trkpt lat="44.016805" lon="11.231775"><ele>292.0</ele><time>2026-04-11T12:54:44.422Z</time></trkpt><trkpt lat="44.0167133" lon="11.231745"><ele>292.0</ele><time>2026-04-11T12:54:46.421Z</time></trkpt><trkpt lat="44.016615" lon="11.231625"><ele>292.0</ele><time>2026-04-11T12:54:48.421Z</time></trkpt><trkpt lat="44.016555" lon="11.2314933"><ele>292.0</ele><time>2026-04-11T12:54:49.421Z</time></trkpt><trkpt lat="44.0164833" lon="11.2313433"><ele>291.3333333333333</ele><time>2026-04-11T12:54:50.421Z</time></trkpt><trkpt lat="44.016395" lon="11.2311733"><ele>290.6666666666667</ele><time>2026-04-11T12:54:51.422Z</time></trkpt><trkpt lat="44.0162917" lon="11.23099"><ele>290.0</ele><time>2026-04-11T12:54:52.421Z</time></trkpt><trkpt lat="44.0161817" lon="11.2308017"><ele>291.25</ele><time>2026-04-11T12:54:53.422Z</time></trkpt><trkpt lat="44.0160883" lon="11.2306367"><ele>292.5</ele><time>2026-04-11T12:54:54.422Z</time></trkpt><trkpt lat="44.016005" lon="11.2304917"><ele>293.75</ele><time>2026-04-11T12:54:55.421Z</time></trkpt><trkpt lat="44.0159333" lon="11.2303617"><ele>295.0</ele><time>2026-04-11T12:54:56.422Z</time></trkpt><trkpt lat="44.01588" lon="11.2302533"><ele>295.0</ele><time>2026-04-11T12:54:57.422Z</time></trkpt><trkpt lat="44.01584" lon="11.2301683"><ele>295.0</ele><time>2026-04-11T12:54:58.421Z</time></trkpt><trkpt lat="44.015795" lon="11.2301033"><ele>295.0</ele><time>2026-04-11T12:54:59.42Z</time></trkpt><trkpt lat="44.015695" lon="11.2300467"><ele>295.0</ele><time>2026-04-11T12:55:01.421Z</time></trkpt><trkpt lat="44.0156283" lon="11.230065"><ele>295.0</ele><time>2026-04-11T12:55:02.422Z</time></trkpt><trkpt lat="44.015545" lon="11.2301283"><ele>295.0</ele><time>2026-04-11T12:55:03.42Z</time></trkpt><trkpt lat="44.0154333" lon="11.2302083"><ele>295.66666666666663</ele><time>2026-04-11T12:55:04.421Z</time></trkpt><trkpt lat="44.0152733" lon="11.2303033"><ele>296.3333333333333</ele><time>2026-04-11T12:55:05.42Z</time></trkpt><trkpt lat="44.0151167" lon="11.2303683"><ele>297.0</ele><time>2026-04-11T12:55:06.423Z</time></trkpt><trkpt lat="44.014945" lon="11.2304167"><ele>298.0</ele><time>2026-04-11T12:55:07.423Z</time></trkpt><trkpt lat="44.014765" lon="11.23045"><ele>299.0</ele><time>2026-04-11T12:55:08.423Z</time></trkpt><trkpt lat="44.014585" lon="11.23047"><ele>300.0</ele><time>2026-04-11T12:55:09.423Z</time></trkpt><trkpt lat="44.0144083" lon="11.2304667"><ele>300.0</ele><time>2026-04-11T12:55:10.422Z</time></trkpt><trkpt lat="44.014225" lon="11.2304367"><ele>300.0</ele><time>2026-04-11T12:55:11.419Z</time></trkpt><trkpt lat="44.01403" lon="11.23038"><ele>300.0</ele><time>2026-04-11T12:55:12.422Z</time></trkpt><trkpt lat="44.0138217" lon="11.2303117"><ele>297.5</ele><time>2026-04-11T12:55:13.423Z</time></trkpt><trkpt lat="44.0135983" lon="11.2302367"><ele>295.0</ele><time>2026-04-11T12:55:14.422Z</time></trkpt><trkpt lat="44.0133683" lon="11.23016"><ele>292.0</ele><time>2026-04-11T12:55:15.42Z</time></trkpt><trkpt lat="44.0131283" lon="11.2300817"><ele>289.0</ele><time>2026-04-11T12:55:16.418Z</time></trkpt><trkpt lat="44.0128917" lon="11.2300017"><ele>289.0</ele><time>2026-04-11T12:55:17.423Z</time></trkpt><trkpt lat="44.0126717" lon="11.229925"><ele>289.0</ele><time>2026-04-11T12:55:18.418Z</time></trkpt><trkpt lat="44.012455" lon="11.2298517"><ele>289.3333333333333</ele><time>2026-04-11T12:55:19.418Z</time></trkpt><trkpt lat="44.0122533" lon="11.2297867"><ele>289.6666666666667</ele><time>2026-04-11T12:55:20.418Z</time></trkpt><trkpt lat="44.0120533" lon="11.2297467"><ele>290.0</ele><time>2026-04-11T12:55:21.419Z</time></trkpt><trkpt lat="44.0118417" lon="11.2297283"><ele>291.33333333333337</ele><time>2026-04-11T12:55:22.418Z</time></trkpt><trkpt lat="44.0116283" lon="11.229755"><ele>292.6666666666667</ele><time>2026-04-11T12:55:23.419Z</time></trkpt><trkpt lat="44.01143" lon="11.2298167"><ele>294.0</ele><time>2026-04-11T12:55:24.42Z</time></trkpt><trkpt lat="44.0112417" lon="11.2299183"><ele>294.0</ele><time>2026-04-11T12:55:25.419Z</time></trkpt><trkpt lat="44.011055" lon="11.2300617"><ele>294.0</ele><time>2026-04-11T12:55:26.419Z</time></trkpt><trkpt lat="44.0108733" lon="11.2302333"><ele>294.0</ele><time>2026-04-11T12:55:27.418Z</time></trkpt><trkpt lat="44.0106967" lon="11.2304167"><ele>296.0</ele><time>2026-04-11T12:55:28.418Z</time></trkpt><trkpt lat="44.0105333" lon="11.230555"><ele>298.0</ele><time>2026-04-11T12:55:29.418Z</time></trkpt><trkpt lat="44.0103633" lon="11.2306717"><ele>300.0</ele><time>2026-04-11T12:55:30.418Z</time></trkpt><trkpt lat="44.0101683" lon="11.2307617"><ele>294.3333333333333</ele><time>2026-04-11T12:55:31.418Z</time></trkpt><trkpt lat="44.0099667" lon="11.2308"><ele>288.66666666666663</ele><time>2026-04-11T12:55:32.42Z</time></trkpt><trkpt lat="44.00976" lon="11.2308083"><ele>283.0</ele><time>2026-04-11T12:55:33.418Z</time></trkpt><trkpt lat="44.0095483" lon="11.2307867"><ele>283.0</ele><time>2026-04-11T12:55:34.419Z</time></trkpt><trkpt lat="44.0093383" lon="11.23073"><ele>283.0</ele><time>2026-04-11T12:55:35.42Z</time></trkpt><trkpt lat="44.0091367" lon="11.2306283"><ele>283.0</ele><time>2026-04-11T12:55:36.419Z</time></trkpt><trkpt lat="44.0089417" lon="11.230495"><ele>294.5</ele><time>2026-04-11T12:55:37.419Z</time></trkpt><trkpt lat="44.0087483" lon="11.230335"><ele>306.0</ele><time>2026-04-11T12:55:38.419Z</time></trkpt><trkpt lat="44.008555" lon="11.230165"><ele>306.0</ele><time>2026-04-11T12:55:39.422Z</time></trkpt><trkpt lat="44.0083517" lon="11.22998"><ele>306.0</ele><time>2026-04-11T12:55:40.42Z</time></trkpt><trkpt lat="44.0081533" lon="11.2298033"><ele>310.5</ele><time>2026-04-11T12:55:41.42Z</time></trkpt><trkpt lat="44.00796" lon="11.2296317"><ele>315.0</ele><time>2026-04-11T12:55:42.419Z</time></trkpt><trkpt lat="44.007765" lon="11.229455"><ele>315.0</ele><time>2026-04-11T12:55:43.42Z</time></trkpt><trkpt lat="44.0075733" lon="11.22927"><ele>315.0</ele><time>2026-04-11T12:55:44.42Z</time></trkpt><trkpt lat="44.0073833" lon="11.2290917"><ele>314.0</ele><time>2026-04-11T12:55:45.419Z</time></trkpt><trkpt lat="44.0071917" lon="11.228915"><ele>313.0</ele><time>2026-04-11T12:55:46.421Z</time></trkpt><trkpt lat="44.007005" lon="11.22874"><ele>313.0</ele><time>2026-04-11T12:55:47.42Z</time></trkpt><trkpt lat="44.0068217" lon="11.2285717"><ele>313.0</ele><time>2026-04-11T12:55:48.421Z</time></trkpt><trkpt lat="44.006635" lon="11.2283983"><ele>313.0</ele><time>2026-04-11T12:55:49.421Z</time></trkpt><trkpt lat="44.00654" lon="11.22837"><ele>312.3333333333333</ele><time>2026-04-11T12:55:52.419Z</time></trkpt><trkpt lat="44.0064117" lon="11.2282667"><ele>311.6666666666667</ele><time>2026-04-11T12:55:53.422Z</time></trkpt><trkpt lat="44.006275" lon="11.2281633"><ele>311.0</ele><time>2026-04-11T12:55:54.42Z</time></trkpt><trkpt lat="44.006125" lon="11.2280817"><ele>313.0</ele><time>2026-04-11T12:55:55.42Z</time></trkpt><trkpt lat="44.005965" lon="11.22802"><ele>315.0</ele><time>2026-04-11T12:55:56.422Z</time></trkpt><trkpt lat="44.0057933" lon="11.2279767"><ele>317.0</ele><time>2026-04-11T12:55:57.419Z</time></trkpt><trkpt lat="44.0056117" lon="11.22795"><ele>318.0</ele><time>2026-04-11T12:55:58.42Z</time></trkpt><trkpt lat="44.0054233" lon="11.2279483"><ele>319.0</ele><time>2026-04-11T12:55:59.42Z</time></trkpt><trkpt lat="44.0052367" lon="11.227975"><ele>320.0</ele><time>2026-04-11T12:56:00.421Z</time></trkpt><trkpt lat="44.0050567" lon="11.2280267"><ele>317.0</ele><time>2026-04-11T12:56:01.42Z</time></trkpt><trkpt lat="44.0048867" lon="11.2280967"><ele>314.0</ele><time>2026-04-11T12:56:02.421Z</time></trkpt><trkpt lat="44.0047167" lon="11.228185"><ele>311.0</ele><time>2026-04-11T12:56:03.421Z</time></trkpt><trkpt lat="44.0045517" lon="11.2282867"><ele>309.6666666666667</ele><time>2026-04-11T12:56:04.42Z</time></trkpt><trkpt lat="44.0043917" lon="11.228395"><ele>308.3333333333333</ele><time>2026-04-11T12:56:05.42Z</time></trkpt><trkpt lat="44.0042317" lon="11.2285117"><ele>307.0</ele><time>2026-04-11T12:56:06.421Z</time></trkpt><trkpt lat="44.0040733" lon="11.228625"><ele>307.0</ele><time>2026-04-11T12:56:07.421Z</time></trkpt><trkpt lat="44.0039117" lon="11.2287383"><ele>307.0</ele><time>2026-04-11T12:56:08.421Z</time></trkpt><trkpt lat="44.0037467" lon="11.22885"><ele>307.0</ele><time>2026-04-11T12:56:09.419Z</time></trkpt><trkpt lat="44.0035833" lon="11.2289633"><ele>307.0</ele><time>2026-04-11T12:56:10.421Z</time></trkpt><trkpt lat="44.0034183" lon="11.2290767"><ele>307.0</ele><time>2026-04-11T12:56:11.421Z</time></trkpt><trkpt lat="44.0032567" lon="11.2291883"><ele>307.0</ele><time>2026-04-11T12:56:12.42Z</time></trkpt><trkpt lat="44.0031033" lon="11.2292917"><ele>307.0</ele><time>2026-04-11T12:56:13.421Z</time></trkpt><trkpt lat="44.0029667" lon="11.2293833"><ele>307.0</ele><time>2026-04-11T12:56:14.421Z</time></trkpt><trkpt lat="44.0028417" lon="11.2294617"><ele>307.0</ele><time>2026-04-11T12:56:15.421Z</time></trkpt><trkpt lat="44.00272" lon="11.2295417"><ele>307.0</ele><time>2026-04-11T12:56:16.42Z</time></trkpt><trkpt lat="44.002605" lon="11.2296217"><ele>306.75</ele><time>2026-04-11T12:56:17.42Z</time></trkpt><trkpt lat="44.002495" lon="11.2296933"><ele>306.5</ele><time>2026-04-11T12:56:18.421Z</time></trkpt><trkpt lat="44.0023783" lon="11.22976"><ele>306.25</ele><time>2026-04-11T12:56:19.422Z</time></trkpt><trkpt lat="44.00225" lon="11.229815"><ele>306.0</ele><time>2026-04-11T12:56:20.421Z</time></trkpt><trkpt lat="44.0021117" lon="11.2298583"><ele>305.6666666666667</ele><time>2026-04-11T12:56:21.42Z</time></trkpt><trkpt lat="44.0019667" lon="11.2299"><ele>305.33333333333337</ele><time>2026-04-11T12:56:22.422Z</time></trkpt><trkpt lat="44.0018183" lon="11.22994"><ele>305.0</ele><time>2026-04-11T12:56:23.421Z</time></trkpt><trkpt lat="44.00167" lon="11.2299833"><ele>302.33333333333337</ele><time>2026-04-11T12:56:24.42Z</time></trkpt><trkpt lat="44.0015183" lon="11.2300317"><ele>299.6666666666667</ele><time>2026-04-11T12:56:25.42Z</time></trkpt><trkpt lat="44.0013667" lon="11.2300867"><ele>297.0</ele><time>2026-04-11T12:56:26.42Z</time></trkpt><trkpt lat="44.0012267" lon="11.2301533"><ele>297.0</ele><time>2026-04-11T12:56:27.421Z</time></trkpt><trkpt lat="44.0010967" lon="11.2302333"><ele>297.0</ele><time>2026-04-11T12:56:28.42Z</time></trkpt><trkpt lat="44.0009767" lon="11.2303267"><ele>297.0</ele><time>2026-04-11T12:56:29.419Z</time></trkpt><trkpt lat="44.0008617" lon="11.2304217"><ele>297.0</ele><time>2026-04-11T12:56:30.422Z</time></trkpt><trkpt lat="44.0007533" lon="11.2305117"><ele>297.4</ele><time>2026-04-11T12:56:31.421Z</time></trkpt><trkpt lat="44.0006483" lon="11.2305933"><ele>297.79999999999995</ele><time>2026-04-11T12:56:32.419Z</time></trkpt><trkpt lat="44.0005517" lon="11.2306683"><ele>298.2</ele><time>2026-04-11T12:56:33.42Z</time></trkpt><trkpt lat="44.0004633" lon="11.2307383"><ele>298.59999999999997</ele><time>2026-04-11T12:56:34.419Z</time></trkpt><trkpt lat="44.0003783" lon="11.230805"><ele>299.0</ele><time>2026-04-11T12:56:35.42Z</time></trkpt><trkpt lat="44.0002967" lon="11.23087"><ele>299.0</ele><time>2026-04-11T12:56:36.421Z</time></trkpt><trkpt lat="44.0002183" lon="11.2309333"><ele>299.0</ele><time>2026-04-11T12:56:37.422Z</time></trkpt><trkpt lat="44.0001417" lon="11.2309933"><ele>299.0</ele><time>2026-04-11T12:56:38.421Z</time></trkpt><trkpt lat="44.0000667" lon="11.2310533"><ele>299.0</ele><time>2026-04-11T12:56:39.421Z</time></trkpt><trkpt lat="43.9999933" lon="11.2311117"><ele>299.0</ele><time>2026-04-11T12:56:40.421Z</time></trkpt><trkpt lat="43.9999233" lon="11.2311667"><ele>299.0</ele><time>2026-04-11T12:56:41.42Z</time></trkpt><trkpt lat="43.999855" lon="11.2312133"><ele>299.0</ele><time>2026-04-11T12:56:42.421Z</time></trkpt><trkpt lat="43.99979" lon="11.2312583"><ele>299.0</ele><time>2026-04-11T12:56:43.421Z</time></trkpt><trkpt lat="43.9997283" lon="11.2313017"><ele>299.0</ele><time>2026-04-11T12:56:44.422Z</time></trkpt><trkpt lat="43.9996633" lon="11.2313417"><ele>299.0</ele><time>2026-04-11T12:56:45.42Z</time></trkpt><trkpt lat="43.9996" lon="11.2313783"><ele>299.0</ele><time>2026-04-11T12:56:46.421Z</time></trkpt><trkpt lat="43.9994917" lon="11.23143"><ele>299.0</ele><time>2026-04-11T12:56:48.419Z</time></trkpt><trkpt lat="43.9994183" lon="11.2314583"><ele>299.0</ele><time>2026-04-11T12:56:50.421Z</time></trkpt><trkpt lat="43.9993233" lon="11.231505"><ele>299.0</ele><time>2026-04-11T12:56:59.42Z</time></trkpt><trkpt lat="43.9992433" lon="11.2315467"><ele>299.0</ele><time>2026-04-11T12:57:00.421Z</time></trkpt><trkpt lat="43.9991533" lon="11.231595"><ele>299.0</ele><time>2026-04-11T12:57:01.42Z</time></trkpt><trkpt lat="43.9990483" lon="11.231645"><ele>299.0</ele><time>2026-04-11T12:57:02.421Z</time></trkpt><trkpt lat="43.9989383" lon="11.2317"><ele>298.0</ele><time>2026-04-11T12:57:03.419Z</time></trkpt><trkpt lat="43.9988233" lon="11.2317567"><ele>297.0</ele><time>2026-04-11T12:57:04.422Z</time></trkpt><trkpt lat="43.9987033" lon="11.2318133"><ele>296.0</ele><time>2026-04-11T12:57:05.421Z</time></trkpt><trkpt lat="43.99858" lon="11.2318733"><ele>295.0</ele><time>2026-04-11T12:57:06.42Z</time></trkpt><trkpt lat="43.9984517" lon="11.231935"><ele>294.25</ele><time>2026-04-11T12:57:07.42Z</time></trkpt><trkpt lat="43.9983267" lon="11.2319967"><ele>293.5</ele><time>2026-04-11T12:57:08.422Z</time></trkpt><trkpt lat="43.9982017" lon="11.2320583"><ele>292.75</ele><time>2026-04-11T12:57:09.419Z</time></trkpt><trkpt lat="43.9980733" lon="11.2321183"><ele>292.0</ele><time>2026-04-11T12:57:10.419Z</time></trkpt><trkpt lat="43.997945" lon="11.2321817"><ele>292.0</ele><time>2026-04-11T12:57:11.421Z</time></trkpt><trkpt lat="43.9978167" lon="11.232245"><ele>292.0</ele><time>2026-04-11T12:57:12.421Z</time></trkpt><trkpt lat="43.997685" lon="11.2323083"><ele>292.0</ele><time>2026-04-11T12:57:13.422Z</time></trkpt><trkpt lat="43.99755" lon="11.23237"><ele>292.0</ele><time>2026-04-11T12:57:14.422Z</time></trkpt><trkpt lat="43.9974133" lon="11.23243"><ele>292.0</ele><time>2026-04-11T12:57:15.419Z</time></trkpt><trkpt lat="43.9972733" lon="11.2324867"><ele>292.0</ele><time>2026-04-11T12:57:16.421Z</time></trkpt><trkpt lat="43.9971367" lon="11.2325433"><ele>292.0</ele><time>2026-04-11T12:57:17.42Z</time></trkpt><trkpt lat="43.9969967" lon="11.2325983"><ele>292.0</ele><time>2026-04-11T12:57:18.42Z</time></trkpt><trkpt lat="43.9968633" lon="11.2326533"><ele>292.0</ele><time>2026-04-11T12:57:19.42Z</time></trkpt><trkpt lat="43.9967333" lon="11.2327"><ele>292.0</ele><time>2026-04-11T12:57:20.422Z</time></trkpt><trkpt lat="43.99661" lon="11.2327417"><ele>292.0</ele><time>2026-04-11T12:57:21.42Z</time></trkpt><trkpt lat="43.9964833" lon="11.2327817"><ele>292.0</ele><time>2026-04-11T12:57:22.421Z</time></trkpt><trkpt lat="43.9963567" lon="11.2328233"><ele>291.25</ele><time>2026-04-11T12:57:23.421Z</time></trkpt><trkpt lat="43.9962217" lon="11.2328633"><ele>290.5</ele><time>2026-04-11T12:57:24.422Z</time></trkpt><trkpt lat="43.99608" lon="11.232905"><ele>289.75</ele><time>2026-04-11T12:57:25.421Z</time></trkpt><trkpt lat="43.995935" lon="11.2329483"><ele>289.0</ele><time>2026-04-11T12:57:26.421Z</time></trkpt><trkpt lat="43.9957867" lon="11.23299"><ele>286.3333333333333</ele><time>2026-04-11T12:57:27.419Z</time></trkpt><trkpt lat="43.9956383" lon="11.233035"><ele>283.6666666666667</ele><time>2026-04-11T12:57:28.418Z</time></trkpt><trkpt lat="43.9954867" lon="11.23308"><ele>281.0</ele><time>2026-04-11T12:57:29.418Z</time></trkpt><trkpt lat="43.995335" lon="11.2331267"><ele>280.33333333333337</ele><time>2026-04-11T12:57:30.42Z</time></trkpt><trkpt lat="43.9951783" lon="11.2331733"><ele>279.6666666666667</ele><time>2026-04-11T12:57:31.421Z</time></trkpt><trkpt lat="43.9950217" lon="11.2332217"><ele>279.0</ele><time>2026-04-11T12:57:32.421Z</time></trkpt><trkpt lat="43.9948667" lon="11.23327"><ele>279.0</ele><time>2026-04-11T12:57:33.421Z</time></trkpt><trkpt lat="43.9947167" lon="11.233325"><ele>279.0</ele><time>2026-04-11T12:57:34.419Z</time></trkpt><trkpt lat="43.9945667" lon="11.2333867"><ele>279.0</ele><time>2026-04-11T12:57:35.421Z</time></trkpt><trkpt lat="43.994415" lon="11.2334567"><ele>279.0</ele><time>2026-04-11T12:57:36.421Z</time></trkpt><trkpt lat="43.9942633" lon="11.2335367"><ele>279.0</ele><time>2026-04-11T12:57:37.421Z</time></trkpt><trkpt lat="43.99411" lon="11.2336183"><ele>279.0</ele><time>2026-04-11T12:57:38.423Z</time></trkpt><trkpt lat="43.993955" lon="11.2337033"><ele>277.6666666666667</ele><time>2026-04-11T12:57:39.42Z</time></trkpt><trkpt lat="43.9938033" lon="11.2337917"><ele>276.33333333333337</ele><time>2026-04-11T12:57:40.423Z</time></trkpt><trkpt lat="43.993655" lon="11.2338833"><ele>275.0</ele><time>2026-04-11T12:57:41.422Z</time></trkpt><trkpt lat="43.9935167" lon="11.233975"><ele>275.0</ele><time>2026-04-11T12:57:42.422Z</time></trkpt><trkpt lat="43.9933883" lon="11.2340733"><ele>275.0</ele><time>2026-04-11T12:57:43.421Z</time></trkpt><trkpt lat="43.9932733" lon="11.2341833"><ele>275.0</ele><time>2026-04-11T12:57:44.422Z</time></trkpt><trkpt lat="43.9931667" lon="11.2342967"><ele>275.0</ele><time>2026-04-11T12:57:45.42Z</time></trkpt><trkpt lat="43.993065" lon="11.234415"><ele>274.0</ele><time>2026-04-11T12:57:46.42Z</time></trkpt><trkpt lat="43.9929683" lon="11.23452"><ele>273.0</ele><time>2026-04-11T12:57:47.422Z</time></trkpt><trkpt lat="43.99287" lon="11.23462"><ele>272.0</ele><time>2026-04-11T12:57:48.421Z</time></trkpt><trkpt lat="43.9927733" lon="11.234715"><ele>271.0</ele><time>2026-04-11T12:57:49.422Z</time></trkpt><trkpt lat="43.9926717" lon="11.234815"><ele>270.25</ele><time>2026-04-11T12:57:50.422Z</time></trkpt><trkpt lat="43.9925683" lon="11.2349183"><ele>269.5</ele><time>2026-04-11T12:57:51.421Z</time></trkpt><trkpt lat="43.9924617" lon="11.235025"><ele>268.75</ele><time>2026-04-11T12:57:52.421Z</time></trkpt><trkpt lat="43.992355" lon="11.235135"><ele>268.0</ele><time>2026-04-11T12:57:53.423Z</time></trkpt><trkpt lat="43.9922533" lon="11.2352383"><ele>267.8333333333333</ele><time>2026-04-11T12:57:54.419Z</time></trkpt><trkpt lat="43.9921617" lon="11.2353283"><ele>267.66666666666663</ele><time>2026-04-11T12:57:55.421Z</time></trkpt><trkpt lat="43.9920833" lon="11.2354033"><ele>267.5</ele><time>2026-04-11T12:57:56.422Z</time></trkpt><trkpt lat="43.9920183" lon="11.23547"><ele>267.3333333333333</ele><time>2026-04-11T12:57:57.422Z</time></trkpt><trkpt lat="43.99196" lon="11.2355233"><ele>267.1666666666667</ele><time>2026-04-11T12:57:58.423Z</time></trkpt><trkpt lat="43.9918983" lon="11.2355667"><ele>267.0</ele><time>2026-04-11T12:57:59.422Z</time></trkpt><trkpt lat="43.99177" lon="11.235595"><ele>267.0</ele><time>2026-04-11T12:58:01.423Z</time></trkpt><trkpt lat="43.9917" lon="11.2356"><ele>267.0</ele><time>2026-04-11T12:58:02.424Z</time></trkpt><trkpt lat="43.9916317" lon="11.2356033"><ele>267.0</ele><time>2026-04-11T12:58:03.423Z</time></trkpt><trkpt lat="43.991525" lon="11.2356633"><ele>267.0</ele><time>2026-04-11T12:58:05.42Z</time></trkpt><trkpt lat="43.9914833" lon="11.2358083"><ele>267.0</ele><time>2026-04-11T12:58:07.422Z</time></trkpt><trkpt lat="43.9915" lon="11.235895"><ele>267.0</ele><time>2026-04-11T12:58:08.422Z</time></trkpt><trkpt lat="43.9915483" lon="11.2359783"><ele>266.6</ele><time>2026-04-11T12:58:09.423Z</time></trkpt><trkpt lat="43.991615" lon="11.2360583"><ele>266.2</ele><time>2026-04-11T12:58:10.423Z</time></trkpt><trkpt lat="43.991685" lon="11.23615"><ele>265.8</ele><time>2026-04-11T12:58:11.422Z</time></trkpt><trkpt lat="43.9917483" lon="11.2362583"><ele>265.4</ele><time>2026-04-11T12:58:12.421Z</time></trkpt><trkpt lat="43.9918017" lon="11.2363783"><ele>265.0</ele><time>2026-04-11T12:58:13.421Z</time></trkpt><trkpt lat="43.9918483" lon="11.2365033"><ele>264.6</ele><time>2026-04-11T12:58:14.421Z</time></trkpt><trkpt lat="43.9918967" lon="11.2366317"><ele>264.2</ele><time>2026-04-11T12:58:15.421Z</time></trkpt><trkpt lat="43.9919433" lon="11.2367567"><ele>263.8</ele><time>2026-04-11T12:58:16.422Z</time></trkpt><trkpt lat="43.9919883" lon="11.2368767"><ele>263.4</ele><time>2026-04-11T12:58:17.422Z</time></trkpt><trkpt lat="43.99203" lon="11.2370017"><ele>263.0</ele><time>2026-04-11T12:58:18.421Z</time></trkpt><trkpt lat="43.9920683" lon="11.23712"><ele>263.0</ele><time>2026-04-11T12:58:19.419Z</time></trkpt><trkpt lat="43.9921117" lon="11.2372467"><ele>263.0</ele><time>2026-04-11T12:58:20.42Z</time></trkpt><trkpt lat="43.9921583" lon="11.237375"><ele>263.0</ele><time>2026-04-11T12:58:21.419Z</time></trkpt><trkpt lat="43.9922033" lon="11.2375117"><ele>263.0</ele><time>2026-04-11T12:58:22.42Z</time></trkpt><trkpt lat="43.9922467" lon="11.2376433"><ele>263.0</ele><time>2026-04-11T12:58:23.421Z</time></trkpt><trkpt lat="43.9922867" lon="11.2377717"><ele>263.0</ele><time>2026-04-11T12:58:24.419Z</time></trkpt><trkpt lat="43.9923217" lon="11.237885"><ele>263.0</ele><time>2026-04-11T12:58:25.422Z</time></trkpt><trkpt lat="43.992355" lon="11.2379933"><ele>263.0</ele><time>2026-04-11T12:58:26.42Z</time></trkpt><trkpt lat="43.9923817" lon="11.2380833"><ele>263.0</ele><time>2026-04-11T12:58:27.419Z</time></trkpt><trkpt lat="43.9924067" lon="11.2382117"><ele>263.0</ele><time>2026-04-11T12:58:29.419Z</time></trkpt><trkpt lat="43.9923967" lon="11.2383183"><ele>263.0</ele><time>2026-04-11T12:58:31.419Z</time></trkpt><trkpt lat="43.9923383" lon="11.23849"><ele>262.83333333333337</ele><time>2026-04-11T12:58:45.42Z</time></trkpt><trkpt lat="43.9923417" lon="11.2385833"><ele>262.6666666666667</ele><time>2026-04-11T12:58:48.421Z</time></trkpt><trkpt lat="43.99238" lon="11.2387433"><ele>262.5</ele><time>2026-04-11T13:01:34.421Z</time></trkpt><trkpt lat="43.9924083" lon="11.2386617"><ele>262.3333333333333</ele><time>2026-04-11T13:04:20.421Z</time></trkpt><trkpt lat="43.9923467" lon="11.23863"><ele>262.16666666666663</ele><time>2026-04-11T13:14:44.422Z</time></trkpt><trkpt lat="43.9923921" lon="11.2387445"><ele>262.0</ele><time>2026-04-11T13:23:12.42Z</time></trkpt><trkpt lat="43.9924481" lon="11.2387026"><ele>262.0</ele><time>2026-04-11T13:23:15.422Z</time></trkpt><trkpt lat="43.9924722" lon="11.2386017"><ele>262.0</ele><time>2026-04-11T13:23:18.422Z</time></trkpt><trkpt lat="43.9924578" lon="11.2385094"><ele>262.0</ele><time>2026-04-11T13:23:21.422Z</time></trkpt><trkpt lat="43.9923998" lon="11.2384602"><ele>262.0</ele><time>2026-04-11T13:23:26.421Z</time></trkpt><trkpt lat="43.9923941" lon="11.2385552"><ele>262.0</ele><time>2026-04-11T13:23:31.422Z</time></trkpt><trkpt lat="43.992453" lon="11.2386142"><ele>262.0</ele><time>2026-04-11T13:23:35.421Z</time></trkpt><trkpt lat="43.9924933" lon="11.2386954"><ele>262.0</ele><time>2026-04-11T13:23:38.423Z</time></trkpt><trkpt lat="43.9924795" lon="11.238795"><ele>262.0</ele><time>2026-04-11T13:23:42.422Z</time></trkpt><trkpt lat="43.9924454" lon="11.2387151"><ele>262.0</ele><time>2026-04-11T13:23:46.42Z</time></trkpt><trkpt lat="43.9925024" lon="11.2386581"><ele>262.0</ele><time>2026-04-11T13:23:49.421Z</time></trkpt><trkpt lat="43.9925622" lon="11.2387577"><ele>262.0</ele><time>2026-04-11T13:25:05.424Z</time></trkpt><trkpt lat="43.9926064" lon="11.2388329"><ele>262.0</ele><time>2026-04-11T13:25:09.422Z</time></trkpt><trkpt lat="43.9926585" lon="11.2389322"><ele>262.0</ele><time>2026-04-11T13:25:15.421Z</time></trkpt><trkpt lat="43.9927086" lon="11.2390799"><ele>262.16666666666663</ele><time>2026-04-11T13:25:17.421Z</time></trkpt><trkpt lat="43.9927401" lon="11.2391624"><ele>262.3333333333333</ele><time>2026-04-11T13:25:18.42Z</time></trkpt><trkpt lat="43.9927724" lon="11.2392538"><ele>262.5</ele><time>2026-04-11T13:25:19.423Z</time></trkpt><trkpt lat="43.9928061" lon="11.2393524"><ele>262.6666666666667</ele><time>2026-04-11T13:25:20.422Z</time></trkpt><trkpt lat="43.9928428" lon="11.2394579"><ele>262.83333333333337</ele><time>2026-04-11T13:25:21.424Z</time></trkpt><trkpt lat="43.9928843" lon="11.2395702"><ele>263.0</ele><time>2026-04-11T13:25:22.423Z</time></trkpt><trkpt lat="43.9929264" lon="11.2396875"><ele>263.0</ele><time>2026-04-11T13:25:23.424Z</time></trkpt><trkpt lat="43.9929693" lon="11.2398098"><ele>263.0</ele><time>2026-04-11T13:25:24.423Z</time></trkpt><trkpt lat="43.9930097" lon="11.2399378"><ele>263.0</ele><time>2026-04-11T13:25:25.424Z</time></trkpt><trkpt lat="43.9930427" lon="11.2400597"><ele>263.0</ele><time>2026-04-11T13:25:26.423Z</time></trkpt><trkpt lat="43.9930638" lon="11.2401768"><ele>263.0</ele><time>2026-04-11T13:25:27.423Z</time></trkpt><trkpt lat="43.9930726" lon="11.2402874"><ele>263.0</ele><time>2026-04-11T13:25:28.422Z</time></trkpt><trkpt lat="43.9930711" lon="11.2403889"><ele>263.0</ele><time>2026-04-11T13:25:29.424Z</time></trkpt><trkpt lat="43.9930599" lon="11.2404844"><ele>263.0</ele><time>2026-04-11T13:25:30.422Z</time></trkpt><trkpt lat="43.9930383" lon="11.2405697"><ele>263.0</ele><time>2026-04-11T13:25:31.423Z</time></trkpt><trkpt lat="43.9929444" lon="11.2406355"><ele>263.0</ele><time>2026-04-11T13:25:33.422Z</time></trkpt><trkpt lat="43.9928675" lon="11.2406539"><ele>263.0</ele><time>2026-04-11T13:25:34.421Z</time></trkpt><trkpt lat="43.9927748" lon="11.2406645"><ele>263.0</ele><time>2026-04-11T13:25:35.421Z</time></trkpt><trkpt lat="43.9926663" lon="11.2406388"><ele>263.0</ele><time>2026-04-11T13:25:36.422Z</time></trkpt><trkpt lat="43.99254" lon="11.2406117"><ele>263.0</ele><time>2026-04-11T13:25:37.418Z</time></trkpt><trkpt lat="43.9924267" lon="11.2406067"><ele>263.0</ele><time>2026-04-11T13:25:38.422Z</time></trkpt><trkpt lat="43.9923217" lon="11.240595"><ele>262.4</ele><time>2026-04-11T13:25:39.421Z</time></trkpt><trkpt lat="43.992215" lon="11.240595"><ele>261.8</ele><time>2026-04-11T13:25:40.421Z</time></trkpt><trkpt lat="43.9921067" lon="11.24059"><ele>261.2</ele><time>2026-04-11T13:25:41.422Z</time></trkpt><trkpt lat="43.992" lon="11.2405883"><ele>260.6</ele><time>2026-04-11T13:25:42.42Z</time></trkpt><trkpt lat="43.9918983" lon="11.24058"><ele>260.0</ele><time>2026-04-11T13:25:43.422Z</time></trkpt><trkpt lat="43.99179" lon="11.24057"><ele>260.0</ele><time>2026-04-11T13:25:44.421Z</time></trkpt><trkpt lat="43.9916783" lon="11.2405583"><ele>260.0</ele><time>2026-04-11T13:25:45.423Z</time></trkpt><trkpt lat="43.99157" lon="11.2405417"><ele>260.0</ele><time>2026-04-11T13:25:46.42Z</time></trkpt><trkpt lat="43.991455" lon="11.240525"><ele>260.0</ele><time>2026-04-11T13:25:47.421Z</time></trkpt><trkpt lat="43.9913417" lon="11.2405133"><ele>260.0</ele><time>2026-04-11T13:25:48.42Z</time></trkpt><trkpt lat="43.9912317" lon="11.2405083"><ele>260.0</ele><time>2026-04-11T13:25:49.422Z</time></trkpt><trkpt lat="43.9911217" lon="11.2405033"><ele>260.0</ele><time>2026-04-11T13:25:50.422Z</time></trkpt><trkpt lat="43.9910083" lon="11.240495"><ele>260.0</ele><time>2026-04-11T13:25:51.422Z</time></trkpt><trkpt lat="43.990895" lon="11.2404817"><ele>260.0</ele><time>2026-04-11T13:25:52.424Z</time></trkpt><trkpt lat="43.9907783" lon="11.2404717"><ele>260.0</ele><time>2026-04-11T13:25:53.422Z</time></trkpt><trkpt lat="43.9906567" lon="11.2404567"><ele>260.0</ele><time>2026-04-11T13:25:54.422Z</time></trkpt><trkpt lat="43.9905333" lon="11.2404533"><ele>260.0</ele><time>2026-04-11T13:25:55.42Z</time></trkpt><trkpt lat="43.990405" lon="11.2404567"><ele>260.0</ele><time>2026-04-11T13:25:56.421Z</time></trkpt><trkpt lat="43.9902817" lon="11.2404683"><ele>260.0</ele><time>2026-04-11T13:25:57.423Z</time></trkpt><trkpt lat="43.99016" lon="11.240485"><ele>260.0</ele><time>2026-04-11T13:25:58.422Z</time></trkpt><trkpt lat="43.9900417" lon="11.240505"><ele>260.0</ele><time>2026-04-11T13:25:59.423Z</time></trkpt><trkpt lat="43.9899433" lon="11.2405233"><ele>260.0</ele><time>2026-04-11T13:26:00.422Z</time></trkpt><trkpt lat="43.9898417" lon="11.240545"><ele>260.0</ele><time>2026-04-11T13:26:01.421Z</time></trkpt><trkpt lat="43.9897433" lon="11.240565"><ele>259.6</ele><time>2026-04-11T13:26:02.421Z</time></trkpt><trkpt lat="43.9896467" lon="11.2405867"><ele>259.2</ele><time>2026-04-11T13:26:03.421Z</time></trkpt><trkpt lat="43.989545" lon="11.2406133"><ele>258.8</ele><time>2026-04-11T13:26:04.423Z</time></trkpt><trkpt lat="43.9894467" lon="11.2406417"><ele>258.4</ele><time>2026-04-11T13:26:05.423Z</time></trkpt><trkpt lat="43.9893433" lon="11.2406617"><ele>258.0</ele><time>2026-04-11T13:26:06.421Z</time></trkpt><trkpt lat="43.9892433" lon="11.2406717"><ele>257.8</ele><time>2026-04-11T13:26:07.421Z</time></trkpt><trkpt lat="43.98914" lon="11.24068"><ele>257.6</ele><time>2026-04-11T13:26:08.422Z</time></trkpt><trkpt lat="43.9890433" lon="11.24069"><ele>257.4</ele><time>2026-04-11T13:26:09.42Z</time></trkpt><trkpt lat="43.9889533" lon="11.2407083"><ele>257.2</ele><time>2026-04-11T13:26:10.422Z</time></trkpt><trkpt lat="43.988865" lon="11.2407267"><ele>257.0</ele><time>2026-04-11T13:26:11.419Z</time></trkpt><trkpt lat="43.988775" lon="11.2407433"><ele>257.0</ele><time>2026-04-11T13:26:12.421Z</time></trkpt><trkpt lat="43.9886917" lon="11.240755"><ele>257.0</ele><time>2026-04-11T13:26:13.421Z</time></trkpt><trkpt lat="43.9886117" lon="11.2407617"><ele>257.0</ele><time>2026-04-11T13:26:14.423Z</time></trkpt><trkpt lat="43.9885417" lon="11.24076"><ele>257.0</ele><time>2026-04-11T13:26:15.421Z</time></trkpt><trkpt lat="43.9884467" lon="11.24069"><ele>257.0</ele><time>2026-04-11T13:26:17.423Z</time></trkpt><trkpt lat="43.9884033" lon="11.24054"><ele>257.0</ele><time>2026-04-11T13:26:19.421Z</time></trkpt><trkpt lat="43.9883867" lon="11.2404533"><ele>257.0</ele><time>2026-04-11T13:26:20.423Z</time></trkpt><trkpt lat="43.988365" lon="11.2403617"><ele>257.0</ele><time>2026-04-11T13:26:21.422Z</time></trkpt><trkpt lat="43.9883333" lon="11.2402683"><ele>257.0</ele><time>2026-04-11T13:26:22.422Z</time></trkpt><trkpt lat="43.9882967" lon="11.2401683"><ele>257.0</ele><time>2026-04-11T13:26:23.421Z</time></trkpt><trkpt lat="43.9882617" lon="11.24006"><ele>257.0</ele><time>2026-04-11T13:26:24.421Z</time></trkpt><trkpt lat="43.9882267" lon="11.2399533"><ele>256.6666666666667</ele><time>2026-04-11T13:26:25.421Z</time></trkpt><trkpt lat="43.9881917" lon="11.2398517"><ele>256.33333333333337</ele><time>2026-04-11T13:26:26.422Z</time></trkpt><trkpt lat="43.9881583" lon="11.2397567"><ele>256.0</ele><time>2026-04-11T13:26:27.421Z</time></trkpt><trkpt lat="43.98813" lon="11.239675"><ele>255.66666666666669</ele><time>2026-04-11T13:26:28.423Z</time></trkpt><trkpt lat="43.9880917" lon="11.2395283"><ele>255.33333333333334</ele><time>2026-04-11T13:26:30.421Z</time></trkpt><trkpt lat="43.98809" lon="11.2394167"><ele>255.0</ele><time>2026-04-11T13:26:32.42Z</time></trkpt><trkpt lat="43.988085" lon="11.239305"><ele>254.83333333333334</ele><time>2026-04-11T13:26:34.421Z</time></trkpt><trkpt lat="43.9880567" lon="11.2392217"><ele>254.66666666666669</ele><time>2026-04-11T13:26:36.421Z</time></trkpt><trkpt lat="43.9880267" lon="11.2390767"><ele>254.5</ele><time>2026-04-11T13:26:38.423Z</time></trkpt><trkpt lat="43.9880167" lon="11.2389883"><ele>254.33333333333334</ele><time>2026-04-11T13:26:39.419Z</time></trkpt><trkpt lat="43.9880267" lon="11.2388267"><ele>254.16666666666669</ele><time>2026-04-11T13:26:41.423Z</time></trkpt><trkpt lat="43.9880533" lon="11.2387333"><ele>254.0</ele><time>2026-04-11T13:26:42.422Z</time></trkpt><trkpt lat="43.9880967" lon="11.23864"><ele>254.0</ele><time>2026-04-11T13:26:43.423Z</time></trkpt><trkpt lat="43.98814" lon="11.2385683"><ele>253.99999999999997</ele><time>2026-04-11T13:26:44.422Z</time></trkpt><trkpt lat="43.9882083" lon="11.2384567"><ele>253.99999999999997</ele><time>2026-04-11T13:26:46.422Z</time></trkpt><trkpt lat="43.9882583" lon="11.2383667"><ele>254.0</ele><time>2026-04-11T13:26:48.422Z</time></trkpt><trkpt lat="43.9883067" lon="11.2383"><ele>254.0</ele><time>2026-04-11T13:26:50.422Z</time></trkpt><trkpt lat="43.98839" lon="11.2381617"><ele>254.66666666666669</ele><time>2026-04-11T13:26:52.421Z</time></trkpt><trkpt lat="43.9884383" lon="11.2380717"><ele>255.33333333333334</ele><time>2026-04-11T13:26:53.419Z</time></trkpt><trkpt lat="43.9884833" lon="11.23797"><ele>256.0</ele><time>2026-04-11T13:26:54.423Z</time></trkpt><trkpt lat="43.9885217" lon="11.237865"><ele>256.6666666666667</ele><time>2026-04-11T13:26:55.422Z</time></trkpt><trkpt lat="43.9885567" lon="11.2377617"><ele>257.3333333333333</ele><time>2026-04-11T13:26:56.422Z</time></trkpt><trkpt lat="43.9885833" lon="11.23767"><ele>258.0</ele><time>2026-04-11T13:26:57.423Z</time></trkpt><trkpt lat="43.9886" lon="11.237515"><ele>258.0</ele><time>2026-04-11T13:26:59.422Z</time></trkpt><trkpt lat="43.9886483" lon="11.23741"><ele>258.0</ele><time>2026-04-11T13:27:01.421Z</time></trkpt><trkpt lat="43.9886633" lon="11.237245"><ele>258.0</ele><time>2026-04-11T13:27:19.423Z</time></trkpt><trkpt lat="43.9886633" lon="11.2371283"><ele>258.0</ele><time>2026-04-11T13:27:20.422Z</time></trkpt><trkpt lat="43.9886567" lon="11.23701"><ele>258.0</ele><time>2026-04-11T13:27:21.422Z</time></trkpt><trkpt lat="43.9886483" lon="11.23691"><ele>258.1666666666667</ele><time>2026-04-11T13:27:22.421Z</time></trkpt><trkpt lat="43.9886583" lon="11.2367333"><ele>258.3333333333333</ele><time>2026-04-11T13:27:24.423Z</time></trkpt><trkpt lat="43.9886783" lon="11.236645"><ele>258.5</ele><time>2026-04-11T13:27:25.423Z</time></trkpt><trkpt lat="43.988705" lon="11.2365583"><ele>258.66666666666663</ele><time>2026-04-11T13:27:26.422Z</time></trkpt><trkpt lat="43.98873" lon="11.2364733"><ele>258.8333333333333</ele><time>2026-04-11T13:27:27.423Z</time></trkpt><trkpt lat="43.9887533" lon="11.2363167"><ele>259.0</ele><time>2026-04-11T13:27:29.422Z</time></trkpt><trkpt lat="43.9887733" lon="11.23619"><ele>259.3333333333333</ele><time>2026-04-11T13:27:31.42Z</time></trkpt><trkpt lat="43.988825" lon="11.2361383"><ele>259.66666666666663</ele><time>2026-04-11T13:27:33.423Z</time></trkpt><trkpt lat="43.9888933" lon="11.2360967"><ele>260.0</ele><time>2026-04-11T13:27:35.423Z</time></trkpt><trkpt lat="43.9889417" lon="11.23603"><ele>260.3333333333333</ele><time>2026-04-11T13:27:37.422Z</time></trkpt><trkpt lat="43.988965" lon="11.2359"><ele>260.6666666666667</ele><time>2026-04-11T13:27:39.42Z</time></trkpt><trkpt lat="43.9889817" lon="11.2358017"><ele>261.0</ele><time>2026-04-11T13:27:40.421Z</time></trkpt><trkpt lat="43.988995" lon="11.2356767"><ele>261.0</ele><time>2026-04-11T13:27:41.422Z</time></trkpt><trkpt lat="43.9890083" lon="11.2355483"><ele>261.0</ele><time>2026-04-11T13:27:42.421Z</time></trkpt><trkpt lat="43.9890267" lon="11.235425"><ele>261.0</ele><time>2026-04-11T13:27:43.421Z</time></trkpt><trkpt lat="43.98905" lon="11.2353133"><ele>261.0</ele><time>2026-04-11T13:27:44.422Z</time></trkpt><trkpt lat="43.9890883" lon="11.2352167"><ele>261.0</ele><time>2026-04-11T13:27:45.422Z</time></trkpt><trkpt lat="43.98914" lon="11.2351333"><ele>261.0</ele><time>2026-04-11T13:27:46.421Z</time></trkpt><trkpt lat="43.98919" lon="11.2350533"><ele>261.0</ele><time>2026-04-11T13:27:47.419Z</time></trkpt><trkpt lat="43.989245" lon="11.2349733"><ele>261.0</ele><time>2026-04-11T13:27:48.419Z</time></trkpt><trkpt lat="43.9892917" lon="11.2348883"><ele>261.0</ele><time>2026-04-11T13:27:49.421Z</time></trkpt><trkpt lat="43.9893317" lon="11.2347983"><ele>261.0</ele><time>2026-04-11T13:27:50.422Z</time></trkpt><trkpt lat="43.9893733" lon="11.2347117"><ele>261.0</ele><time>2026-04-11T13:27:51.422Z</time></trkpt><trkpt lat="43.9894567" lon="11.2346233"><ele>261.0</ele><time>2026-04-11T13:27:53.423Z</time></trkpt><trkpt lat="43.989525" lon="11.234625"><ele>260.8</ele><time>2026-04-11T13:27:55.422Z</time></trkpt><trkpt lat="43.9895933" lon="11.234625"><ele>260.6</ele><time>2026-04-11T13:27:58.422Z</time></trkpt><trkpt lat="43.9895983" lon="11.2345133"><ele>260.4</ele><time>2026-04-11T13:28:01.423Z</time></trkpt><trkpt lat="43.9894767" lon="11.2343917"><ele>260.2</ele><time>2026-04-11T13:28:03.418Z</time></trkpt><trkpt lat="43.9893783" lon="11.2343167"><ele>260.0</ele><time>2026-04-11T13:28:04.422Z</time></trkpt><trkpt lat="43.989225" lon="11.234225"><ele>259.33333333333337</ele><time>2026-04-11T13:28:05.421Z</time></trkpt><trkpt lat="43.9890833" lon="11.2341267"><ele>258.6666666666667</ele><time>2026-04-11T13:28:06.419Z</time></trkpt><trkpt lat="43.9889567" lon="11.2340283"><ele>258.0</ele><time>2026-04-11T13:28:07.421Z</time></trkpt><trkpt lat="43.9888233" lon="11.2339117"><ele>257.6666666666667</ele><time>2026-04-11T13:28:08.422Z</time></trkpt><trkpt lat="43.98869" lon="11.2337783"><ele>257.33333333333337</ele><time>2026-04-11T13:28:09.422Z</time></trkpt><trkpt lat="43.988555" lon="11.23363"><ele>257.0</ele><time>2026-04-11T13:28:10.422Z</time></trkpt><trkpt lat="43.9884367" lon="11.2334933"><ele>256.75</ele><time>2026-04-11T13:28:11.423Z</time></trkpt><trkpt lat="43.988335" lon="11.2333783"><ele>256.5</ele><time>2026-04-11T13:28:12.421Z</time></trkpt><trkpt lat="43.9882417" lon="11.23328"><ele>256.25</ele><time>2026-04-11T13:28:13.422Z</time></trkpt><trkpt lat="43.988145" lon="11.23319"><ele>256.0</ele><time>2026-04-11T13:28:14.423Z</time></trkpt><trkpt lat="43.9880417" lon="11.233115"><ele>256.5</ele><time>2026-04-11T13:28:15.422Z</time></trkpt><trkpt lat="43.9879267" lon="11.2330517"><ele>257.0</ele><time>2026-04-11T13:28:16.421Z</time></trkpt><trkpt lat="43.9878033" lon="11.2330067"><ele>257.5</ele><time>2026-04-11T13:28:17.421Z</time></trkpt><trkpt lat="43.9876767" lon="11.2329783"><ele>258.0</ele><time>2026-04-11T13:28:18.421Z</time></trkpt><trkpt lat="43.98755" lon="11.2329583"><ele>258.5</ele><time>2026-04-11T13:28:19.42Z</time></trkpt><trkpt lat="43.9874233" lon="11.232945"><ele>259.0</ele><time>2026-04-11T13:28:20.423Z</time></trkpt><trkpt lat="43.987295" lon="11.2329333"><ele>259.5</ele><time>2026-04-11T13:28:21.421Z</time></trkpt><trkpt lat="43.987165" lon="11.2329233"><ele>260.0</ele><time>2026-04-11T13:28:22.422Z</time></trkpt><trkpt lat="43.9870283" lon="11.232915"><ele>260.0</ele><time>2026-04-11T13:28:23.421Z</time></trkpt><trkpt lat="43.98689" lon="11.2329083"><ele>260.0</ele><time>2026-04-11T13:28:24.421Z</time></trkpt><trkpt lat="43.98675" lon="11.2329067"><ele>260.0</ele><time>2026-04-11T13:28:25.422Z</time></trkpt><trkpt lat="43.986605" lon="11.2329117"><ele>260.0</ele><time>2026-04-11T13:28:26.422Z</time></trkpt><trkpt lat="43.9864517" lon="11.2329383"><ele>261.0</ele><time>2026-04-11T13:28:27.422Z</time></trkpt><trkpt lat="43.986295" lon="11.232985"><ele>262.0</ele><time>2026-04-11T13:28:28.422Z</time></trkpt><trkpt lat="43.9861483" lon="11.2330467"><ele>263.0</ele><time>2026-04-11T13:28:29.42Z</time></trkpt><trkpt lat="43.9860117" lon="11.23312"><ele>262.6</ele><time>2026-04-11T13:28:30.422Z</time></trkpt><trkpt lat="43.9858917" lon="11.2331817"><ele>262.20000000000005</ele><time>2026-04-11T13:28:31.422Z</time></trkpt><trkpt lat="43.98579" lon="11.2332267"><ele>261.8</ele><time>2026-04-11T13:28:32.421Z</time></trkpt><trkpt lat="43.9857067" lon="11.23326"><ele>261.40000000000003</ele><time>2026-04-11T13:28:33.421Z</time></trkpt><trkpt lat="43.9856283" lon="11.233285"><ele>261.0</ele><time>2026-04-11T13:28:34.422Z</time></trkpt><trkpt lat="43.9855517" lon="11.23331"><ele>261.0</ele><time>2026-04-11T13:28:35.421Z</time></trkpt><trkpt lat="43.98548" lon="11.233325"><ele>261.0</ele><time>2026-04-11T13:28:36.42Z</time></trkpt><trkpt lat="43.9854083" lon="11.23333"><ele>261.0</ele><time>2026-04-11T13:28:37.42Z</time></trkpt><trkpt lat="43.9853283" lon="11.2333267"><ele>261.0</ele><time>2026-04-11T13:28:38.422Z</time></trkpt><trkpt lat="43.9852483" lon="11.23332"><ele>261.0</ele><time>2026-04-11T13:28:39.422Z</time></trkpt><trkpt lat="43.98517" lon="11.2333067"><ele>261.0</ele><time>2026-04-11T13:28:40.421Z</time></trkpt><trkpt lat="43.98509" lon="11.2332883"><ele>263.0</ele><time>2026-04-11T13:28:41.42Z</time></trkpt><trkpt lat="43.9850117" lon="11.2332717"><ele>265.0</ele><time>2026-04-11T13:28:42.421Z</time></trkpt><trkpt lat="43.9849367" lon="11.2332483"><ele>267.0</ele><time>2026-04-11T13:28:43.42Z</time></trkpt><trkpt lat="43.9848617" lon="11.2332267"><ele>269.0</ele><time>2026-04-11T13:28:44.42Z</time></trkpt><trkpt lat="43.9847783" lon="11.2332133"><ele>271.0</ele><time>2026-04-11T13:28:45.421Z</time></trkpt><trkpt lat="43.984685" lon="11.2332"><ele>273.0</ele><time>2026-04-11T13:28:46.42Z</time></trkpt><trkpt lat="43.9845917" lon="11.2331883"><ele>273.0</ele><time>2026-04-11T13:28:47.421Z</time></trkpt><trkpt lat="43.98449" lon="11.23317"><ele>273.0</ele><time>2026-04-11T13:28:48.42Z</time></trkpt><trkpt lat="43.9843917" lon="11.2331383"><ele>273.0</ele><time>2026-04-11T13:28:49.421Z</time></trkpt><trkpt lat="43.9842933" lon="11.2331067"><ele>273.0</ele><time>2026-04-11T13:28:50.422Z</time></trkpt><trkpt lat="43.9842017" lon="11.23308"><ele>273.0</ele><time>2026-04-11T13:28:51.421Z</time></trkpt><trkpt lat="43.9841217" lon="11.23304"><ele>272.4</ele><time>2026-04-11T13:28:52.422Z</time></trkpt><trkpt lat="43.984045" lon="11.232995"><ele>271.8</ele><time>2026-04-11T13:28:53.423Z</time></trkpt><trkpt lat="43.983965" lon="11.2329583"><ele>271.2</ele><time>2026-04-11T13:28:54.423Z</time></trkpt><trkpt lat="43.9838833" lon="11.23291"><ele>270.6</ele><time>2026-04-11T13:28:55.423Z</time></trkpt><trkpt lat="43.98379" lon="11.2328817"><ele>270.0</ele><time>2026-04-11T13:28:56.422Z</time></trkpt><trkpt lat="43.9836883" lon="11.2328567"><ele>270.0</ele><time>2026-04-11T13:28:57.422Z</time></trkpt><trkpt lat="43.9835917" lon="11.2328283"><ele>270.0</ele><time>2026-04-11T13:28:58.421Z</time></trkpt><trkpt lat="43.9834867" lon="11.2328033"><ele>270.0</ele><time>2026-04-11T13:28:59.422Z</time></trkpt><trkpt lat="43.9833817" lon="11.2327817"><ele>270.0</ele><time>2026-04-11T13:29:00.424Z</time></trkpt><trkpt lat="43.98328" lon="11.23276"><ele>270.0</ele><time>2026-04-11T13:29:01.421Z</time></trkpt><trkpt lat="43.9831783" lon="11.23274"><ele>269.6</ele><time>2026-04-11T13:29:02.422Z</time></trkpt><trkpt lat="43.98308" lon="11.232725"><ele>269.2</ele><time>2026-04-11T13:29:03.423Z</time></trkpt><trkpt lat="43.98298" lon="11.232715"><ele>268.8</ele><time>2026-04-11T13:29:04.421Z</time></trkpt><trkpt lat="43.9828867" lon="11.2327017"><ele>268.4</ele><time>2026-04-11T13:29:05.422Z</time></trkpt><trkpt lat="43.9827917" lon="11.2326867"><ele>268.0</ele><time>2026-04-11T13:29:06.423Z</time></trkpt><trkpt lat="43.982695" lon="11.2326683"><ele>268.0</ele><time>2026-04-11T13:29:07.422Z</time></trkpt><trkpt lat="43.9825933" lon="11.2326517"><ele>268.0</ele><time>2026-04-11T13:29:08.422Z</time></trkpt><trkpt lat="43.9824883" lon="11.2326317"><ele>268.0</ele><time>2026-04-11T13:29:09.421Z</time></trkpt><trkpt lat="43.9823833" lon="11.2326083"><ele>268.0</ele><time>2026-04-11T13:29:10.421Z</time></trkpt><trkpt lat="43.982285" lon="11.2325867"><ele>268.0</ele><time>2026-04-11T13:29:11.421Z</time></trkpt><trkpt lat="43.982195" lon="11.23256"><ele>267.8</ele><time>2026-04-11T13:29:12.423Z</time></trkpt><trkpt lat="43.9821033" lon="11.2325367"><ele>267.6</ele><time>2026-04-11T13:29:13.423Z</time></trkpt><trkpt lat="43.9820117" lon="11.23252"><ele>267.4</ele><time>2026-04-11T13:29:14.421Z</time></trkpt><trkpt lat="43.9819217" lon="11.2325017"><ele>267.2</ele><time>2026-04-11T13:29:15.422Z</time></trkpt><trkpt lat="43.9818267" lon="11.2324833"><ele>267.0</ele><time>2026-04-11T13:29:16.421Z</time></trkpt><trkpt lat="43.9817333" lon="11.2324667"><ele>267.0</ele><time>2026-04-11T13:29:17.423Z</time></trkpt><trkpt lat="43.98165" lon="11.2324533"><ele>267.0</ele><time>2026-04-11T13:29:18.422Z</time></trkpt><trkpt lat="43.981575" lon="11.23244"><ele>267.0</ele><time>2026-04-11T13:29:19.424Z</time></trkpt><trkpt lat="43.9815083" lon="11.232425"><ele>267.0</ele><time>2026-04-11T13:29:20.424Z</time></trkpt><trkpt lat="43.9813983" lon="11.2323933"><ele>267.0</ele><time>2026-04-11T13:29:22.421Z</time></trkpt><trkpt lat="43.9812883" lon="11.23234"><ele>267.0</ele><time>2026-04-11T13:29:24.422Z</time></trkpt><trkpt lat="43.981165" lon="11.2322917"><ele>267.0</ele><time>2026-04-11T13:29:26.422Z</time></trkpt><trkpt lat="43.9810867" lon="11.2322833"><ele>267.0</ele><time>2026-04-11T13:29:27.423Z</time></trkpt><trkpt lat="43.981" lon="11.2322983"><ele>267.0</ele><time>2026-04-11T13:29:28.422Z</time></trkpt><trkpt lat="43.9809133" lon="11.232325"><ele>267.0</ele><time>2026-04-11T13:29:29.421Z</time></trkpt><trkpt lat="43.9808317" lon="11.2323517"><ele>266.8333333333333</ele><time>2026-04-11T13:29:30.421Z</time></trkpt><trkpt lat="43.9807483" lon="11.2323717"><ele>266.6666666666667</ele><time>2026-04-11T13:29:31.419Z</time></trkpt><trkpt lat="43.9806617" lon="11.2323883"><ele>266.5</ele><time>2026-04-11T13:29:32.421Z</time></trkpt><trkpt lat="43.9805733" lon="11.232405"><ele>266.33333333333337</ele><time>2026-04-11T13:29:33.423Z</time></trkpt><trkpt lat="43.980485" lon="11.2324133"><ele>266.1666666666667</ele><time>2026-04-11T13:29:34.42Z</time></trkpt><trkpt lat="43.9804017" lon="11.2324033"><ele>266.0</ele><time>2026-04-11T13:29:35.422Z</time></trkpt><trkpt lat="43.980315" lon="11.2323683"><ele>266.0</ele><time>2026-04-11T13:29:36.423Z</time></trkpt><trkpt lat="43.9802233" lon="11.2323117"><ele>266.0</ele><time>2026-04-11T13:29:37.423Z</time></trkpt><trkpt lat="43.9801217" lon="11.2322467"><ele>266.0</ele><time>2026-04-11T13:29:38.423Z</time></trkpt><trkpt lat="43.98002" lon="11.232185"><ele>266.0</ele><time>2026-04-11T13:29:39.422Z</time></trkpt><trkpt lat="43.9799117" lon="11.2321133"><ele>266.0</ele><time>2026-04-11T13:29:40.423Z</time></trkpt><trkpt lat="43.9798" lon="11.2320367"><ele>264.25</ele><time>2026-04-11T13:29:41.423Z</time></trkpt><trkpt lat="43.9796867" lon="11.2319583"><ele>262.5</ele><time>2026-04-11T13:29:42.423Z</time></trkpt><trkpt lat="43.9795683" lon="11.2318733"><ele>260.75</ele><time>2026-04-11T13:29:43.422Z</time></trkpt><trkpt lat="43.979455" lon="11.23179"><ele>259.0</ele><time>2026-04-11T13:29:44.422Z</time></trkpt><trkpt lat="43.97935" lon="11.23171"><ele>259.0</ele><time>2026-04-11T13:29:45.423Z</time></trkpt><trkpt lat="43.9792617" lon="11.2316383"><ele>259.0</ele><time>2026-04-11T13:29:46.421Z</time></trkpt><trkpt lat="43.97919" lon="11.2315567"><ele>259.0</ele><time>2026-04-11T13:29:47.419Z</time></trkpt><trkpt lat="43.97914" lon="11.23145"><ele>259.0</ele><time>2026-04-11T13:29:48.42Z</time></trkpt><trkpt lat="43.979105" lon="11.23132"><ele>259.0</ele><time>2026-04-11T13:29:49.422Z</time></trkpt><trkpt lat="43.97909" lon="11.23119"><ele>258.0</ele><time>2026-04-11T13:29:50.423Z</time></trkpt><trkpt lat="43.97908" lon="11.231065"><ele>257.0</ele><time>2026-04-11T13:29:51.422Z</time></trkpt><trkpt lat="43.9790733" lon="11.2309683"><ele>256.0</ele><time>2026-04-11T13:29:52.423Z</time></trkpt><trkpt lat="43.9790583" lon="11.230865"><ele>255.0</ele><time>2026-04-11T13:29:54.423Z</time></trkpt><trkpt lat="43.9790167" lon="11.2307883"><ele>253.99999999999997</ele><time>2026-04-11T13:30:01.421Z</time></trkpt><trkpt lat="43.97891" lon="11.2307767"><ele>253.0</ele><time>2026-04-11T13:30:03.424Z</time></trkpt><trkpt lat="43.9788217" lon="11.2307933"><ele>253.0</ele><time>2026-04-11T13:30:04.424Z</time></trkpt><trkpt lat="43.978735" lon="11.2308017"><ele>253.0</ele><time>2026-04-11T13:30:05.424Z</time></trkpt><trkpt lat="43.978645" lon="11.230785"><ele>253.0</ele><time>2026-04-11T13:30:06.423Z</time></trkpt><trkpt lat="43.9785367" lon="11.23072"><ele>253.0</ele><time>2026-04-11T13:30:07.422Z</time></trkpt><trkpt lat="43.9783733" lon="11.2305633"><ele>252.66666666666666</ele><time>2026-04-11T13:30:08.422Z</time></trkpt><trkpt lat="43.9782083" lon="11.2304233"><ele>252.33333333333331</ele><time>2026-04-11T13:30:09.422Z</time></trkpt><trkpt lat="43.9780167" lon="11.2302983"><ele>252.0</ele><time>2026-04-11T13:30:10.421Z</time></trkpt><trkpt lat="43.9778283" lon="11.2301983"><ele>252.0</ele><time>2026-04-11T13:30:11.421Z</time></trkpt><trkpt lat="43.97763" lon="11.23011"><ele>252.0</ele><time>2026-04-11T13:30:12.422Z</time></trkpt><trkpt lat="43.97744" lon="11.23003"><ele>252.0</ele><time>2026-04-11T13:30:13.42Z</time></trkpt><trkpt lat="43.977265" lon="11.2299633"><ele>252.5</ele><time>2026-04-11T13:30:14.423Z</time></trkpt><trkpt lat="43.9771133" lon="11.2299233"><ele>253.0</ele><time>2026-04-11T13:30:15.422Z</time></trkpt><trkpt lat="43.9769717" lon="11.2299233"><ele>253.5</ele><time>2026-04-11T13:30:16.421Z</time></trkpt><trkpt lat="43.97684" lon="11.2299733"><ele>254.0</ele><time>2026-04-11T13:30:17.421Z</time></trkpt><trkpt lat="43.9767083" lon="11.23006"><ele>257.6666666666667</ele><time>2026-04-11T13:30:18.421Z</time></trkpt><trkpt lat="43.97658" lon="11.2301817"><ele>261.3333333333333</ele><time>2026-04-11T13:30:19.422Z</time></trkpt><trkpt lat="43.976445" lon="11.2303233"><ele>265.0</ele><time>2026-04-11T13:30:20.422Z</time></trkpt><trkpt lat="43.9763133" lon="11.2304617"><ele>265.0</ele><time>2026-04-11T13:30:21.421Z</time></trkpt><trkpt lat="43.976195" lon="11.2305817"><ele>265.0</ele><time>2026-04-11T13:30:22.422Z</time></trkpt><trkpt lat="43.976085" lon="11.230685"><ele>265.0</ele><time>2026-04-11T13:30:23.421Z</time></trkpt><trkpt lat="43.9759817" lon="11.23078"><ele>265.0</ele><time>2026-04-11T13:30:24.422Z</time></trkpt><trkpt lat="43.9758833" lon="11.2308767"><ele>264.25</ele><time>2026-04-11T13:30:25.422Z</time></trkpt><trkpt lat="43.97578" lon="11.2309783"><ele>263.5</ele><time>2026-04-11T13:30:26.422Z</time></trkpt><trkpt lat="43.975675" lon="11.2310867"><ele>262.75</ele><time>2026-04-11T13:30:27.421Z</time></trkpt><trkpt lat="43.9755767" lon="11.2312"><ele>262.0</ele><time>2026-04-11T13:30:28.422Z</time></trkpt><trkpt lat="43.9754967" lon="11.2313333"><ele>260.25</ele><time>2026-04-11T13:30:29.42Z</time></trkpt><trkpt lat="43.9754383" lon="11.2314933"><ele>258.5</ele><time>2026-04-11T13:30:30.423Z</time></trkpt><trkpt lat="43.9754033" lon="11.2316717"><ele>256.75</ele><time>2026-04-11T13:30:31.422Z</time></trkpt><trkpt lat="43.97539" lon="11.23186"><ele>255.0</ele><time>2026-04-11T13:30:32.422Z</time></trkpt><trkpt lat="43.97541" lon="11.2320567"><ele>255.0</ele><time>2026-04-11T13:30:33.421Z</time></trkpt><trkpt lat="43.9754517" lon="11.2322633"><ele>255.0</ele><time>2026-04-11T13:30:34.421Z</time></trkpt><trkpt lat="43.9754983" lon="11.232475"><ele>255.0</ele><time>2026-04-11T13:30:35.422Z</time></trkpt><trkpt lat="43.9755467" lon="11.2326917"><ele>255.66666666666669</ele><time>2026-04-11T13:30:36.422Z</time></trkpt><trkpt lat="43.9756" lon="11.2328983"><ele>256.33333333333337</ele><time>2026-04-11T13:30:37.422Z</time></trkpt><trkpt lat="43.9756583" lon="11.2331033"><ele>257.0</ele><time>2026-04-11T13:30:38.42Z</time></trkpt><trkpt lat="43.9757267" lon="11.2333033"><ele>258.6666666666667</ele><time>2026-04-11T13:30:39.422Z</time></trkpt><trkpt lat="43.9758067" lon="11.2335017"><ele>260.3333333333333</ele><time>2026-04-11T13:30:40.421Z</time></trkpt><trkpt lat="43.9759017" lon="11.2337"><ele>262.0</ele><time>2026-04-11T13:30:41.422Z</time></trkpt><trkpt lat="43.9760067" lon="11.2338867"><ele>259.0</ele><time>2026-04-11T13:30:42.423Z</time></trkpt><trkpt lat="43.9761217" lon="11.23407"><ele>256.0</ele><time>2026-04-11T13:30:43.421Z</time></trkpt><trkpt lat="43.9762417" lon="11.234245"><ele>253.0</ele><time>2026-04-11T13:30:44.421Z</time></trkpt><trkpt lat="43.97636" lon="11.2344217"><ele>253.0</ele><time>2026-04-11T13:30:45.421Z</time></trkpt><trkpt lat="43.9764733" lon="11.2346"><ele>253.0</ele><time>2026-04-11T13:30:46.423Z</time></trkpt><trkpt lat="43.9765883" lon="11.2347783"><ele>253.0</ele><time>2026-04-11T13:30:47.422Z</time></trkpt><trkpt lat="43.9767033" lon="11.2349567"><ele>252.0</ele><time>2026-04-11T13:30:48.422Z</time></trkpt><trkpt lat="43.9768183" lon="11.2351367"><ele>251.0</ele><time>2026-04-11T13:30:49.422Z</time></trkpt><trkpt lat="43.9769333" lon="11.23531"><ele>250.0</ele><time>2026-04-11T13:30:50.422Z</time></trkpt><trkpt lat="43.9770483" lon="11.23548"><ele>251.33333333333331</ele><time>2026-04-11T13:30:51.421Z</time></trkpt><trkpt lat="43.977165" lon="11.2356517"><ele>252.66666666666669</ele><time>2026-04-11T13:30:52.421Z</time></trkpt><trkpt lat="43.9772783" lon="11.2358217"><ele>254.0</ele><time>2026-04-11T13:30:53.422Z</time></trkpt><trkpt lat="43.9773883" lon="11.235995"><ele>254.0</ele><time>2026-04-11T13:30:54.421Z</time></trkpt><trkpt lat="43.977495" lon="11.2361767"><ele>254.0</ele><time>2026-04-11T13:30:55.422Z</time></trkpt><trkpt lat="43.977595" lon="11.2363683"><ele>254.0</ele><time>2026-04-11T13:30:56.42Z</time></trkpt><trkpt lat="43.9776783" lon="11.236565"><ele>252.0</ele><time>2026-04-11T13:30:57.421Z</time></trkpt><trkpt lat="43.97775" lon="11.2367733"><ele>250.0</ele><time>2026-04-11T13:30:58.42Z</time></trkpt><trkpt lat="43.9778183" lon="11.2369883"><ele>248.0</ele><time>2026-04-11T13:30:59.42Z</time></trkpt><trkpt lat="43.9778767" lon="11.237205"><ele>249.0</ele><time>2026-04-11T13:31:00.421Z</time></trkpt><trkpt lat="43.97793" lon="11.23742"><ele>250.0</ele><time>2026-04-11T13:31:01.423Z</time></trkpt><trkpt lat="43.9779633" lon="11.2376267"><ele>251.0</ele><time>2026-04-11T13:31:02.423Z</time></trkpt><trkpt lat="43.977975" lon="11.2378217"><ele>251.0</ele><time>2026-04-11T13:31:03.423Z</time></trkpt><trkpt lat="43.9779533" lon="11.2380117"><ele>251.0</ele><time>2026-04-11T13:31:04.422Z</time></trkpt><trkpt lat="43.977905" lon="11.23819"><ele>251.0</ele><time>2026-04-11T13:31:05.422Z</time></trkpt><trkpt lat="43.97783" lon="11.2383583"><ele>251.0</ele><time>2026-04-11T13:31:06.422Z</time></trkpt><trkpt lat="43.9777333" lon="11.2385033"><ele>251.25</ele><time>2026-04-11T13:31:07.423Z</time></trkpt><trkpt lat="43.97762" lon="11.2386167"><ele>251.5</ele><time>2026-04-11T13:31:08.422Z</time></trkpt><trkpt lat="43.9774867" lon="11.2387033"><ele>251.75</ele><time>2026-04-11T13:31:09.422Z</time></trkpt><trkpt lat="43.977335" lon="11.23878"><ele>252.0</ele><time>2026-04-11T13:31:10.422Z</time></trkpt><trkpt lat="43.977175" lon="11.238855"><ele>252.0</ele><time>2026-04-11T13:31:11.422Z</time></trkpt><trkpt lat="43.9770083" lon="11.2389317"><ele>252.0</ele><time>2026-04-11T13:31:12.421Z</time></trkpt><trkpt lat="43.9768333" lon="11.2390083"><ele>252.0</ele><time>2026-04-11T13:31:13.422Z</time></trkpt><trkpt lat="43.9766533" lon="11.23909"><ele>254.0</ele><time>2026-04-11T13:31:14.421Z</time></trkpt><trkpt lat="43.9764667" lon="11.2391733"><ele>256.0</ele><time>2026-04-11T13:31:15.421Z</time></trkpt><trkpt lat="43.9762783" lon="11.239255"><ele>258.0</ele><time>2026-04-11T13:31:16.423Z</time></trkpt><trkpt lat="43.976085" lon="11.2393383"><ele>258.0</ele><time>2026-04-11T13:31:17.42Z</time></trkpt><trkpt lat="43.97589" lon="11.2394283"><ele>258.0</ele><time>2026-04-11T13:31:18.422Z</time></trkpt><trkpt lat="43.9757" lon="11.2395183"><ele>258.0</ele><time>2026-04-11T13:31:19.419Z</time></trkpt><trkpt lat="43.9755167" lon="11.2396083"><ele>258.0</ele><time>2026-04-11T13:31:20.421Z</time></trkpt><trkpt lat="43.9753367" lon="11.2397"><ele>258.0</ele><time>2026-04-11T13:31:21.419Z</time></trkpt><trkpt lat="43.9751567" lon="11.23979"><ele>258.0</ele><time>2026-04-11T13:31:22.422Z</time></trkpt><trkpt lat="43.97498" lon="11.2398717"><ele>258.0</ele><time>2026-04-11T13:31:23.422Z</time></trkpt><trkpt lat="43.974815" lon="11.2399417"><ele>258.0</ele><time>2026-04-11T13:31:24.421Z</time></trkpt><trkpt lat="43.9746567" lon="11.2399917"><ele>258.0</ele><time>2026-04-11T13:31:25.421Z</time></trkpt><trkpt lat="43.974505" lon="11.24002"><ele>258.0</ele><time>2026-04-11T13:31:26.421Z</time></trkpt><trkpt lat="43.9743567" lon="11.240025"><ele>258.0</ele><time>2026-04-11T13:31:27.421Z</time></trkpt><trkpt lat="43.974205" lon="11.2400133"><ele>258.0</ele><time>2026-04-11T13:31:28.422Z</time></trkpt><trkpt lat="43.9740567" lon="11.2399933"><ele>258.0</ele><time>2026-04-11T13:31:29.421Z</time></trkpt><trkpt lat="43.9739117" lon="11.2399783"><ele>258.25</ele><time>2026-04-11T13:31:30.42Z</time></trkpt><trkpt lat="43.973765" lon="11.2399683"><ele>258.5</ele><time>2026-04-11T13:31:31.422Z</time></trkpt><trkpt lat="43.9736267" lon="11.2399617"><ele>258.75</ele><time>2026-04-11T13:31:32.423Z</time></trkpt><trkpt lat="43.9734983" lon="11.2399583"><ele>259.0</ele><time>2026-04-11T13:31:33.42Z</time></trkpt><trkpt lat="43.97338" lon="11.2399633"><ele>259.0</ele><time>2026-04-11T13:31:34.422Z</time></trkpt><trkpt lat="43.97327" lon="11.2399883"><ele>259.0</ele><time>2026-04-11T13:31:35.423Z</time></trkpt><trkpt lat="43.973175" lon="11.24004"><ele>259.0</ele><time>2026-04-11T13:31:36.422Z</time></trkpt><trkpt lat="43.9730883" lon="11.2401283"><ele>259.0</ele><time>2026-04-11T13:31:37.424Z</time></trkpt><trkpt lat="43.9730083" lon="11.2402483"><ele>259.0</ele><time>2026-04-11T13:31:38.421Z</time></trkpt><trkpt lat="43.9729317" lon="11.2404"><ele>259.0</ele><time>2026-04-11T13:31:39.42Z</time></trkpt><trkpt lat="43.972865" lon="11.2405617"><ele>259.0</ele><time>2026-04-11T13:31:40.423Z</time></trkpt><trkpt lat="43.97282" lon="11.2407217"><ele>259.0</ele><time>2026-04-11T13:31:41.422Z</time></trkpt><trkpt lat="43.9728083" lon="11.24089"><ele>259.0</ele><time>2026-04-11T13:31:42.42Z</time></trkpt><trkpt lat="43.9728217" lon="11.24107"><ele>256.66666666666663</ele><time>2026-04-11T13:31:43.421Z</time></trkpt><trkpt lat="43.9728667" lon="11.241255"><ele>254.33333333333331</ele><time>2026-04-11T13:31:44.42Z</time></trkpt><trkpt lat="43.97293" lon="11.241455"><ele>252.0</ele><time>2026-04-11T13:31:45.45Z</time></trkpt><trkpt lat="43.9730067" lon="11.2416717"><ele>252.0</ele><time>2026-04-11T13:31:46.421Z</time></trkpt><trkpt lat="43.97308" lon="11.241885"><ele>252.0</ele><time>2026-04-11T13:31:47.421Z</time></trkpt><trkpt lat="43.973145" lon="11.2420767"><ele>252.0</ele><time>2026-04-11T13:31:48.421Z</time></trkpt><trkpt lat="43.97321" lon="11.2422567"><ele>251.75</ele><time>2026-04-11T13:31:49.447Z</time></trkpt><trkpt lat="43.9732833" lon="11.2424267"><ele>251.5</ele><time>2026-04-11T13:31:50.423Z</time></trkpt><trkpt lat="43.9733717" lon="11.24259"><ele>251.25</ele><time>2026-04-11T13:31:51.421Z</time></trkpt><trkpt lat="43.9734683" lon="11.2427433"><ele>251.0</ele><time>2026-04-11T13:31:52.421Z</time></trkpt><trkpt lat="43.9735717" lon="11.242895"><ele>251.0</ele><time>2026-04-11T13:31:53.422Z</time></trkpt><trkpt lat="43.973675" lon="11.243045"><ele>251.0</ele><time>2026-04-11T13:31:54.422Z</time></trkpt><trkpt lat="43.9737733" lon="11.243195"><ele>251.0</ele><time>2026-04-11T13:31:55.422Z</time></trkpt><trkpt lat="43.9738717" lon="11.2433433"><ele>251.0</ele><time>2026-04-11T13:31:56.421Z</time></trkpt><trkpt lat="43.9739667" lon="11.2434917"><ele>250.75</ele><time>2026-04-11T13:31:57.42Z</time></trkpt><trkpt lat="43.974065" lon="11.2436417"><ele>250.5</ele><time>2026-04-11T13:31:58.419Z</time></trkpt><trkpt lat="43.9741667" lon="11.2437883"><ele>250.25</ele><time>2026-04-11T13:31:59.423Z</time></trkpt><trkpt lat="43.9742683" lon="11.2439317"><ele>250.0</ele><time>2026-04-11T13:32:00.422Z</time></trkpt><trkpt lat="43.9743717" lon="11.244065"><ele>251.75</ele><time>2026-04-11T13:32:01.422Z</time></trkpt><trkpt lat="43.9744833" lon="11.2441767"><ele>253.5</ele><time>2026-04-11T13:32:02.422Z</time></trkpt><trkpt lat="43.9746083" lon="11.2442583"><ele>255.25</ele><time>2026-04-11T13:32:03.421Z</time></trkpt><trkpt lat="43.97475" lon="11.24431"><ele>257.0</ele><time>2026-04-11T13:32:04.424Z</time></trkpt><trkpt lat="43.9749017" lon="11.244345"><ele>254.0</ele><time>2026-04-11T13:32:05.424Z</time></trkpt><trkpt lat="43.9750567" lon="11.2443683"><ele>251.0</ele><time>2026-04-11T13:32:06.423Z</time></trkpt><trkpt lat="43.97521" lon="11.2443933"><ele>248.0</ele><time>2026-04-11T13:32:07.423Z</time></trkpt><trkpt lat="43.9753533" lon="11.2444283"><ele>248.0</ele><time>2026-04-11T13:32:08.42Z</time></trkpt><trkpt lat="43.9754817" lon="11.2444817"><ele>248.0</ele><time>2026-04-11T13:32:09.422Z</time></trkpt><trkpt lat="43.9755917" lon="11.2445683"><ele>248.0</ele><time>2026-04-11T13:32:10.42Z</time></trkpt><trkpt lat="43.9756867" lon="11.2446867"><ele>248.0</ele><time>2026-04-11T13:32:11.421Z</time></trkpt><trkpt lat="43.9757683" lon="11.2448333"><ele>246.5</ele><time>2026-04-11T13:32:12.421Z</time></trkpt><trkpt lat="43.975845" lon="11.2450017"><ele>245.0</ele><time>2026-04-11T13:32:13.421Z</time></trkpt><trkpt lat="43.9759167" lon="11.2451817"><ele>243.5</ele><time>2026-04-11T13:32:14.42Z</time></trkpt><trkpt lat="43.9759717" lon="11.2453533"><ele>242.0</ele><time>2026-04-11T13:32:15.421Z</time></trkpt><trkpt lat="43.9759983" lon="11.24552"><ele>242.75</ele><time>2026-04-11T13:32:16.422Z</time></trkpt><trkpt lat="43.9760017" lon="11.2456933"><ele>243.5</ele><time>2026-04-11T13:32:17.421Z</time></trkpt><trkpt lat="43.9759817" lon="11.2458717"><ele>244.25</ele><time>2026-04-11T13:32:18.422Z</time></trkpt><trkpt lat="43.9759367" lon="11.246055"><ele>245.0</ele><time>2026-04-11T13:32:19.421Z</time></trkpt><trkpt lat="43.9758767" lon="11.2462417"><ele>250.0</ele><time>2026-04-11T13:32:20.422Z</time></trkpt><trkpt lat="43.975795" lon="11.2464283"><ele>255.0</ele><time>2026-04-11T13:32:21.42Z</time></trkpt><trkpt lat="43.9757033" lon="11.246645"><ele>260.0</ele><time>2026-04-11T13:32:22.421Z</time></trkpt><trkpt lat="43.975605" lon="11.2468767"><ele>260.0</ele><time>2026-04-11T13:32:23.422Z</time></trkpt><trkpt lat="43.9755117" lon="11.24711"><ele>260.0</ele><time>2026-04-11T13:32:24.42Z</time></trkpt><trkpt lat="43.975425" lon="11.2473317"><ele>260.0</ele><time>2026-04-11T13:32:25.422Z</time></trkpt><trkpt lat="43.975345" lon="11.2475383"><ele>260.75</ele><time>2026-04-11T13:32:26.422Z</time></trkpt><trkpt lat="43.9752667" lon="11.2477233"><ele>261.5</ele><time>2026-04-11T13:32:27.422Z</time></trkpt><trkpt lat="43.9751867" lon="11.2478867"><ele>262.25</ele><time>2026-04-11T13:32:28.422Z</time></trkpt><trkpt lat="43.9750967" lon="11.2480267"><ele>263.0</ele><time>2026-04-11T13:32:29.42Z</time></trkpt><trkpt lat="43.974985" lon="11.2481433"><ele>263.0</ele><time>2026-04-11T13:32:30.422Z</time></trkpt><trkpt lat="43.9748517" lon="11.2482283"><ele>263.0</ele><time>2026-04-11T13:32:31.42Z</time></trkpt><trkpt lat="43.974705" lon="11.2483083"><ele>263.0</ele><time>2026-04-11T13:32:32.422Z</time></trkpt><trkpt lat="43.9745683" lon="11.248395"><ele>263.0</ele><time>2026-04-11T13:32:33.423Z</time></trkpt><trkpt lat="43.9744533" lon="11.2485067"><ele>263.0</ele><time>2026-04-11T13:32:34.422Z</time></trkpt><trkpt lat="43.974355" lon="11.248655"><ele>263.0</ele><time>2026-04-11T13:32:35.423Z</time></trkpt><trkpt lat="43.974275" lon="11.248835"><ele>263.0</ele><time>2026-04-11T13:32:36.422Z</time></trkpt><trkpt lat="43.9742067" lon="11.2490083"><ele>264.2</ele><time>2026-04-11T13:32:37.42Z</time></trkpt><trkpt lat="43.9741417" lon="11.249145"><ele>265.4</ele><time>2026-04-11T13:32:38.421Z</time></trkpt><trkpt lat="43.97407" lon="11.249255"><ele>266.59999999999997</ele><time>2026-04-11T13:32:39.424Z</time></trkpt><trkpt lat="43.9739867" lon="11.24934"><ele>267.8</ele><time>2026-04-11T13:32:40.423Z</time></trkpt><trkpt lat="43.97389" lon="11.249405"><ele>269.0</ele><time>2026-04-11T13:32:41.423Z</time></trkpt><trkpt lat="43.9737817" lon="11.2494383"><ele>269.0</ele><time>2026-04-11T13:32:42.421Z</time></trkpt><trkpt lat="43.9736567" lon="11.2494383"><ele>269.0</ele><time>2026-04-11T13:32:43.421Z</time></trkpt><trkpt lat="43.9735183" lon="11.2494133"><ele>269.0</ele><time>2026-04-11T13:32:44.422Z</time></trkpt><trkpt lat="43.9733733" lon="11.2493733"><ele>269.0</ele><time>2026-04-11T13:32:45.423Z</time></trkpt><trkpt lat="43.973235" lon="11.2493283"><ele>270.0</ele><time>2026-04-11T13:32:46.42Z</time></trkpt><trkpt lat="43.973105" lon="11.2492867"><ele>271.0</ele><time>2026-04-11T13:32:47.421Z</time></trkpt><trkpt lat="43.9729833" lon="11.2492467"><ele>272.0</ele><time>2026-04-11T13:32:48.422Z</time></trkpt><trkpt lat="43.972865" lon="11.24921"><ele>273.0</ele><time>2026-04-11T13:32:49.421Z</time></trkpt><trkpt lat="43.9727417" lon="11.2491717"><ele>273.0</ele><time>2026-04-11T13:32:50.422Z</time></trkpt><trkpt lat="43.972615" lon="11.249135"><ele>273.0</ele><time>2026-04-11T13:32:51.422Z</time></trkpt><trkpt lat="43.9724833" lon="11.2490967"><ele>273.0</ele><time>2026-04-11T13:32:52.42Z</time></trkpt><trkpt lat="43.9723533" lon="11.24906"><ele>273.0</ele><time>2026-04-11T13:32:53.42Z</time></trkpt><trkpt lat="43.9722283" lon="11.2490217"><ele>272.6</ele><time>2026-04-11T13:32:54.422Z</time></trkpt><trkpt lat="43.9721133" lon="11.24899"><ele>272.20000000000005</ele><time>2026-04-11T13:32:55.422Z</time></trkpt><trkpt lat="43.9720067" lon="11.2489733"><ele>271.8</ele><time>2026-04-11T13:32:56.421Z</time></trkpt><trkpt lat="43.9719083" lon="11.2489833"><ele>271.40000000000003</ele><time>2026-04-11T13:32:57.421Z</time></trkpt><trkpt lat="43.9718117" lon="11.2490267"><ele>271.0</ele><time>2026-04-11T13:32:58.421Z</time></trkpt><trkpt lat="43.9717133" lon="11.2491"><ele>270.8</ele><time>2026-04-11T13:32:59.42Z</time></trkpt><trkpt lat="43.971625" lon="11.24918"><ele>270.6</ele><time>2026-04-11T13:33:00.42Z</time></trkpt><trkpt lat="43.971545" lon="11.2492617"><ele>270.4</ele><time>2026-04-11T13:33:01.422Z</time></trkpt><trkpt lat="43.9714717" lon="11.2493483"><ele>270.2</ele><time>2026-04-11T13:33:02.422Z</time></trkpt><trkpt lat="43.971405" lon="11.2494533"><ele>270.0</ele><time>2026-04-11T13:33:03.421Z</time></trkpt><trkpt lat="43.9713567" lon="11.249575"><ele>270.0</ele><time>2026-04-11T13:33:04.421Z</time></trkpt><trkpt lat="43.9713283" lon="11.2497133"><ele>270.0</ele><time>2026-04-11T13:33:05.421Z</time></trkpt><trkpt lat="43.9713233" lon="11.2498533"><ele>270.0</ele><time>2026-04-11T13:33:06.422Z</time></trkpt><trkpt lat="43.9713433" lon="11.2499917"><ele>270.0</ele><time>2026-04-11T13:33:07.422Z</time></trkpt><trkpt lat="43.9713867" lon="11.2501183"><ele>270.0</ele><time>2026-04-11T13:33:08.421Z</time></trkpt><trkpt lat="43.9714567" lon="11.250235"><ele>269.8</ele><time>2026-04-11T13:33:09.422Z</time></trkpt><trkpt lat="43.9715483" lon="11.2503417"><ele>269.6</ele><time>2026-04-11T13:33:10.421Z</time></trkpt><trkpt lat="43.9716383" lon="11.2504467"><ele>269.4</ele><time>2026-04-11T13:33:11.421Z</time></trkpt><trkpt lat="43.9717133" lon="11.250545"><ele>269.2</ele><time>2026-04-11T13:33:12.421Z</time></trkpt><trkpt lat="43.9717717" lon="11.2506567"><ele>269.0</ele><time>2026-04-11T13:33:13.421Z</time></trkpt><trkpt lat="43.97181" lon="11.2507783"><ele>269.0</ele><time>2026-04-11T13:33:14.422Z</time></trkpt><trkpt lat="43.97183" lon="11.2509067"><ele>269.0</ele><time>2026-04-11T13:33:15.422Z</time></trkpt><trkpt lat="43.9718267" lon="11.2510467"><ele>269.0</ele><time>2026-04-11T13:33:16.421Z</time></trkpt><trkpt lat="43.971795" lon="11.2511883"><ele>269.0</ele><time>2026-04-11T13:33:17.422Z</time></trkpt><trkpt lat="43.9717417" lon="11.2513433"><ele>269.0</ele><time>2026-04-11T13:33:18.421Z</time></trkpt><trkpt lat="43.9716667" lon="11.2515"><ele>270.5</ele><time>2026-04-11T13:33:19.421Z</time></trkpt><trkpt lat="43.9715733" lon="11.2516567"><ele>272.0</ele><time>2026-04-11T13:33:20.42Z</time></trkpt><trkpt lat="43.9714667" lon="11.25179"><ele>273.5</ele><time>2026-04-11T13:33:21.422Z</time></trkpt><trkpt lat="43.97135" lon="11.25189"><ele>275.0</ele><time>2026-04-11T13:33:22.422Z</time></trkpt><trkpt lat="43.9712133" lon="11.2519783"><ele>275.0</ele><time>2026-04-11T13:33:23.422Z</time></trkpt><trkpt lat="43.9710567" lon="11.2520533"><ele>275.0</ele><time>2026-04-11T13:33:24.422Z</time></trkpt><trkpt lat="43.9708933" lon="11.252125"><ele>275.0</ele><time>2026-04-11T13:33:25.42Z</time></trkpt><trkpt lat="43.97074" lon="11.25219"><ele>275.75</ele><time>2026-04-11T13:33:26.421Z</time></trkpt><trkpt lat="43.9706117" lon="11.2522517"><ele>276.5</ele><time>2026-04-11T13:33:27.422Z</time></trkpt><trkpt lat="43.9705083" lon="11.2523167"><ele>277.25</ele><time>2026-04-11T13:33:28.42Z</time></trkpt><trkpt lat="43.9704217" lon="11.2524017"><ele>278.0</ele><time>2026-04-11T13:33:29.422Z</time></trkpt><trkpt lat="43.9703567" lon="11.2525083"><ele>278.0</ele><time>2026-04-11T13:33:30.421Z</time></trkpt><trkpt lat="43.9703133" lon="11.2526367"><ele>278.0</ele><time>2026-04-11T13:33:31.421Z</time></trkpt><trkpt lat="43.9702983" lon="11.2527767"><ele>278.0</ele><time>2026-04-11T13:33:32.421Z</time></trkpt><trkpt lat="43.97031" lon="11.2529167"><ele>278.0</ele><time>2026-04-11T13:33:33.42Z</time></trkpt><trkpt lat="43.9703467" lon="11.25304"><ele>278.0</ele><time>2026-04-11T13:33:34.421Z</time></trkpt><trkpt lat="43.97041" lon="11.25315"><ele>278.75</ele><time>2026-04-11T13:33:35.421Z</time></trkpt><trkpt lat="43.9705067" lon="11.2532433"><ele>279.5</ele><time>2026-04-11T13:33:36.423Z</time></trkpt><trkpt lat="43.97062" lon="11.2533383"><ele>280.25</ele><time>2026-04-11T13:33:37.422Z</time></trkpt><trkpt lat="43.9707283" lon="11.253445"><ele>281.0</ele><time>2026-04-11T13:33:38.421Z</time></trkpt><trkpt lat="43.9708167" lon="11.2535733"><ele>281.0</ele><time>2026-04-11T13:33:39.422Z</time></trkpt><trkpt lat="43.970895" lon="11.25374"><ele>281.0</ele><time>2026-04-11T13:33:40.421Z</time></trkpt><trkpt lat="43.9709667" lon="11.253955"><ele>281.0</ele><time>2026-04-11T13:33:41.422Z</time></trkpt><trkpt lat="43.9710367" lon="11.254205"><ele>281.0</ele><time>2026-04-11T13:33:42.42Z</time></trkpt><trkpt lat="43.9711067" lon="11.25447"><ele>281.0</ele><time>2026-04-11T13:33:43.421Z</time></trkpt><trkpt lat="43.971175" lon="11.2547233"><ele>281.0</ele><time>2026-04-11T13:33:44.42Z</time></trkpt><trkpt lat="43.971235" lon="11.25495"><ele>280.5</ele><time>2026-04-11T13:33:45.423Z</time></trkpt><trkpt lat="43.9712833" lon="11.2551567"><ele>280.0</ele><time>2026-04-11T13:33:46.421Z</time></trkpt><trkpt lat="43.9713117" lon="11.2553383"><ele>279.5</ele><time>2026-04-11T13:33:47.422Z</time></trkpt><trkpt lat="43.97131" lon="11.2555067"><ele>279.0</ele><time>2026-04-11T13:33:48.42Z</time></trkpt><trkpt lat="43.9712733" lon="11.2556583"><ele>277.75</ele><time>2026-04-11T13:33:49.421Z</time></trkpt><trkpt lat="43.97121" lon="11.2557933"><ele>276.5</ele><time>2026-04-11T13:33:50.42Z</time></trkpt><trkpt lat="43.9711233" lon="11.2559133"><ele>275.25</ele><time>2026-04-11T13:33:51.424Z</time></trkpt><trkpt lat="43.9710083" lon="11.25603"><ele>274.0</ele><time>2026-04-11T13:33:52.422Z</time></trkpt><trkpt lat="43.9708667" lon="11.2561467"><ele>273.3333333333333</ele><time>2026-04-11T13:33:53.42Z</time></trkpt><trkpt lat="43.970705" lon="11.2562617"><ele>272.6666666666667</ele><time>2026-04-11T13:33:54.42Z</time></trkpt><trkpt lat="43.9705183" lon="11.256385"><ele>272.0</ele><time>2026-04-11T13:33:55.422Z</time></trkpt><trkpt lat="43.97032" lon="11.256515"><ele>272.0</ele><time>2026-04-11T13:33:56.421Z</time></trkpt><trkpt lat="43.9701317" lon="11.2566417"><ele>272.0</ele><time>2026-04-11T13:33:57.421Z</time></trkpt><trkpt lat="43.9699617" lon="11.25676"><ele>272.0</ele><time>2026-04-11T13:33:58.423Z</time></trkpt><trkpt lat="43.969805" lon="11.25687"><ele>272.5</ele><time>2026-04-11T13:33:59.421Z</time></trkpt><trkpt lat="43.96966" lon="11.2569667"><ele>273.0</ele><time>2026-04-11T13:34:00.421Z</time></trkpt><trkpt lat="43.9695267" lon="11.257055"><ele>273.5</ele><time>2026-04-11T13:34:01.421Z</time></trkpt><trkpt lat="43.969405" lon="11.2571383"><ele>274.0</ele><time>2026-04-11T13:34:02.422Z</time></trkpt><trkpt lat="43.9692917" lon="11.2572233"><ele>271.5</ele><time>2026-04-11T13:34:03.421Z</time></trkpt><trkpt lat="43.9691967" lon="11.2573233"><ele>269.0</ele><time>2026-04-11T13:34:04.42Z</time></trkpt><trkpt lat="43.9691233" lon="11.2574483"><ele>266.5</ele><time>2026-04-11T13:34:05.421Z</time></trkpt><trkpt lat="43.9690633" lon="11.2575933"><ele>264.0</ele><time>2026-04-11T13:34:06.421Z</time></trkpt><trkpt lat="43.9690267" lon="11.25776"><ele>264.0</ele><time>2026-04-11T13:34:07.422Z</time></trkpt><trkpt lat="43.9690117" lon="11.2579417"><ele>264.0</ele><time>2026-04-11T13:34:08.422Z</time></trkpt><trkpt lat="43.9690233" lon="11.2581283"><ele>264.0</ele><time>2026-04-11T13:34:09.421Z</time></trkpt><trkpt lat="43.9690617" lon="11.25832"><ele>264.0</ele><time>2026-04-11T13:34:10.42Z</time></trkpt><trkpt lat="43.9691167" lon="11.2585167"><ele>263.75</ele><time>2026-04-11T13:34:11.422Z</time></trkpt><trkpt lat="43.969175" lon="11.2587167"><ele>263.5</ele><time>2026-04-11T13:34:12.421Z</time></trkpt><trkpt lat="43.9692283" lon="11.2589"><ele>263.25</ele><time>2026-04-11T13:34:13.42Z</time></trkpt><trkpt lat="43.9692783" lon="11.2590783"><ele>263.0</ele><time>2026-04-11T13:34:14.421Z</time></trkpt><trkpt lat="43.9693233" lon="11.2592233"><ele>262.83333333333337</ele><time>2026-04-11T13:34:15.422Z</time></trkpt><trkpt lat="43.9693633" lon="11.2593617"><ele>262.6666666666667</ele><time>2026-04-11T13:34:16.419Z</time></trkpt><trkpt lat="43.9693983" lon="11.2594833"><ele>262.5</ele><time>2026-04-11T13:34:17.42Z</time></trkpt><trkpt lat="43.9694283" lon="11.2595817"><ele>262.3333333333333</ele><time>2026-04-11T13:34:18.42Z</time></trkpt><trkpt lat="43.9694483" lon="11.259665"><ele>262.16666666666663</ele><time>2026-04-11T13:34:19.421Z</time></trkpt><trkpt lat="43.9694683" lon="11.2597717"><ele>262.0</ele><time>2026-04-11T13:34:21.422Z</time></trkpt><trkpt lat="43.9694933" lon="11.2598567"><ele>262.8</ele><time>2026-04-11T13:34:25.421Z</time></trkpt><trkpt lat="43.9695583" lon="11.2600317"><ele>263.6</ele><time>2026-04-11T13:35:28.419Z</time></trkpt><trkpt lat="43.9696017" lon="11.2601167"><ele>264.40000000000003</ele><time>2026-04-11T13:35:30.42Z</time></trkpt><trkpt lat="43.9696567" lon="11.2602217"><ele>265.2</ele><time>2026-04-11T13:35:32.421Z</time></trkpt><trkpt lat="43.96972" lon="11.260325"><ele>266.0</ele><time>2026-04-11T13:35:34.422Z</time></trkpt><trkpt lat="43.9697867" lon="11.2604583"><ele>266.0</ele><time>2026-04-11T13:35:36.421Z</time></trkpt><trkpt lat="43.9698033" lon="11.2605433"><ele>266.0</ele><time>2026-04-11T13:35:37.42Z</time></trkpt><trkpt lat="43.9698033" lon="11.26064"><ele>266.0</ele><time>2026-04-11T13:35:38.422Z</time></trkpt><trkpt lat="43.969795" lon="11.2607417"><ele>266.0</ele><time>2026-04-11T13:35:39.422Z</time></trkpt><trkpt lat="43.9698033" lon="11.2609"><ele>266.0</ele><time>2026-04-11T13:35:41.42Z</time></trkpt><trkpt lat="43.96984" lon="11.2609717"><ele>266.0</ele><time>2026-04-11T13:35:42.422Z</time></trkpt><trkpt lat="43.9698917" lon="11.2610417"><ele>266.0</ele><time>2026-04-11T13:35:43.421Z</time></trkpt><trkpt lat="43.9699367" lon="11.2611067"><ele>266.0</ele><time>2026-04-11T13:35:44.421Z</time></trkpt><trkpt lat="43.9699817" lon="11.2611833"><ele>266.0</ele><time>2026-04-11T13:35:45.421Z</time></trkpt><trkpt lat="43.9700217" lon="11.2612783"><ele>266.0</ele><time>2026-04-11T13:35:46.422Z</time></trkpt><trkpt lat="43.97005" lon="11.2613867"><ele>266.0</ele><time>2026-04-11T13:35:47.421Z</time></trkpt><trkpt lat="43.9700667" lon="11.2614983"><ele>266.0</ele><time>2026-04-11T13:35:48.42Z</time></trkpt><trkpt lat="43.9700533" lon="11.2616633"><ele>268.8</ele><time>2026-04-11T13:35:50.424Z</time></trkpt><trkpt lat="43.9700167" lon="11.261745"><ele>271.6</ele><time>2026-04-11T13:35:51.421Z</time></trkpt><trkpt lat="43.9699533" lon="11.261835"><ele>274.4</ele><time>2026-04-11T13:35:52.422Z</time></trkpt><trkpt lat="43.9698567" lon="11.261935"><ele>277.2</ele><time>2026-04-11T13:35:53.421Z</time></trkpt><trkpt lat="43.9697583" lon="11.262055"><ele>280.0</ele><time>2026-04-11T13:35:54.42Z</time></trkpt><trkpt lat="43.9696633" lon="11.262165"><ele>280.0</ele><time>2026-04-11T13:35:55.421Z</time></trkpt><trkpt lat="43.9695583" lon="11.26228"><ele>280.0</ele><time>2026-04-11T13:35:56.421Z</time></trkpt><trkpt lat="43.969455" lon="11.26239"><ele>280.0</ele><time>2026-04-11T13:35:57.422Z</time></trkpt><trkpt lat="43.9693583" lon="11.2624967"><ele>280.0</ele><time>2026-04-11T13:35:58.419Z</time></trkpt><trkpt lat="43.9692633" lon="11.2626067"><ele>282.75</ele><time>2026-04-11T13:35:59.42Z</time></trkpt><trkpt lat="43.9691783" lon="11.2626967"><ele>285.5</ele><time>2026-04-11T13:36:00.421Z</time></trkpt><trkpt lat="43.9690983" lon="11.26282"><ele>288.25</ele><time>2026-04-11T13:36:01.421Z</time></trkpt><trkpt lat="43.96903" lon="11.2629583"><ele>291.0</ele><time>2026-04-11T13:36:02.42Z</time></trkpt><trkpt lat="43.9689767" lon="11.2631083"><ele>291.25</ele><time>2026-04-11T13:36:03.421Z</time></trkpt><trkpt lat="43.9689467" lon="11.2632667"><ele>291.5</ele><time>2026-04-11T13:36:04.422Z</time></trkpt><trkpt lat="43.96893" lon="11.263445"><ele>291.75</ele><time>2026-04-11T13:36:05.421Z</time></trkpt><trkpt lat="43.9689317" lon="11.263625"><ele>292.0</ele><time>2026-04-11T13:36:06.42Z</time></trkpt><trkpt lat="43.9689467" lon="11.2637833"><ele>292.0</ele><time>2026-04-11T13:36:07.421Z</time></trkpt><trkpt lat="43.96897" lon="11.2639183"><ele>292.0</ele><time>2026-04-11T13:36:08.421Z</time></trkpt><trkpt lat="43.9690033" lon="11.2640533"><ele>292.0</ele><time>2026-04-11T13:36:09.419Z</time></trkpt><trkpt lat="43.969035" lon="11.2641783"><ele>292.0</ele><time>2026-04-11T13:36:10.421Z</time></trkpt><trkpt lat="43.9690583" lon="11.2642883"><ele>292.0</ele><time>2026-04-11T13:36:11.422Z</time></trkpt><trkpt lat="43.9690533" lon="11.2644433"><ele>293.3333333333333</ele><time>2026-04-11T13:36:13.419Z</time></trkpt><trkpt lat="43.9690017" lon="11.264535"><ele>294.66666666666663</ele><time>2026-04-11T13:36:15.42Z</time></trkpt><trkpt lat="43.9689283" lon="11.26455"><ele>296.0</ele><time>2026-04-11T13:36:17.422Z</time></trkpt><trkpt lat="43.968815" lon="11.2645567"><ele>297.3333333333333</ele><time>2026-04-11T13:36:19.421Z</time></trkpt><trkpt lat="43.9687483" lon="11.2645883"><ele>298.6666666666667</ele><time>2026-04-11T13:36:20.421Z</time></trkpt><trkpt lat="43.96866" lon="11.2646233"><ele>300.0</ele><time>2026-04-11T13:36:21.42Z</time></trkpt><trkpt lat="43.9685717" lon="11.2646583"><ele>300.0</ele><time>2026-04-11T13:36:22.42Z</time></trkpt><trkpt lat="43.9684967" lon="11.2646833"><ele>300.0</ele><time>2026-04-11T13:36:23.421Z</time></trkpt><trkpt lat="43.96842" lon="11.264705"><ele>300.0</ele><time>2026-04-11T13:36:24.419Z</time></trkpt><trkpt lat="43.968345" lon="11.264725"><ele>300.0</ele><time>2026-04-11T13:36:25.423Z</time></trkpt><trkpt lat="43.9682633" lon="11.26475"><ele>300.0</ele><time>2026-04-11T13:36:26.423Z</time></trkpt><trkpt lat="43.9681817" lon="11.2647783"><ele>300.0</ele><time>2026-04-11T13:36:27.422Z</time></trkpt><trkpt lat="43.9680967" lon="11.264805"><ele>302.6666666666667</ele><time>2026-04-11T13:36:28.422Z</time></trkpt><trkpt lat="43.96801" lon="11.2648233"><ele>305.3333333333333</ele><time>2026-04-11T13:36:29.421Z</time></trkpt><trkpt lat="43.967925" lon="11.26484"><ele>308.0</ele><time>2026-04-11T13:36:30.421Z</time></trkpt><trkpt lat="43.9678417" lon="11.2648633"><ele>310.66666666666663</ele><time>2026-04-11T13:36:31.42Z</time></trkpt><trkpt lat="43.9677617" lon="11.2649017"><ele>313.3333333333333</ele><time>2026-04-11T13:36:32.43Z</time></trkpt><trkpt lat="43.9676867" lon="11.2649567"><ele>316.0</ele><time>2026-04-11T13:36:33.422Z</time></trkpt><trkpt lat="43.9676133" lon="11.2650217"><ele>316.0</ele><time>2026-04-11T13:36:34.421Z</time></trkpt><trkpt lat="43.9675383" lon="11.2650883"><ele>316.0</ele><time>2026-04-11T13:36:35.423Z</time></trkpt><trkpt lat="43.967465" lon="11.265165"><ele>316.0</ele><time>2026-04-11T13:36:36.422Z</time></trkpt><trkpt lat="43.9673917" lon="11.2652383"><ele>316.0</ele><time>2026-04-11T13:36:37.422Z</time></trkpt><trkpt lat="43.9673283" lon="11.2653117"><ele>316.0</ele><time>2026-04-11T13:36:38.422Z</time></trkpt><trkpt lat="43.967255" lon="11.2653783"><ele>316.0</ele><time>2026-04-11T13:36:39.423Z</time></trkpt><trkpt lat="43.9671833" lon="11.265445"><ele>318.4</ele><time>2026-04-11T13:36:40.423Z</time></trkpt><trkpt lat="43.967105" lon="11.26551"><ele>320.8</ele><time>2026-04-11T13:36:41.423Z</time></trkpt><trkpt lat="43.9670333" lon="11.2655633"><ele>323.2</ele><time>2026-04-11T13:36:42.424Z</time></trkpt><trkpt lat="43.9669733" lon="11.2656033"><ele>325.59999999999997</ele><time>2026-04-11T13:36:43.423Z</time></trkpt><trkpt lat="43.9668583" lon="11.265635"><ele>328.0</ele><time>2026-04-11T13:36:45.422Z</time></trkpt><trkpt lat="43.966725" lon="11.2655767"><ele>330.75</ele><time>2026-04-11T13:36:47.422Z</time></trkpt><trkpt lat="43.9666167" lon="11.2654817"><ele>333.5</ele><time>2026-04-11T13:36:48.421Z</time></trkpt><trkpt lat="43.9665067" lon="11.2654167"><ele>336.25</ele><time>2026-04-11T13:36:49.422Z</time></trkpt><trkpt lat="43.9664033" lon="11.2653717"><ele>339.0</ele><time>2026-04-11T13:36:50.423Z</time></trkpt><trkpt lat="43.9662983" lon="11.26534"><ele>339.0</ele><time>2026-04-11T13:36:51.42Z</time></trkpt><trkpt lat="43.9662" lon="11.2653233"><ele>339.0</ele><time>2026-04-11T13:36:52.42Z</time></trkpt><trkpt lat="43.966105" lon="11.2653067"><ele>339.0</ele><time>2026-04-11T13:36:53.422Z</time></trkpt><trkpt lat="43.9660117" lon="11.2652933"><ele>339.0</ele><time>2026-04-11T13:36:54.422Z</time></trkpt><trkpt lat="43.9659217" lon="11.26529"><ele>339.0</ele><time>2026-04-11T13:36:55.422Z</time></trkpt><trkpt lat="43.96583" lon="11.2652883"><ele>341.4</ele><time>2026-04-11T13:36:56.423Z</time></trkpt><trkpt lat="43.9657383" lon="11.2652867"><ele>343.79999999999995</ele><time>2026-04-11T13:36:57.423Z</time></trkpt><trkpt lat="43.9656467" lon="11.2652967"><ele>346.20000000000005</ele><time>2026-04-11T13:36:58.423Z</time></trkpt><trkpt lat="43.9655467" lon="11.265315"><ele>348.6</ele><time>2026-04-11T13:36:59.424Z</time></trkpt><trkpt lat="43.96545" lon="11.2653417"><ele>351.0</ele><time>2026-04-11T13:37:00.423Z</time></trkpt><trkpt lat="43.9653633" lon="11.2653717"><ele>351.0</ele><time>2026-04-11T13:37:01.423Z</time></trkpt><trkpt lat="43.9652933" lon="11.2654067"><ele>351.0</ele><time>2026-04-11T13:37:02.423Z</time></trkpt><trkpt lat="43.96523" lon="11.2654417"><ele>351.0</ele><time>2026-04-11T13:37:03.422Z</time></trkpt><trkpt lat="43.96517" lon="11.2654883"><ele>351.0</ele><time>2026-04-11T13:37:04.423Z</time></trkpt><trkpt lat="43.9651417" lon="11.26561"><ele>351.0</ele><time>2026-04-11T13:37:05.422Z</time></trkpt><trkpt lat="43.965125" lon="11.2657433"><ele>351.0</ele><time>2026-04-11T13:37:06.422Z</time></trkpt><trkpt lat="43.9651267" lon="11.2658817"><ele>351.8</ele><time>2026-04-11T13:37:07.422Z</time></trkpt><trkpt lat="43.9651283" lon="11.2660183"><ele>352.6</ele><time>2026-04-11T13:37:08.421Z</time></trkpt><trkpt lat="43.96513" lon="11.2661483"><ele>353.4</ele><time>2026-04-11T13:37:09.42Z</time></trkpt><trkpt lat="43.965125" lon="11.2662567"><ele>354.2</ele><time>2026-04-11T13:37:10.421Z</time></trkpt><trkpt lat="43.9650833" lon="11.2663817"><ele>355.0</ele><time>2026-04-11T13:37:12.421Z</time></trkpt><trkpt lat="43.9649683" lon="11.2664233"><ele>357.0</ele><time>2026-04-11T13:37:14.422Z</time></trkpt><trkpt lat="43.964865" lon="11.2664333"><ele>359.0</ele><time>2026-04-11T13:37:15.423Z</time></trkpt><trkpt lat="43.9647333" lon="11.2664333"><ele>361.0</ele><time>2026-04-11T13:37:16.423Z</time></trkpt><trkpt lat="43.964595" lon="11.2664317"><ele>363.0</ele><time>2026-04-11T13:37:17.422Z</time></trkpt><trkpt lat="43.9644567" lon="11.2664233"><ele>363.0</ele><time>2026-04-11T13:37:18.421Z</time></trkpt><trkpt lat="43.9643317" lon="11.26641"><ele>363.0</ele><time>2026-04-11T13:37:19.422Z</time></trkpt><trkpt lat="43.964225" lon="11.2664033"><ele>363.0</ele><time>2026-04-11T13:37:20.423Z</time></trkpt><trkpt lat="43.964135" lon="11.266405"><ele>363.0</ele><time>2026-04-11T13:37:21.422Z</time></trkpt><trkpt lat="43.9640717" lon="11.2664183"><ele>363.0</ele><time>2026-04-11T13:37:22.422Z</time></trkpt><trkpt lat="43.964035" lon="11.2665267"><ele>363.4285714285714</ele><time>2026-04-11T13:37:24.421Z</time></trkpt><trkpt lat="43.9640467" lon="11.266615"><ele>363.85714285714283</ele><time>2026-04-11T13:37:25.421Z</time></trkpt><trkpt lat="43.964075" lon="11.2667167"><ele>364.2857142857143</ele><time>2026-04-11T13:37:26.422Z</time></trkpt><trkpt lat="43.9641083" lon="11.2668167"><ele>364.71428571428567</ele><time>2026-04-11T13:37:27.422Z</time></trkpt><trkpt lat="43.9641483" lon="11.2669083"><ele>365.14285714285717</ele><time>2026-04-11T13:37:28.421Z</time></trkpt><trkpt lat="43.9641833" lon="11.2669917"><ele>365.57142857142856</ele><time>2026-04-11T13:37:29.421Z</time></trkpt><trkpt lat="43.9642133" lon="11.2670717"><ele>366.0</ele><time>2026-04-11T13:37:30.42Z</time></trkpt><trkpt lat="43.96424" lon="11.2671533"><ele>366.0</ele><time>2026-04-11T13:37:31.422Z</time></trkpt><trkpt lat="43.9642717" lon="11.2672433"><ele>366.0</ele><time>2026-04-11T13:37:32.421Z</time></trkpt><trkpt lat="43.9643083" lon="11.2673233"><ele>366.0</ele><time>2026-04-11T13:37:33.424Z</time></trkpt><trkpt lat="43.96434" lon="11.2674067"><ele>366.0</ele><time>2026-04-11T13:37:34.421Z</time></trkpt><trkpt lat="43.964365" lon="11.267495"><ele>366.0</ele><time>2026-04-11T13:37:35.421Z</time></trkpt><trkpt lat="43.9643833" lon="11.2676067"><ele>366.0</ele><time>2026-04-11T13:37:36.423Z</time></trkpt><trkpt lat="43.9643917" lon="11.2677233"><ele>366.0</ele><time>2026-04-11T13:37:37.422Z</time></trkpt><trkpt lat="43.9643983" lon="11.267855"><ele>366.0</ele><time>2026-04-11T13:37:38.423Z</time></trkpt><trkpt lat="43.9644" lon="11.267985"><ele>366.0</ele><time>2026-04-11T13:37:39.423Z</time></trkpt><trkpt lat="43.9644067" lon="11.2681167"><ele>366.0</ele><time>2026-04-11T13:37:40.422Z</time></trkpt><trkpt lat="43.9644183" lon="11.26824"><ele>366.0</ele><time>2026-04-11T13:37:41.423Z</time></trkpt><trkpt lat="43.9644367" lon="11.2683683"><ele>366.0</ele><time>2026-04-11T13:37:42.422Z</time></trkpt><trkpt lat="43.964465" lon="11.2684933"><ele>366.6</ele><time>2026-04-11T13:37:43.423Z</time></trkpt><trkpt lat="43.9645" lon="11.2686133"><ele>367.20000000000005</ele><time>2026-04-11T13:37:44.424Z</time></trkpt><trkpt lat="43.96454" lon="11.2687267"><ele>367.79999999999995</ele><time>2026-04-11T13:37:45.422Z</time></trkpt><trkpt lat="43.9645883" lon="11.268845"><ele>368.4</ele><time>2026-04-11T13:37:46.421Z</time></trkpt><trkpt lat="43.9646383" lon="11.2689567"><ele>369.0</ele><time>2026-04-11T13:37:47.42Z</time></trkpt><trkpt lat="43.9646783" lon="11.269075"><ele>369.2</ele><time>2026-04-11T13:37:48.423Z</time></trkpt><trkpt lat="43.96471" lon="11.2691867"><ele>369.4</ele><time>2026-04-11T13:37:49.423Z</time></trkpt><trkpt lat="43.9647317" lon="11.2693117"><ele>369.6</ele><time>2026-04-11T13:37:50.423Z</time></trkpt><trkpt lat="43.9647333" lon="11.26943"><ele>369.8</ele><time>2026-04-11T13:37:51.424Z</time></trkpt><trkpt lat="43.9647167" lon="11.269555"><ele>370.0</ele><time>2026-04-11T13:37:52.42Z</time></trkpt><trkpt lat="43.9647" lon="11.2697017"><ele>371.0</ele><time>2026-04-11T13:37:53.421Z</time></trkpt><trkpt lat="43.9646983" lon="11.2698383"><ele>372.0</ele><time>2026-04-11T13:37:54.422Z</time></trkpt><trkpt lat="43.9647083" lon="11.2699567"><ele>373.0</ele><time>2026-04-11T13:37:55.422Z</time></trkpt><trkpt lat="43.9647317" lon="11.270075"><ele>374.0</ele><time>2026-04-11T13:37:56.423Z</time></trkpt><trkpt lat="43.964765" lon="11.2701917"><ele>375.0</ele><time>2026-04-11T13:37:57.421Z</time></trkpt><trkpt lat="43.964805" lon="11.2703"><ele>375.0</ele><time>2026-04-11T13:37:58.421Z</time></trkpt><trkpt lat="43.9648567" lon="11.2704133"><ele>375.0</ele><time>2026-04-11T13:37:59.42Z</time></trkpt><trkpt lat="43.9649167" lon="11.2705267"><ele>375.0</ele><time>2026-04-11T13:38:00.421Z</time></trkpt><trkpt lat="43.9649767" lon="11.2706367"><ele>375.0</ele><time>2026-04-11T13:38:01.421Z</time></trkpt><trkpt lat="43.9650367" lon="11.2707283"><ele>375.0</ele><time>2026-04-11T13:38:02.423Z</time></trkpt><trkpt lat="43.96509" lon="11.270805"><ele>374.2</ele><time>2026-04-11T13:38:03.42Z</time></trkpt><trkpt lat="43.9651417" lon="11.2709033"><ele>373.4</ele><time>2026-04-11T13:38:05.421Z</time></trkpt><trkpt lat="43.9651167" lon="11.27099"><ele>372.6</ele><time>2026-04-11T13:38:07.422Z</time></trkpt><trkpt lat="43.96503" lon="11.2711767"><ele>371.8</ele><time>2026-04-11T13:38:09.422Z</time></trkpt><trkpt lat="43.96498" lon="11.271305"><ele>371.0</ele><time>2026-04-11T13:38:10.421Z</time></trkpt><trkpt lat="43.9649317" lon="11.2714333"><ele>372.6666666666667</ele><time>2026-04-11T13:38:11.422Z</time></trkpt><trkpt lat="43.9648833" lon="11.2715467"><ele>374.33333333333337</ele><time>2026-04-11T13:38:12.419Z</time></trkpt><trkpt lat="43.96484" lon="11.2716533"><ele>376.0</ele><time>2026-04-11T13:38:13.422Z</time></trkpt><trkpt lat="43.9648" lon="11.2717567"><ele>377.6666666666667</ele><time>2026-04-11T13:38:14.422Z</time></trkpt><trkpt lat="43.9647533" lon="11.2718467"><ele>379.3333333333333</ele><time>2026-04-11T13:38:15.421Z</time></trkpt><trkpt lat="43.9647083" lon="11.2719367"><ele>381.0</ele><time>2026-04-11T13:38:16.42Z</time></trkpt><trkpt lat="43.9646717" lon="11.2720383"><ele>381.0</ele><time>2026-04-11T13:38:17.421Z</time></trkpt><trkpt lat="43.9646433" lon="11.2721483"><ele>381.0</ele><time>2026-04-11T13:38:18.422Z</time></trkpt><trkpt lat="43.9646117" lon="11.2722583"><ele>381.0</ele><time>2026-04-11T13:38:19.423Z</time></trkpt><trkpt lat="43.9645833" lon="11.2723683"><ele>381.0</ele><time>2026-04-11T13:38:20.423Z</time></trkpt><trkpt lat="43.9645567" lon="11.2724817"><ele>381.0</ele><time>2026-04-11T13:38:21.423Z</time></trkpt><trkpt lat="43.9645367" lon="11.27259"><ele>381.0</ele><time>2026-04-11T13:38:22.421Z</time></trkpt><trkpt lat="43.96452" lon="11.2727083"><ele>380.20000000000005</ele><time>2026-04-11T13:38:23.42Z</time></trkpt><trkpt lat="43.964495" lon="11.272825"><ele>379.40000000000003</ele><time>2026-04-11T13:38:24.422Z</time></trkpt><trkpt lat="43.9644517" lon="11.2730217"><ele>378.6</ele><time>2026-04-11T13:38:26.424Z</time></trkpt><trkpt lat="43.9644233" lon="11.27313"><ele>377.8</ele><time>2026-04-11T13:38:27.423Z</time></trkpt><trkpt lat="43.9643867" lon="11.2732417"><ele>377.0</ele><time>2026-04-11T13:38:28.422Z</time></trkpt><trkpt lat="43.964345" lon="11.2733283"><ele>376.0</ele><time>2026-04-11T13:38:29.424Z</time></trkpt><trkpt lat="43.9642917" lon="11.2734117"><ele>375.0</ele><time>2026-04-11T13:38:30.425Z</time></trkpt><trkpt lat="43.964235" lon="11.27348"><ele>374.0</ele><time>2026-04-11T13:38:31.421Z</time></trkpt><trkpt lat="43.96418" lon="11.27355"><ele>373.0</ele><time>2026-04-11T13:38:32.42Z</time></trkpt><trkpt lat="43.96411" lon="11.2736217"><ele>372.0</ele><time>2026-04-11T13:38:33.421Z</time></trkpt><trkpt lat="43.9640383" lon="11.2736883"><ele>371.0</ele><time>2026-04-11T13:38:34.421Z</time></trkpt><trkpt lat="43.9639583" lon="11.273745"><ele>376.0</ele><time>2026-04-11T13:38:35.422Z</time></trkpt><trkpt lat="43.963875" lon="11.273765"><ele>381.0</ele><time>2026-04-11T13:38:36.422Z</time></trkpt><trkpt lat="43.963815" lon="11.27372"><ele>386.0</ele><time>2026-04-11T13:38:37.421Z</time></trkpt><trkpt lat="43.963745" lon="11.273725"><ele>391.0</ele><time>2026-04-11T13:38:38.422Z</time></trkpt><trkpt lat="43.9636717" lon="11.273725"><ele>395.99999999999994</ele><time>2026-04-11T13:38:39.422Z</time></trkpt><trkpt lat="43.9635917" lon="11.2737267"><ele>401.0</ele><time>2026-04-11T13:38:40.425Z</time></trkpt><trkpt lat="43.963495" lon="11.2737217"><ele>400.99999999999994</ele><time>2026-04-11T13:38:41.421Z</time></trkpt><trkpt lat="43.9633983" lon="11.2737083"><ele>401.0</ele><time>2026-04-11T13:38:42.422Z</time></trkpt><trkpt lat="43.9633133" lon="11.2737133"><ele>401.0</ele><time>2026-04-11T13:38:43.425Z</time></trkpt><trkpt lat="43.963225" lon="11.2737183"><ele>401.0</ele><time>2026-04-11T13:38:44.423Z</time></trkpt><trkpt lat="43.9631367" lon="11.273725"><ele>400.99999999999994</ele><time>2026-04-11T13:38:45.424Z</time></trkpt><trkpt lat="43.9630467" lon="11.2737217"><ele>401.0</ele><time>2026-04-11T13:38:46.422Z</time></trkpt><trkpt lat="43.9629667" lon="11.273745"><ele>401.20000000000005</ele><time>2026-04-11T13:38:47.424Z</time></trkpt><trkpt lat="43.962895" lon="11.2737683"><ele>401.40000000000003</ele><time>2026-04-11T13:38:48.424Z</time></trkpt><trkpt lat="43.96281" lon="11.2738233"><ele>401.6</ele><time>2026-04-11T13:38:49.423Z</time></trkpt><trkpt lat="43.96273" lon="11.2739133"><ele>401.8</ele><time>2026-04-11T13:38:50.424Z</time></trkpt><trkpt lat="43.9626467" lon="11.274055"><ele>402.0</ele><time>2026-04-11T13:38:51.424Z</time></trkpt><trkpt lat="43.9625633" lon="11.274195"><ele>405.5</ele><time>2026-04-11T13:38:52.424Z</time></trkpt><trkpt lat="43.9624783" lon="11.2743517"><ele>409.0</ele><time>2026-04-11T13:38:53.42Z</time></trkpt><trkpt lat="43.9623917" lon="11.27449"><ele>412.5</ele><time>2026-04-11T13:38:54.424Z</time></trkpt><trkpt lat="43.9622967" lon="11.2746233"><ele>416.0</ele><time>2026-04-11T13:38:55.425Z</time></trkpt><trkpt lat="43.9621967" lon="11.2747683"><ele>415.0</ele><time>2026-04-11T13:38:56.424Z</time></trkpt><trkpt lat="43.9621017" lon="11.2749"><ele>414.0</ele><time>2026-04-11T13:38:57.424Z</time></trkpt><trkpt lat="43.9620117" lon="11.2750183"><ele>413.0</ele><time>2026-04-11T13:38:58.424Z</time></trkpt><trkpt lat="43.9619233" lon="11.2751433"><ele>412.0</ele><time>2026-04-11T13:38:59.425Z</time></trkpt><trkpt lat="43.9618417" lon="11.27525"><ele>412.0</ele><time>2026-04-11T13:39:00.423Z</time></trkpt><trkpt lat="43.9617567" lon="11.2753667"><ele>412.0</ele><time>2026-04-11T13:39:01.422Z</time></trkpt><trkpt lat="43.9616767" lon="11.27544"><ele>412.0</ele><time>2026-04-11T13:39:02.424Z</time></trkpt><trkpt lat="43.9615833" lon="11.2755"><ele>412.0</ele><time>2026-04-11T13:39:03.424Z</time></trkpt><trkpt lat="43.9614817" lon="11.275545"><ele>412.0</ele><time>2026-04-11T13:39:04.422Z</time></trkpt><trkpt lat="43.9613783" lon="11.2755533"><ele>413.8</ele><time>2026-04-11T13:39:05.424Z</time></trkpt><trkpt lat="43.9612767" lon="11.2755517"><ele>415.6</ele><time>2026-04-11T13:39:06.423Z</time></trkpt><trkpt lat="43.9611767" lon="11.2755667"><ele>417.40000000000003</ele><time>2026-04-11T13:39:07.424Z</time></trkpt><trkpt lat="43.9610817" lon="11.2755933"><ele>419.20000000000005</ele><time>2026-04-11T13:39:08.425Z</time></trkpt><trkpt lat="43.9609983" lon="11.2756333"><ele>421.0</ele><time>2026-04-11T13:39:09.421Z</time></trkpt><trkpt lat="43.9609233" lon="11.2756717"><ele>424.4</ele><time>2026-04-11T13:39:10.42Z</time></trkpt><trkpt lat="43.9608267" lon="11.27573"><ele>427.8</ele><time>2026-04-11T13:39:12.422Z</time></trkpt><trkpt lat="43.9607583" lon="11.2758517"><ele>431.19999999999993</ele><time>2026-04-11T13:41:42.421Z</time></trkpt><trkpt lat="43.9607" lon="11.27593"><ele>434.59999999999997</ele><time>2026-04-11T13:41:44.421Z</time></trkpt><trkpt lat="43.9606267" lon="11.276035"><ele>438.0</ele><time>2026-04-11T13:41:46.42Z</time></trkpt><trkpt lat="43.96055" lon="11.2761"><ele>438.0</ele><time>2026-04-11T13:41:53.423Z</time></trkpt><trkpt lat="43.9604733" lon="11.2761767"><ele>438.0</ele><time>2026-04-11T13:41:55.421Z</time></trkpt><trkpt lat="43.9604017" lon="11.2762417"><ele>438.0</ele><time>2026-04-11T13:41:57.422Z</time></trkpt><trkpt lat="43.960305" lon="11.2762817"><ele>438.0</ele><time>2026-04-11T13:41:59.424Z</time></trkpt><trkpt lat="43.960235" lon="11.2762783"><ele>438.0</ele><time>2026-04-11T13:42:01.423Z</time></trkpt><trkpt lat="43.9601533" lon="11.276225"><ele>438.0</ele><time>2026-04-11T13:42:04.421Z</time></trkpt><trkpt lat="43.9600917" lon="11.2761517"><ele>438.0</ele><time>2026-04-11T13:42:06.424Z</time></trkpt><trkpt lat="43.9600367" lon="11.2760583"><ele>438.0</ele><time>2026-04-11T13:42:08.422Z</time></trkpt><trkpt lat="43.959975" lon="11.2759583"><ele>438.0</ele><time>2026-04-11T13:42:10.423Z</time></trkpt><trkpt lat="43.9599217" lon="11.2758833"><ele>438.0</ele><time>2026-04-11T13:42:12.423Z</time></trkpt><trkpt lat="43.9598783" lon="11.2758017"><ele>438.0</ele><time>2026-04-11T13:42:15.424Z</time></trkpt><trkpt lat="43.9598217" lon="11.2757417"><ele>438.0</ele><time>2026-04-11T13:42:18.423Z</time></trkpt><trkpt lat="43.9597433" lon="11.2756617"><ele>441.8333333333333</ele><time>2026-04-11T13:42:21.424Z</time></trkpt><trkpt lat="43.9596417" lon="11.2755683"><ele>445.66666666666663</ele><time>2026-04-11T13:42:23.42Z</time></trkpt><trkpt lat="43.9595817" lon="11.2755167"><ele>449.5</ele><time>2026-04-11T13:42:24.423Z</time></trkpt><trkpt lat="43.9595083" lon="11.2754783"><ele>453.3333333333333</ele><time>2026-04-11T13:42:25.422Z</time></trkpt><trkpt lat="43.959445" lon="11.275435"><ele>457.16666666666663</ele><time>2026-04-11T13:42:26.423Z</time></trkpt><trkpt lat="43.9593833" lon="11.275395"><ele>461.0</ele><time>2026-04-11T13:42:27.424Z</time></trkpt><trkpt lat="43.9593217" lon="11.2753667"><ele>460.99999999999994</ele><time>2026-04-11T13:42:28.425Z</time></trkpt><trkpt lat="43.959255" lon="11.27535"><ele>461.0</ele><time>2026-04-11T13:42:29.422Z</time></trkpt><trkpt lat="43.9591933" lon="11.2753317"><ele>461.0</ele><time>2026-04-11T13:42:30.425Z</time></trkpt><trkpt lat="43.9591267" lon="11.275315"><ele>461.0</ele><time>2026-04-11T13:42:31.423Z</time></trkpt><trkpt lat="43.9590533" lon="11.275295"><ele>460.99999999999994</ele><time>2026-04-11T13:42:32.422Z</time></trkpt><trkpt lat="43.958935" lon="11.275265"><ele>461.0</ele><time>2026-04-11T13:42:34.423Z</time></trkpt><trkpt lat="43.9588417" lon="11.2752133"><ele>459.0</ele><time>2026-04-11T13:42:36.423Z</time></trkpt><trkpt lat="43.9587383" lon="11.275125"><ele>457.0</ele><time>2026-04-11T13:42:38.422Z</time></trkpt><trkpt lat="43.958675" lon="11.2750867"><ele>455.0</ele><time>2026-04-11T13:42:39.424Z</time></trkpt><trkpt lat="43.9585533" lon="11.2750183"><ele>453.0</ele><time>2026-04-11T13:42:41.423Z</time></trkpt><trkpt lat="43.95849" lon="11.2750017"><ele>451.0</ele><time>2026-04-11T13:42:42.422Z</time></trkpt><trkpt lat="43.9583667" lon="11.2749267"><ele>450.00000000000006</ele><time>2026-04-11T13:42:44.426Z</time></trkpt><trkpt lat="43.9582967" lon="11.2749167"><ele>449.0</ele><time>2026-04-11T13:42:46.424Z</time></trkpt><trkpt lat="43.9582033" lon="11.2748767"><ele>448.0</ele><time>2026-04-11T13:42:49.424Z</time></trkpt><trkpt lat="43.95814" lon="11.2748367"><ele>447.0</ele><time>2026-04-11T13:42:51.422Z</time></trkpt><trkpt lat="43.9580683" lon="11.2747967"><ele>446.00000000000006</ele><time>2026-04-11T13:42:53.425Z</time></trkpt><trkpt lat="43.9580017" lon="11.2747833"><ele>445.0</ele><time>2026-04-11T13:42:55.425Z</time></trkpt><trkpt lat="43.957925" lon="11.2747567"><ele>446.6</ele><time>2026-04-11T13:42:58.421Z</time></trkpt><trkpt lat="43.957855" lon="11.2746783"><ele>448.2</ele><time>2026-04-11T13:42:59.423Z</time></trkpt><trkpt lat="43.9577917" lon="11.2746383"><ele>449.79999999999995</ele><time>2026-04-11T13:43:00.422Z</time></trkpt><trkpt lat="43.957675" lon="11.2745367"><ele>451.4</ele><time>2026-04-11T13:43:02.424Z</time></trkpt><trkpt lat="43.9576" lon="11.274475"><ele>453.0</ele><time>2026-04-11T13:43:03.42Z</time></trkpt><trkpt lat="43.9575283" lon="11.2744133"><ele>453.0</ele><time>2026-04-11T13:43:04.421Z</time></trkpt><trkpt lat="43.9574667" lon="11.2743617"><ele>452.99999999999994</ele><time>2026-04-11T13:43:05.421Z</time></trkpt><trkpt lat="43.9573917" lon="11.27423"><ele>452.99999999999994</ele><time>2026-04-11T13:43:08.422Z</time></trkpt><trkpt lat="43.957325" lon="11.27409"><ele>453.0</ele><time>2026-04-11T13:43:10.422Z</time></trkpt><trkpt lat="43.9572783" lon="11.2740167"><ele>453.0</ele><time>2026-04-11T13:43:11.424Z</time></trkpt><trkpt lat="43.9572267" lon="11.2739367"><ele>455.2857142857142</ele><time>2026-04-11T13:43:12.423Z</time></trkpt><trkpt lat="43.9571967" lon="11.2738433"><ele>457.57142857142856</ele><time>2026-04-11T13:43:13.422Z</time></trkpt><trkpt lat="43.9571683" lon="11.2737533"><ele>459.85714285714283</ele><time>2026-04-11T13:43:14.422Z</time></trkpt><trkpt lat="43.957145" lon="11.2736717"><ele>462.1428571428571</ele><time>2026-04-11T13:43:15.423Z</time></trkpt><trkpt lat="43.9571267" lon="11.27358"><ele>464.42857142857144</ele><time>2026-04-11T13:43:16.422Z</time></trkpt><trkpt lat="43.9571" lon="11.2734783"><ele>466.7142857142857</ele><time>2026-04-11T13:43:17.421Z</time></trkpt><trkpt lat="43.9570633" lon="11.2734067"><ele>469.0</ele><time>2026-04-11T13:43:18.422Z</time></trkpt><trkpt lat="43.9570267" lon="11.2732983"><ele>471.0</ele><time>2026-04-11T13:43:20.421Z</time></trkpt><trkpt lat="43.9571" lon="11.27302"><ele>473.0</ele><time>2026-04-11T13:43:22.422Z</time></trkpt><trkpt lat="43.9570567" lon="11.2728133"><ele>475.0</ele><time>2026-04-11T13:43:23.421Z</time></trkpt><trkpt lat="43.9569283" lon="11.2726783"><ele>475.00000000000006</ele><time>2026-04-11T13:43:25.423Z</time></trkpt><trkpt lat="43.956845" lon="11.272635"><ele>475.0</ele><time>2026-04-11T13:43:27.421Z</time></trkpt><trkpt lat="43.956765" lon="11.27263"><ele>475.0</ele><time>2026-04-11T13:43:37.425Z</time></trkpt><trkpt lat="43.9567" lon="11.272635"><ele>475.0</ele><time>2026-04-11T13:43:39.425Z</time></trkpt><trkpt lat="43.956625" lon="11.2726767"><ele>475.00000000000006</ele><time>2026-04-11T13:43:41.422Z</time></trkpt><trkpt lat="43.956555" lon="11.2727367"><ele>475.0</ele><time>2026-04-11T13:43:43.422Z</time></trkpt><trkpt lat="43.9564833" lon="11.2727783"><ele>474.1666666666667</ele><time>2026-04-11T13:43:45.423Z</time></trkpt><trkpt lat="43.9564083" lon="11.2727933"><ele>473.33333333333337</ele><time>2026-04-11T13:43:47.423Z</time></trkpt><trkpt lat="43.9563217" lon="11.27281"><ele>472.5</ele><time>2026-04-11T13:43:49.424Z</time></trkpt><trkpt lat="43.9562467" lon="11.27285"><ele>471.66666666666663</ele><time>2026-04-11T13:43:51.421Z</time></trkpt><trkpt lat="43.956185" lon="11.2729233"><ele>470.8333333333333</ele><time>2026-04-11T13:43:53.423Z</time></trkpt><trkpt lat="43.9561083" lon="11.2729567"><ele>470.0</ele><time>2026-04-11T13:43:56.422Z</time></trkpt><trkpt lat="43.9560317" lon="11.272965"><ele>469.99999999999994</ele><time>2026-04-11T13:43:59.422Z</time></trkpt><trkpt lat="43.9559617" lon="11.2728933"><ele>470.0</ele><time>2026-04-11T13:44:03.421Z</time></trkpt><trkpt lat="43.9559067" lon="11.272835"><ele>470.0</ele><time>2026-04-11T13:44:05.423Z</time></trkpt><trkpt lat="43.95583" lon="11.2727933"><ele>470.0</ele><time>2026-04-11T13:44:08.423Z</time></trkpt><trkpt lat="43.9557617" lon="11.272795"><ele>469.99999999999994</ele><time>2026-04-11T13:44:11.421Z</time></trkpt><trkpt lat="43.9556633" lon="11.2727333"><ele>470.0</ele><time>2026-04-11T13:44:14.424Z</time></trkpt><trkpt lat="43.95557" lon="11.2726717"><ele>470.6</ele><time>2026-04-11T13:44:16.423Z</time></trkpt><trkpt lat="43.95551" lon="11.27264"><ele>471.2</ele><time>2026-04-11T13:44:17.421Z</time></trkpt><trkpt lat="43.9553917" lon="11.2726267"><ele>471.79999999999995</ele><time>2026-04-11T13:44:18.423Z</time></trkpt><trkpt lat="43.9552917" lon="11.27259"><ele>472.4</ele><time>2026-04-11T13:44:19.425Z</time></trkpt><trkpt lat="43.9551517" lon="11.2725117"><ele>473.0</ele><time>2026-04-11T13:44:20.422Z</time></trkpt><trkpt lat="43.95507" lon="11.2724933"><ele>472.79999999999995</ele><time>2026-04-11T13:44:21.423Z</time></trkpt><trkpt lat="43.9549917" lon="11.272505"><ele>472.59999999999997</ele><time>2026-04-11T13:44:22.424Z</time></trkpt><trkpt lat="43.95492" lon="11.272565"><ele>472.40000000000003</ele><time>2026-04-11T13:44:24.42Z</time></trkpt><trkpt lat="43.9549" lon="11.272735"><ele>472.20000000000005</ele><time>2026-04-11T13:44:26.421Z</time></trkpt><trkpt lat="43.9548967" lon="11.27286"><ele>472.0</ele><time>2026-04-11T13:44:27.42Z</time></trkpt><trkpt lat="43.9548867" lon="11.2729733"><ele>472.00000000000006</ele><time>2026-04-11T13:44:28.421Z</time></trkpt><trkpt lat="43.9548683" lon="11.2730683"><ele>472.0</ele><time>2026-04-11T13:44:29.421Z</time></trkpt><trkpt lat="43.9548317" lon="11.27317"><ele>472.0</ele><time>2026-04-11T13:44:31.422Z</time></trkpt><trkpt lat="43.9547617" lon="11.2731667"><ele>472.0</ele><time>2026-04-11T13:44:33.422Z</time></trkpt><trkpt lat="43.954695" lon="11.273155"><ele>472.00000000000006</ele><time>2026-04-11T13:44:34.421Z</time></trkpt><trkpt lat="43.9546183" lon="11.2731667"><ele>472.0</ele><time>2026-04-11T13:44:35.421Z</time></trkpt><trkpt lat="43.9545333" lon="11.2731967"><ele>472.6</ele><time>2026-04-11T13:44:36.421Z</time></trkpt><trkpt lat="43.9544433" lon="11.273255"><ele>473.20000000000005</ele><time>2026-04-11T13:44:37.421Z</time></trkpt><trkpt lat="43.9543483" lon="11.2733317"><ele>473.8</ele><time>2026-04-11T13:44:38.424Z</time></trkpt><trkpt lat="43.9542683" lon="11.2734117"><ele>474.4</ele><time>2026-04-11T13:44:39.42Z</time></trkpt><trkpt lat="43.9541983" lon="11.273505"><ele>475.0</ele><time>2026-04-11T13:44:40.423Z</time></trkpt><trkpt lat="43.9541367" lon="11.27359"><ele>475.00000000000006</ele><time>2026-04-11T13:44:41.422Z</time></trkpt><trkpt lat="43.9540717" lon="11.2736733"><ele>475.0</ele><time>2026-04-11T13:44:42.423Z</time></trkpt><trkpt lat="43.9540117" lon="11.273755"><ele>475.0</ele><time>2026-04-11T13:44:43.425Z</time></trkpt><trkpt lat="43.9539533" lon="11.273835"><ele>475.0</ele><time>2026-04-11T13:44:44.422Z</time></trkpt><trkpt lat="43.9538883" lon="11.27391"><ele>475.00000000000006</ele><time>2026-04-11T13:44:45.423Z</time></trkpt><trkpt lat="43.95382" lon="11.2739883"><ele>475.0</ele><time>2026-04-11T13:44:46.421Z</time></trkpt><trkpt lat="43.9537667" lon="11.2740567"><ele>471.50000000000006</ele><time>2026-04-11T13:44:47.423Z</time></trkpt><trkpt lat="43.9537017" lon="11.2741483"><ele>468.0</ele><time>2026-04-11T13:44:49.423Z</time></trkpt><trkpt lat="43.9536683" lon="11.2742333"><ele>464.5</ele><time>2026-04-11T13:45:53.423Z</time></trkpt><trkpt lat="43.9536633" lon="11.274325"><ele>461.0</ele><time>2026-04-11T13:45:55.419Z</time></trkpt><trkpt lat="43.9536683" lon="11.2744217"><ele>457.50000000000006</ele><time>2026-04-11T13:45:57.422Z</time></trkpt><trkpt lat="43.95368" lon="11.274545"><ele>454.0</ele><time>2026-04-11T13:45:59.42Z</time></trkpt><trkpt lat="43.953695" lon="11.2746683"><ele>452.33333333333337</ele><time>2026-04-11T13:46:01.421Z</time></trkpt><trkpt lat="43.9537167" lon="11.2748133"><ele>450.6666666666667</ele><time>2026-04-11T13:46:03.42Z</time></trkpt><trkpt lat="43.953735" lon="11.2749733"><ele>449.0</ele><time>2026-04-11T13:46:05.422Z</time></trkpt><trkpt lat="43.9537467" lon="11.2750667"><ele>447.33333333333337</ele><time>2026-04-11T13:46:06.42Z</time></trkpt><trkpt lat="43.953755" lon="11.2751617"><ele>445.6666666666667</ele><time>2026-04-11T13:46:07.421Z</time></trkpt><trkpt lat="43.9537633" lon="11.2752533"><ele>444.0</ele><time>2026-04-11T13:46:08.42Z</time></trkpt><trkpt lat="43.9537617" lon="11.2753433"><ele>444.0</ele><time>2026-04-11T13:46:09.421Z</time></trkpt><trkpt lat="43.95373" lon="11.275505"><ele>444.0</ele><time>2026-04-11T13:46:11.422Z</time></trkpt><trkpt lat="43.9537083" lon="11.2755933"><ele>444.0</ele><time>2026-04-11T13:46:12.421Z</time></trkpt><trkpt lat="43.953685" lon="11.27568"><ele>444.0</ele><time>2026-04-11T13:46:13.424Z</time></trkpt><trkpt lat="43.9536567" lon="11.2757683"><ele>444.0</ele><time>2026-04-11T13:46:14.422Z</time></trkpt><trkpt lat="43.9535933" lon="11.275905"><ele>444.0</ele><time>2026-04-11T13:46:16.42Z</time></trkpt><trkpt lat="43.9535567" lon="11.2759917"><ele>444.3333333333333</ele><time>2026-04-11T13:46:17.421Z</time></trkpt><trkpt lat="43.9535217" lon="11.2760883"><ele>444.66666666666663</ele><time>2026-04-11T13:46:18.42Z</time></trkpt><trkpt lat="43.9534833" lon="11.2761933"><ele>445.0</ele><time>2026-04-11T13:46:19.422Z</time></trkpt><trkpt lat="43.95344" lon="11.2762933"><ele>445.3333333333333</ele><time>2026-04-11T13:46:20.423Z</time></trkpt><trkpt lat="43.9533983" lon="11.2763933"><ele>445.66666666666663</ele><time>2026-04-11T13:46:21.422Z</time></trkpt><trkpt lat="43.9533617" lon="11.2764883"><ele>446.0</ele><time>2026-04-11T13:46:22.422Z</time></trkpt><trkpt lat="43.9533267" lon="11.2765783"><ele>445.99999999999994</ele><time>2026-04-11T13:46:23.421Z</time></trkpt><trkpt lat="43.9532833" lon="11.2766667"><ele>446.0</ele><time>2026-04-11T13:46:24.422Z</time></trkpt><trkpt lat="43.9532433" lon="11.2767533"><ele>446.0</ele><time>2026-04-11T13:46:25.424Z</time></trkpt><trkpt lat="43.9532067" lon="11.276855"><ele>446.0</ele><time>2026-04-11T13:46:26.424Z</time></trkpt><trkpt lat="43.9531867" lon="11.276955"><ele>445.99999999999994</ele><time>2026-04-11T13:46:27.422Z</time></trkpt><trkpt lat="43.95316" lon="11.2770567"><ele>446.0</ele><time>2026-04-11T13:46:28.422Z</time></trkpt><trkpt lat="43.9531233" lon="11.2771467"><ele>446.0</ele><time>2026-04-11T13:46:29.423Z</time></trkpt><trkpt lat="43.9530717" lon="11.2772317"><ele>446.0</ele><time>2026-04-11T13:46:30.421Z</time></trkpt><trkpt lat="43.9530117" lon="11.27731"><ele>446.0</ele><time>2026-04-11T13:46:31.423Z</time></trkpt><trkpt lat="43.9529533" lon="11.2773683"><ele>446.0</ele><time>2026-04-11T13:46:32.423Z</time></trkpt><trkpt lat="43.9529083" lon="11.277435"><ele>446.0</ele><time>2026-04-11T13:46:33.419Z</time></trkpt><trkpt lat="43.9528817" lon="11.2775183"><ele>446.0</ele><time>2026-04-11T13:46:34.422Z</time></trkpt><trkpt lat="43.9528717" lon="11.2776217"><ele>446.0</ele><time>2026-04-11T13:46:35.422Z</time></trkpt><trkpt lat="43.9528717" lon="11.277725"><ele>443.8</ele><time>2026-04-11T13:46:36.422Z</time></trkpt><trkpt lat="43.95287" lon="11.277885"><ele>441.6</ele><time>2026-04-11T13:46:38.42Z</time></trkpt><trkpt lat="43.9528383" lon="11.2780117"><ele>439.4</ele><time>2026-04-11T13:46:40.422Z</time></trkpt><trkpt lat="43.9528033" lon="11.2781583"><ele>437.2</ele><time>2026-04-11T13:46:42.423Z</time></trkpt><trkpt lat="43.9527583" lon="11.278315"><ele>435.0</ele><time>2026-04-11T13:46:44.423Z</time></trkpt><trkpt lat="43.9527283" lon="11.2784"><ele>434.00000000000006</ele><time>2026-04-11T13:46:45.422Z</time></trkpt><trkpt lat="43.9527" lon="11.278495"><ele>433.0</ele><time>2026-04-11T13:46:46.423Z</time></trkpt><trkpt lat="43.9526717" lon="11.2785917"><ele>432.0</ele><time>2026-04-11T13:46:47.422Z</time></trkpt><trkpt lat="43.9526417" lon="11.278685"><ele>431.0</ele><time>2026-04-11T13:46:48.424Z</time></trkpt><trkpt lat="43.9526083" lon="11.278775"><ele>430.0</ele><time>2026-04-11T13:46:49.421Z</time></trkpt><trkpt lat="43.95257" lon="11.2788633"><ele>429.00000000000006</ele><time>2026-04-11T13:46:50.424Z</time></trkpt><trkpt lat="43.9525317" lon="11.2789517"><ele>428.0</ele><time>2026-04-11T13:46:51.424Z</time></trkpt><trkpt lat="43.9524967" lon="11.27904"><ele>428.00000000000006</ele><time>2026-04-11T13:46:52.422Z</time></trkpt><trkpt lat="43.9524617" lon="11.2791367"><ele>428.0</ele><time>2026-04-11T13:46:53.423Z</time></trkpt><trkpt lat="43.9524317" lon="11.2792267"><ele>428.0</ele><time>2026-04-11T13:46:54.425Z</time></trkpt><trkpt lat="43.9524" lon="11.2793167"><ele>428.0</ele><time>2026-04-11T13:46:55.425Z</time></trkpt><trkpt lat="43.952365" lon="11.2794017"><ele>428.0</ele><time>2026-04-11T13:46:56.423Z</time></trkpt><trkpt lat="43.9523267" lon="11.27949"><ele>428.00000000000006</ele><time>2026-04-11T13:46:57.424Z</time></trkpt><trkpt lat="43.9522883" lon="11.27958"><ele>428.0</ele><time>2026-04-11T13:46:58.421Z</time></trkpt><trkpt lat="43.9522617" lon="11.2796733"><ele>428.66666666666663</ele><time>2026-04-11T13:46:59.422Z</time></trkpt><trkpt lat="43.9522467" lon="11.279775"><ele>429.3333333333333</ele><time>2026-04-11T13:47:00.422Z</time></trkpt><trkpt lat="43.952245" lon="11.27987"><ele>430.0</ele><time>2026-04-11T13:47:01.419Z</time></trkpt><trkpt lat="43.952255" lon="11.27996"><ele>430.66666666666663</ele><time>2026-04-11T13:47:02.422Z</time></trkpt><trkpt lat="43.9522883" lon="11.2801367"><ele>431.3333333333333</ele><time>2026-04-11T13:47:04.421Z</time></trkpt><trkpt lat="43.952325" lon="11.28025"><ele>432.0</ele><time>2026-04-11T13:47:05.422Z</time></trkpt><trkpt lat="43.95238" lon="11.2803933"><ele>432.0</ele><time>2026-04-11T13:47:06.422Z</time></trkpt><trkpt lat="43.9524367" lon="11.280535"><ele>432.0</ele><time>2026-04-11T13:47:07.421Z</time></trkpt><trkpt lat="43.9524867" lon="11.28066"><ele>432.0</ele><time>2026-04-11T13:47:08.423Z</time></trkpt><trkpt lat="43.9525217" lon="11.2807733"><ele>432.0</ele><time>2026-04-11T13:47:09.425Z</time></trkpt><trkpt lat="43.9525417" lon="11.2808633"><ele>432.0</ele><time>2026-04-11T13:47:10.423Z</time></trkpt><trkpt lat="43.95255" lon="11.28096"><ele>432.0</ele><time>2026-04-11T13:47:11.422Z</time></trkpt><trkpt lat="43.9525417" lon="11.2810717"><ele>434.25</ele><time>2026-04-11T13:47:12.423Z</time></trkpt><trkpt lat="43.95251" lon="11.2812233"><ele>436.5</ele><time>2026-04-11T13:47:13.423Z</time></trkpt><trkpt lat="43.9524633" lon="11.281395"><ele>438.75</ele><time>2026-04-11T13:47:14.422Z</time></trkpt><trkpt lat="43.9524217" lon="11.2815483"><ele>441.0</ele><time>2026-04-11T13:47:15.422Z</time></trkpt><trkpt lat="43.9523783" lon="11.2816867"><ele>441.0</ele><time>2026-04-11T13:47:16.422Z</time></trkpt><trkpt lat="43.9523333" lon="11.28181"><ele>441.0</ele><time>2026-04-11T13:47:17.421Z</time></trkpt><trkpt lat="43.952285" lon="11.2819467"><ele>441.0</ele><time>2026-04-11T13:47:18.421Z</time></trkpt><trkpt lat="43.9522317" lon="11.282075"><ele>441.0</ele><time>2026-04-11T13:47:19.421Z</time></trkpt><trkpt lat="43.95218" lon="11.2821917"><ele>441.0</ele><time>2026-04-11T13:47:20.423Z</time></trkpt><trkpt lat="43.95212" lon="11.2823017"><ele>440.6</ele><time>2026-04-11T13:47:21.422Z</time></trkpt><trkpt lat="43.9520617" lon="11.28241"><ele>440.20000000000005</ele><time>2026-04-11T13:47:22.422Z</time></trkpt><trkpt lat="43.9520083" lon="11.2825133"><ele>439.79999999999995</ele><time>2026-04-11T13:47:23.421Z</time></trkpt><trkpt lat="43.9519583" lon="11.28262"><ele>439.4</ele><time>2026-04-11T13:47:24.421Z</time></trkpt><trkpt lat="43.9519067" lon="11.282725"><ele>439.0</ele><time>2026-04-11T13:47:25.42Z</time></trkpt><trkpt lat="43.9518533" lon="11.2828383"><ele>439.00000000000006</ele><time>2026-04-11T13:47:26.422Z</time></trkpt><trkpt lat="43.951815" lon="11.2829467"><ele>439.0</ele><time>2026-04-11T13:47:27.422Z</time></trkpt><trkpt lat="43.9517833" lon="11.2830667"><ele>439.0</ele><time>2026-04-11T13:47:28.422Z</time></trkpt><trkpt lat="43.9517583" lon="11.283185"><ele>439.0</ele><time>2026-04-11T13:47:29.421Z</time></trkpt><trkpt lat="43.9517367" lon="11.2833"><ele>439.00000000000006</ele><time>2026-04-11T13:47:30.422Z</time></trkpt><trkpt lat="43.9517217" lon="11.2834183"><ele>439.0</ele><time>2026-04-11T13:47:31.423Z</time></trkpt><trkpt lat="43.951715" lon="11.283535"><ele>438.2</ele><time>2026-04-11T13:47:32.424Z</time></trkpt><trkpt lat="43.9517167" lon="11.28367"><ele>437.4</ele><time>2026-04-11T13:47:33.421Z</time></trkpt><trkpt lat="43.9517383" lon="11.283805"><ele>436.6</ele><time>2026-04-11T13:47:34.42Z</time></trkpt><trkpt lat="43.9517717" lon="11.2839283"><ele>435.8</ele><time>2026-04-11T13:47:35.424Z</time></trkpt><trkpt lat="43.9518133" lon="11.2840467"><ele>435.0</ele><time>2026-04-11T13:47:36.422Z</time></trkpt><trkpt lat="43.951855" lon="11.2841767"><ele>434.4</ele><time>2026-04-11T13:47:37.439Z</time></trkpt><trkpt lat="43.9518983" lon="11.2843083"><ele>433.8</ele><time>2026-04-11T13:47:38.425Z</time></trkpt><trkpt lat="43.9519467" lon="11.2844317"><ele>433.20000000000005</ele><time>2026-04-11T13:47:39.424Z</time></trkpt><trkpt lat="43.9519967" lon="11.2845467"><ele>432.6</ele><time>2026-04-11T13:47:40.42Z</time></trkpt><trkpt lat="43.9520433" lon="11.28465"><ele>432.0</ele><time>2026-04-11T13:47:41.425Z</time></trkpt><trkpt lat="43.9520867" lon="11.2847483"><ele>432.1666666666667</ele><time>2026-04-11T13:47:42.419Z</time></trkpt><trkpt lat="43.95213" lon="11.284845"><ele>432.33333333333337</ele><time>2026-04-11T13:47:43.422Z</time></trkpt><trkpt lat="43.95217" lon="11.28494"><ele>432.5</ele><time>2026-04-11T13:47:44.422Z</time></trkpt><trkpt lat="43.9522133" lon="11.285035"><ele>432.6666666666667</ele><time>2026-04-11T13:47:45.421Z</time></trkpt><trkpt lat="43.95226" lon="11.2851233"><ele>432.83333333333337</ele><time>2026-04-11T13:47:46.42Z</time></trkpt><trkpt lat="43.9522967" lon="11.2852083"><ele>433.0</ele><time>2026-04-11T13:47:47.421Z</time></trkpt><trkpt lat="43.95235" lon="11.2853433"><ele>433.0</ele><time>2026-04-11T13:47:49.421Z</time></trkpt><trkpt lat="43.952385" lon="11.2854567"><ele>432.99999999999994</ele><time>2026-04-11T13:47:51.419Z</time></trkpt><trkpt lat="43.9524117" lon="11.2856383"><ele>432.99999999999994</ele><time>2026-04-11T13:47:53.422Z</time></trkpt><trkpt lat="43.9524317" lon="11.2857317"><ele>433.0</ele><time>2026-04-11T13:47:54.421Z</time></trkpt><trkpt lat="43.95245" lon="11.28585"><ele>433.0</ele><time>2026-04-11T13:47:55.422Z</time></trkpt><trkpt lat="43.9524667" lon="11.2859917"><ele>433.59999999999997</ele><time>2026-04-11T13:47:56.422Z</time></trkpt><trkpt lat="43.9524883" lon="11.2861233"><ele>434.19999999999993</ele><time>2026-04-11T13:47:57.421Z</time></trkpt><trkpt lat="43.9525033" lon="11.286255"><ele>434.8</ele><time>2026-04-11T13:47:58.426Z</time></trkpt><trkpt lat="43.952515" lon="11.2863833"><ele>435.4</ele><time>2026-04-11T13:47:59.421Z</time></trkpt><trkpt lat="43.952515" lon="11.2865183"><ele>436.0</ele><time>2026-04-11T13:48:00.423Z</time></trkpt><trkpt lat="43.9525083" lon="11.2866483"><ele>436.50000000000006</ele><time>2026-04-11T13:48:01.421Z</time></trkpt><trkpt lat="43.9525067" lon="11.2867533"><ele>437.0</ele><time>2026-04-11T13:48:02.422Z</time></trkpt><trkpt lat="43.9525067" lon="11.28686"><ele>437.5</ele><time>2026-04-11T13:48:03.422Z</time></trkpt><trkpt lat="43.952515" lon="11.2869667"><ele>438.0</ele><time>2026-04-11T13:48:04.423Z</time></trkpt><trkpt lat="43.95253" lon="11.28709"><ele>438.50000000000006</ele><time>2026-04-11T13:48:05.424Z</time></trkpt><trkpt lat="43.952545" lon="11.2871933"><ele>439.0</ele><time>2026-04-11T13:48:06.423Z</time></trkpt><trkpt lat="43.9525617" lon="11.2873033"><ele>439.42857142857144</ele><time>2026-04-11T13:48:07.422Z</time></trkpt><trkpt lat="43.9525817" lon="11.28741"><ele>439.85714285714283</ele><time>2026-04-11T13:48:08.422Z</time></trkpt><trkpt lat="43.95261" lon="11.2875083"><ele>440.28571428571433</ele><time>2026-04-11T13:48:09.42Z</time></trkpt><trkpt lat="43.9526317" lon="11.2876017"><ele>440.7142857142857</ele><time>2026-04-11T13:48:10.421Z</time></trkpt><trkpt lat="43.9526567" lon="11.2876883"><ele>441.14285714285717</ele><time>2026-04-11T13:48:11.424Z</time></trkpt><trkpt lat="43.9526917" lon="11.2877633"><ele>441.5714285714286</ele><time>2026-04-11T13:48:12.423Z</time></trkpt><trkpt lat="43.952735" lon="11.287845"><ele>442.0</ele><time>2026-04-11T13:48:13.422Z</time></trkpt><trkpt lat="43.952785" lon="11.287905"><ele>442.00000000000006</ele><time>2026-04-11T13:48:14.421Z</time></trkpt><trkpt lat="43.95285" lon="11.2879517"><ele>442.0</ele><time>2026-04-11T13:48:15.423Z</time></trkpt><trkpt lat="43.95292" lon="11.2879983"><ele>442.0</ele><time>2026-04-11T13:48:16.419Z</time></trkpt><trkpt lat="43.9529817" lon="11.2880283"><ele>442.0</ele><time>2026-04-11T13:48:17.425Z</time></trkpt><trkpt lat="43.95308" lon="11.2880667"><ele>442.00000000000006</ele><time>2026-04-11T13:48:19.424Z</time></trkpt><trkpt lat="43.9531833" lon="11.2881217"><ele>442.0</ele><time>2026-04-11T13:48:21.423Z</time></trkpt><trkpt lat="43.9532867" lon="11.2881833"><ele>435.50000000000006</ele><time>2026-04-11T13:48:23.424Z</time></trkpt><trkpt lat="43.95339" lon="11.28827"><ele>429.0</ele><time>2026-04-11T13:48:25.425Z</time></trkpt><trkpt lat="43.9534433" lon="11.2883267"><ele>422.5</ele><time>2026-04-11T13:48:26.422Z</time></trkpt><trkpt lat="43.9534967" lon="11.2883883"><ele>416.0</ele><time>2026-04-11T13:48:27.421Z</time></trkpt><trkpt lat="43.9535467" lon="11.28846"><ele>409.50000000000006</ele><time>2026-04-11T13:48:28.424Z</time></trkpt><trkpt lat="43.9535933" lon="11.2885267"><ele>403.0</ele><time>2026-04-11T13:48:29.423Z</time></trkpt><trkpt lat="43.9536383" lon="11.2885983"><ele>403.00000000000006</ele><time>2026-04-11T13:48:30.423Z</time></trkpt><trkpt lat="43.9536817" lon="11.2887"><ele>403.0</ele><time>2026-04-11T13:48:31.424Z</time></trkpt><trkpt lat="43.9537217" lon="11.28881"><ele>403.0</ele><time>2026-04-11T13:48:32.423Z</time></trkpt><trkpt lat="43.9537567" lon="11.2889167"><ele>403.0</ele><time>2026-04-11T13:48:33.423Z</time></trkpt><trkpt lat="43.953785" lon="11.2890083"><ele>403.00000000000006</ele><time>2026-04-11T13:48:34.424Z</time></trkpt><trkpt lat="43.9538283" lon="11.2891117"><ele>403.0</ele><time>2026-04-11T13:48:35.422Z</time></trkpt><trkpt lat="43.9538717" lon="11.2892217"><ele>402.79999999999995</ele><time>2026-04-11T13:48:36.423Z</time></trkpt><trkpt lat="43.9539183" lon="11.2893383"><ele>402.6</ele><time>2026-04-11T13:48:37.419Z</time></trkpt><trkpt lat="43.9539683" lon="11.2894783"><ele>402.4</ele><time>2026-04-11T13:48:38.424Z</time></trkpt><trkpt lat="43.9540133" lon="11.2896167"><ele>402.20000000000005</ele><time>2026-04-11T13:48:39.424Z</time></trkpt><trkpt lat="43.9540567" lon="11.28975"><ele>402.0</ele><time>2026-04-11T13:48:40.421Z</time></trkpt><trkpt lat="43.954105" lon="11.2898783"><ele>401.3333333333333</ele><time>2026-04-11T13:48:41.424Z</time></trkpt><trkpt lat="43.9541483" lon="11.2899933"><ele>400.66666666666663</ele><time>2026-04-11T13:48:42.425Z</time></trkpt><trkpt lat="43.9541917" lon="11.2900917"><ele>400.0</ele><time>2026-04-11T13:48:43.423Z</time></trkpt><trkpt lat="43.9542283" lon="11.29019"><ele>399.3333333333333</ele><time>2026-04-11T13:48:44.424Z</time></trkpt><trkpt lat="43.9542583" lon="11.2903033"><ele>398.66666666666663</ele><time>2026-04-11T13:48:45.425Z</time></trkpt><trkpt lat="43.9542817" lon="11.29042"><ele>398.0</ele><time>2026-04-11T13:48:46.42Z</time></trkpt><trkpt lat="43.9542967" lon="11.2905383"><ele>397.79999999999995</ele><time>2026-04-11T13:48:47.422Z</time></trkpt><trkpt lat="43.95431" lon="11.29067"><ele>397.6</ele><time>2026-04-11T13:48:48.426Z</time></trkpt><trkpt lat="43.954315" lon="11.29081"><ele>397.4</ele><time>2026-04-11T13:48:49.422Z</time></trkpt><trkpt lat="43.954315" lon="11.2909567"><ele>397.20000000000005</ele><time>2026-04-11T13:48:50.424Z</time></trkpt><trkpt lat="43.95432" lon="11.2911133"><ele>397.0</ele><time>2026-04-11T13:48:51.423Z</time></trkpt><trkpt lat="43.9543233" lon="11.2912667"><ele>397.0</ele><time>2026-04-11T13:48:52.424Z</time></trkpt><trkpt lat="43.954325" lon="11.291415"><ele>397.0</ele><time>2026-04-11T13:48:53.422Z</time></trkpt><trkpt lat="43.954325" lon="11.2915533"><ele>397.0</ele><time>2026-04-11T13:48:54.424Z</time></trkpt><trkpt lat="43.9543233" lon="11.291685"><ele>397.0</ele><time>2026-04-11T13:48:55.422Z</time></trkpt><trkpt lat="43.9543233" lon="11.2918217"><ele>397.0</ele><time>2026-04-11T13:48:56.425Z</time></trkpt><trkpt lat="43.9543167" lon="11.2919583"><ele>396.00000000000006</ele><time>2026-04-11T13:48:57.424Z</time></trkpt><trkpt lat="43.95432" lon="11.2920883"><ele>395.0</ele><time>2026-04-11T13:48:58.424Z</time></trkpt><trkpt lat="43.9543233" lon="11.29221"><ele>394.0</ele><time>2026-04-11T13:48:59.421Z</time></trkpt><trkpt lat="43.9543283" lon="11.2923083"><ele>393.0</ele><time>2026-04-11T13:49:00.423Z</time></trkpt><trkpt lat="43.95434" lon="11.29241"><ele>392.00000000000006</ele><time>2026-04-11T13:49:01.422Z</time></trkpt><trkpt lat="43.95435" lon="11.2925117"><ele>391.0</ele><time>2026-04-11T13:49:02.422Z</time></trkpt><trkpt lat="43.9543617" lon="11.2926083"><ele>391.00000000000006</ele><time>2026-04-11T13:49:03.422Z</time></trkpt><trkpt lat="43.9543733" lon="11.29272"><ele>391.0</ele><time>2026-04-11T13:49:04.422Z</time></trkpt><trkpt lat="43.9543933" lon="11.2928233"><ele>391.0</ele><time>2026-04-11T13:49:05.423Z</time></trkpt><trkpt lat="43.954415" lon="11.2929367"><ele>391.0</ele><time>2026-04-11T13:49:06.421Z</time></trkpt><trkpt lat="43.9544333" lon="11.29304"><ele>391.00000000000006</ele><time>2026-04-11T13:49:07.422Z</time></trkpt><trkpt lat="43.954455" lon="11.293215"><ele>391.0</ele><time>2026-04-11T13:49:09.423Z</time></trkpt><trkpt lat="43.9544417" lon="11.2934117"><ele>391.6</ele><time>2026-04-11T13:49:11.424Z</time></trkpt><trkpt lat="43.9544217" lon="11.2935167"><ele>392.20000000000005</ele><time>2026-04-11T13:49:12.422Z</time></trkpt><trkpt lat="43.9544067" lon="11.29364"><ele>392.79999999999995</ele><time>2026-04-11T13:49:13.42Z</time></trkpt><trkpt lat="43.9543967" lon="11.29376"><ele>393.4</ele><time>2026-04-11T13:49:14.422Z</time></trkpt><trkpt lat="43.9543967" lon="11.2938883"><ele>394.0</ele><time>2026-04-11T13:49:15.422Z</time></trkpt><trkpt lat="43.9543917" lon="11.29403"><ele>394.83333333333337</ele><time>2026-04-11T13:49:16.422Z</time></trkpt><trkpt lat="43.9543933" lon="11.2941867"><ele>395.6666666666667</ele><time>2026-04-11T13:49:17.421Z</time></trkpt><trkpt lat="43.9544" lon="11.2943183"><ele>396.5</ele><time>2026-04-11T13:49:18.422Z</time></trkpt><trkpt lat="43.9543983" lon="11.2944483"><ele>397.33333333333337</ele><time>2026-04-11T13:49:19.424Z</time></trkpt><trkpt lat="43.954405" lon="11.29455"><ele>398.1666666666667</ele><time>2026-04-11T13:49:20.422Z</time></trkpt><trkpt lat="43.9544133" lon="11.2946467"><ele>399.0</ele><time>2026-04-11T13:49:21.423Z</time></trkpt><trkpt lat="43.95443" lon="11.2947333"><ele>396.4</ele><time>2026-04-11T13:49:22.424Z</time></trkpt><trkpt lat="43.95446" lon="11.29483"><ele>393.79999999999995</ele><time>2026-04-11T13:49:23.425Z</time></trkpt><trkpt lat="43.9545033" lon="11.2949317"><ele>391.20000000000005</ele><time>2026-04-11T13:49:24.425Z</time></trkpt><trkpt lat="43.95456" lon="11.295035"><ele>388.6</ele><time>2026-04-11T13:49:25.422Z</time></trkpt><trkpt lat="43.9546267" lon="11.2951317"><ele>386.0</ele><time>2026-04-11T13:49:26.424Z</time></trkpt><trkpt lat="43.9546933" lon="11.2952417"><ele>385.99999999999994</ele><time>2026-04-11T13:49:27.424Z</time></trkpt><trkpt lat="43.95475" lon="11.2953333"><ele>386.0</ele><time>2026-04-11T13:49:28.421Z</time></trkpt><trkpt lat="43.9548033" lon="11.29542"><ele>386.0</ele><time>2026-04-11T13:49:29.424Z</time></trkpt><trkpt lat="43.9548567" lon="11.2955"><ele>386.0</ele><time>2026-04-11T13:49:30.422Z</time></trkpt><trkpt lat="43.95491" lon="11.2955833"><ele>385.99999999999994</ele><time>2026-04-11T13:49:31.421Z</time></trkpt><trkpt lat="43.95496" lon="11.2956583"><ele>386.0</ele><time>2026-04-11T13:49:32.422Z</time></trkpt><trkpt lat="43.95501" lon="11.295745"><ele>384.3333333333333</ele><time>2026-04-11T13:49:33.422Z</time></trkpt><trkpt lat="43.95505" lon="11.2958333"><ele>382.66666666666663</ele><time>2026-04-11T13:49:34.421Z</time></trkpt><trkpt lat="43.9550783" lon="11.2959283"><ele>381.0</ele><time>2026-04-11T13:49:35.423Z</time></trkpt><trkpt lat="43.95509" lon="11.2960333"><ele>379.3333333333333</ele><time>2026-04-11T13:49:36.421Z</time></trkpt><trkpt lat="43.9550917" lon="11.2961367"><ele>377.66666666666663</ele><time>2026-04-11T13:49:37.422Z</time></trkpt><trkpt lat="43.95507" lon="11.29624"><ele>376.0</ele><time>2026-04-11T13:49:38.422Z</time></trkpt><trkpt lat="43.955045" lon="11.29634"><ele>375.0</ele><time>2026-04-11T13:49:39.419Z</time></trkpt><trkpt lat="43.9550283" lon="11.2964567"><ele>374.0</ele><time>2026-04-11T13:49:40.421Z</time></trkpt><trkpt lat="43.9550283" lon="11.29658"><ele>373.0</ele><time>2026-04-11T13:49:41.421Z</time></trkpt><trkpt lat="43.955045" lon="11.2967"><ele>372.0</ele><time>2026-04-11T13:49:42.421Z</time></trkpt><trkpt lat="43.9550733" lon="11.2968133"><ele>371.0</ele><time>2026-04-11T13:49:43.421Z</time></trkpt><trkpt lat="43.9551033" lon="11.296915"><ele>370.0</ele><time>2026-04-11T13:49:44.422Z</time></trkpt><trkpt lat="43.9551333" lon="11.2970267"><ele>370.0</ele><time>2026-04-11T13:49:45.42Z</time></trkpt><trkpt lat="43.9551567" lon="11.2971417"><ele>370.0</ele><time>2026-04-11T13:49:46.421Z</time></trkpt><trkpt lat="43.9551733" lon="11.2972583"><ele>370.0</ele><time>2026-04-11T13:49:47.42Z</time></trkpt><trkpt lat="43.9551867" lon="11.297375"><ele>370.0</ele><time>2026-04-11T13:49:48.422Z</time></trkpt><trkpt lat="43.9552017" lon="11.2974983"><ele>370.0</ele><time>2026-04-11T13:49:49.421Z</time></trkpt><trkpt lat="43.9552217" lon="11.2976267"><ele>370.0</ele><time>2026-04-11T13:49:50.422Z</time></trkpt><trkpt lat="43.9552367" lon="11.297755"><ele>369.3333333333333</ele><time>2026-04-11T13:49:51.419Z</time></trkpt><trkpt lat="43.9552467" lon="11.2978767"><ele>368.66666666666663</ele><time>2026-04-11T13:49:52.422Z</time></trkpt><trkpt lat="43.9552583" lon="11.2979867"><ele>368.0</ele><time>2026-04-11T13:49:53.421Z</time></trkpt><trkpt lat="43.9552633" lon="11.2980917"><ele>367.3333333333333</ele><time>2026-04-11T13:49:54.421Z</time></trkpt><trkpt lat="43.955255" lon="11.2982033"><ele>366.6666666666667</ele><time>2026-04-11T13:49:55.42Z</time></trkpt><trkpt lat="43.9552383" lon="11.2983067"><ele>366.0</ele><time>2026-04-11T13:49:56.42Z</time></trkpt><trkpt lat="43.95521" lon="11.298405"><ele>363.6</ele><time>2026-04-11T13:49:57.421Z</time></trkpt><trkpt lat="43.955175" lon="11.298515"><ele>361.20000000000005</ele><time>2026-04-11T13:49:58.42Z</time></trkpt><trkpt lat="43.9551333" lon="11.2986317"><ele>358.79999999999995</ele><time>2026-04-11T13:49:59.421Z</time></trkpt><trkpt lat="43.9551" lon="11.2987383"><ele>356.4</ele><time>2026-04-11T13:50:00.421Z</time></trkpt><trkpt lat="43.95506" lon="11.2988617"><ele>354.0</ele><time>2026-04-11T13:50:01.42Z</time></trkpt><trkpt lat="43.9550167" lon="11.298985"><ele>348.0</ele><time>2026-04-11T13:50:02.421Z</time></trkpt><trkpt lat="43.9549667" lon="11.2991067"><ele>342.0</ele><time>2026-04-11T13:50:03.419Z</time></trkpt><trkpt lat="43.954915" lon="11.2992133"><ele>336.0</ele><time>2026-04-11T13:50:04.42Z</time></trkpt><trkpt lat="43.9548717" lon="11.2993017"><ele>330.0</ele><time>2026-04-11T13:50:05.421Z</time></trkpt><trkpt lat="43.95483" lon="11.2994383"><ele>324.0</ele><time>2026-04-11T13:50:07.421Z</time></trkpt><trkpt lat="43.9548483" lon="11.2995833"><ele>324.0</ele><time>2026-04-11T13:50:09.423Z</time></trkpt><trkpt lat="43.95495" lon="11.2995967"><ele>324.0</ele><time>2026-04-11T13:50:11.422Z</time></trkpt><trkpt lat="43.955015" lon="11.2995883"><ele>324.0</ele><time>2026-04-11T13:50:12.42Z</time></trkpt><trkpt lat="43.95509" lon="11.2995683"><ele>324.0</ele><time>2026-04-11T13:50:13.42Z</time></trkpt><trkpt lat="43.9551733" lon="11.2995333"><ele>324.0</ele><time>2026-04-11T13:50:14.421Z</time></trkpt><trkpt lat="43.9552533" lon="11.299505"><ele>324.0</ele><time>2026-04-11T13:50:15.421Z</time></trkpt><trkpt lat="43.955335" lon="11.2994883"><ele>325.2857142857143</ele><time>2026-04-11T13:50:16.421Z</time></trkpt><trkpt lat="43.9554083" lon="11.299475"><ele>326.57142857142856</ele><time>2026-04-11T13:50:17.421Z</time></trkpt><trkpt lat="43.9554783" lon="11.2994783"><ele>327.8571428571429</ele><time>2026-04-11T13:50:18.422Z</time></trkpt><trkpt lat="43.955545" lon="11.2994917"><ele>329.1428571428571</ele><time>2026-04-11T13:50:19.424Z</time></trkpt><trkpt lat="43.9556067" lon="11.299525"><ele>330.4285714285714</ele><time>2026-04-11T13:50:21.424Z</time></trkpt><trkpt lat="43.955625" lon="11.29962"><ele>331.7142857142857</ele><time>2026-04-11T13:50:23.42Z</time></trkpt><trkpt lat="43.9556217" lon="11.2997167"><ele>333.0</ele><time>2026-04-11T13:50:24.421Z</time></trkpt><trkpt lat="43.955615" lon="11.299825"><ele>329.3333333333333</ele><time>2026-04-11T13:50:25.423Z</time></trkpt><trkpt lat="43.95562" lon="11.2999317"><ele>325.6666666666667</ele><time>2026-04-11T13:50:26.422Z</time></trkpt><trkpt lat="43.9556283" lon="11.300045"><ele>322.0</ele><time>2026-04-11T13:50:27.423Z</time></trkpt><trkpt lat="43.955635" lon="11.3001367"><ele>318.33333333333337</ele><time>2026-04-11T13:50:28.422Z</time></trkpt><trkpt lat="43.9556417" lon="11.3002467"><ele>314.6666666666667</ele><time>2026-04-11T13:50:29.422Z</time></trkpt><trkpt lat="43.9556467" lon="11.300375"><ele>311.0</ele><time>2026-04-11T13:50:30.421Z</time></trkpt><trkpt lat="43.9556433" lon="11.3004933"><ele>308.0</ele><time>2026-04-11T13:50:31.422Z</time></trkpt><trkpt lat="43.95563" lon="11.3006167"><ele>305.0</ele><time>2026-04-11T13:50:32.422Z</time></trkpt><trkpt lat="43.9556133" lon="11.300715"><ele>302.0</ele><time>2026-04-11T13:50:33.421Z</time></trkpt><trkpt lat="43.9555367" lon="11.3008583"><ele>299.0</ele><time>2026-04-11T13:50:35.422Z</time></trkpt><trkpt lat="43.9554867" lon="11.3009117"><ele>296.0</ele><time>2026-04-11T13:50:36.421Z</time></trkpt><trkpt lat="43.95537" lon="11.3009633"><ele>296.0</ele><time>2026-04-11T13:50:38.422Z</time></trkpt><trkpt lat="43.9553067" lon="11.3010017"><ele>296.0</ele><time>2026-04-11T13:50:39.421Z</time></trkpt><trkpt lat="43.95525" lon="11.30108"><ele>296.0</ele><time>2026-04-11T13:50:40.421Z</time></trkpt><trkpt lat="43.95519" lon="11.3011717"><ele>296.0</ele><time>2026-04-11T13:50:41.422Z</time></trkpt><trkpt lat="43.955135" lon="11.3012733"><ele>296.0</ele><time>2026-04-11T13:50:42.421Z</time></trkpt><trkpt lat="43.9550733" lon="11.301365"><ele>296.0</ele><time>2026-04-11T13:50:43.42Z</time></trkpt><trkpt lat="43.95501" lon="11.3014433"><ele>294.0</ele><time>2026-04-11T13:50:44.421Z</time></trkpt><trkpt lat="43.9549467" lon="11.3015017"><ele>292.0</ele><time>2026-04-11T13:50:45.42Z</time></trkpt><trkpt lat="43.9548833" lon="11.3015717"><ele>290.0</ele><time>2026-04-11T13:50:46.42Z</time></trkpt><trkpt lat="43.95481" lon="11.301635"><ele>288.0</ele><time>2026-04-11T13:50:47.42Z</time></trkpt><trkpt lat="43.954745" lon="11.3016967"><ele>286.0</ele><time>2026-04-11T13:50:48.423Z</time></trkpt><trkpt lat="43.9546717" lon="11.3017433"><ele>284.0</ele><time>2026-04-11T13:50:49.421Z</time></trkpt><trkpt lat="43.9545983" lon="11.3017917"><ele>284.0</ele><time>2026-04-11T13:50:50.422Z</time></trkpt><trkpt lat="43.95454" lon="11.3018467"><ele>284.0</ele><time>2026-04-11T13:50:51.422Z</time></trkpt><trkpt lat="43.954475" lon="11.301895"><ele>284.0</ele><time>2026-04-11T13:50:52.422Z</time></trkpt><trkpt lat="43.9544017" lon="11.3019483"><ele>284.0</ele><time>2026-04-11T13:50:53.418Z</time></trkpt><trkpt lat="43.9543383" lon="11.3020183"><ele>284.0</ele><time>2026-04-11T13:50:54.418Z</time></trkpt><trkpt lat="43.9543017" lon="11.3021117"><ele>284.0</ele><time>2026-04-11T13:50:55.419Z</time></trkpt><trkpt lat="43.9542833" lon="11.302215"><ele>282.5</ele><time>2026-04-11T13:50:56.419Z</time></trkpt><trkpt lat="43.9542883" lon="11.30232"><ele>281.0</ele><time>2026-04-11T13:50:57.422Z</time></trkpt><trkpt lat="43.95432" lon="11.3024217"><ele>279.5</ele><time>2026-04-11T13:50:58.423Z</time></trkpt><trkpt lat="43.95434" lon="11.3025483"><ele>278.0</ele><time>2026-04-11T13:50:59.422Z</time></trkpt><trkpt lat="43.9543633" lon="11.3026833"><ele>276.5</ele><time>2026-04-11T13:51:00.422Z</time></trkpt><trkpt lat="43.9543883" lon="11.3028167"><ele>275.0</ele><time>2026-04-11T13:51:01.423Z</time></trkpt><trkpt lat="43.95442" lon="11.3029533"><ele>273.2</ele><time>2026-04-11T13:51:02.424Z</time></trkpt><trkpt lat="43.9544533" lon="11.3030867"><ele>271.4</ele><time>2026-04-11T13:51:03.422Z</time></trkpt><trkpt lat="43.9544933" lon="11.3032133"><ele>269.6</ele><time>2026-04-11T13:51:04.421Z</time></trkpt><trkpt lat="43.9545333" lon="11.30334"><ele>267.8</ele><time>2026-04-11T13:51:05.42Z</time></trkpt><trkpt lat="43.9545767" lon="11.3034567"><ele>266.0</ele><time>2026-04-11T13:51:06.421Z</time></trkpt><trkpt lat="43.95462" lon="11.3035733"><ele>266.0</ele><time>2026-04-11T13:51:07.421Z</time></trkpt><trkpt lat="43.95466" lon="11.3036967"><ele>266.0</ele><time>2026-04-11T13:51:08.423Z</time></trkpt><trkpt lat="43.9546967" lon="11.30381"><ele>266.0</ele><time>2026-04-11T13:51:09.42Z</time></trkpt><trkpt lat="43.9547233" lon="11.3039417"><ele>266.0</ele><time>2026-04-11T13:51:10.423Z</time></trkpt><trkpt lat="43.9547383" lon="11.3041"><ele>266.0</ele><time>2026-04-11T13:51:11.421Z</time></trkpt><trkpt lat="43.9547567" lon="11.30426"><ele>265.25</ele><time>2026-04-11T13:51:12.42Z</time></trkpt><trkpt lat="43.9547867" lon="11.30442"><ele>264.5</ele><time>2026-04-11T13:51:13.421Z</time></trkpt><trkpt lat="43.9548283" lon="11.30458"><ele>263.75</ele><time>2026-04-11T13:51:14.419Z</time></trkpt><trkpt lat="43.954875" lon="11.30473"><ele>263.0</ele><time>2026-04-11T13:51:15.42Z</time></trkpt><trkpt lat="43.9549133" lon="11.3048767"><ele>262.2</ele><time>2026-04-11T13:51:16.42Z</time></trkpt><trkpt lat="43.9549433" lon="11.3050217"><ele>261.4</ele><time>2026-04-11T13:51:17.421Z</time></trkpt><trkpt lat="43.95496" lon="11.3051583"><ele>260.59999999999997</ele><time>2026-04-11T13:51:18.419Z</time></trkpt><trkpt lat="43.9549617" lon="11.3052933"><ele>259.8</ele><time>2026-04-11T13:51:19.422Z</time></trkpt><trkpt lat="43.954955" lon="11.3054117"><ele>259.0</ele><time>2026-04-11T13:51:20.422Z</time></trkpt><trkpt lat="43.9549533" lon="11.3055233"><ele>258.57142857142856</ele><time>2026-04-11T13:51:21.422Z</time></trkpt><trkpt lat="43.9549683" lon="11.3056217"><ele>258.1428571428571</ele><time>2026-04-11T13:51:22.421Z</time></trkpt><trkpt lat="43.95501" lon="11.3057083"><ele>257.7142857142857</ele><time>2026-04-11T13:51:23.42Z</time></trkpt><trkpt lat="43.9550767" lon="11.3057583"><ele>257.2857142857143</ele><time>2026-04-11T13:51:24.424Z</time></trkpt><trkpt lat="43.9551483" lon="11.3057617"><ele>256.85714285714283</ele><time>2026-04-11T13:51:25.422Z</time></trkpt><trkpt lat="43.9552183" lon="11.3057283"><ele>256.42857142857144</ele><time>2026-04-11T13:51:26.424Z</time></trkpt><trkpt lat="43.9552817" lon="11.3056867"><ele>256.0</ele><time>2026-04-11T13:51:27.424Z</time></trkpt><trkpt lat="43.9553767" lon="11.305635"><ele>254.99999999999997</ele><time>2026-04-11T13:51:29.424Z</time></trkpt><trkpt lat="43.95546" lon="11.3056083"><ele>254.0</ele><time>2026-04-11T13:52:16.421Z</time></trkpt><trkpt lat="43.9554617" lon="11.3056983"><ele>253.0</ele><time>2026-04-11T13:52:20.423Z</time></trkpt><trkpt lat="43.9553867" lon="11.305755"><ele>252.0</ele><time>2026-04-11T13:52:22.422Z</time></trkpt><trkpt lat="43.95531" lon="11.3057917"><ele>250.99999999999997</ele><time>2026-04-11T13:52:23.421Z</time></trkpt><trkpt lat="43.9552217" lon="11.3058267"><ele>250.0</ele><time>2026-04-11T13:52:24.42Z</time></trkpt><trkpt lat="43.955135" lon="11.3058667"><ele>250.0</ele><time>2026-04-11T13:52:25.422Z</time></trkpt><trkpt lat="43.9550483" lon="11.3059117"><ele>250.0</ele><time>2026-04-11T13:52:26.423Z</time></trkpt><trkpt lat="43.9549583" lon="11.30596"><ele>250.0</ele><time>2026-04-11T13:52:27.421Z</time></trkpt><trkpt lat="43.954875" lon="11.306"><ele>250.0</ele><time>2026-04-11T13:52:28.42Z</time></trkpt><trkpt lat="43.9547933" lon="11.30604"><ele>250.0</ele><time>2026-04-11T13:52:29.422Z</time></trkpt><trkpt lat="43.9547083" lon="11.306085"><ele>251.0</ele><time>2026-04-11T13:52:30.42Z</time></trkpt><trkpt lat="43.954615" lon="11.306125"><ele>252.0</ele><time>2026-04-11T13:52:31.423Z</time></trkpt><trkpt lat="43.9545183" lon="11.30617"><ele>253.0</ele><time>2026-04-11T13:52:32.42Z</time></trkpt><trkpt lat="43.9544133" lon="11.3062133"><ele>254.0</ele><time>2026-04-11T13:52:33.422Z</time></trkpt><trkpt lat="43.9542867" lon="11.3062583"><ele>255.0</ele><time>2026-04-11T13:52:34.424Z</time></trkpt><trkpt lat="43.9541533" lon="11.306295"><ele>255.0</ele><time>2026-04-11T13:52:35.423Z</time></trkpt><trkpt lat="43.9540117" lon="11.30632"><ele>255.0</ele><time>2026-04-11T13:52:36.423Z</time></trkpt><trkpt lat="43.9538683" lon="11.3063333"><ele>255.0</ele><time>2026-04-11T13:52:37.422Z</time></trkpt><trkpt lat="43.95373" lon="11.3063433"><ele>255.0</ele><time>2026-04-11T13:52:38.421Z</time></trkpt><trkpt lat="43.9536" lon="11.3063483"><ele>255.0</ele><time>2026-04-11T13:52:39.422Z</time></trkpt><trkpt lat="43.95347" lon="11.3063917"><ele>255.0</ele><time>2026-04-11T13:52:40.421Z</time></trkpt><trkpt lat="43.9533383" lon="11.3064683"><ele>255.0</ele><time>2026-04-11T13:52:41.421Z</time></trkpt><trkpt lat="43.9531883" lon="11.3065717"><ele>255.0</ele><time>2026-04-11T13:52:42.422Z</time></trkpt><trkpt lat="43.9530417" lon="11.3066833"><ele>254.5</ele><time>2026-04-11T13:52:43.423Z</time></trkpt><trkpt lat="43.9529033" lon="11.3067883"><ele>254.0</ele><time>2026-04-11T13:52:44.424Z</time></trkpt><trkpt lat="43.95278" lon="11.306885"><ele>253.5</ele><time>2026-04-11T13:52:45.422Z</time></trkpt><trkpt lat="43.9526633" lon="11.30698"><ele>253.0</ele><time>2026-04-11T13:52:46.421Z</time></trkpt><trkpt lat="43.952545" lon="11.3070817"><ele>250.5</ele><time>2026-04-11T13:52:47.421Z</time></trkpt><trkpt lat="43.9524267" lon="11.3071883"><ele>248.0</ele><time>2026-04-11T13:52:48.421Z</time></trkpt><trkpt lat="43.95232" lon="11.3073017"><ele>245.5</ele><time>2026-04-11T13:52:49.421Z</time></trkpt><trkpt lat="43.9522267" lon="11.3074283"><ele>243.0</ele><time>2026-04-11T13:52:50.421Z</time></trkpt><trkpt lat="43.9521533" lon="11.307575"><ele>242.5</ele><time>2026-04-11T13:52:51.423Z</time></trkpt><trkpt lat="43.9521" lon="11.30774"><ele>242.0</ele><time>2026-04-11T13:52:52.421Z</time></trkpt><trkpt lat="43.9520667" lon="11.3079167"><ele>241.5</ele><time>2026-04-11T13:52:53.421Z</time></trkpt><trkpt lat="43.9520583" lon="11.3081083"><ele>241.0</ele><time>2026-04-11T13:52:54.42Z</time></trkpt><trkpt lat="43.9520767" lon="11.308325"><ele>241.0</ele><time>2026-04-11T13:52:55.42Z</time></trkpt><trkpt lat="43.9521117" lon="11.308555"><ele>241.0</ele><time>2026-04-11T13:52:56.422Z</time></trkpt><trkpt lat="43.95215" lon="11.30878"><ele>241.0</ele><time>2026-04-11T13:52:57.422Z</time></trkpt><trkpt lat="43.9521833" lon="11.3089833"><ele>240.0</ele><time>2026-04-11T13:52:58.422Z</time></trkpt><trkpt lat="43.9522133" lon="11.3091767"><ele>239.0</ele><time>2026-04-11T13:52:59.42Z</time></trkpt><trkpt lat="43.9522433" lon="11.3093517"><ele>238.0</ele><time>2026-04-11T13:53:00.423Z</time></trkpt><trkpt lat="43.9522717" lon="11.3095117"><ele>237.0</ele><time>2026-04-11T13:53:01.421Z</time></trkpt><trkpt lat="43.9523" lon="11.3096633"><ele>235.39999999999998</ele><time>2026-04-11T13:53:02.419Z</time></trkpt><trkpt lat="43.952325" lon="11.3098067"><ele>233.79999999999998</ele><time>2026-04-11T13:53:03.422Z</time></trkpt><trkpt lat="43.9523483" lon="11.3099383"><ele>232.2</ele><time>2026-04-11T13:53:04.421Z</time></trkpt><trkpt lat="43.9523667" lon="11.3100633"><ele>230.6</ele><time>2026-04-11T13:53:05.421Z</time></trkpt><trkpt lat="43.9523867" lon="11.3101817"><ele>229.0</ele><time>2026-04-11T13:53:06.419Z</time></trkpt><trkpt lat="43.952405" lon="11.3102883"><ele>228.99999999999997</ele><time>2026-04-11T13:53:07.42Z</time></trkpt><trkpt lat="43.952425" lon="11.3103983"><ele>229.0</ele><time>2026-04-11T13:53:08.422Z</time></trkpt><trkpt lat="43.9524467" lon="11.3105167"><ele>229.0</ele><time>2026-04-11T13:53:09.42Z</time></trkpt><trkpt lat="43.9524617" lon="11.3106367"><ele>229.0</ele><time>2026-04-11T13:53:10.422Z</time></trkpt><trkpt lat="43.952465" lon="11.310745"><ele>228.99999999999997</ele><time>2026-04-11T13:53:11.421Z</time></trkpt><trkpt lat="43.9524533" lon="11.3108417"><ele>229.0</ele><time>2026-04-11T13:53:12.422Z</time></trkpt><trkpt lat="43.952425" lon="11.31094"><ele>228.99999999999997</ele><time>2026-04-11T13:53:13.421Z</time></trkpt><trkpt lat="43.9523933" lon="11.311055"><ele>229.0</ele><time>2026-04-11T13:53:14.421Z</time></trkpt><trkpt lat="43.9523717" lon="11.3111783"><ele>229.0</ele><time>2026-04-11T13:53:15.421Z</time></trkpt><trkpt lat="43.952375" lon="11.3112917"><ele>229.0</ele><time>2026-04-11T13:53:16.421Z</time></trkpt><trkpt lat="43.9524" lon="11.3113867"><ele>228.99999999999997</ele><time>2026-04-11T13:53:17.421Z</time></trkpt><trkpt lat="43.952445" lon="11.3114583"><ele>229.0</ele><time>2026-04-11T13:53:18.421Z</time></trkpt><trkpt lat="43.9525083" lon="11.3115033"><ele>228.0</ele><time>2026-04-11T13:53:19.422Z</time></trkpt><trkpt lat="43.9525833" lon="11.311515"><ele>226.99999999999997</ele><time>2026-04-11T13:53:20.422Z</time></trkpt><trkpt lat="43.9526683" lon="11.3114917"><ele>225.99999999999997</ele><time>2026-04-11T13:53:21.422Z</time></trkpt><trkpt lat="43.95277" lon="11.3114433"><ele>225.0</ele><time>2026-04-11T13:53:22.422Z</time></trkpt><trkpt lat="43.9528817" lon="11.3114133"><ele>224.0</ele><time>2026-04-11T13:53:23.421Z</time></trkpt><trkpt lat="43.9530067" lon="11.3114233"><ele>224.0</ele><time>2026-04-11T13:53:24.421Z</time></trkpt><trkpt lat="43.9531367" lon="11.3114617"><ele>224.0</ele><time>2026-04-11T13:53:25.422Z</time></trkpt><trkpt lat="43.9532583" lon="11.31152"><ele>224.0</ele><time>2026-04-11T13:53:26.421Z</time></trkpt><trkpt lat="43.953375" lon="11.31158"><ele>224.0</ele><time>2026-04-11T13:53:27.42Z</time></trkpt><trkpt lat="43.953495" lon="11.31164"><ele>223.5</ele><time>2026-04-11T13:53:28.421Z</time></trkpt><trkpt lat="43.9536233" lon="11.3117033"><ele>223.0</ele><time>2026-04-11T13:53:29.42Z</time></trkpt><trkpt lat="43.9537567" lon="11.3117633"><ele>222.5</ele><time>2026-04-11T13:53:30.42Z</time></trkpt><trkpt lat="43.953895" lon="11.31182"><ele>222.0</ele><time>2026-04-11T13:53:31.421Z</time></trkpt><trkpt lat="43.9540283" lon="11.31188"><ele>222.0</ele><time>2026-04-11T13:53:32.421Z</time></trkpt><trkpt lat="43.9541517" lon="11.3119483"><ele>222.0</ele><time>2026-04-11T13:53:33.421Z</time></trkpt><trkpt lat="43.9542633" lon="11.312035"><ele>222.0</ele><time>2026-04-11T13:53:34.42Z</time></trkpt><trkpt lat="43.95436" lon="11.3121267"><ele>222.0</ele><time>2026-04-11T13:53:35.42Z</time></trkpt><trkpt lat="43.9544433" lon="11.3122267"><ele>221.2</ele><time>2026-04-11T13:53:36.419Z</time></trkpt><trkpt lat="43.954515" lon="11.3123283"><ele>220.39999999999998</ele><time>2026-04-11T13:53:37.421Z</time></trkpt><trkpt lat="43.95458" lon="11.3124367"><ele>219.60000000000002</ele><time>2026-04-11T13:53:38.42Z</time></trkpt><trkpt lat="43.95464" lon="11.3125367"><ele>218.8</ele><time>2026-04-11T13:53:39.419Z</time></trkpt><trkpt lat="43.9546983" lon="11.31263"><ele>218.0</ele><time>2026-04-11T13:53:40.438Z</time></trkpt><trkpt lat="43.9547467" lon="11.3127133"><ele>218.00000000000003</ele><time>2026-04-11T13:53:41.42Z</time></trkpt><trkpt lat="43.9547917" lon="11.3127917"><ele>218.0</ele><time>2026-04-11T13:53:42.418Z</time></trkpt><trkpt lat="43.954835" lon="11.3128667"><ele>218.0</ele><time>2026-04-11T13:53:43.42Z</time></trkpt><trkpt lat="43.9548783" lon="11.312935"><ele>218.0</ele><time>2026-04-11T13:53:44.42Z</time></trkpt><trkpt lat="43.9549483" lon="11.31305"><ele>218.00000000000003</ele><time>2026-04-11T13:53:46.421Z</time></trkpt><trkpt lat="43.955" lon="11.3131267"><ele>218.0</ele><time>2026-04-11T13:53:48.421Z</time></trkpt><trkpt lat="43.9550667" lon="11.3131933"><ele>217.0</ele><time>2026-04-11T13:53:51.42Z</time></trkpt><trkpt lat="43.9551383" lon="11.3131667"><ele>217.0</ele><time>2026-04-11T13:53:55.421Z</time></trkpt><trkpt lat="43.955115" lon="11.313055"><ele>219.0</ele><time>2026-04-11T13:53:59.422Z</time></trkpt><trkpt lat="43.9550783" lon="11.3129733"><ele>219.0</ele><time>2026-04-11T13:54:02.421Z</time></trkpt><trkpt lat="43.9550167" lon="11.312945"><ele>218.0</ele><time>2026-04-11T13:54:05.422Z</time></trkpt></trkseg></trk></gpx>